<?xml version='1.0' encoding='UTF-8'?><gpx version="1.1" creator="JPX - https://github.com/jenetics/jpx" xmlns="http://www.topografix.com/GPX/1/1"><trk><trkseg><trkpt lat="43.77325324757712" lon="10.433818495078716"><ele>14.142857142857144</ele><time>2026-04-06T09:01:43Z</time></trkpt><trkpt lat="43.773211547090455" lon="10.43374995565667"><ele>13.285714285714285</ele><time>2026-04-06T09:03:01Z</time></trkpt><trkpt lat="43.77320484840976" lon="10.433653282471091"><ele>12.428571428571429</ele><time>2026-04-06T09:03:23Z</time></trkpt><trkpt lat="43.77318126087047" lon="10.433563928973966"><ele>11.571428571428573</ele><time>2026-04-06T09:03:25Z</time></trkpt><trkpt lat="43.77314263635419" lon="10.433488790010921"><ele>10.714285714285715</ele><time>2026-04-06T09:03:42Z</time></trkpt><trkpt lat="43.77307580126605" lon="10.433507332035935"><ele>9.857142857142858</ele><time>2026-04-06T09:03:44Z</time></trkpt><trkpt lat="43.77302077275471" lon="10.433551514705602"><ele>9.0</ele><time>2026-04-06T09:03:45Z</time></trkpt><trkpt lat="43.77295288415414" lon="10.433599170654979"><ele>9.0</ele><time>2026-04-06T09:03:46Z</time></trkpt><trkpt lat="43.77288630054082" lon="10.433627645591537"><ele>9.0</ele><time>2026-04-06T09:03:47Z</time></trkpt><trkpt lat="43.77281487910314" lon="10.433669735247909"><ele>9.0</ele><time>2026-04-06T09:03:48Z</time></trkpt><trkpt lat="43.772729445361485" lon="10.433680343907472"><ele>9.0</ele><time>2026-04-06T09:03:49Z</time></trkpt><trkpt lat="43.77264363459837" lon="10.433712825720919"><ele>9.0</ele><time>2026-04-06T09:03:50Z</time></trkpt><trkpt lat="43.77255048054072" lon="10.433737061182388"><ele>9.0</ele><time>2026-04-06T09:03:51Z</time></trkpt><trkpt lat="43.772456606489236" lon="10.433778975533697"><ele>8.6</ele><time>2026-04-06T09:03:52Z</time></trkpt><trkpt lat="43.77236496576417" lon="10.433800167093612"><ele>8.2</ele><time>2026-04-06T09:03:53Z</time></trkpt><trkpt lat="43.77227046301977" lon="10.433830156872256"><ele>7.799999999999999</ele><time>2026-04-06T09:03:54Z</time></trkpt><trkpt lat="43.77217116433688" lon="10.433867435035529"><ele>7.3999999999999995</ele><time>2026-04-06T09:03:55Z</time></trkpt><trkpt lat="43.772063401834735" lon="10.433885403724087"><ele>7.0</ele><time>2026-04-06T09:03:56Z</time></trkpt><trkpt lat="43.77196122501973" lon="10.433918100305117"><ele>8.2</ele><time>2026-04-06T09:03:57Z</time></trkpt><trkpt lat="43.771858030516796" lon="10.433986539044806"><ele>9.399999999999999</ele><time>2026-04-06T09:03:58Z</time></trkpt><trkpt lat="43.77176527394642" lon="10.434034559017912"><ele>10.600000000000001</ele><time>2026-04-06T09:03:59Z</time></trkpt><trkpt lat="43.771665727665194" lon="10.434103015629592"><ele>11.8</ele><time>2026-04-06T09:04:00Z</time></trkpt><trkpt lat="43.771563852141696" lon="10.43414578829866"><ele>13.0</ele><time>2026-04-06T09:04:01Z</time></trkpt><trkpt lat="43.771468016794714" lon="10.43422096140849"><ele>13.0</ele><time>2026-04-06T09:04:02Z</time></trkpt><trkpt lat="43.77138521551635" lon="10.434315111412323"><ele>13.0</ele><time>2026-04-06T09:04:03Z</time></trkpt><trkpt lat="43.771289336442386" lon="10.434390048945062"><ele>13.0</ele><time>2026-04-06T09:04:04Z</time></trkpt><trkpt lat="43.77120356902435" lon="10.434490789849674"><ele>13.0</ele><time>2026-04-06T09:04:05Z</time></trkpt><trkpt lat="43.771115700242746" lon="10.434584314654685"><ele>13.0</ele><time>2026-04-06T09:04:06Z</time></trkpt><trkpt lat="43.77102665542801" lon="10.434684050973377"><ele>13.25</ele><time>2026-04-06T09:04:07Z</time></trkpt><trkpt lat="43.77093864013074" lon="10.43478398709785"><ele>13.5</ele><time>2026-04-06T09:04:08Z</time></trkpt><trkpt lat="43.770836843670345" lon="10.434864665884973"><ele>13.75</ele><time>2026-04-06T09:04:09Z</time></trkpt><trkpt lat="43.77074121763986" lon="10.434956163545719"><ele>14.0</ele><time>2026-04-06T09:04:10Z</time></trkpt><trkpt lat="43.770651803062954" lon="10.43505531795855"><ele>14.0</ele><time>2026-04-06T09:04:11Z</time></trkpt><trkpt lat="43.77056941923123" lon="10.435174133568161"><ele>14.0</ele><time>2026-04-06T09:04:12Z</time></trkpt><trkpt lat="43.77049396075041" lon="10.435322766324559"><ele>14.0</ele><time>2026-04-06T09:04:13Z</time></trkpt><trkpt lat="43.77041500234495" lon="10.435494406333069"><ele>14.0</ele><time>2026-04-06T09:04:14Z</time></trkpt><trkpt lat="43.770327903476186" lon="10.435678751439179"><ele>12.0</ele><time>2026-04-06T09:04:15Z</time></trkpt><trkpt lat="43.770245268342386" lon="10.435848969495643"><ele>10.0</ele><time>2026-04-06T09:04:16Z</time></trkpt><trkpt lat="43.77015520877998" lon="10.436021789058548"><ele>8.0</ele><time>2026-04-06T09:04:17Z</time></trkpt><trkpt lat="43.77006026670199" lon="10.436195965561993"><ele>9.0</ele><time>2026-04-06T09:04:18Z</time></trkpt><trkpt lat="43.76996996502412" lon="10.43636009106511"><ele>10.0</ele><time>2026-04-06T09:04:19Z</time></trkpt><trkpt lat="43.769856363582214" lon="10.436525820853436"><ele>11.0</ele><time>2026-04-06T09:04:20Z</time></trkpt><trkpt lat="43.76973841517739" lon="10.436683785429452"><ele>11.0</ele><time>2026-04-06T09:04:21Z</time></trkpt><trkpt lat="43.76962057263495" lon="10.43684909639335"><ele>11.0</ele><time>2026-04-06T09:04:22Z</time></trkpt><trkpt lat="43.76950032901827" lon="10.437023390853291"><ele>11.0</ele><time>2026-04-06T09:04:23Z</time></trkpt><trkpt lat="43.76938099595577" lon="10.437191547899685"><ele>10.333333333333332</ele><time>2026-04-06T09:04:24Z</time></trkpt><trkpt lat="43.769265763494694" lon="10.43735704364859"><ele>9.666666666666666</ele><time>2026-04-06T09:04:25Z</time></trkpt><trkpt lat="43.7691365868947" lon="10.437510273664977"><ele>9.0</ele><time>2026-04-06T09:04:26Z</time></trkpt><trkpt lat="43.76899416578517" lon="10.437637592941961"><ele>9.0</ele><time>2026-04-06T09:04:27Z</time></trkpt><trkpt lat="43.76884271250286" lon="10.437745058234901"><ele>9.0</ele><time>2026-04-06T09:04:28Z</time></trkpt><trkpt lat="43.76868640646847" lon="10.437839983529194"><ele>9.0</ele><time>2026-04-06T09:04:29Z</time></trkpt><trkpt lat="43.76853507717658" lon="10.437943699517803"><ele>11.666666666666668</ele><time>2026-04-06T09:04:30Z</time></trkpt><trkpt lat="43.768382675255246" lon="10.438052552100725"><ele>14.333333333333334</ele><time>2026-04-06T09:04:31Z</time></trkpt><trkpt lat="43.76823864841093" lon="10.438143799378773"><ele>17.0</ele><time>2026-04-06T09:04:32Z</time></trkpt><trkpt lat="43.76809523706738" lon="10.43824419610726"><ele>17.0</ele><time>2026-04-06T09:04:33Z</time></trkpt><trkpt lat="43.76795249112177" lon="10.438363383861951"><ele>17.0</ele><time>2026-04-06T09:04:34Z</time></trkpt><trkpt lat="43.767814725975185" lon="10.438461381285686"><ele>17.0</ele><time>2026-04-06T09:04:35Z</time></trkpt><trkpt lat="43.76767537237502" lon="10.43855487926088"><ele>17.5</ele><time>2026-04-06T09:04:36Z</time></trkpt><trkpt lat="43.76754256577192" lon="10.438660013953145"><ele>18.0</ele><time>2026-04-06T09:04:37Z</time></trkpt><trkpt lat="43.76742062459454" lon="10.438757686905332"><ele>18.5</ele><time>2026-04-06T09:04:38Z</time></trkpt><trkpt lat="43.76730918579912" lon="10.438851017636589"><ele>19.0</ele><time>2026-04-06T09:04:39Z</time></trkpt><trkpt lat="43.76720676858163" lon="10.438937451973908"><ele>19.0</ele><time>2026-04-06T09:04:40Z</time></trkpt><trkpt lat="43.767116154154266" lon="10.439005181793776"><ele>19.0</ele><time>2026-04-06T09:04:41Z</time></trkpt><trkpt lat="43.76703103778174" lon="10.439079234907112"><ele>19.0</ele><time>2026-04-06T09:04:42Z</time></trkpt><trkpt lat="43.76695432857985" lon="10.43914442310123"><ele>19.0</ele><time>2026-04-06T09:04:43Z</time></trkpt><trkpt lat="43.766885768650965" lon="10.439187443722611"><ele>19.0</ele><time>2026-04-06T09:04:44Z</time></trkpt><trkpt lat="43.76681720140286" lon="10.439198659486195"><ele>19.0</ele><time>2026-04-06T09:04:45Z</time></trkpt><trkpt lat="43.76674532392868" lon="10.439127295229195"><ele>16.75</ele><time>2026-04-06T09:04:46Z</time></trkpt><trkpt lat="43.766670380647284" lon="10.439043987601236"><ele>14.5</ele><time>2026-04-06T09:04:47Z</time></trkpt><trkpt lat="43.76656493216816" lon="10.438956825029376"><ele>12.25</ele><time>2026-04-06T09:04:48Z</time></trkpt><trkpt lat="43.76644204713971" lon="10.43886649620677"><ele>10.0</ele><time>2026-04-06T09:04:49Z</time></trkpt><trkpt lat="43.76630903902042" lon="10.438773895915972"><ele>8.333333333333334</ele><time>2026-04-06T09:04:50Z</time></trkpt><trkpt lat="43.766171562904184" lon="10.438663088761801"><ele>6.666666666666667</ele><time>2026-04-06T09:04:51Z</time></trkpt><trkpt lat="43.76603753784855" lon="10.43855670990657"><ele>5.0</ele><time>2026-04-06T09:04:52Z</time></trkpt><trkpt lat="43.76591338887161" lon="10.43845788506295"><ele>5.0</ele><time>2026-04-06T09:04:53Z</time></trkpt><trkpt lat="43.76580259704473" lon="10.438369948372122"><ele>5.0</ele><time>2026-04-06T09:04:54Z</time></trkpt><trkpt lat="43.76569604213026" lon="10.43828797609058"><ele>5.0</ele><time>2026-04-06T09:04:55Z</time></trkpt><trkpt lat="43.7655997101243" lon="10.438215785562273"><ele>5.0</ele><time>2026-04-06T09:04:56Z</time></trkpt><trkpt lat="43.76551032019144" lon="10.438135398277815"><ele>5.0</ele><time>2026-04-06T09:04:57Z</time></trkpt><trkpt lat="43.76542709010201" lon="10.438073104823324"><ele>5.0</ele><time>2026-04-06T09:04:58Z</time></trkpt><trkpt lat="43.76535001251599" lon="10.438012044348033"><ele>5.0</ele><time>2026-04-06T09:04:59Z</time></trkpt><trkpt lat="43.76527571647632" lon="10.4379553299252"><ele>5.0</ele><time>2026-04-06T09:05:00Z</time></trkpt><trkpt lat="43.765207518256425" lon="10.437896839468381"><ele>5.0</ele><time>2026-04-06T09:05:01Z</time></trkpt><trkpt lat="43.76514524771468" lon="10.437853220714377"><ele>5.0</ele><time>2026-04-06T09:05:02Z</time></trkpt><trkpt lat="43.76505998474739" lon="10.437785478116812"><ele>5.166666666666667</ele><time>2026-04-06T09:05:04Z</time></trkpt><trkpt lat="43.764988366187055" lon="10.437710771783161"><ele>5.333333333333334</ele><time>2026-04-06T09:05:07Z</time></trkpt><trkpt lat="43.76492052897006" lon="10.437840580347073"><ele>5.5</ele><time>2026-04-06T09:05:08Z</time></trkpt><trkpt lat="43.764881361023264" lon="10.437913818296856"><ele>5.666666666666667</ele><time>2026-04-06T09:05:09Z</time></trkpt><trkpt lat="43.76484168761973" lon="10.438006134370118"><ele>5.833333333333333</ele><time>2026-04-06T09:05:10Z</time></trkpt><trkpt lat="43.764798142536314" lon="10.438110526241276"><ele>6.0</ele><time>2026-04-06T09:05:11Z</time></trkpt><trkpt lat="43.764745647850255" lon="10.438209197170435"><ele>6.0</ele><time>2026-04-06T09:05:12Z</time></trkpt><trkpt lat="43.764698852363644" lon="10.43832234763129"><ele>6.0</ele><time>2026-04-06T09:05:13Z</time></trkpt><trkpt lat="43.76464123112685" lon="10.43843188515686"><ele>6.0</ele><time>2026-04-06T09:05:14Z</time></trkpt><trkpt lat="43.76458125729875" lon="10.438550550859846"><ele>6.0</ele><time>2026-04-06T09:05:15Z</time></trkpt><trkpt lat="43.7645144047888" lon="10.438680218853712"><ele>6.0</ele><time>2026-04-06T09:05:16Z</time></trkpt><trkpt lat="43.7644510996091" lon="10.438802245164213"><ele>6.0</ele><time>2026-04-06T09:05:17Z</time></trkpt><trkpt lat="43.76439537418362" lon="10.438893597540586"><ele>6.0</ele><time>2026-04-06T09:05:18Z</time></trkpt><trkpt lat="43.76433832235696" lon="10.438944159263713"><ele>6.0</ele><time>2026-04-06T09:05:19Z</time></trkpt><trkpt lat="43.764229041547146" lon="10.438944056388532"><ele>6.0</ele><time>2026-04-06T09:05:21Z</time></trkpt><trkpt lat="43.76421005672689" lon="10.438846438716308"><ele>6.0</ele><time>2026-04-06T09:05:22Z</time></trkpt><trkpt lat="43.76416327104531" lon="10.438740105819758"><ele>6.0</ele><time>2026-04-06T09:05:23Z</time></trkpt><trkpt lat="43.76405135896308" lon="10.438657756616308"><ele>5.5</ele><time>2026-04-06T09:05:24Z</time></trkpt><trkpt lat="43.763938450242975" lon="10.43854484721444"><ele>5.0</ele><time>2026-04-06T09:05:25Z</time></trkpt><trkpt lat="43.76381762560542" lon="10.43843250518236"><ele>4.5</ele><time>2026-04-06T09:05:26Z</time></trkpt><trkpt lat="43.76371925877308" lon="10.438342486761568"><ele>4.0</ele><time>2026-04-06T09:05:27Z</time></trkpt><trkpt lat="43.76364741991279" lon="10.43826074047722"><ele>4.0</ele><time>2026-04-06T09:05:28Z</time></trkpt><trkpt lat="43.76357821823722" lon="10.438208252482664"><ele>4.0</ele><time>2026-04-06T09:05:29Z</time></trkpt><trkpt lat="43.76350437624166" lon="10.438140298040057"><ele>4.0</ele><time>2026-04-06T09:05:30Z</time></trkpt><trkpt lat="43.763402609926665" lon="10.438049422445877"><ele>4.0</ele><time>2026-04-06T09:05:31Z</time></trkpt><trkpt lat="43.7633006405795" lon="10.437958188548379"><ele>4.0</ele><time>2026-04-06T09:05:32Z</time></trkpt><trkpt lat="43.76318839020727" lon="10.437864366363357"><ele>3.5</ele><time>2026-04-06T09:05:33Z</time></trkpt><trkpt lat="43.76307437320404" lon="10.43775616428959"><ele>3.0</ele><time>2026-04-06T09:05:34Z</time></trkpt><trkpt lat="43.76295963678428" lon="10.437644195387197"><ele>2.5</ele><time>2026-04-06T09:05:35Z</time></trkpt><trkpt lat="43.7628437294352" lon="10.437540004083388"><ele>2.0</ele><time>2026-04-06T09:05:36Z</time></trkpt><trkpt lat="43.7627408038982" lon="10.437448358860403"><ele>2.0</ele><time>2026-04-06T09:05:37Z</time></trkpt><trkpt lat="43.76264154197719" lon="10.437372113868129"><ele>2.0</ele><time>2026-04-06T09:05:38Z</time></trkpt><trkpt lat="43.7625467027743" lon="10.437293595393239"><ele>2.0</ele><time>2026-04-06T09:05:39Z</time></trkpt><trkpt lat="43.762452143293885" lon="10.437199118975856"><ele>2.0</ele><time>2026-04-06T09:05:40Z</time></trkpt><trkpt lat="43.76235471225689" lon="10.437096062552756"><ele>1.8</ele><time>2026-04-06T09:05:41Z</time></trkpt><trkpt lat="43.76226440451326" lon="10.437006613656768"><ele>1.6</ele><time>2026-04-06T09:05:42Z</time></trkpt><trkpt lat="43.76218357398477" lon="10.4369265897142"><ele>1.4000000000000001</ele><time>2026-04-06T09:05:43Z</time></trkpt><trkpt lat="43.76210578729429" lon="10.43685563915698"><ele>1.2000000000000002</ele><time>2026-04-06T09:05:44Z</time></trkpt><trkpt lat="43.76203042872563" lon="10.436790230412745"><ele>1.0</ele><time>2026-04-06T09:05:45Z</time></trkpt><trkpt lat="43.76194829182409" lon="10.436721934412855"><ele>1.2000000000000002</ele><time>2026-04-06T09:05:46Z</time></trkpt><trkpt lat="43.76185930002103" lon="10.43664090538232"><ele>1.4000000000000001</ele><time>2026-04-06T09:05:47Z</time></trkpt><trkpt lat="43.761769358079384" lon="10.436554809613199"><ele>1.6</ele><time>2026-04-06T09:05:48Z</time></trkpt><trkpt lat="43.76167705244013" lon="10.436467652534988"><ele>1.8</ele><time>2026-04-06T09:05:49Z</time></trkpt><trkpt lat="43.76157857250397" lon="10.436379812026484"><ele>2.0</ele><time>2026-04-06T09:05:50Z</time></trkpt><trkpt lat="43.76148457556791" lon="10.4362987116504"><ele>2.1666666666666665</ele><time>2026-04-06T09:05:51Z</time></trkpt><trkpt lat="43.76140610072806" lon="10.436231230605943"><ele>2.333333333333333</ele><time>2026-04-06T09:05:52Z</time></trkpt><trkpt lat="43.7613360483564" lon="10.436167759662846"><ele>2.5</ele><time>2026-04-06T09:05:53Z</time></trkpt><trkpt lat="43.76127340203912" lon="10.436107747199049"><ele>2.6666666666666665</ele><time>2026-04-06T09:05:54Z</time></trkpt><trkpt lat="43.76120798729217" lon="10.436047304360962"><ele>2.8333333333333335</ele><time>2026-04-06T09:05:55Z</time></trkpt><trkpt lat="43.761133855915276" lon="10.435979438527552"><ele>3.0</ele><time>2026-04-06T09:05:56Z</time></trkpt><trkpt lat="43.76105117503111" lon="10.435905776348607"><ele>3.1666666666666665</ele><time>2026-04-06T09:05:57Z</time></trkpt><trkpt lat="43.760971508187424" lon="10.435829094391504"><ele>3.333333333333333</ele><time>2026-04-06T09:05:58Z</time></trkpt><trkpt lat="43.76089285242943" lon="10.435756900447181"><ele>3.5</ele><time>2026-04-06T09:05:59Z</time></trkpt><trkpt lat="43.76082345838363" lon="10.435691746350638"><ele>3.6666666666666665</ele><time>2026-04-06T09:06:00Z</time></trkpt><trkpt lat="43.76075875342069" lon="10.43563196301219"><ele>3.833333333333333</ele><time>2026-04-06T09:06:01Z</time></trkpt><trkpt lat="43.76069119037721" lon="10.43557177189667"><ele>4.0</ele><time>2026-04-06T09:06:02Z</time></trkpt><trkpt lat="43.76061992885212" lon="10.435500999911733"><ele>3.9999999999999996</ele><time>2026-04-06T09:06:03Z</time></trkpt><trkpt lat="43.76054072134627" lon="10.435427720696337"><ele>4.0</ele><time>2026-04-06T09:06:04Z</time></trkpt><trkpt lat="43.76045980633937" lon="10.435350223839814"><ele>4.0</ele><time>2026-04-06T09:06:05Z</time></trkpt><trkpt lat="43.7603790639566" lon="10.435273890436383"><ele>4.0</ele><time>2026-04-06T09:06:06Z</time></trkpt><trkpt lat="43.76031813089336" lon="10.435207497070099"><ele>3.9999999999999996</ele><time>2026-04-06T09:06:07Z</time></trkpt><trkpt lat="43.76026660182314" lon="10.435151940278365"><ele>4.0</ele><time>2026-04-06T09:06:08Z</time></trkpt><trkpt lat="43.76020691278494" lon="10.435095500887444"><ele>3.75</ele><time>2026-04-06T09:06:09Z</time></trkpt><trkpt lat="43.76012369496198" lon="10.435030514467684"><ele>3.5</ele><time>2026-04-06T09:06:10Z</time></trkpt><trkpt lat="43.760023663511255" lon="10.434943465123002"><ele>3.25</ele><time>2026-04-06T09:06:11Z</time></trkpt><trkpt lat="43.75991159366322" lon="10.434837464774004"><ele>3.0</ele><time>2026-04-06T09:06:12Z</time></trkpt><trkpt lat="43.759787895603615" lon="10.434734260466021"><ele>3.0</ele><time>2026-04-06T09:06:13Z</time></trkpt><trkpt lat="43.75966751497705" lon="10.43462745975894"><ele>3.0</ele><time>2026-04-06T09:06:14Z</time></trkpt><trkpt lat="43.75955330934508" lon="10.434522606076756"><ele>3.0</ele><time>2026-04-06T09:06:15Z</time></trkpt><trkpt lat="43.75944280661809" lon="10.434428447681924"><ele>3.0</ele><time>2026-04-06T09:06:16Z</time></trkpt><trkpt lat="43.75934668809867" lon="10.434343070664465"><ele>2.6</ele><time>2026-04-06T09:06:17Z</time></trkpt><trkpt lat="43.75926235781751" lon="10.434262090629076"><ele>2.1999999999999997</ele><time>2026-04-06T09:06:18Z</time></trkpt><trkpt lat="43.75917754855218" lon="10.434181681123603"><ele>1.8</ele><time>2026-04-06T09:06:19Z</time></trkpt><trkpt lat="43.759107182677816" lon="10.434088196349123"><ele>1.4</ele><time>2026-04-06T09:06:20Z</time></trkpt><trkpt lat="43.75908301568949" lon="10.433947394035137"><ele>1.0</ele><time>2026-04-06T09:06:21Z</time></trkpt><trkpt lat="43.75903528726213" lon="10.433846951929546"><ele>1.0</ele><time>2026-04-06T09:06:22Z</time></trkpt><trkpt lat="43.75898959326983" lon="10.433761196784813"><ele>0.9999999999999999</ele><time>2026-04-06T09:06:23Z</time></trkpt><trkpt lat="43.758940979410625" lon="10.433696914387093"><ele>1.0</ele><time>2026-04-06T09:06:24Z</time></trkpt><trkpt lat="43.75884318895939" lon="10.433724350747381"><ele>1.0</ele><time>2026-04-06T09:06:25Z</time></trkpt><trkpt lat="43.758776516061225" lon="10.433748473242995"><ele>0.9999999999999999</ele><time>2026-04-06T09:06:26Z</time></trkpt><trkpt lat="43.75871771338389" lon="10.43379987789555"><ele>1.0</ele><time>2026-04-06T09:06:27Z</time></trkpt><trkpt lat="43.758678577648084" lon="10.433874091767303"><ele>1.0</ele><time>2026-04-06T09:06:28Z</time></trkpt><trkpt lat="43.758649167193546" lon="10.433975238175032"><ele>1.0</ele><time>2026-04-06T09:06:29Z</time></trkpt><trkpt lat="43.75867009295352" lon="10.4341087502855"><ele>1.0</ele><time>2026-04-06T09:06:30Z</time></trkpt><trkpt lat="43.75854858581729" lon="10.434203539917608"><ele>1.0</ele><time>2026-04-06T09:06:31Z</time></trkpt><trkpt lat="43.75845971320991" lon="10.434301249114045"><ele>1.0</ele><time>2026-04-06T09:06:32Z</time></trkpt><trkpt lat="43.75835283060548" lon="10.434409242866357"><ele>1.0</ele><time>2026-04-06T09:06:33Z</time></trkpt><trkpt lat="43.75823903481754" lon="10.43454876353173"><ele>1.0</ele><time>2026-04-06T09:06:34Z</time></trkpt><trkpt lat="43.7581178761221" lon="10.434706162821305"><ele>1.0</ele><time>2026-04-06T09:06:35Z</time></trkpt><trkpt lat="43.757993358016634" lon="10.434890848746454"><ele>1.0</ele><time>2026-04-06T09:06:36Z</time></trkpt><trkpt lat="43.75787131647916" lon="10.435086728797733"><ele>1.0</ele><time>2026-04-06T09:06:37Z</time></trkpt><trkpt lat="43.7577551581602" lon="10.435269321700597"><ele>1.0</ele><time>2026-04-06T09:06:38Z</time></trkpt><trkpt lat="43.757636302635284" lon="10.435452256883494"><ele>1.3333333333333333</ele><time>2026-04-06T09:06:39Z</time></trkpt><trkpt lat="43.75752133066685" lon="10.435634699007235"><ele>1.6666666666666665</ele><time>2026-04-06T09:06:40Z</time></trkpt><trkpt lat="43.75740656542352" lon="10.435816450267579"><ele>2.0</ele><time>2026-04-06T09:06:41Z</time></trkpt><trkpt lat="43.75729084066308" lon="10.435996521058039"><ele>2.0</ele><time>2026-04-06T09:06:42Z</time></trkpt><trkpt lat="43.757176781966585" lon="10.4361713120192"><ele>2.0</ele><time>2026-04-06T09:06:43Z</time></trkpt><trkpt lat="43.75706381931482" lon="10.436343552512676"><ele>2.0</ele><time>2026-04-06T09:06:44Z</time></trkpt><trkpt lat="43.75695322368718" lon="10.436522509289368"><ele>0.6666666666666666</ele><time>2026-04-06T09:06:45Z</time></trkpt><trkpt lat="43.75684409370572" lon="10.436683100464943"><ele>-0.6666666666666666</ele><time>2026-04-06T09:06:46Z</time></trkpt><trkpt lat="43.75674163939894" lon="10.436835138169053"><ele>-2.0</ele><time>2026-04-06T09:06:47Z</time></trkpt><trkpt lat="43.75664373702835" lon="10.436982391489398"><ele>-2.0</ele><time>2026-04-06T09:06:48Z</time></trkpt><trkpt lat="43.756556244545884" lon="10.43712147547664"><ele>-2.0</ele><time>2026-04-06T09:06:49Z</time></trkpt><trkpt lat="43.75647640251213" lon="10.437248923024521"><ele>-2.0</ele><time>2026-04-06T09:06:50Z</time></trkpt><trkpt lat="43.75640546013543" lon="10.437366405164255"><ele>-2.0</ele><time>2026-04-06T09:06:51Z</time></trkpt><trkpt lat="43.75634329687781" lon="10.437471130401676"><ele>-1.6</ele><time>2026-04-06T09:06:52Z</time></trkpt><trkpt lat="43.75628237336862" lon="10.437558631669416"><ele>-1.2000000000000002</ele><time>2026-04-06T09:06:53Z</time></trkpt><trkpt lat="43.756215765867594" lon="10.437634655161542"><ele>-0.8</ele><time>2026-04-06T09:06:54Z</time></trkpt><trkpt lat="43.75613402703173" lon="10.437686180297225"><ele>-0.4</ele><time>2026-04-06T09:06:55Z</time></trkpt><trkpt lat="43.75603569116488" lon="10.437722549606573"><ele>0.0</ele><time>2026-04-06T09:06:56Z</time></trkpt><trkpt lat="43.755942197014605" lon="10.43778263766847"><ele>0.2</ele><time>2026-04-06T09:06:57Z</time></trkpt><trkpt lat="43.755868320849366" lon="10.437872092294548"><ele>0.4</ele><time>2026-04-06T09:06:58Z</time></trkpt><trkpt lat="43.75578943140858" lon="10.437972267444106"><ele>0.6000000000000001</ele><time>2026-04-06T09:06:59Z</time></trkpt><trkpt lat="43.755697962220545" lon="10.438042688029878"><ele>0.8</ele><time>2026-04-06T09:07:00Z</time></trkpt><trkpt lat="43.75558877755923" lon="10.438086202156782"><ele>1.0</ele><time>2026-04-06T09:07:01Z</time></trkpt><trkpt lat="43.755462309356076" lon="10.438105514983379"><ele>1.0</ele><time>2026-04-06T09:07:02Z</time></trkpt><trkpt lat="43.7553228001883" lon="10.438111050660376"><ele>1.0</ele><time>2026-04-06T09:07:03Z</time></trkpt><trkpt lat="43.75517550270626" lon="10.438098053203586"><ele>1.0</ele><time>2026-04-06T09:07:04Z</time></trkpt><trkpt lat="43.755024136234766" lon="10.438072983040014"><ele>1.0</ele><time>2026-04-06T09:07:05Z</time></trkpt><trkpt lat="43.75487131357053" lon="10.43804103540062"><ele>1.0</ele><time>2026-04-06T09:07:06Z</time></trkpt><trkpt lat="43.75473206725113" lon="10.43799390795845"><ele>1.0</ele><time>2026-04-06T09:07:07Z</time></trkpt><trkpt lat="43.75459560542892" lon="10.437934153157004"><ele>1.0</ele><time>2026-04-06T09:07:08Z</time></trkpt><trkpt lat="43.75447253810704" lon="10.437832789084222"><ele>1.0</ele><time>2026-04-06T09:07:09Z</time></trkpt><trkpt lat="43.75436022877797" lon="10.437713993407023"><ele>1.5</ele><time>2026-04-06T09:07:10Z</time></trkpt><trkpt lat="43.754247089330505" lon="10.437590375935542"><ele>2.0</ele><time>2026-04-06T09:07:11Z</time></trkpt><trkpt lat="43.75414365201528" lon="10.437448036702547"><ele>2.5</ele><time>2026-04-06T09:07:12Z</time></trkpt><trkpt lat="43.75403262303839" lon="10.43730818942441"><ele>3.0</ele><time>2026-04-06T09:07:13Z</time></trkpt><trkpt lat="43.7539077163351" lon="10.437184892185696"><ele>3.0</ele><time>2026-04-06T09:07:14Z</time></trkpt><trkpt lat="43.75377808250185" lon="10.437073094377824"><ele>3.0</ele><time>2026-04-06T09:07:15Z</time></trkpt><trkpt lat="43.7536512822766" lon="10.436978792916827"><ele>3.0</ele><time>2026-04-06T09:07:16Z</time></trkpt><trkpt lat="43.75352692745329" lon="10.436885603792694"><ele>3.0</ele><time>2026-04-06T09:07:17Z</time></trkpt><trkpt lat="43.75339950943551" lon="10.436782757786888"><ele>3.0</ele><time>2026-04-06T09:07:18Z</time></trkpt><trkpt lat="43.75326904423859" lon="10.436687854376315"><ele>3.0</ele><time>2026-04-06T09:07:19Z</time></trkpt><trkpt lat="43.75313685897085" lon="10.436597947600616"><ele>3.0</ele><time>2026-04-06T09:07:20Z</time></trkpt><trkpt lat="43.752998112973685" lon="10.43651469675339"><ele>3.0</ele><time>2026-04-06T09:07:21Z</time></trkpt><trkpt lat="43.75286114004441" lon="10.436414154786748"><ele>3.0</ele><time>2026-04-06T09:07:22Z</time></trkpt><trkpt lat="43.752707938374435" lon="10.436369935567788"><ele>3.0</ele><time>2026-04-06T09:07:23Z</time></trkpt><trkpt lat="43.75255768285916" lon="10.436306390043077"><ele>3.0</ele><time>2026-04-06T09:07:24Z</time></trkpt><trkpt lat="43.752416201456036" lon="10.436250714886057"><ele>2.75</ele><time>2026-04-06T09:07:25Z</time></trkpt><trkpt lat="43.7522809284359" lon="10.436191121623331"><ele>2.5</ele><time>2026-04-06T09:07:26Z</time></trkpt><trkpt lat="43.75214804259133" lon="10.436122632026526"><ele>2.25</ele><time>2026-04-06T09:07:27Z</time></trkpt><trkpt lat="43.75202709819317" lon="10.436015991782424"><ele>2.0</ele><time>2026-04-06T09:07:28Z</time></trkpt><trkpt lat="43.75190534043614" lon="10.435905477836366"><ele>2.6666666666666665</ele><time>2026-04-06T09:07:29Z</time></trkpt><trkpt lat="43.7517747900242" lon="10.435799933634135"><ele>3.333333333333333</ele><time>2026-04-06T09:07:30Z</time></trkpt><trkpt lat="43.751652621326436" lon="10.435678265123341"><ele>4.0</ele><time>2026-04-06T09:07:31Z</time></trkpt><trkpt lat="43.75153919886546" lon="10.435540586904436"><ele>3.0</ele><time>2026-04-06T09:07:32Z</time></trkpt><trkpt lat="43.751414320416075" lon="10.435423789861778"><ele>2.0</ele><time>2026-04-06T09:07:33Z</time></trkpt><trkpt lat="43.7512898463109" lon="10.435307370994195"><ele>1.0</ele><time>2026-04-06T09:07:34Z</time></trkpt><trkpt lat="43.75116449264939" lon="10.435191392770127"><ele>1.3333333333333333</ele><time>2026-04-06T09:07:35Z</time></trkpt><trkpt lat="43.75103630522231" lon="10.43507352009196"><ele>1.6666666666666665</ele><time>2026-04-06T09:07:36Z</time></trkpt><trkpt lat="43.75090748736429" lon="10.434955067614025"><ele>2.0</ele><time>2026-04-06T09:07:37Z</time></trkpt><trkpt lat="43.75077498767242" lon="10.434839326045084"><ele>2.0</ele><time>2026-04-06T09:07:38Z</time></trkpt><trkpt lat="43.75064115998608" lon="10.43472439856995"><ele>2.0</ele><time>2026-04-06T09:07:39Z</time></trkpt><trkpt lat="43.75050396685204" lon="10.43460964634985"><ele>2.0</ele><time>2026-04-06T09:07:40Z</time></trkpt><trkpt lat="43.750362819759566" lon="10.434503495932159"><ele>2.0</ele><time>2026-04-06T09:07:41Z</time></trkpt><trkpt lat="43.75022149068366" lon="10.434397209007345"><ele>2.0</ele><time>2026-04-06T09:07:42Z</time></trkpt><trkpt lat="43.75008227017058" lon="10.434290758357625"><ele>2.0</ele><time>2026-04-06T09:07:43Z</time></trkpt><trkpt lat="43.749946614323065" lon="10.434182194774337"><ele>2.0</ele><time>2026-04-06T09:07:44Z</time></trkpt><trkpt lat="43.749812659042696" lon="10.434074361166653"><ele>2.0</ele><time>2026-04-06T09:07:45Z</time></trkpt><trkpt lat="43.74968099121868" lon="10.433968368906845"><ele>2.0</ele><time>2026-04-06T09:07:46Z</time></trkpt><trkpt lat="43.749552053054124" lon="10.433865960521736"><ele>2.0</ele><time>2026-04-06T09:07:47Z</time></trkpt><trkpt lat="43.74942536043749" lon="10.43376966473731"><ele>2.0</ele><time>2026-04-06T09:07:48Z</time></trkpt><trkpt lat="43.74929871695233" lon="10.433673406314032"><ele>2.0</ele><time>2026-04-06T09:07:49Z</time></trkpt><trkpt lat="43.74916557360106" lon="10.433594108270114"><ele>2.0</ele><time>2026-04-06T09:07:50Z</time></trkpt><trkpt lat="43.74903768488494" lon="10.433497902577322"><ele>2.0</ele><time>2026-04-06T09:07:51Z</time></trkpt><trkpt lat="43.74891972332495" lon="10.433376771093274"><ele>2.0</ele><time>2026-04-06T09:07:52Z</time></trkpt><trkpt lat="43.74879448163877" lon="10.433272617927617"><ele>2.0</ele><time>2026-04-06T09:07:53Z</time></trkpt><trkpt lat="43.74867040856896" lon="10.433169714807027"><ele>2.0</ele><time>2026-04-06T09:07:54Z</time></trkpt><trkpt lat="43.74854491690253" lon="10.433065763122126"><ele>2.0</ele><time>2026-04-06T09:07:55Z</time></trkpt><trkpt lat="43.74841389854922" lon="10.43297464733317"><ele>2.0</ele><time>2026-04-06T09:07:56Z</time></trkpt><trkpt lat="43.74829290615475" lon="10.43286672147812"><ele>2.0</ele><time>2026-04-06T09:07:57Z</time></trkpt><trkpt lat="43.74816894067457" lon="10.432762542300974"><ele>2.0</ele><time>2026-04-06T09:07:58Z</time></trkpt><trkpt lat="43.74804737088882" lon="10.432657106869762"><ele>2.0</ele><time>2026-04-06T09:07:59Z</time></trkpt><trkpt lat="43.74792690133251" lon="10.43255003160923"><ele>2.0</ele><time>2026-04-06T09:08:00Z</time></trkpt><trkpt lat="43.74780246237425" lon="10.43244385466959"><ele>2.0</ele><time>2026-04-06T09:08:01Z</time></trkpt><trkpt lat="43.74767146651324" lon="10.432330748728381"><ele>2.0</ele><time>2026-04-06T09:08:02Z</time></trkpt><trkpt lat="43.747537039392135" lon="10.432212234495022"><ele>1.6666666666666665</ele><time>2026-04-06T09:08:03Z</time></trkpt><trkpt lat="43.74740863680106" lon="10.432072213669302"><ele>1.3333333333333333</ele><time>2026-04-06T09:08:04Z</time></trkpt><trkpt lat="43.74726970256703" lon="10.431948361183558"><ele>1.0</ele><time>2026-04-06T09:08:05Z</time></trkpt><trkpt lat="43.74712799098905" lon="10.431825363096092"><ele>1.0</ele><time>2026-04-06T09:08:06Z</time></trkpt><trkpt lat="43.74698930255597" lon="10.431693148682408"><ele>1.0</ele><time>2026-04-06T09:08:07Z</time></trkpt><trkpt lat="43.746849038925724" lon="10.43156012159408"><ele>1.0</ele><time>2026-04-06T09:08:08Z</time></trkpt><trkpt lat="43.74670594569431" lon="10.431430651865043"><ele>0.6666666666666666</ele><time>2026-04-06T09:08:09Z</time></trkpt><trkpt lat="43.746556300129065" lon="10.431306889500995"><ele>0.3333333333333333</ele><time>2026-04-06T09:08:10Z</time></trkpt><trkpt lat="43.74640353626114" lon="10.43118462730558"><ele>0.0</ele><time>2026-04-06T09:08:11Z</time></trkpt><trkpt lat="43.74625488646733" lon="10.431065657760154"><ele>0.0</ele><time>2026-04-06T09:08:12Z</time></trkpt><trkpt lat="43.746112113510826" lon="10.430948703996238"><ele>0.0</ele><time>2026-04-06T09:08:13Z</time></trkpt><trkpt lat="43.74596936126737" lon="10.430831742432135"><ele>0.0</ele><time>2026-04-06T09:08:14Z</time></trkpt><trkpt lat="43.74581397405977" lon="10.430730129225513"><ele>0.3333333333333333</ele><time>2026-04-06T09:08:15Z</time></trkpt><trkpt lat="43.74566864368631" lon="10.43061059956823"><ele>0.6666666666666666</ele><time>2026-04-06T09:08:16Z</time></trkpt><trkpt lat="43.74552775599965" lon="10.43046929755564"><ele>1.0</ele><time>2026-04-06T09:08:17Z</time></trkpt><trkpt lat="43.74537786666108" lon="10.43034627677701"><ele>1.0</ele><time>2026-04-06T09:08:18Z</time></trkpt><trkpt lat="43.74521995781519" lon="10.430237795561327"><ele>1.0</ele><time>2026-04-06T09:08:19Z</time></trkpt><trkpt lat="43.74506763906408" lon="10.430114170203334"><ele>1.0</ele><time>2026-04-06T09:08:20Z</time></trkpt><trkpt lat="43.74492064513071" lon="10.429989178300191"><ele>1.0</ele><time>2026-04-06T09:08:21Z</time></trkpt><trkpt lat="43.744770252167605" lon="10.429857963871433"><ele>1.0</ele><time>2026-04-06T09:08:22Z</time></trkpt><trkpt lat="43.74461331630145" lon="10.429726027781756"><ele>1.0</ele><time>2026-04-06T09:08:23Z</time></trkpt><trkpt lat="43.744460700472864" lon="10.429597649765704"><ele>1.6666666666666665</ele><time>2026-04-06T09:08:24Z</time></trkpt><trkpt lat="43.744310986169545" lon="10.429468908627824"><ele>2.3333333333333335</ele><time>2026-04-06T09:08:25Z</time></trkpt><trkpt lat="43.74415952087578" lon="10.42934081186401"><ele>3.0</ele><time>2026-04-06T09:08:26Z</time></trkpt><trkpt lat="43.744014765863774" lon="10.42921881283075"><ele>3.0</ele><time>2026-04-06T09:08:27Z</time></trkpt><trkpt lat="43.74386858187922" lon="10.429089824991962"><ele>3.0</ele><time>2026-04-06T09:08:28Z</time></trkpt><trkpt lat="43.74372030468309" lon="10.428957024285037"><ele>3.0</ele><time>2026-04-06T09:08:29Z</time></trkpt><trkpt lat="43.74357351138917" lon="10.428822261082138"><ele>2.6666666666666665</ele><time>2026-04-06T09:08:30Z</time></trkpt><trkpt lat="43.74342496849477" lon="10.428685636391872"><ele>2.333333333333333</ele><time>2026-04-06T09:08:31Z</time></trkpt><trkpt lat="43.743278412711526" lon="10.428542957990222"><ele>2.0</ele><time>2026-04-06T09:08:32Z</time></trkpt><trkpt lat="43.74313229288974" lon="10.428397339906045"><ele>2.0</ele><time>2026-04-06T09:08:33Z</time></trkpt><trkpt lat="43.74298246185197" lon="10.428259160041348"><ele>2.0</ele><time>2026-04-06T09:08:34Z</time></trkpt><trkpt lat="43.742832467874464" lon="10.428115209231068"><ele>2.0</ele><time>2026-04-06T09:08:35Z</time></trkpt><trkpt lat="43.742681510775284" lon="10.427965855400831"><ele>2.333333333333333</ele><time>2026-04-06T09:08:36Z</time></trkpt><trkpt lat="43.742530369989325" lon="10.42781997242318"><ele>2.6666666666666665</ele><time>2026-04-06T09:08:37Z</time></trkpt><trkpt lat="43.74238009671061" lon="10.4276758469781"><ele>3.0</ele><time>2026-04-06T09:08:38Z</time></trkpt><trkpt lat="43.742230168920095" lon="10.427529911596343"><ele>3.0</ele><time>2026-04-06T09:08:39Z</time></trkpt><trkpt lat="43.742081064744355" lon="10.427384987792248"><ele>3.0</ele><time>2026-04-06T09:08:40Z</time></trkpt><trkpt lat="43.741932234640196" lon="10.427243086736691"><ele>3.0</ele><time>2026-04-06T09:08:41Z</time></trkpt><trkpt lat="43.7417882696119" lon="10.427101929660425"><ele>2.6666666666666665</ele><time>2026-04-06T09:08:42Z</time></trkpt><trkpt lat="43.74164999217211" lon="10.426967200335753"><ele>2.333333333333333</ele><time>2026-04-06T09:08:43Z</time></trkpt><trkpt lat="43.741513548663846" lon="10.42683542260735"><ele>2.0</ele><time>2026-04-06T09:08:44Z</time></trkpt><trkpt lat="43.7413727698527" lon="10.426700778037823"><ele>2.0</ele><time>2026-04-06T09:08:45Z</time></trkpt><trkpt lat="43.74123168757948" lon="10.426566645903751"><ele>2.0</ele><time>2026-04-06T09:08:46Z</time></trkpt><trkpt lat="43.74109140112519" lon="10.426427208648612"><ele>2.0</ele><time>2026-04-06T09:08:47Z</time></trkpt><trkpt lat="43.74095055876903" lon="10.426293207880613"><ele>2.0</ele><time>2026-04-06T09:08:48Z</time></trkpt><trkpt lat="43.74080607692916" lon="10.42616810009629"><ele>2.0</ele><time>2026-04-06T09:08:49Z</time></trkpt><trkpt lat="43.740663050739705" lon="10.426050705630779"><ele>2.0</ele><time>2026-04-06T09:08:50Z</time></trkpt><trkpt lat="43.740518738456096" lon="10.425930797710958"><ele>2.0</ele><time>2026-04-06T09:08:51Z</time></trkpt><trkpt lat="43.740374424941606" lon="10.425812894514388"><ele>2.0</ele><time>2026-04-06T09:08:52Z</time></trkpt><trkpt lat="43.74023992385295" lon="10.425700105018313"><ele>2.0</ele><time>2026-04-06T09:08:53Z</time></trkpt><trkpt lat="43.740109625790105" lon="10.425595633703153"><ele>2.0</ele><time>2026-04-06T09:08:54Z</time></trkpt><trkpt lat="43.739973455222085" lon="10.42549667725861"><ele>2.0</ele><time>2026-04-06T09:08:55Z</time></trkpt><trkpt lat="43.739832914534716" lon="10.425397571848874"><ele>2.0</ele><time>2026-04-06T09:08:56Z</time></trkpt><trkpt lat="43.739691571760545" lon="10.425304858940727"><ele>1.3333333333333333</ele><time>2026-04-06T09:08:57Z</time></trkpt><trkpt lat="43.739543494337525" lon="10.425225494824943"><ele>0.6666666666666666</ele><time>2026-04-06T09:08:58Z</time></trkpt><trkpt lat="43.739388180587625" lon="10.425152836739962"><ele>0.0</ele><time>2026-04-06T09:08:59Z</time></trkpt><trkpt lat="43.739233756340674" lon="10.4250812407527"><ele>0.0</ele><time>2026-04-06T09:09:00Z</time></trkpt><trkpt lat="43.73908116499949" lon="10.425012004919088"><ele>0.0</ele><time>2026-04-06T09:09:01Z</time></trkpt><trkpt lat="43.738933845750395" lon="10.424946399340707"><ele>0.0</ele><time>2026-04-06T09:09:02Z</time></trkpt><trkpt lat="43.73879429263529" lon="10.424886124248417"><ele>0.0</ele><time>2026-04-06T09:09:03Z</time></trkpt><trkpt lat="43.73865901046883" lon="10.424826141549408"><ele>0.0</ele><time>2026-04-06T09:09:04Z</time></trkpt><trkpt lat="43.73853177415854" lon="10.424768628173952"><ele>0.0</ele><time>2026-04-06T09:09:05Z</time></trkpt><trkpt lat="43.73840118232535" lon="10.424710074227924"><ele>0.0</ele><time>2026-04-06T09:09:06Z</time></trkpt><trkpt lat="43.73827174560426" lon="10.424649985714886"><ele>0.0</ele><time>2026-04-06T09:09:07Z</time></trkpt><trkpt lat="43.73814425436206" lon="10.424590746569"><ele>0.0</ele><time>2026-04-06T09:09:08Z</time></trkpt><trkpt lat="43.73802408724251" lon="10.424534397718931"><ele>0.0</ele><time>2026-04-06T09:09:09Z</time></trkpt><trkpt lat="43.73791566570193" lon="10.424482741415467"><ele>0.0</ele><time>2026-04-06T09:09:10Z</time></trkpt><trkpt lat="43.73781248190652" lon="10.42443479111746"><ele>0.0</ele><time>2026-04-06T09:09:11Z</time></trkpt><trkpt lat="43.73771895307188" lon="10.424386706610933"><ele>0.0</ele><time>2026-04-06T09:09:12Z</time></trkpt><trkpt lat="43.737629276891035" lon="10.424341603553898"><ele>0.0</ele><time>2026-04-06T09:09:13Z</time></trkpt><trkpt lat="43.737540508785365" lon="10.424294571797773"><ele>0.0</ele><time>2026-04-06T09:09:14Z</time></trkpt><trkpt lat="43.737455480399525" lon="10.424246616093944"><ele>0.0</ele><time>2026-04-06T09:09:15Z</time></trkpt><trkpt lat="43.737381955198224" lon="10.424201066447184"><ele>0.4</ele><time>2026-04-06T09:09:16Z</time></trkpt><trkpt lat="43.73731430507647" lon="10.424159800357945"><ele>0.8</ele><time>2026-04-06T09:09:17Z</time></trkpt><trkpt lat="43.73721134459844" lon="10.424102010591636"><ele>1.2000000000000002</ele><time>2026-04-06T09:09:19Z</time></trkpt><trkpt lat="43.737106812491305" lon="10.424052787636258"><ele>1.6</ele><time>2026-04-06T09:09:21Z</time></trkpt><trkpt lat="43.73702681213187" lon="10.424016329873252"><ele>2.0</ele><time>2026-04-06T09:09:23Z</time></trkpt><trkpt lat="43.73696196801739" lon="10.423964071321636"><ele>2.2</ele><time>2026-04-06T09:09:25Z</time></trkpt><trkpt lat="43.736872653626776" lon="10.424082611137473"><ele>2.4000000000000004</ele><time>2026-04-06T09:09:27Z</time></trkpt><trkpt lat="43.736840283661834" lon="10.424227697004559"><ele>2.5999999999999996</ele><time>2026-04-06T09:09:29Z</time></trkpt><trkpt lat="43.736786198164296" lon="10.424274395296255"><ele>2.8</ele><time>2026-04-06T09:09:30Z</time></trkpt><trkpt lat="43.73671395094481" lon="10.424294574191755"><ele>3.0</ele><time>2026-04-06T09:09:31Z</time></trkpt><trkpt lat="43.7366354024553" lon="10.424283977127427"><ele>3.0</ele><time>2026-04-06T09:09:32Z</time></trkpt><trkpt lat="43.73655539204594" lon="10.424241736120168"><ele>3.0</ele><time>2026-04-06T09:09:33Z</time></trkpt><trkpt lat="43.73647582849271" lon="10.424169432977193"><ele>3.0</ele><time>2026-04-06T09:09:34Z</time></trkpt><trkpt lat="43.73639454477609" lon="10.424097255221218"><ele>3.0</ele><time>2026-04-06T09:09:35Z</time></trkpt><trkpt lat="43.73630985880734" lon="10.424026934725507"><ele>3.0</ele><time>2026-04-06T09:09:36Z</time></trkpt><trkpt lat="43.73622013764372" lon="10.423959356395596"><ele>3.0</ele><time>2026-04-06T09:09:37Z</time></trkpt><trkpt lat="43.73612101250112" lon="10.423888673199226"><ele>3.0</ele><time>2026-04-06T09:09:38Z</time></trkpt><trkpt lat="43.73601373810668" lon="10.423817717585862"><ele>3.0</ele><time>2026-04-06T09:09:39Z</time></trkpt><trkpt lat="43.735904205150725" lon="10.42375058080462"><ele>3.0</ele><time>2026-04-06T09:09:40Z</time></trkpt><trkpt lat="43.73580193983432" lon="10.423687272908989"><ele>2.8</ele><time>2026-04-06T09:09:41Z</time></trkpt><trkpt lat="43.73569944173162" lon="10.423627579148999"><ele>2.5999999999999996</ele><time>2026-04-06T09:09:42Z</time></trkpt><trkpt lat="43.73560321792931" lon="10.423577533898957"><ele>2.4000000000000004</ele><time>2026-04-06T09:09:43Z</time></trkpt><trkpt lat="43.73551114414886" lon="10.423534034062781"><ele>2.2</ele><time>2026-04-06T09:09:44Z</time></trkpt><trkpt lat="43.73542386376168" lon="10.423490270854408"><ele>2.0</ele><time>2026-04-06T09:09:45Z</time></trkpt><trkpt lat="43.73533162630034" lon="10.423448351914658"><ele>1.9999999999999998</ele><time>2026-04-06T09:09:46Z</time></trkpt><trkpt lat="43.735244599684464" lon="10.423422162231253"><ele>2.0</ele><time>2026-04-06T09:09:47Z</time></trkpt><trkpt lat="43.73516133736102" lon="10.423414682112362"><ele>2.0</ele><time>2026-04-06T09:09:48Z</time></trkpt><trkpt lat="43.735082791681194" lon="10.423422971316915"><ele>2.0</ele><time>2026-04-06T09:09:49Z</time></trkpt><trkpt lat="43.73501613048156" lon="10.423440332168616"><ele>1.9999999999999998</ele><time>2026-04-06T09:09:50Z</time></trkpt><trkpt lat="43.73495328167704" lon="10.423467838949122"><ele>2.0</ele><time>2026-04-06T09:09:51Z</time></trkpt><trkpt lat="43.734887678236376" lon="10.423506243453222"><ele>1.8333333333333333</ele><time>2026-04-06T09:09:52Z</time></trkpt><trkpt lat="43.73482179020391" lon="10.42355578065954"><ele>1.6666666666666665</ele><time>2026-04-06T09:09:53Z</time></trkpt><trkpt lat="43.73476432083563" lon="10.423620303091681"><ele>1.5</ele><time>2026-04-06T09:09:54Z</time></trkpt><trkpt lat="43.7347178151703" lon="10.423687883536282"><ele>1.3333333333333333</ele><time>2026-04-06T09:09:55Z</time></trkpt><trkpt lat="43.7346772977462" lon="10.423775011397877"><ele>1.1666666666666665</ele><time>2026-04-06T09:09:56Z</time></trkpt><trkpt lat="43.734641146386515" lon="10.423878332904838"><ele>1.0</ele><time>2026-04-06T09:09:57Z</time></trkpt><trkpt lat="43.734610759965825" lon="10.423985632863236"><ele>0.6666666666666666</ele><time>2026-04-06T09:09:58Z</time></trkpt><trkpt lat="43.73458604272204" lon="10.424093436379561"><ele>0.3333333333333333</ele><time>2026-04-06T09:09:59Z</time></trkpt><trkpt lat="43.734559708873824" lon="10.424205242166945"><ele>0.0</ele><time>2026-04-06T09:10:00Z</time></trkpt><trkpt lat="43.73453082137925" lon="10.424319740571041"><ele>-0.3333333333333333</ele><time>2026-04-06T09:10:01Z</time></trkpt><trkpt lat="43.73450073110724" lon="10.424436908215188"><ele>-0.6666666666666666</ele><time>2026-04-06T09:10:02Z</time></trkpt><trkpt lat="43.73447115579269" lon="10.424559380153354"><ele>-1.0</ele><time>2026-04-06T09:10:03Z</time></trkpt><trkpt lat="43.73444259836808" lon="10.424683444052683"><ele>-0.5714285714285714</ele><time>2026-04-06T09:10:04Z</time></trkpt><trkpt lat="43.734413308255576" lon="10.424798486234932"><ele>-0.1428571428571428</ele><time>2026-04-06T09:10:05Z</time></trkpt><trkpt lat="43.7343852439413" lon="10.424906097351526"><ele>0.2857142857142857</ele><time>2026-04-06T09:10:06Z</time></trkpt><trkpt lat="43.734359109136506" lon="10.425003709146399"><ele>0.7142857142857142</ele><time>2026-04-06T09:10:07Z</time></trkpt><trkpt lat="43.73433527847019" lon="10.425090657346638"><ele>1.1428571428571428</ele><time>2026-04-06T09:10:08Z</time></trkpt><trkpt lat="43.73430717882908" lon="10.42516877450345"><ele>1.5714285714285714</ele><time>2026-04-06T09:10:09Z</time></trkpt><trkpt lat="43.73427386907065" lon="10.425243031772983"><ele>2.0</ele><time>2026-04-06T09:10:10Z</time></trkpt><trkpt lat="43.734201639170415" lon="10.425338156562882"><ele>1.9999999999999998</ele><time>2026-04-06T09:10:12Z</time></trkpt><trkpt lat="43.734139558546744" lon="10.42541444490295"><ele>2.0</ele><time>2026-04-06T09:10:14Z</time></trkpt><trkpt lat="43.734114797294" lon="10.425524140057622"><ele>2.0</ele><time>2026-04-06T09:10:16Z</time></trkpt><trkpt lat="43.73413257201576" lon="10.425623966102231"><ele>2.0</ele><time>2026-04-06T09:10:17Z</time></trkpt><trkpt lat="43.734139873639556" lon="10.42571635252204"><ele>1.9999999999999998</ele><time>2026-04-06T09:10:18Z</time></trkpt><trkpt lat="43.7341202818377" lon="10.425841150350859"><ele>2.0</ele><time>2026-04-06T09:10:19Z</time></trkpt><trkpt lat="43.734108360854535" lon="10.425984337814372"><ele>1.3333333333333333</ele><time>2026-04-06T09:10:20Z</time></trkpt><trkpt lat="43.73406772604326" lon="10.42615277976011"><ele>0.6666666666666666</ele><time>2026-04-06T09:10:21Z</time></trkpt><trkpt lat="43.734015578929565" lon="10.426349794456716"><ele>0.0</ele><time>2026-04-06T09:10:22Z</time></trkpt><trkpt lat="43.733958911666655" lon="10.426571750143578"><ele>0.0</ele><time>2026-04-06T09:10:23Z</time></trkpt><trkpt lat="43.733906953612255" lon="10.42682595005473"><ele>0.0</ele><time>2026-04-06T09:10:24Z</time></trkpt><trkpt lat="43.73382501245894" lon="10.42710343640017"><ele>0.0</ele><time>2026-04-06T09:10:25Z</time></trkpt><trkpt lat="43.73373137587936" lon="10.427395501592432"><ele>0.5</ele><time>2026-04-06T09:10:26Z</time></trkpt><trkpt lat="43.733630777307354" lon="10.42769705831727"><ele>1.0</ele><time>2026-04-06T09:10:27Z</time></trkpt><trkpt lat="43.733526664914706" lon="10.428003684052552"><ele>1.0</ele><time>2026-04-06T09:10:28Z</time></trkpt><trkpt lat="43.73341247518439" lon="10.428318657707676"><ele>1.0</ele><time>2026-04-06T09:10:29Z</time></trkpt><trkpt lat="43.7332952299814" lon="10.428640084787498"><ele>1.0</ele><time>2026-04-06T09:10:30Z</time></trkpt><trkpt lat="43.73317650543597" lon="10.42895740812985"><ele>1.0</ele><time>2026-04-06T09:10:31Z</time></trkpt><trkpt lat="43.73305984091249" lon="10.42926716268678"><ele>1.0</ele><time>2026-04-06T09:10:32Z</time></trkpt><trkpt lat="43.73294729553829" lon="10.429557807756684"><ele>1.0</ele><time>2026-04-06T09:10:33Z</time></trkpt><trkpt lat="43.73284510737999" lon="10.429827212260395"><ele>0.6666666666666666</ele><time>2026-04-06T09:10:34Z</time></trkpt><trkpt lat="43.73274176475512" lon="10.430097748883183"><ele>0.3333333333333333</ele><time>2026-04-06T09:10:35Z</time></trkpt><trkpt lat="43.73263728531196" lon="10.430369281713219"><ele>0.0</ele><time>2026-04-06T09:10:36Z</time></trkpt><trkpt lat="43.732540187132145" lon="10.430631749770788"><ele>0.0</ele><time>2026-04-06T09:10:37Z</time></trkpt><trkpt lat="43.73243717806374" lon="10.430897807551114"><ele>0.0</ele><time>2026-04-06T09:10:38Z</time></trkpt><trkpt lat="43.73233771182539" lon="10.431161058500765"><ele>0.0</ele><time>2026-04-06T09:10:39Z</time></trkpt><trkpt lat="43.732236204269974" lon="10.431423059344583"><ele>0.0</ele><time>2026-04-06T09:10:40Z</time></trkpt><trkpt lat="43.7321371928402" lon="10.431678179978082"><ele>0.0</ele><time>2026-04-06T09:10:41Z</time></trkpt><trkpt lat="43.732042324202325" lon="10.431935381743488"><ele>0.0</ele><time>2026-04-06T09:10:42Z</time></trkpt><trkpt lat="43.73194698961675" lon="10.432187962627248"><ele>0.6666666666666666</ele><time>2026-04-06T09:10:43Z</time></trkpt><trkpt lat="43.73184737368553" lon="10.432446098261302"><ele>1.3333333333333333</ele><time>2026-04-06T09:10:44Z</time></trkpt><trkpt lat="43.731745904648285" lon="10.432702931126228"><ele>2.0</ele><time>2026-04-06T09:10:45Z</time></trkpt><trkpt lat="43.73165331713677" lon="10.43294453849026"><ele>2.0</ele><time>2026-04-06T09:10:46Z</time></trkpt><trkpt lat="43.731566339641425" lon="10.433178962019056"><ele>2.0</ele><time>2026-04-06T09:10:47Z</time></trkpt><trkpt lat="43.731478594633636" lon="10.4334065169376"><ele>2.0</ele><time>2026-04-06T09:10:48Z</time></trkpt><trkpt lat="43.731391470822" lon="10.433633846167346"><ele>1.6666666666666665</ele><time>2026-04-06T09:10:49Z</time></trkpt><trkpt lat="43.731303627680006" lon="10.433866437979601"><ele>1.3333333333333333</ele><time>2026-04-06T09:10:50Z</time></trkpt><trkpt lat="43.73121634772231" lon="10.434107159127853"><ele>1.0</ele><time>2026-04-06T09:10:51Z</time></trkpt><trkpt lat="43.73113258966048" lon="10.434335626831757"><ele>1.3333333333333333</ele><time>2026-04-06T09:10:52Z</time></trkpt><trkpt lat="43.73105132297548" lon="10.434544417536335"><ele>1.6666666666666665</ele><time>2026-04-06T09:10:53Z</time></trkpt><trkpt lat="43.73097753520684" lon="10.434744646442565"><ele>2.0</ele><time>2026-04-06T09:10:54Z</time></trkpt><trkpt lat="43.730906548307175" lon="10.434937196250505"><ele>2.0</ele><time>2026-04-06T09:10:55Z</time></trkpt><trkpt lat="43.73083067989284" lon="10.435128918792762"><ele>2.0</ele><time>2026-04-06T09:10:56Z</time></trkpt><trkpt lat="43.73075319617077" lon="10.435328272648373"><ele>2.0</ele><time>2026-04-06T09:10:57Z</time></trkpt><trkpt lat="43.73067535786046" lon="10.435529200303062"><ele>1.3333333333333333</ele><time>2026-04-06T09:10:58Z</time></trkpt><trkpt lat="43.730599656658136" lon="10.435730234462083"><ele>0.6666666666666666</ele><time>2026-04-06T09:10:59Z</time></trkpt><trkpt lat="43.73052739930623" lon="10.435920997340563"><ele>0.0</ele><time>2026-04-06T09:11:00Z</time></trkpt><trkpt lat="43.73045673408789" lon="10.43609634188634"><ele>0.0</ele><time>2026-04-06T09:11:01Z</time></trkpt><trkpt lat="43.730388715045244" lon="10.436264572641504"><ele>0.0</ele><time>2026-04-06T09:11:02Z</time></trkpt><trkpt lat="43.730334212549074" lon="10.436398992267026"><ele>0.0</ele><time>2026-04-06T09:11:03Z</time></trkpt><trkpt lat="43.73029344334752" lon="10.43650726104408"><ele>0.0</ele><time>2026-04-06T09:11:04Z</time></trkpt><trkpt lat="43.730255415446024" lon="10.43659024614419"><ele>0.0</ele><time>2026-04-06T09:11:05Z</time></trkpt><trkpt lat="43.73020617176604" lon="10.436704484225324"><ele>0.16666666666666666</ele><time>2026-04-06T09:11:07Z</time></trkpt><trkpt lat="43.73017043827873" lon="10.436798961566476"><ele>0.3333333333333333</ele><time>2026-04-06T09:11:10Z</time></trkpt><trkpt lat="43.73013395384097" lon="10.436892211978432"><ele>0.5</ele><time>2026-04-06T09:12:21Z</time></trkpt><trkpt lat="43.73006053035264" lon="10.437039449896824"><ele>0.6666666666666666</ele><time>2026-04-06T09:12:23Z</time></trkpt><trkpt lat="43.73001553218996" lon="10.437122792761883"><ele>0.8333333333333333</ele><time>2026-04-06T09:12:24Z</time></trkpt><trkpt lat="43.72996694657298" lon="10.437215183142182"><ele>1.0</ele><time>2026-04-06T09:12:25Z</time></trkpt><trkpt lat="43.7299136456034" lon="10.437322336358745"><ele>1.4</ele><time>2026-04-06T09:12:26Z</time></trkpt><trkpt lat="43.72986946827747" lon="10.437445422613314"><ele>1.8</ele><time>2026-04-06T09:12:27Z</time></trkpt><trkpt lat="43.72981822296883" lon="10.437567784012302"><ele>2.1999999999999997</ele><time>2026-04-06T09:12:28Z</time></trkpt><trkpt lat="43.72976323242553" lon="10.437690728805661"><ele>2.6</ele><time>2026-04-06T09:12:29Z</time></trkpt><trkpt lat="43.72970596454557" lon="10.437818259584434"><ele>3.0</ele><time>2026-04-06T09:12:30Z</time></trkpt><trkpt lat="43.72964656984409" lon="10.437953491691736"><ele>2.75</ele><time>2026-04-06T09:12:31Z</time></trkpt><trkpt lat="43.72958143992914" lon="10.438093408079792"><ele>2.5</ele><time>2026-04-06T09:12:32Z</time></trkpt><trkpt lat="43.72951464132058" lon="10.438236222099423"><ele>2.25</ele><time>2026-04-06T09:12:33Z</time></trkpt><trkpt lat="43.729447218453515" lon="10.438391641198864"><ele>2.0</ele><time>2026-04-06T09:12:34Z</time></trkpt><trkpt lat="43.72937620412495" lon="10.438553372528789"><ele>1.75</ele><time>2026-04-06T09:12:35Z</time></trkpt><trkpt lat="43.72930313188059" lon="10.438722528172388"><ele>1.5</ele><time>2026-04-06T09:12:36Z</time></trkpt><trkpt lat="43.729227009034396" lon="10.438900136911851"><ele>1.25</ele><time>2026-04-06T09:12:37Z</time></trkpt><trkpt lat="43.72915340451041" lon="10.439087000935466"><ele>1.0</ele><time>2026-04-06T09:12:38Z</time></trkpt><trkpt lat="43.72908261695597" lon="10.439278002160476"><ele>1.0</ele><time>2026-04-06T09:12:39Z</time></trkpt><trkpt lat="43.729013932892926" lon="10.439474802881085"><ele>1.0</ele><time>2026-04-06T09:12:40Z</time></trkpt><trkpt lat="43.72894952345779" lon="10.439671508056392"><ele>1.0</ele><time>2026-04-06T09:12:41Z</time></trkpt><trkpt lat="43.72888633541144" lon="10.439872242038751"><ele>1.0</ele><time>2026-04-06T09:12:42Z</time></trkpt><trkpt lat="43.72882058755319" lon="10.440074858303534"><ele>1.0</ele><time>2026-04-06T09:12:43Z</time></trkpt><trkpt lat="43.72875784539336" lon="10.440275502604841"><ele>1.0</ele><time>2026-04-06T09:12:44Z</time></trkpt><trkpt lat="43.728692609516905" lon="10.440483348348527"><ele>1.3333333333333333</ele><time>2026-04-06T09:12:45Z</time></trkpt><trkpt lat="43.72862524490552" lon="10.440693999050394"><ele>1.6666666666666665</ele><time>2026-04-06T09:12:46Z</time></trkpt><trkpt lat="43.72855893478832" lon="10.44090259697091"><ele>2.0</ele><time>2026-04-06T09:12:47Z</time></trkpt><trkpt lat="43.72849118757622" lon="10.441114973992455"><ele>1.6666666666666665</ele><time>2026-04-06T09:12:48Z</time></trkpt><trkpt lat="43.728422983037056" lon="10.441328946400295"><ele>1.3333333333333333</ele><time>2026-04-06T09:12:49Z</time></trkpt><trkpt lat="43.728355538494576" lon="10.44154173862682"><ele>1.0</ele><time>2026-04-06T09:12:50Z</time></trkpt><trkpt lat="43.728286248334776" lon="10.441758152968887"><ele>1.0</ele><time>2026-04-06T09:12:51Z</time></trkpt><trkpt lat="43.72821622904106" lon="10.441971208321764"><ele>1.0</ele><time>2026-04-06T09:12:52Z</time></trkpt><trkpt lat="43.72814460239232" lon="10.442188231274637"><ele>1.0</ele><time>2026-04-06T09:12:53Z</time></trkpt><trkpt lat="43.728074671655186" lon="10.442409042143197"><ele>1.0</ele><time>2026-04-06T09:12:54Z</time></trkpt><trkpt lat="43.7280032752546" lon="10.442634753804867"><ele>1.0</ele><time>2026-04-06T09:12:55Z</time></trkpt><trkpt lat="43.72793000340189" lon="10.442860763811161"><ele>1.0</ele><time>2026-04-06T09:12:56Z</time></trkpt><trkpt lat="43.727857302866276" lon="10.44308997221777"><ele>1.0</ele><time>2026-04-06T09:12:57Z</time></trkpt><trkpt lat="43.7277822452698" lon="10.443319760866846"><ele>1.0</ele><time>2026-04-06T09:12:58Z</time></trkpt><trkpt lat="43.72770427477596" lon="10.443550125232571"><ele>1.0</ele><time>2026-04-06T09:12:59Z</time></trkpt><trkpt lat="43.72762069267326" lon="10.443782415486515"><ele>1.0</ele><time>2026-04-06T09:13:00Z</time></trkpt><trkpt lat="43.72753649116673" lon="10.444013544621713"><ele>1.0</ele><time>2026-04-06T09:13:01Z</time></trkpt><trkpt lat="43.72745790639202" lon="10.444232654584345"><ele>1.0</ele><time>2026-04-06T09:13:02Z</time></trkpt><trkpt lat="43.72738012918669" lon="10.444435665523898"><ele>1.0</ele><time>2026-04-06T09:13:03Z</time></trkpt><trkpt lat="43.727302264180935" lon="10.444625868271203"><ele>1.0</ele><time>2026-04-06T09:13:04Z</time></trkpt><trkpt lat="43.727227057793286" lon="10.44481786354632"><ele>1.0</ele><time>2026-04-06T09:13:05Z</time></trkpt><trkpt lat="43.72715197404158" lon="10.445004563691155"><ele>1.0</ele><time>2026-04-06T09:13:06Z</time></trkpt><trkpt lat="43.727076815754934" lon="10.445186057094078"><ele>1.0</ele><time>2026-04-06T09:13:07Z</time></trkpt><trkpt lat="43.727000770467384" lon="10.445366039818925"><ele>1.0</ele><time>2026-04-06T09:13:08Z</time></trkpt><trkpt lat="43.72692668481933" lon="10.445544075363356"><ele>1.0</ele><time>2026-04-06T09:13:09Z</time></trkpt><trkpt lat="43.72685662178679" lon="10.445715685160195"><ele>1.0</ele><time>2026-04-06T09:13:10Z</time></trkpt><trkpt lat="43.7267954414561" lon="10.445872559146897"><ele>1.0</ele><time>2026-04-06T09:13:11Z</time></trkpt><trkpt lat="43.726740227528474" lon="10.446014376522976"><ele>1.0</ele><time>2026-04-06T09:13:12Z</time></trkpt><trkpt lat="43.72668855398224" lon="10.446125024075526"><ele>0.9999999999999999</ele><time>2026-04-06T09:13:13Z</time></trkpt><trkpt lat="43.726649590569686" lon="10.446226382996198"><ele>1.0</ele><time>2026-04-06T09:13:14Z</time></trkpt><trkpt lat="43.726618188653404" lon="10.446306538826288"><ele>1.0</ele><time>2026-04-06T09:13:15Z</time></trkpt><trkpt lat="43.726554308503545" lon="10.446428706968426"><ele>1.0</ele><time>2026-04-06T09:13:17Z</time></trkpt><trkpt lat="43.72649408948853" lon="10.446489612019953"><ele>0.9999999999999999</ele><time>2026-04-06T09:13:19Z</time></trkpt><trkpt lat="43.726419195395756" lon="10.446528215737073"><ele>1.0</ele><time>2026-04-06T09:13:29Z</time></trkpt><trkpt lat="43.72633702488575" lon="10.446594301402326"><ele>1.2000000000000002</ele><time>2026-04-06T09:13:31Z</time></trkpt><trkpt lat="43.726318949453045" lon="10.446778694391481"><ele>1.4000000000000001</ele><time>2026-04-06T09:13:33Z</time></trkpt><trkpt lat="43.726318187898386" lon="10.446897313515592"><ele>1.6</ele><time>2026-04-06T09:13:34Z</time></trkpt><trkpt lat="43.726323232993934" lon="10.447042450371287"><ele>1.8</ele><time>2026-04-06T09:13:35Z</time></trkpt><trkpt lat="43.72631610757847" lon="10.447203972544429"><ele>2.0</ele><time>2026-04-06T09:13:36Z</time></trkpt><trkpt lat="43.72628640760858" lon="10.447368108090796"><ele>2.25</ele><time>2026-04-06T09:13:37Z</time></trkpt><trkpt lat="43.726246906421935" lon="10.447538659867076"><ele>2.5</ele><time>2026-04-06T09:13:38Z</time></trkpt><trkpt lat="43.72619102308769" lon="10.447707904188976"><ele>2.75</ele><time>2026-04-06T09:13:39Z</time></trkpt><trkpt lat="43.72613386600524" lon="10.447883856112382"><ele>3.0</ele><time>2026-04-06T09:13:40Z</time></trkpt><trkpt lat="43.72607496375396" lon="10.448065435119855"><ele>3.25</ele><time>2026-04-06T09:13:41Z</time></trkpt><trkpt lat="43.72601646947211" lon="10.448238632625827"><ele>3.5</ele><time>2026-04-06T09:13:42Z</time></trkpt><trkpt lat="43.72595547100471" lon="10.448407595088266"><ele>3.75</ele><time>2026-04-06T09:13:43Z</time></trkpt><trkpt lat="43.72589892466501" lon="10.448577830159154"><ele>4.0</ele><time>2026-04-06T09:13:44Z</time></trkpt><trkpt lat="43.7258400078826" lon="10.448749924682316"><ele>4.0</ele><time>2026-04-06T09:13:45Z</time></trkpt><trkpt lat="43.72578867023156" lon="10.448916060780887"><ele>4.0</ele><time>2026-04-06T09:13:46Z</time></trkpt><trkpt lat="43.725736429933576" lon="10.449060830493147"><ele>4.0</ele><time>2026-04-06T09:13:47Z</time></trkpt><trkpt lat="43.725686538993926" lon="10.44918748062219"><ele>4.0</ele><time>2026-04-06T09:13:48Z</time></trkpt><trkpt lat="43.725640550828345" lon="10.449310777782056"><ele>3.9999999999999996</ele><time>2026-04-06T09:13:49Z</time></trkpt><trkpt lat="43.72559608815436" lon="10.44942607473255"><ele>4.0</ele><time>2026-04-06T09:13:50Z</time></trkpt><trkpt lat="43.72554556072941" lon="10.449533563374588"><ele>4.0</ele><time>2026-04-06T09:13:51Z</time></trkpt><trkpt lat="43.72550019312561" lon="10.44962110791212"><ele>4.0</ele><time>2026-04-06T09:13:52Z</time></trkpt><trkpt lat="43.72544014592021" lon="10.44967944816271"><ele>3.9999999999999996</ele><time>2026-04-06T09:13:53Z</time></trkpt><trkpt lat="43.72537125854366" lon="10.449707160889055"><ele>4.0</ele><time>2026-04-06T09:13:54Z</time></trkpt><trkpt lat="43.72529109424492" lon="10.449714588737042"><ele>4.0</ele><time>2026-04-06T09:13:55Z</time></trkpt><trkpt lat="43.72519744360052" lon="10.449698021161717"><ele>4.0</ele><time>2026-04-06T09:13:56Z</time></trkpt><trkpt lat="43.72509728279849" lon="10.449673874842492"><ele>4.0</ele><time>2026-04-06T09:13:57Z</time></trkpt><trkpt lat="43.72498921712336" lon="10.449629452714596"><ele>4.0</ele><time>2026-04-06T09:13:58Z</time></trkpt><trkpt lat="43.72488620646466" lon="10.449566422205557"><ele>4.0</ele><time>2026-04-06T09:13:59Z</time></trkpt><trkpt lat="43.724800432579066" lon="10.449485420214925"><ele>3.25</ele><time>2026-04-06T09:14:00Z</time></trkpt><trkpt lat="43.72472308397588" lon="10.449375367267974"><ele>2.5</ele><time>2026-04-06T09:14:01Z</time></trkpt><trkpt lat="43.724634151272" lon="10.449254377794809"><ele>1.75</ele><time>2026-04-06T09:14:02Z</time></trkpt><trkpt lat="43.72454436460642" lon="10.449138879569452"><ele>1.0</ele><time>2026-04-06T09:14:03Z</time></trkpt><trkpt lat="43.72446074166203" lon="10.449025552428076"><ele>1.0</ele><time>2026-04-06T09:14:04Z</time></trkpt><trkpt lat="43.72437307685789" lon="10.448907470580005"><ele>1.0</ele><time>2026-04-06T09:14:05Z</time></trkpt><trkpt lat="43.724277648840705" lon="10.448784423575756"><ele>1.0</ele><time>2026-04-06T09:14:06Z</time></trkpt><trkpt lat="43.72417050183596" lon="10.448670823908241"><ele>1.0</ele><time>2026-04-06T09:14:07Z</time></trkpt><trkpt lat="43.72405788248202" lon="10.448562441871875"><ele>1.0</ele><time>2026-04-06T09:14:08Z</time></trkpt><trkpt lat="43.72394201470837" lon="10.448454436630076"><ele>1.0</ele><time>2026-04-06T09:14:09Z</time></trkpt><trkpt lat="43.72382217644836" lon="10.448350528871412"><ele>1.0</ele><time>2026-04-06T09:14:10Z</time></trkpt><trkpt lat="43.72370056741748" lon="10.44824318179306"><ele>1.0</ele><time>2026-04-06T09:14:11Z</time></trkpt><trkpt lat="43.72357866105417" lon="10.448134830532917"><ele>1.25</ele><time>2026-04-06T09:14:12Z</time></trkpt><trkpt lat="43.723457522412076" lon="10.44802470958845"><ele>1.5</ele><time>2026-04-06T09:14:13Z</time></trkpt><trkpt lat="43.72333478006651" lon="10.447915907265669"><ele>1.75</ele><time>2026-04-06T09:14:14Z</time></trkpt><trkpt lat="43.72320858521011" lon="10.447811318064335"><ele>2.0</ele><time>2026-04-06T09:14:15Z</time></trkpt><trkpt lat="43.7230838061102" lon="10.447706621903539"><ele>2.0</ele><time>2026-04-06T09:14:16Z</time></trkpt><trkpt lat="43.722953667485655" lon="10.4475991738835"><ele>2.0</ele><time>2026-04-06T09:14:17Z</time></trkpt><trkpt lat="43.72282536338275" lon="10.447498745389119"><ele>2.0</ele><time>2026-04-06T09:14:18Z</time></trkpt><trkpt lat="43.72269716015052" lon="10.447394425000446"><ele>2.0</ele><time>2026-04-06T09:14:19Z</time></trkpt><trkpt lat="43.72256682522839" lon="10.447288536505724"><ele>2.0</ele><time>2026-04-06T09:14:20Z</time></trkpt><trkpt lat="43.72243216439365" lon="10.44718621825143"><ele>2.0</ele><time>2026-04-06T09:14:21Z</time></trkpt><trkpt lat="43.722298536472266" lon="10.447079855215057"><ele>2.0</ele><time>2026-04-06T09:14:22Z</time></trkpt><trkpt lat="43.72216352955805" lon="10.446979693585684"><ele>2.0</ele><time>2026-04-06T09:14:23Z</time></trkpt><trkpt lat="43.72202836434226" lon="10.446882383921468"><ele>2.0</ele><time>2026-04-06T09:14:24Z</time></trkpt><trkpt lat="43.72189046875119" lon="10.446792458538345"><ele>2.0</ele><time>2026-04-06T09:14:25Z</time></trkpt><trkpt lat="43.72175149070091" lon="10.446713919604154"><ele>2.333333333333333</ele><time>2026-04-06T09:14:26Z</time></trkpt><trkpt lat="43.72160681541295" lon="10.446653566121446"><ele>2.6666666666666665</ele><time>2026-04-06T09:14:27Z</time></trkpt><trkpt lat="43.72145271354401" lon="10.446618551057751"><ele>3.0</ele><time>2026-04-06T09:14:28Z</time></trkpt><trkpt lat="43.72129452032844" lon="10.446602125311529"><ele>3.0</ele><time>2026-04-06T09:14:29Z</time></trkpt><trkpt lat="43.721128596937845" lon="10.44659784216522"><ele>3.0</ele><time>2026-04-06T09:14:30Z</time></trkpt><trkpt lat="43.72096789760103" lon="10.446587382591556"><ele>3.0</ele><time>2026-04-06T09:14:31Z</time></trkpt><trkpt lat="43.72081034097752" lon="10.446567198398297"><ele>3.666666666666667</ele><time>2026-04-06T09:14:32Z</time></trkpt><trkpt lat="43.72065540043747" lon="10.446544529715005"><ele>4.333333333333334</ele><time>2026-04-06T09:14:33Z</time></trkpt><trkpt lat="43.72050033439235" lon="10.446505639452477"><ele>5.0</ele><time>2026-04-06T09:14:34Z</time></trkpt><trkpt lat="43.720344783410134" lon="10.446459788407658"><ele>5.333333333333334</ele><time>2026-04-06T09:14:35Z</time></trkpt><trkpt lat="43.720187648102595" lon="10.446416778330597"><ele>5.666666666666667</ele><time>2026-04-06T09:14:36Z</time></trkpt><trkpt lat="43.72002861055141" lon="10.44637558546992"><ele>6.0</ele><time>2026-04-06T09:14:37Z</time></trkpt><trkpt lat="43.71986667525719" lon="10.446330539549221"><ele>5.333333333333333</ele><time>2026-04-06T09:14:38Z</time></trkpt><trkpt lat="43.719703293230026" lon="10.446276895517325"><ele>4.666666666666666</ele><time>2026-04-06T09:14:39Z</time></trkpt><trkpt lat="43.71953947137184" lon="10.446211380594754"><ele>4.0</ele><time>2026-04-06T09:14:40Z</time></trkpt><trkpt lat="43.71937759193363" lon="10.446126037505403"><ele>4.0</ele><time>2026-04-06T09:14:41Z</time></trkpt><trkpt lat="43.71922008132078" lon="10.446030022193156"><ele>4.0</ele><time>2026-04-06T09:14:42Z</time></trkpt><trkpt lat="43.71906472029365" lon="10.445937058497014"><ele>4.0</ele><time>2026-04-06T09:14:43Z</time></trkpt><trkpt lat="43.71891158497331" lon="10.445850811681828"><ele>4.0</ele><time>2026-04-06T09:14:44Z</time></trkpt><trkpt lat="43.71876831041448" lon="10.445773991742119"><ele>4.0</ele><time>2026-04-06T09:14:45Z</time></trkpt><trkpt lat="43.718627276523286" lon="10.445701989928217"><ele>4.0</ele><time>2026-04-06T09:14:46Z</time></trkpt><trkpt lat="43.718489615533414" lon="10.445634144744293"><ele>4.0</ele><time>2026-04-06T09:14:47Z</time></trkpt><trkpt lat="43.71835191640435" lon="10.445575397219056"><ele>4.0</ele><time>2026-04-06T09:14:48Z</time></trkpt><trkpt lat="43.718212840912315" lon="10.445516576176646"><ele>4.0</ele><time>2026-04-06T09:14:49Z</time></trkpt><trkpt lat="43.7180721174479" lon="10.4454580334811"><ele>4.0</ele><time>2026-04-06T09:14:50Z</time></trkpt><trkpt lat="43.717928768648385" lon="10.445395530822609"><ele>4.0</ele><time>2026-04-06T09:14:51Z</time></trkpt><trkpt lat="43.71778074535567" lon="10.44533379853534"><ele>4.0</ele><time>2026-04-06T09:14:52Z</time></trkpt><trkpt lat="43.71763001430525" lon="10.445271600878375"><ele>4.0</ele><time>2026-04-06T09:14:53Z</time></trkpt><trkpt lat="43.71747333139165" lon="10.44520310634173"><ele>4.333333333333333</ele><time>2026-04-06T09:14:54Z</time></trkpt><trkpt lat="43.71730742834636" lon="10.445134430369253"><ele>4.666666666666667</ele><time>2026-04-06T09:14:55Z</time></trkpt><trkpt lat="43.71713522561616" lon="10.445062999712075"><ele>5.0</ele><time>2026-04-06T09:14:56Z</time></trkpt><trkpt lat="43.71695878400419" lon="10.444988887450343"><ele>5.0</ele><time>2026-04-06T09:14:57Z</time></trkpt><trkpt lat="43.71678240205441" lon="10.444915360509537"><ele>5.0</ele><time>2026-04-06T09:14:58Z</time></trkpt><trkpt lat="43.71660251798667" lon="10.44484537602457"><ele>5.0</ele><time>2026-04-06T09:14:59Z</time></trkpt><trkpt lat="43.71642172152887" lon="10.444775648261752"><ele>5.0</ele><time>2026-04-06T09:15:00Z</time></trkpt><trkpt lat="43.71624728961516" lon="10.444700603109037"><ele>5.0</ele><time>2026-04-06T09:15:01Z</time></trkpt><trkpt lat="43.71608118993988" lon="10.444615613591568"><ele>5.0</ele><time>2026-04-06T09:15:02Z</time></trkpt><trkpt lat="43.71591807770473" lon="10.44451966470868"><ele>4.666666666666667</ele><time>2026-04-06T09:15:03Z</time></trkpt><trkpt lat="43.715765487815055" lon="10.44442360264215"><ele>4.333333333333333</ele><time>2026-04-06T09:15:04Z</time></trkpt><trkpt lat="43.71562216507413" lon="10.444329777906136"><ele>4.0</ele><time>2026-04-06T09:15:05Z</time></trkpt><trkpt lat="43.71548065034037" lon="10.444246430609038"><ele>4.0</ele><time>2026-04-06T09:15:06Z</time></trkpt><trkpt lat="43.71534716879136" lon="10.444161625767194"><ele>4.0</ele><time>2026-04-06T09:15:07Z</time></trkpt><trkpt lat="43.7152223301737" lon="10.444088391024309"><ele>4.0</ele><time>2026-04-06T09:15:08Z</time></trkpt><trkpt lat="43.71510085505093" lon="10.444010923511584"><ele>4.0</ele><time>2026-04-06T09:15:09Z</time></trkpt><trkpt lat="43.71498795575595" lon="10.443944188576463"><ele>3.6</ele><time>2026-04-06T09:15:10Z</time></trkpt><trkpt lat="43.714885867142044" lon="10.4438819575079"><ele>3.2</ele><time>2026-04-06T09:15:11Z</time></trkpt><trkpt lat="43.71479866856692" lon="10.443819084407368"><ele>2.8000000000000003</ele><time>2026-04-06T09:15:12Z</time></trkpt><trkpt lat="43.71471910148872" lon="10.443769353991806"><ele>2.4000000000000004</ele><time>2026-04-06T09:15:13Z</time></trkpt><trkpt lat="43.71463602198456" lon="10.443717089594111"><ele>2.0</ele><time>2026-04-06T09:15:14Z</time></trkpt><trkpt lat="43.71455421006064" lon="10.443661579142361"><ele>2.0</ele><time>2026-04-06T09:15:15Z</time></trkpt><trkpt lat="43.71446966809742" lon="10.44360593874333"><ele>2.0</ele><time>2026-04-06T09:15:16Z</time></trkpt><trkpt lat="43.714383311464225" lon="10.443558327722105"><ele>2.0</ele><time>2026-04-06T09:15:17Z</time></trkpt><trkpt lat="43.71428405523525" lon="10.443498516633305"><ele>2.0</ele><time>2026-04-06T09:15:18Z</time></trkpt><trkpt lat="43.714171284107316" lon="10.44342982580412"><ele>2.0</ele><time>2026-04-06T09:15:19Z</time></trkpt><trkpt lat="43.714046307882505" lon="10.443352206406892"><ele>2.0</ele><time>2026-04-06T09:15:20Z</time></trkpt><trkpt lat="43.713916956576874" lon="10.443273056691584"><ele>2.0</ele><time>2026-04-06T09:15:21Z</time></trkpt><trkpt lat="43.7137895030154" lon="10.443199156604635"><ele>2.0</ele><time>2026-04-06T09:15:22Z</time></trkpt><trkpt lat="43.71367574242064" lon="10.443113784126714"><ele>2.0</ele><time>2026-04-06T09:15:23Z</time></trkpt><trkpt lat="43.713549421955506" lon="10.443071773300847"><ele>2.25</ele><time>2026-04-06T09:15:24Z</time></trkpt><trkpt lat="43.71342554804115" lon="10.443015172886188"><ele>2.5</ele><time>2026-04-06T09:15:25Z</time></trkpt><trkpt lat="43.71329956266704" lon="10.442965142793016"><ele>2.75</ele><time>2026-04-06T09:15:26Z</time></trkpt><trkpt lat="43.71317995856454" lon="10.4429159789463"><ele>3.0</ele><time>2026-04-06T09:15:27Z</time></trkpt><trkpt lat="43.71307051998238" lon="10.44286966298504"><ele>3.0</ele><time>2026-04-06T09:15:28Z</time></trkpt><trkpt lat="43.71296185559973" lon="10.442825135793338"><ele>3.0</ele><time>2026-04-06T09:15:29Z</time></trkpt><trkpt lat="43.712858962932124" lon="10.442779973822727"><ele>3.0</ele><time>2026-04-06T09:15:30Z</time></trkpt><trkpt lat="43.7127722347078" lon="10.442760233919998"><ele>3.0</ele><time>2026-04-06T09:15:31Z</time></trkpt><trkpt lat="43.712697999699536" lon="10.442730795639129"><ele>3.0</ele><time>2026-04-06T09:15:32Z</time></trkpt><trkpt lat="43.712623632212136" lon="10.442698888798084"><ele>2.8333333333333335</ele><time>2026-04-06T09:15:33Z</time></trkpt><trkpt lat="43.7125505497332" lon="10.442666911766787"><ele>2.6666666666666665</ele><time>2026-04-06T09:15:34Z</time></trkpt><trkpt lat="43.71247546593762" lon="10.442636091580905"><ele>2.5</ele><time>2026-04-06T09:15:35Z</time></trkpt><trkpt lat="43.71239694518903" lon="10.44259469330194"><ele>2.333333333333333</ele><time>2026-04-06T09:15:36Z</time></trkpt><trkpt lat="43.71233255807945" lon="10.442559489199118"><ele>2.1666666666666665</ele><time>2026-04-06T09:15:37Z</time></trkpt><trkpt lat="43.71226689583573" lon="10.442475638360621"><ele>2.0</ele><time>2026-04-06T09:15:39Z</time></trkpt><trkpt lat="43.71219786942861" lon="10.442359828089899"><ele>1.9999999999999998</ele><time>2026-04-06T09:15:41Z</time></trkpt><trkpt lat="43.71215818944358" lon="10.442268832896495"><ele>2.0</ele><time>2026-04-06T09:15:42Z</time></trkpt><trkpt lat="43.71212657913506" lon="10.442160876078576"><ele>2.0</ele><time>2026-04-06T09:15:43Z</time></trkpt><trkpt lat="43.712100507327676" lon="10.442050578505683"><ele>2.0</ele><time>2026-04-06T09:15:44Z</time></trkpt><trkpt lat="43.712082615256264" lon="10.441948222163358"><ele>1.9999999999999998</ele><time>2026-04-06T09:15:45Z</time></trkpt><trkpt lat="43.7120458928451" lon="10.44187465637801"><ele>2.0</ele><time>2026-04-06T09:15:46Z</time></trkpt><trkpt lat="43.71195612782591" lon="10.441783622453677"><ele>1.8</ele><time>2026-04-06T09:15:48Z</time></trkpt><trkpt lat="43.71183777424222" lon="10.44177045098103"><ele>1.6</ele><time>2026-04-06T09:15:50Z</time></trkpt><trkpt lat="43.71176153289563" lon="10.441810690503578"><ele>1.4000000000000001</ele><time>2026-04-06T09:15:51Z</time></trkpt><trkpt lat="43.71168114920484" lon="10.441855818696395"><ele>1.2000000000000002</ele><time>2026-04-06T09:15:52Z</time></trkpt><trkpt lat="43.71159768609368" lon="10.44189857494535"><ele>1.0</ele><time>2026-04-06T09:15:53Z</time></trkpt><trkpt lat="43.71151753194652" lon="10.441928419464539"><ele>1.0</ele><time>2026-04-06T09:15:54Z</time></trkpt><trkpt lat="43.711435940003476" lon="10.441944247997975"><ele>1.0</ele><time>2026-04-06T09:15:55Z</time></trkpt><trkpt lat="43.71135368360957" lon="10.441949637107495"><ele>1.0</ele><time>2026-04-06T09:15:56Z</time></trkpt><trkpt lat="43.71125943318889" lon="10.44194115002335"><ele>1.0</ele><time>2026-04-06T09:15:57Z</time></trkpt><trkpt lat="43.711151075287916" lon="10.44191518108948"><ele>1.0</ele><time>2026-04-06T09:15:58Z</time></trkpt><trkpt lat="43.711046449165025" lon="10.441864361030618"><ele>1.75</ele><time>2026-04-06T09:15:59Z</time></trkpt><trkpt lat="43.71095089860689" lon="10.44179462933471"><ele>2.5</ele><time>2026-04-06T09:16:00Z</time></trkpt><trkpt lat="43.710861791139905" lon="10.441737049349863"><ele>3.25</ele><time>2026-04-06T09:16:01Z</time></trkpt><trkpt lat="43.71077206516985" lon="10.441624462734389"><ele>4.0</ele><time>2026-04-06T09:16:02Z</time></trkpt><trkpt lat="43.710681958748076" lon="10.441508585286275"><ele>4.0</ele><time>2026-04-06T09:16:03Z</time></trkpt><trkpt lat="43.71059569120278" lon="10.441385736421404"><ele>4.0</ele><time>2026-04-06T09:16:04Z</time></trkpt><trkpt lat="43.710508639136194" lon="10.441259969982365"><ele>4.0</ele><time>2026-04-06T09:16:05Z</time></trkpt><trkpt lat="43.710418846870525" lon="10.441133455607082"><ele>4.0</ele><time>2026-04-06T09:16:06Z</time></trkpt><trkpt lat="43.710329118200676" lon="10.44100979632376"><ele>4.25</ele><time>2026-04-06T09:16:07Z</time></trkpt><trkpt lat="43.7102372825182" lon="10.440886237911291"><ele>4.5</ele><time>2026-04-06T09:16:08Z</time></trkpt><trkpt lat="43.7101682489121" lon="10.440762641395349"><ele>4.75</ele><time>2026-04-06T09:16:09Z</time></trkpt><trkpt lat="43.71008848122497" lon="10.44064814788401"><ele>5.0</ele><time>2026-04-06T09:16:10Z</time></trkpt><trkpt lat="43.710005727646326" lon="10.440530270606077"><ele>5.75</ele><time>2026-04-06T09:16:11Z</time></trkpt><trkpt lat="43.70991841638863" lon="10.44040611642373"><ele>6.5</ele><time>2026-04-06T09:16:12Z</time></trkpt><trkpt lat="43.70982850884458" lon="10.440278269117188"><ele>7.25</ele><time>2026-04-06T09:16:13Z</time></trkpt><trkpt lat="43.709737765591825" lon="10.440155692701305"><ele>8.0</ele><time>2026-04-06T09:16:14Z</time></trkpt><trkpt lat="43.70966400387084" lon="10.44004136557636"><ele>8.0</ele><time>2026-04-06T09:16:15Z</time></trkpt><trkpt lat="43.70959485586747" lon="10.439935992304921"><ele>8.0</ele><time>2026-04-06T09:16:16Z</time></trkpt><trkpt lat="43.70953261145689" lon="10.439841942083001"><ele>8.0</ele><time>2026-04-06T09:16:17Z</time></trkpt><trkpt lat="43.70947599682607" lon="10.439757127351978"><ele>8.0</ele><time>2026-04-06T09:16:18Z</time></trkpt><trkpt lat="43.70942768093857" lon="10.439681292886274"><ele>8.0</ele><time>2026-04-06T09:16:19Z</time></trkpt><trkpt lat="43.70936030785754" lon="10.439560725652123"><ele>7.499999999999999</ele><time>2026-04-06T09:16:21Z</time></trkpt><trkpt lat="43.70929632148726" lon="10.439474312588432"><ele>7.0</ele><time>2026-04-06T09:16:24Z</time></trkpt><trkpt lat="43.70925852033561" lon="10.439404342821712"><ele>6.5</ele><time>2026-04-06T09:16:27Z</time></trkpt><trkpt lat="43.70920343256212" lon="10.439360104473776"><ele>6.0</ele><time>2026-04-06T09:16:59Z</time></trkpt><trkpt lat="43.70912177235817" lon="10.439242447063927"><ele>5.5</ele><time>2026-04-06T09:17:01Z</time></trkpt><trkpt lat="43.709051735443744" lon="10.439137057460353"><ele>5.0</ele><time>2026-04-06T09:17:03Z</time></trkpt><trkpt lat="43.7089667001999" lon="10.439007869598305"><ele>5.0</ele><time>2026-04-06T09:17:05Z</time></trkpt><trkpt lat="43.70890695896117" lon="10.438923033770767"><ele>5.0</ele><time>2026-04-06T09:17:06Z</time></trkpt><trkpt lat="43.70884801222868" lon="10.438836490858664"><ele>5.0</ele><time>2026-04-06T09:17:07Z</time></trkpt><trkpt lat="43.708790462362074" lon="10.438751863934288"><ele>5.0</ele><time>2026-04-06T09:17:08Z</time></trkpt><trkpt lat="43.70873237611045" lon="10.438664980215355"><ele>5.0</ele><time>2026-04-06T09:17:09Z</time></trkpt><trkpt lat="43.7086727149091" lon="10.438577049127057"><ele>5.0</ele><time>2026-04-06T09:17:10Z</time></trkpt><trkpt lat="43.70861075948406" lon="10.438481586427564"><ele>4.8</ele><time>2026-04-06T09:17:11Z</time></trkpt><trkpt lat="43.708549545839865" lon="10.438387605855532"><ele>4.6</ele><time>2026-04-06T09:17:12Z</time></trkpt><trkpt lat="43.70848508020564" lon="10.438297973992158"><ele>4.4</ele><time>2026-04-06T09:17:13Z</time></trkpt><trkpt lat="43.70842140168412" lon="10.438197153756121"><ele>4.2</ele><time>2026-04-06T09:17:14Z</time></trkpt><trkpt lat="43.708362218063805" lon="10.438101051171028"><ele>4.0</ele><time>2026-04-06T09:17:15Z</time></trkpt><trkpt lat="43.708301471216934" lon="10.438017925194854"><ele>3.833333333333333</ele><time>2026-04-06T09:17:16Z</time></trkpt><trkpt lat="43.70824236485312" lon="10.43793685522462"><ele>3.6666666666666665</ele><time>2026-04-06T09:17:17Z</time></trkpt><trkpt lat="43.70818796520019" lon="10.437858504931775"><ele>3.5</ele><time>2026-04-06T09:17:18Z</time></trkpt><trkpt lat="43.70813601164378" lon="10.43779164102091"><ele>3.333333333333333</ele><time>2026-04-06T09:17:19Z</time></trkpt><trkpt lat="43.708090186754035" lon="10.437726733932232"><ele>3.1666666666666665</ele><time>2026-04-06T09:17:20Z</time></trkpt><trkpt lat="43.708014023462596" lon="10.437622783410742"><ele>3.0</ele><time>2026-04-06T09:17:22Z</time></trkpt><trkpt lat="43.70795538411871" lon="10.437519762162013"><ele>3.0</ele><time>2026-04-06T09:17:24Z</time></trkpt><trkpt lat="43.70791751910864" lon="10.437394708936832"><ele>3.0</ele><time>2026-04-06T09:17:26Z</time></trkpt><trkpt lat="43.707861155282814" lon="10.437269964620791"><ele>3.0</ele><time>2026-04-06T09:17:28Z</time></trkpt><trkpt lat="43.70775550861252" lon="10.43717484263639"><ele>3.0</ele><time>2026-04-06T09:17:30Z</time></trkpt><trkpt lat="43.70764950269214" lon="10.437101272848082"><ele>3.0</ele><time>2026-04-06T09:17:32Z</time></trkpt><trkpt lat="43.70759712249082" lon="10.437032731226216"><ele>2.6</ele><time>2026-04-06T09:17:33Z</time></trkpt><trkpt lat="43.7075429848149" lon="10.436944396342591"><ele>2.1999999999999997</ele><time>2026-04-06T09:17:34Z</time></trkpt><trkpt lat="43.70749100853045" lon="10.436830524037532"><ele>1.8</ele><time>2026-04-06T09:17:35Z</time></trkpt><trkpt lat="43.707431391999336" lon="10.436688350888193"><ele>1.4</ele><time>2026-04-06T09:17:36Z</time></trkpt><trkpt lat="43.7073587746167" lon="10.43652225962212"><ele>1.0</ele><time>2026-04-06T09:17:37Z</time></trkpt><trkpt lat="43.7072912414503" lon="10.43635338745716"><ele>0.8</ele><time>2026-04-06T09:17:38Z</time></trkpt><trkpt lat="43.707239129752566" lon="10.43617946208192"><ele>0.6000000000000001</ele><time>2026-04-06T09:17:39Z</time></trkpt><trkpt lat="43.70719896253984" lon="10.436013138353879"><ele>0.4</ele><time>2026-04-06T09:17:40Z</time></trkpt><trkpt lat="43.70716508723295" lon="10.435880030253198"><ele>0.2</ele><time>2026-04-06T09:17:41Z</time></trkpt><trkpt lat="43.707136837655945" lon="10.435771085281011"><ele>0.0</ele><time>2026-04-06T09:17:42Z</time></trkpt><trkpt lat="43.707111320619404" lon="10.435677253590304"><ele>0.0</ele><time>2026-04-06T09:17:43Z</time></trkpt><trkpt lat="43.70708557588786" lon="10.435591268074248"><ele>0.0</ele><time>2026-04-06T09:17:44Z</time></trkpt><trkpt lat="43.70706979363962" lon="10.435487375980028"><ele>0.0</ele><time>2026-04-06T09:17:45Z</time></trkpt><trkpt lat="43.70703240747768" lon="10.43537865277916"><ele>0.0</ele><time>2026-04-06T09:17:46Z</time></trkpt><trkpt lat="43.7069919932782" lon="10.43526290061534"><ele>0.0</ele><time>2026-04-06T09:17:47Z</time></trkpt><trkpt lat="43.706928602024426" lon="10.435173139690983"><ele>0.0</ele><time>2026-04-06T09:17:48Z</time></trkpt><trkpt lat="43.70685100122917" lon="10.435104410580863"><ele>1.0</ele><time>2026-04-06T09:17:49Z</time></trkpt><trkpt lat="43.70676591500568" lon="10.435079595181694"><ele>2.0</ele><time>2026-04-06T09:17:50Z</time></trkpt><trkpt lat="43.706681051364235" lon="10.435098155825328"><ele>3.0</ele><time>2026-04-06T09:17:51Z</time></trkpt><trkpt lat="43.70658678149583" lon="10.435146082019473"><ele>4.0</ele><time>2026-04-06T09:17:52Z</time></trkpt><trkpt lat="43.70648400661186" lon="10.4352136017256"><ele>5.0</ele><time>2026-04-06T09:17:53Z</time></trkpt><trkpt lat="43.70637487677796" lon="10.435296244903016"><ele>5.0</ele><time>2026-04-06T09:17:54Z</time></trkpt><trkpt lat="43.70627687598669" lon="10.435371869999273"><ele>5.0</ele><time>2026-04-06T09:17:55Z</time></trkpt><trkpt lat="43.706184733741175" lon="10.43542884217797"><ele>5.0</ele><time>2026-04-06T09:17:56Z</time></trkpt><trkpt lat="43.70608465133399" lon="10.435486809256679"><ele>5.0</ele><time>2026-04-06T09:17:57Z</time></trkpt><trkpt lat="43.705970184092564" lon="10.435532369662656"><ele>5.0</ele><time>2026-04-06T09:17:58Z</time></trkpt><trkpt lat="43.70584647070619" lon="10.435564758712882"><ele>4.75</ele><time>2026-04-06T09:17:59Z</time></trkpt><trkpt lat="43.705718877315455" lon="10.435586042284392"><ele>4.5</ele><time>2026-04-06T09:18:00Z</time></trkpt><trkpt lat="43.705587217285576" lon="10.435606039650049"><ele>4.25</ele><time>2026-04-06T09:18:01Z</time></trkpt><trkpt lat="43.70545365877997" lon="10.435619451098422"><ele>4.0</ele><time>2026-04-06T09:18:02Z</time></trkpt><trkpt lat="43.70531994682136" lon="10.435633493961836"><ele>4.25</ele><time>2026-04-06T09:18:03Z</time></trkpt><trkpt lat="43.70518664991059" lon="10.435641764044929"><ele>4.5</ele><time>2026-04-06T09:18:04Z</time></trkpt><trkpt lat="43.705060004112525" lon="10.435652749962996"><ele>4.75</ele><time>2026-04-06T09:18:05Z</time></trkpt><trkpt lat="43.70494233353287" lon="10.435668048947939"><ele>5.0</ele><time>2026-04-06T09:18:06Z</time></trkpt><trkpt lat="43.70482743918588" lon="10.435679070532435"><ele>5.0</ele><time>2026-04-06T09:18:07Z</time></trkpt><trkpt lat="43.70471379761373" lon="10.435693053920652"><ele>5.0</ele><time>2026-04-06T09:18:08Z</time></trkpt><trkpt lat="43.7046024668556" lon="10.43570051309202"><ele>5.0</ele><time>2026-04-06T09:18:09Z</time></trkpt><trkpt lat="43.70448508280317" lon="10.435703775197107"><ele>5.0</ele><time>2026-04-06T09:18:10Z</time></trkpt><trkpt lat="43.70438428624392" lon="10.435717101337758"><ele>5.0</ele><time>2026-04-06T09:18:11Z</time></trkpt><trkpt lat="43.7043029124944" lon="10.435727937449983"><ele>5.0</ele><time>2026-04-06T09:18:12Z</time></trkpt><trkpt lat="43.70423016391388" lon="10.435735212696278"><ele>5.0</ele><time>2026-04-06T09:18:13Z</time></trkpt><trkpt lat="43.704121266007334" lon="10.435739355195182"><ele>5.0</ele><time>2026-04-06T09:18:15Z</time></trkpt><trkpt lat="43.70405835243408" lon="10.435730526415698"><ele>5.0</ele><time>2026-04-06T09:18:17Z</time></trkpt><trkpt lat="43.703977561848575" lon="10.435744119684447"><ele>5.0</ele><time>2026-04-06T09:18:45Z</time></trkpt><trkpt lat="43.70389189542556" lon="10.435760116172577"><ele>5.0</ele><time>2026-04-06T09:18:47Z</time></trkpt><trkpt lat="43.70382822236841" lon="10.435767391751464"><ele>5.0</ele><time>2026-04-06T09:18:48Z</time></trkpt><trkpt lat="43.70375163784545" lon="10.43577182062826"><ele>5.0</ele><time>2026-04-06T09:18:49Z</time></trkpt><trkpt lat="43.703662972072905" lon="10.435778700015108"><ele>5.0</ele><time>2026-04-06T09:18:50Z</time></trkpt><trkpt lat="43.70355841897142" lon="10.435788320885045"><ele>5.0</ele><time>2026-04-06T09:18:51Z</time></trkpt><trkpt lat="43.70344989914086" lon="10.43579387179548"><ele>5.0</ele><time>2026-04-06T09:18:52Z</time></trkpt><trkpt lat="43.70333700288344" lon="10.43580762126851"><ele>4.0</ele><time>2026-04-06T09:18:53Z</time></trkpt><trkpt lat="43.703224087452746" lon="10.43581716860004"><ele>3.0</ele><time>2026-04-06T09:18:54Z</time></trkpt><trkpt lat="43.70310566430236" lon="10.435829466040952"><ele>2.0</ele><time>2026-04-06T09:18:55Z</time></trkpt><trkpt lat="43.70298266029695" lon="10.435840282086415"><ele>1.0</ele><time>2026-04-06T09:18:56Z</time></trkpt><trkpt lat="43.702857976287255" lon="10.435846837313141"><ele>1.5</ele><time>2026-04-06T09:18:57Z</time></trkpt><trkpt lat="43.70273256164345" lon="10.435859355589109"><ele>2.0</ele><time>2026-04-06T09:18:58Z</time></trkpt><trkpt lat="43.70260902891131" lon="10.435870991966652"><ele>2.5</ele><time>2026-04-06T09:18:59Z</time></trkpt><trkpt lat="43.702485305175756" lon="10.43588414976848"><ele>3.0</ele><time>2026-04-06T09:19:00Z</time></trkpt><trkpt lat="43.702356727497104" lon="10.435897267044671"><ele>3.0</ele><time>2026-04-06T09:19:01Z</time></trkpt><trkpt lat="43.702228252311485" lon="10.435907884466031"><ele>3.0</ele><time>2026-04-06T09:19:02Z</time></trkpt><trkpt lat="43.70210091773372" lon="10.435909562258324"><ele>3.0</ele><time>2026-04-06T09:19:03Z</time></trkpt><trkpt lat="43.70197319974331" lon="10.435919243691586"><ele>3.0</ele><time>2026-04-06T09:19:04Z</time></trkpt><trkpt lat="43.70184688100943" lon="10.43592954114427"><ele>3.0</ele><time>2026-04-06T09:19:05Z</time></trkpt><trkpt lat="43.70172001611209" lon="10.435945769330377"><ele>3.0</ele><time>2026-04-06T09:19:06Z</time></trkpt><trkpt lat="43.701596421296784" lon="10.435960973826656"><ele>3.0</ele><time>2026-04-06T09:19:07Z</time></trkpt><trkpt lat="43.70147559265587" lon="10.435974079468368"><ele>3.0</ele><time>2026-04-06T09:19:08Z</time></trkpt><trkpt lat="43.70135887879317" lon="10.43598172154827"><ele>3.0</ele><time>2026-04-06T09:19:09Z</time></trkpt><trkpt lat="43.70124302468481" lon="10.435989617685728"><ele>3.0</ele><time>2026-04-06T09:19:10Z</time></trkpt><trkpt lat="43.70113445510128" lon="10.435993852797045"><ele>3.0</ele><time>2026-04-06T09:19:11Z</time></trkpt><trkpt lat="43.70102797362783" lon="10.436009431023292"><ele>3.0</ele><time>2026-04-06T09:19:12Z</time></trkpt><trkpt lat="43.700926221099344" lon="10.436017882099195"><ele>3.0</ele><time>2026-04-06T09:19:13Z</time></trkpt><trkpt lat="43.700836217273874" lon="10.436021146349901"><ele>3.0</ele><time>2026-04-06T09:19:14Z</time></trkpt><trkpt lat="43.70075382579696" lon="10.436016494451236"><ele>3.0</ele><time>2026-04-06T09:19:15Z</time></trkpt><trkpt lat="43.700677282741985" lon="10.435986088539812"><ele>3.0</ele><time>2026-04-06T09:19:16Z</time></trkpt><trkpt lat="43.70060723592871" lon="10.43592912101351"><ele>3.0</ele><time>2026-04-06T09:19:17Z</time></trkpt><trkpt lat="43.7005358550635" lon="10.435861224004805"><ele>3.0</ele><time>2026-04-06T09:19:18Z</time></trkpt><trkpt lat="43.70045350434353" lon="10.435819759427602"><ele>3.0</ele><time>2026-04-06T09:19:19Z</time></trkpt><trkpt lat="43.70037468774023" lon="10.435818865444592"><ele>3.0</ele><time>2026-04-06T09:19:20Z</time></trkpt><trkpt lat="43.700293599998155" lon="10.435849986620322"><ele>3.0</ele><time>2026-04-06T09:19:21Z</time></trkpt><trkpt lat="43.70021851901144" lon="10.435909019414531"><ele>3.0</ele><time>2026-04-06T09:19:22Z</time></trkpt><trkpt lat="43.700173479589154" lon="10.436018342928964"><ele>3.0</ele><time>2026-04-06T09:19:23Z</time></trkpt><trkpt lat="43.700065008773564" lon="10.436057049739743"><ele>3.0</ele><time>2026-04-06T09:19:24Z</time></trkpt><trkpt lat="43.69998182864557" lon="10.436095994508385"><ele>3.25</ele><time>2026-04-06T09:19:25Z</time></trkpt><trkpt lat="43.699882793773355" lon="10.436111019376623"><ele>3.5</ele><time>2026-04-06T09:19:26Z</time></trkpt><trkpt lat="43.699772265296424" lon="10.436112350312946"><ele>3.75</ele><time>2026-04-06T09:19:27Z</time></trkpt><trkpt lat="43.699653311346225" lon="10.43610932796231"><ele>4.0</ele><time>2026-04-06T09:19:28Z</time></trkpt><trkpt lat="43.69951809135975" lon="10.436108039221724"><ele>4.25</ele><time>2026-04-06T09:19:29Z</time></trkpt><trkpt lat="43.6993765052254" lon="10.436101574881208"><ele>4.5</ele><time>2026-04-06T09:19:30Z</time></trkpt><trkpt lat="43.699226039926714" lon="10.436090852652226"><ele>4.75</ele><time>2026-04-06T09:19:31Z</time></trkpt><trkpt lat="43.69907083871587" lon="10.436067217702169"><ele>5.0</ele><time>2026-04-06T09:19:32Z</time></trkpt><trkpt lat="43.698919729292314" lon="10.436037788358576"><ele>5.0</ele><time>2026-04-06T09:19:33Z</time></trkpt><trkpt lat="43.69877154470903" lon="10.436003818349404"><ele>5.0</ele><time>2026-04-06T09:19:34Z</time></trkpt><trkpt lat="43.698620337090034" lon="10.435962447234102"><ele>5.0</ele><time>2026-04-06T09:19:35Z</time></trkpt><trkpt lat="43.69846996375738" lon="10.435913038701006"><ele>4.0</ele><time>2026-04-06T09:19:36Z</time></trkpt><trkpt lat="43.698321655216716" lon="10.435861165929074"><ele>3.0</ele><time>2026-04-06T09:19:37Z</time></trkpt><trkpt lat="43.698171183517935" lon="10.435811932141936"><ele>2.0</ele><time>2026-04-06T09:19:38Z</time></trkpt><trkpt lat="43.6980142431479" lon="10.435764274672863"><ele>2.0</ele><time>2026-04-06T09:19:39Z</time></trkpt><trkpt lat="43.69785000309856" lon="10.435716899272908"><ele>2.0</ele><time>2026-04-06T09:19:40Z</time></trkpt><trkpt lat="43.69768352999012" lon="10.43566659649288"><ele>2.0</ele><time>2026-04-06T09:19:41Z</time></trkpt><trkpt lat="43.69752125147017" lon="10.435614957147918"><ele>2.6666666666666665</ele><time>2026-04-06T09:19:42Z</time></trkpt><trkpt lat="43.69735751772872" lon="10.435563761739868"><ele>3.333333333333333</ele><time>2026-04-06T09:19:43Z</time></trkpt><trkpt lat="43.697195420916344" lon="10.435510733939163"><ele>4.0</ele><time>2026-04-06T09:19:44Z</time></trkpt><trkpt lat="43.697031609261906" lon="10.435457631868397"><ele>5.0</ele><time>2026-04-06T09:19:45Z</time></trkpt><trkpt lat="43.69686787791025" lon="10.435406652667629"><ele>6.0</ele><time>2026-04-06T09:19:46Z</time></trkpt><trkpt lat="43.696703216323186" lon="10.435355774369933"><ele>7.0</ele><time>2026-04-06T09:19:47Z</time></trkpt><trkpt lat="43.69654165522331" lon="10.435299523949233"><ele>7.0</ele><time>2026-04-06T09:19:48Z</time></trkpt><trkpt lat="43.69637961966536" lon="10.435239936259567"><ele>7.0</ele><time>2026-04-06T09:19:49Z</time></trkpt><trkpt lat="43.69621480295619" lon="10.435187909251422"><ele>7.0</ele><time>2026-04-06T09:19:50Z</time></trkpt><trkpt lat="43.69604543528266" lon="10.435134183885271"><ele>6.666666666666667</ele><time>2026-04-06T09:19:51Z</time></trkpt><trkpt lat="43.69587173125942" lon="10.435084873763575"><ele>6.333333333333334</ele><time>2026-04-06T09:19:52Z</time></trkpt><trkpt lat="43.69569339467933" lon="10.435035437675259"><ele>6.0</ele><time>2026-04-06T09:19:53Z</time></trkpt><trkpt lat="43.695514730633576" lon="10.434987840913506"><ele>6.0</ele><time>2026-04-06T09:19:54Z</time></trkpt><trkpt lat="43.69533705301437" lon="10.434953507617264"><ele>6.0</ele><time>2026-04-06T09:19:55Z</time></trkpt><trkpt lat="43.69515988881648" lon="10.434921199927151"><ele>6.0</ele><time>2026-04-06T09:19:56Z</time></trkpt><trkpt lat="43.69497953459095" lon="10.434898315788535"><ele>5.666666666666667</ele><time>2026-04-06T09:19:57Z</time></trkpt><trkpt lat="43.69479920117859" lon="10.434882040788233"><ele>5.333333333333334</ele><time>2026-04-06T09:19:58Z</time></trkpt><trkpt lat="43.6946190043849" lon="10.434874546265753"><ele>5.0</ele><time>2026-04-06T09:19:59Z</time></trkpt><trkpt lat="43.694443175903835" lon="10.4348728926248"><ele>4.666666666666667</ele><time>2026-04-06T09:20:00Z</time></trkpt><trkpt lat="43.694273086575706" lon="10.434878707556898"><ele>4.333333333333333</ele><time>2026-04-06T09:20:01Z</time></trkpt><trkpt lat="43.694101431916565" lon="10.43488449957727"><ele>4.0</ele><time>2026-04-06T09:20:02Z</time></trkpt><trkpt lat="43.69392939576159" lon="10.434894100671496"><ele>4.0</ele><time>2026-04-06T09:20:03Z</time></trkpt><trkpt lat="43.69375630643747" lon="10.434899945810312"><ele>4.0</ele><time>2026-04-06T09:20:04Z</time></trkpt><trkpt lat="43.693581206753336" lon="10.43491045924501"><ele>4.0</ele><time>2026-04-06T09:20:05Z</time></trkpt><trkpt lat="43.693404343620486" lon="10.434924328779628"><ele>4.0</ele><time>2026-04-06T09:20:06Z</time></trkpt><trkpt lat="43.693223372475565" lon="10.434940558226293"><ele>4.0</ele><time>2026-04-06T09:20:07Z</time></trkpt><trkpt lat="43.69303920509937" lon="10.434957417049498"><ele>4.0</ele><time>2026-04-06T09:20:08Z</time></trkpt><trkpt lat="43.69284851576442" lon="10.434975687203517"><ele>3.333333333333333</ele><time>2026-04-06T09:20:09Z</time></trkpt><trkpt lat="43.692662721987126" lon="10.434984839080233"><ele>2.6666666666666665</ele><time>2026-04-06T09:20:10Z</time></trkpt><trkpt lat="43.69247878919951" lon="10.434994006422748"><ele>2.0</ele><time>2026-04-06T09:20:11Z</time></trkpt><trkpt lat="43.69229524683803" lon="10.43500476508311"><ele>2.0</ele><time>2026-04-06T09:20:12Z</time></trkpt><trkpt lat="43.69211244795079" lon="10.43501811292602"><ele>2.0</ele><time>2026-04-06T09:20:13Z</time></trkpt><trkpt lat="43.69193501236604" lon="10.43502059503962"><ele>2.0</ele><time>2026-04-06T09:20:14Z</time></trkpt><trkpt lat="43.69175551055233" lon="10.435025399604392"><ele>2.0</ele><time>2026-04-06T09:20:15Z</time></trkpt><trkpt lat="43.69157427276962" lon="10.435031731680183"><ele>2.0</ele><time>2026-04-06T09:20:16Z</time></trkpt><trkpt lat="43.69139428720265" lon="10.435030660583106"><ele>2.0</ele><time>2026-04-06T09:20:17Z</time></trkpt><trkpt lat="43.69121721592233" lon="10.435018560343295"><ele>1.6666666666666665</ele><time>2026-04-06T09:20:18Z</time></trkpt><trkpt lat="43.691033481508306" lon="10.435010581060828"><ele>1.3333333333333333</ele><time>2026-04-06T09:20:19Z</time></trkpt><trkpt lat="43.69085521548968" lon="10.434965590007526"><ele>1.0</ele><time>2026-04-06T09:20:20Z</time></trkpt><trkpt lat="43.69068415219455" lon="10.434906326800196"><ele>1.0</ele><time>2026-04-06T09:20:21Z</time></trkpt><trkpt lat="43.69051779487167" lon="10.434835140288396"><ele>1.0</ele><time>2026-04-06T09:20:22Z</time></trkpt><trkpt lat="43.690356552622575" lon="10.434755069157676"><ele>1.0</ele><time>2026-04-06T09:20:23Z</time></trkpt><trkpt lat="43.69019849312052" lon="10.434678903410676"><ele>1.6666666666666665</ele><time>2026-04-06T09:20:24Z</time></trkpt><trkpt lat="43.69004502139846" lon="10.434594591780675"><ele>2.3333333333333335</ele><time>2026-04-06T09:20:25Z</time></trkpt><trkpt lat="43.68989232557391" lon="10.434505034404854"><ele>3.0</ele><time>2026-04-06T09:20:26Z</time></trkpt><trkpt lat="43.68974088929313" lon="10.434407687299565"><ele>3.0</ele><time>2026-04-06T09:20:27Z</time></trkpt><trkpt lat="43.68959011319801" lon="10.434306299130547"><ele>3.0</ele><time>2026-04-06T09:20:28Z</time></trkpt><trkpt lat="43.68944166025858" lon="10.434197247286349"><ele>3.0</ele><time>2026-04-06T09:20:29Z</time></trkpt><trkpt lat="43.6892938802136" lon="10.43410322388548"><ele>2.6666666666666665</ele><time>2026-04-06T09:20:30Z</time></trkpt><trkpt lat="43.68913791333524" lon="10.433993662770044"><ele>2.333333333333333</ele><time>2026-04-06T09:20:31Z</time></trkpt><trkpt lat="43.688981138855574" lon="10.433892156578665"><ele>2.0</ele><time>2026-04-06T09:20:32Z</time></trkpt><trkpt lat="43.68882173709755" lon="10.433785558704953"><ele>1.6666666666666665</ele><time>2026-04-06T09:20:33Z</time></trkpt><trkpt lat="43.68866499819629" lon="10.433681556377012"><ele>1.3333333333333333</ele><time>2026-04-06T09:20:34Z</time></trkpt><trkpt lat="43.68851575738032" lon="10.433583668646907"><ele>1.0</ele><time>2026-04-06T09:20:35Z</time></trkpt><trkpt lat="43.688377002208355" lon="10.433488269794276"><ele>1.0</ele><time>2026-04-06T09:20:36Z</time></trkpt><trkpt lat="43.68824696147199" lon="10.433399227262376"><ele>1.0</ele><time>2026-04-06T09:20:37Z</time></trkpt><trkpt lat="43.688123571033756" lon="10.433317493754606"><ele>1.0</ele><time>2026-04-06T09:20:38Z</time></trkpt><trkpt lat="43.6880081243635" lon="10.433233361314144"><ele>1.0</ele><time>2026-04-06T09:20:39Z</time></trkpt><trkpt lat="43.687897892405985" lon="10.433155673059803"><ele>1.0</ele><time>2026-04-06T09:20:40Z</time></trkpt><trkpt lat="43.68779286335532" lon="10.433081758657876"><ele>1.0</ele><time>2026-04-06T09:20:41Z</time></trkpt><trkpt lat="43.68770043925828" lon="10.433010930023618"><ele>1.0</ele><time>2026-04-06T09:20:42Z</time></trkpt><trkpt lat="43.68760172471995" lon="10.432950678152316"><ele>1.0</ele><time>2026-04-06T09:20:43Z</time></trkpt><trkpt lat="43.687512463431204" lon="10.432896195455612"><ele>1.0</ele><time>2026-04-06T09:20:44Z</time></trkpt><trkpt lat="43.68744069493754" lon="10.432806687320003"><ele>1.4</ele><time>2026-04-06T09:20:45Z</time></trkpt><trkpt lat="43.68736939129794" lon="10.432694455645676"><ele>1.8</ele><time>2026-04-06T09:20:46Z</time></trkpt><trkpt lat="43.687303511813504" lon="10.432595023698765"><ele>2.1999999999999997</ele><time>2026-04-06T09:20:47Z</time></trkpt><trkpt lat="43.687239070987744" lon="10.432538110942861"><ele>2.6</ele><time>2026-04-06T09:20:48Z</time></trkpt><trkpt lat="43.68718534803938" lon="10.432467848355973"><ele>3.0</ele><time>2026-04-06T09:20:49Z</time></trkpt><trkpt lat="43.68707413828633" lon="10.43251650619923"><ele>3.0</ele><time>2026-04-06T09:20:50Z</time></trkpt><trkpt lat="43.686966083449875" lon="10.432505086305401"><ele>3.0</ele><time>2026-04-06T09:20:51Z</time></trkpt><trkpt lat="43.68685174363457" lon="10.43245656741386"><ele>3.0</ele><time>2026-04-06T09:20:52Z</time></trkpt><trkpt lat="43.68673040546474" lon="10.43237841236602"><ele>3.0</ele><time>2026-04-06T09:20:53Z</time></trkpt><trkpt lat="43.686603589592046" lon="10.432290999159862"><ele>2.3333333333333335</ele><time>2026-04-06T09:20:54Z</time></trkpt><trkpt lat="43.68647156589687" lon="10.432201642080624"><ele>1.6666666666666665</ele><time>2026-04-06T09:20:55Z</time></trkpt><trkpt lat="43.686328808766504" lon="10.432117037299138"><ele>1.0</ele><time>2026-04-06T09:20:56Z</time></trkpt><trkpt lat="43.68617447473887" lon="10.432024472841354"><ele>0.3333333333333333</ele><time>2026-04-06T09:20:57Z</time></trkpt><trkpt lat="43.68602132167385" lon="10.431924974917528"><ele>-0.3333333333333333</ele><time>2026-04-06T09:20:58Z</time></trkpt><trkpt lat="43.68586653932964" lon="10.43182243888591"><ele>-1.0</ele><time>2026-04-06T09:20:59Z</time></trkpt><trkpt lat="43.685708423754356" lon="10.431717055003185"><ele>-1.0</ele><time>2026-04-06T09:21:00Z</time></trkpt><trkpt lat="43.68554884517261" lon="10.431612762179466"><ele>-1.0</ele><time>2026-04-06T09:21:01Z</time></trkpt><trkpt lat="43.685386371942805" lon="10.431503492413784"><ele>-1.0</ele><time>2026-04-06T09:21:02Z</time></trkpt><trkpt lat="43.68523404494169" lon="10.431395060260465"><ele>-0.25</ele><time>2026-04-06T09:21:03Z</time></trkpt><trkpt lat="43.6850967542128" lon="10.431292264816733"><ele>0.5</ele><time>2026-04-06T09:21:04Z</time></trkpt><trkpt lat="43.6849649815869" lon="10.431194355799919"><ele>1.25</ele><time>2026-04-06T09:21:05Z</time></trkpt><trkpt lat="43.68484369370436" lon="10.431099135170218"><ele>2.0</ele><time>2026-04-06T09:21:06Z</time></trkpt><trkpt lat="43.68472741098573" lon="10.431014593615672"><ele>2.0</ele><time>2026-04-06T09:21:07Z</time></trkpt><trkpt lat="43.6846205130097" lon="10.43093883735546"><ele>2.0</ele><time>2026-04-06T09:21:08Z</time></trkpt><trkpt lat="43.684520736568174" lon="10.43086207005229"><ele>2.0</ele><time>2026-04-06T09:21:09Z</time></trkpt><trkpt lat="43.68443607556626" lon="10.430769913436801"><ele>2.0</ele><time>2026-04-06T09:21:10Z</time></trkpt><trkpt lat="43.68436060430319" lon="10.430645820508001"><ele>2.0</ele><time>2026-04-06T09:21:11Z</time></trkpt><trkpt lat="43.68423291379893" lon="10.430604967889701"><ele>2.0</ele><time>2026-04-06T09:21:12Z</time></trkpt><trkpt lat="43.68410675165344" lon="10.430551864103487"><ele>2.0</ele><time>2026-04-06T09:21:13Z</time></trkpt><trkpt lat="43.68397419101658" lon="10.430499197024538"><ele>2.0</ele><time>2026-04-06T09:21:14Z</time></trkpt><trkpt lat="43.68384051592654" lon="10.430419236819695"><ele>2.0</ele><time>2026-04-06T09:21:15Z</time></trkpt><trkpt lat="43.68370476723514" lon="10.430326338752595"><ele>2.0</ele><time>2026-04-06T09:21:16Z</time></trkpt><trkpt lat="43.68356013768078" lon="10.43023577679829"><ele>2.0</ele><time>2026-04-06T09:21:17Z</time></trkpt><trkpt lat="43.683407894543556" lon="10.430150704218383"><ele>2.0</ele><time>2026-04-06T09:21:18Z</time></trkpt><trkpt lat="43.68325347088692" lon="10.430059639551308"><ele>2.0</ele><time>2026-04-06T09:21:19Z</time></trkpt><trkpt lat="43.68309767184466" lon="10.429965334518663"><ele>2.0</ele><time>2026-04-06T09:21:20Z</time></trkpt><trkpt lat="43.68293601930342" lon="10.429872157681437"><ele>2.0</ele><time>2026-04-06T09:21:21Z</time></trkpt><trkpt lat="43.68277449341322" lon="10.429775852947257"><ele>2.0</ele><time>2026-04-06T09:21:22Z</time></trkpt><trkpt lat="43.68260779713218" lon="10.429693196496634"><ele>2.0</ele><time>2026-04-06T09:21:23Z</time></trkpt><trkpt lat="43.682443819123385" lon="10.429593214984406"><ele>2.0</ele><time>2026-04-06T09:21:24Z</time></trkpt><trkpt lat="43.68228120946177" lon="10.42949434957785"><ele>2.0</ele><time>2026-04-06T09:21:25Z</time></trkpt><trkpt lat="43.68212191235641" lon="10.429398179589386"><ele>2.0</ele><time>2026-04-06T09:21:26Z</time></trkpt><trkpt lat="43.6819712944166" lon="10.429310231425198"><ele>2.0</ele><time>2026-04-06T09:21:27Z</time></trkpt><trkpt lat="43.681833855845525" lon="10.42922453885554"><ele>2.0</ele><time>2026-04-06T09:21:28Z</time></trkpt><trkpt lat="43.681704493362616" lon="10.429145550302755"><ele>2.0</ele><time>2026-04-06T09:21:29Z</time></trkpt><trkpt lat="43.68157518054255" lon="10.429064688774826"><ele>2.0</ele><time>2026-04-06T09:21:30Z</time></trkpt><trkpt lat="43.68144369739615" lon="10.42898946249941"><ele>2.0</ele><time>2026-04-06T09:21:31Z</time></trkpt><trkpt lat="43.681308601449935" lon="10.428911601414871"><ele>2.0</ele><time>2026-04-06T09:21:32Z</time></trkpt><trkpt lat="43.68117461130073" lon="10.428835042091151"><ele>2.0</ele><time>2026-04-06T09:21:33Z</time></trkpt><trkpt lat="43.68104207057203" lon="10.428758133388916"><ele>2.0</ele><time>2026-04-06T09:21:34Z</time></trkpt><trkpt lat="43.680919439937114" lon="10.428681033801515"><ele>2.25</ele><time>2026-04-06T09:21:35Z</time></trkpt><trkpt lat="43.68080192806823" lon="10.42860752152621"><ele>2.5</ele><time>2026-04-06T09:21:36Z</time></trkpt><trkpt lat="43.68068315242792" lon="10.428543262899723"><ele>2.75</ele><time>2026-04-06T09:21:37Z</time></trkpt><trkpt lat="43.68057447123548" lon="10.428479706824572"><ele>3.0</ele><time>2026-04-06T09:21:38Z</time></trkpt><trkpt lat="43.68047311356025" lon="10.428419967338579"><ele>3.0</ele><time>2026-04-06T09:21:39Z</time></trkpt><trkpt lat="43.68037693433005" lon="10.428366010392732"><ele>3.0</ele><time>2026-04-06T09:21:40Z</time></trkpt><trkpt lat="43.68028589969595" lon="10.428311909513035"><ele>3.0</ele><time>2026-04-06T09:21:41Z</time></trkpt><trkpt lat="43.68019958154775" lon="10.428261060120834"><ele>3.0</ele><time>2026-04-06T09:21:42Z</time></trkpt><trkpt lat="43.680113828313125" lon="10.428213619688956"><ele>3.0</ele><time>2026-04-06T09:21:43Z</time></trkpt><trkpt lat="43.68003023483249" lon="10.42813569421442"><ele>2.8333333333333335</ele><time>2026-04-06T09:21:44Z</time></trkpt><trkpt lat="43.67995427323154" lon="10.428031595898705"><ele>2.6666666666666665</ele><time>2026-04-06T09:21:45Z</time></trkpt><trkpt lat="43.679899814470666" lon="10.42791905167729"><ele>2.5</ele><time>2026-04-06T09:21:46Z</time></trkpt><trkpt lat="43.67985342891285" lon="10.427815368404445"><ele>2.333333333333333</ele><time>2026-04-06T09:21:47Z</time></trkpt><trkpt lat="43.67977229680347" lon="10.427798880290007"><ele>2.1666666666666665</ele><time>2026-04-06T09:21:48Z</time></trkpt><trkpt lat="43.679699333487726" lon="10.427805508666143"><ele>2.0</ele><time>2026-04-06T09:21:49Z</time></trkpt><trkpt lat="43.67961224127981" lon="10.427833530993388"><ele>2.0</ele><time>2026-04-06T09:21:50Z</time></trkpt><trkpt lat="43.67951759471771" lon="10.427887012109776"><ele>2.0</ele><time>2026-04-06T09:21:51Z</time></trkpt><trkpt lat="43.67941311764467" lon="10.427941784789235"><ele>2.0</ele><time>2026-04-06T09:21:52Z</time></trkpt><trkpt lat="43.67928936831147" lon="10.427986182265709"><ele>2.0</ele><time>2026-04-06T09:21:53Z</time></trkpt><trkpt lat="43.67915446605264" lon="10.428040144009207"><ele>2.333333333333333</ele><time>2026-04-06T09:21:54Z</time></trkpt><trkpt lat="43.67901420279372" lon="10.42812262184119"><ele>2.6666666666666665</ele><time>2026-04-06T09:21:55Z</time></trkpt><trkpt lat="43.6788498264569" lon="10.428165382890306"><ele>3.0</ele><time>2026-04-06T09:21:56Z</time></trkpt><trkpt lat="43.67869126511204" lon="10.428248718412409"><ele>2.3333333333333335</ele><time>2026-04-06T09:21:57Z</time></trkpt><trkpt lat="43.67852705280009" lon="10.428351951230768"><ele>1.6666666666666665</ele><time>2026-04-06T09:21:58Z</time></trkpt><trkpt lat="43.67836451689161" lon="10.42846758131915"><ele>1.0</ele><time>2026-04-06T09:21:59Z</time></trkpt><trkpt lat="43.67820193986894" lon="10.428582297036662"><ele>1.0</ele><time>2026-04-06T09:22:00Z</time></trkpt><trkpt lat="43.67803929363264" lon="10.428697394123626"><ele>1.0</ele><time>2026-04-06T09:22:01Z</time></trkpt><trkpt lat="43.67788174173293" lon="10.428795564813953"><ele>1.0</ele><time>2026-04-06T09:22:02Z</time></trkpt><trkpt lat="43.67772293818463" lon="10.42891818434469"><ele>1.0</ele><time>2026-04-06T09:22:03Z</time></trkpt><trkpt lat="43.67756426880823" lon="10.429039891271792"><ele>1.0</ele><time>2026-04-06T09:22:04Z</time></trkpt><trkpt lat="43.67740053276873" lon="10.42916346264636"><ele>1.0</ele><time>2026-04-06T09:22:05Z</time></trkpt><trkpt lat="43.67723698070935" lon="10.429284765398457"><ele>1.0</ele><time>2026-04-06T09:22:06Z</time></trkpt><trkpt lat="43.677071822347436" lon="10.429408636598852"><ele>1.0</ele><time>2026-04-06T09:22:07Z</time></trkpt><trkpt lat="43.67690978115772" lon="10.429526152701564"><ele>1.0</ele><time>2026-04-06T09:22:08Z</time></trkpt><trkpt lat="43.676752466844306" lon="10.429636116836107"><ele>1.0</ele><time>2026-04-06T09:22:09Z</time></trkpt><trkpt lat="43.676597354216945" lon="10.429744454013642"><ele>1.0</ele><time>2026-04-06T09:22:10Z</time></trkpt><trkpt lat="43.67643949146894" lon="10.429853302402998"><ele>1.0</ele><time>2026-04-06T09:22:11Z</time></trkpt><trkpt lat="43.67629321282609" lon="10.429963140433722"><ele>1.0</ele><time>2026-04-06T09:22:12Z</time></trkpt><trkpt lat="43.676153460084926" lon="10.430066814189745"><ele>1.0</ele><time>2026-04-06T09:22:13Z</time></trkpt><trkpt lat="43.67602391486651" lon="10.43016680732099"><ele>1.0</ele><time>2026-04-06T09:22:14Z</time></trkpt><trkpt lat="43.67589975880337" lon="10.430253352384298"><ele>1.0</ele><time>2026-04-06T09:22:15Z</time></trkpt><trkpt lat="43.6757786086212" lon="10.430330973610555"><ele>1.25</ele><time>2026-04-06T09:22:16Z</time></trkpt><trkpt lat="43.67566360344033" lon="10.430400930445128"><ele>1.5</ele><time>2026-04-06T09:22:17Z</time></trkpt><trkpt lat="43.67554801987813" lon="10.430480136738636"><ele>1.75</ele><time>2026-04-06T09:22:18Z</time></trkpt><trkpt lat="43.67542780546154" lon="10.430561095708619"><ele>2.0</ele><time>2026-04-06T09:22:19Z</time></trkpt><trkpt lat="43.67532200864666" lon="10.430633717427165"><ele>1.8</ele><time>2026-04-06T09:22:20Z</time></trkpt><trkpt lat="43.67523042267686" lon="10.430691484796393"><ele>1.6</ele><time>2026-04-06T09:22:21Z</time></trkpt><trkpt lat="43.67514039674171" lon="10.430750710963753"><ele>1.4000000000000001</ele><time>2026-04-06T09:22:22Z</time></trkpt><trkpt lat="43.675036407246864" lon="10.43082623856865"><ele>1.2000000000000002</ele><time>2026-04-06T09:22:23Z</time></trkpt><trkpt lat="43.67492243053875" lon="10.430907695861057"><ele>1.0</ele><time>2026-04-06T09:22:24Z</time></trkpt><trkpt lat="43.674798292381986" lon="10.430987538322883"><ele>1.0</ele><time>2026-04-06T09:22:25Z</time></trkpt><trkpt lat="43.67466622095117" lon="10.43107600168248"><ele>1.0</ele><time>2026-04-06T09:22:26Z</time></trkpt><trkpt lat="43.67452807777419" lon="10.431165948539276"><ele>1.0</ele><time>2026-04-06T09:22:27Z</time></trkpt><trkpt lat="43.674384239976334" lon="10.43125548229443"><ele>0.6666666666666666</ele><time>2026-04-06T09:22:28Z</time></trkpt><trkpt lat="43.674231475243424" lon="10.431349029691031"><ele>0.3333333333333333</ele><time>2026-04-06T09:22:29Z</time></trkpt><trkpt lat="43.67407571585144" lon="10.431450302418922"><ele>0.0</ele><time>2026-04-06T09:22:30Z</time></trkpt><trkpt lat="43.67391157311788" lon="10.431554488547937"><ele>0.0</ele><time>2026-04-06T09:22:31Z</time></trkpt><trkpt lat="43.673746701444536" lon="10.43166202831523"><ele>0.0</ele><time>2026-04-06T09:22:32Z</time></trkpt><trkpt lat="43.67357664198478" lon="10.431770259159565"><ele>0.0</ele><time>2026-04-06T09:22:33Z</time></trkpt><trkpt lat="43.67339967913165" lon="10.431883363630572"><ele>0.0</ele><time>2026-04-06T09:22:34Z</time></trkpt><trkpt lat="43.67321800489273" lon="10.432000172862741"><ele>0.0</ele><time>2026-04-06T09:22:35Z</time></trkpt><trkpt lat="43.67303074089135" lon="10.432115810374691"><ele>0.0</ele><time>2026-04-06T09:22:36Z</time></trkpt><trkpt lat="43.672844463036654" lon="10.432229318661692"><ele>0.3333333333333333</ele><time>2026-04-06T09:22:37Z</time></trkpt><trkpt lat="43.67265395380905" lon="10.432341361169115"><ele>0.6666666666666666</ele><time>2026-04-06T09:22:38Z</time></trkpt><trkpt lat="43.67246208186021" lon="10.432451386066232"><ele>1.0</ele><time>2026-04-06T09:22:39Z</time></trkpt><trkpt lat="43.6722654122259" lon="10.432554716537961"><ele>1.0</ele><time>2026-04-06T09:22:40Z</time></trkpt><trkpt lat="43.672059534371066" lon="10.432651589113437"><ele>1.0</ele><time>2026-04-06T09:22:41Z</time></trkpt><trkpt lat="43.67185208054387" lon="10.432744105181419"><ele>1.0</ele><time>2026-04-06T09:22:42Z</time></trkpt><trkpt lat="43.671648437706004" lon="10.43282545917016"><ele>0.6666666666666666</ele><time>2026-04-06T09:22:43Z</time></trkpt><trkpt lat="43.67145030138829" lon="10.432892835870147"><ele>0.3333333333333333</ele><time>2026-04-06T09:22:44Z</time></trkpt><trkpt lat="43.671250533830815" lon="10.432954337755838"><ele>0.0</ele><time>2026-04-06T09:22:45Z</time></trkpt><trkpt lat="43.671055147590785" lon="10.433006098386866"><ele>0.0</ele><time>2026-04-06T09:22:46Z</time></trkpt><trkpt lat="43.670875405403216" lon="10.433052588554089"><ele>0.0</ele><time>2026-04-06T09:22:47Z</time></trkpt><trkpt lat="43.67070200327903" lon="10.433092943724143"><ele>0.0</ele><time>2026-04-06T09:22:48Z</time></trkpt><trkpt lat="43.67053450380609" lon="10.433137729352964"><ele>0.0</ele><time>2026-04-06T09:22:49Z</time></trkpt><trkpt lat="43.670372096279415" lon="10.43318205923129"><ele>0.0</ele><time>2026-04-06T09:22:50Z</time></trkpt><trkpt lat="43.670211184289215" lon="10.433234083904601"><ele>0.0</ele><time>2026-04-06T09:22:51Z</time></trkpt><trkpt lat="43.670066027661285" lon="10.433273536244895"><ele>0.0</ele><time>2026-04-06T09:22:52Z</time></trkpt><trkpt lat="43.669910999904964" lon="10.4333251584524"><ele>0.0</ele><time>2026-04-06T09:22:53Z</time></trkpt><trkpt lat="43.6697631385815" lon="10.433377644305867"><ele>0.0</ele><time>2026-04-06T09:22:54Z</time></trkpt><trkpt lat="43.66962491411093" lon="10.433428673721075"><ele>0.0</ele><time>2026-04-06T09:22:55Z</time></trkpt><trkpt lat="43.66949696115069" lon="10.433479367492604"><ele>0.0</ele><time>2026-04-06T09:22:56Z</time></trkpt><trkpt lat="43.669368142480295" lon="10.433534990555199"><ele>0.0</ele><time>2026-04-06T09:22:57Z</time></trkpt><trkpt lat="43.66923856047413" lon="10.43359317504205"><ele>0.0</ele><time>2026-04-06T09:22:58Z</time></trkpt><trkpt lat="43.66911970330949" lon="10.43365125028404"><ele>0.0</ele><time>2026-04-06T09:22:59Z</time></trkpt><trkpt lat="43.669008750270606" lon="10.433709071663028"><ele>0.0</ele><time>2026-04-06T09:23:00Z</time></trkpt><trkpt lat="43.66890622971993" lon="10.43376778685509"><ele>0.0</ele><time>2026-04-06T09:23:01Z</time></trkpt><trkpt lat="43.66880671728297" lon="10.433818768819359"><ele>0.0</ele><time>2026-04-06T09:23:02Z</time></trkpt><trkpt lat="43.66869431273445" lon="10.43386431663887"><ele>0.25</ele><time>2026-04-06T09:23:03Z</time></trkpt><trkpt lat="43.668583117149474" lon="10.433925520671753"><ele>0.5</ele><time>2026-04-06T09:23:04Z</time></trkpt><trkpt lat="43.66845797557136" lon="10.43399464962044"><ele>0.75</ele><time>2026-04-06T09:23:05Z</time></trkpt><trkpt lat="43.6683150817251" lon="10.434048958968326"><ele>1.0</ele><time>2026-04-06T09:23:06Z</time></trkpt><trkpt lat="43.668162333370795" lon="10.434091762091084"><ele>1.0</ele><time>2026-04-06T09:23:07Z</time></trkpt><trkpt lat="43.66800406370609" lon="10.434143680654495"><ele>1.0</ele><time>2026-04-06T09:23:08Z</time></trkpt><trkpt lat="43.66783449190475" lon="10.434214719777913"><ele>1.0</ele><time>2026-04-06T09:23:09Z</time></trkpt><trkpt lat="43.667659759460435" lon="10.434293899606736"><ele>1.6666666666666665</ele><time>2026-04-06T09:23:10Z</time></trkpt><trkpt lat="43.66748247723552" lon="10.434383589046"><ele>2.3333333333333335</ele><time>2026-04-06T09:23:11Z</time></trkpt><trkpt lat="43.6673022455223" lon="10.434489453673294"><ele>3.0</ele><time>2026-04-06T09:23:12Z</time></trkpt><trkpt lat="43.66712139464417" lon="10.434605244686136"><ele>2.3333333333333335</ele><time>2026-04-06T09:23:13Z</time></trkpt><trkpt lat="43.666940915610496" lon="10.434718589871922"><ele>1.6666666666666665</ele><time>2026-04-06T09:23:14Z</time></trkpt><trkpt lat="43.66675839245791" lon="10.434832915821389"><ele>1.0</ele><time>2026-04-06T09:23:15Z</time></trkpt><trkpt lat="43.66657658356441" lon="10.434943660198375"><ele>1.0</ele><time>2026-04-06T09:23:16Z</time></trkpt><trkpt lat="43.66639856222601" lon="10.43505373819759"><ele>1.0</ele><time>2026-04-06T09:23:17Z</time></trkpt><trkpt lat="43.6662203253758" lon="10.435168243779675"><ele>1.0</ele><time>2026-04-06T09:23:18Z</time></trkpt><trkpt lat="43.666044194408244" lon="10.435278443678119"><ele>1.0</ele><time>2026-04-06T09:23:19Z</time></trkpt><trkpt lat="43.665868078478915" lon="10.435388519150473"><ele>1.0</ele><time>2026-04-06T09:23:20Z</time></trkpt><trkpt lat="43.665691718696785" lon="10.435496191786378"><ele>1.0</ele><time>2026-04-06T09:23:21Z</time></trkpt><trkpt lat="43.66551719050601" lon="10.43560592508904"><ele>1.0</ele><time>2026-04-06T09:23:22Z</time></trkpt><trkpt lat="43.66534571192081" lon="10.435712791848639"><ele>1.0</ele><time>2026-04-06T09:23:23Z</time></trkpt><trkpt lat="43.665174282150865" lon="10.435823586346132"><ele>1.0</ele><time>2026-04-06T09:23:24Z</time></trkpt><trkpt lat="43.665006237477144" lon="10.435935880224227"><ele>0.6666666666666666</ele><time>2026-04-06T09:23:25Z</time></trkpt><trkpt lat="43.66483896550496" lon="10.436044751778494"><ele>0.3333333333333333</ele><time>2026-04-06T09:23:26Z</time></trkpt><trkpt lat="43.66467330056757" lon="10.436148031420961"><ele>0.0</ele><time>2026-04-06T09:23:27Z</time></trkpt><trkpt lat="43.66450789256141" lon="10.43624527759359"><ele>0.0</ele><time>2026-04-06T09:23:28Z</time></trkpt><trkpt lat="43.66434216301518" lon="10.436345428329307"><ele>0.0</ele><time>2026-04-06T09:23:29Z</time></trkpt><trkpt lat="43.66417926351044" lon="10.436450925327302"><ele>0.0</ele><time>2026-04-06T09:23:30Z</time></trkpt><trkpt lat="43.66401732272306" lon="10.436557220283884"><ele>0.0</ele><time>2026-04-06T09:23:31Z</time></trkpt><trkpt lat="43.66385397853112" lon="10.436662498441342"><ele>0.0</ele><time>2026-04-06T09:23:32Z</time></trkpt><trkpt lat="43.66369254983186" lon="10.436769794075625"><ele>0.0</ele><time>2026-04-06T09:23:33Z</time></trkpt><trkpt lat="43.66353882198463" lon="10.436861838129019"><ele>0.0</ele><time>2026-04-06T09:23:34Z</time></trkpt><trkpt lat="43.66338396262842" lon="10.436953933396195"><ele>0.0</ele><time>2026-04-06T09:23:35Z</time></trkpt><trkpt lat="43.6632325596519" lon="10.437046574478092"><ele>0.0</ele><time>2026-04-06T09:23:36Z</time></trkpt><trkpt lat="43.66308404561879" lon="10.4371397494336"><ele>0.0</ele><time>2026-04-06T09:23:37Z</time></trkpt><trkpt lat="43.66293736510256" lon="10.437230526470147"><ele>0.0</ele><time>2026-04-06T09:23:38Z</time></trkpt><trkpt lat="43.662790865494046" lon="10.437320785343982"><ele>0.0</ele><time>2026-04-06T09:23:39Z</time></trkpt><trkpt lat="43.66264394224464" lon="10.437411857499526"><ele>0.0</ele><time>2026-04-06T09:23:40Z</time></trkpt><trkpt lat="43.662496291336026" lon="10.43750079636978"><ele>0.0</ele><time>2026-04-06T09:23:41Z</time></trkpt><trkpt lat="43.662351497833605" lon="10.437591568957393"><ele>0.0</ele><time>2026-04-06T09:23:42Z</time></trkpt><trkpt lat="43.66221192607194" lon="10.437675104283073"><ele>0.0</ele><time>2026-04-06T09:23:43Z</time></trkpt><trkpt lat="43.662080359316846" lon="10.43776030375517"><ele>0.0</ele><time>2026-04-06T09:23:44Z</time></trkpt><trkpt lat="43.661946832650806" lon="10.437847999591007"><ele>0.0</ele><time>2026-04-06T09:23:45Z</time></trkpt><trkpt lat="43.661815806219316" lon="10.43793390889872"><ele>0.0</ele><time>2026-04-06T09:23:46Z</time></trkpt><trkpt lat="43.6616890628852" lon="10.43801230734361"><ele>0.0</ele><time>2026-04-06T09:23:47Z</time></trkpt><trkpt lat="43.66156984264219" lon="10.438087120464774"><ele>0.0</ele><time>2026-04-06T09:23:48Z</time></trkpt><trkpt lat="43.6614514717311" lon="10.438161769668033"><ele>0.0</ele><time>2026-04-06T09:23:49Z</time></trkpt><trkpt lat="43.661338671886284" lon="10.438235037491033"><ele>0.0</ele><time>2026-04-06T09:23:50Z</time></trkpt><trkpt lat="43.6612194039075" lon="10.438308951026832"><ele>0.25</ele><time>2026-04-06T09:23:51Z</time></trkpt><trkpt lat="43.661095670843544" lon="10.438391464461402"><ele>0.5</ele><time>2026-04-06T09:23:52Z</time></trkpt><trkpt lat="43.66096821282852" lon="10.438484168029412"><ele>0.75</ele><time>2026-04-06T09:23:53Z</time></trkpt><trkpt lat="43.66084111871665" lon="10.438572831095053"><ele>1.0</ele><time>2026-04-06T09:23:54Z</time></trkpt><trkpt lat="43.66070919654931" lon="10.43865792195638"><ele>1.0</ele><time>2026-04-06T09:23:55Z</time></trkpt><trkpt lat="43.66057769116041" lon="10.438735841445924"><ele>1.0</ele><time>2026-04-06T09:23:56Z</time></trkpt><trkpt lat="43.660447575401925" lon="10.438816642839368"><ele>1.0</ele><time>2026-04-06T09:23:57Z</time></trkpt><trkpt lat="43.66032019886334" lon="10.438898363165523"><ele>1.0</ele><time>2026-04-06T09:23:58Z</time></trkpt><trkpt lat="43.660189086495066" lon="10.438976465474749"><ele>1.0</ele><time>2026-04-06T09:23:59Z</time></trkpt><trkpt lat="43.66005754801114" lon="10.439058649832267"><ele>1.0</ele><time>2026-04-06T09:24:00Z</time></trkpt><trkpt lat="43.65992461911195" lon="10.43914225695535"><ele>1.0</ele><time>2026-04-06T09:24:01Z</time></trkpt><trkpt lat="43.65979113612648" lon="10.439229267217103"><ele>1.0</ele><time>2026-04-06T09:24:02Z</time></trkpt><trkpt lat="43.65965532143253" lon="10.439315835712163"><ele>1.0</ele><time>2026-04-06T09:24:03Z</time></trkpt><trkpt lat="43.65951914985735" lon="10.439397549775212"><ele>1.0</ele><time>2026-04-06T09:24:04Z</time></trkpt><trkpt lat="43.65938410084763" lon="10.439483530725436"><ele>1.0</ele><time>2026-04-06T09:24:05Z</time></trkpt><trkpt lat="43.659250326937354" lon="10.439567988384747"><ele>1.0</ele><time>2026-04-06T09:24:06Z</time></trkpt><trkpt lat="43.65912489355395" lon="10.439652353283838"><ele>0.75</ele><time>2026-04-06T09:24:07Z</time></trkpt><trkpt lat="43.65899385971596" lon="10.439734906069937"><ele>0.5</ele><time>2026-04-06T09:24:08Z</time></trkpt><trkpt lat="43.658863148388285" lon="10.439816685004994"><ele>0.25</ele><time>2026-04-06T09:24:09Z</time></trkpt><trkpt lat="43.658729747348225" lon="10.439898022723769"><ele>0.0</ele><time>2026-04-06T09:24:10Z</time></trkpt><trkpt lat="43.65858885562282" lon="10.439985107474586"><ele>0.0</ele><time>2026-04-06T09:24:11Z</time></trkpt><trkpt lat="43.65844363762301" lon="10.440074018930472"><ele>0.0</ele><time>2026-04-06T09:24:12Z</time></trkpt><trkpt lat="43.65829256641678" lon="10.440170933628718"><ele>0.0</ele><time>2026-04-06T09:24:13Z</time></trkpt><trkpt lat="43.65814444086539" lon="10.440277804729151"><ele>0.0</ele><time>2026-04-06T09:24:14Z</time></trkpt><trkpt lat="43.657997628185456" lon="10.440373383269735"><ele>0.0</ele><time>2026-04-06T09:24:15Z</time></trkpt><trkpt lat="43.65785884198404" lon="10.44046591429191"><ele>0.0</ele><time>2026-04-06T09:24:16Z</time></trkpt><trkpt lat="43.65771563829479" lon="10.440557430573786"><ele>0.3333333333333333</ele><time>2026-04-06T09:24:17Z</time></trkpt><trkpt lat="43.6575735003123" lon="10.4406464848678"><ele>0.6666666666666666</ele><time>2026-04-06T09:24:18Z</time></trkpt><trkpt lat="43.65742968986937" lon="10.440736122945063"><ele>1.0</ele><time>2026-04-06T09:24:19Z</time></trkpt><trkpt lat="43.657285117494055" lon="10.440830632267447"><ele>1.0</ele><time>2026-04-06T09:24:20Z</time></trkpt><trkpt lat="43.657137280130144" lon="10.440926033804775"><ele>1.0</ele><time>2026-04-06T09:24:21Z</time></trkpt><trkpt lat="43.65698974207949" lon="10.441017988633664"><ele>1.0</ele><time>2026-04-06T09:24:22Z</time></trkpt><trkpt lat="43.656841670489456" lon="10.441107050127114"><ele>1.0</ele><time>2026-04-06T09:24:23Z</time></trkpt><trkpt lat="43.65669704362522" lon="10.441191848730197"><ele>1.0</ele><time>2026-04-06T09:24:24Z</time></trkpt><trkpt lat="43.6565578212231" lon="10.441284076300745"><ele>1.0</ele><time>2026-04-06T09:24:25Z</time></trkpt><trkpt lat="43.65641924260919" lon="10.441375441378028"><ele>1.0</ele><time>2026-04-06T09:24:26Z</time></trkpt><trkpt lat="43.65628032062299" lon="10.441465312025187"><ele>1.0</ele><time>2026-04-06T09:24:27Z</time></trkpt><trkpt lat="43.656141132694806" lon="10.441553618616581"><ele>1.0</ele><time>2026-04-06T09:24:28Z</time></trkpt><trkpt lat="43.65601156698858" lon="10.441638660483521"><ele>1.0</ele><time>2026-04-06T09:24:29Z</time></trkpt><trkpt lat="43.655892092207715" lon="10.44171825230837"><ele>1.0</ele><time>2026-04-06T09:24:30Z</time></trkpt><trkpt lat="43.65577054305469" lon="10.441799780547415"><ele>1.0</ele><time>2026-04-06T09:24:31Z</time></trkpt><trkpt lat="43.65564611490178" lon="10.441883058798288"><ele>1.0</ele><time>2026-04-06T09:24:32Z</time></trkpt><trkpt lat="43.65552120138695" lon="10.441965183615897"><ele>1.0</ele><time>2026-04-06T09:24:33Z</time></trkpt><trkpt lat="43.65539757673341" lon="10.442041075019374"><ele>1.0</ele><time>2026-04-06T09:24:34Z</time></trkpt><trkpt lat="43.65526925930765" lon="10.44212305841406"><ele>1.0</ele><time>2026-04-06T09:24:35Z</time></trkpt><trkpt lat="43.65513975031" lon="10.442205942315761"><ele>1.0</ele><time>2026-04-06T09:24:36Z</time></trkpt><trkpt lat="43.65500795492317" lon="10.442289338819503"><ele>0.6666666666666666</ele><time>2026-04-06T09:24:37Z</time></trkpt><trkpt lat="43.65487254399276" lon="10.442369639459864"><ele>0.3333333333333333</ele><time>2026-04-06T09:24:38Z</time></trkpt><trkpt lat="43.65473104688252" lon="10.442457110773429"><ele>0.0</ele><time>2026-04-06T09:24:39Z</time></trkpt><trkpt lat="43.65458576341587" lon="10.442550233055437"><ele>-0.6666666666666666</ele><time>2026-04-06T09:24:40Z</time></trkpt><trkpt lat="43.654439921800396" lon="10.442646918287371"><ele>-1.3333333333333333</ele><time>2026-04-06T09:24:41Z</time></trkpt><trkpt lat="43.65429987834297" lon="10.442740840517633"><ele>-2.0</ele><time>2026-04-06T09:24:42Z</time></trkpt><trkpt lat="43.65416015054862" lon="10.442830807151514"><ele>-2.0</ele><time>2026-04-06T09:24:43Z</time></trkpt><trkpt lat="43.65402239850324" lon="10.44291764109871"><ele>-2.0</ele><time>2026-04-06T09:24:44Z</time></trkpt><trkpt lat="43.65388607242099" lon="10.442992818005584"><ele>-2.0</ele><time>2026-04-06T09:24:45Z</time></trkpt><trkpt lat="43.65375501477405" lon="10.44307715870113"><ele>-2.0</ele><time>2026-04-06T09:24:46Z</time></trkpt><trkpt lat="43.65362670753679" lon="10.443160547354868"><ele>-1.75</ele><time>2026-04-06T09:24:47Z</time></trkpt><trkpt lat="43.65349954091809" lon="10.443243463062176"><ele>-1.5</ele><time>2026-04-06T09:24:48Z</time></trkpt><trkpt lat="43.653369410676795" lon="10.443324087438045"><ele>-1.25</ele><time>2026-04-06T09:24:49Z</time></trkpt><trkpt lat="43.65323866620208" lon="10.443405500492366"><ele>-1.0</ele><time>2026-04-06T09:24:50Z</time></trkpt><trkpt lat="43.65310639419426" lon="10.443490183831507"><ele>-1.0</ele><time>2026-04-06T09:24:51Z</time></trkpt><trkpt lat="43.65297287312201" lon="10.443572206030348"><ele>-1.0</ele><time>2026-04-06T09:24:52Z</time></trkpt><trkpt lat="43.65283825738307" lon="10.443657199634188"><ele>-1.0</ele><time>2026-04-06T09:24:53Z</time></trkpt><trkpt lat="43.65270091208935" lon="10.443742177528362"><ele>-1.0</ele><time>2026-04-06T09:24:54Z</time></trkpt><trkpt lat="43.65256229262658" lon="10.443831408182811"><ele>-0.6666666666666666</ele><time>2026-04-06T09:24:55Z</time></trkpt><trkpt lat="43.65242224378419" lon="10.443920316889152"><ele>-0.3333333333333333</ele><time>2026-04-06T09:24:56Z</time></trkpt><trkpt lat="43.652279117685055" lon="10.4440123161745"><ele>0.0</ele><time>2026-04-06T09:24:57Z</time></trkpt><trkpt lat="43.65213816224018" lon="10.44410413684"><ele>0.0</ele><time>2026-04-06T09:24:58Z</time></trkpt><trkpt lat="43.65199559336488" lon="10.44419393021271"><ele>0.0</ele><time>2026-04-06T09:24:59Z</time></trkpt><trkpt lat="43.65184853453085" lon="10.44428401856665"><ele>0.0</ele><time>2026-04-06T09:25:00Z</time></trkpt><trkpt lat="43.65170302667167" lon="10.44438088628931"><ele>-0.3333333333333333</ele><time>2026-04-06T09:25:01Z</time></trkpt><trkpt lat="43.651557699056305" lon="10.44447965014104"><ele>-0.6666666666666666</ele><time>2026-04-06T09:25:02Z</time></trkpt><trkpt lat="43.651411680057535" lon="10.444573647964688"><ele>-1.0</ele><time>2026-04-06T09:25:03Z</time></trkpt><trkpt lat="43.651265730782555" lon="10.444669441868264"><ele>-0.3333333333333333</ele><time>2026-04-06T09:25:04Z</time></trkpt><trkpt lat="43.651119319327265" lon="10.444759723568364"><ele>0.3333333333333333</ele><time>2026-04-06T09:25:05Z</time></trkpt><trkpt lat="43.65097432692576" lon="10.444848449260167"><ele>1.0</ele><time>2026-04-06T09:25:06Z</time></trkpt><trkpt lat="43.65082767053372" lon="10.44493703566146"><ele>1.0</ele><time>2026-04-06T09:25:07Z</time></trkpt><trkpt lat="43.65068050942359" lon="10.445026666852604"><ele>1.0</ele><time>2026-04-06T09:25:08Z</time></trkpt><trkpt lat="43.65053454036148" lon="10.445112797870967"><ele>1.0</ele><time>2026-04-06T09:25:09Z</time></trkpt><trkpt lat="43.65038675239221" lon="10.445201575634206"><ele>0.6666666666666666</ele><time>2026-04-06T09:25:10Z</time></trkpt><trkpt lat="43.65023160397472" lon="10.445295170983982"><ele>0.3333333333333333</ele><time>2026-04-06T09:25:11Z</time></trkpt><trkpt lat="43.65007206218133" lon="10.445397706139428"><ele>0.0</ele><time>2026-04-06T09:25:12Z</time></trkpt><trkpt lat="43.649910504996384" lon="10.445505262629654"><ele>-0.3333333333333333</ele><time>2026-04-06T09:25:13Z</time></trkpt><trkpt lat="43.649743038855476" lon="10.445614818277267"><ele>-0.6666666666666666</ele><time>2026-04-06T09:25:14Z</time></trkpt><trkpt lat="43.649572856743085" lon="10.445725045613639"><ele>-1.0</ele><time>2026-04-06T09:25:15Z</time></trkpt><trkpt lat="43.64940270113057" lon="10.445836700910652"><ele>-1.0</ele><time>2026-04-06T09:25:16Z</time></trkpt><trkpt lat="43.64923283153056" lon="10.445945476731183"><ele>-1.0</ele><time>2026-04-06T09:25:17Z</time></trkpt><trkpt lat="43.64906998931302" lon="10.446052255159206"><ele>-1.0</ele><time>2026-04-06T09:25:18Z</time></trkpt><trkpt lat="43.648913340509154" lon="10.446155865584142"><ele>-1.0</ele><time>2026-04-06T09:25:19Z</time></trkpt><trkpt lat="43.64876083251974" lon="10.446251352243719"><ele>-1.0</ele><time>2026-04-06T09:25:20Z</time></trkpt><trkpt lat="43.648611352328544" lon="10.446342654055911"><ele>-1.0</ele><time>2026-04-06T09:25:21Z</time></trkpt><trkpt lat="43.64846067020343" lon="10.446435377612085"><ele>-0.6666666666666666</ele><time>2026-04-06T09:25:22Z</time></trkpt><trkpt lat="43.64831147215531" lon="10.446526358792674"><ele>-0.3333333333333333</ele><time>2026-04-06T09:25:23Z</time></trkpt><trkpt lat="43.64816941974506" lon="10.446616729973229"><ele>0.0</ele><time>2026-04-06T09:25:24Z</time></trkpt><trkpt lat="43.648032630497156" lon="10.446703521011877"><ele>0.0</ele><time>2026-04-06T09:25:25Z</time></trkpt><trkpt lat="43.647896161643935" lon="10.446786521657938"><ele>0.0</ele><time>2026-04-06T09:25:26Z</time></trkpt><trkpt lat="43.647757320589314" lon="10.446871759716343"><ele>0.0</ele><time>2026-04-06T09:25:27Z</time></trkpt><trkpt lat="43.64761742894302" lon="10.446960102334684"><ele>0.0</ele><time>2026-04-06T09:25:28Z</time></trkpt><trkpt lat="43.64747615016271" lon="10.447045946225723"><ele>0.0</ele><time>2026-04-06T09:25:29Z</time></trkpt><trkpt lat="43.64733919171149" lon="10.447134488179435"><ele>0.0</ele><time>2026-04-06T09:25:30Z</time></trkpt><trkpt lat="43.647207502767905" lon="10.447222096839702"><ele>-0.3333333333333333</ele><time>2026-04-06T09:25:31Z</time></trkpt><trkpt lat="43.64707146898298" lon="10.447305464867261"><ele>-0.6666666666666666</ele><time>2026-04-06T09:25:32Z</time></trkpt><trkpt lat="43.64693184693169" lon="10.447384640833958"><ele>-1.0</ele><time>2026-04-06T09:25:33Z</time></trkpt><trkpt lat="43.64679318779939" lon="10.44747089865703"><ele>-1.0</ele><time>2026-04-06T09:25:34Z</time></trkpt><trkpt lat="43.64666173728011" lon="10.447560109894118"><ele>-1.0</ele><time>2026-04-06T09:25:35Z</time></trkpt><trkpt lat="43.64653502063421" lon="10.44764765424416"><ele>-1.0</ele><time>2026-04-06T09:25:36Z</time></trkpt><trkpt lat="43.64641016039571" lon="10.44772597904024"><ele>-1.0</ele><time>2026-04-06T09:25:37Z</time></trkpt><trkpt lat="43.646283087252215" lon="10.44780099669482"><ele>-1.0</ele><time>2026-04-06T09:25:38Z</time></trkpt><trkpt lat="43.64615576410833" lon="10.447880904386329"><ele>-1.0</ele><time>2026-04-06T09:25:39Z</time></trkpt><trkpt lat="43.64603648483172" lon="10.447958743329526"><ele>-1.0</ele><time>2026-04-06T09:25:40Z</time></trkpt><trkpt lat="43.64591359358355" lon="10.448038521476018"><ele>-1.0</ele><time>2026-04-06T09:25:41Z</time></trkpt><trkpt lat="43.645793155939955" lon="10.448116566156845"><ele>-0.6000000000000001</ele><time>2026-04-06T09:25:42Z</time></trkpt><trkpt lat="43.64569096307113" lon="10.44819862254686"><ele>-0.20000000000000007</ele><time>2026-04-06T09:25:43Z</time></trkpt><trkpt lat="43.64560708423789" lon="10.448267228666968"><ele>0.20000000000000007</ele><time>2026-04-06T09:25:44Z</time></trkpt><trkpt lat="43.6455297096168" lon="10.448308225987585"><ele>0.6000000000000001</ele><time>2026-04-06T09:25:45Z</time></trkpt><trkpt lat="43.64545214453792" lon="10.448357212675965"><ele>1.0</ele><time>2026-04-06T09:25:46Z</time></trkpt><trkpt lat="43.64536277113863" lon="10.448408699351384"><ele>1.25</ele><time>2026-04-06T09:25:47Z</time></trkpt><trkpt lat="43.64526257996053" lon="10.448468194582137"><ele>1.5</ele><time>2026-04-06T09:25:48Z</time></trkpt><trkpt lat="43.64515624632731" lon="10.448535746450238"><ele>1.75</ele><time>2026-04-06T09:25:49Z</time></trkpt><trkpt lat="43.645039874882066" lon="10.44861293262315"><ele>2.0</ele><time>2026-04-06T09:25:50Z</time></trkpt><trkpt lat="43.64491437403715" lon="10.448698339038774"><ele>2.0</ele><time>2026-04-06T09:25:51Z</time></trkpt><trkpt lat="43.64479755738302" lon="10.448772404895855"><ele>2.0</ele><time>2026-04-06T09:25:52Z</time></trkpt><trkpt lat="43.64469139313967" lon="10.448834010226"><ele>2.0</ele><time>2026-04-06T09:25:53Z</time></trkpt><trkpt lat="43.64460185433916" lon="10.448876612771151"><ele>2.0</ele><time>2026-04-06T09:25:54Z</time></trkpt><trkpt lat="43.6445344685008" lon="10.448910643398015"><ele>2.0</ele><time>2026-04-06T09:25:55Z</time></trkpt><trkpt lat="43.64444981889228" lon="10.448954258215254"><ele>2.2</ele><time>2026-04-06T09:25:57Z</time></trkpt><trkpt lat="43.64438307309763" lon="10.448995603986075"><ele>2.4000000000000004</ele><time>2026-04-06T09:26:39Z</time></trkpt><trkpt lat="43.64425300925212" lon="10.449046249936629"><ele>2.5999999999999996</ele><time>2026-04-06T09:26:41Z</time></trkpt><trkpt lat="43.64417595205328" lon="10.449079199197243"><ele>2.8</ele><time>2026-04-06T09:26:42Z</time></trkpt><trkpt lat="43.644082300605255" lon="10.449137381267949"><ele>3.0</ele><time>2026-04-06T09:26:43Z</time></trkpt><trkpt lat="43.64398246805633" lon="10.44922428223694"><ele>3.0</ele><time>2026-04-06T09:26:44Z</time></trkpt><trkpt lat="43.64388353016148" lon="10.44931447539659"><ele>3.0</ele><time>2026-04-06T09:26:45Z</time></trkpt><trkpt lat="43.64376714418098" lon="10.4494026235442"><ele>3.0</ele><time>2026-04-06T09:26:46Z</time></trkpt><trkpt lat="43.64362952234117" lon="10.449486044115964"><ele>3.0</ele><time>2026-04-06T09:26:47Z</time></trkpt><trkpt lat="43.643471614256214" lon="10.449585822900271"><ele>2.6666666666666665</ele><time>2026-04-06T09:26:48Z</time></trkpt><trkpt lat="43.643306433503255" lon="10.449688107582213"><ele>2.333333333333333</ele><time>2026-04-06T09:26:49Z</time></trkpt><trkpt lat="43.64314408449908" lon="10.449786302016992"><ele>2.0</ele><time>2026-04-06T09:26:50Z</time></trkpt><trkpt lat="43.64297690337755" lon="10.449891258132626"><ele>2.0</ele><time>2026-04-06T09:26:51Z</time></trkpt><trkpt lat="43.64280427750743" lon="10.449998352913948"><ele>2.0</ele><time>2026-04-06T09:26:52Z</time></trkpt><trkpt lat="43.642634273612096" lon="10.450108455497968"><ele>2.0</ele><time>2026-04-06T09:26:53Z</time></trkpt><trkpt lat="43.642462672531806" lon="10.450217780336864"><ele>1.6666666666666665</ele><time>2026-04-06T09:26:54Z</time></trkpt><trkpt lat="43.64229344160939" lon="10.450324681929317"><ele>1.3333333333333333</ele><time>2026-04-06T09:26:55Z</time></trkpt><trkpt lat="43.642125161731435" lon="10.450436096330472"><ele>1.0</ele><time>2026-04-06T09:26:56Z</time></trkpt><trkpt lat="43.64195709912283" lon="10.450545110678009"><ele>0.6666666666666666</ele><time>2026-04-06T09:26:57Z</time></trkpt><trkpt lat="43.64178508875631" lon="10.450655128888979"><ele>0.3333333333333333</ele><time>2026-04-06T09:26:58Z</time></trkpt><trkpt lat="43.641608647101016" lon="10.450764979086351"><ele>0.0</ele><time>2026-04-06T09:26:59Z</time></trkpt><trkpt lat="43.64142748179783" lon="10.450874282270927"><ele>0.0</ele><time>2026-04-06T09:27:00Z</time></trkpt><trkpt lat="43.64124449884619" lon="10.45098813287018"><ele>0.0</ele><time>2026-04-06T09:27:01Z</time></trkpt><trkpt lat="43.64105841251642" lon="10.451102516537299"><ele>0.0</ele><time>2026-04-06T09:27:02Z</time></trkpt><trkpt lat="43.64086950915728" lon="10.451223197697574"><ele>0.0</ele><time>2026-04-06T09:27:03Z</time></trkpt><trkpt lat="43.640678757610125" lon="10.451348316797569"><ele>0.0</ele><time>2026-04-06T09:27:04Z</time></trkpt><trkpt lat="43.64048372924781" lon="10.451474257961438"><ele>0.0</ele><time>2026-04-06T09:27:05Z</time></trkpt><trkpt lat="43.64028469852818" lon="10.451600295341343"><ele>0.0</ele><time>2026-04-06T09:27:06Z</time></trkpt><trkpt lat="43.64008473205727" lon="10.451727045423286"><ele>0.0</ele><time>2026-04-06T09:27:07Z</time></trkpt><trkpt lat="43.639883297875386" lon="10.451853624290466"><ele>0.0</ele><time>2026-04-06T09:27:08Z</time></trkpt><trkpt lat="43.639679887016456" lon="10.451981490227476"><ele>0.0</ele><time>2026-04-06T09:27:09Z</time></trkpt><trkpt lat="43.639476998183724" lon="10.452112155462776"><ele>0.0</ele><time>2026-04-06T09:27:10Z</time></trkpt><trkpt lat="43.63927313637293" lon="10.452241651708714"><ele>0.0</ele><time>2026-04-06T09:27:11Z</time></trkpt><trkpt lat="43.63907019738498" lon="10.452372177411991"><ele>0.0</ele><time>2026-04-06T09:27:12Z</time></trkpt><trkpt lat="43.63886797568022" lon="10.45249549667937"><ele>0.0</ele><time>2026-04-06T09:27:13Z</time></trkpt><trkpt lat="43.6386666197844" lon="10.452622309692822"><ele>0.0</ele><time>2026-04-06T09:27:14Z</time></trkpt><trkpt lat="43.638465812339945" lon="10.452749478361154"><ele>0.3333333333333333</ele><time>2026-04-06T09:27:15Z</time></trkpt><trkpt lat="43.63826354356216" lon="10.452884131355082"><ele>0.6666666666666666</ele><time>2026-04-06T09:27:16Z</time></trkpt><trkpt lat="43.63806144959916" lon="10.453016153320977"><ele>1.0</ele><time>2026-04-06T09:27:17Z</time></trkpt><trkpt lat="43.63785777989246" lon="10.453144342298062"><ele>0.6666666666666666</ele><time>2026-04-06T09:27:18Z</time></trkpt><trkpt lat="43.63765490533055" lon="10.453272283645884"><ele>0.3333333333333333</ele><time>2026-04-06T09:27:19Z</time></trkpt><trkpt lat="43.63745568562158" lon="10.453396791641161"><ele>0.0</ele><time>2026-04-06T09:27:20Z</time></trkpt><trkpt lat="43.63725502880698" lon="10.45352452801659"><ele>0.0</ele><time>2026-04-06T09:27:21Z</time></trkpt><trkpt lat="43.63705431393808" lon="10.453649275412067"><ele>0.0</ele><time>2026-04-06T09:27:22Z</time></trkpt><trkpt lat="43.63685634939079" lon="10.453773995103724"><ele>0.0</ele><time>2026-04-06T09:27:23Z</time></trkpt><trkpt lat="43.636661306416784" lon="10.453895653472161"><ele>0.3333333333333333</ele><time>2026-04-06T09:27:24Z</time></trkpt><trkpt lat="43.636467390871" lon="10.454016054568386"><ele>0.6666666666666666</ele><time>2026-04-06T09:27:25Z</time></trkpt><trkpt lat="43.63627871959426" lon="10.454133344220653"><ele>1.0</ele><time>2026-04-06T09:27:26Z</time></trkpt><trkpt lat="43.636093438703796" lon="10.454249908289443"><ele>1.0</ele><time>2026-04-06T09:27:27Z</time></trkpt><trkpt lat="43.63591069796483" lon="10.454366166763268"><ele>1.0</ele><time>2026-04-06T09:27:28Z</time></trkpt><trkpt lat="43.63573177852789" lon="10.454481208310947"><ele>1.0</ele><time>2026-04-06T09:27:29Z</time></trkpt><trkpt lat="43.635556706945515" lon="10.454588098691074"><ele>1.0</ele><time>2026-04-06T09:27:30Z</time></trkpt><trkpt lat="43.63537957562921" lon="10.45469622775406"><ele>1.0</ele><time>2026-04-06T09:27:31Z</time></trkpt><trkpt lat="43.63520756089122" lon="10.454802886645686"><ele>1.0</ele><time>2026-04-06T09:27:32Z</time></trkpt><trkpt lat="43.6350385700049" lon="10.454906711914404"><ele>1.0</ele><time>2026-04-06T09:27:33Z</time></trkpt><trkpt lat="43.63487104751389" lon="10.455012341381543"><ele>1.0</ele><time>2026-04-06T09:27:34Z</time></trkpt><trkpt lat="43.634708164153004" lon="10.455116472972355"><ele>1.0</ele><time>2026-04-06T09:27:35Z</time></trkpt><trkpt lat="43.634546915483384" lon="10.45521904016399"><ele>1.6666666666666665</ele><time>2026-04-06T09:27:36Z</time></trkpt><trkpt lat="43.63438844530684" lon="10.455322660663585"><ele>2.3333333333333335</ele><time>2026-04-06T09:27:37Z</time></trkpt><trkpt lat="43.63423496932666" lon="10.455423601930574"><ele>3.0</ele><time>2026-04-06T09:27:38Z</time></trkpt><trkpt lat="43.634085514455904" lon="10.455523140595526"><ele>3.0</ele><time>2026-04-06T09:27:39Z</time></trkpt><trkpt lat="43.63393347558446" lon="10.455619394662738"><ele>3.0</ele><time>2026-04-06T09:27:40Z</time></trkpt><trkpt lat="43.633782501236205" lon="10.455719984556826"><ele>3.0</ele><time>2026-04-06T09:27:41Z</time></trkpt><trkpt lat="43.63363581042007" lon="10.455816101503945"><ele>2.3333333333333335</ele><time>2026-04-06T09:27:42Z</time></trkpt><trkpt lat="43.63348659085524" lon="10.45591009617159"><ele>1.6666666666666665</ele><time>2026-04-06T09:27:43Z</time></trkpt><trkpt lat="43.63333883213711" lon="10.4560041593794"><ele>1.0</ele><time>2026-04-06T09:27:44Z</time></trkpt><trkpt lat="43.63318882118807" lon="10.456093619304738"><ele>1.0</ele><time>2026-04-06T09:27:45Z</time></trkpt><trkpt lat="43.63303941365165" lon="10.456188307239385"><ele>1.0</ele><time>2026-04-06T09:27:46Z</time></trkpt><trkpt lat="43.6328912966946" lon="10.45628239203836"><ele>1.0</ele><time>2026-04-06T09:27:47Z</time></trkpt><trkpt lat="43.632741713843295" lon="10.456379342154246"><ele>1.0</ele><time>2026-04-06T09:27:48Z</time></trkpt><trkpt lat="43.63258925034509" lon="10.456474307283274"><ele>1.0</ele><time>2026-04-06T09:27:49Z</time></trkpt><trkpt lat="43.6324371083464" lon="10.456566859674322"><ele>1.0</ele><time>2026-04-06T09:27:50Z</time></trkpt><trkpt lat="43.632283186855304" lon="10.456661610495434"><ele>1.0</ele><time>2026-04-06T09:27:51Z</time></trkpt><trkpt lat="43.632129489107705" lon="10.456757856452967"><ele>1.0</ele><time>2026-04-06T09:27:52Z</time></trkpt><trkpt lat="43.63197194050285" lon="10.456859551602712"><ele>1.0</ele><time>2026-04-06T09:27:53Z</time></trkpt><trkpt lat="43.631811144100766" lon="10.456967965268262"><ele>1.0</ele><time>2026-04-06T09:27:54Z</time></trkpt><trkpt lat="43.63165219375575" lon="10.457069506396092"><ele>1.0</ele><time>2026-04-06T09:27:55Z</time></trkpt><trkpt lat="43.63148881572666" lon="10.457169586207394"><ele>1.0</ele><time>2026-04-06T09:27:56Z</time></trkpt><trkpt lat="43.63132068112177" lon="10.457272430585846"><ele>1.3333333333333333</ele><time>2026-04-06T09:27:57Z</time></trkpt><trkpt lat="43.6311493701421" lon="10.457377377418364"><ele>1.6666666666666665</ele><time>2026-04-06T09:27:58Z</time></trkpt><trkpt lat="43.630974869054114" lon="10.45749332137248"><ele>2.0</ele><time>2026-04-06T09:27:59Z</time></trkpt><trkpt lat="43.63079829487313" lon="10.457602246085553"><ele>2.0</ele><time>2026-04-06T09:28:00Z</time></trkpt><trkpt lat="43.6306221138012" lon="10.45771052674625"><ele>2.0</ele><time>2026-04-06T09:28:01Z</time></trkpt><trkpt lat="43.63044448489905" lon="10.457822768638252"><ele>2.0</ele><time>2026-04-06T09:28:02Z</time></trkpt><trkpt lat="43.630267631382736" lon="10.457935398738758"><ele>2.0</ele><time>2026-04-06T09:28:03Z</time></trkpt><trkpt lat="43.630089942215655" lon="10.458052725271191"><ele>2.0</ele><time>2026-04-06T09:28:04Z</time></trkpt><trkpt lat="43.62991132626213" lon="10.45817219563989"><ele>2.0</ele><time>2026-04-06T09:28:05Z</time></trkpt><trkpt lat="43.62973138008377" lon="10.45828481293694"><ele>2.0</ele><time>2026-04-06T09:28:06Z</time></trkpt><trkpt lat="43.62955007849824" lon="10.458398307294358"><ele>2.0</ele><time>2026-04-06T09:28:07Z</time></trkpt><trkpt lat="43.62937097302257" lon="10.458514013784118"><ele>2.0</ele><time>2026-04-06T09:28:08Z</time></trkpt><trkpt lat="43.62919082424318" lon="10.458635012924459"><ele>1.6666666666666665</ele><time>2026-04-06T09:28:09Z</time></trkpt><trkpt lat="43.629005558239434" lon="10.458757843237915"><ele>1.3333333333333333</ele><time>2026-04-06T09:28:10Z</time></trkpt><trkpt lat="43.628817705794496" lon="10.45887433175097"><ele>1.0</ele><time>2026-04-06T09:28:11Z</time></trkpt><trkpt lat="43.628626067861795" lon="10.458991231516087"><ele>1.0</ele><time>2026-04-06T09:28:12Z</time></trkpt><trkpt lat="43.628433132738785" lon="10.459116187572636"><ele>1.0</ele><time>2026-04-06T09:28:13Z</time></trkpt><trkpt lat="43.62823836067652" lon="10.459241843396889"><ele>1.0</ele><time>2026-04-06T09:28:14Z</time></trkpt><trkpt lat="43.628040845450485" lon="10.45936197310473"><ele>1.0</ele><time>2026-04-06T09:28:15Z</time></trkpt><trkpt lat="43.62784481897155" lon="10.45948994572767"><ele>1.0</ele><time>2026-04-06T09:28:16Z</time></trkpt><trkpt lat="43.627647886483416" lon="10.459618421417973"><ele>1.0</ele><time>2026-04-06T09:28:17Z</time></trkpt><trkpt lat="43.627451999531274" lon="10.459741303211596"><ele>1.3333333333333333</ele><time>2026-04-06T09:28:18Z</time></trkpt><trkpt lat="43.62725583618451" lon="10.459868230216971"><ele>1.6666666666666665</ele><time>2026-04-06T09:28:19Z</time></trkpt><trkpt lat="43.62705988475975" lon="10.459996016966064"><ele>2.0</ele><time>2026-04-06T09:28:20Z</time></trkpt><trkpt lat="43.6268637421872" lon="10.460122464997728"><ele>2.0</ele><time>2026-04-06T09:28:21Z</time></trkpt><trkpt lat="43.62666923881911" lon="10.460244779887148"><ele>2.0</ele><time>2026-04-06T09:28:22Z</time></trkpt><trkpt lat="43.62647842407913" lon="10.460368660405942"><ele>2.0</ele><time>2026-04-06T09:28:23Z</time></trkpt><trkpt lat="43.626286794578895" lon="10.46049568944453"><ele>1.6666666666666665</ele><time>2026-04-06T09:28:24Z</time></trkpt><trkpt lat="43.62609685580509" lon="10.460616672928836"><ele>1.3333333333333333</ele><time>2026-04-06T09:28:25Z</time></trkpt><trkpt lat="43.62591042871644" lon="10.460732557769925"><ele>1.0</ele><time>2026-04-06T09:28:26Z</time></trkpt><trkpt lat="43.62572713469087" lon="10.460845423883898"><ele>1.0</ele><time>2026-04-06T09:28:27Z</time></trkpt><trkpt lat="43.62554762320593" lon="10.460958918055534"><ele>1.0</ele><time>2026-04-06T09:28:28Z</time></trkpt><trkpt lat="43.625374139396136" lon="10.461072727371784"><ele>1.0</ele><time>2026-04-06T09:28:29Z</time></trkpt><trkpt lat="43.62520421724322" lon="10.461185140199241"><ele>2.0</ele><time>2026-04-06T09:28:30Z</time></trkpt><trkpt lat="43.62503311922401" lon="10.461294609427446"><ele>3.0</ele><time>2026-04-06T09:28:31Z</time></trkpt><trkpt lat="43.62486373739477" lon="10.461404016776932"><ele>4.0</ele><time>2026-04-06T09:28:32Z</time></trkpt><trkpt lat="43.624691839677546" lon="10.461511872984863"><ele>4.0</ele><time>2026-04-06T09:28:33Z</time></trkpt><trkpt lat="43.62451856161296" lon="10.461624127476778"><ele>4.0</ele><time>2026-04-06T09:28:34Z</time></trkpt><trkpt lat="43.62434401150593" lon="10.46173568610791"><ele>4.0</ele><time>2026-04-06T09:28:35Z</time></trkpt><trkpt lat="43.62416561131423" lon="10.46184857609126"><ele>4.666666666666666</ele><time>2026-04-06T09:28:36Z</time></trkpt><trkpt lat="43.62398390407897" lon="10.46196423149243"><ele>5.333333333333333</ele><time>2026-04-06T09:28:37Z</time></trkpt><trkpt lat="43.623805969779646" lon="10.462073957916823"><ele>6.0</ele><time>2026-04-06T09:28:38Z</time></trkpt><trkpt lat="43.62362527853233" lon="10.462191757463916"><ele>6.0</ele><time>2026-04-06T09:28:39Z</time></trkpt><trkpt lat="43.62344506406066" lon="10.462305586123582"><ele>6.0</ele><time>2026-04-06T09:28:40Z</time></trkpt><trkpt lat="43.62326437480012" lon="10.462416991394113"><ele>6.0</ele><time>2026-04-06T09:28:41Z</time></trkpt><trkpt lat="43.62308553842345" lon="10.462526090943143"><ele>6.0</ele><time>2026-04-06T09:28:42Z</time></trkpt><trkpt lat="43.622910766647905" lon="10.462635409534194"><ele>6.0</ele><time>2026-04-06T09:28:43Z</time></trkpt><trkpt lat="43.622735030729835" lon="10.462749221293898"><ele>6.0</ele><time>2026-04-06T09:28:44Z</time></trkpt><trkpt lat="43.622556431266275" lon="10.462862332995199"><ele>5.666666666666667</ele><time>2026-04-06T09:28:45Z</time></trkpt><trkpt lat="43.62237290761836" lon="10.462976888249626"><ele>5.333333333333334</ele><time>2026-04-06T09:28:46Z</time></trkpt><trkpt lat="43.622183187128755" lon="10.463093554833863"><ele>5.0</ele><time>2026-04-06T09:28:47Z</time></trkpt><trkpt lat="43.62199119505371" lon="10.463206490978054"><ele>5.0</ele><time>2026-04-06T09:28:48Z</time></trkpt><trkpt lat="43.62179633967511" lon="10.46331515601158"><ele>5.0</ele><time>2026-04-06T09:28:49Z</time></trkpt><trkpt lat="43.62160738511733" lon="10.463410498209877"><ele>5.0</ele><time>2026-04-06T09:28:50Z</time></trkpt><trkpt lat="43.621432101776776" lon="10.463492448559947"><ele>5.0</ele><time>2026-04-06T09:28:51Z</time></trkpt><trkpt lat="43.621263879693345" lon="10.463564611602465"><ele>5.0</ele><time>2026-04-06T09:28:52Z</time></trkpt><trkpt lat="43.62110629537101" lon="10.463634453997159"><ele>5.0</ele><time>2026-04-06T09:28:53Z</time></trkpt><trkpt lat="43.62095188397993" lon="10.463709013914693"><ele>5.666666666666667</ele><time>2026-04-06T09:28:54Z</time></trkpt><trkpt lat="43.62079419953715" lon="10.463785659693139"><ele>6.333333333333334</ele><time>2026-04-06T09:28:55Z</time></trkpt><trkpt lat="43.62063802156765" lon="10.46385718689557"><ele>7.0</ele><time>2026-04-06T09:28:56Z</time></trkpt><trkpt lat="43.62049734709239" lon="10.4639196456644"><ele>7.0</ele><time>2026-04-06T09:28:57Z</time></trkpt><trkpt lat="43.62035881356226" lon="10.463980352516007"><ele>7.0</ele><time>2026-04-06T09:28:58Z</time></trkpt><trkpt lat="43.62022678835801" lon="10.464049588640616"><ele>7.0</ele><time>2026-04-06T09:28:59Z</time></trkpt><trkpt lat="43.62009225356879" lon="10.464124461144761"><ele>7.0</ele><time>2026-04-06T09:29:00Z</time></trkpt><trkpt lat="43.619962596282754" lon="10.464209921356343"><ele>6.25</ele><time>2026-04-06T09:29:01Z</time></trkpt><trkpt lat="43.61984469947615" lon="10.46430246469563"><ele>5.5</ele><time>2026-04-06T09:29:02Z</time></trkpt><trkpt lat="43.61973477053074" lon="10.464411321839671"><ele>4.75</ele><time>2026-04-06T09:29:03Z</time></trkpt><trkpt lat="43.61964096450703" lon="10.464575791650377"><ele>4.0</ele><time>2026-04-06T09:29:04Z</time></trkpt><trkpt lat="43.61953914245715" lon="10.464739406233216"><ele>4.0</ele><time>2026-04-06T09:29:05Z</time></trkpt><trkpt lat="43.61943495159392" lon="10.464920603785409"><ele>4.0</ele><time>2026-04-06T09:29:06Z</time></trkpt><trkpt lat="43.61933569003546" lon="10.465103711204486"><ele>4.0</ele><time>2026-04-06T09:29:07Z</time></trkpt><trkpt lat="43.61923926971656" lon="10.465293431128293"><ele>3.6666666666666665</ele><time>2026-04-06T09:29:08Z</time></trkpt><trkpt lat="43.619140448791335" lon="10.465487437417414"><ele>3.333333333333333</ele><time>2026-04-06T09:29:09Z</time></trkpt><trkpt lat="43.619064246327596" lon="10.465693851903465"><ele>3.0</ele><time>2026-04-06T09:29:10Z</time></trkpt><trkpt lat="43.61894882662966" lon="10.465889715177967"><ele>3.0</ele><time>2026-04-06T09:29:11Z</time></trkpt><trkpt lat="43.61886925996386" lon="10.466107748189511"><ele>3.0</ele><time>2026-04-06T09:29:12Z</time></trkpt><trkpt lat="43.61879478091437" lon="10.466339104957857"><ele>3.0</ele><time>2026-04-06T09:29:13Z</time></trkpt><trkpt lat="43.61872685127163" lon="10.466576574561408"><ele>3.333333333333333</ele><time>2026-04-06T09:29:14Z</time></trkpt><trkpt lat="43.618659289584784" lon="10.466814874566639"><ele>3.6666666666666665</ele><time>2026-04-06T09:29:15Z</time></trkpt><trkpt lat="43.61859452273579" lon="10.467049253804081"><ele>4.0</ele><time>2026-04-06T09:29:16Z</time></trkpt><trkpt lat="43.61853138155421" lon="10.46728511891161"><ele>4.0</ele><time>2026-04-06T09:29:17Z</time></trkpt><trkpt lat="43.61846095894081" lon="10.467505367171215"><ele>4.0</ele><time>2026-04-06T09:29:18Z</time></trkpt><trkpt lat="43.61838082826699" lon="10.4677193313872"><ele>4.0</ele><time>2026-04-06T09:29:19Z</time></trkpt><trkpt lat="43.61829562543578" lon="10.467926071718912"><ele>4.333333333333333</ele><time>2026-04-06T09:29:20Z</time></trkpt><trkpt lat="43.61820775013876" lon="10.46813552528573"><ele>4.666666666666667</ele><time>2026-04-06T09:29:21Z</time></trkpt><trkpt lat="43.61812068526447" lon="10.468339433915785"><ele>5.0</ele><time>2026-04-06T09:29:22Z</time></trkpt><trkpt lat="43.61803284874169" lon="10.468542195379863"><ele>5.0</ele><time>2026-04-06T09:29:23Z</time></trkpt><trkpt lat="43.61794318513789" lon="10.468747072115818"><ele>5.0</ele><time>2026-04-06T09:29:24Z</time></trkpt><trkpt lat="43.61784941672426" lon="10.468937073718758"><ele>5.0</ele><time>2026-04-06T09:29:25Z</time></trkpt><trkpt lat="43.61774789831601" lon="10.469127117486835"><ele>5.333333333333334</ele><time>2026-04-06T09:29:26Z</time></trkpt><trkpt lat="43.61762952700954" lon="10.46930175172209"><ele>5.666666666666667</ele><time>2026-04-06T09:29:27Z</time></trkpt><trkpt lat="43.617502969774854" lon="10.46946048019583"><ele>6.0</ele><time>2026-04-06T09:29:28Z</time></trkpt><trkpt lat="43.61736560419523" lon="10.4696022172837"><ele>6.0</ele><time>2026-04-06T09:29:29Z</time></trkpt><trkpt lat="43.61722086577192" lon="10.469726621476946"><ele>6.0</ele><time>2026-04-06T09:29:30Z</time></trkpt><trkpt lat="43.61706642268478" lon="10.469839210348903"><ele>6.0</ele><time>2026-04-06T09:29:31Z</time></trkpt><trkpt lat="43.61690815043985" lon="10.469932921610237"><ele>6.0</ele><time>2026-04-06T09:29:32Z</time></trkpt><trkpt lat="43.61674330870732" lon="10.470009688850949"><ele>6.0</ele><time>2026-04-06T09:29:33Z</time></trkpt><trkpt lat="43.61657536956364" lon="10.470076253911532"><ele>6.0</ele><time>2026-04-06T09:29:34Z</time></trkpt><trkpt lat="43.61640414195775" lon="10.47013335061388"><ele>6.0</ele><time>2026-04-06T09:29:35Z</time></trkpt><trkpt lat="43.6162335217159" lon="10.470191289928708"><ele>6.0</ele><time>2026-04-06T09:29:36Z</time></trkpt><trkpt lat="43.61606042156574" lon="10.470256926351498"><ele>6.0</ele><time>2026-04-06T09:29:37Z</time></trkpt><trkpt lat="43.61589098410844" lon="10.470320084646382"><ele>6.0</ele><time>2026-04-06T09:29:38Z</time></trkpt><trkpt lat="43.615719754562775" lon="10.47037882969802"><ele>6.0</ele><time>2026-04-06T09:29:39Z</time></trkpt><trkpt lat="43.61554992785672" lon="10.470440879072289"><ele>6.0</ele><time>2026-04-06T09:29:40Z</time></trkpt><trkpt lat="43.61538021841168" lon="10.470502838711203"><ele>6.333333333333334</ele><time>2026-04-06T09:29:41Z</time></trkpt><trkpt lat="43.6152134080901" lon="10.470561036505432"><ele>6.666666666666667</ele><time>2026-04-06T09:29:42Z</time></trkpt><trkpt lat="43.6150472544334" lon="10.470622613820513"><ele>7.0</ele><time>2026-04-06T09:29:43Z</time></trkpt><trkpt lat="43.61487992231797" lon="10.47068425578751"><ele>7.0</ele><time>2026-04-06T09:29:44Z</time></trkpt><trkpt lat="43.6147126857223" lon="10.470747306103217"><ele>7.0</ele><time>2026-04-06T09:29:45Z</time></trkpt><trkpt lat="43.61454720520835" lon="10.470804500861796"><ele>7.0</ele><time>2026-04-06T09:29:46Z</time></trkpt><trkpt lat="43.61438171591331" lon="10.47086377131288"><ele>6.333333333333334</ele><time>2026-04-06T09:29:47Z</time></trkpt><trkpt lat="43.61421560369201" lon="10.470928460867402"><ele>5.666666666666667</ele><time>2026-04-06T09:29:48Z</time></trkpt><trkpt lat="43.61404847413169" lon="10.470994520207878"><ele>5.0</ele><time>2026-04-06T09:29:49Z</time></trkpt><trkpt lat="43.61388327396843" lon="10.471066400741234"><ele>5.0</ele><time>2026-04-06T09:29:50Z</time></trkpt><trkpt lat="43.61372131826814" lon="10.471140292508982"><ele>5.0</ele><time>2026-04-06T09:29:51Z</time></trkpt><trkpt lat="43.61355383351469" lon="10.471214184836954"><ele>5.0</ele><time>2026-04-06T09:29:52Z</time></trkpt><trkpt lat="43.613385455166316" lon="10.471293771503737"><ele>5.0</ele><time>2026-04-06T09:29:53Z</time></trkpt><trkpt lat="43.61322182171911" lon="10.471369167691433"><ele>5.0</ele><time>2026-04-06T09:29:54Z</time></trkpt><trkpt lat="43.613054314454224" lon="10.471444893357159"><ele>5.0</ele><time>2026-04-06T09:29:55Z</time></trkpt><trkpt lat="43.612889356296265" lon="10.471524452758063"><ele>4.666666666666667</ele><time>2026-04-06T09:29:56Z</time></trkpt><trkpt lat="43.61272664576023" lon="10.47161117978174"><ele>4.333333333333333</ele><time>2026-04-06T09:29:57Z</time></trkpt><trkpt lat="43.61256268383156" lon="10.471698692135224"><ele>4.0</ele><time>2026-04-06T09:29:58Z</time></trkpt><trkpt lat="43.612395189374176" lon="10.471785944353545"><ele>4.0</ele><time>2026-04-06T09:29:59Z</time></trkpt><trkpt lat="43.61223349368873" lon="10.471865311517238"><ele>4.0</ele><time>2026-04-06T09:30:00Z</time></trkpt><trkpt lat="43.61207895675189" lon="10.471942176153869"><ele>4.0</ele><time>2026-04-06T09:30:01Z</time></trkpt><trkpt lat="43.61193362964084" lon="10.472016607986763"><ele>3.75</ele><time>2026-04-06T09:30:02Z</time></trkpt><trkpt lat="43.61179441606293" lon="10.472082803138203"><ele>3.5</ele><time>2026-04-06T09:30:03Z</time></trkpt><trkpt lat="43.611665421698426" lon="10.472147512884435"><ele>3.25</ele><time>2026-04-06T09:30:04Z</time></trkpt><trkpt lat="43.61154215783609" lon="10.472213751182814"><ele>3.0</ele><time>2026-04-06T09:30:05Z</time></trkpt><trkpt lat="43.61141087108875" lon="10.472280607992753"><ele>3.5</ele><time>2026-04-06T09:30:06Z</time></trkpt><trkpt lat="43.61127807039513" lon="10.472350359618876"><ele>4.0</ele><time>2026-04-06T09:30:07Z</time></trkpt><trkpt lat="43.6111404663932" lon="10.47241559303007"><ele>4.5</ele><time>2026-04-06T09:30:08Z</time></trkpt><trkpt lat="43.61099705436769" lon="10.47247306552892"><ele>5.0</ele><time>2026-04-06T09:30:09Z</time></trkpt><trkpt lat="43.61084807987065" lon="10.472507588522383"><ele>5.0</ele><time>2026-04-06T09:30:10Z</time></trkpt><trkpt lat="43.61069174187782" lon="10.472530113842884"><ele>5.0</ele><time>2026-04-06T09:30:11Z</time></trkpt><trkpt lat="43.61053128126291" lon="10.472555894148664"><ele>5.0</ele><time>2026-04-06T09:30:12Z</time></trkpt><trkpt lat="43.61036875297562" lon="10.472588834218342"><ele>4.666666666666667</ele><time>2026-04-06T09:30:13Z</time></trkpt><trkpt lat="43.61020308253036" lon="10.47263668948569"><ele>4.333333333333333</ele><time>2026-04-06T09:30:14Z</time></trkpt><trkpt lat="43.61003754803365" lon="10.47269089520951"><ele>4.0</ele><time>2026-04-06T09:30:15Z</time></trkpt><trkpt lat="43.60988135093542" lon="10.472748432916685"><ele>4.0</ele><time>2026-04-06T09:30:16Z</time></trkpt><trkpt lat="43.609732897866124" lon="10.472812413086496"><ele>4.0</ele><time>2026-04-06T09:30:17Z</time></trkpt><trkpt lat="43.60958562962186" lon="10.47288847433911"><ele>4.0</ele><time>2026-04-06T09:30:18Z</time></trkpt><trkpt lat="43.609441934273775" lon="10.4729695860884"><ele>4.666666666666666</ele><time>2026-04-06T09:30:19Z</time></trkpt><trkpt lat="43.60928950123543" lon="10.473058187784646"><ele>5.333333333333333</ele><time>2026-04-06T09:30:20Z</time></trkpt><trkpt lat="43.609146188423814" lon="10.473154646816301"><ele>6.0</ele><time>2026-04-06T09:30:21Z</time></trkpt><trkpt lat="43.608998911938016" lon="10.473259667230252"><ele>6.0</ele><time>2026-04-06T09:30:22Z</time></trkpt><trkpt lat="43.60884724100441" lon="10.473358488568035"><ele>6.0</ele><time>2026-04-06T09:30:23Z</time></trkpt><trkpt lat="43.60868651140453" lon="10.473440837255168"><ele>6.0</ele><time>2026-04-06T09:30:24Z</time></trkpt><trkpt lat="43.608517698627494" lon="10.473514321350939"><ele>6.0</ele><time>2026-04-06T09:30:25Z</time></trkpt><trkpt lat="43.60834181286202" lon="10.473557878236376"><ele>6.0</ele><time>2026-04-06T09:30:26Z</time></trkpt><trkpt lat="43.6081614434151" lon="10.473608573714406"><ele>6.0</ele><time>2026-04-06T09:30:27Z</time></trkpt><trkpt lat="43.607976927630865" lon="10.473663419549998"><ele>6.333333333333334</ele><time>2026-04-06T09:30:28Z</time></trkpt><trkpt lat="43.60778858187273" lon="10.473725789327105"><ele>6.666666666666667</ele><time>2026-04-06T09:30:29Z</time></trkpt><trkpt lat="43.60760079696181" lon="10.473793654386249"><ele>7.0</ele><time>2026-04-06T09:30:30Z</time></trkpt><trkpt lat="43.6074117616865" lon="10.47386016393098"><ele>7.333333333333334</ele><time>2026-04-06T09:30:31Z</time></trkpt><trkpt lat="43.60721772872667" lon="10.473921798158221"><ele>7.666666666666666</ele><time>2026-04-06T09:30:32Z</time></trkpt><trkpt lat="43.60702185954225" lon="10.473980071842597"><ele>8.0</ele><time>2026-04-06T09:30:33Z</time></trkpt><trkpt lat="43.606823790865676" lon="10.474039223955844"><ele>7.333333333333333</ele><time>2026-04-06T09:30:34Z</time></trkpt><trkpt lat="43.60662693003966" lon="10.474099351303716"><ele>6.666666666666666</ele><time>2026-04-06T09:30:35Z</time></trkpt><trkpt lat="43.60642736540736" lon="10.474159182003293"><ele>6.0</ele><time>2026-04-06T09:30:36Z</time></trkpt><trkpt lat="43.60622697540046" lon="10.474219157814447"><ele>6.0</ele><time>2026-04-06T09:30:37Z</time></trkpt><trkpt lat="43.606029055318345" lon="10.474283105704982"><ele>6.0</ele><time>2026-04-06T09:30:38Z</time></trkpt><trkpt lat="43.60583176830969" lon="10.474347048073108"><ele>6.0</ele><time>2026-04-06T09:30:39Z</time></trkpt><trkpt lat="43.605631307673974" lon="10.474408798957645"><ele>6.0</ele><time>2026-04-06T09:30:40Z</time></trkpt><trkpt lat="43.60543142431567" lon="10.474472744408926"><ele>6.0</ele><time>2026-04-06T09:30:41Z</time></trkpt><trkpt lat="43.605231010824575" lon="10.474535035880622"><ele>6.0</ele><time>2026-04-06T09:30:42Z</time></trkpt><trkpt lat="43.60503208224105" lon="10.474595780549425"><ele>6.0</ele><time>2026-04-06T09:30:43Z</time></trkpt><trkpt lat="43.604834143160936" lon="10.474655625773833"><ele>6.0</ele><time>2026-04-06T09:30:44Z</time></trkpt><trkpt lat="43.604638828705596" lon="10.474716332779613"><ele>6.0</ele><time>2026-04-06T09:30:45Z</time></trkpt><trkpt lat="43.60444464513974" lon="10.474777154196124"><ele>6.666666666666666</ele><time>2026-04-06T09:30:46Z</time></trkpt><trkpt lat="43.60424956059909" lon="10.47483840161301"><ele>7.333333333333333</ele><time>2026-04-06T09:30:47Z</time></trkpt><trkpt lat="43.60405644651692" lon="10.474901407423273"><ele>8.0</ele><time>2026-04-06T09:30:48Z</time></trkpt><trkpt lat="43.603864601731495" lon="10.474964800804377"><ele>8.0</ele><time>2026-04-06T09:30:49Z</time></trkpt><trkpt lat="43.603671964300375" lon="10.475029425015288"><ele>8.0</ele><time>2026-04-06T09:30:50Z</time></trkpt><trkpt lat="43.603483946916484" lon="10.475089299265731"><ele>8.0</ele><time>2026-04-06T09:30:51Z</time></trkpt><trkpt lat="43.60329570691434" lon="10.475148294444633"><ele>8.0</ele><time>2026-04-06T09:30:52Z</time></trkpt><trkpt lat="43.60310761863101" lon="10.47520474114579"><ele>8.0</ele><time>2026-04-06T09:30:53Z</time></trkpt><trkpt lat="43.602920674018115" lon="10.475261031506866"><ele>8.0</ele><time>2026-04-06T09:30:54Z</time></trkpt><trkpt lat="43.60273715524758" lon="10.47531609552726"><ele>8.333333333333332</ele><time>2026-04-06T09:30:55Z</time></trkpt><trkpt lat="43.60255896499816" lon="10.475365883878004"><ele>8.666666666666666</ele><time>2026-04-06T09:30:56Z</time></trkpt><trkpt lat="43.602380796007964" lon="10.475402278582882"><ele>9.0</ele><time>2026-04-06T09:30:57Z</time></trkpt><trkpt lat="43.60219562817706" lon="10.475420348793746"><ele>9.0</ele><time>2026-04-06T09:30:58Z</time></trkpt><trkpt lat="43.60200565766204" lon="10.475426734067593"><ele>9.0</ele><time>2026-04-06T09:30:59Z</time></trkpt><trkpt lat="43.601813640708514" lon="10.475419318460217"><ele>9.0</ele><time>2026-04-06T09:31:00Z</time></trkpt><trkpt lat="43.601622342314165" lon="10.47539471900475"><ele>9.0</ele><time>2026-04-06T09:31:01Z</time></trkpt><trkpt lat="43.601434648629414" lon="10.475345325751434"><ele>9.0</ele><time>2026-04-06T09:31:02Z</time></trkpt><trkpt lat="43.601251471355624" lon="10.475276185141027"><ele>9.0</ele><time>2026-04-06T09:31:03Z</time></trkpt><trkpt lat="43.601074994638466" lon="10.475188302756187"><ele>10.0</ele><time>2026-04-06T09:31:04Z</time></trkpt><trkpt lat="43.60090380004093" lon="10.475081744996329"><ele>11.0</ele><time>2026-04-06T09:31:05Z</time></trkpt><trkpt lat="43.60073918345571" lon="10.474961990825701"><ele>12.0</ele><time>2026-04-06T09:31:06Z</time></trkpt><trkpt lat="43.6005830302931" lon="10.47482213374059"><ele>12.0</ele><time>2026-04-06T09:31:07Z</time></trkpt><trkpt lat="43.6004349086194" lon="10.474668276105612"><ele>12.0</ele><time>2026-04-06T09:31:08Z</time></trkpt><trkpt lat="43.60028666311853" lon="10.474509901594923"><ele>12.0</ele><time>2026-04-06T09:31:09Z</time></trkpt><trkpt lat="43.60013452447535" lon="10.47434610439592"><ele>12.0</ele><time>2026-04-06T09:31:10Z</time></trkpt><trkpt lat="43.59998015263809" lon="10.474185689019206"><ele>12.0</ele><time>2026-04-06T09:31:11Z</time></trkpt><trkpt lat="43.59982260029974" lon="10.474027737820522"><ele>12.0</ele><time>2026-04-06T09:31:12Z</time></trkpt><trkpt lat="43.5996599104128" lon="10.473877186198543"><ele>12.0</ele><time>2026-04-06T09:31:13Z</time></trkpt><trkpt lat="43.59949390738534" lon="10.473745078537187"><ele>12.0</ele><time>2026-04-06T09:31:14Z</time></trkpt><trkpt lat="43.599332010175736" lon="10.473634715362191"><ele>12.0</ele><time>2026-04-06T09:31:15Z</time></trkpt><trkpt lat="43.599175188593016" lon="10.473547261597092"><ele>12.0</ele><time>2026-04-06T09:31:16Z</time></trkpt><trkpt lat="43.59902459886849" lon="10.473471517469358"><ele>12.0</ele><time>2026-04-06T09:31:17Z</time></trkpt><trkpt lat="43.598871139233474" lon="10.473404565661113"><ele>12.0</ele><time>2026-04-06T09:31:18Z</time></trkpt><trkpt lat="43.59870887536949" lon="10.473346461012326"><ele>12.0</ele><time>2026-04-06T09:31:19Z</time></trkpt><trkpt lat="43.59853926228433" lon="10.47329561287138"><ele>12.0</ele><time>2026-04-06T09:31:20Z</time></trkpt><trkpt lat="43.59836400807556" lon="10.473248891012558"><ele>12.0</ele><time>2026-04-06T09:31:21Z</time></trkpt><trkpt lat="43.59818440065505" lon="10.473202518461965"><ele>12.0</ele><time>2026-04-06T09:31:22Z</time></trkpt><trkpt lat="43.598011926443995" lon="10.473159505525052"><ele>12.0</ele><time>2026-04-06T09:31:23Z</time></trkpt><trkpt lat="43.59784814281375" lon="10.47311507333716"><ele>12.0</ele><time>2026-04-06T09:31:24Z</time></trkpt><trkpt lat="43.597688150659756" lon="10.473076035850527"><ele>12.75</ele><time>2026-04-06T09:31:25Z</time></trkpt><trkpt lat="43.59753671224028" lon="10.473035674904795"><ele>13.5</ele><time>2026-04-06T09:31:26Z</time></trkpt><trkpt lat="43.597389713835895" lon="10.472999952037927"><ele>14.25</ele><time>2026-04-06T09:31:27Z</time></trkpt><trkpt lat="43.59724880028039" lon="10.472971957936343"><ele>15.0</ele><time>2026-04-06T09:31:28Z</time></trkpt><trkpt lat="43.59711649161945" lon="10.472941919011392"><ele>15.0</ele><time>2026-04-06T09:31:29Z</time></trkpt><trkpt lat="43.596982896141746" lon="10.472908622187362"><ele>15.0</ele><time>2026-04-06T09:31:30Z</time></trkpt><trkpt lat="43.5968480620247" lon="10.472876294851496"><ele>15.0</ele><time>2026-04-06T09:31:31Z</time></trkpt><trkpt lat="43.59671707196224" lon="10.472844047490032"><ele>15.0</ele><time>2026-04-06T09:31:32Z</time></trkpt><trkpt lat="43.5965955488413" lon="10.472813913444101"><ele>15.0</ele><time>2026-04-06T09:31:33Z</time></trkpt><trkpt lat="43.59647877551624" lon="10.472789064474405"><ele>15.0</ele><time>2026-04-06T09:31:34Z</time></trkpt><trkpt lat="43.59637273079668" lon="10.472767409344463"><ele>15.0</ele><time>2026-04-06T09:31:35Z</time></trkpt><trkpt lat="43.596272738849855" lon="10.472740177105582"><ele>15.0</ele><time>2026-04-06T09:31:36Z</time></trkpt><trkpt lat="43.596179596588826" lon="10.47270702037751"><ele>15.0</ele><time>2026-04-06T09:31:37Z</time></trkpt><trkpt lat="43.59608931071599" lon="10.472677663645639"><ele>15.333333333333334</ele><time>2026-04-06T09:31:38Z</time></trkpt><trkpt lat="43.596005963393154" lon="10.472635888059152"><ele>15.666666666666668</ele><time>2026-04-06T09:31:39Z</time></trkpt><trkpt lat="43.59593644488027" lon="10.472566056686219"><ele>16.0</ele><time>2026-04-06T09:31:40Z</time></trkpt><trkpt lat="43.59588300666192" lon="10.472478535207173"><ele>16.333333333333336</ele><time>2026-04-06T09:31:41Z</time></trkpt><trkpt lat="43.5958428117004" lon="10.472387199507128"><ele>16.666666666666668</ele><time>2026-04-06T09:31:42Z</time></trkpt><trkpt lat="43.595795347695294" lon="10.472317847816528"><ele>17.0</ele><time>2026-04-06T09:31:43Z</time></trkpt><trkpt lat="43.59573490200213" lon="10.472288194745113"><ele>17.0</ele><time>2026-04-06T09:31:44Z</time></trkpt><trkpt lat="43.595671785855124" lon="10.47229944818328"><ele>17.0</ele><time>2026-04-06T09:31:45Z</time></trkpt><trkpt lat="43.59561440445802" lon="10.472341692694103"><ele>17.0</ele><time>2026-04-06T09:31:46Z</time></trkpt><trkpt lat="43.595561283818384" lon="10.47241503604765"><ele>17.0</ele><time>2026-04-06T09:31:47Z</time></trkpt><trkpt lat="43.595526226346934" lon="10.472509826582877"><ele>17.0</ele><time>2026-04-06T09:31:48Z</time></trkpt><trkpt lat="43.59541408239961" lon="10.472497199467723"><ele>17.0</ele><time>2026-04-06T09:31:49Z</time></trkpt><trkpt lat="43.595323111510574" lon="10.472486196210559"><ele>16.25</ele><time>2026-04-06T09:31:50Z</time></trkpt><trkpt lat="43.59521954464557" lon="10.472463060266223"><ele>15.5</ele><time>2026-04-06T09:31:51Z</time></trkpt><trkpt lat="43.59510117921258" lon="10.472441397097446"><ele>14.75</ele><time>2026-04-06T09:31:52Z</time></trkpt><trkpt lat="43.59497410357656" lon="10.472411431912795"><ele>14.0</ele><time>2026-04-06T09:31:53Z</time></trkpt><trkpt lat="43.59484313882233" lon="10.472374794539421"><ele>14.0</ele><time>2026-04-06T09:31:54Z</time></trkpt><trkpt lat="43.5947024794976" lon="10.472338229056117"><ele>14.0</ele><time>2026-04-06T09:31:55Z</time></trkpt><trkpt lat="43.59455262170907" lon="10.4723031678717"><ele>14.0</ele><time>2026-04-06T09:31:56Z</time></trkpt><trkpt lat="43.594394502680096" lon="10.472264251865807"><ele>13.333333333333334</ele><time>2026-04-06T09:31:57Z</time></trkpt><trkpt lat="43.59423431144689" lon="10.4722254409347"><ele>12.666666666666668</ele><time>2026-04-06T09:31:58Z</time></trkpt><trkpt lat="43.594069037195574" lon="10.472186093947744"><ele>12.0</ele><time>2026-04-06T09:31:59Z</time></trkpt><trkpt lat="43.593902506281694" lon="10.472147312659619"><ele>12.0</ele><time>2026-04-06T09:32:00Z</time></trkpt><trkpt lat="43.5937378959873" lon="10.472106311886119"><ele>12.0</ele><time>2026-04-06T09:32:01Z</time></trkpt><trkpt lat="43.59356843948008" lon="10.472062612861055"><ele>12.0</ele><time>2026-04-06T09:32:02Z</time></trkpt><trkpt lat="43.59339553474511" lon="10.472019790009437"><ele>12.0</ele><time>2026-04-06T09:32:03Z</time></trkpt><trkpt lat="43.59322446318075" lon="10.471976710175765"><ele>12.0</ele><time>2026-04-06T09:32:04Z</time></trkpt><trkpt lat="43.59305487166286" lon="10.471931355887182"><ele>12.0</ele><time>2026-04-06T09:32:05Z</time></trkpt><trkpt lat="43.59288036506502" lon="10.47188607192439"><ele>11.666666666666666</ele><time>2026-04-06T09:32:06Z</time></trkpt><trkpt lat="43.59270575399012" lon="10.471841237728254"><ele>11.333333333333332</ele><time>2026-04-06T09:32:07Z</time></trkpt><trkpt lat="43.59253195823424" lon="10.471805160978139"><ele>11.0</ele><time>2026-04-06T09:32:08Z</time></trkpt><trkpt lat="43.59236133387465" lon="10.471761930535259"><ele>11.0</ele><time>2026-04-06T09:32:09Z</time></trkpt><trkpt lat="43.59219203020935" lon="10.471723174547368"><ele>11.0</ele><time>2026-04-06T09:32:10Z</time></trkpt><trkpt lat="43.59202368773358" lon="10.471681451019727"><ele>11.0</ele><time>2026-04-06T09:32:11Z</time></trkpt><trkpt lat="43.59185650168244" lon="10.471637902748519"><ele>11.333333333333332</ele><time>2026-04-06T09:32:12Z</time></trkpt><trkpt lat="43.59168933785256" lon="10.471599651441288"><ele>11.666666666666666</ele><time>2026-04-06T09:32:13Z</time></trkpt><trkpt lat="43.591519881832355" lon="10.471561431971136"><ele>12.0</ele><time>2026-04-06T09:32:14Z</time></trkpt><trkpt lat="43.591352952395795" lon="10.471518761526225"><ele>12.0</ele><time>2026-04-06T09:32:15Z</time></trkpt><trkpt lat="43.591186909575896" lon="10.47147577467405"><ele>12.0</ele><time>2026-04-06T09:32:16Z</time></trkpt><trkpt lat="43.591021298629535" lon="10.4714346106104"><ele>12.0</ele><time>2026-04-06T09:32:17Z</time></trkpt><trkpt lat="43.590860414284045" lon="10.471396421230226"><ele>12.0</ele><time>2026-04-06T09:32:18Z</time></trkpt><trkpt lat="43.59070506944752" lon="10.471359375474995"><ele>12.0</ele><time>2026-04-06T09:32:19Z</time></trkpt><trkpt lat="43.590556544982334" lon="10.471321410977922"><ele>12.0</ele><time>2026-04-06T09:32:20Z</time></trkpt><trkpt lat="43.59040875271029" lon="10.471285399021403"><ele>12.0</ele><time>2026-04-06T09:32:21Z</time></trkpt><trkpt lat="43.59026129572569" lon="10.471247518322565"><ele>12.0</ele><time>2026-04-06T09:32:22Z</time></trkpt><trkpt lat="43.590114264232916" lon="10.471212863982034"><ele>12.0</ele><time>2026-04-06T09:32:23Z</time></trkpt><trkpt lat="43.58997091789931" lon="10.471178909981457"><ele>12.0</ele><time>2026-04-06T09:32:24Z</time></trkpt><trkpt lat="43.589827045159645" lon="10.471138888433282"><ele>12.0</ele><time>2026-04-06T09:32:25Z</time></trkpt><trkpt lat="43.58968653608282" lon="10.47110309516175"><ele>12.0</ele><time>2026-04-06T09:32:26Z</time></trkpt><trkpt lat="43.58955568795507" lon="10.471068416055582"><ele>12.0</ele><time>2026-04-06T09:32:27Z</time></trkpt><trkpt lat="43.58942456941559" lon="10.471033343252417"><ele>12.0</ele><time>2026-04-06T09:32:28Z</time></trkpt><trkpt lat="43.58928508633274" lon="10.470996197132349"><ele>12.25</ele><time>2026-04-06T09:32:29Z</time></trkpt><trkpt lat="43.589151041153386" lon="10.470960491120954"><ele>12.5</ele><time>2026-04-06T09:32:30Z</time></trkpt><trkpt lat="43.58903187815022" lon="10.470918802231083"><ele>12.75</ele><time>2026-04-06T09:32:31Z</time></trkpt><trkpt lat="43.588920532703256" lon="10.470877052839082"><ele>13.0</ele><time>2026-04-06T09:32:32Z</time></trkpt><trkpt lat="43.58881860220241" lon="10.470834719263006"><ele>13.0</ele><time>2026-04-06T09:32:33Z</time></trkpt><trkpt lat="43.588722916253246" lon="10.470782827050819"><ele>13.0</ele><time>2026-04-06T09:32:34Z</time></trkpt><trkpt lat="43.58862684266913" lon="10.470723319725478"><ele>13.0</ele><time>2026-04-06T09:32:35Z</time></trkpt><trkpt lat="43.588525752772675" lon="10.470708931551473"><ele>13.0</ele><time>2026-04-06T09:32:36Z</time></trkpt><trkpt lat="43.58842300256635" lon="10.470736845984753"><ele>13.0</ele><time>2026-04-06T09:32:37Z</time></trkpt><trkpt lat="43.5883206549098" lon="10.470793260367909"><ele>13.25</ele><time>2026-04-06T09:32:38Z</time></trkpt><trkpt lat="43.58821186662922" lon="10.47083780295715"><ele>13.5</ele><time>2026-04-06T09:32:39Z</time></trkpt><trkpt lat="43.58809264315799" lon="10.470846957910911"><ele>13.75</ele><time>2026-04-06T09:32:40Z</time></trkpt><trkpt lat="43.58796695755449" lon="10.47084688685442"><ele>14.0</ele><time>2026-04-06T09:32:41Z</time></trkpt><trkpt lat="43.58782957553144" lon="10.470859509692845"><ele>14.25</ele><time>2026-04-06T09:32:42Z</time></trkpt><trkpt lat="43.58768782873866" lon="10.470873844105785"><ele>14.5</ele><time>2026-04-06T09:32:43Z</time></trkpt><trkpt lat="43.58754094476564" lon="10.470889578809981"><ele>14.75</ele><time>2026-04-06T09:32:44Z</time></trkpt><trkpt lat="43.58738701119541" lon="10.47091003997747"><ele>15.0</ele><time>2026-04-06T09:32:45Z</time></trkpt><trkpt lat="43.587229698720215" lon="10.470937114253662"><ele>15.0</ele><time>2026-04-06T09:32:46Z</time></trkpt><trkpt lat="43.58706646258011" lon="10.470969702833434"><ele>15.0</ele><time>2026-04-06T09:32:47Z</time></trkpt><trkpt lat="43.58690329086471" lon="10.471005653209724"><ele>15.0</ele><time>2026-04-06T09:32:48Z</time></trkpt><trkpt lat="43.58673896882775" lon="10.471048742696281"><ele>14.666666666666668</ele><time>2026-04-06T09:32:49Z</time></trkpt><trkpt lat="43.58657143304071" lon="10.47108664331053"><ele>14.333333333333334</ele><time>2026-04-06T09:32:50Z</time></trkpt><trkpt lat="43.586404514103755" lon="10.47114580685715"><ele>14.0</ele><time>2026-04-06T09:32:51Z</time></trkpt><trkpt lat="43.58624212235163" lon="10.471206575210266"><ele>14.0</ele><time>2026-04-06T09:32:52Z</time></trkpt><trkpt lat="43.58607204287419" lon="10.471272313318584"><ele>14.0</ele><time>2026-04-06T09:32:53Z</time></trkpt><trkpt lat="43.58590625366379" lon="10.471338051057524"><ele>14.0</ele><time>2026-04-06T09:32:54Z</time></trkpt><trkpt lat="43.585739428454644" lon="10.471415019836066"><ele>14.0</ele><time>2026-04-06T09:32:55Z</time></trkpt><trkpt lat="43.58557385100448" lon="10.471497464909142"><ele>14.0</ele><time>2026-04-06T09:32:56Z</time></trkpt><trkpt lat="43.585407139544074" lon="10.471579548239557"><ele>14.0</ele><time>2026-04-06T09:32:57Z</time></trkpt><trkpt lat="43.58523674877353" lon="10.471663452246972"><ele>14.0</ele><time>2026-04-06T09:32:58Z</time></trkpt><trkpt lat="43.58506304482734" lon="10.471751451850412"><ele>14.0</ele><time>2026-04-06T09:32:59Z</time></trkpt><trkpt lat="43.58489096153127" lon="10.471840524301616"><ele>14.0</ele><time>2026-04-06T09:33:00Z</time></trkpt><trkpt lat="43.584719054514636" lon="10.471925431968085"><ele>14.0</ele><time>2026-04-06T09:33:01Z</time></trkpt><trkpt lat="43.5845401792679" lon="10.47200974856944"><ele>14.0</ele><time>2026-04-06T09:33:02Z</time></trkpt><trkpt lat="43.58436503621358" lon="10.472095414369951"><ele>14.0</ele><time>2026-04-06T09:33:03Z</time></trkpt><trkpt lat="43.58419081331365" lon="10.472183888656701"><ele>14.666666666666668</ele><time>2026-04-06T09:33:04Z</time></trkpt><trkpt lat="43.58402778713565" lon="10.472268682031851"><ele>15.333333333333332</ele><time>2026-04-06T09:33:05Z</time></trkpt><trkpt lat="43.58386377608015" lon="10.472353215785294"><ele>16.0</ele><time>2026-04-06T09:33:06Z</time></trkpt><trkpt lat="43.583699815416345" lon="10.472434711260828"><ele>15.333333333333332</ele><time>2026-04-06T09:33:07Z</time></trkpt><trkpt lat="43.58353037123921" lon="10.472520427694903"><ele>14.666666666666668</ele><time>2026-04-06T09:33:08Z</time></trkpt><trkpt lat="43.58335951836902" lon="10.472609345867081"><ele>14.0</ele><time>2026-04-06T09:33:09Z</time></trkpt><trkpt lat="43.583185369699954" lon="10.472694255706497"><ele>14.0</ele><time>2026-04-06T09:33:10Z</time></trkpt><trkpt lat="43.58301031933601" lon="10.47277525859943"><ele>14.0</ele><time>2026-04-06T09:33:11Z</time></trkpt><trkpt lat="43.58283520999369" lon="10.47286083680486"><ele>14.0</ele><time>2026-04-06T09:33:12Z</time></trkpt><trkpt lat="43.582658839523255" lon="10.472945797340348"><ele>15.0</ele><time>2026-04-06T09:33:13Z</time></trkpt><trkpt lat="43.58248421715721" lon="10.473034601135327"><ele>16.0</ele><time>2026-04-06T09:33:14Z</time></trkpt><trkpt lat="43.582310668519874" lon="10.473123524054891"><ele>17.0</ele><time>2026-04-06T09:33:15Z</time></trkpt><trkpt lat="43.58214308759881" lon="10.473202625685042"><ele>17.0</ele><time>2026-04-06T09:33:16Z</time></trkpt><trkpt lat="43.581984056553424" lon="10.47327919780777"><ele>17.0</ele><time>2026-04-06T09:33:17Z</time></trkpt><trkpt lat="43.58183651302956" lon="10.473349738371198"><ele>17.0</ele><time>2026-04-06T09:33:18Z</time></trkpt><trkpt lat="43.58169814882383" lon="10.473415162909113"><ele>17.0</ele><time>2026-04-06T09:33:19Z</time></trkpt><trkpt lat="43.58156851577714" lon="10.473477067117845"><ele>17.0</ele><time>2026-04-06T09:33:20Z</time></trkpt><trkpt lat="43.581449491389705" lon="10.473535899223366"><ele>17.0</ele><time>2026-04-06T09:33:21Z</time></trkpt><trkpt lat="43.58133374922104" lon="10.473592505045554"><ele>17.0</ele><time>2026-04-06T09:33:22Z</time></trkpt><trkpt lat="43.58122332392701" lon="10.473632510299925"><ele>16.75</ele><time>2026-04-06T09:33:23Z</time></trkpt><trkpt lat="43.58110986316763" lon="10.47366595026183"><ele>16.5</ele><time>2026-04-06T09:33:24Z</time></trkpt><trkpt lat="43.58099599936708" lon="10.47366821507233"><ele>16.25</ele><time>2026-04-06T09:33:25Z</time></trkpt><trkpt lat="43.580881405292665" lon="10.473653563635079"><ele>16.0</ele><time>2026-04-06T09:33:26Z</time></trkpt><trkpt lat="43.58077355327155" lon="10.473629697799524"><ele>16.0</ele><time>2026-04-06T09:33:27Z</time></trkpt><trkpt lat="43.58066710426935" lon="10.473612831112487"><ele>16.0</ele><time>2026-04-06T09:33:28Z</time></trkpt><trkpt lat="43.58057444436396" lon="10.473621629826296"><ele>16.0</ele><time>2026-04-06T09:33:29Z</time></trkpt><trkpt lat="43.58049284237476" lon="10.473673728251567"><ele>16.0</ele><time>2026-04-06T09:33:30Z</time></trkpt><trkpt lat="43.58042477536334" lon="10.473772593042499"><ele>16.0</ele><time>2026-04-06T09:33:31Z</time></trkpt><trkpt lat="43.580357430630734" lon="10.473901340952722"><ele>15.75</ele><time>2026-04-06T09:33:32Z</time></trkpt><trkpt lat="43.58028388670663" lon="10.47403402221163"><ele>15.5</ele><time>2026-04-06T09:33:33Z</time></trkpt><trkpt lat="43.58019047019377" lon="10.474139856513297"><ele>15.25</ele><time>2026-04-06T09:33:34Z</time></trkpt><trkpt lat="43.58006605433352" lon="10.474216716776686"><ele>15.0</ele><time>2026-04-06T09:33:35Z</time></trkpt><trkpt lat="43.57992565755855" lon="10.474273383991786"><ele>15.0</ele><time>2026-04-06T09:33:36Z</time></trkpt><trkpt lat="43.579770730699444" lon="10.474336464193359"><ele>15.0</ele><time>2026-04-06T09:33:37Z</time></trkpt><trkpt lat="43.57961650265535" lon="10.474399586150245"><ele>15.0</ele><time>2026-04-06T09:33:38Z</time></trkpt><trkpt lat="43.57947127088556" lon="10.474451385062277"><ele>15.333333333333332</ele><time>2026-04-06T09:33:39Z</time></trkpt><trkpt lat="43.5793247920188" lon="10.474509193080118"><ele>15.666666666666666</ele><time>2026-04-06T09:33:40Z</time></trkpt><trkpt lat="43.579174525202845" lon="10.474570741416635"><ele>16.0</ele><time>2026-04-06T09:33:41Z</time></trkpt><trkpt lat="43.57901927270361" lon="10.4746260264239"><ele>16.666666666666664</ele><time>2026-04-06T09:33:42Z</time></trkpt><trkpt lat="43.57885820765688" lon="10.474682978706017"><ele>17.333333333333332</ele><time>2026-04-06T09:33:43Z</time></trkpt><trkpt lat="43.57869400301668" lon="10.474747122365445"><ele>18.0</ele><time>2026-04-06T09:33:44Z</time></trkpt><trkpt lat="43.57852280232391" lon="10.474810709156662"><ele>18.333333333333332</ele><time>2026-04-06T09:33:45Z</time></trkpt><trkpt lat="43.578349330562546" lon="10.474872618061083"><ele>18.666666666666664</ele><time>2026-04-06T09:33:46Z</time></trkpt><trkpt lat="43.57817207152701" lon="10.474935752275325"><ele>19.0</ele><time>2026-04-06T09:33:47Z</time></trkpt><trkpt lat="43.57798539437614" lon="10.474993573769684"><ele>19.333333333333332</ele><time>2026-04-06T09:33:48Z</time></trkpt><trkpt lat="43.57780121388984" lon="10.475061016631312"><ele>19.666666666666668</ele><time>2026-04-06T09:33:49Z</time></trkpt><trkpt lat="43.57762410772965" lon="10.475136221546066"><ele>20.0</ele><time>2026-04-06T09:33:50Z</time></trkpt><trkpt lat="43.57743966530744" lon="10.475207299042957"><ele>20.0</ele><time>2026-04-06T09:33:51Z</time></trkpt><trkpt lat="43.577252656529545" lon="10.475275248875164"><ele>20.0</ele><time>2026-04-06T09:33:52Z</time></trkpt><trkpt lat="43.57706977966481" lon="10.475341663845267"><ele>20.0</ele><time>2026-04-06T09:33:53Z</time></trkpt><trkpt lat="43.57688976928055" lon="10.475405172236055"><ele>21.0</ele><time>2026-04-06T09:33:54Z</time></trkpt><trkpt lat="43.57671649556746" lon="10.475467273714054"><ele>22.0</ele><time>2026-04-06T09:33:55Z</time></trkpt><trkpt lat="43.5765476562531" lon="10.475529121803138"><ele>23.0</ele><time>2026-04-06T09:33:56Z</time></trkpt><trkpt lat="43.576387845452274" lon="10.47559087454824"><ele>23.0</ele><time>2026-04-06T09:33:57Z</time></trkpt><trkpt lat="43.5762394538583" lon="10.475641128586712"><ele>23.0</ele><time>2026-04-06T09:33:58Z</time></trkpt><trkpt lat="43.57609929972866" lon="10.47568712653699"><ele>23.0</ele><time>2026-04-06T09:33:59Z</time></trkpt><trkpt lat="43.5759615040077" lon="10.475734646475336"><ele>23.0</ele><time>2026-04-06T09:34:00Z</time></trkpt><trkpt lat="43.575823801169825" lon="10.475785148268871"><ele>22.5</ele><time>2026-04-06T09:34:01Z</time></trkpt><trkpt lat="43.57567950586532" lon="10.4758362809381"><ele>22.0</ele><time>2026-04-06T09:34:02Z</time></trkpt><trkpt lat="43.575535080378614" lon="10.47588895960397"><ele>21.5</ele><time>2026-04-06T09:34:03Z</time></trkpt><trkpt lat="43.57538873180369" lon="10.475935465527472"><ele>21.0</ele><time>2026-04-06T09:34:04Z</time></trkpt><trkpt lat="43.57523503420022" lon="10.475973301349972"><ele>20.666666666666668</ele><time>2026-04-06T09:34:05Z</time></trkpt><trkpt lat="43.57507469822766" lon="10.475997864706558"><ele>20.333333333333336</ele><time>2026-04-06T09:34:06Z</time></trkpt><trkpt lat="43.57491071598013" lon="10.476011801006251"><ele>20.0</ele><time>2026-04-06T09:34:07Z</time></trkpt><trkpt lat="43.57474810988857" lon="10.47601465250246"><ele>20.0</ele><time>2026-04-06T09:34:08Z</time></trkpt><trkpt lat="43.57458638440266" lon="10.4760168061412"><ele>20.0</ele><time>2026-04-06T09:34:09Z</time></trkpt><trkpt lat="43.57442495851586" lon="10.476020305848117"><ele>20.0</ele><time>2026-04-06T09:34:10Z</time></trkpt><trkpt lat="43.574268964423425" lon="10.476022038361323"><ele>20.25</ele><time>2026-04-06T09:34:11Z</time></trkpt><trkpt lat="43.574122070531985" lon="10.476024896188052"><ele>20.5</ele><time>2026-04-06T09:34:12Z</time></trkpt><trkpt lat="43.5739804770252" lon="10.476024586166753"><ele>20.75</ele><time>2026-04-06T09:34:13Z</time></trkpt><trkpt lat="43.57383153731255" lon="10.476017505531747"><ele>21.0</ele><time>2026-04-06T09:34:14Z</time></trkpt><trkpt lat="43.57367852523462" lon="10.476002045817957"><ele>21.0</ele><time>2026-04-06T09:34:15Z</time></trkpt><trkpt lat="43.57352164715161" lon="10.475974435604913"><ele>21.0</ele><time>2026-04-06T09:34:16Z</time></trkpt><trkpt lat="43.57336092080457" lon="10.475934277411739"><ele>21.0</ele><time>2026-04-06T09:34:17Z</time></trkpt><trkpt lat="43.573198550425566" lon="10.475877801800369"><ele>21.0</ele><time>2026-04-06T09:34:18Z</time></trkpt><trkpt lat="43.573036701889045" lon="10.47580066353624"><ele>21.0</ele><time>2026-04-06T09:34:19Z</time></trkpt><trkpt lat="43.572875279230104" lon="10.475706679561698"><ele>21.0</ele><time>2026-04-06T09:34:20Z</time></trkpt><trkpt lat="43.57271351708103" lon="10.47560245455995"><ele>21.0</ele><time>2026-04-06T09:34:21Z</time></trkpt><trkpt lat="43.57255401943969" lon="10.475481751549935"><ele>21.0</ele><time>2026-04-06T09:34:22Z</time></trkpt><trkpt lat="43.5723966049487" lon="10.475354995469104"><ele>21.0</ele><time>2026-04-06T09:34:23Z</time></trkpt><trkpt lat="43.57223757159792" lon="10.475229464191647"><ele>21.333333333333332</ele><time>2026-04-06T09:34:24Z</time></trkpt><trkpt lat="43.57208427239917" lon="10.475109078949716"><ele>21.666666666666664</ele><time>2026-04-06T09:34:25Z</time></trkpt><trkpt lat="43.57194344699085" lon="10.47499544159245"><ele>22.0</ele><time>2026-04-06T09:34:26Z</time></trkpt><trkpt lat="43.57180940200625" lon="10.474886299656148"><ele>22.0</ele><time>2026-04-06T09:34:27Z</time></trkpt><trkpt lat="43.57167577796639" lon="10.47478183555914"><ele>22.0</ele><time>2026-04-06T09:34:28Z</time></trkpt><trkpt lat="43.571543263143035" lon="10.474671760569372"><ele>22.0</ele><time>2026-04-06T09:34:29Z</time></trkpt><trkpt lat="43.57140692720798" lon="10.474560167243848"><ele>21.0</ele><time>2026-04-06T09:34:30Z</time></trkpt><trkpt lat="43.57126738084073" lon="10.474446042787095"><ele>20.0</ele><time>2026-04-06T09:34:31Z</time></trkpt><trkpt lat="43.57112381034655" lon="10.47432429538308"><ele>19.0</ele><time>2026-04-06T09:34:32Z</time></trkpt><trkpt lat="43.570975509262254" lon="10.474202484776583"><ele>19.0</ele><time>2026-04-06T09:34:33Z</time></trkpt><trkpt lat="43.570828185241766" lon="10.47408580953974"><ele>19.0</ele><time>2026-04-06T09:34:34Z</time></trkpt><trkpt lat="43.570690995744506" lon="10.473980918116261"><ele>19.0</ele><time>2026-04-06T09:34:35Z</time></trkpt><trkpt lat="43.5705506980043" lon="10.473882052146026"><ele>19.0</ele><time>2026-04-06T09:34:36Z</time></trkpt><trkpt lat="43.5704027206099" lon="10.473797778010262"><ele>19.0</ele><time>2026-04-06T09:34:37Z</time></trkpt><trkpt lat="43.57024827885957" lon="10.47372817894535"><ele>19.0</ele><time>2026-04-06T09:34:38Z</time></trkpt><trkpt lat="43.570083479449124" lon="10.473674384911304"><ele>19.666666666666664</ele><time>2026-04-06T09:34:39Z</time></trkpt><trkpt lat="43.56991156103353" lon="10.473631762663832"><ele>20.333333333333332</ele><time>2026-04-06T09:34:40Z</time></trkpt><trkpt lat="43.56973109068046" lon="10.473611579663993"><ele>21.0</ele><time>2026-04-06T09:34:41Z</time></trkpt><trkpt lat="43.5695489694504" lon="10.473614570924711"><ele>20.666666666666668</ele><time>2026-04-06T09:34:42Z</time></trkpt><trkpt lat="43.56936445417208" lon="10.473635064554372"><ele>20.333333333333336</ele><time>2026-04-06T09:34:43Z</time></trkpt><trkpt lat="43.56918202164318" lon="10.473670116085561"><ele>20.0</ele><time>2026-04-06T09:34:44Z</time></trkpt><trkpt lat="43.56900508544593" lon="10.473737669448864"><ele>20.0</ele><time>2026-04-06T09:34:45Z</time></trkpt><trkpt lat="43.56883374984878" lon="10.473818406500962"><ele>20.0</ele><time>2026-04-06T09:34:46Z</time></trkpt><trkpt lat="43.5686681549276" lon="10.473911294570295"><ele>20.0</ele><time>2026-04-06T09:34:47Z</time></trkpt><trkpt lat="43.56850544076568" lon="10.47401959026475"><ele>20.0</ele><time>2026-04-06T09:34:48Z</time></trkpt><trkpt lat="43.56834352296209" lon="10.474154627819377"><ele>20.0</ele><time>2026-04-06T09:34:49Z</time></trkpt><trkpt lat="43.56818390507001" lon="10.474311098457758"><ele>20.0</ele><time>2026-04-06T09:34:50Z</time></trkpt><trkpt lat="43.56802088513804" lon="10.474480251069107"><ele>19.666666666666668</ele><time>2026-04-06T09:34:51Z</time></trkpt><trkpt lat="43.56786287881911" lon="10.474655018753051"><ele>19.333333333333332</ele><time>2026-04-06T09:34:52Z</time></trkpt><trkpt lat="43.56770187467128" lon="10.474823376424798"><ele>19.0</ele><time>2026-04-06T09:34:53Z</time></trkpt><trkpt lat="43.567543447374256" lon="10.474984896444594"><ele>19.0</ele><time>2026-04-06T09:34:54Z</time></trkpt><trkpt lat="43.567392617938985" lon="10.475141865735843"><ele>19.0</ele><time>2026-04-06T09:34:55Z</time></trkpt><trkpt lat="43.56724900092192" lon="10.47528705624194"><ele>19.0</ele><time>2026-04-06T09:34:56Z</time></trkpt><trkpt lat="43.56709970405644" lon="10.475425564968473"><ele>19.0</ele><time>2026-04-06T09:34:57Z</time></trkpt><trkpt lat="43.56694124862529" lon="10.475547313427981"><ele>19.0</ele><time>2026-04-06T09:34:58Z</time></trkpt><trkpt lat="43.5667758705206" lon="10.47564727468183"><ele>19.0</ele><time>2026-04-06T09:34:59Z</time></trkpt><trkpt lat="43.56660765012287" lon="10.475740251783478"><ele>19.0</ele><time>2026-04-06T09:35:00Z</time></trkpt><trkpt lat="43.566433840651435" lon="10.47580958429941"><ele>19.0</ele><time>2026-04-06T09:35:01Z</time></trkpt><trkpt lat="43.56625925897313" lon="10.475863708899096"><ele>19.0</ele><time>2026-04-06T09:35:02Z</time></trkpt><trkpt lat="43.566085992088375" lon="10.475908446683356"><ele>19.0</ele><time>2026-04-06T09:35:03Z</time></trkpt><trkpt lat="43.56591172676498" lon="10.475958342017273"><ele>19.0</ele><time>2026-04-06T09:35:04Z</time></trkpt><trkpt lat="43.56574059724273" lon="10.476006679091647"><ele>19.0</ele><time>2026-04-06T09:35:05Z</time></trkpt><trkpt lat="43.565566285143625" lon="10.47605956150868"><ele>19.0</ele><time>2026-04-06T09:35:06Z</time></trkpt><trkpt lat="43.56539318976815" lon="10.476109020717278"><ele>19.0</ele><time>2026-04-06T09:35:07Z</time></trkpt><trkpt lat="43.56522005412976" lon="10.476153167001122"><ele>19.0</ele><time>2026-04-06T09:35:08Z</time></trkpt><trkpt lat="43.56504268035823" lon="10.476203400455223"><ele>19.333333333333332</ele><time>2026-04-06T09:35:09Z</time></trkpt><trkpt lat="43.564864783878065" lon="10.476260032995828"><ele>19.666666666666668</ele><time>2026-04-06T09:35:10Z</time></trkpt><trkpt lat="43.56469994576586" lon="10.476306022697019"><ele>20.0</ele><time>2026-04-06T09:35:11Z</time></trkpt><trkpt lat="43.564540074115634" lon="10.476350709237133"><ele>19.666666666666668</ele><time>2026-04-06T09:35:12Z</time></trkpt><trkpt lat="43.5643790172768" lon="10.476396947639614"><ele>19.333333333333332</ele><time>2026-04-06T09:35:13Z</time></trkpt><trkpt lat="43.5642174324346" lon="10.476442186337149"><ele>19.0</ele><time>2026-04-06T09:35:14Z</time></trkpt><trkpt lat="43.564055415099986" lon="10.476487785805231"><ele>19.0</ele><time>2026-04-06T09:35:15Z</time></trkpt><trkpt lat="43.56389519817009" lon="10.476534479541765"><ele>19.0</ele><time>2026-04-06T09:35:16Z</time></trkpt><trkpt lat="43.56374500787104" lon="10.47658202645031"><ele>19.0</ele><time>2026-04-06T09:35:17Z</time></trkpt><trkpt lat="43.563593702837764" lon="10.476631254627073"><ele>19.333333333333332</ele><time>2026-04-06T09:35:18Z</time></trkpt><trkpt lat="43.563443687981284" lon="10.476681506479107"><ele>19.666666666666668</ele><time>2026-04-06T09:35:19Z</time></trkpt><trkpt lat="43.56329235813063" lon="10.476722150646538"><ele>20.0</ele><time>2026-04-06T09:35:20Z</time></trkpt><trkpt lat="43.5631378071172" lon="10.476764193655612"><ele>20.0</ele><time>2026-04-06T09:35:21Z</time></trkpt><trkpt lat="43.56298208257555" lon="10.476816260558856"><ele>20.0</ele><time>2026-04-06T09:35:22Z</time></trkpt><trkpt lat="43.56282676365086" lon="10.476861054760036"><ele>20.0</ele><time>2026-04-06T09:35:23Z</time></trkpt><trkpt lat="43.562672511737915" lon="10.476904576037672"><ele>20.0</ele><time>2026-04-06T09:35:24Z</time></trkpt><trkpt lat="43.56251751144502" lon="10.476948306830595"><ele>20.0</ele><time>2026-04-06T09:35:25Z</time></trkpt><trkpt lat="43.562362398959344" lon="10.47699359051819"><ele>20.0</ele><time>2026-04-06T09:35:26Z</time></trkpt><trkpt lat="43.56220746366661" lon="10.477040695574836"><ele>20.0</ele><time>2026-04-06T09:35:27Z</time></trkpt><trkpt lat="43.56205340708519" lon="10.477084210214729"><ele>20.0</ele><time>2026-04-06T09:35:28Z</time></trkpt><trkpt lat="43.56190560545867" lon="10.477128366639898"><ele>20.0</ele><time>2026-04-06T09:35:29Z</time></trkpt><trkpt lat="43.56176434056846" lon="10.477176071686008"><ele>20.0</ele><time>2026-04-06T09:35:30Z</time></trkpt><trkpt lat="43.561627236187896" lon="10.477213718015392"><ele>20.0</ele><time>2026-04-06T09:35:31Z</time></trkpt><trkpt lat="43.56149934713016" lon="10.477251296466848"><ele>20.0</ele><time>2026-04-06T09:35:32Z</time></trkpt><trkpt lat="43.5613818518604" lon="10.477283511083332"><ele>20.0</ele><time>2026-04-06T09:35:33Z</time></trkpt><trkpt lat="43.56126178927882" lon="10.477310067003637"><ele>20.5</ele><time>2026-04-06T09:35:34Z</time></trkpt><trkpt lat="43.56114040463998" lon="10.47734085951571"><ele>21.0</ele><time>2026-04-06T09:35:35Z</time></trkpt><trkpt lat="43.56101124930046" lon="10.477378232239229"><ele>21.5</ele><time>2026-04-06T09:35:36Z</time></trkpt><trkpt lat="43.560873374458076" lon="10.477425064550772"><ele>22.0</ele><time>2026-04-06T09:35:37Z</time></trkpt><trkpt lat="43.56074127677752" lon="10.477468096509783"><ele>22.0</ele><time>2026-04-06T09:35:38Z</time></trkpt><trkpt lat="43.56061246504969" lon="10.47750512345099"><ele>22.0</ele><time>2026-04-06T09:35:39Z</time></trkpt><trkpt lat="43.56048230151638" lon="10.47754123906015"><ele>22.0</ele><time>2026-04-06T09:35:40Z</time></trkpt><trkpt lat="43.56035558305696" lon="10.477574875502054"><ele>22.0</ele><time>2026-04-06T09:35:41Z</time></trkpt><trkpt lat="43.560225256607986" lon="10.477612064055489"><ele>22.0</ele><time>2026-04-06T09:35:42Z</time></trkpt><trkpt lat="43.56009649389624" lon="10.47765450561299"><ele>22.0</ele><time>2026-04-06T09:35:43Z</time></trkpt><trkpt lat="43.55996864269797" lon="10.477692723836864"><ele>22.0</ele><time>2026-04-06T09:35:44Z</time></trkpt><trkpt lat="43.5598356485486" lon="10.477731397143785"><ele>22.0</ele><time>2026-04-06T09:35:45Z</time></trkpt><trkpt lat="43.55970328223719" lon="10.47777202670817"><ele>22.0</ele><time>2026-04-06T09:35:46Z</time></trkpt><trkpt lat="43.559564153543434" lon="10.477813576139813"><ele>22.0</ele><time>2026-04-06T09:35:47Z</time></trkpt><trkpt lat="43.559420373969665" lon="10.477862115500155"><ele>22.0</ele><time>2026-04-06T09:35:48Z</time></trkpt><trkpt lat="43.55925982966592" lon="10.4779275262772"><ele>22.25</ele><time>2026-04-06T09:35:49Z</time></trkpt><trkpt lat="43.559090000158086" lon="10.47795468049931"><ele>22.5</ele><time>2026-04-06T09:35:50Z</time></trkpt><trkpt lat="43.558920851523915" lon="10.478004423868311"><ele>22.75</ele><time>2026-04-06T09:35:51Z</time></trkpt><trkpt lat="43.558839772731666" lon="10.478018863179374"><ele>23.0</ele><time>2026-04-06T09:35:53Z</time></trkpt><trkpt lat="43.55874827041446" lon="10.4780448985727"><ele>23.4</ele><time>2026-04-06T09:35:54Z</time></trkpt><trkpt lat="43.558659098794266" lon="10.478069688570246"><ele>23.799999999999997</ele><time>2026-04-06T09:35:55Z</time></trkpt><trkpt lat="43.5585751116757" lon="10.478092740638923"><ele>24.2</ele><time>2026-04-06T09:35:56Z</time></trkpt><trkpt lat="43.55848250316301" lon="10.478117956039648"><ele>24.6</ele><time>2026-04-06T09:35:57Z</time></trkpt><trkpt lat="43.558384392979086" lon="10.478146304019065"><ele>25.0</ele><time>2026-04-06T09:35:58Z</time></trkpt><trkpt lat="43.5582852148249" lon="10.478173510693033"><ele>25.0</ele><time>2026-04-06T09:35:59Z</time></trkpt><trkpt lat="43.55818519216923" lon="10.478200229060954"><ele>25.0</ele><time>2026-04-06T09:36:00Z</time></trkpt><trkpt lat="43.55808221418764" lon="10.478225502034428"><ele>25.0</ele><time>2026-04-06T09:36:01Z</time></trkpt><trkpt lat="43.55797836239562" lon="10.478248456750512"><ele>25.0</ele><time>2026-04-06T09:36:02Z</time></trkpt><trkpt lat="43.55787779839112" lon="10.478242167822318"><ele>25.0</ele><time>2026-04-06T09:36:03Z</time></trkpt><trkpt lat="43.55777788193059" lon="10.478239146699677"><ele>25.4</ele><time>2026-04-06T09:36:04Z</time></trkpt><trkpt lat="43.55767377489326" lon="10.47823870404661"><ele>25.8</ele><time>2026-04-06T09:36:05Z</time></trkpt><trkpt lat="43.5575636718422" lon="10.478234871334537"><ele>26.200000000000003</ele><time>2026-04-06T09:36:06Z</time></trkpt><trkpt lat="43.55745477959048" lon="10.478230345802933"><ele>26.6</ele><time>2026-04-06T09:36:07Z</time></trkpt><trkpt lat="43.55734458109096" lon="10.478227776285735"><ele>27.0</ele><time>2026-04-06T09:36:08Z</time></trkpt><trkpt lat="43.557228234281496" lon="10.478225112799587"><ele>27.0</ele><time>2026-04-06T09:36:09Z</time></trkpt><trkpt lat="43.55710967307949" lon="10.478217004698093"><ele>27.0</ele><time>2026-04-06T09:36:10Z</time></trkpt><trkpt lat="43.5569854900935" lon="10.478215777931862"><ele>27.0</ele><time>2026-04-06T09:36:11Z</time></trkpt><trkpt lat="43.556859093752664" lon="10.478211804544136"><ele>27.0</ele><time>2026-04-06T09:36:12Z</time></trkpt><trkpt lat="43.55672697971605" lon="10.478204231954175"><ele>26.5</ele><time>2026-04-06T09:36:13Z</time></trkpt><trkpt lat="43.55659771728266" lon="10.478198381124638"><ele>26.0</ele><time>2026-04-06T09:36:14Z</time></trkpt><trkpt lat="43.55646233028838" lon="10.478186693220806"><ele>25.5</ele><time>2026-04-06T09:36:15Z</time></trkpt><trkpt lat="43.55634352800612" lon="10.478190717183347"><ele>25.0</ele><time>2026-04-06T09:36:16Z</time></trkpt><trkpt lat="43.55622350545633" lon="10.478185715761686"><ele>25.25</ele><time>2026-04-06T09:36:17Z</time></trkpt><trkpt lat="43.556097235160344" lon="10.478181030528013"><ele>25.5</ele><time>2026-04-06T09:36:18Z</time></trkpt><trkpt lat="43.55597047071778" lon="10.47817200023362"><ele>25.75</ele><time>2026-04-06T09:36:19Z</time></trkpt><trkpt lat="43.55584446813062" lon="10.478165220505808"><ele>26.0</ele><time>2026-04-06T09:36:20Z</time></trkpt><trkpt lat="43.5557197175832" lon="10.47815614487484"><ele>26.0</ele><time>2026-04-06T09:36:21Z</time></trkpt><trkpt lat="43.5555963175657" lon="10.478140334249913"><ele>26.0</ele><time>2026-04-06T09:36:22Z</time></trkpt><trkpt lat="43.555471052931246" lon="10.478117564457156"><ele>26.0</ele><time>2026-04-06T09:36:23Z</time></trkpt><trkpt lat="43.55534048125052" lon="10.478096657339396"><ele>26.0</ele><time>2026-04-06T09:36:24Z</time></trkpt><trkpt lat="43.55519821973816" lon="10.478068598017515"><ele>25.75</ele><time>2026-04-06T09:36:25Z</time></trkpt><trkpt lat="43.55506171215944" lon="10.478025295727246"><ele>25.5</ele><time>2026-04-06T09:36:26Z</time></trkpt><trkpt lat="43.55493133254424" lon="10.477980821494395"><ele>25.25</ele><time>2026-04-06T09:36:27Z</time></trkpt><trkpt lat="43.55479629495642" lon="10.477927699188745"><ele>25.0</ele><time>2026-04-06T09:36:28Z</time></trkpt><trkpt lat="43.55466057778122" lon="10.477867753158074"><ele>25.0</ele><time>2026-04-06T09:36:29Z</time></trkpt><trkpt lat="43.55453556813173" lon="10.477801054070929"><ele>25.0</ele><time>2026-04-06T09:36:30Z</time></trkpt><trkpt lat="43.5544049746441" lon="10.477732720662333"><ele>25.0</ele><time>2026-04-06T09:36:31Z</time></trkpt><trkpt lat="43.55428010604117" lon="10.477664390027792"><ele>25.0</ele><time>2026-04-06T09:36:32Z</time></trkpt><trkpt lat="43.55416875136008" lon="10.47759896625046"><ele>25.0</ele><time>2026-04-06T09:36:33Z</time></trkpt><trkpt lat="43.554055847195144" lon="10.47752650571043"><ele>25.0</ele><time>2026-04-06T09:36:34Z</time></trkpt><trkpt lat="43.553949829147406" lon="10.477457336672838"><ele>25.0</ele><time>2026-04-06T09:36:35Z</time></trkpt><trkpt lat="43.55385458132379" lon="10.477388145373164"><ele>25.0</ele><time>2026-04-06T09:36:36Z</time></trkpt><trkpt lat="43.55376007719073" lon="10.477310450880765"><ele>25.2</ele><time>2026-04-06T09:36:37Z</time></trkpt><trkpt lat="43.55367266192507" lon="10.477218159060197"><ele>25.4</ele><time>2026-04-06T09:36:38Z</time></trkpt><trkpt lat="43.55359755710851" lon="10.477118021693991"><ele>25.6</ele><time>2026-04-06T09:36:39Z</time></trkpt><trkpt lat="43.55353098574582" lon="10.477027308254216"><ele>25.8</ele><time>2026-04-06T09:36:40Z</time></trkpt><trkpt lat="43.55344064476049" lon="10.476967132039789"><ele>26.0</ele><time>2026-04-06T09:36:41Z</time></trkpt><trkpt lat="43.553335587956376" lon="10.476932126051517"><ele>26.0</ele><time>2026-04-06T09:36:42Z</time></trkpt><trkpt lat="43.55321601770519" lon="10.476921406245763"><ele>26.0</ele><time>2026-04-06T09:36:43Z</time></trkpt><trkpt lat="43.553091871588826" lon="10.476879259338112"><ele>26.0</ele><time>2026-04-06T09:36:44Z</time></trkpt><trkpt lat="43.55296552327548" lon="10.476804008495208"><ele>26.0</ele><time>2026-04-06T09:36:45Z</time></trkpt><trkpt lat="43.55283563067911" lon="10.476701362320792"><ele>26.0</ele><time>2026-04-06T09:36:46Z</time></trkpt><trkpt lat="43.55270434008488" lon="10.476576641045112"><ele>26.0</ele><time>2026-04-06T09:36:47Z</time></trkpt><trkpt lat="43.55256448012419" lon="10.476434806855805"><ele>26.0</ele><time>2026-04-06T09:36:48Z</time></trkpt><trkpt lat="43.55241807994775" lon="10.476290302009813"><ele>25.666666666666664</ele><time>2026-04-06T09:36:49Z</time></trkpt><trkpt lat="43.55226390016238" lon="10.476136407666825"><ele>25.333333333333336</ele><time>2026-04-06T09:36:50Z</time></trkpt><trkpt lat="43.55210666721216" lon="10.475982120678593"><ele>25.0</ele><time>2026-04-06T09:36:51Z</time></trkpt><trkpt lat="43.551949940270504" lon="10.475830848368302"><ele>24.666666666666668</ele><time>2026-04-06T09:36:52Z</time></trkpt><trkpt lat="43.551798574050395" lon="10.475678877274794"><ele>24.333333333333336</ele><time>2026-04-06T09:36:53Z</time></trkpt><trkpt lat="43.551649705206636" lon="10.475532822677831"><ele>24.0</ele><time>2026-04-06T09:36:54Z</time></trkpt><trkpt lat="43.55150939075896" lon="10.475393097660293"><ele>24.0</ele><time>2026-04-06T09:36:55Z</time></trkpt><trkpt lat="43.551369470659424" lon="10.475250959933174"><ele>24.0</ele><time>2026-04-06T09:36:56Z</time></trkpt><trkpt lat="43.55122828751368" lon="10.475109001192127"><ele>24.0</ele><time>2026-04-06T09:36:57Z</time></trkpt><trkpt lat="43.551089613916965" lon="10.474964196620563"><ele>24.333333333333336</ele><time>2026-04-06T09:36:58Z</time></trkpt><trkpt lat="43.55095222506734" lon="10.474824002819494"><ele>24.666666666666668</ele><time>2026-04-06T09:36:59Z</time></trkpt><trkpt lat="43.550813299515" lon="10.474685371934617"><ele>25.0</ele><time>2026-04-06T09:37:00Z</time></trkpt><trkpt lat="43.550677535707315" lon="10.474548201170174"><ele>25.0</ele><time>2026-04-06T09:37:01Z</time></trkpt><trkpt lat="43.55054118262989" lon="10.474416960565826"><ele>25.0</ele><time>2026-04-06T09:37:02Z</time></trkpt><trkpt lat="43.55040202653646" lon="10.47428811177109"><ele>25.0</ele><time>2026-04-06T09:37:03Z</time></trkpt><trkpt lat="43.550268580147765" lon="10.474156881741113"><ele>26.0</ele><time>2026-04-06T09:37:04Z</time></trkpt><trkpt lat="43.55013756033078" lon="10.474017793048118"><ele>27.0</ele><time>2026-04-06T09:37:05Z</time></trkpt><trkpt lat="43.55000491252365" lon="10.473878363680353"><ele>28.0</ele><time>2026-04-06T09:37:06Z</time></trkpt><trkpt lat="43.549870631342145" lon="10.473749292311844"><ele>28.0</ele><time>2026-04-06T09:37:07Z</time></trkpt><trkpt lat="43.549737877474854" lon="10.4736164051331"><ele>28.0</ele><time>2026-04-06T09:37:08Z</time></trkpt><trkpt lat="43.549606264881035" lon="10.473480082135259"><ele>28.0</ele><time>2026-04-06T09:37:09Z</time></trkpt><trkpt lat="43.54947350120715" lon="10.4733424997817"><ele>28.333333333333336</ele><time>2026-04-06T09:37:10Z</time></trkpt><trkpt lat="43.54935063122663" lon="10.473191967869376"><ele>28.666666666666664</ele><time>2026-04-06T09:37:11Z</time></trkpt><trkpt lat="43.54923588370092" lon="10.473012934495175"><ele>29.0</ele><time>2026-04-06T09:37:12Z</time></trkpt><trkpt lat="43.549126058281026" lon="10.472816060945423"><ele>29.333333333333332</ele><time>2026-04-06T09:37:13Z</time></trkpt><trkpt lat="43.549020955045876" lon="10.472609465719383"><ele>29.666666666666664</ele><time>2026-04-06T09:37:14Z</time></trkpt><trkpt lat="43.548915902719926" lon="10.47240780833525"><ele>30.0</ele><time>2026-04-06T09:37:15Z</time></trkpt><trkpt lat="43.548808605485256" lon="10.472204334743143"><ele>30.666666666666664</ele><time>2026-04-06T09:37:16Z</time></trkpt><trkpt lat="43.54869809284801" lon="10.471997761525444"><ele>31.333333333333332</ele><time>2026-04-06T09:37:17Z</time></trkpt><trkpt lat="43.54858209554312" lon="10.471811175961793"><ele>32.0</ele><time>2026-04-06T09:37:18Z</time></trkpt><trkpt lat="43.54846264206638" lon="10.47162506381186"><ele>32.0</ele><time>2026-04-06T09:37:19Z</time></trkpt><trkpt lat="43.54833846471346" lon="10.4714515986815"><ele>32.0</ele><time>2026-04-06T09:37:20Z</time></trkpt><trkpt lat="43.548208059728864" lon="10.471290125286272"><ele>32.0</ele><time>2026-04-06T09:37:21Z</time></trkpt><trkpt lat="43.54808323729329" lon="10.471136239767608"><ele>31.333333333333332</ele><time>2026-04-06T09:37:22Z</time></trkpt><trkpt lat="43.54796000233793" lon="10.47098771708161"><ele>30.666666666666664</ele><time>2026-04-06T09:37:23Z</time></trkpt><trkpt lat="43.54783355510006" lon="10.470839689019417"><ele>30.0</ele><time>2026-04-06T09:37:24Z</time></trkpt><trkpt lat="43.547708651922626" lon="10.470691678819643"><ele>30.0</ele><time>2026-04-06T09:37:25Z</time></trkpt><trkpt lat="43.54758161068934" lon="10.470541314278428"><ele>30.0</ele><time>2026-04-06T09:37:26Z</time></trkpt><trkpt lat="43.54745504596974" lon="10.470395133842395"><ele>30.0</ele><time>2026-04-06T09:37:27Z</time></trkpt><trkpt lat="43.54732834245196" lon="10.47025299929689"><ele>30.0</ele><time>2026-04-06T09:37:28Z</time></trkpt><trkpt lat="43.54720872237215" lon="10.470113712382403"><ele>30.0</ele><time>2026-04-06T09:37:29Z</time></trkpt><trkpt lat="43.54709761677533" lon="10.469980176085965"><ele>30.0</ele><time>2026-04-06T09:37:30Z</time></trkpt><trkpt lat="43.54698054967629" lon="10.46984354123702"><ele>30.0</ele><time>2026-04-06T09:37:31Z</time></trkpt><trkpt lat="43.54686433476499" lon="10.469707400850085"><ele>30.0</ele><time>2026-04-06T09:37:32Z</time></trkpt><trkpt lat="43.5467464480871" lon="10.46957058634263"><ele>30.0</ele><time>2026-04-06T09:37:33Z</time></trkpt><trkpt lat="43.54662971316882" lon="10.4694346315448"><ele>30.0</ele><time>2026-04-06T09:37:34Z</time></trkpt><trkpt lat="43.54651436822844" lon="10.469296996902763"><ele>30.0</ele><time>2026-04-06T09:37:35Z</time></trkpt><trkpt lat="43.54640297172915" lon="10.469158639225558"><ele>30.0</ele><time>2026-04-06T09:37:36Z</time></trkpt><trkpt lat="43.54629139403783" lon="10.46902036531816"><ele>30.0</ele><time>2026-04-06T09:37:37Z</time></trkpt><trkpt lat="43.546177823756" lon="10.468882230418462"><ele>30.0</ele><time>2026-04-06T09:37:38Z</time></trkpt><trkpt lat="43.54606353863696" lon="10.46874340631874"><ele>30.0</ele><time>2026-04-06T09:37:39Z</time></trkpt><trkpt lat="43.545950323581195" lon="10.468600592280525"><ele>30.666666666666664</ele><time>2026-04-06T09:37:40Z</time></trkpt><trkpt lat="43.54583386078058" lon="10.468461508333084"><ele>31.333333333333332</ele><time>2026-04-06T09:37:41Z</time></trkpt><trkpt lat="43.54571534369895" lon="10.468315901816005"><ele>32.0</ele><time>2026-04-06T09:37:42Z</time></trkpt><trkpt lat="43.545597742787685" lon="10.468163592565837"><ele>32.0</ele><time>2026-04-06T09:37:43Z</time></trkpt><trkpt lat="43.545474500100624" lon="10.468014817816307"><ele>32.0</ele><time>2026-04-06T09:37:44Z</time></trkpt><trkpt lat="43.54535184278104" lon="10.467866719701908"><ele>32.0</ele><time>2026-04-06T09:37:45Z</time></trkpt><trkpt lat="43.54522972444897" lon="10.467704566976463"><ele>32.33333333333333</ele><time>2026-04-06T09:37:46Z</time></trkpt><trkpt lat="43.545107069215234" lon="10.46755421713585"><ele>32.666666666666664</ele><time>2026-04-06T09:37:47Z</time></trkpt><trkpt lat="43.54498137423231" lon="10.467392288623122"><ele>33.0</ele><time>2026-04-06T09:37:48Z</time></trkpt><trkpt lat="43.54485625168391" lon="10.46724004630089"><ele>33.0</ele><time>2026-04-06T09:37:49Z</time></trkpt><trkpt lat="43.54472535349222" lon="10.467087132155294"><ele>33.0</ele><time>2026-04-06T09:37:50Z</time></trkpt><trkpt lat="43.54459723413453" lon="10.466937342650587"><ele>33.0</ele><time>2026-04-06T09:37:51Z</time></trkpt><trkpt lat="43.54446654665593" lon="10.466790549361514"><ele>34.333333333333336</ele><time>2026-04-06T09:37:52Z</time></trkpt><trkpt lat="43.54433199957051" lon="10.466645873473155"><ele>35.66666666666667</ele><time>2026-04-06T09:37:53Z</time></trkpt><trkpt lat="43.54419132557631" lon="10.466505331503962"><ele>37.0</ele><time>2026-04-06T09:37:54Z</time></trkpt><trkpt lat="43.54405128077242" lon="10.466362243488529"><ele>36.333333333333336</ele><time>2026-04-06T09:37:55Z</time></trkpt><trkpt lat="43.543911579007045" lon="10.4662192022648"><ele>35.666666666666664</ele><time>2026-04-06T09:37:56Z</time></trkpt><trkpt lat="43.54377117732865" lon="10.466080108767875"><ele>35.0</ele><time>2026-04-06T09:37:57Z</time></trkpt><trkpt lat="43.54362844820782" lon="10.465934264855708"><ele>35.0</ele><time>2026-04-06T09:37:58Z</time></trkpt><trkpt lat="43.54349055706849" lon="10.46579289473435"><ele>35.0</ele><time>2026-04-06T09:37:59Z</time></trkpt><trkpt lat="43.543353078782445" lon="10.46564978091766"><ele>35.0</ele><time>2026-04-06T09:38:00Z</time></trkpt><trkpt lat="43.543214706414176" lon="10.46551504999667"><ele>35.0</ele><time>2026-04-06T09:38:01Z</time></trkpt><trkpt lat="43.5430768541411" lon="10.465390475389505"><ele>35.0</ele><time>2026-04-06T09:38:02Z</time></trkpt><trkpt lat="43.54293131414535" lon="10.465285177679583"><ele>35.0</ele><time>2026-04-06T09:38:03Z</time></trkpt><trkpt lat="43.54278260811443" lon="10.465192815012063"><ele>34.666666666666664</ele><time>2026-04-06T09:38:04Z</time></trkpt><trkpt lat="43.542621432963266" lon="10.465122195820685"><ele>34.333333333333336</ele><time>2026-04-06T09:38:05Z</time></trkpt><trkpt lat="43.542453303081224" lon="10.465053788081013"><ele>34.0</ele><time>2026-04-06T09:38:06Z</time></trkpt><trkpt lat="43.542284067749634" lon="10.464987711874077"><ele>34.0</ele><time>2026-04-06T09:38:07Z</time></trkpt><trkpt lat="43.54211778007524" lon="10.464922216206654"><ele>34.0</ele><time>2026-04-06T09:38:08Z</time></trkpt><trkpt lat="43.54195004189523" lon="10.464859890382822"><ele>34.0</ele><time>2026-04-06T09:38:09Z</time></trkpt><trkpt lat="43.54178197508415" lon="10.46479960448987"><ele>34.0</ele><time>2026-04-06T09:38:10Z</time></trkpt><trkpt lat="43.54161511955197" lon="10.464738330183662"><ele>34.0</ele><time>2026-04-06T09:38:11Z</time></trkpt><trkpt lat="43.54145067877633" lon="10.464675209118164"><ele>34.0</ele><time>2026-04-06T09:38:12Z</time></trkpt><trkpt lat="43.5412868262386" lon="10.464610267066076"><ele>34.66666666666667</ele><time>2026-04-06T09:38:13Z</time></trkpt><trkpt lat="43.541122986792764" lon="10.464548226198819"><ele>35.333333333333336</ele><time>2026-04-06T09:38:14Z</time></trkpt><trkpt lat="43.54095995916026" lon="10.464484512249522"><ele>36.0</ele><time>2026-04-06T09:38:15Z</time></trkpt><trkpt lat="43.54079843254995" lon="10.464423130439396"><ele>36.0</ele><time>2026-04-06T09:38:16Z</time></trkpt><trkpt lat="43.54063457088484" lon="10.464362690241524"><ele>36.0</ele><time>2026-04-06T09:38:17Z</time></trkpt><trkpt lat="43.54047069264444" lon="10.464302104764997"><ele>36.0</ele><time>2026-04-06T09:38:18Z</time></trkpt><trkpt lat="43.5403030889016" lon="10.464245853500678"><ele>36.0</ele><time>2026-04-06T09:38:19Z</time></trkpt><trkpt lat="43.540141284973465" lon="10.464183859325532"><ele>36.0</ele><time>2026-04-06T09:38:20Z</time></trkpt><trkpt lat="43.53997866767716" lon="10.46411996584415"><ele>36.0</ele><time>2026-04-06T09:38:21Z</time></trkpt><trkpt lat="43.5398162742011" lon="10.464060256204672"><ele>36.0</ele><time>2026-04-06T09:38:22Z</time></trkpt><trkpt lat="43.53965219947756" lon="10.46400165326018"><ele>36.0</ele><time>2026-04-06T09:38:23Z</time></trkpt><trkpt lat="43.53948272991938" lon="10.463938558085154"><ele>36.0</ele><time>2026-04-06T09:38:24Z</time></trkpt><trkpt lat="43.53930866424008" lon="10.463872329820065"><ele>36.333333333333336</ele><time>2026-04-06T09:38:25Z</time></trkpt><trkpt lat="43.53913371532745" lon="10.463805562316784"><ele>36.66666666666667</ele><time>2026-04-06T09:38:26Z</time></trkpt><trkpt lat="43.53895327323937" lon="10.463737181401772"><ele>37.0</ele><time>2026-04-06T09:38:27Z</time></trkpt><trkpt lat="43.538767779009255" lon="10.463668708733847"><ele>37.333333333333336</ele><time>2026-04-06T09:38:28Z</time></trkpt><trkpt lat="43.53857777352752" lon="10.463599298766338"><ele>37.666666666666664</ele><time>2026-04-06T09:38:29Z</time></trkpt><trkpt lat="43.53838569511225" lon="10.463528274682146"><ele>38.0</ele><time>2026-04-06T09:38:30Z</time></trkpt><trkpt lat="43.53819121856722" lon="10.46345391397186"><ele>38.0</ele><time>2026-04-06T09:38:31Z</time></trkpt><trkpt lat="43.53799501060422" lon="10.463379824130296"><ele>38.0</ele><time>2026-04-06T09:38:32Z</time></trkpt><trkpt lat="43.53779723905122" lon="10.463305445912743"><ele>38.0</ele><time>2026-04-06T09:38:33Z</time></trkpt><trkpt lat="43.5376007791539" lon="10.463233822080138"><ele>37.666666666666664</ele><time>2026-04-06T09:38:34Z</time></trkpt><trkpt lat="43.53740165949775" lon="10.463164073317262"><ele>37.333333333333336</ele><time>2026-04-06T09:38:35Z</time></trkpt><trkpt lat="43.53720848982629" lon="10.463095895324589"><ele>37.0</ele><time>2026-04-06T09:38:36Z</time></trkpt><trkpt lat="43.53702671286257" lon="10.463032282954241"><ele>37.333333333333336</ele><time>2026-04-06T09:38:37Z</time></trkpt><trkpt lat="43.5368531416469" lon="10.462975768636225"><ele>37.666666666666664</ele><time>2026-04-06T09:38:38Z</time></trkpt><trkpt lat="43.53668319262906" lon="10.462923735974657"><ele>38.0</ele><time>2026-04-06T09:38:39Z</time></trkpt><trkpt lat="43.53652402198251" lon="10.462874901052027"><ele>38.0</ele><time>2026-04-06T09:38:40Z</time></trkpt><trkpt lat="43.536373067867075" lon="10.462826590961928"><ele>38.0</ele><time>2026-04-06T09:38:41Z</time></trkpt><trkpt lat="43.53622834390365" lon="10.462784643575187"><ele>38.0</ele><time>2026-04-06T09:38:42Z</time></trkpt><trkpt lat="43.536088485722914" lon="10.462740988981524"><ele>38.0</ele><time>2026-04-06T09:38:43Z</time></trkpt><trkpt lat="43.535941327610416" lon="10.46270021887913"><ele>39.0</ele><time>2026-04-06T09:38:44Z</time></trkpt><trkpt lat="43.53578348691834" lon="10.462653241136579"><ele>40.0</ele><time>2026-04-06T09:38:45Z</time></trkpt><trkpt lat="43.53561628844154" lon="10.46260202586884"><ele>41.0</ele><time>2026-04-06T09:38:46Z</time></trkpt><trkpt lat="43.535441278806275" lon="10.462545397050594"><ele>41.666666666666664</ele><time>2026-04-06T09:38:47Z</time></trkpt><trkpt lat="43.53526461693937" lon="10.462479688182343"><ele>42.333333333333336</ele><time>2026-04-06T09:38:48Z</time></trkpt><trkpt lat="43.53508645079905" lon="10.462411075605706"><ele>43.0</ele><time>2026-04-06T09:38:49Z</time></trkpt><trkpt lat="43.53490651581441" lon="10.462327542763207"><ele>43.0</ele><time>2026-04-06T09:38:50Z</time></trkpt><trkpt lat="43.53472841634571" lon="10.462224373185991"><ele>43.0</ele><time>2026-04-06T09:38:51Z</time></trkpt><trkpt lat="43.53455799708314" lon="10.462098547398273"><ele>43.0</ele><time>2026-04-06T09:38:52Z</time></trkpt><trkpt lat="43.534387369759514" lon="10.461964895376823"><ele>43.333333333333336</ele><time>2026-04-06T09:38:53Z</time></trkpt><trkpt lat="43.5342140208159" lon="10.461805389422699"><ele>43.666666666666664</ele><time>2026-04-06T09:38:54Z</time></trkpt><trkpt lat="43.53404854370325" lon="10.461628615680752"><ele>44.0</ele><time>2026-04-06T09:38:55Z</time></trkpt><trkpt lat="43.533884271825656" lon="10.461442766000294"><ele>44.0</ele><time>2026-04-06T09:38:56Z</time></trkpt><trkpt lat="43.53372616977715" lon="10.4612651972431"><ele>44.0</ele><time>2026-04-06T09:38:57Z</time></trkpt><trkpt lat="43.533583791986636" lon="10.461098103914303"><ele>44.0</ele><time>2026-04-06T09:38:58Z</time></trkpt><trkpt lat="43.533432633975366" lon="10.460955207038973"><ele>44.0</ele><time>2026-04-06T09:38:59Z</time></trkpt><trkpt lat="43.53327644684278" lon="10.46081138361502"><ele>44.0</ele><time>2026-04-06T09:39:00Z</time></trkpt><trkpt lat="43.53311418706834" lon="10.460682078222568"><ele>44.0</ele><time>2026-04-06T09:39:01Z</time></trkpt><trkpt lat="43.532942877728786" lon="10.460563426866381"><ele>44.33333333333333</ele><time>2026-04-06T09:39:02Z</time></trkpt><trkpt lat="43.53276822816858" lon="10.460460505414845"><ele>44.666666666666664</ele><time>2026-04-06T09:39:03Z</time></trkpt><trkpt lat="43.53258773881295" lon="10.460359501170895"><ele>45.0</ele><time>2026-04-06T09:39:04Z</time></trkpt><trkpt lat="43.53240765508113" lon="10.460260380833482"><ele>45.0</ele><time>2026-04-06T09:39:05Z</time></trkpt><trkpt lat="43.53222832570184" lon="10.46015646389376"><ele>45.0</ele><time>2026-04-06T09:39:06Z</time></trkpt><trkpt lat="43.53204736227391" lon="10.460051573646519"><ele>45.0</ele><time>2026-04-06T09:39:07Z</time></trkpt><trkpt lat="43.53186652342344" lon="10.459948727745003"><ele>45.666666666666664</ele><time>2026-04-06T09:39:08Z</time></trkpt><trkpt lat="43.5316852934266" lon="10.459851069424834"><ele>46.33333333333333</ele><time>2026-04-06T09:39:09Z</time></trkpt><trkpt lat="43.531506124142915" lon="10.45975551362848"><ele>47.0</ele><time>2026-04-06T09:39:10Z</time></trkpt><trkpt lat="43.531328345079174" lon="10.459658421069042"><ele>47.0</ele><time>2026-04-06T09:39:11Z</time></trkpt><trkpt lat="43.53115204957967" lon="10.459561728648813"><ele>47.0</ele><time>2026-04-06T09:39:12Z</time></trkpt><trkpt lat="43.53097812509381" lon="10.459466027062343"><ele>47.0</ele><time>2026-04-06T09:39:13Z</time></trkpt><trkpt lat="43.53080695185945" lon="10.459370882028747"><ele>47.0</ele><time>2026-04-06T09:39:14Z</time></trkpt><trkpt lat="43.530644377454195" lon="10.459281439933624"><ele>47.0</ele><time>2026-04-06T09:39:15Z</time></trkpt><trkpt lat="43.530478542142994" lon="10.459189122773823"><ele>47.0</ele><time>2026-04-06T09:39:16Z</time></trkpt><trkpt lat="43.53031320498273" lon="10.45909886748112"><ele>48.0</ele><time>2026-04-06T09:39:17Z</time></trkpt><trkpt lat="43.530147312144905" lon="10.45901427225242"><ele>49.0</ele><time>2026-04-06T09:39:18Z</time></trkpt><trkpt lat="43.52998332254076" lon="10.458927022011043"><ele>50.0</ele><time>2026-04-06T09:39:19Z</time></trkpt><trkpt lat="43.529808528416225" lon="10.458840760442918"><ele>50.333333333333336</ele><time>2026-04-06T09:39:20Z</time></trkpt><trkpt lat="43.52962862200331" lon="10.458767438769515"><ele>50.66666666666667</ele><time>2026-04-06T09:39:21Z</time></trkpt><trkpt lat="43.52945778437439" lon="10.458706787837082"><ele>51.0</ele><time>2026-04-06T09:39:22Z</time></trkpt><trkpt lat="43.52930183431837" lon="10.458658795799911"><ele>51.0</ele><time>2026-04-06T09:39:23Z</time></trkpt><trkpt lat="43.52916655776823" lon="10.458610826085103"><ele>51.0</ele><time>2026-04-06T09:39:24Z</time></trkpt><trkpt lat="43.52904132187213" lon="10.458569766447273"><ele>51.0</ele><time>2026-04-06T09:39:25Z</time></trkpt><trkpt lat="43.52892726253522" lon="10.458521994232667"><ele>51.0</ele><time>2026-04-06T09:39:26Z</time></trkpt><trkpt lat="43.52882403657992" lon="10.458463513009919"><ele>51.4</ele><time>2026-04-06T09:39:27Z</time></trkpt><trkpt lat="43.52872155450406" lon="10.45838755042485"><ele>51.8</ele><time>2026-04-06T09:39:28Z</time></trkpt><trkpt lat="43.528637151161384" lon="10.458297213788235"><ele>52.199999999999996</ele><time>2026-04-06T09:39:29Z</time></trkpt><trkpt lat="43.52856225902717" lon="10.458189745793964"><ele>52.599999999999994</ele><time>2026-04-06T09:39:30Z</time></trkpt><trkpt lat="43.52848926032961" lon="10.458083403138987"><ele>53.0</ele><time>2026-04-06T09:39:31Z</time></trkpt><trkpt lat="43.52839626420188" lon="10.458020991613383"><ele>53.0</ele><time>2026-04-06T09:39:32Z</time></trkpt><trkpt lat="43.52828278295383" lon="10.457968206557199"><ele>53.0</ele><time>2026-04-06T09:39:33Z</time></trkpt><trkpt lat="43.52815979399363" lon="10.457906729779237"><ele>53.0</ele><time>2026-04-06T09:39:34Z</time></trkpt><trkpt lat="43.5280330295488" lon="10.45781528565898"><ele>53.0</ele><time>2026-04-06T09:39:35Z</time></trkpt><trkpt lat="43.52789839906976" lon="10.457701708427184"><ele>53.0</ele><time>2026-04-06T09:39:36Z</time></trkpt><trkpt lat="43.52775645785301" lon="10.457588424431908"><ele>53.0</ele><time>2026-04-06T09:39:37Z</time></trkpt><trkpt lat="43.527609110673446" lon="10.457473992094249"><ele>53.0</ele><time>2026-04-06T09:39:38Z</time></trkpt><trkpt lat="43.52745435793767" lon="10.457364304117238"><ele>53.0</ele><time>2026-04-06T09:39:39Z</time></trkpt><trkpt lat="43.52729087202318" lon="10.45726821492995"><ele>53.0</ele><time>2026-04-06T09:39:40Z</time></trkpt><trkpt lat="43.52712092654883" lon="10.457187944510922"><ele>53.0</ele><time>2026-04-06T09:39:41Z</time></trkpt><trkpt lat="43.52694356559249" lon="10.457131297888642"><ele>53.333333333333336</ele><time>2026-04-06T09:39:42Z</time></trkpt><trkpt lat="43.526759873299675" lon="10.45710833027601"><ele>53.66666666666667</ele><time>2026-04-06T09:39:43Z</time></trkpt><trkpt lat="43.52658419089902" lon="10.457107733304953"><ele>54.0</ele><time>2026-04-06T09:39:44Z</time></trkpt><trkpt lat="43.526415246121914" lon="10.45714032212337"><ele>54.0</ele><time>2026-04-06T09:39:45Z</time></trkpt><trkpt lat="43.526249307003354" lon="10.457192361463829"><ele>54.0</ele><time>2026-04-06T09:39:46Z</time></trkpt><trkpt lat="43.52608928023157" lon="10.45725124942728"><ele>54.0</ele><time>2026-04-06T09:39:47Z</time></trkpt><trkpt lat="43.52593127728084" lon="10.457312478483077"><ele>55.33333333333333</ele><time>2026-04-06T09:39:48Z</time></trkpt><trkpt lat="43.5257704442652" lon="10.457361584186572"><ele>56.666666666666664</ele><time>2026-04-06T09:39:49Z</time></trkpt><trkpt lat="43.525608700045346" lon="10.457399039249426"><ele>58.0</ele><time>2026-04-06T09:39:50Z</time></trkpt><trkpt lat="43.52545127720017" lon="10.45742428019219"><ele>60.666666666666664</ele><time>2026-04-06T09:39:51Z</time></trkpt><trkpt lat="43.52529508860322" lon="10.457436375794662"><ele>63.33333333333333</ele><time>2026-04-06T09:39:52Z</time></trkpt><trkpt lat="43.52513762090958" lon="10.457426969462848"><ele>66.0</ele><time>2026-04-06T09:39:53Z</time></trkpt><trkpt lat="43.52497644944753" lon="10.457416748893218"><ele>66.0</ele><time>2026-04-06T09:39:54Z</time></trkpt><trkpt lat="43.524813417525905" lon="10.457414360780236"><ele>66.0</ele><time>2026-04-06T09:39:55Z</time></trkpt><trkpt lat="43.52464749907228" lon="10.457413000188648"><ele>66.0</ele><time>2026-04-06T09:39:56Z</time></trkpt><trkpt lat="43.52448069372114" lon="10.457423579267228"><ele>67.0</ele><time>2026-04-06T09:39:57Z</time></trkpt><trkpt lat="43.52431196429695" lon="10.45745017600322"><ele>68.0</ele><time>2026-04-06T09:39:58Z</time></trkpt><trkpt lat="43.52414040992061" lon="10.457489403925534"><ele>69.0</ele><time>2026-04-06T09:39:59Z</time></trkpt><trkpt lat="43.52395089772693" lon="10.457533630006996"><ele>69.0</ele><time>2026-04-06T09:40:00Z</time></trkpt><trkpt lat="43.523787739767435" lon="10.457593648805538"><ele>69.0</ele><time>2026-04-06T09:40:01Z</time></trkpt><trkpt lat="43.52363415866591" lon="10.457680007901345"><ele>69.0</ele><time>2026-04-06T09:40:02Z</time></trkpt><trkpt lat="43.523477532082566" lon="10.45777907209964"><ele>68.33333333333333</ele><time>2026-04-06T09:40:03Z</time></trkpt><trkpt lat="43.52331965069241" lon="10.457888288161161"><ele>67.66666666666666</ele><time>2026-04-06T09:40:04Z</time></trkpt><trkpt lat="43.52316479614231" lon="10.458000104155934"><ele>67.0</ele><time>2026-04-06T09:40:05Z</time></trkpt><trkpt lat="43.523011186793624" lon="10.458117427463936"><ele>67.0</ele><time>2026-04-06T09:40:06Z</time></trkpt><trkpt lat="43.52285724759109" lon="10.458234428603687"><ele>67.0</ele><time>2026-04-06T09:40:07Z</time></trkpt><trkpt lat="43.52270367853942" lon="10.458347053391805"><ele>67.0</ele><time>2026-04-06T09:40:08Z</time></trkpt><trkpt lat="43.52254829394171" lon="10.458459232636864"><ele>67.0</ele><time>2026-04-06T09:40:09Z</time></trkpt><trkpt lat="43.522389293862524" lon="10.458565416478795"><ele>67.0</ele><time>2026-04-06T09:40:10Z</time></trkpt><trkpt lat="43.52222361831583" lon="10.458664911982032"><ele>67.0</ele><time>2026-04-06T09:40:11Z</time></trkpt><trkpt lat="43.52205144746226" lon="10.458759862859038"><ele>67.66666666666666</ele><time>2026-04-06T09:40:12Z</time></trkpt><trkpt lat="43.52187728882146" lon="10.458842161053989"><ele>68.33333333333333</ele><time>2026-04-06T09:40:13Z</time></trkpt><trkpt lat="43.52169793702061" lon="10.458911507237707"><ele>69.0</ele><time>2026-04-06T09:40:14Z</time></trkpt><trkpt lat="43.521516084701325" lon="10.45896469911167"><ele>69.0</ele><time>2026-04-06T09:40:15Z</time></trkpt><trkpt lat="43.52133414389898" lon="10.45900397126715"><ele>69.0</ele><time>2026-04-06T09:40:16Z</time></trkpt><trkpt lat="43.52114921874429" lon="10.459025923611202"><ele>69.0</ele><time>2026-04-06T09:40:17Z</time></trkpt><trkpt lat="43.52096381949456" lon="10.459037645844205"><ele>70.66666666666667</ele><time>2026-04-06T09:40:18Z</time></trkpt><trkpt lat="43.52077675991573" lon="10.459045929429166"><ele>72.33333333333334</ele><time>2026-04-06T09:40:19Z</time></trkpt><trkpt lat="43.52058696549485" lon="10.459048308888837"><ele>74.0</ele><time>2026-04-06T09:40:20Z</time></trkpt><trkpt lat="43.520399943306124" lon="10.459044440688858"><ele>74.33333333333334</ele><time>2026-04-06T09:40:21Z</time></trkpt><trkpt lat="43.5202226739207" lon="10.45903999841441"><ele>74.66666666666667</ele><time>2026-04-06T09:40:22Z</time></trkpt><trkpt lat="43.520051066613675" lon="10.459037331250048"><ele>75.0</ele><time>2026-04-06T09:40:23Z</time></trkpt><trkpt lat="43.51987930762803" lon="10.459045671040073"><ele>75.0</ele><time>2026-04-06T09:40:24Z</time></trkpt><trkpt lat="43.51970666119214" lon="10.45905743305113"><ele>75.0</ele><time>2026-04-06T09:40:25Z</time></trkpt><trkpt lat="43.51953396784757" lon="10.459069400591812"><ele>75.0</ele><time>2026-04-06T09:40:26Z</time></trkpt><trkpt lat="43.51936171472504" lon="10.459091789810406"><ele>77.0</ele><time>2026-04-06T09:40:27Z</time></trkpt><trkpt lat="43.51918944846017" lon="10.45912821125563"><ele>79.0</ele><time>2026-04-06T09:40:28Z</time></trkpt><trkpt lat="43.51901788061835" lon="10.459181887302417"><ele>81.0</ele><time>2026-04-06T09:40:29Z</time></trkpt><trkpt lat="43.51884549098302" lon="10.459244718662617"><ele>79.66666666666667</ele><time>2026-04-06T09:40:30Z</time></trkpt><trkpt lat="43.518679715031794" lon="10.459318096335926"><ele>78.33333333333334</ele><time>2026-04-06T09:40:31Z</time></trkpt><trkpt lat="43.518518608256045" lon="10.459403805663731"><ele>77.0</ele><time>2026-04-06T09:40:32Z</time></trkpt><trkpt lat="43.51836886407137" lon="10.45949051065583"><ele>77.0</ele><time>2026-04-06T09:40:33Z</time></trkpt><trkpt lat="43.51822553801539" lon="10.459583332212068"><ele>77.0</ele><time>2026-04-06T09:40:34Z</time></trkpt><trkpt lat="43.51808586285387" lon="10.45968228736571"><ele>77.0</ele><time>2026-04-06T09:40:35Z</time></trkpt><trkpt lat="43.5179421404468" lon="10.459788039241028"><ele>78.33333333333334</ele><time>2026-04-06T09:40:36Z</time></trkpt><trkpt lat="43.517791931051136" lon="10.459889495386502"><ele>79.66666666666667</ele><time>2026-04-06T09:40:37Z</time></trkpt><trkpt lat="43.517639714980156" lon="10.459992291375457"><ele>81.0</ele><time>2026-04-06T09:40:38Z</time></trkpt><trkpt lat="43.51748011613067" lon="10.46010253266987"><ele>81.0</ele><time>2026-04-06T09:40:39Z</time></trkpt><trkpt lat="43.517316010064675" lon="10.460211538707712"><ele>81.0</ele><time>2026-04-06T09:40:40Z</time></trkpt><trkpt lat="43.51714606179336" lon="10.460319111025441"><ele>81.0</ele><time>2026-04-06T09:40:41Z</time></trkpt><trkpt lat="43.5169775750142" lon="10.460438750443396"><ele>81.66666666666667</ele><time>2026-04-06T09:40:42Z</time></trkpt><trkpt lat="43.5168045214265" lon="10.460530974554832"><ele>82.33333333333334</ele><time>2026-04-06T09:40:43Z</time></trkpt><trkpt lat="43.51662976723176" lon="10.460616145914983"><ele>83.0</ele><time>2026-04-06T09:40:44Z</time></trkpt><trkpt lat="43.51645060622065" lon="10.460692527917903"><ele>83.0</ele><time>2026-04-06T09:40:45Z</time></trkpt><trkpt lat="43.51626129145952" lon="10.460777228576132"><ele>83.0</ele><time>2026-04-06T09:40:46Z</time></trkpt><trkpt lat="43.5160658652459" lon="10.460868419146246"><ele>83.0</ele><time>2026-04-06T09:40:47Z</time></trkpt><trkpt lat="43.51586660338196" lon="10.460957393605774"><ele>81.66666666666667</ele><time>2026-04-06T09:40:48Z</time></trkpt><trkpt lat="43.51566067504981" lon="10.461040632640575"><ele>80.33333333333333</ele><time>2026-04-06T09:40:49Z</time></trkpt><trkpt lat="43.51544407371208" lon="10.461131697457633"><ele>79.0</ele><time>2026-04-06T09:40:50Z</time></trkpt><trkpt lat="43.515216578210804" lon="10.461230098375344"><ele>76.0</ele><time>2026-04-06T09:40:51Z</time></trkpt><trkpt lat="43.51497811825982" lon="10.461337986498387"><ele>73.0</ele><time>2026-04-06T09:40:52Z</time></trkpt><trkpt lat="43.514731521880776" lon="10.461453830241485"><ele>71.0</ele><time>2026-04-06T09:40:53Z</time></trkpt><trkpt lat="43.51447102066088" lon="10.46154399937387"><ele>69.0</ele><time>2026-04-06T09:40:54Z</time></trkpt><trkpt lat="43.51420873034275" lon="10.461655678418436"><ele>69.0</ele><time>2026-04-06T09:40:55Z</time></trkpt><trkpt lat="43.51393646132873" lon="10.461771606137605"><ele>69.0</ele><time>2026-04-06T09:40:56Z</time></trkpt><trkpt lat="43.51366463341313" lon="10.461907987967054"><ele>69.0</ele><time>2026-04-06T09:40:57Z</time></trkpt><trkpt lat="43.513382684108194" lon="10.462026487600205"><ele>69.0</ele><time>2026-04-06T09:40:58Z</time></trkpt><trkpt lat="43.51310086342893" lon="10.462138595733528"><ele>67.0</ele><time>2026-04-06T09:40:59Z</time></trkpt><trkpt lat="43.512821734685886" lon="10.462253504120904"><ele>65.0</ele><time>2026-04-06T09:41:00Z</time></trkpt><trkpt lat="43.51256202660978" lon="10.462360371513643"><ele>65.0</ele><time>2026-04-06T09:41:01Z</time></trkpt><trkpt lat="43.51231389150689" lon="10.46246647067077"><ele>65.0</ele><time>2026-04-06T09:41:02Z</time></trkpt><trkpt lat="43.51207878276228" lon="10.462564740885432"><ele>64.5</ele><time>2026-04-06T09:41:03Z</time></trkpt><trkpt lat="43.51184315529108" lon="10.462664217998775"><ele>64.0</ele><time>2026-04-06T09:41:04Z</time></trkpt><trkpt lat="43.511610521389066" lon="10.462766509529951"><ele>64.0</ele><time>2026-04-06T09:41:05Z</time></trkpt><trkpt lat="43.51137756358544" lon="10.462866703771285"><ele>64.0</ele><time>2026-04-06T09:41:06Z</time></trkpt><trkpt lat="43.5111412334596" lon="10.462967100597126"><ele>62.0</ele><time>2026-04-06T09:41:07Z</time></trkpt><trkpt lat="43.510906146401" lon="10.463068149612232"><ele>60.0</ele><time>2026-04-06T09:41:08Z</time></trkpt><trkpt lat="43.51067170698242" lon="10.463167811159394"><ele>60.0</ele><time>2026-04-06T09:41:09Z</time></trkpt><trkpt lat="43.510437848538906" lon="10.46326622200922"><ele>60.0</ele><time>2026-04-06T09:41:10Z</time></trkpt><trkpt lat="43.51020542095973" lon="10.463365539936557"><ele>61.0</ele><time>2026-04-06T09:41:11Z</time></trkpt><trkpt lat="43.509968951360115" lon="10.463464685451209"><ele>62.0</ele><time>2026-04-06T09:41:12Z</time></trkpt><trkpt lat="43.509735359423246" lon="10.463562981850547"><ele>61.0</ele><time>2026-04-06T09:41:13Z</time></trkpt><trkpt lat="43.50950489610532" lon="10.463661299672706"><ele>60.0</ele><time>2026-04-06T09:41:14Z</time></trkpt><trkpt lat="43.50927712096641" lon="10.463756315776969"><ele>61.0</ele><time>2026-04-06T09:41:15Z</time></trkpt><trkpt lat="43.50904683655239" lon="10.463848300510996"><ele>62.0</ele><time>2026-04-06T09:41:16Z</time></trkpt><trkpt lat="43.508816132041126" lon="10.463942625499289"><ele>63.0</ele><time>2026-04-06T09:41:17Z</time></trkpt><trkpt lat="43.50858798142739" lon="10.464037070024004"><ele>64.0</ele><time>2026-04-06T09:41:18Z</time></trkpt><trkpt lat="43.50836324098449" lon="10.464132444259224"><ele>64.0</ele><time>2026-04-06T09:41:19Z</time></trkpt><trkpt lat="43.5081412115213" lon="10.464228574433562"><ele>64.0</ele><time>2026-04-06T09:41:20Z</time></trkpt><trkpt lat="43.507921930395284" lon="10.464321265560889"><ele>64.66666666666666</ele><time>2026-04-06T09:41:21Z</time></trkpt><trkpt lat="43.507709919076525" lon="10.464407158611472"><ele>65.33333333333333</ele><time>2026-04-06T09:41:22Z</time></trkpt><trkpt lat="43.50750229948603" lon="10.464486643976237"><ele>66.0</ele><time>2026-04-06T09:41:23Z</time></trkpt><trkpt lat="43.50729509827856" lon="10.464552779580961"><ele>66.66666666666667</ele><time>2026-04-06T09:41:24Z</time></trkpt><trkpt lat="43.50708529353002" lon="10.464614586928505"><ele>67.33333333333334</ele><time>2026-04-06T09:41:25Z</time></trkpt><trkpt lat="43.50687511509894" lon="10.464677413058974"><ele>68.0</ele><time>2026-04-06T09:41:26Z</time></trkpt><trkpt lat="43.506662484000785" lon="10.464733861948828"><ele>70.33333333333334</ele><time>2026-04-06T09:41:27Z</time></trkpt><trkpt lat="43.50644698992061" lon="10.464784001902576"><ele>72.66666666666667</ele><time>2026-04-06T09:41:28Z</time></trkpt><trkpt lat="43.506229114844835" lon="10.46482868305234"><ele>75.0</ele><time>2026-04-06T09:41:29Z</time></trkpt><trkpt lat="43.50600955839492" lon="10.464868874598062"><ele>76.33333333333333</ele><time>2026-04-06T09:41:30Z</time></trkpt><trkpt lat="43.50578830036666" lon="10.464896752456887"><ele>77.66666666666666</ele><time>2026-04-06T09:41:31Z</time></trkpt><trkpt lat="43.50556941654951" lon="10.464914964601542"><ele>79.0</ele><time>2026-04-06T09:41:32Z</time></trkpt><trkpt lat="43.505350399142856" lon="10.464931452908285"><ele>80.33333333333333</ele><time>2026-04-06T09:41:33Z</time></trkpt><trkpt lat="43.505132444448925" lon="10.464939880499193"><ele>81.66666666666667</ele><time>2026-04-06T09:41:34Z</time></trkpt><trkpt lat="43.50491330963435" lon="10.464940554947749"><ele>83.0</ele><time>2026-04-06T09:41:35Z</time></trkpt><trkpt lat="43.504691920909366" lon="10.464934072191664"><ele>85.0</ele><time>2026-04-06T09:41:36Z</time></trkpt><trkpt lat="43.50446760542539" lon="10.46492059262848"><ele>87.0</ele><time>2026-04-06T09:41:37Z</time></trkpt><trkpt lat="43.50424776714909" lon="10.464904217706117"><ele>89.0</ele><time>2026-04-06T09:41:38Z</time></trkpt><trkpt lat="43.504029526663075" lon="10.464888176211659"><ele>89.0</ele><time>2026-04-06T09:41:39Z</time></trkpt><trkpt lat="43.503815945423824" lon="10.464865053082065"><ele>89.0</ele><time>2026-04-06T09:41:40Z</time></trkpt><trkpt lat="43.50360592230753" lon="10.464833722569448"><ele>89.0</ele><time>2026-04-06T09:41:41Z</time></trkpt><trkpt lat="43.503407634091175" lon="10.464797241494477"><ele>89.0</ele><time>2026-04-06T09:41:42Z</time></trkpt><trkpt lat="43.50320734696841" lon="10.464767858448544"><ele>89.0</ele><time>2026-04-06T09:41:43Z</time></trkpt><trkpt lat="43.50300367413844" lon="10.464742119526665"><ele>89.0</ele><time>2026-04-06T09:41:44Z</time></trkpt><trkpt lat="43.502803434200686" lon="10.464713934441109"><ele>88.66666666666667</ele><time>2026-04-06T09:41:45Z</time></trkpt><trkpt lat="43.50260836037089" lon="10.46467826188959"><ele>88.33333333333333</ele><time>2026-04-06T09:41:46Z</time></trkpt><trkpt lat="43.502415948639985" lon="10.464633560766577"><ele>88.0</ele><time>2026-04-06T09:41:47Z</time></trkpt><trkpt lat="43.50222889977655" lon="10.464577694589234"><ele>86.66666666666666</ele><time>2026-04-06T09:41:48Z</time></trkpt><trkpt lat="43.50205820775874" lon="10.464515472663757"><ele>85.33333333333333</ele><time>2026-04-06T09:41:49Z</time></trkpt><trkpt lat="43.50189809700126" lon="10.464458573067331"><ele>84.0</ele><time>2026-04-06T09:41:50Z</time></trkpt><trkpt lat="43.501736767058134" lon="10.464415695356534"><ele>84.0</ele><time>2026-04-06T09:41:51Z</time></trkpt><trkpt lat="43.50155990600382" lon="10.464397468501033"><ele>84.0</ele><time>2026-04-06T09:41:52Z</time></trkpt><trkpt lat="43.50137491334003" lon="10.464396006733022"><ele>84.0</ele><time>2026-04-06T09:41:53Z</time></trkpt><trkpt lat="43.50119142290893" lon="10.46441256587333"><ele>84.0</ele><time>2026-04-06T09:41:54Z</time></trkpt><trkpt lat="43.50101488202524" lon="10.46445168425768"><ele>84.0</ele><time>2026-04-06T09:41:55Z</time></trkpt><trkpt lat="43.50084427741232" lon="10.46451800935002"><ele>84.0</ele><time>2026-04-06T09:41:56Z</time></trkpt><trkpt lat="43.50066886493069" lon="10.464609120738405"><ele>83.0</ele><time>2026-04-06T09:41:57Z</time></trkpt><trkpt lat="43.5004901228166" lon="10.464722353369128"><ele>82.0</ele><time>2026-04-06T09:41:58Z</time></trkpt><trkpt lat="43.50031068924078" lon="10.464842500618904"><ele>81.0</ele><time>2026-04-06T09:41:59Z</time></trkpt><trkpt lat="43.500120881856446" lon="10.464965274750588"><ele>84.0</ele><time>2026-04-06T09:42:00Z</time></trkpt><trkpt lat="43.49992843870495" lon="10.465091244441078"><ele>87.0</ele><time>2026-04-06T09:42:01Z</time></trkpt><trkpt lat="43.49973093018788" lon="10.465221591612309"><ele>90.0</ele><time>2026-04-06T09:42:02Z</time></trkpt><trkpt lat="43.49953550416844" lon="10.465350710663309"><ele>89.0</ele><time>2026-04-06T09:42:03Z</time></trkpt><trkpt lat="43.49935302929684" lon="10.465470545918182"><ele>88.0</ele><time>2026-04-06T09:42:04Z</time></trkpt><trkpt lat="43.49917499907102" lon="10.465588006642072"><ele>87.0</ele><time>2026-04-06T09:42:05Z</time></trkpt><trkpt lat="43.49898950126709" lon="10.465707090084232"><ele>87.0</ele><time>2026-04-06T09:42:06Z</time></trkpt><trkpt lat="43.498803853972454" lon="10.465826801939315"><ele>87.0</ele><time>2026-04-06T09:42:07Z</time></trkpt><trkpt lat="43.49861501862832" lon="10.465945270066582"><ele>87.0</ele><time>2026-04-06T09:42:08Z</time></trkpt><trkpt lat="43.49842566954621" lon="10.466058809679689"><ele>87.66666666666667</ele><time>2026-04-06T09:42:09Z</time></trkpt><trkpt lat="43.49823173679078" lon="10.466185563279476"><ele>88.33333333333334</ele><time>2026-04-06T09:42:10Z</time></trkpt><trkpt lat="43.49804052118695" lon="10.46631422187481"><ele>89.0</ele><time>2026-04-06T09:42:11Z</time></trkpt><trkpt lat="43.4978497514752" lon="10.466440867178017"><ele>87.0</ele><time>2026-04-06T09:42:12Z</time></trkpt><trkpt lat="43.497659145339796" lon="10.466563684090314"><ele>85.0</ele><time>2026-04-06T09:42:13Z</time></trkpt><trkpt lat="43.49747170766962" lon="10.466687218531767"><ele>83.0</ele><time>2026-04-06T09:42:14Z</time></trkpt><trkpt lat="43.497288755219046" lon="10.466807472775088"><ele>83.0</ele><time>2026-04-06T09:42:15Z</time></trkpt><trkpt lat="43.49711231997256" lon="10.466920482857637"><ele>83.0</ele><time>2026-04-06T09:42:16Z</time></trkpt><trkpt lat="43.496932178355266" lon="10.467024081882974"><ele>83.0</ele><time>2026-04-06T09:42:17Z</time></trkpt><trkpt lat="43.496758662153724" lon="10.467119924682354"><ele>81.66666666666667</ele><time>2026-04-06T09:42:18Z</time></trkpt><trkpt lat="43.496583213628476" lon="10.467204554899071"><ele>80.33333333333333</ele><time>2026-04-06T09:42:19Z</time></trkpt><trkpt lat="43.496401145242835" lon="10.467272318724236"><ele>79.0</ele><time>2026-04-06T09:42:20Z</time></trkpt><trkpt lat="43.496211347756656" lon="10.467321105309729"><ele>78.0</ele><time>2026-04-06T09:42:21Z</time></trkpt><trkpt lat="43.496019789568614" lon="10.467351015215101"><ele>77.0</ele><time>2026-04-06T09:42:22Z</time></trkpt><trkpt lat="43.49582455895883" lon="10.46736911080529"><ele>76.0</ele><time>2026-04-06T09:42:23Z</time></trkpt><trkpt lat="43.49562496438955" lon="10.467371121794724"><ele>76.0</ele><time>2026-04-06T09:42:24Z</time></trkpt><trkpt lat="43.49542466041281" lon="10.467348074227276"><ele>76.0</ele><time>2026-04-06T09:42:25Z</time></trkpt><trkpt lat="43.49522823118195" lon="10.467304758936686"><ele>76.0</ele><time>2026-04-06T09:42:26Z</time></trkpt><trkpt lat="43.49503029067543" lon="10.467237684760931"><ele>74.33333333333333</ele><time>2026-04-06T09:42:27Z</time></trkpt><trkpt lat="43.49482971840567" lon="10.46714859606371"><ele>72.66666666666667</ele><time>2026-04-06T09:42:28Z</time></trkpt><trkpt lat="43.49462526045629" lon="10.46705427056547"><ele>71.0</ele><time>2026-04-06T09:42:29Z</time></trkpt><trkpt lat="43.4944162422241" lon="10.466949875290707"><ele>70.5</ele><time>2026-04-06T09:42:30Z</time></trkpt><trkpt lat="43.49420529312928" lon="10.466851885235585"><ele>70.0</ele><time>2026-04-06T09:42:31Z</time></trkpt><trkpt lat="43.49398892273104" lon="10.466750677018426"><ele>70.0</ele><time>2026-04-06T09:42:32Z</time></trkpt><trkpt lat="43.49377567441533" lon="10.466646037815769"><ele>70.0</ele><time>2026-04-06T09:42:33Z</time></trkpt><trkpt lat="43.49356470594519" lon="10.466545781934004"><ele>70.0</ele><time>2026-04-06T09:42:34Z</time></trkpt><trkpt lat="43.493358095376536" lon="10.46644603880015"><ele>70.0</ele><time>2026-04-06T09:42:35Z</time></trkpt><trkpt lat="43.49315013937583" lon="10.466345054247242"><ele>70.0</ele><time>2026-04-06T09:42:36Z</time></trkpt><trkpt lat="43.49294341551401" lon="10.466243518121589"><ele>70.0</ele><time>2026-04-06T09:42:37Z</time></trkpt><trkpt lat="43.492736859802605" lon="10.466143667947177"><ele>69.66666666666666</ele><time>2026-04-06T09:42:38Z</time></trkpt><trkpt lat="43.49253196437212" lon="10.466043493345563"><ele>69.33333333333333</ele><time>2026-04-06T09:42:39Z</time></trkpt><trkpt lat="43.49232527243474" lon="10.465943039504017"><ele>69.0</ele><time>2026-04-06T09:42:40Z</time></trkpt><trkpt lat="43.492121679549534" lon="10.465838563657526"><ele>70.33333333333333</ele><time>2026-04-06T09:42:41Z</time></trkpt><trkpt lat="43.4919134472258" lon="10.465737296291024"><ele>71.66666666666666</ele><time>2026-04-06T09:42:42Z</time></trkpt><trkpt lat="43.49170759949619" lon="10.465634988954413"><ele>73.0</ele><time>2026-04-06T09:42:43Z</time></trkpt><trkpt lat="43.49150108543373" lon="10.465524239209842"><ele>73.66666666666666</ele><time>2026-04-06T09:42:44Z</time></trkpt><trkpt lat="43.49129839595205" lon="10.465414202310836"><ele>74.33333333333333</ele><time>2026-04-06T09:42:45Z</time></trkpt><trkpt lat="43.49111404696283" lon="10.46530445380043"><ele>75.0</ele><time>2026-04-06T09:42:46Z</time></trkpt><trkpt lat="43.49094557289249" lon="10.465202346023814"><ele>75.66666666666667</ele><time>2026-04-06T09:42:47Z</time></trkpt><trkpt lat="43.490786877028114" lon="10.465110559486824"><ele>76.33333333333334</ele><time>2026-04-06T09:42:48Z</time></trkpt><trkpt lat="43.490636993615404" lon="10.465032644868105"><ele>77.0</ele><time>2026-04-06T09:42:49Z</time></trkpt><trkpt lat="43.49048099156497" lon="10.464973207023267"><ele>78.33333333333334</ele><time>2026-04-06T09:42:50Z</time></trkpt><trkpt lat="43.49030774095084" lon="10.464941182255432"><ele>79.66666666666667</ele><time>2026-04-06T09:42:51Z</time></trkpt><trkpt lat="43.490117278050576" lon="10.464945554013172"><ele>81.0</ele><time>2026-04-06T09:42:52Z</time></trkpt><trkpt lat="43.48992332518799" lon="10.464977143887063"><ele>81.0</ele><time>2026-04-06T09:42:53Z</time></trkpt><trkpt lat="43.48972566117826" lon="10.465027631613442"><ele>81.0</ele><time>2026-04-06T09:42:54Z</time></trkpt><trkpt lat="43.48952857311194" lon="10.465070486780826"><ele>81.0</ele><time>2026-04-06T09:42:55Z</time></trkpt><trkpt lat="43.489346668039374" lon="10.465096829158394"><ele>81.0</ele><time>2026-04-06T09:42:56Z</time></trkpt><trkpt lat="43.4891773615004" lon="10.465120469134714"><ele>81.0</ele><time>2026-04-06T09:42:57Z</time></trkpt><trkpt lat="43.48902136342954" lon="10.46515871405467"><ele>81.0</ele><time>2026-04-06T09:42:58Z</time></trkpt><trkpt lat="43.48887288132065" lon="10.465219644653704"><ele>81.66666666666667</ele><time>2026-04-06T09:42:59Z</time></trkpt><trkpt lat="43.48871998042987" lon="10.465321541182586"><ele>82.33333333333334</ele><time>2026-04-06T09:43:00Z</time></trkpt><trkpt lat="43.48856380991133" lon="10.46545630998833"><ele>83.0</ele><time>2026-04-06T09:43:01Z</time></trkpt><trkpt lat="43.488407573214864" lon="10.465609110255667"><ele>80.66666666666667</ele><time>2026-04-06T09:43:02Z</time></trkpt><trkpt lat="43.48826246739614" lon="10.465755778627257"><ele>78.33333333333333</ele><time>2026-04-06T09:43:03Z</time></trkpt><trkpt lat="43.488122962467145" lon="10.465885150992888"><ele>76.0</ele><time>2026-04-06T09:43:04Z</time></trkpt><trkpt lat="43.487985153141494" lon="10.4659975209539"><ele>74.66666666666666</ele><time>2026-04-06T09:43:05Z</time></trkpt><trkpt lat="43.48784677468595" lon="10.466092727865947"><ele>73.33333333333333</ele><time>2026-04-06T09:43:06Z</time></trkpt><trkpt lat="43.487704654736554" lon="10.466157429721877"><ele>72.0</ele><time>2026-04-06T09:43:07Z</time></trkpt><trkpt lat="43.487543836451486" lon="10.466195872867466"><ele>72.0</ele><time>2026-04-06T09:43:08Z</time></trkpt><trkpt lat="43.487359587681965" lon="10.466210174737368"><ele>72.0</ele><time>2026-04-06T09:43:09Z</time></trkpt><trkpt lat="43.48716502901723" lon="10.466212588348021"><ele>72.0</ele><time>2026-04-06T09:43:10Z</time></trkpt><trkpt lat="43.48695937242406" lon="10.466220768829169"><ele>71.66666666666667</ele><time>2026-04-06T09:43:11Z</time></trkpt><trkpt lat="43.48674740540245" lon="10.46623382687616"><ele>71.33333333333334</ele><time>2026-04-06T09:43:12Z</time></trkpt><trkpt lat="43.48652294475752" lon="10.466254962701763"><ele>71.0</ele><time>2026-04-06T09:43:13Z</time></trkpt><trkpt lat="43.48629254579073" lon="10.466274469838902"><ele>69.5</ele><time>2026-04-06T09:43:14Z</time></trkpt><trkpt lat="43.48606132075463" lon="10.466292526065807"><ele>68.0</ele><time>2026-04-06T09:43:15Z</time></trkpt><trkpt lat="43.4858247759297" lon="10.466308760779661"><ele>68.0</ele><time>2026-04-06T09:43:16Z</time></trkpt><trkpt lat="43.48559428461308" lon="10.46632891917409"><ele>68.0</ele><time>2026-04-06T09:43:17Z</time></trkpt><trkpt lat="43.485376783040856" lon="10.466348028273545"><ele>68.0</ele><time>2026-04-06T09:43:18Z</time></trkpt><trkpt lat="43.48517048479231" lon="10.466363238836314"><ele>68.33333333333334</ele><time>2026-04-06T09:43:19Z</time></trkpt><trkpt lat="43.484968232517325" lon="10.466380701913915"><ele>68.66666666666667</ele><time>2026-04-06T09:43:20Z</time></trkpt><trkpt lat="43.484776507305966" lon="10.466402506445496"><ele>69.0</ele><time>2026-04-06T09:43:21Z</time></trkpt><trkpt lat="43.48459724535132" lon="10.466412093903273"><ele>68.0</ele><time>2026-04-06T09:43:22Z</time></trkpt><trkpt lat="43.484423651973536" lon="10.466424315478797"><ele>67.0</ele><time>2026-04-06T09:43:23Z</time></trkpt><trkpt lat="43.48425489352478" lon="10.466434513539854"><ele>66.0</ele><time>2026-04-06T09:43:24Z</time></trkpt><trkpt lat="43.4840837247408" lon="10.466451391122376"><ele>66.0</ele><time>2026-04-06T09:43:25Z</time></trkpt><trkpt lat="43.48390515358622" lon="10.466460756178067"><ele>66.0</ele><time>2026-04-06T09:43:26Z</time></trkpt><trkpt lat="43.48372153708193" lon="10.466475140291726"><ele>66.0</ele><time>2026-04-06T09:43:27Z</time></trkpt><trkpt lat="43.48353055477426" lon="10.466484329575277"><ele>65.0</ele><time>2026-04-06T09:43:28Z</time></trkpt><trkpt lat="43.483338487349066" lon="10.4665045058378"><ele>64.0</ele><time>2026-04-06T09:43:29Z</time></trkpt><trkpt lat="43.48314372808158" lon="10.466537884673004"><ele>63.0</ele><time>2026-04-06T09:43:30Z</time></trkpt><trkpt lat="43.48294916880787" lon="10.46659092052702"><ele>63.0</ele><time>2026-04-06T09:43:31Z</time></trkpt><trkpt lat="43.48275863420105" lon="10.466678605245306"><ele>63.0</ele><time>2026-04-06T09:43:32Z</time></trkpt><trkpt lat="43.48257209477601" lon="10.46679080867932"><ele>63.0</ele><time>2026-04-06T09:43:33Z</time></trkpt><trkpt lat="43.48238792561957" lon="10.46691456171296"><ele>63.0</ele><time>2026-04-06T09:43:34Z</time></trkpt><trkpt lat="43.48220324689716" lon="10.467040213295272"><ele>63.0</ele><time>2026-04-06T09:43:35Z</time></trkpt><trkpt lat="43.482015312381186" lon="10.467159367159233"><ele>63.0</ele><time>2026-04-06T09:43:36Z</time></trkpt><trkpt lat="43.48183691800534" lon="10.467263554526413"><ele>63.33333333333333</ele><time>2026-04-06T09:43:37Z</time></trkpt><trkpt lat="43.48166705586738" lon="10.467364999833643"><ele>63.666666666666664</ele><time>2026-04-06T09:43:38Z</time></trkpt><trkpt lat="43.48150578384779" lon="10.467455833556366"><ele>64.0</ele><time>2026-04-06T09:43:39Z</time></trkpt><trkpt lat="43.48135622968706" lon="10.467516655554459"><ele>65.33333333333333</ele><time>2026-04-06T09:43:40Z</time></trkpt><trkpt lat="43.48120884439538" lon="10.467534429171295"><ele>66.66666666666667</ele><time>2026-04-06T09:43:41Z</time></trkpt><trkpt lat="43.48105257039242" lon="10.467523961817307"><ele>68.0</ele><time>2026-04-06T09:43:42Z</time></trkpt><trkpt lat="43.48090538043536" lon="10.4674818567094"><ele>68.0</ele><time>2026-04-06T09:43:43Z</time></trkpt><trkpt lat="43.48075694412808" lon="10.467398205594423"><ele>68.0</ele><time>2026-04-06T09:43:44Z</time></trkpt><trkpt lat="43.480609148875565" lon="10.467283931007627"><ele>68.0</ele><time>2026-04-06T09:43:45Z</time></trkpt><trkpt lat="43.480460165924676" lon="10.467161330092987"><ele>67.66666666666667</ele><time>2026-04-06T09:43:46Z</time></trkpt><trkpt lat="43.480305975343185" lon="10.46705210401118"><ele>67.33333333333333</ele><time>2026-04-06T09:43:47Z</time></trkpt><trkpt lat="43.48015043576579" lon="10.466959710490135"><ele>67.0</ele><time>2026-04-06T09:43:48Z</time></trkpt><trkpt lat="43.47998751927316" lon="10.466878610415817"><ele>67.0</ele><time>2026-04-06T09:43:49Z</time></trkpt><trkpt lat="43.47980712167348" lon="10.466816275475598"><ele>67.0</ele><time>2026-04-06T09:43:50Z</time></trkpt><trkpt lat="43.47962598825723" lon="10.466740977903635"><ele>67.0</ele><time>2026-04-06T09:43:51Z</time></trkpt><trkpt lat="43.47944038760339" lon="10.466725467558849"><ele>64.66666666666666</ele><time>2026-04-06T09:43:52Z</time></trkpt><trkpt lat="43.479257890423426" lon="10.466716107841576"><ele>62.33333333333333</ele><time>2026-04-06T09:43:53Z</time></trkpt><trkpt lat="43.47906323180173" lon="10.46673021145296"><ele>60.0</ele><time>2026-04-06T09:43:54Z</time></trkpt><trkpt lat="43.478854421574525" lon="10.466772699348237"><ele>59.66666666666667</ele><time>2026-04-06T09:43:55Z</time></trkpt><trkpt lat="43.47864152806807" lon="10.466839357240898"><ele>59.333333333333336</ele><time>2026-04-06T09:43:56Z</time></trkpt><trkpt lat="43.47842085677753" lon="10.466914719326706"><ele>59.0</ele><time>2026-04-06T09:43:57Z</time></trkpt><trkpt lat="43.47819261414007" lon="10.466992015232288"><ele>59.0</ele><time>2026-04-06T09:43:58Z</time></trkpt><trkpt lat="43.47796186487727" lon="10.467071903493713"><ele>59.0</ele><time>2026-04-06T09:43:59Z</time></trkpt><trkpt lat="43.477729783595976" lon="10.46715191005526"><ele>59.5</ele><time>2026-04-06T09:44:00Z</time></trkpt><trkpt lat="43.4774917443934" lon="10.467236381734748"><ele>60.0</ele><time>2026-04-06T09:44:01Z</time></trkpt><trkpt lat="43.47725143592779" lon="10.467319889479217"><ele>58.5</ele><time>2026-04-06T09:44:02Z</time></trkpt><trkpt lat="43.47701062417455" lon="10.467399368614707"><ele>57.0</ele><time>2026-04-06T09:44:03Z</time></trkpt><trkpt lat="43.47677074392427" lon="10.467485153255334"><ele>57.0</ele><time>2026-04-06T09:44:04Z</time></trkpt><trkpt lat="43.47653224758738" lon="10.467571975217353"><ele>57.0</ele><time>2026-04-06T09:44:05Z</time></trkpt><trkpt lat="43.47629474825174" lon="10.467654853622802"><ele>56.5</ele><time>2026-04-06T09:44:06Z</time></trkpt><trkpt lat="43.47605840702279" lon="10.467731748096655"><ele>56.0</ele><time>2026-04-06T09:44:07Z</time></trkpt><trkpt lat="43.475824543572095" lon="10.46780989953859"><ele>56.0</ele><time>2026-04-06T09:44:08Z</time></trkpt><trkpt lat="43.475592860495986" lon="10.467886401059102"><ele>56.0</ele><time>2026-04-06T09:44:09Z</time></trkpt><trkpt lat="43.47536421916902" lon="10.467961436242938"><ele>55.5</ele><time>2026-04-06T09:44:10Z</time></trkpt><trkpt lat="43.47513340771664" lon="10.468023454725975"><ele>55.0</ele><time>2026-04-06T09:44:11Z</time></trkpt><trkpt lat="43.47490236766267" lon="10.468075622914304"><ele>55.0</ele><time>2026-04-06T09:44:12Z</time></trkpt><trkpt lat="43.474672891014826" lon="10.468125965153435"><ele>55.0</ele><time>2026-04-06T09:44:13Z</time></trkpt><trkpt lat="43.47445076407417" lon="10.468169617048215"><ele>55.33333333333333</ele><time>2026-04-06T09:44:14Z</time></trkpt><trkpt lat="43.47424220286" lon="10.468208594926306"><ele>55.66666666666667</ele><time>2026-04-06T09:44:15Z</time></trkpt><trkpt lat="43.474043158336514" lon="10.468252316889723"><ele>56.0</ele><time>2026-04-06T09:44:16Z</time></trkpt><trkpt lat="43.47385342237897" lon="10.468294581175952"><ele>55.66666666666667</ele><time>2026-04-06T09:44:17Z</time></trkpt><trkpt lat="43.47366720501559" lon="10.468338858919907"><ele>55.33333333333333</ele><time>2026-04-06T09:44:18Z</time></trkpt><trkpt lat="43.47348286081215" lon="10.468376522968756"><ele>55.0</ele><time>2026-04-06T09:44:19Z</time></trkpt><trkpt lat="43.47329613992609" lon="10.468412527549123"><ele>55.0</ele><time>2026-04-06T09:44:20Z</time></trkpt><trkpt lat="43.473109209933796" lon="10.468446772946185"><ele>55.0</ele><time>2026-04-06T09:44:21Z</time></trkpt><trkpt lat="43.472921083606494" lon="10.468479062533211"><ele>55.0</ele><time>2026-04-06T09:44:22Z</time></trkpt><trkpt lat="43.4727305101787" lon="10.468507869377927"><ele>54.666666666666664</ele><time>2026-04-06T09:44:23Z</time></trkpt><trkpt lat="43.47254020834832" lon="10.468528234398597"><ele>54.33333333333333</ele><time>2026-04-06T09:44:24Z</time></trkpt><trkpt lat="43.472346623323865" lon="10.468535483828397"><ele>54.0</ele><time>2026-04-06T09:44:25Z</time></trkpt><trkpt lat="43.472148860915205" lon="10.468524870618618"><ele>53.33333333333333</ele><time>2026-04-06T09:44:26Z</time></trkpt><trkpt lat="43.47195031191553" lon="10.468505416816106"><ele>52.666666666666664</ele><time>2026-04-06T09:44:27Z</time></trkpt><trkpt lat="43.471751868543855" lon="10.468472602388788"><ele>52.0</ele><time>2026-04-06T09:44:28Z</time></trkpt><trkpt lat="43.471556140301395" lon="10.468430719845637"><ele>52.0</ele><time>2026-04-06T09:44:29Z</time></trkpt><trkpt lat="43.47136454505777" lon="10.468380117335323"><ele>52.0</ele><time>2026-04-06T09:44:30Z</time></trkpt><trkpt lat="43.47118011507259" lon="10.468332919483997"><ele>52.0</ele><time>2026-04-06T09:44:31Z</time></trkpt><trkpt lat="43.470999252952936" lon="10.468290537847105"><ele>52.666666666666664</ele><time>2026-04-06T09:44:32Z</time></trkpt><trkpt lat="43.47082219973869" lon="10.468245121090968"><ele>53.33333333333333</ele><time>2026-04-06T09:44:33Z</time></trkpt><trkpt lat="43.47064975641815" lon="10.46819618023778"><ele>54.0</ele><time>2026-04-06T09:44:34Z</time></trkpt><trkpt lat="43.47047977249398" lon="10.468151381218167"><ele>55.0</ele><time>2026-04-06T09:44:35Z</time></trkpt><trkpt lat="43.47031347968643" lon="10.46811440366058"><ele>56.0</ele><time>2026-04-06T09:44:36Z</time></trkpt><trkpt lat="43.4701439300442" lon="10.468087485619108"><ele>57.0</ele><time>2026-04-06T09:44:37Z</time></trkpt><trkpt lat="43.469969775117576" lon="10.468074863997417"><ele>57.0</ele><time>2026-04-06T09:44:38Z</time></trkpt><trkpt lat="43.46979753354252" lon="10.4680827186935"><ele>57.0</ele><time>2026-04-06T09:44:39Z</time></trkpt><trkpt lat="43.46962917854874" lon="10.468113814213341"><ele>57.0</ele><time>2026-04-06T09:44:40Z</time></trkpt><trkpt lat="43.469465385547664" lon="10.46817583669012"><ele>56.66666666666667</ele><time>2026-04-06T09:44:41Z</time></trkpt><trkpt lat="43.46931438699696" lon="10.468249274898488"><ele>56.333333333333336</ele><time>2026-04-06T09:44:42Z</time></trkpt><trkpt lat="43.4691765717361" lon="10.468332055285419"><ele>56.0</ele><time>2026-04-06T09:44:43Z</time></trkpt><trkpt lat="43.46904526980562" lon="10.46841619772574"><ele>56.0</ele><time>2026-04-06T09:44:44Z</time></trkpt><trkpt lat="43.468915646989906" lon="10.468497891454053"><ele>56.0</ele><time>2026-04-06T09:44:45Z</time></trkpt><trkpt lat="43.468783635176095" lon="10.46857594592223"><ele>56.0</ele><time>2026-04-06T09:44:46Z</time></trkpt><trkpt lat="43.4686524965378" lon="10.46865409753862"><ele>56.0</ele><time>2026-04-06T09:44:47Z</time></trkpt><trkpt lat="43.468518561709345" lon="10.468736583136293"><ele>57.25</ele><time>2026-04-06T09:44:48Z</time></trkpt><trkpt lat="43.46838343619093" lon="10.468814300727553"><ele>58.5</ele><time>2026-04-06T09:44:49Z</time></trkpt><trkpt lat="43.468249701996534" lon="10.468873023495526"><ele>59.75</ele><time>2026-04-06T09:44:50Z</time></trkpt><trkpt lat="43.46812077307483" lon="10.468907264024748"><ele>61.0</ele><time>2026-04-06T09:44:51Z</time></trkpt><trkpt lat="43.467989995858396" lon="10.468915161846112"><ele>62.4</ele><time>2026-04-06T09:44:52Z</time></trkpt><trkpt lat="43.46787260291501" lon="10.46889843268637"><ele>63.8</ele><time>2026-04-06T09:44:53Z</time></trkpt><trkpt lat="43.467778604097724" lon="10.468842810111372"><ele>65.19999999999999</ele><time>2026-04-06T09:44:54Z</time></trkpt><trkpt lat="43.46768298390013" lon="10.468758006521306"><ele>66.6</ele><time>2026-04-06T09:44:55Z</time></trkpt><trkpt lat="43.46759850195834" lon="10.468651597536608"><ele>68.0</ele><time>2026-04-06T09:44:56Z</time></trkpt><trkpt lat="43.46752986906955" lon="10.468545865747483"><ele>68.0</ele><time>2026-04-06T09:44:57Z</time></trkpt><trkpt lat="43.46744973152052" lon="10.468439468146874"><ele>68.0</ele><time>2026-04-06T09:44:58Z</time></trkpt><trkpt lat="43.467379197494985" lon="10.468342239456996"><ele>68.0</ele><time>2026-04-06T09:44:59Z</time></trkpt><trkpt lat="43.467282388125255" lon="10.468255230709296"><ele>68.0</ele><time>2026-04-06T09:45:00Z</time></trkpt><trkpt lat="43.46718208015442" lon="10.468133900148"><ele>68.25</ele><time>2026-04-06T09:45:01Z</time></trkpt><trkpt lat="43.46709594100278" lon="10.467987264278149"><ele>68.5</ele><time>2026-04-06T09:45:02Z</time></trkpt><trkpt lat="43.467021307555896" lon="10.46784858778048"><ele>68.75</ele><time>2026-04-06T09:45:03Z</time></trkpt><trkpt lat="43.46695014185267" lon="10.467715079408759"><ele>69.0</ele><time>2026-04-06T09:45:04Z</time></trkpt><trkpt lat="43.46687493941902" lon="10.467592203850932"><ele>69.0</ele><time>2026-04-06T09:45:05Z</time></trkpt><trkpt lat="43.46680566743931" lon="10.467490044944437"><ele>69.0</ele><time>2026-04-06T09:45:06Z</time></trkpt><trkpt lat="43.466748461034705" lon="10.467403479959078"><ele>69.0</ele><time>2026-04-06T09:45:07Z</time></trkpt><trkpt lat="43.466692871391025" lon="10.467294201567325"><ele>69.0</ele><time>2026-04-06T09:45:09Z</time></trkpt><trkpt lat="43.46668728561349" lon="10.467205580451674"><ele>69.0</ele><time>2026-04-06T09:45:11Z</time></trkpt><trkpt lat="43.46672855962968" lon="10.467136609802237"><ele>69.0</ele><time>2026-04-06T09:45:14Z</time></trkpt><trkpt lat="43.46677868494561" lon="10.467200953822294"><ele>69.0</ele><time>2026-04-06T09:47:34Z</time></trkpt><trkpt lat="43.466727271809106" lon="10.467141473384483"><ele>69.0</ele><time>2026-04-06T09:57:13Z</time></trkpt><trkpt lat="43.4666586438338" lon="10.46716265500952"><ele>69.0</ele><time>2026-04-06T09:57:21Z</time></trkpt><trkpt lat="43.46661420621707" lon="10.467232807962132"><ele>69.0</ele><time>2026-04-06T09:57:29Z</time></trkpt><trkpt lat="43.466523710714014" lon="10.46726481746195"><ele>69.0</ele><time>2026-04-06T09:57:32Z</time></trkpt><trkpt lat="43.466412956013286" lon="10.46719863421703"><ele>69.0</ele><time>2026-04-06T09:57:34Z</time></trkpt><trkpt lat="43.46634773132844" lon="10.467166613863952"><ele>68.4</ele><time>2026-04-06T09:57:35Z</time></trkpt><trkpt lat="43.46627546042154" lon="10.467135749249282"><ele>67.80000000000001</ele><time>2026-04-06T09:57:36Z</time></trkpt><trkpt lat="43.466185783240476" lon="10.467095547154194"><ele>67.19999999999999</ele><time>2026-04-06T09:57:37Z</time></trkpt><trkpt lat="43.46607847168508" lon="10.467048426544125"><ele>66.6</ele><time>2026-04-06T09:57:38Z</time></trkpt><trkpt lat="43.465959927880725" lon="10.466993001106653"><ele>66.0</ele><time>2026-04-06T09:57:39Z</time></trkpt><trkpt lat="43.46583715134022" lon="10.466932092136934"><ele>66.0</ele><time>2026-04-06T09:57:40Z</time></trkpt><trkpt lat="43.46570550613698" lon="10.466871668613278"><ele>66.0</ele><time>2026-04-06T09:57:41Z</time></trkpt><trkpt lat="43.46556343250618" lon="10.46681484009941"><ele>66.0</ele><time>2026-04-06T09:57:42Z</time></trkpt><trkpt lat="43.46541865443572" lon="10.466745961178507"><ele>66.0</ele><time>2026-04-06T09:57:43Z</time></trkpt><trkpt lat="43.46527210079984" lon="10.4666879450594"><ele>64.5</ele><time>2026-04-06T09:57:44Z</time></trkpt><trkpt lat="43.46512776137548" lon="10.466621872086616"><ele>63.0</ele><time>2026-04-06T09:57:45Z</time></trkpt><trkpt lat="43.4649871978595" lon="10.466560855846307"><ele>61.5</ele><time>2026-04-06T09:57:46Z</time></trkpt><trkpt lat="43.464843050384076" lon="10.466505824820434"><ele>60.0</ele><time>2026-04-06T09:57:47Z</time></trkpt><trkpt lat="43.46469631421638" lon="10.46646840108306"><ele>59.66666666666667</ele><time>2026-04-06T09:57:48Z</time></trkpt><trkpt lat="43.46455230427846" lon="10.46645487304132"><ele>59.333333333333336</ele><time>2026-04-06T09:57:49Z</time></trkpt><trkpt lat="43.46440186989607" lon="10.466467006649966"><ele>59.0</ele><time>2026-04-06T09:57:50Z</time></trkpt><trkpt lat="43.46424986233066" lon="10.46651585808403"><ele>59.0</ele><time>2026-04-06T09:57:51Z</time></trkpt><trkpt lat="43.46410079731608" lon="10.466594153799235"><ele>59.0</ele><time>2026-04-06T09:57:52Z</time></trkpt><trkpt lat="43.46395994767916" lon="10.466711138073181"><ele>59.0</ele><time>2026-04-06T09:57:53Z</time></trkpt><trkpt lat="43.463815978724305" lon="10.46686470995459"><ele>59.0</ele><time>2026-04-06T09:57:54Z</time></trkpt><trkpt lat="43.46366539920128" lon="10.467037932285777"><ele>59.0</ele><time>2026-04-06T09:57:55Z</time></trkpt><trkpt lat="43.463515786374934" lon="10.46720651223861"><ele>59.0</ele><time>2026-04-06T09:57:56Z</time></trkpt><trkpt lat="43.46336848568316" lon="10.467373195571602"><ele>58.333333333333336</ele><time>2026-04-06T09:57:57Z</time></trkpt><trkpt lat="43.46322425059432" lon="10.467535610144823"><ele>57.66666666666667</ele><time>2026-04-06T09:57:58Z</time></trkpt><trkpt lat="43.46308234638504" lon="10.467701475501181"><ele>57.0</ele><time>2026-04-06T09:57:59Z</time></trkpt><trkpt lat="43.46293850732898" lon="10.46786013945854"><ele>55.66666666666667</ele><time>2026-04-06T09:58:00Z</time></trkpt><trkpt lat="43.4627973747362" lon="10.46801198800282"><ele>54.333333333333336</ele><time>2026-04-06T09:58:01Z</time></trkpt><trkpt lat="43.4626612808022" lon="10.468161072048133"><ele>53.0</ele><time>2026-04-06T09:58:02Z</time></trkpt><trkpt lat="43.462522597087165" lon="10.468304109485464"><ele>53.0</ele><time>2026-04-06T09:58:03Z</time></trkpt><trkpt lat="43.46237651957658" lon="10.468440605699952"><ele>53.0</ele><time>2026-04-06T09:58:04Z</time></trkpt><trkpt lat="43.46222423790983" lon="10.46857008397656"><ele>53.0</ele><time>2026-04-06T09:58:05Z</time></trkpt><trkpt lat="43.46206147209187" lon="10.468679009641953"><ele>53.333333333333336</ele><time>2026-04-06T09:58:06Z</time></trkpt><trkpt lat="43.4618912327361" lon="10.468773649911629"><ele>53.66666666666667</ele><time>2026-04-06T09:58:07Z</time></trkpt><trkpt lat="43.46172387401336" lon="10.468866110971744"><ele>54.0</ele><time>2026-04-06T09:58:08Z</time></trkpt><trkpt lat="43.4615576443597" lon="10.468962277142147"><ele>53.0</ele><time>2026-04-06T09:58:09Z</time></trkpt><trkpt lat="43.461381290562976" lon="10.46906439558085"><ele>52.0</ele><time>2026-04-06T09:58:10Z</time></trkpt><trkpt lat="43.46119350615658" lon="10.46917703648137"><ele>51.0</ele><time>2026-04-06T09:58:11Z</time></trkpt><trkpt lat="43.46099166066887" lon="10.46929282758382"><ele>50.66666666666667</ele><time>2026-04-06T09:58:12Z</time></trkpt><trkpt lat="43.46078539490463" lon="10.469407365599329"><ele>50.333333333333336</ele><time>2026-04-06T09:58:13Z</time></trkpt><trkpt lat="43.46058460860515" lon="10.46952321231723"><ele>50.0</ele><time>2026-04-06T09:58:14Z</time></trkpt><trkpt lat="43.46038597949297" lon="10.46963911684823"><ele>50.0</ele><time>2026-04-06T09:58:15Z</time></trkpt><trkpt lat="43.46018808933761" lon="10.469752217548638"><ele>50.0</ele><time>2026-04-06T09:58:16Z</time></trkpt><trkpt lat="43.45999201927086" lon="10.469865472232538"><ele>50.0</ele><time>2026-04-06T09:58:17Z</time></trkpt><trkpt lat="43.459794570484156" lon="10.469979414968966"><ele>49.0</ele><time>2026-04-06T09:58:18Z</time></trkpt><trkpt lat="43.459598480333234" lon="10.470090771360345"><ele>48.0</ele><time>2026-04-06T09:58:19Z</time></trkpt><trkpt lat="43.459398223063104" lon="10.47019804936953"><ele>47.0</ele><time>2026-04-06T09:58:20Z</time></trkpt><trkpt lat="43.45919841105803" lon="10.470300956860212"><ele>47.0</ele><time>2026-04-06T09:58:21Z</time></trkpt><trkpt lat="43.458989742791495" lon="10.47039295256032"><ele>47.0</ele><time>2026-04-06T09:58:22Z</time></trkpt><trkpt lat="43.458764143863796" lon="10.470467379682173"><ele>48.5</ele><time>2026-04-06T09:58:23Z</time></trkpt><trkpt lat="43.45852611593374" lon="10.470527444653163"><ele>50.0</ele><time>2026-04-06T09:58:24Z</time></trkpt><trkpt lat="43.458290566351664" lon="10.470584413844003"><ele>50.0</ele><time>2026-04-06T09:58:25Z</time></trkpt><trkpt lat="43.45807513687585" lon="10.470646782683227"><ele>50.0</ele><time>2026-04-06T09:58:26Z</time></trkpt><trkpt lat="43.45787363677109" lon="10.470711151404261"><ele>50.0</ele><time>2026-04-06T09:58:27Z</time></trkpt><trkpt lat="43.45768163821237" lon="10.470773784001308"><ele>49.333333333333336</ele><time>2026-04-06T09:58:28Z</time></trkpt><trkpt lat="43.45750020054088" lon="10.47084731617101"><ele>48.66666666666667</ele><time>2026-04-06T09:58:29Z</time></trkpt><trkpt lat="43.45732382045764" lon="10.470941615487956"><ele>48.0</ele><time>2026-04-06T09:58:30Z</time></trkpt><trkpt lat="43.457157062595115" lon="10.47105999175682"><ele>47.666666666666664</ele><time>2026-04-06T09:58:31Z</time></trkpt><trkpt lat="43.45699192617467" lon="10.471202903310935"><ele>47.33333333333333</ele><time>2026-04-06T09:58:32Z</time></trkpt><trkpt lat="43.45683303747296" lon="10.47135246455903"><ele>47.0</ele><time>2026-04-06T09:58:33Z</time></trkpt><trkpt lat="43.456682918813904" lon="10.471500239269616"><ele>47.0</ele><time>2026-04-06T09:58:34Z</time></trkpt><trkpt lat="43.45653381039971" lon="10.47164414448182"><ele>47.0</ele><time>2026-04-06T09:58:35Z</time></trkpt><trkpt lat="43.45638176182237" lon="10.47178742030089"><ele>47.0</ele><time>2026-04-06T09:58:36Z</time></trkpt><trkpt lat="43.456234100767844" lon="10.471924421449732"><ele>46.666666666666664</ele><time>2026-04-06T09:58:37Z</time></trkpt><trkpt lat="43.45609076225445" lon="10.472056189512555"><ele>46.333333333333336</ele><time>2026-04-06T09:58:38Z</time></trkpt><trkpt lat="43.45594938985977" lon="10.472190027155166"><ele>46.0</ele><time>2026-04-06T09:58:39Z</time></trkpt><trkpt lat="43.45581161448407" lon="10.472322262747984"><ele>46.0</ele><time>2026-04-06T09:58:40Z</time></trkpt><trkpt lat="43.455680929990834" lon="10.472448494487809"><ele>46.0</ele><time>2026-04-06T09:58:41Z</time></trkpt><trkpt lat="43.455560296076946" lon="10.472563861888322"><ele>46.0</ele><time>2026-04-06T09:58:42Z</time></trkpt><trkpt lat="43.455443881879646" lon="10.472691563032589"><ele>46.0</ele><time>2026-04-06T09:58:43Z</time></trkpt><trkpt lat="43.45534239159966" lon="10.472841389613242"><ele>46.0</ele><time>2026-04-06T09:58:44Z</time></trkpt><trkpt lat="43.455263148681816" lon="10.47301790350935"><ele>46.0</ele><time>2026-04-06T09:58:45Z</time></trkpt><trkpt lat="43.455203231251105" lon="10.473215868940965"><ele>45.66666666666667</ele><time>2026-04-06T09:58:46Z</time></trkpt><trkpt lat="43.45516631806398" lon="10.47342708221462"><ele>45.333333333333336</ele><time>2026-04-06T09:58:47Z</time></trkpt><trkpt lat="43.45515214582605" lon="10.473631104225298"><ele>45.0</ele><time>2026-04-06T09:58:48Z</time></trkpt><trkpt lat="43.45516004071812" lon="10.473842446220315"><ele>44.666666666666664</ele><time>2026-04-06T09:58:49Z</time></trkpt><trkpt lat="43.45518735206531" lon="10.474065958840777"><ele>44.33333333333333</ele><time>2026-04-06T09:58:50Z</time></trkpt><trkpt lat="43.45520672712709" lon="10.474284362849822"><ele>44.0</ele><time>2026-04-06T09:58:51Z</time></trkpt><trkpt lat="43.45522158918575" lon="10.47449420882272"><ele>43.75</ele><time>2026-04-06T09:58:52Z</time></trkpt><trkpt lat="43.455231612289836" lon="10.474695476137919"><ele>43.5</ele><time>2026-04-06T09:58:53Z</time></trkpt><trkpt lat="43.455237663588306" lon="10.474883435704117"><ele>43.25</ele><time>2026-04-06T09:58:54Z</time></trkpt><trkpt lat="43.455226581560616" lon="10.475057743999418"><ele>43.0</ele><time>2026-04-06T09:58:55Z</time></trkpt><trkpt lat="43.455198383660765" lon="10.475220059242233"><ele>43.0</ele><time>2026-04-06T09:58:56Z</time></trkpt><trkpt lat="43.45515672224134" lon="10.475367113885394"><ele>43.0</ele><time>2026-04-06T09:58:57Z</time></trkpt><trkpt lat="43.45511422907649" lon="10.475493695188115"><ele>43.0</ele><time>2026-04-06T09:58:58Z</time></trkpt><trkpt lat="43.45500648781984" lon="10.4755951529556"><ele>43.0</ele><time>2026-04-06T09:58:59Z</time></trkpt><trkpt lat="43.45490408288938" lon="10.475693711732966"><ele>42.5</ele><time>2026-04-06T09:59:00Z</time></trkpt><trkpt lat="43.45478763845399" lon="10.475765975506729"><ele>42.0</ele><time>2026-04-06T09:59:01Z</time></trkpt><trkpt lat="43.45465780767497" lon="10.475805159289298"><ele>41.5</ele><time>2026-04-06T09:59:02Z</time></trkpt><trkpt lat="43.45451522093913" lon="10.475814829658708"><ele>41.0</ele><time>2026-04-06T09:59:03Z</time></trkpt><trkpt lat="43.45435988928657" lon="10.475805980776743"><ele>40.666666666666664</ele><time>2026-04-06T09:59:04Z</time></trkpt><trkpt lat="43.45418977605408" lon="10.475797318502096"><ele>40.333333333333336</ele><time>2026-04-06T09:59:05Z</time></trkpt><trkpt lat="43.45400927076218" lon="10.475796340018995"><ele>40.0</ele><time>2026-04-06T09:59:06Z</time></trkpt><trkpt lat="43.45381555823078" lon="10.475806923020496"><ele>40.66666666666667</ele><time>2026-04-06T09:59:07Z</time></trkpt><trkpt lat="43.453612357259786" lon="10.47581960939287"><ele>41.333333333333336</ele><time>2026-04-06T09:59:08Z</time></trkpt><trkpt lat="43.45340155472872" lon="10.475829994245894"><ele>42.0</ele><time>2026-04-06T09:59:09Z</time></trkpt><trkpt lat="43.45319205307124" lon="10.475839218387426"><ele>42.0</ele><time>2026-04-06T09:59:10Z</time></trkpt><trkpt lat="43.45298287348093" lon="10.47585157117767"><ele>42.0</ele><time>2026-04-06T09:59:11Z</time></trkpt><trkpt lat="43.4527713800116" lon="10.475879743066782"><ele>42.0</ele><time>2026-04-06T09:59:12Z</time></trkpt><trkpt lat="43.452562627085655" lon="10.475933596080978"><ele>42.666666666666664</ele><time>2026-04-06T09:59:13Z</time></trkpt><trkpt lat="43.452355546537795" lon="10.475998269673429"><ele>43.33333333333333</ele><time>2026-04-06T09:59:14Z</time></trkpt><trkpt lat="43.45214722898664" lon="10.476070468361511"><ele>44.0</ele><time>2026-04-06T09:59:15Z</time></trkpt><trkpt lat="43.45194073920173" lon="10.47614699739583"><ele>43.666666666666664</ele><time>2026-04-06T09:59:16Z</time></trkpt><trkpt lat="43.4517404041292" lon="10.476218617357567"><ele>43.333333333333336</ele><time>2026-04-06T09:59:17Z</time></trkpt><trkpt lat="43.45154733255632" lon="10.476288459549036"><ele>43.0</ele><time>2026-04-06T09:59:18Z</time></trkpt><trkpt lat="43.45136384905227" lon="10.476357423386752"><ele>43.333333333333336</ele><time>2026-04-06T09:59:19Z</time></trkpt><trkpt lat="43.451188295637934" lon="10.476421332815669"><ele>43.666666666666664</ele><time>2026-04-06T09:59:20Z</time></trkpt><trkpt lat="43.4510170666147" lon="10.476489294559736"><ele>44.0</ele><time>2026-04-06T09:59:21Z</time></trkpt><trkpt lat="43.4508417102064" lon="10.47656041048893"><ele>44.0</ele><time>2026-04-06T09:59:22Z</time></trkpt><trkpt lat="43.45066557562228" lon="10.476637396876825"><ele>44.0</ele><time>2026-04-06T09:59:23Z</time></trkpt><trkpt lat="43.45048615952295" lon="10.47672732469854"><ele>44.0</ele><time>2026-04-06T09:59:24Z</time></trkpt><trkpt lat="43.45030900217624" lon="10.476821111639898"><ele>44.33333333333333</ele><time>2026-04-06T09:59:25Z</time></trkpt><trkpt lat="43.450130945799884" lon="10.476923710904773"><ele>44.666666666666664</ele><time>2026-04-06T09:59:26Z</time></trkpt><trkpt lat="43.44994899666548" lon="10.47703863337017"><ele>45.0</ele><time>2026-04-06T09:59:27Z</time></trkpt><trkpt lat="43.44975395658269" lon="10.477154517274965"><ele>43.5</ele><time>2026-04-06T09:59:28Z</time></trkpt><trkpt lat="43.449546178783265" lon="10.477277097779282"><ele>42.0</ele><time>2026-04-06T09:59:29Z</time></trkpt><trkpt lat="43.449339418318495" lon="10.477407458390129"><ele>42.0</ele><time>2026-04-06T09:59:30Z</time></trkpt><trkpt lat="43.449145724186934" lon="10.4775257133133"><ele>42.0</ele><time>2026-04-06T09:59:31Z</time></trkpt><trkpt lat="43.448966718269034" lon="10.477626816630128"><ele>42.0</ele><time>2026-04-06T09:59:32Z</time></trkpt><trkpt lat="43.44880751928413" lon="10.477707928003655"><ele>42.666666666666664</ele><time>2026-04-06T09:59:33Z</time></trkpt><trkpt lat="43.448663063730024" lon="10.477758110903478"><ele>43.33333333333333</ele><time>2026-04-06T09:59:34Z</time></trkpt><trkpt lat="43.44851621354814" lon="10.47778041259108"><ele>44.0</ele><time>2026-04-06T09:59:35Z</time></trkpt><trkpt lat="43.44835851758492" lon="10.477779429607958"><ele>44.0</ele><time>2026-04-06T09:59:36Z</time></trkpt><trkpt lat="43.44818823496462" lon="10.477757047253165"><ele>44.0</ele><time>2026-04-06T09:59:37Z</time></trkpt><trkpt lat="43.44801244276171" lon="10.477732973306303"><ele>44.0</ele><time>2026-04-06T09:59:38Z</time></trkpt><trkpt lat="43.4478371938186" lon="10.477719091087135"><ele>42.666666666666664</ele><time>2026-04-06T09:59:39Z</time></trkpt><trkpt lat="43.44765540150769" lon="10.477728409724525"><ele>41.333333333333336</ele><time>2026-04-06T09:59:40Z</time></trkpt><trkpt lat="43.44746677184415" lon="10.477777516106258"><ele>40.0</ele><time>2026-04-06T09:59:41Z</time></trkpt><trkpt lat="43.447271513739366" lon="10.477859100844817"><ele>39.333333333333336</ele><time>2026-04-06T09:59:42Z</time></trkpt><trkpt lat="43.44706420423173" lon="10.47794094341414"><ele>38.666666666666664</ele><time>2026-04-06T09:59:43Z</time></trkpt><trkpt lat="43.446856157687215" lon="10.478011437785801"><ele>38.0</ele><time>2026-04-06T09:59:44Z</time></trkpt><trkpt lat="43.4466560202142" lon="10.478081669843125"><ele>38.0</ele><time>2026-04-06T09:59:45Z</time></trkpt><trkpt lat="43.446459669552354" lon="10.478152301356225"><ele>38.0</ele><time>2026-04-06T09:59:46Z</time></trkpt><trkpt lat="43.44626825521805" lon="10.478219745062322"><ele>38.0</ele><time>2026-04-06T09:59:47Z</time></trkpt><trkpt lat="43.44607214405254" lon="10.478287844524887"><ele>38.33333333333333</ele><time>2026-04-06T09:59:48Z</time></trkpt><trkpt lat="43.44588211324426" lon="10.478353401619321"><ele>38.666666666666664</ele><time>2026-04-06T09:59:49Z</time></trkpt><trkpt lat="43.4456856101666" lon="10.478401468795312"><ele>39.0</ele><time>2026-04-06T09:59:50Z</time></trkpt><trkpt lat="43.44549712798938" lon="10.478476729439867"><ele>40.666666666666664</ele><time>2026-04-06T09:59:51Z</time></trkpt><trkpt lat="43.44531697691126" lon="10.478575491495596"><ele>42.33333333333333</ele><time>2026-04-06T09:59:52Z</time></trkpt><trkpt lat="43.4451352274969" lon="10.478658975363274"><ele>44.0</ele><time>2026-04-06T09:59:53Z</time></trkpt><trkpt lat="43.44495257968661" lon="10.47874157934964"><ele>42.666666666666664</ele><time>2026-04-06T09:59:54Z</time></trkpt><trkpt lat="43.44477251495937" lon="10.478818807181604"><ele>41.333333333333336</ele><time>2026-04-06T09:59:55Z</time></trkpt><trkpt lat="43.44459441608529" lon="10.478901851134493"><ele>40.0</ele><time>2026-04-06T09:59:56Z</time></trkpt><trkpt lat="43.444417871791664" lon="10.47898513036457"><ele>40.0</ele><time>2026-04-06T09:59:57Z</time></trkpt><trkpt lat="43.44424377713394" lon="10.479060921324544"><ele>40.0</ele><time>2026-04-06T09:59:58Z</time></trkpt><trkpt lat="43.44408438258731" lon="10.479127523885923"><ele>40.0</ele><time>2026-04-06T09:59:59Z</time></trkpt><trkpt lat="43.443934311066364" lon="10.479194933169438"><ele>39.66666666666667</ele><time>2026-04-06T10:00:00Z</time></trkpt><trkpt lat="43.4437884065841" lon="10.479275055048264"><ele>39.333333333333336</ele><time>2026-04-06T10:00:01Z</time></trkpt><trkpt lat="43.44364954571258" lon="10.4793724294982"><ele>39.0</ele><time>2026-04-06T10:00:02Z</time></trkpt><trkpt lat="43.44351928552246" lon="10.479484135251532"><ele>39.0</ele><time>2026-04-06T10:00:03Z</time></trkpt><trkpt lat="43.44339607077889" lon="10.479620178625058"><ele>39.0</ele><time>2026-04-06T10:00:04Z</time></trkpt><trkpt lat="43.44328657453219" lon="10.479779100743736"><ele>39.0</ele><time>2026-04-06T10:00:05Z</time></trkpt><trkpt lat="43.44319017184489" lon="10.47995514832278"><ele>39.0</ele><time>2026-04-06T10:00:06Z</time></trkpt><trkpt lat="43.443103111625" lon="10.480133718073082"><ele>39.0</ele><time>2026-04-06T10:00:07Z</time></trkpt><trkpt lat="43.44301525617439" lon="10.480309533666814"><ele>39.0</ele><time>2026-04-06T10:00:08Z</time></trkpt><trkpt lat="43.44292164004316" lon="10.48048086724528"><ele>40.0</ele><time>2026-04-06T10:00:09Z</time></trkpt><trkpt lat="43.44282277610661" lon="10.480650668227641"><ele>41.0</ele><time>2026-04-06T10:00:10Z</time></trkpt><trkpt lat="43.442720442537535" lon="10.480820812764097"><ele>42.0</ele><time>2026-04-06T10:00:11Z</time></trkpt><trkpt lat="43.44261286388742" lon="10.480988222016377"><ele>42.0</ele><time>2026-04-06T10:00:12Z</time></trkpt><trkpt lat="43.44249424377104" lon="10.481147426793248"><ele>42.0</ele><time>2026-04-06T10:00:13Z</time></trkpt><trkpt lat="43.44236655412306" lon="10.481296815452126"><ele>42.0</ele><time>2026-04-06T10:00:14Z</time></trkpt><trkpt lat="43.44223263297896" lon="10.481441320583002"><ele>41.333333333333336</ele><time>2026-04-06T10:00:15Z</time></trkpt><trkpt lat="43.44209103461889" lon="10.481580401728557"><ele>40.66666666666667</ele><time>2026-04-06T10:00:16Z</time></trkpt><trkpt lat="43.441945485556" lon="10.481708126714599"><ele>40.0</ele><time>2026-04-06T10:00:17Z</time></trkpt><trkpt lat="43.441801398898875" lon="10.481817503277567"><ele>40.0</ele><time>2026-04-06T10:00:18Z</time></trkpt><trkpt lat="43.4416508047164" lon="10.481916217064196"><ele>40.0</ele><time>2026-04-06T10:00:19Z</time></trkpt><trkpt lat="43.44149505715765" lon="10.482005734993933"><ele>40.0</ele><time>2026-04-06T10:00:20Z</time></trkpt><trkpt lat="43.44133684070206" lon="10.482080392244368"><ele>39.333333333333336</ele><time>2026-04-06T10:00:21Z</time></trkpt><trkpt lat="43.44117757172195" lon="10.482148476355066"><ele>38.666666666666664</ele><time>2026-04-06T10:00:22Z</time></trkpt><trkpt lat="43.44101551606888" lon="10.482210802941037"><ele>38.0</ele><time>2026-04-06T10:00:23Z</time></trkpt><trkpt lat="43.440851125179506" lon="10.482271978314877"><ele>38.0</ele><time>2026-04-06T10:00:24Z</time></trkpt><trkpt lat="43.44068867253095" lon="10.482332252206952"><ele>38.0</ele><time>2026-04-06T10:00:25Z</time></trkpt><trkpt lat="43.440535074178584" lon="10.482388836282981"><ele>38.0</ele><time>2026-04-06T10:00:26Z</time></trkpt><trkpt lat="43.44038720618364" lon="10.482440392470137"><ele>37.5</ele><time>2026-04-06T10:00:27Z</time></trkpt><trkpt lat="43.44024546067436" lon="10.482490379548027"><ele>37.0</ele><time>2026-04-06T10:00:28Z</time></trkpt><trkpt lat="43.44011452589243" lon="10.482537049006137"><ele>36.5</ele><time>2026-04-06T10:00:29Z</time></trkpt><trkpt lat="43.4400016349529" lon="10.482574770834054"><ele>36.0</ele><time>2026-04-06T10:00:30Z</time></trkpt><trkpt lat="43.43989845009321" lon="10.482609633458038"><ele>36.0</ele><time>2026-04-06T10:00:31Z</time></trkpt><trkpt lat="43.43979720874858" lon="10.48264508316568"><ele>36.0</ele><time>2026-04-06T10:00:32Z</time></trkpt><trkpt lat="43.43969914979972" lon="10.482678736981667"><ele>36.0</ele><time>2026-04-06T10:00:33Z</time></trkpt><trkpt lat="43.439621114000424" lon="10.482704307755622"><ele>36.0</ele><time>2026-04-06T10:00:34Z</time></trkpt><trkpt lat="43.43950894534826" lon="10.48274344092048"><ele>36.0</ele><time>2026-04-06T10:00:36Z</time></trkpt><trkpt lat="43.43940772316636" lon="10.482778991464501"><ele>36.0</ele><time>2026-04-06T10:00:38Z</time></trkpt><trkpt lat="43.43934178881775" lon="10.48280500042694"><ele>36.0</ele><time>2026-04-06T10:00:39Z</time></trkpt><trkpt lat="43.43926024004096" lon="10.482838455061973"><ele>36.0</ele><time>2026-04-06T10:00:40Z</time></trkpt><trkpt lat="43.43917043715553" lon="10.482878386077383"><ele>36.0</ele><time>2026-04-06T10:00:41Z</time></trkpt><trkpt lat="43.43906923134491" lon="10.482915145314788"><ele>36.0</ele><time>2026-04-06T10:00:42Z</time></trkpt><trkpt lat="43.43896051601856" lon="10.48295154349566"><ele>36.0</ele><time>2026-04-06T10:00:43Z</time></trkpt><trkpt lat="43.43885050919725" lon="10.482988879613997"><ele>36.0</ele><time>2026-04-06T10:00:44Z</time></trkpt><trkpt lat="43.4387404584858" lon="10.48302759586932"><ele>36.0</ele><time>2026-04-06T10:00:45Z</time></trkpt><trkpt lat="43.43863828469297" lon="10.483066772229844"><ele>36.0</ele><time>2026-04-06T10:00:46Z</time></trkpt><trkpt lat="43.4385414802351" lon="10.483113660229696"><ele>36.0</ele><time>2026-04-06T10:00:47Z</time></trkpt><trkpt lat="43.43843146692109" lon="10.483163136465398"><ele>36.333333333333336</ele><time>2026-04-06T10:00:48Z</time></trkpt><trkpt lat="43.43829371003563" lon="10.483210034249929"><ele>36.66666666666667</ele><time>2026-04-06T10:00:49Z</time></trkpt><trkpt lat="43.43813369080117" lon="10.483252665718734"><ele>37.0</ele><time>2026-04-06T10:00:50Z</time></trkpt><trkpt lat="43.43795869853822" lon="10.483313777802977"><ele>35.66666666666667</ele><time>2026-04-06T10:00:51Z</time></trkpt><trkpt lat="43.43776722974064" lon="10.48338443266577"><ele>34.333333333333336</ele><time>2026-04-06T10:00:52Z</time></trkpt><trkpt lat="43.43756122018022" lon="10.483458126303441"><ele>33.0</ele><time>2026-04-06T10:00:53Z</time></trkpt><trkpt lat="43.43734890875109" lon="10.483531168661562"><ele>31.0</ele><time>2026-04-06T10:00:54Z</time></trkpt><trkpt lat="43.43713237206152" lon="10.483612093510557"><ele>29.0</ele><time>2026-04-06T10:00:55Z</time></trkpt><trkpt lat="43.43691359394594" lon="10.483692500205743"><ele>29.0</ele><time>2026-04-06T10:00:56Z</time></trkpt><trkpt lat="43.43669812040923" lon="10.483766611768909"><ele>29.0</ele><time>2026-04-06T10:00:57Z</time></trkpt><trkpt lat="43.43648353561336" lon="10.48384296417892"><ele>29.0</ele><time>2026-04-06T10:00:58Z</time></trkpt><trkpt lat="43.43627445147818" lon="10.48391104835143"><ele>29.666666666666664</ele><time>2026-04-06T10:00:59Z</time></trkpt><trkpt lat="43.43606507067572" lon="10.48396835273655"><ele>30.333333333333336</ele><time>2026-04-06T10:01:00Z</time></trkpt><trkpt lat="43.435861451152384" lon="10.484007033251892"><ele>31.0</ele><time>2026-04-06T10:01:01Z</time></trkpt><trkpt lat="43.43566272559981" lon="10.484028407872774"><ele>31.0</ele><time>2026-04-06T10:01:02Z</time></trkpt><trkpt lat="43.43545574095574" lon="10.484030271696497"><ele>31.0</ele><time>2026-04-06T10:01:03Z</time></trkpt><trkpt lat="43.43524717340578" lon="10.484017819757375"><ele>31.0</ele><time>2026-04-06T10:01:04Z</time></trkpt><trkpt lat="43.43503606624905" lon="10.483983222474011"><ele>31.0</ele><time>2026-04-06T10:01:05Z</time></trkpt><trkpt lat="43.434829286258896" lon="10.483934165763701"><ele>31.0</ele><time>2026-04-06T10:01:06Z</time></trkpt><trkpt lat="43.43461954799025" lon="10.483870790228949"><ele>31.0</ele><time>2026-04-06T10:01:07Z</time></trkpt><trkpt lat="43.4344005191567" lon="10.483794750685055"><ele>30.5</ele><time>2026-04-06T10:01:08Z</time></trkpt><trkpt lat="43.4341760568103" lon="10.483718087507363"><ele>30.0</ele><time>2026-04-06T10:01:09Z</time></trkpt><trkpt lat="43.43395149499563" lon="10.483644600475259"><ele>29.5</ele><time>2026-04-06T10:01:10Z</time></trkpt><trkpt lat="43.433731342171484" lon="10.483566123622596"><ele>29.0</ele><time>2026-04-06T10:01:11Z</time></trkpt><trkpt lat="43.43351242652274" lon="10.483494099017905"><ele>29.0</ele><time>2026-04-06T10:01:12Z</time></trkpt><trkpt lat="43.43329601810912" lon="10.483422956176918"><ele>29.0</ele><time>2026-04-06T10:01:13Z</time></trkpt><trkpt lat="43.43308331033229" lon="10.483354566559449"><ele>29.0</ele><time>2026-04-06T10:01:14Z</time></trkpt><trkpt lat="43.43287366629531" lon="10.483282669270356"><ele>28.0</ele><time>2026-04-06T10:01:15Z</time></trkpt><trkpt lat="43.43266972719152" lon="10.483211258430595"><ele>27.0</ele><time>2026-04-06T10:01:16Z</time></trkpt><trkpt lat="43.43246892233563" lon="10.483141416659455"><ele>26.0</ele><time>2026-04-06T10:01:17Z</time></trkpt><trkpt lat="43.432271503177326" lon="10.483075489962951"><ele>26.333333333333332</ele><time>2026-04-06T10:01:18Z</time></trkpt><trkpt lat="43.43207446257431" lon="10.483017333509608"><ele>26.666666666666664</ele><time>2026-04-06T10:01:19Z</time></trkpt><trkpt lat="43.431877359651764" lon="10.48295608306948"><ele>27.0</ele><time>2026-04-06T10:01:20Z</time></trkpt><trkpt lat="43.431683757314204" lon="10.482882153046367"><ele>29.0</ele><time>2026-04-06T10:01:21Z</time></trkpt><trkpt lat="43.431487289219675" lon="10.482818175318243"><ele>31.0</ele><time>2026-04-06T10:01:22Z</time></trkpt><trkpt lat="43.431282038622825" lon="10.482751362250635"><ele>33.0</ele><time>2026-04-06T10:01:23Z</time></trkpt><trkpt lat="43.43107552347564" lon="10.48267939038744"><ele>32.666666666666664</ele><time>2026-04-06T10:01:24Z</time></trkpt><trkpt lat="43.43086834022228" lon="10.48260738126292"><ele>32.33333333333333</ele><time>2026-04-06T10:01:25Z</time></trkpt><trkpt lat="43.43066025180561" lon="10.482537331499628"><ele>32.0</ele><time>2026-04-06T10:01:26Z</time></trkpt><trkpt lat="43.43045112315559" lon="10.482463380441528"><ele>32.0</ele><time>2026-04-06T10:01:27Z</time></trkpt><trkpt lat="43.43024608661864" lon="10.482392958992683"><ele>32.0</ele><time>2026-04-06T10:01:28Z</time></trkpt><trkpt lat="43.4300526970788" lon="10.48233034742603"><ele>32.0</ele><time>2026-04-06T10:01:29Z</time></trkpt><trkpt lat="43.42986484410436" lon="10.482268815382879"><ele>32.0</ele><time>2026-04-06T10:01:30Z</time></trkpt><trkpt lat="43.42967979759919" lon="10.482203584241963"><ele>32.0</ele><time>2026-04-06T10:01:31Z</time></trkpt><trkpt lat="43.42949353452625" lon="10.482138323636972"><ele>32.0</ele><time>2026-04-06T10:01:32Z</time></trkpt><trkpt lat="43.429303620063834" lon="10.482080853751254"><ele>31.666666666666664</ele><time>2026-04-06T10:01:33Z</time></trkpt><trkpt lat="43.42911044901506" lon="10.4820175771109"><ele>31.333333333333336</ele><time>2026-04-06T10:01:34Z</time></trkpt><trkpt lat="43.428915521654474" lon="10.481952069358174"><ele>31.0</ele><time>2026-04-06T10:01:35Z</time></trkpt><trkpt lat="43.42872162878213" lon="10.48188417152765"><ele>31.0</ele><time>2026-04-06T10:01:36Z</time></trkpt><trkpt lat="43.42852373981339" lon="10.48182621615074"><ele>31.0</ele><time>2026-04-06T10:01:37Z</time></trkpt><trkpt lat="43.42832355422099" lon="10.481777577736747"><ele>31.0</ele><time>2026-04-06T10:01:38Z</time></trkpt><trkpt lat="43.42812005066788" lon="10.481742284552128"><ele>31.0</ele><time>2026-04-06T10:01:39Z</time></trkpt><trkpt lat="43.427916284819894" lon="10.481725197656326"><ele>31.0</ele><time>2026-04-06T10:01:40Z</time></trkpt><trkpt lat="43.4277100449067" lon="10.48170835449437"><ele>31.0</ele><time>2026-04-06T10:01:41Z</time></trkpt><trkpt lat="43.427501449903716" lon="10.481697110404465"><ele>31.0</ele><time>2026-04-06T10:01:42Z</time></trkpt><trkpt lat="43.4272915087366" lon="10.481682637767483"><ele>31.0</ele><time>2026-04-06T10:01:43Z</time></trkpt><trkpt lat="43.42707905053811" lon="10.481669932868877"><ele>31.0</ele><time>2026-04-06T10:01:44Z</time></trkpt><trkpt lat="43.42686774438698" lon="10.481653069091312"><ele>31.333333333333336</ele><time>2026-04-06T10:01:45Z</time></trkpt><trkpt lat="43.426657837534776" lon="10.481638623018217"><ele>31.666666666666664</ele><time>2026-04-06T10:01:46Z</time></trkpt><trkpt lat="43.426459260567036" lon="10.481623459009489"><ele>32.0</ele><time>2026-04-06T10:01:47Z</time></trkpt><trkpt lat="43.42627611778827" lon="10.481608544178332"><ele>32.33333333333333</ele><time>2026-04-06T10:01:48Z</time></trkpt><trkpt lat="43.426103249782976" lon="10.48159474945313"><ele>32.666666666666664</ele><time>2026-04-06T10:01:49Z</time></trkpt><trkpt lat="43.425933286640024" lon="10.481582279544376"><ele>33.0</ele><time>2026-04-06T10:01:50Z</time></trkpt><trkpt lat="43.425759777246235" lon="10.481572212865137"><ele>33.0</ele><time>2026-04-06T10:01:51Z</time></trkpt><trkpt lat="43.42558659690169" lon="10.481559482341446"><ele>33.0</ele><time>2026-04-06T10:01:52Z</time></trkpt><trkpt lat="43.42541243163371" lon="10.481549396191866"><ele>33.0</ele><time>2026-04-06T10:01:53Z</time></trkpt><trkpt lat="43.42523450659422" lon="10.481535917911811"><ele>32.333333333333336</ele><time>2026-04-06T10:01:54Z</time></trkpt><trkpt lat="43.4250526267327" lon="10.481527831480994"><ele>31.666666666666668</ele><time>2026-04-06T10:01:55Z</time></trkpt><trkpt lat="43.42488147625753" lon="10.481513799610646"><ele>31.0</ele><time>2026-04-06T10:01:56Z</time></trkpt><trkpt lat="43.42471534683082" lon="10.481491605910357"><ele>31.0</ele><time>2026-04-06T10:01:57Z</time></trkpt><trkpt lat="43.424550621942416" lon="10.481468153197271"><ele>31.0</ele><time>2026-04-06T10:01:58Z</time></trkpt><trkpt lat="43.42437183474028" lon="10.48145580183294"><ele>31.0</ele><time>2026-04-06T10:01:59Z</time></trkpt><trkpt lat="43.4241964445045" lon="10.481446604530852"><ele>31.0</ele><time>2026-04-06T10:02:00Z</time></trkpt><trkpt lat="43.42403679503094" lon="10.481423248969021"><ele>31.0</ele><time>2026-04-06T10:02:01Z</time></trkpt><trkpt lat="43.42378665174937" lon="10.481443560437846"><ele>31.0</ele><time>2026-04-06T10:02:02Z</time></trkpt><trkpt lat="43.423596486446584" lon="10.481440155503627"><ele>31.333333333333336</ele><time>2026-04-06T10:02:03Z</time></trkpt><trkpt lat="43.423408465565494" lon="10.48144881333938"><ele>31.666666666666664</ele><time>2026-04-06T10:02:04Z</time></trkpt><trkpt lat="43.423216072669966" lon="10.481459300417141"><ele>32.0</ele><time>2026-04-06T10:02:05Z</time></trkpt><trkpt lat="43.42302404705292" lon="10.481493290587688"><ele>31.666666666666664</ele><time>2026-04-06T10:02:06Z</time></trkpt><trkpt lat="43.42282796195198" lon="10.481536081171045"><ele>31.333333333333336</ele><time>2026-04-06T10:02:07Z</time></trkpt><trkpt lat="43.42263070951402" lon="10.481592243532697"><ele>31.0</ele><time>2026-04-06T10:02:08Z</time></trkpt><trkpt lat="43.42242836492192" lon="10.481650512492198"><ele>31.0</ele><time>2026-04-06T10:02:09Z</time></trkpt><trkpt lat="43.422225389169604" lon="10.481708372005864"><ele>31.0</ele><time>2026-04-06T10:02:10Z</time></trkpt><trkpt lat="43.42202061848104" lon="10.481767226573142"><ele>31.0</ele><time>2026-04-06T10:02:11Z</time></trkpt><trkpt lat="43.421816286135986" lon="10.481827467473288"><ele>31.666666666666668</ele><time>2026-04-06T10:02:12Z</time></trkpt><trkpt lat="43.42160895327623" lon="10.481893678282658"><ele>32.333333333333336</ele><time>2026-04-06T10:02:13Z</time></trkpt><trkpt lat="43.421401326563576" lon="10.48195548802747"><ele>33.0</ele><time>2026-04-06T10:02:14Z</time></trkpt><trkpt lat="43.421204522292555" lon="10.482011213260906"><ele>34.0</ele><time>2026-04-06T10:02:15Z</time></trkpt><trkpt lat="43.42102335368936" lon="10.482067014371768"><ele>35.0</ele><time>2026-04-06T10:02:16Z</time></trkpt><trkpt lat="43.42085203288136" lon="10.48212238072503"><ele>36.0</ele><time>2026-04-06T10:02:17Z</time></trkpt><trkpt lat="43.420689381573716" lon="10.482171780756104"><ele>34.333333333333336</ele><time>2026-04-06T10:02:18Z</time></trkpt><trkpt lat="43.420524232098806" lon="10.48220764190435"><ele>32.66666666666667</ele><time>2026-04-06T10:02:19Z</time></trkpt><trkpt lat="43.4203585742596" lon="10.482236266056944"><ele>31.0</ele><time>2026-04-06T10:02:20Z</time></trkpt><trkpt lat="43.420182757389526" lon="10.482256622785423"><ele>31.0</ele><time>2026-04-06T10:02:21Z</time></trkpt><trkpt lat="43.41999528068652" lon="10.482249133424864"><ele>31.0</ele><time>2026-04-06T10:02:22Z</time></trkpt><trkpt lat="43.419795361271056" lon="10.482216463388387"><ele>31.0</ele><time>2026-04-06T10:02:23Z</time></trkpt><trkpt lat="43.41959123858325" lon="10.482171087213121"><ele>30.666666666666668</ele><time>2026-04-06T10:02:24Z</time></trkpt><trkpt lat="43.41937881697007" lon="10.482116031636854"><ele>30.333333333333336</ele><time>2026-04-06T10:02:25Z</time></trkpt><trkpt lat="43.41918327697089" lon="10.482082658454464"><ele>30.0</ele><time>2026-04-06T10:02:26Z</time></trkpt><trkpt lat="43.418994108637676" lon="10.48204892915631"><ele>32.0</ele><time>2026-04-06T10:02:27Z</time></trkpt><trkpt lat="43.41881325946622" lon="10.48201921458697"><ele>34.0</ele><time>2026-04-06T10:02:28Z</time></trkpt><trkpt lat="43.41864493894747" lon="10.48199006590772"><ele>36.0</ele><time>2026-04-06T10:02:29Z</time></trkpt><trkpt lat="43.41848751978141" lon="10.481957337672275"><ele>36.0</ele><time>2026-04-06T10:02:30Z</time></trkpt><trkpt lat="43.41833818443812" lon="10.4819421260559"><ele>36.0</ele><time>2026-04-06T10:02:31Z</time></trkpt><trkpt lat="43.41818562543357" lon="10.481952576840285"><ele>36.0</ele><time>2026-04-06T10:02:32Z</time></trkpt><trkpt lat="43.418023205601195" lon="10.48199340722496"><ele>36.0</ele><time>2026-04-06T10:02:33Z</time></trkpt><trkpt lat="43.41786128000844" lon="10.482064069225554"><ele>36.0</ele><time>2026-04-06T10:02:34Z</time></trkpt><trkpt lat="43.417712147523304" lon="10.48218520707803"><ele>36.0</ele><time>2026-04-06T10:02:35Z</time></trkpt><trkpt lat="43.417567560468285" lon="10.482331260013334"><ele>36.0</ele><time>2026-04-06T10:02:36Z</time></trkpt><trkpt lat="43.41741397770111" lon="10.482478001960821"><ele>36.0</ele><time>2026-04-06T10:02:37Z</time></trkpt><trkpt lat="43.41726786943252" lon="10.482604759036864"><ele>36.0</ele><time>2026-04-06T10:02:38Z</time></trkpt><trkpt lat="43.41713573289838" lon="10.482721855559685"><ele>36.666666666666664</ele><time>2026-04-06T10:02:39Z</time></trkpt><trkpt lat="43.41700054292625" lon="10.482834267941197"><ele>37.33333333333333</ele><time>2026-04-06T10:02:40Z</time></trkpt><trkpt lat="43.41686159703145" lon="10.482957130506636"><ele>38.0</ele><time>2026-04-06T10:02:41Z</time></trkpt><trkpt lat="43.41671810103165" lon="10.48308533580681"><ele>36.666666666666664</ele><time>2026-04-06T10:02:42Z</time></trkpt><trkpt lat="43.416567204502684" lon="10.483217974188534"><ele>35.333333333333336</ele><time>2026-04-06T10:02:43Z</time></trkpt><trkpt lat="43.41641035113897" lon="10.483353881149657"><ele>34.0</ele><time>2026-04-06T10:02:44Z</time></trkpt><trkpt lat="43.41625181429803" lon="10.483493667326293"><ele>33.333333333333336</ele><time>2026-04-06T10:02:45Z</time></trkpt><trkpt lat="43.41609131633505" lon="10.483637194693037"><ele>32.666666666666664</ele><time>2026-04-06T10:02:46Z</time></trkpt><trkpt lat="43.41592729392154" lon="10.48377929585736"><ele>32.0</ele><time>2026-04-06T10:02:47Z</time></trkpt><trkpt lat="43.41575665287134" lon="10.483926963308365"><ele>31.333333333333332</ele><time>2026-04-06T10:02:48Z</time></trkpt><trkpt lat="43.41558800385257" lon="10.484075462498598"><ele>30.666666666666664</ele><time>2026-04-06T10:02:49Z</time></trkpt><trkpt lat="43.415421229630255" lon="10.484223137569593"><ele>30.0</ele><time>2026-04-06T10:02:50Z</time></trkpt><trkpt lat="43.41525062685788" lon="10.484370342328653"><ele>30.0</ele><time>2026-04-06T10:02:51Z</time></trkpt><trkpt lat="43.415076558493624" lon="10.484523683992267"><ele>30.0</ele><time>2026-04-06T10:02:52Z</time></trkpt><trkpt lat="43.414905709461614" lon="10.48466930324419"><ele>30.0</ele><time>2026-04-06T10:02:53Z</time></trkpt><trkpt lat="43.41472895793626" lon="10.484819583168774"><ele>29.666666666666664</ele><time>2026-04-06T10:02:54Z</time></trkpt><trkpt lat="43.41455921335762" lon="10.484973068944043"><ele>29.333333333333332</ele><time>2026-04-06T10:02:55Z</time></trkpt><trkpt lat="43.41438890344468" lon="10.48512834013311"><ele>29.0</ele><time>2026-04-06T10:02:56Z</time></trkpt><trkpt lat="43.41421866537571" lon="10.485281071926641"><ele>29.666666666666664</ele><time>2026-04-06T10:02:57Z</time></trkpt><trkpt lat="43.414044665461475" lon="10.485431980944897"><ele>30.333333333333336</ele><time>2026-04-06T10:02:58Z</time></trkpt><trkpt lat="43.413883372323426" lon="10.485569562133723"><ele>31.0</ele><time>2026-04-06T10:02:59Z</time></trkpt><trkpt lat="43.41372899901303" lon="10.485707919001293"><ele>31.0</ele><time>2026-04-06T10:03:00Z</time></trkpt><trkpt lat="43.413578798795605" lon="10.485855262844582"><ele>31.0</ele><time>2026-04-06T10:03:01Z</time></trkpt><trkpt lat="43.413435830749755" lon="10.486023516062609"><ele>31.0</ele><time>2026-04-06T10:03:02Z</time></trkpt><trkpt lat="43.413306951035715" lon="10.486220442726772"><ele>30.333333333333336</ele><time>2026-04-06T10:03:03Z</time></trkpt><trkpt lat="43.41317832726461" lon="10.486444365134819"><ele>29.666666666666664</ele><time>2026-04-06T10:03:04Z</time></trkpt><trkpt lat="43.41304813980798" lon="10.486689490579879"><ele>29.0</ele><time>2026-04-06T10:03:05Z</time></trkpt><trkpt lat="43.41291601155049" lon="10.4869279782721"><ele>29.0</ele><time>2026-04-06T10:03:06Z</time></trkpt><trkpt lat="43.41278703673043" lon="10.487157713016503"><ele>29.0</ele><time>2026-04-06T10:03:07Z</time></trkpt><trkpt lat="43.41266991833538" lon="10.487375001242814"><ele>29.0</ele><time>2026-04-06T10:03:08Z</time></trkpt><trkpt lat="43.412556809989724" lon="10.487583814922312"><ele>29.0</ele><time>2026-04-06T10:03:09Z</time></trkpt><trkpt lat="43.41244180533647" lon="10.487791413766809"><ele>29.0</ele><time>2026-04-06T10:03:10Z</time></trkpt><trkpt lat="43.41232880940633" lon="10.48800140299456"><ele>29.0</ele><time>2026-04-06T10:03:11Z</time></trkpt><trkpt lat="43.41221038119946" lon="10.488211621098053"><ele>29.333333333333332</ele><time>2026-04-06T10:03:12Z</time></trkpt><trkpt lat="43.41209807312406" lon="10.488419955443105"><ele>29.666666666666664</ele><time>2026-04-06T10:03:13Z</time></trkpt><trkpt lat="43.41198977674776" lon="10.488620937463743"><ele>30.0</ele><time>2026-04-06T10:03:14Z</time></trkpt><trkpt lat="43.41188808753879" lon="10.488803198430226"><ele>30.0</ele><time>2026-04-06T10:03:15Z</time></trkpt><trkpt lat="43.41178737143584" lon="10.48896459292563"><ele>30.0</ele><time>2026-04-06T10:03:16Z</time></trkpt><trkpt lat="43.411685197928485" lon="10.489119039228232"><ele>30.0</ele><time>2026-04-06T10:03:17Z</time></trkpt><trkpt lat="43.41156318207828" lon="10.489256700595796"><ele>30.0</ele><time>2026-04-06T10:03:18Z</time></trkpt><trkpt lat="43.41141642914898" lon="10.489373528664247"><ele>30.0</ele><time>2026-04-06T10:03:19Z</time></trkpt><trkpt lat="43.411246882181494" lon="10.489467824132335"><ele>30.0</ele><time>2026-04-06T10:03:20Z</time></trkpt><trkpt lat="43.41106047313802" lon="10.489556803268071"><ele>29.666666666666664</ele><time>2026-04-06T10:03:21Z</time></trkpt><trkpt lat="43.41086273807386" lon="10.489650635895009"><ele>29.333333333333332</ele><time>2026-04-06T10:03:22Z</time></trkpt><trkpt lat="43.410662300409534" lon="10.489744077138441"><ele>29.0</ele><time>2026-04-06T10:03:23Z</time></trkpt><trkpt lat="43.41047655268532" lon="10.489828651966306"><ele>29.0</ele><time>2026-04-06T10:03:24Z</time></trkpt><trkpt lat="43.41029452976378" lon="10.489916385697379"><ele>29.0</ele><time>2026-04-06T10:03:25Z</time></trkpt><trkpt lat="43.41011260993827" lon="10.490016242017896"><ele>29.0</ele><time>2026-04-06T10:03:26Z</time></trkpt><trkpt lat="43.409941383339515" lon="10.490112389397444"><ele>29.0</ele><time>2026-04-06T10:03:27Z</time></trkpt><trkpt lat="43.40976642336378" lon="10.490208789534389"><ele>29.0</ele><time>2026-04-06T10:03:28Z</time></trkpt><trkpt lat="43.40960307355151" lon="10.490307598959495"><ele>29.0</ele><time>2026-04-06T10:03:29Z</time></trkpt><trkpt lat="43.40944682129986" lon="10.490413371303257"><ele>28.666666666666664</ele><time>2026-04-06T10:03:30Z</time></trkpt><trkpt lat="43.40929983020068" lon="10.490515098830206"><ele>28.333333333333336</ele><time>2026-04-06T10:03:31Z</time></trkpt><trkpt lat="43.40915603349548" lon="10.490617660778277"><ele>28.0</ele><time>2026-04-06T10:03:32Z</time></trkpt><trkpt lat="43.40900747890589" lon="10.490723197027753"><ele>28.0</ele><time>2026-04-06T10:03:33Z</time></trkpt><trkpt lat="43.40886589001449" lon="10.490817878958545"><ele>28.0</ele><time>2026-04-06T10:03:34Z</time></trkpt><trkpt lat="43.408720682254426" lon="10.490916469221427"><ele>28.0</ele><time>2026-04-06T10:03:35Z</time></trkpt><trkpt lat="43.408575709856436" lon="10.491014535018346"><ele>28.666666666666668</ele><time>2026-04-06T10:03:36Z</time></trkpt><trkpt lat="43.40842590661192" lon="10.491118920857602"><ele>29.333333333333336</ele><time>2026-04-06T10:03:37Z</time></trkpt><trkpt lat="43.4082806626481" lon="10.491202093075664"><ele>30.0</ele><time>2026-04-06T10:03:38Z</time></trkpt><trkpt lat="43.408129869600074" lon="10.491269923223792"><ele>28.666666666666664</ele><time>2026-04-06T10:03:39Z</time></trkpt><trkpt lat="43.4079925815416" lon="10.491316168207707"><ele>27.333333333333332</ele><time>2026-04-06T10:03:40Z</time></trkpt><trkpt lat="43.40783642848651" lon="10.491339974193844"><ele>26.0</ele><time>2026-04-06T10:03:41Z</time></trkpt><trkpt lat="43.40767584127328" lon="10.491327180392432"><ele>26.0</ele><time>2026-04-06T10:03:42Z</time></trkpt><trkpt lat="43.407509711338925" lon="10.49130778134722"><ele>26.0</ele><time>2026-04-06T10:03:43Z</time></trkpt><trkpt lat="43.40734389334459" lon="10.491236768858668"><ele>26.0</ele><time>2026-04-06T10:03:44Z</time></trkpt><trkpt lat="43.40718009954482" lon="10.491166446404039"><ele>25.333333333333332</ele><time>2026-04-06T10:03:45Z</time></trkpt><trkpt lat="43.40701730596432" lon="10.491095134144365"><ele>24.666666666666664</ele><time>2026-04-06T10:03:46Z</time></trkpt><trkpt lat="43.40684809391621" lon="10.491040001996303"><ele>24.0</ele><time>2026-04-06T10:03:47Z</time></trkpt><trkpt lat="43.40668178953382" lon="10.490969236448139"><ele>24.0</ele><time>2026-04-06T10:03:48Z</time></trkpt><trkpt lat="43.40651633608014" lon="10.490888718262372"><ele>24.0</ele><time>2026-04-06T10:03:49Z</time></trkpt><trkpt lat="43.40634699806674" lon="10.490816617392237"><ele>24.0</ele><time>2026-04-06T10:03:50Z</time></trkpt><trkpt lat="43.406183175923346" lon="10.490743963061345"><ele>25.666666666666664</ele><time>2026-04-06T10:03:51Z</time></trkpt><trkpt lat="43.40602807346053" lon="10.490677362232198"><ele>27.333333333333332</ele><time>2026-04-06T10:03:52Z</time></trkpt><trkpt lat="43.405876237943126" lon="10.49061429569967"><ele>29.0</ele><time>2026-04-06T10:03:53Z</time></trkpt><trkpt lat="43.40573173119618" lon="10.490551117311343"><ele>29.0</ele><time>2026-04-06T10:03:54Z</time></trkpt><trkpt lat="43.40558911648981" lon="10.490484202673313"><ele>29.0</ele><time>2026-04-06T10:03:55Z</time></trkpt><trkpt lat="43.40544263429248" lon="10.490417761489196"><ele>29.0</ele><time>2026-04-06T10:03:56Z</time></trkpt><trkpt lat="43.405289194522844" lon="10.490355071665553"><ele>27.666666666666664</ele><time>2026-04-06T10:03:57Z</time></trkpt><trkpt lat="43.405132747967556" lon="10.490291344855871"><ele>26.333333333333336</ele><time>2026-04-06T10:03:58Z</time></trkpt><trkpt lat="43.404970778468225" lon="10.490234226553115"><ele>25.0</ele><time>2026-04-06T10:03:59Z</time></trkpt><trkpt lat="43.40480671903255" lon="10.490188261952635"><ele>24.333333333333336</ele><time>2026-04-06T10:04:00Z</time></trkpt><trkpt lat="43.40463360003525" lon="10.490154159218946"><ele>23.666666666666668</ele><time>2026-04-06T10:04:01Z</time></trkpt><trkpt lat="43.40445928895158" lon="10.490127118966658"><ele>23.0</ele><time>2026-04-06T10:04:02Z</time></trkpt><trkpt lat="43.40427895539471" lon="10.49012796495141"><ele>23.0</ele><time>2026-04-06T10:04:03Z</time></trkpt><trkpt lat="43.40409899596063" lon="10.490137676490207"><ele>23.0</ele><time>2026-04-06T10:04:04Z</time></trkpt><trkpt lat="43.403913547050855" lon="10.490169273630702"><ele>23.0</ele><time>2026-04-06T10:04:05Z</time></trkpt><trkpt lat="43.403733265226876" lon="10.490197896819828"><ele>23.0</ele><time>2026-04-06T10:04:06Z</time></trkpt><trkpt lat="43.40355077751843" lon="10.4902426300155"><ele>23.0</ele><time>2026-04-06T10:04:07Z</time></trkpt><trkpt lat="43.40337269987081" lon="10.49028257404229"><ele>23.0</ele><time>2026-04-06T10:04:08Z</time></trkpt><trkpt lat="43.40320358255521" lon="10.490327858719427"><ele>23.0</ele><time>2026-04-06T10:04:09Z</time></trkpt><trkpt lat="43.403042763661325" lon="10.490386198180545"><ele>23.0</ele><time>2026-04-06T10:04:10Z</time></trkpt><trkpt lat="43.40289274201073" lon="10.490471290785676"><ele>23.0</ele><time>2026-04-06T10:04:11Z</time></trkpt><trkpt lat="43.40274800157021" lon="10.490588562034356"><ele>22.333333333333336</ele><time>2026-04-06T10:04:12Z</time></trkpt><trkpt lat="43.40261815221182" lon="10.490736402694937"><ele>21.666666666666668</ele><time>2026-04-06T10:04:13Z</time></trkpt><trkpt lat="43.40250234447543" lon="10.490911495374794"><ele>21.0</ele><time>2026-04-06T10:04:14Z</time></trkpt><trkpt lat="43.40239180598956" lon="10.491093584209315"><ele>20.333333333333332</ele><time>2026-04-06T10:04:15Z</time></trkpt><trkpt lat="43.40228180404657" lon="10.491272762122959"><ele>19.666666666666664</ele><time>2026-04-06T10:04:16Z</time></trkpt><trkpt lat="43.4021708286617" lon="10.491449807434964"><ele>19.0</ele><time>2026-04-06T10:04:17Z</time></trkpt><trkpt lat="43.402058438975374" lon="10.491622804294053"><ele>19.0</ele><time>2026-04-06T10:04:18Z</time></trkpt><trkpt lat="43.401944901865015" lon="10.491798563176582"><ele>19.0</ele><time>2026-04-06T10:04:19Z</time></trkpt><trkpt lat="43.401830992080754" lon="10.49197737610564"><ele>19.0</ele><time>2026-04-06T10:04:20Z</time></trkpt><trkpt lat="43.40171646488455" lon="10.49215171337771"><ele>19.0</ele><time>2026-04-06T10:04:21Z</time></trkpt><trkpt lat="43.40160667769015" lon="10.492324606198743"><ele>19.0</ele><time>2026-04-06T10:04:22Z</time></trkpt><trkpt lat="43.401498055940095" lon="10.492493221566553"><ele>19.0</ele><time>2026-04-06T10:04:23Z</time></trkpt><trkpt lat="43.40140058644067" lon="10.49265394682633"><ele>18.5</ele><time>2026-04-06T10:04:24Z</time></trkpt><trkpt lat="43.40129850294985" lon="10.49280575134476"><ele>18.0</ele><time>2026-04-06T10:04:25Z</time></trkpt><trkpt lat="43.401200617691764" lon="10.492946231205499"><ele>17.5</ele><time>2026-04-06T10:04:26Z</time></trkpt><trkpt lat="43.40110839942552" lon="10.4930810475902"><ele>17.0</ele><time>2026-04-06T10:04:27Z</time></trkpt><trkpt lat="43.40101974323616" lon="10.493219052516865"><ele>17.0</ele><time>2026-04-06T10:04:28Z</time></trkpt><trkpt lat="43.400927373801885" lon="10.493358582331426"><ele>17.0</ele><time>2026-04-06T10:04:29Z</time></trkpt><trkpt lat="43.4008359917652" lon="10.493498333350955"><ele>17.0</ele><time>2026-04-06T10:04:30Z</time></trkpt><trkpt lat="43.40074574734417" lon="10.493634730172385"><ele>17.0</ele><time>2026-04-06T10:04:31Z</time></trkpt><trkpt lat="43.4006541419537" lon="10.493766471888755"><ele>17.5</ele><time>2026-04-06T10:04:32Z</time></trkpt><trkpt lat="43.400563866559395" lon="10.493904597037384"><ele>18.0</ele><time>2026-04-06T10:04:33Z</time></trkpt><trkpt lat="43.40047531410081" lon="10.494040083700623"><ele>18.5</ele><time>2026-04-06T10:04:34Z</time></trkpt><trkpt lat="43.40038910014458" lon="10.494170888827814"><ele>19.0</ele><time>2026-04-06T10:04:35Z</time></trkpt><trkpt lat="43.40029979529797" lon="10.494308957020605"><ele>19.0</ele><time>2026-04-06T10:04:36Z</time></trkpt><trkpt lat="43.400206417863586" lon="10.494447648602485"><ele>19.0</ele><time>2026-04-06T10:04:37Z</time></trkpt><trkpt lat="43.40010899386653" lon="10.494590796220885"><ele>19.0</ele><time>2026-04-06T10:04:38Z</time></trkpt><trkpt lat="43.40001396979134" lon="10.494731828640496"><ele>19.0</ele><time>2026-04-06T10:04:39Z</time></trkpt><trkpt lat="43.399919699227645" lon="10.494873027852188"><ele>19.0</ele><time>2026-04-06T10:04:40Z</time></trkpt><trkpt lat="43.399821110370475" lon="10.495011119499592"><ele>19.0</ele><time>2026-04-06T10:04:41Z</time></trkpt><trkpt lat="43.39972019871161" lon="10.49514673119743"><ele>19.0</ele><time>2026-04-06T10:04:42Z</time></trkpt><trkpt lat="43.39961415395647" lon="10.495275578972024"><ele>19.0</ele><time>2026-04-06T10:04:43Z</time></trkpt><trkpt lat="43.399501917092465" lon="10.495392149334355"><ele>19.25</ele><time>2026-04-06T10:04:44Z</time></trkpt><trkpt lat="43.399382992857525" lon="10.495500667061489"><ele>19.5</ele><time>2026-04-06T10:04:45Z</time></trkpt><trkpt lat="43.399258386157456" lon="10.49560607746049"><ele>19.75</ele><time>2026-04-06T10:04:46Z</time></trkpt><trkpt lat="43.399130473385625" lon="10.49570554971681"><ele>20.0</ele><time>2026-04-06T10:04:47Z</time></trkpt><trkpt lat="43.39900724229226" lon="10.495791598794533"><ele>20.0</ele><time>2026-04-06T10:04:48Z</time></trkpt><trkpt lat="43.39888412961767" lon="10.495859589538613"><ele>20.0</ele><time>2026-04-06T10:04:49Z</time></trkpt><trkpt lat="43.398760462529694" lon="10.495923571983255"><ele>20.0</ele><time>2026-04-06T10:04:50Z</time></trkpt><trkpt lat="43.39864565084741" lon="10.49597746647905"><ele>20.0</ele><time>2026-04-06T10:04:51Z</time></trkpt><trkpt lat="43.3985250242406" lon="10.496025690078548"><ele>19.5</ele><time>2026-04-06T10:04:52Z</time></trkpt><trkpt lat="43.39839685811872" lon="10.496056094102041"><ele>19.0</ele><time>2026-04-06T10:04:53Z</time></trkpt><trkpt lat="43.39826726965622" lon="10.496077186442099"><ele>18.5</ele><time>2026-04-06T10:04:54Z</time></trkpt><trkpt lat="43.3981384851728" lon="10.496094287206596"><ele>18.0</ele><time>2026-04-06T10:04:55Z</time></trkpt><trkpt lat="43.398008764855064" lon="10.496109173259752"><ele>18.0</ele><time>2026-04-06T10:04:56Z</time></trkpt><trkpt lat="43.39787376638389" lon="10.496118958520412"><ele>18.0</ele><time>2026-04-06T10:04:57Z</time></trkpt><trkpt lat="43.39774134930388" lon="10.49612158329212"><ele>18.0</ele><time>2026-04-06T10:04:58Z</time></trkpt><trkpt lat="43.3976122887654" lon="10.496119239401882"><ele>18.0</ele><time>2026-04-06T10:04:59Z</time></trkpt><trkpt lat="43.39747653117638" lon="10.49611210180923"><ele>18.0</ele><time>2026-04-06T10:05:00Z</time></trkpt><trkpt lat="43.397336449738766" lon="10.49609345067501"><ele>18.0</ele><time>2026-04-06T10:05:01Z</time></trkpt><trkpt lat="43.397192247559424" lon="10.49607762498413"><ele>18.0</ele><time>2026-04-06T10:05:02Z</time></trkpt><trkpt lat="43.39705127506186" lon="10.496060426796966"><ele>18.0</ele><time>2026-04-06T10:05:03Z</time></trkpt><trkpt lat="43.39691151320648" lon="10.496049988723309"><ele>18.25</ele><time>2026-04-06T10:05:04Z</time></trkpt><trkpt lat="43.396784584731904" lon="10.496035309452934"><ele>18.5</ele><time>2026-04-06T10:05:05Z</time></trkpt><trkpt lat="43.396662105624436" lon="10.496018016395798"><ele>18.75</ele><time>2026-04-06T10:05:06Z</time></trkpt><trkpt lat="43.396512036986614" lon="10.496009306333747"><ele>19.0</ele><time>2026-04-06T10:05:07Z</time></trkpt><trkpt lat="43.39638824636253" lon="10.496016145575027"><ele>20.0</ele><time>2026-04-06T10:05:08Z</time></trkpt><trkpt lat="43.39626670174298" lon="10.496023659840837"><ele>21.0</ele><time>2026-04-06T10:05:09Z</time></trkpt><trkpt lat="43.39614615585297" lon="10.496050861127328"><ele>22.0</ele><time>2026-04-06T10:05:10Z</time></trkpt><trkpt lat="43.396029319538016" lon="10.496106779934184"><ele>23.0</ele><time>2026-04-06T10:05:11Z</time></trkpt><trkpt lat="43.39592698330377" lon="10.496191791280964"><ele>22.75</ele><time>2026-04-06T10:05:12Z</time></trkpt><trkpt lat="43.3958352890693" lon="10.496314963204721"><ele>22.5</ele><time>2026-04-06T10:05:13Z</time></trkpt><trkpt lat="43.39575153667359" lon="10.496456808023325"><ele>22.25</ele><time>2026-04-06T10:05:14Z</time></trkpt><trkpt lat="43.39568647837473" lon="10.49662573289114"><ele>22.0</ele><time>2026-04-06T10:05:15Z</time></trkpt><trkpt lat="43.39563747592418" lon="10.496813829344237"><ele>22.0</ele><time>2026-04-06T10:05:16Z</time></trkpt><trkpt lat="43.39561181759474" lon="10.497012805495737"><ele>22.0</ele><time>2026-04-06T10:05:17Z</time></trkpt><trkpt lat="43.39560584872039" lon="10.49721523938451"><ele>22.0</ele><time>2026-04-06T10:05:18Z</time></trkpt><trkpt lat="43.39560533032034" lon="10.497423699913229"><ele>22.0</ele><time>2026-04-06T10:05:19Z</time></trkpt><trkpt lat="43.39560227418274" lon="10.497628172859843"><ele>22.5</ele><time>2026-04-06T10:05:20Z</time></trkpt><trkpt lat="43.39559901363953" lon="10.497825850486377"><ele>23.0</ele><time>2026-04-06T10:05:21Z</time></trkpt><trkpt lat="43.395593842179004" lon="10.498012596376856"><ele>23.5</ele><time>2026-04-06T10:05:22Z</time></trkpt><trkpt lat="43.39557596607108" lon="10.49819284695728"><ele>24.0</ele><time>2026-04-06T10:05:23Z</time></trkpt><trkpt lat="43.3955414312142" lon="10.498367128930662"><ele>26.75</ele><time>2026-04-06T10:05:24Z</time></trkpt><trkpt lat="43.39547309990173" lon="10.498523396873384"><ele>29.5</ele><time>2026-04-06T10:05:25Z</time></trkpt><trkpt lat="43.39537921744962" lon="10.498674553561942"><ele>32.25</ele><time>2026-04-06T10:05:26Z</time></trkpt><trkpt lat="43.39526091392813" lon="10.49880407462261"><ele>35.0</ele><time>2026-04-06T10:05:27Z</time></trkpt><trkpt lat="43.39514241680692" lon="10.49895406510034"><ele>35.0</ele><time>2026-04-06T10:05:28Z</time></trkpt><trkpt lat="43.39502903670337" lon="10.499127202864594"><ele>35.0</ele><time>2026-04-06T10:05:29Z</time></trkpt><trkpt lat="43.39490847787046" lon="10.49925471668195"><ele>35.0</ele><time>2026-04-06T10:05:30Z</time></trkpt><trkpt lat="43.39480217826841" lon="10.49939174239632"><ele>35.0</ele><time>2026-04-06T10:05:31Z</time></trkpt><trkpt lat="43.394695596227415" lon="10.499525941783551"><ele>35.0</ele><time>2026-04-06T10:05:32Z</time></trkpt><trkpt lat="43.3945873014581" lon="10.499652332714335"><ele>35.0</ele><time>2026-04-06T10:05:33Z</time></trkpt><trkpt lat="43.39448291144295" lon="10.49977996324946"><ele>35.0</ele><time>2026-04-06T10:05:34Z</time></trkpt><trkpt lat="43.39438094506059" lon="10.499916333415287"><ele>36.75</ele><time>2026-04-06T10:05:35Z</time></trkpt><trkpt lat="43.39427926696083" lon="10.500046091839137"><ele>38.5</ele><time>2026-04-06T10:05:36Z</time></trkpt><trkpt lat="43.394180241283784" lon="10.500170405586925"><ele>40.25</ele><time>2026-04-06T10:05:37Z</time></trkpt><trkpt lat="43.3940829606915" lon="10.500295660373359"><ele>42.0</ele><time>2026-04-06T10:05:38Z</time></trkpt><trkpt lat="43.39398645964393" lon="10.500415772645193"><ele>41.5</ele><time>2026-04-06T10:05:39Z</time></trkpt><trkpt lat="43.39388952888746" lon="10.500520446169723"><ele>41.0</ele><time>2026-04-06T10:05:40Z</time></trkpt><trkpt lat="43.393781913069134" lon="10.500605759599523"><ele>40.5</ele><time>2026-04-06T10:05:41Z</time></trkpt><trkpt lat="43.39364695269929" lon="10.50068402602265"><ele>40.0</ele><time>2026-04-06T10:05:42Z</time></trkpt><trkpt lat="43.39351012336356" lon="10.50072695000716"><ele>40.0</ele><time>2026-04-06T10:05:43Z</time></trkpt><trkpt lat="43.39337236736139" lon="10.500738311814754"><ele>40.0</ele><time>2026-04-06T10:05:44Z</time></trkpt><trkpt lat="43.393234169954674" lon="10.500751241278413"><ele>40.0</ele><time>2026-04-06T10:05:45Z</time></trkpt><trkpt lat="43.393083010723295" lon="10.500718839519655"><ele>40.0</ele><time>2026-04-06T10:05:46Z</time></trkpt><trkpt lat="43.39291782496296" lon="10.500714773705443"><ele>38.333333333333336</ele><time>2026-04-06T10:05:47Z</time></trkpt><trkpt lat="43.392751802950194" lon="10.500686075487682"><ele>36.666666666666664</ele><time>2026-04-06T10:05:48Z</time></trkpt><trkpt lat="43.392587033021655" lon="10.500665538545194"><ele>35.0</ele><time>2026-04-06T10:05:49Z</time></trkpt><trkpt lat="43.392427299633866" lon="10.500649618361473"><ele>35.0</ele><time>2026-04-06T10:05:50Z</time></trkpt><trkpt lat="43.392274223837724" lon="10.500634098944749"><ele>35.0</ele><time>2026-04-06T10:05:51Z</time></trkpt><trkpt lat="43.39212506729347" lon="10.500617113490291"><ele>35.0</ele><time>2026-04-06T10:05:52Z</time></trkpt><trkpt lat="43.39197525948841" lon="10.500598982704487"><ele>34.75</ele><time>2026-04-06T10:05:53Z</time></trkpt><trkpt lat="43.391827738660076" lon="10.5005891215314"><ele>34.5</ele><time>2026-04-06T10:05:54Z</time></trkpt><trkpt lat="43.391684037814294" lon="10.500581077059168"><ele>34.25</ele><time>2026-04-06T10:05:55Z</time></trkpt><trkpt lat="43.39154237476353" lon="10.500563324759957"><ele>34.0</ele><time>2026-04-06T10:05:56Z</time></trkpt><trkpt lat="43.39140568558346" lon="10.500540272814622"><ele>34.25</ele><time>2026-04-06T10:05:57Z</time></trkpt><trkpt lat="43.391269685985186" lon="10.5005038640133"><ele>34.5</ele><time>2026-04-06T10:05:58Z</time></trkpt><trkpt lat="43.39113272903009" lon="10.500443678494003"><ele>34.75</ele><time>2026-04-06T10:05:59Z</time></trkpt><trkpt lat="43.39099879788042" lon="10.500364904703485"><ele>35.0</ele><time>2026-04-06T10:06:00Z</time></trkpt><trkpt lat="43.390871651326364" lon="10.500258717755948"><ele>35.5</ele><time>2026-04-06T10:06:01Z</time></trkpt><trkpt lat="43.390748105698826" lon="10.50014093995867"><ele>36.0</ele><time>2026-04-06T10:06:02Z</time></trkpt><trkpt lat="43.390629985116206" lon="10.500016775126653"><ele>36.5</ele><time>2026-04-06T10:06:03Z</time></trkpt><trkpt lat="43.39051825405066" lon="10.499896321997058"><ele>37.0</ele><time>2026-04-06T10:06:04Z</time></trkpt><trkpt lat="43.39040925175037" lon="10.499783968489577"><ele>35.75</ele><time>2026-04-06T10:06:05Z</time></trkpt><trkpt lat="43.39028922908182" lon="10.499679403268072"><ele>34.5</ele><time>2026-04-06T10:06:06Z</time></trkpt><trkpt lat="43.39016149539175" lon="10.499589259464027"><ele>33.25</ele><time>2026-04-06T10:06:07Z</time></trkpt><trkpt lat="43.39002791882441" lon="10.499511828123417"><ele>32.0</ele><time>2026-04-06T10:06:08Z</time></trkpt><trkpt lat="43.389883448076596" lon="10.499455077217672"><ele>31.666666666666664</ele><time>2026-04-06T10:06:09Z</time></trkpt><trkpt lat="43.38972884742308" lon="10.499438047625137"><ele>31.333333333333336</ele><time>2026-04-06T10:06:10Z</time></trkpt><trkpt lat="43.38957030401508" lon="10.499428822550325"><ele>31.0</ele><time>2026-04-06T10:06:11Z</time></trkpt><trkpt lat="43.38942400031015" lon="10.499439659076316"><ele>29.666666666666668</ele><time>2026-04-06T10:06:12Z</time></trkpt><trkpt lat="43.38926140341923" lon="10.499455888586196"><ele>28.333333333333336</ele><time>2026-04-06T10:06:13Z</time></trkpt><trkpt lat="43.38910202907586" lon="10.499467827472975"><ele>27.0</ele><time>2026-04-06T10:06:14Z</time></trkpt><trkpt lat="43.38894418393605" lon="10.499478626107777"><ele>26.666666666666664</ele><time>2026-04-06T10:06:15Z</time></trkpt><trkpt lat="43.38878297035074" lon="10.49949021624176"><ele>26.333333333333332</ele><time>2026-04-06T10:06:16Z</time></trkpt><trkpt lat="43.3886154238777" lon="10.499499419052611"><ele>26.0</ele><time>2026-04-06T10:06:17Z</time></trkpt><trkpt lat="43.38844847838019" lon="10.499507287965418"><ele>26.0</ele><time>2026-04-06T10:06:18Z</time></trkpt><trkpt lat="43.38828014177325" lon="10.49952309332151"><ele>26.0</ele><time>2026-04-06T10:06:19Z</time></trkpt><trkpt lat="43.388115461929246" lon="10.499539387781843"><ele>26.0</ele><time>2026-04-06T10:06:20Z</time></trkpt><trkpt lat="43.38794953184913" lon="10.49954653663068"><ele>27.333333333333332</ele><time>2026-04-06T10:06:21Z</time></trkpt><trkpt lat="43.387779183290135" lon="10.499557481226196"><ele>28.666666666666664</ele><time>2026-04-06T10:06:22Z</time></trkpt><trkpt lat="43.38760233886338" lon="10.499570453508385"><ele>30.0</ele><time>2026-04-06T10:06:23Z</time></trkpt><trkpt lat="43.38742767491864" lon="10.499586646856137"><ele>31.0</ele><time>2026-04-06T10:06:24Z</time></trkpt><trkpt lat="43.38725629175724" lon="10.49959943013256"><ele>32.0</ele><time>2026-04-06T10:06:25Z</time></trkpt><trkpt lat="43.387084564879785" lon="10.49961592215686"><ele>33.0</ele><time>2026-04-06T10:06:26Z</time></trkpt><trkpt lat="43.38691642525401" lon="10.499629780246764"><ele>34.333333333333336</ele><time>2026-04-06T10:06:27Z</time></trkpt><trkpt lat="43.386747085445876" lon="10.499650959093874"><ele>35.66666666666667</ele><time>2026-04-06T10:06:28Z</time></trkpt><trkpt lat="43.38658194823528" lon="10.499665057742696"><ele>37.0</ele><time>2026-04-06T10:06:29Z</time></trkpt><trkpt lat="43.38641732783731" lon="10.499680325540329"><ele>39.0</ele><time>2026-04-06T10:06:30Z</time></trkpt><trkpt lat="43.38625630305166" lon="10.499695900514348"><ele>41.0</ele><time>2026-04-06T10:06:31Z</time></trkpt><trkpt lat="43.38609642986451" lon="10.499713121000559"><ele>43.0</ele><time>2026-04-06T10:06:32Z</time></trkpt><trkpt lat="43.385940660868236" lon="10.499730101386259"><ele>43.0</ele><time>2026-04-06T10:06:33Z</time></trkpt><trkpt lat="43.3857962939749" lon="10.499751093377437"><ele>43.0</ele><time>2026-04-06T10:06:34Z</time></trkpt><trkpt lat="43.38566479822989" lon="10.49976836906181"><ele>43.0</ele><time>2026-04-06T10:06:35Z</time></trkpt><trkpt lat="43.38554290088725" lon="10.4997666052002"><ele>43.0</ele><time>2026-04-06T10:06:36Z</time></trkpt><trkpt lat="43.38542633429347" lon="10.499746230990162"><ele>44.75</ele><time>2026-04-06T10:06:37Z</time></trkpt><trkpt lat="43.38530485872999" lon="10.499701842562912"><ele>46.5</ele><time>2026-04-06T10:06:38Z</time></trkpt><trkpt lat="43.38520070701167" lon="10.499620075749169"><ele>48.25</ele><time>2026-04-06T10:06:39Z</time></trkpt><trkpt lat="43.385120173567174" lon="10.49950551825029"><ele>50.0</ele><time>2026-04-06T10:06:40Z</time></trkpt><trkpt lat="43.385071912890396" lon="10.499368070037853"><ele>50.0</ele><time>2026-04-06T10:06:41Z</time></trkpt><trkpt lat="43.3850183256493" lon="10.499214037830354"><ele>50.0</ele><time>2026-04-06T10:06:42Z</time></trkpt><trkpt lat="43.384987819761164" lon="10.499054489881697"><ele>50.0</ele><time>2026-04-06T10:06:43Z</time></trkpt><trkpt lat="43.38498405478505" lon="10.498884882817574"><ele>50.0</ele><time>2026-04-06T10:06:44Z</time></trkpt><trkpt lat="43.38497465375932" lon="10.498702700290936"><ele>49.75</ele><time>2026-04-06T10:06:45Z</time></trkpt><trkpt lat="43.38498808800206" lon="10.498513274386784"><ele>49.5</ele><time>2026-04-06T10:06:46Z</time></trkpt><trkpt lat="43.38498057250364" lon="10.498326146096534"><ele>49.25</ele><time>2026-04-06T10:06:47Z</time></trkpt><trkpt lat="43.384953990581074" lon="10.498146177603342"><ele>49.0</ele><time>2026-04-06T10:06:48Z</time></trkpt><trkpt lat="43.38490124215463" lon="10.497991666804763"><ele>49.25</ele><time>2026-04-06T10:06:49Z</time></trkpt><trkpt lat="43.38482438165292" lon="10.497853143110945"><ele>49.5</ele><time>2026-04-06T10:06:50Z</time></trkpt><trkpt lat="43.38474358996906" lon="10.497711876371723"><ele>49.75</ele><time>2026-04-06T10:06:51Z</time></trkpt><trkpt lat="43.3846380622026" lon="10.497605882383784"><ele>50.0</ele><time>2026-04-06T10:06:52Z</time></trkpt><trkpt lat="43.384516402390794" lon="10.497524872393619"><ele>52.5</ele><time>2026-04-06T10:06:53Z</time></trkpt><trkpt lat="43.384386124225365" lon="10.497481051338399"><ele>55.0</ele><time>2026-04-06T10:06:54Z</time></trkpt><trkpt lat="43.38424972198193" lon="10.49746396601004"><ele>57.5</ele><time>2026-04-06T10:06:55Z</time></trkpt><trkpt lat="43.38409209867786" lon="10.497485317485387"><ele>60.0</ele><time>2026-04-06T10:06:56Z</time></trkpt><trkpt lat="43.38392843729399" lon="10.497478467004305"><ele>61.0</ele><time>2026-04-06T10:06:57Z</time></trkpt><trkpt lat="43.38375998013858" lon="10.497459210742006"><ele>62.0</ele><time>2026-04-06T10:06:58Z</time></trkpt><trkpt lat="43.383590620070244" lon="10.497431033787672"><ele>63.0</ele><time>2026-04-06T10:06:59Z</time></trkpt><trkpt lat="43.383424435382366" lon="10.49742520890452"><ele>63.0</ele><time>2026-04-06T10:07:00Z</time></trkpt><trkpt lat="43.38326960381538" lon="10.497407037392048"><ele>63.0</ele><time>2026-04-06T10:07:01Z</time></trkpt><trkpt lat="43.38311031760585" lon="10.4974306997289"><ele>63.0</ele><time>2026-04-06T10:07:02Z</time></trkpt><trkpt lat="43.38295106767358" lon="10.497474512112383"><ele>63.66666666666667</ele><time>2026-04-06T10:07:03Z</time></trkpt><trkpt lat="43.38279768149727" lon="10.497533351891416"><ele>64.33333333333334</ele><time>2026-04-06T10:07:04Z</time></trkpt><trkpt lat="43.38264603550295" lon="10.497615849110534"><ele>65.0</ele><time>2026-04-06T10:07:05Z</time></trkpt><trkpt lat="43.38250273478264" lon="10.497709655311091"><ele>65.0</ele><time>2026-04-06T10:07:06Z</time></trkpt><trkpt lat="43.382361445316974" lon="10.497808345330075"><ele>65.0</ele><time>2026-04-06T10:07:07Z</time></trkpt><trkpt lat="43.382217042144454" lon="10.497922609984732"><ele>65.0</ele><time>2026-04-06T10:07:08Z</time></trkpt><trkpt lat="43.38207813933915" lon="10.498050814074029"><ele>64.33333333333334</ele><time>2026-04-06T10:07:09Z</time></trkpt><trkpt lat="43.38194048907215" lon="10.498203736791234"><ele>63.66666666666667</ele><time>2026-04-06T10:07:10Z</time></trkpt><trkpt lat="43.381802499876876" lon="10.498366556129886"><ele>63.0</ele><time>2026-04-06T10:07:11Z</time></trkpt><trkpt lat="43.38166636079884" lon="10.498531534793319"><ele>63.0</ele><time>2026-04-06T10:07:12Z</time></trkpt><trkpt lat="43.381531680147056" lon="10.498702872300973"><ele>63.0</ele><time>2026-04-06T10:07:13Z</time></trkpt><trkpt lat="43.381398262989215" lon="10.498876222852036"><ele>63.0</ele><time>2026-04-06T10:07:14Z</time></trkpt><trkpt lat="43.38126899111103" lon="10.499047189315485"><ele>62.66666666666667</ele><time>2026-04-06T10:07:15Z</time></trkpt><trkpt lat="43.38114180581368" lon="10.499208231659606"><ele>62.333333333333336</ele><time>2026-04-06T10:07:16Z</time></trkpt><trkpt lat="43.38101035935182" lon="10.499372284003089"><ele>62.0</ele><time>2026-04-06T10:07:17Z</time></trkpt><trkpt lat="43.38087979962604" lon="10.499527387362848"><ele>63.0</ele><time>2026-04-06T10:07:18Z</time></trkpt><trkpt lat="43.3807480664003" lon="10.499671949999739"><ele>64.0</ele><time>2026-04-06T10:07:19Z</time></trkpt><trkpt lat="43.38061557713298" lon="10.499811574181438"><ele>65.0</ele><time>2026-04-06T10:07:20Z</time></trkpt><trkpt lat="43.38048504392741" lon="10.499946608138432"><ele>63.0</ele><time>2026-04-06T10:07:21Z</time></trkpt><trkpt lat="43.38035434981458" lon="10.500087394532319"><ele>61.0</ele><time>2026-04-06T10:07:22Z</time></trkpt><trkpt lat="43.38022055047323" lon="10.500225686644576"><ele>59.0</ele><time>2026-04-06T10:07:23Z</time></trkpt><trkpt lat="43.38008737923888" lon="10.500367049982907"><ele>59.0</ele><time>2026-04-06T10:07:24Z</time></trkpt><trkpt lat="43.37995169813189" lon="10.500511038424742"><ele>59.0</ele><time>2026-04-06T10:07:25Z</time></trkpt><trkpt lat="43.379817793586824" lon="10.500649630626674"><ele>59.0</ele><time>2026-04-06T10:07:26Z</time></trkpt><trkpt lat="43.3796822995946" lon="10.500778382278693"><ele>57.0</ele><time>2026-04-06T10:07:27Z</time></trkpt><trkpt lat="43.37955445126458" lon="10.500916129224233"><ele>55.0</ele><time>2026-04-06T10:07:28Z</time></trkpt><trkpt lat="43.379432657420566" lon="10.501043489877569"><ele>53.0</ele><time>2026-04-06T10:07:29Z</time></trkpt><trkpt lat="43.3793121670979" lon="10.501175424737646"><ele>52.75</ele><time>2026-04-06T10:07:30Z</time></trkpt><trkpt lat="43.37919716548349" lon="10.501298560041366"><ele>52.5</ele><time>2026-04-06T10:07:31Z</time></trkpt><trkpt lat="43.37908319684728" lon="10.501420549169266"><ele>52.25</ele><time>2026-04-06T10:07:32Z</time></trkpt><trkpt lat="43.378966415135196" lon="10.501545190682645"><ele>52.0</ele><time>2026-04-06T10:07:33Z</time></trkpt><trkpt lat="43.37884655900779" lon="10.50167393544478"><ele>52.0</ele><time>2026-04-06T10:07:34Z</time></trkpt><trkpt lat="43.37872191787789" lon="10.501798639328488"><ele>52.0</ele><time>2026-04-06T10:07:35Z</time></trkpt><trkpt lat="43.3785931774385" lon="10.5019243042294"><ele>52.0</ele><time>2026-04-06T10:07:36Z</time></trkpt><trkpt lat="43.378459736292726" lon="10.502041104187226"><ele>53.33333333333333</ele><time>2026-04-06T10:07:37Z</time></trkpt><trkpt lat="43.3783252283566" lon="10.50214881999524"><ele>54.66666666666667</ele><time>2026-04-06T10:07:38Z</time></trkpt><trkpt lat="43.37818928303939" lon="10.50224788028284"><ele>56.0</ele><time>2026-04-06T10:07:39Z</time></trkpt><trkpt lat="43.37805388410852" lon="10.502333977596807"><ele>55.0</ele><time>2026-04-06T10:07:40Z</time></trkpt><trkpt lat="43.37791572071491" lon="10.50240923861213"><ele>54.0</ele><time>2026-04-06T10:07:41Z</time></trkpt><trkpt lat="43.377775013257796" lon="10.502483406388132"><ele>53.0</ele><time>2026-04-06T10:07:42Z</time></trkpt><trkpt lat="43.377629149628085" lon="10.502553283956045"><ele>53.0</ele><time>2026-04-06T10:07:43Z</time></trkpt><trkpt lat="43.37748767282382" lon="10.502610286654011"><ele>53.0</ele><time>2026-04-06T10:07:44Z</time></trkpt><trkpt lat="43.37733713814598" lon="10.502659348417138"><ele>53.0</ele><time>2026-04-06T10:07:45Z</time></trkpt><trkpt lat="43.37718873756111" lon="10.502700290743592"><ele>53.333333333333336</ele><time>2026-04-06T10:07:46Z</time></trkpt><trkpt lat="43.37703738538896" lon="10.502729798554995"><ele>53.66666666666667</ele><time>2026-04-06T10:07:47Z</time></trkpt><trkpt lat="43.376879602276965" lon="10.502751045428145"><ele>54.0</ele><time>2026-04-06T10:07:48Z</time></trkpt><trkpt lat="43.37671646149283" lon="10.502764448076066"><ele>54.0</ele><time>2026-04-06T10:07:49Z</time></trkpt><trkpt lat="43.37654048963456" lon="10.502775084651077"><ele>54.0</ele><time>2026-04-06T10:07:50Z</time></trkpt><trkpt lat="43.376361338999516" lon="10.502781029093336"><ele>54.0</ele><time>2026-04-06T10:07:51Z</time></trkpt><trkpt lat="43.376182050912995" lon="10.502790250033586"><ele>53.33333333333333</ele><time>2026-04-06T10:07:52Z</time></trkpt><trkpt lat="43.37601612040884" lon="10.502795182894662"><ele>52.666666666666664</ele><time>2026-04-06T10:07:53Z</time></trkpt><trkpt lat="43.375860949713875" lon="10.502804707695581"><ele>52.0</ele><time>2026-04-06T10:07:54Z</time></trkpt><trkpt lat="43.3757180876238" lon="10.502810839502217"><ele>52.0</ele><time>2026-04-06T10:07:55Z</time></trkpt><trkpt lat="43.375579485877" lon="10.502816302658"><ele>52.0</ele><time>2026-04-06T10:07:56Z</time></trkpt><trkpt lat="43.3754505668017" lon="10.502821164880212"><ele>52.0</ele><time>2026-04-06T10:07:57Z</time></trkpt><trkpt lat="43.37532877001221" lon="10.50282383358614"><ele>52.0</ele><time>2026-04-06T10:07:58Z</time></trkpt><trkpt lat="43.3752107356768" lon="10.502834174378298"><ele>51.8</ele><time>2026-04-06T10:07:59Z</time></trkpt><trkpt lat="43.37509816160648" lon="10.502841936106126"><ele>51.6</ele><time>2026-04-06T10:08:00Z</time></trkpt><trkpt lat="43.37499530986798" lon="10.502848707733001"><ele>51.4</ele><time>2026-04-06T10:08:01Z</time></trkpt><trkpt lat="43.37490035568722" lon="10.502859752637326"><ele>51.199999999999996</ele><time>2026-04-06T10:08:02Z</time></trkpt><trkpt lat="43.37480973397591" lon="10.502875372933342"><ele>51.0</ele><time>2026-04-06T10:08:03Z</time></trkpt><trkpt lat="43.37472655512637" lon="10.502891424804712"><ele>50.666666666666664</ele><time>2026-04-06T10:08:04Z</time></trkpt><trkpt lat="43.37465353638902" lon="10.502913311777009"><ele>50.33333333333333</ele><time>2026-04-06T10:08:05Z</time></trkpt><trkpt lat="43.37458772600278" lon="10.502940402408129"><ele>50.0</ele><time>2026-04-06T10:08:06Z</time></trkpt><trkpt lat="43.37452388368396" lon="10.502974207857077"><ele>49.666666666666664</ele><time>2026-04-06T10:08:07Z</time></trkpt><trkpt lat="43.3744516929788" lon="10.503011204891406"><ele>49.33333333333333</ele><time>2026-04-06T10:08:08Z</time></trkpt><trkpt lat="43.37437460652631" lon="10.503046785153119"><ele>49.0</ele><time>2026-04-06T10:08:09Z</time></trkpt><trkpt lat="43.374300639311244" lon="10.503088839689886"><ele>48.857142857142854</ele><time>2026-04-06T10:08:10Z</time></trkpt><trkpt lat="43.3742308821207" lon="10.50313410104978"><ele>48.714285714285715</ele><time>2026-04-06T10:08:11Z</time></trkpt><trkpt lat="43.37417382956497" lon="10.503180925469412"><ele>48.57142857142857</ele><time>2026-04-06T10:08:12Z</time></trkpt><trkpt lat="43.3741211090567" lon="10.503228574729622"><ele>48.42857142857143</ele><time>2026-04-06T10:08:13Z</time></trkpt><trkpt lat="43.374065504542436" lon="10.503275049196521"><ele>48.285714285714285</ele><time>2026-04-06T10:08:14Z</time></trkpt><trkpt lat="43.37400008026311" lon="10.50334097005943"><ele>48.14285714285714</ele><time>2026-04-06T10:08:15Z</time></trkpt><trkpt lat="43.373939174588074" lon="10.503402336437302"><ele>48.0</ele><time>2026-04-06T10:08:16Z</time></trkpt><trkpt lat="43.373878575903206" lon="10.503457418817472"><ele>47.4</ele><time>2026-04-06T10:08:17Z</time></trkpt><trkpt lat="43.373788690081156" lon="10.503533416270438"><ele>46.8</ele><time>2026-04-06T10:08:19Z</time></trkpt><trkpt lat="43.37369730603462" lon="10.503609836008676"><ele>46.2</ele><time>2026-04-06T10:08:21Z</time></trkpt><trkpt lat="43.373627864959516" lon="10.503677118205013"><ele>45.6</ele><time>2026-04-06T10:08:23Z</time></trkpt><trkpt lat="43.37354682767953" lon="10.503757264750643"><ele>45.0</ele><time>2026-04-06T10:08:25Z</time></trkpt><trkpt lat="43.373451742072575" lon="10.503845048431455"><ele>45.0</ele><time>2026-04-06T10:08:27Z</time></trkpt><trkpt lat="43.37335768553205" lon="10.503929120713329"><ele>45.0</ele><time>2026-04-06T10:08:29Z</time></trkpt><trkpt lat="43.373270075415554" lon="10.504014364750304"><ele>45.0</ele><time>2026-04-06T10:08:31Z</time></trkpt><trkpt lat="43.37319067079137" lon="10.504089389187284"><ele>45.0</ele><time>2026-04-06T10:08:33Z</time></trkpt><trkpt lat="43.37313434618744" lon="10.504138462706303"><ele>45.0</ele><time>2026-04-06T10:08:35Z</time></trkpt><trkpt lat="43.37307627672419" lon="10.504176372549763"><ele>45.0</ele><time>2026-04-06T10:08:38Z</time></trkpt><trkpt lat="43.37295272473732" lon="10.504179203519923"><ele>44.4</ele><time>2026-04-06T10:08:40Z</time></trkpt><trkpt lat="43.37284893216226" lon="10.50419542813983"><ele>43.8</ele><time>2026-04-06T10:08:42Z</time></trkpt><trkpt lat="43.37275634401203" lon="10.50431440907248"><ele>43.2</ele><time>2026-04-06T10:08:44Z</time></trkpt><trkpt lat="43.37272111597556" lon="10.504407746492525"><ele>42.6</ele><time>2026-04-06T10:08:45Z</time></trkpt><trkpt lat="43.372684942657145" lon="10.504506923838461"><ele>42.0</ele><time>2026-04-06T10:08:46Z</time></trkpt><trkpt lat="43.37262288030445" lon="10.504595364145684"><ele>43.2</ele><time>2026-04-06T10:08:47Z</time></trkpt><trkpt lat="43.37254966079019" lon="10.5046655284144"><ele>44.400000000000006</ele><time>2026-04-06T10:08:48Z</time></trkpt><trkpt lat="43.37247279761108" lon="10.504730530916259"><ele>45.599999999999994</ele><time>2026-04-06T10:08:49Z</time></trkpt><trkpt lat="43.372395417299785" lon="10.504813553567388"><ele>46.8</ele><time>2026-04-06T10:08:50Z</time></trkpt><trkpt lat="43.37230839805731" lon="10.504899912153226"><ele>48.0</ele><time>2026-04-06T10:08:51Z</time></trkpt><trkpt lat="43.372218241455435" lon="10.504983186462082"><ele>47.5</ele><time>2026-04-06T10:08:52Z</time></trkpt><trkpt lat="43.37212250326103" lon="10.505062341230838"><ele>47.0</ele><time>2026-04-06T10:08:53Z</time></trkpt><trkpt lat="43.37202408262768" lon="10.505144306797236"><ele>46.5</ele><time>2026-04-06T10:08:54Z</time></trkpt><trkpt lat="43.3719235147414" lon="10.505221345127271"><ele>46.0</ele><time>2026-04-06T10:08:55Z</time></trkpt><trkpt lat="43.371817104719966" lon="10.50528926712049"><ele>46.0</ele><time>2026-04-06T10:08:56Z</time></trkpt><trkpt lat="43.37170496711358" lon="10.505351425726756"><ele>46.0</ele><time>2026-04-06T10:08:57Z</time></trkpt><trkpt lat="43.37159177360254" lon="10.505402262703978"><ele>46.0</ele><time>2026-04-06T10:08:58Z</time></trkpt><trkpt lat="43.371465627028975" lon="10.505445179506943"><ele>46.0</ele><time>2026-04-06T10:08:59Z</time></trkpt><trkpt lat="43.371338938268686" lon="10.505481868920448"><ele>47.0</ele><time>2026-04-06T10:09:00Z</time></trkpt><trkpt lat="43.37121388917316" lon="10.50552025266522"><ele>48.0</ele><time>2026-04-06T10:09:01Z</time></trkpt><trkpt lat="43.371086949553195" lon="10.505559943812314"><ele>49.0</ele><time>2026-04-06T10:09:02Z</time></trkpt><trkpt lat="43.370959447923575" lon="10.505598434486595"><ele>50.0</ele><time>2026-04-06T10:09:03Z</time></trkpt><trkpt lat="43.37083615061518" lon="10.50563868704024"><ele>50.0</ele><time>2026-04-06T10:09:04Z</time></trkpt><trkpt lat="43.37071390724645" lon="10.505675893145009"><ele>50.0</ele><time>2026-04-06T10:09:05Z</time></trkpt><trkpt lat="43.37058624637167" lon="10.505716648105919"><ele>50.0</ele><time>2026-04-06T10:09:06Z</time></trkpt><trkpt lat="43.37045053424168" lon="10.505756080022952"><ele>50.0</ele><time>2026-04-06T10:09:07Z</time></trkpt><trkpt lat="43.37032287129641" lon="10.505795640764006"><ele>50.75</ele><time>2026-04-06T10:09:08Z</time></trkpt><trkpt lat="43.37020581393306" lon="10.505825034539544"><ele>51.5</ele><time>2026-04-06T10:09:09Z</time></trkpt><trkpt lat="43.37009914443333" lon="10.505857759356127"><ele>52.25</ele><time>2026-04-06T10:09:10Z</time></trkpt><trkpt lat="43.369989983983636" lon="10.505896063030466"><ele>53.0</ele><time>2026-04-06T10:09:11Z</time></trkpt><trkpt lat="43.36987672835665" lon="10.505935038542127"><ele>53.0</ele><time>2026-04-06T10:09:12Z</time></trkpt><trkpt lat="43.36976131401231" lon="10.505970593826367"><ele>53.0</ele><time>2026-04-06T10:09:13Z</time></trkpt><trkpt lat="43.36963608846461" lon="10.50600957030907"><ele>53.0</ele><time>2026-04-06T10:09:14Z</time></trkpt><trkpt lat="43.369502275017844" lon="10.506053382264282"><ele>53.0</ele><time>2026-04-06T10:09:15Z</time></trkpt><trkpt lat="43.36936885416509" lon="10.506093461686644"><ele>53.0</ele><time>2026-04-06T10:09:16Z</time></trkpt><trkpt lat="43.36923502688134" lon="10.506134305433232"><ele>53.0</ele><time>2026-04-06T10:09:17Z</time></trkpt><trkpt lat="43.36909901078339" lon="10.506177534382935"><ele>53.0</ele><time>2026-04-06T10:09:18Z</time></trkpt><trkpt lat="43.36897277441743" lon="10.506216957622208"><ele>53.0</ele><time>2026-04-06T10:09:19Z</time></trkpt><trkpt lat="43.368854808747066" lon="10.506260165527332"><ele>53.0</ele><time>2026-04-06T10:09:20Z</time></trkpt><trkpt lat="43.368744546991266" lon="10.50629201161495"><ele>53.0</ele><time>2026-04-06T10:09:21Z</time></trkpt><trkpt lat="43.36864084810071" lon="10.506324565896051"><ele>53.0</ele><time>2026-04-06T10:09:22Z</time></trkpt><trkpt lat="43.368544766806096" lon="10.506356138578115"><ele>53.0</ele><time>2026-04-06T10:09:23Z</time></trkpt><trkpt lat="43.368448694946025" lon="10.50638987295045"><ele>53.0</ele><time>2026-04-06T10:09:24Z</time></trkpt><trkpt lat="43.36835131277585" lon="10.506424537294135"><ele>53.00000000000001</ele><time>2026-04-06T10:09:25Z</time></trkpt><trkpt lat="43.36825501037655" lon="10.506458645201661"><ele>53.0</ele><time>2026-04-06T10:09:26Z</time></trkpt><trkpt lat="43.36816761899424" lon="10.506489406788761"><ele>53.0</ele><time>2026-04-06T10:09:27Z</time></trkpt><trkpt lat="43.3680875679202" lon="10.506522344873304"><ele>53.0</ele><time>2026-04-06T10:09:28Z</time></trkpt><trkpt lat="43.368013995177044" lon="10.506554628484508"><ele>53.00000000000001</ele><time>2026-04-06T10:09:29Z</time></trkpt><trkpt lat="43.36794222758588" lon="10.506583488675684"><ele>53.0</ele><time>2026-04-06T10:09:30Z</time></trkpt><trkpt lat="43.36787374844585" lon="10.50660945365475"><ele>53.142857142857146</ele><time>2026-04-06T10:09:31Z</time></trkpt><trkpt lat="43.367805812955254" lon="10.50664480999121"><ele>53.285714285714285</ele><time>2026-04-06T10:09:32Z</time></trkpt><trkpt lat="43.367730172939005" lon="10.506677685977792"><ele>53.42857142857143</ele><time>2026-04-06T10:09:33Z</time></trkpt><trkpt lat="43.36765815571804" lon="10.506713379071215"><ele>53.57142857142857</ele><time>2026-04-06T10:09:34Z</time></trkpt><trkpt lat="43.36758853125587" lon="10.50675032039033"><ele>53.71428571428571</ele><time>2026-04-06T10:09:35Z</time></trkpt><trkpt lat="43.367526502579345" lon="10.506785144609863"><ele>53.857142857142854</ele><time>2026-04-06T10:09:36Z</time></trkpt><trkpt lat="43.3674675204655" lon="10.506821103683645"><ele>54.0</ele><time>2026-04-06T10:09:37Z</time></trkpt><trkpt lat="43.36735147693675" lon="10.50688166268449"><ele>54.0</ele><time>2026-04-06T10:09:39Z</time></trkpt><trkpt lat="43.367251737091166" lon="10.506941226522615"><ele>54.00000000000001</ele><time>2026-04-06T10:09:41Z</time></trkpt><trkpt lat="43.367155582747024" lon="10.506989551056117"><ele>54.00000000000001</ele><time>2026-04-06T10:09:43Z</time></trkpt><trkpt lat="43.36706442576435" lon="10.507035167163309"><ele>54.0</ele><time>2026-04-06T10:09:45Z</time></trkpt><trkpt lat="43.36694973198634" lon="10.507095225944965"><ele>54.0</ele><time>2026-04-06T10:09:47Z</time></trkpt><trkpt lat="43.36688209409582" lon="10.50712351974928"><ele>53.833333333333336</ele><time>2026-04-06T10:09:48Z</time></trkpt><trkpt lat="43.36681373479539" lon="10.507147442509938"><ele>53.66666666666667</ele><time>2026-04-06T10:09:49Z</time></trkpt><trkpt lat="43.36674405491123" lon="10.507172120740833"><ele>53.5</ele><time>2026-04-06T10:09:50Z</time></trkpt><trkpt lat="43.366680688754336" lon="10.507188613460226"><ele>53.333333333333336</ele><time>2026-04-06T10:09:51Z</time></trkpt><trkpt lat="43.36657161965513" lon="10.507205383495215"><ele>53.16666666666667</ele><time>2026-04-06T10:09:53Z</time></trkpt><trkpt lat="43.36648286103236" lon="10.507188215629178"><ele>53.0</ele><time>2026-04-06T10:09:55Z</time></trkpt><trkpt lat="43.36636797706267" lon="10.507141377714118"><ele>53.0</ele><time>2026-04-06T10:09:57Z</time></trkpt><trkpt lat="43.36630494636303" lon="10.50710374431852"><ele>53.0</ele><time>2026-04-06T10:09:58Z</time></trkpt><trkpt lat="43.36623054341068" lon="10.507090322160392"><ele>53.0</ele><time>2026-04-06T10:09:59Z</time></trkpt><trkpt lat="43.366166536694436" lon="10.507107118130905"><ele>53.0</ele><time>2026-04-06T10:10:00Z</time></trkpt><trkpt lat="43.36610680805049" lon="10.507156305145479"><ele>53.0</ele><time>2026-04-06T10:10:01Z</time></trkpt><trkpt lat="43.36605733105434" lon="10.507228026424453"><ele>53.0</ele><time>2026-04-06T10:10:02Z</time></trkpt><trkpt lat="43.366013078502725" lon="10.50731115629268"><ele>53.0</ele><time>2026-04-06T10:10:03Z</time></trkpt><trkpt lat="43.36595162617295" lon="10.507384029497828"><ele>53.0</ele><time>2026-04-06T10:10:04Z</time></trkpt><trkpt lat="43.36586665340073" lon="10.50743840829948"><ele>53.0</ele><time>2026-04-06T10:10:05Z</time></trkpt><trkpt lat="43.365771389065095" lon="10.507481312743424"><ele>53.0</ele><time>2026-04-06T10:10:06Z</time></trkpt><trkpt lat="43.365667675696834" lon="10.507529273799047"><ele>53.0</ele><time>2026-04-06T10:10:07Z</time></trkpt><trkpt lat="43.365561073278904" lon="10.507577090538083"><ele>53.0</ele><time>2026-04-06T10:10:08Z</time></trkpt><trkpt lat="43.365447524599794" lon="10.507611589039136"><ele>52.5</ele><time>2026-04-06T10:10:09Z</time></trkpt><trkpt lat="43.365326020223755" lon="10.507647834340927"><ele>52.0</ele><time>2026-04-06T10:10:10Z</time></trkpt><trkpt lat="43.36520100182356" lon="10.507689358673435"><ele>51.5</ele><time>2026-04-06T10:10:11Z</time></trkpt><trkpt lat="43.36506925272871" lon="10.507741606302508"><ele>51.0</ele><time>2026-04-06T10:10:12Z</time></trkpt><trkpt lat="43.36493960393219" lon="10.50780292973833"><ele>51.0</ele><time>2026-04-06T10:10:13Z</time></trkpt><trkpt lat="43.36481099244558" lon="10.507873930988184"><ele>51.0</ele><time>2026-04-06T10:10:14Z</time></trkpt><trkpt lat="43.36467988457182" lon="10.507962028362066"><ele>51.0</ele><time>2026-04-06T10:10:15Z</time></trkpt><trkpt lat="43.36455070666018" lon="10.508058544408563"><ele>51.0</ele><time>2026-04-06T10:10:16Z</time></trkpt><trkpt lat="43.36441962493221" lon="10.508165372030028"><ele>50.66666666666667</ele><time>2026-04-06T10:10:17Z</time></trkpt><trkpt lat="43.36428679104061" lon="10.5082784083203"><ele>50.333333333333336</ele><time>2026-04-06T10:10:18Z</time></trkpt><trkpt lat="43.36414778468576" lon="10.508390939722881"><ele>50.0</ele><time>2026-04-06T10:10:19Z</time></trkpt><trkpt lat="43.36401078313406" lon="10.5085061782424"><ele>50.0</ele><time>2026-04-06T10:10:20Z</time></trkpt><trkpt lat="43.36387279843086" lon="10.508616101945488"><ele>50.0</ele><time>2026-04-06T10:10:21Z</time></trkpt><trkpt lat="43.36373434603039" lon="10.508728439820958"><ele>50.0</ele><time>2026-04-06T10:10:22Z</time></trkpt><trkpt lat="43.36359747568788" lon="10.508835959690764"><ele>49.66666666666667</ele><time>2026-04-06T10:10:23Z</time></trkpt><trkpt lat="43.363457722672145" lon="10.508939827341974"><ele>49.33333333333333</ele><time>2026-04-06T10:10:24Z</time></trkpt><trkpt lat="43.36332481164904" lon="10.509049799986837"><ele>49.0</ele><time>2026-04-06T10:10:25Z</time></trkpt><trkpt lat="43.36318456330151" lon="10.50916954696812"><ele>49.0</ele><time>2026-04-06T10:10:26Z</time></trkpt><trkpt lat="43.363043416812125" lon="10.509283796159817"><ele>49.0</ele><time>2026-04-06T10:10:27Z</time></trkpt><trkpt lat="43.36290861959052" lon="10.50939720623177"><ele>49.0</ele><time>2026-04-06T10:10:28Z</time></trkpt><trkpt lat="43.36277038798394" lon="10.50950990549735"><ele>48.33333333333333</ele><time>2026-04-06T10:10:29Z</time></trkpt><trkpt lat="43.36262596419796" lon="10.509619252953135"><ele>47.666666666666664</ele><time>2026-04-06T10:10:30Z</time></trkpt><trkpt lat="43.362472895762416" lon="10.50973014081933"><ele>47.0</ele><time>2026-04-06T10:10:31Z</time></trkpt><trkpt lat="43.36231987093925" lon="10.509836860306608"><ele>47.33333333333333</ele><time>2026-04-06T10:10:32Z</time></trkpt><trkpt lat="43.36215516655896" lon="10.509928807223611"><ele>47.666666666666664</ele><time>2026-04-06T10:10:33Z</time></trkpt><trkpt lat="43.361990127651936" lon="10.510004556124992"><ele>48.0</ele><time>2026-04-06T10:10:34Z</time></trkpt><trkpt lat="43.36183543262509" lon="10.510074596455922"><ele>48.0</ele><time>2026-04-06T10:10:35Z</time></trkpt><trkpt lat="43.36168461307756" lon="10.510131563891136"><ele>48.0</ele><time>2026-04-06T10:10:36Z</time></trkpt><trkpt lat="43.36154256577817" lon="10.510172985291085"><ele>48.0</ele><time>2026-04-06T10:10:37Z</time></trkpt><trkpt lat="43.36140575131243" lon="10.510210162520638"><ele>48.0</ele><time>2026-04-06T10:10:38Z</time></trkpt><trkpt lat="43.361270017627916" lon="10.5102506515756"><ele>48.5</ele><time>2026-04-06T10:10:39Z</time></trkpt><trkpt lat="43.3611338458807" lon="10.510290129261488"><ele>49.0</ele><time>2026-04-06T10:10:40Z</time></trkpt><trkpt lat="43.360993543347874" lon="10.510321864654989"><ele>49.5</ele><time>2026-04-06T10:10:41Z</time></trkpt><trkpt lat="43.36085545729967" lon="10.510339962148453"><ele>50.0</ele><time>2026-04-06T10:10:42Z</time></trkpt><trkpt lat="43.360715676604144" lon="10.510343604476526"><ele>50.0</ele><time>2026-04-06T10:10:43Z</time></trkpt><trkpt lat="43.36057386449735" lon="10.510334280413387"><ele>50.0</ele><time>2026-04-06T10:10:44Z</time></trkpt><trkpt lat="43.36043653623569" lon="10.510317513981963"><ele>50.0</ele><time>2026-04-06T10:10:45Z</time></trkpt><trkpt lat="43.36029917269917" lon="10.510291046553132"><ele>50.0</ele><time>2026-04-06T10:10:46Z</time></trkpt><trkpt lat="43.36016396200181" lon="10.510248228864834"><ele>49.75</ele><time>2026-04-06T10:10:47Z</time></trkpt><trkpt lat="43.360031828450815" lon="10.510185984934811"><ele>49.5</ele><time>2026-04-06T10:10:48Z</time></trkpt><trkpt lat="43.359902857691885" lon="10.5101094584379"><ele>49.25</ele><time>2026-04-06T10:10:49Z</time></trkpt><trkpt lat="43.35977613720401" lon="10.510025371370642"><ele>49.0</ele><time>2026-04-06T10:10:50Z</time></trkpt><trkpt lat="43.359649678631556" lon="10.509942291731752"><ele>48.0</ele><time>2026-04-06T10:10:51Z</time></trkpt><trkpt lat="43.359524911663605" lon="10.50986610524555"><ele>47.0</ele><time>2026-04-06T10:10:52Z</time></trkpt><trkpt lat="43.35940480522106" lon="10.509780586640195"><ele>46.0</ele><time>2026-04-06T10:10:53Z</time></trkpt><trkpt lat="43.35928953700555" lon="10.509695881415722"><ele>45.0</ele><time>2026-04-06T10:10:54Z</time></trkpt><trkpt lat="43.3591720147179" lon="10.509594380280717"><ele>45.0</ele><time>2026-04-06T10:10:55Z</time></trkpt><trkpt lat="43.35904473638633" lon="10.509484876332772"><ele>45.0</ele><time>2026-04-06T10:10:56Z</time></trkpt><trkpt lat="43.35891387234924" lon="10.509360106763179"><ele>45.0</ele><time>2026-04-06T10:10:57Z</time></trkpt><trkpt lat="43.35877819732345" lon="10.50924535385105"><ele>44.666666666666664</ele><time>2026-04-06T10:10:58Z</time></trkpt><trkpt lat="43.35865266684757" lon="10.509108231922497"><ele>44.33333333333333</ele><time>2026-04-06T10:10:59Z</time></trkpt><trkpt lat="43.35851301892905" lon="10.508982747576491"><ele>44.0</ele><time>2026-04-06T10:11:00Z</time></trkpt><trkpt lat="43.35838025301818" lon="10.508863447315493"><ele>44.0</ele><time>2026-04-06T10:11:01Z</time></trkpt><trkpt lat="43.35824277244726" lon="10.508763225175683"><ele>44.0</ele><time>2026-04-06T10:11:02Z</time></trkpt><trkpt lat="43.35811856666853" lon="10.508638639177976"><ele>44.0</ele><time>2026-04-06T10:11:03Z</time></trkpt><trkpt lat="43.357993351193045" lon="10.508525341265061"><ele>44.0</ele><time>2026-04-06T10:11:04Z</time></trkpt><trkpt lat="43.357871308227665" lon="10.50842006675638"><ele>44.0</ele><time>2026-04-06T10:11:05Z</time></trkpt><trkpt lat="43.35774864133241" lon="10.50831186316743"><ele>44.0</ele><time>2026-04-06T10:11:06Z</time></trkpt><trkpt lat="43.35761683902485" lon="10.508195050363208"><ele>44.0</ele><time>2026-04-06T10:11:07Z</time></trkpt><trkpt lat="43.35748571888156" lon="10.508082061951566"><ele>44.0</ele><time>2026-04-06T10:11:08Z</time></trkpt><trkpt lat="43.35735208505551" lon="10.507972306613617"><ele>44.0</ele><time>2026-04-06T10:11:09Z</time></trkpt><trkpt lat="43.357208770511235" lon="10.507872283953533"><ele>44.0</ele><time>2026-04-06T10:11:10Z</time></trkpt><trkpt lat="43.35706749756506" lon="10.507756486162386"><ele>43.33333333333333</ele><time>2026-04-06T10:11:11Z</time></trkpt><trkpt lat="43.356914432210615" lon="10.507667884144457"><ele>42.666666666666664</ele><time>2026-04-06T10:11:12Z</time></trkpt><trkpt lat="43.35675836653525" lon="10.507593096544346"><ele>42.0</ele><time>2026-04-06T10:11:13Z</time></trkpt><trkpt lat="43.35659572598844" lon="10.507527283926372"><ele>42.0</ele><time>2026-04-06T10:11:14Z</time></trkpt><trkpt lat="43.35642972476273" lon="10.50749304309558"><ele>42.0</ele><time>2026-04-06T10:11:15Z</time></trkpt><trkpt lat="43.356272016222306" lon="10.50744642121234"><ele>42.0</ele><time>2026-04-06T10:11:16Z</time></trkpt><trkpt lat="43.3561185934958" lon="10.507403195938496"><ele>41.0</ele><time>2026-04-06T10:11:17Z</time></trkpt><trkpt lat="43.3559660464559" lon="10.507364057976721"><ele>40.0</ele><time>2026-04-06T10:11:18Z</time></trkpt><trkpt lat="43.35582283777751" lon="10.50732947762519"><ele>39.0</ele><time>2026-04-06T10:11:19Z</time></trkpt><trkpt lat="43.35568090690018" lon="10.507298080424421"><ele>38.0</ele><time>2026-04-06T10:11:20Z</time></trkpt><trkpt lat="43.35554870742374" lon="10.507268572542092"><ele>38.5</ele><time>2026-04-06T10:11:21Z</time></trkpt><trkpt lat="43.355421009604086" lon="10.50724065119875"><ele>39.0</ele><time>2026-04-06T10:11:22Z</time></trkpt><trkpt lat="43.35530069826641" lon="10.507213571876896"><ele>39.5</ele><time>2026-04-06T10:11:23Z</time></trkpt><trkpt lat="43.355192289840744" lon="10.507186319027157"><ele>40.0</ele><time>2026-04-06T10:11:24Z</time></trkpt><trkpt lat="43.355095560918905" lon="10.507164492275262"><ele>40.0</ele><time>2026-04-06T10:11:25Z</time></trkpt><trkpt lat="43.355007943932186" lon="10.507142173306505"><ele>40.0</ele><time>2026-04-06T10:11:26Z</time></trkpt><trkpt lat="43.35492596049838" lon="10.507119331320217"><ele>40.0</ele><time>2026-04-06T10:11:27Z</time></trkpt><trkpt lat="43.35485665479563" lon="10.507081844728093"><ele>40.0</ele><time>2026-04-06T10:11:28Z</time></trkpt><trkpt lat="43.354792572371295" lon="10.507026493900321"><ele>40.0</ele><time>2026-04-06T10:11:29Z</time></trkpt><trkpt lat="43.3547333040065" lon="10.50695156279852"><ele>40.0</ele><time>2026-04-06T10:11:30Z</time></trkpt><trkpt lat="43.35464918898347" lon="10.506914878882188"><ele>39.2</ele><time>2026-04-06T10:11:31Z</time></trkpt><trkpt lat="43.35455108330406" lon="10.506944520977036"><ele>38.4</ele><time>2026-04-06T10:11:32Z</time></trkpt><trkpt lat="43.35444658834395" lon="10.506934962838072"><ele>37.6</ele><time>2026-04-06T10:11:33Z</time></trkpt><trkpt lat="43.35433573032923" lon="10.506899771178196"><ele>36.8</ele><time>2026-04-06T10:11:34Z</time></trkpt><trkpt lat="43.354219425707115" lon="10.506847427345512"><ele>36.0</ele><time>2026-04-06T10:11:35Z</time></trkpt><trkpt lat="43.35410076507808" lon="10.506781838931925"><ele>36.0</ele><time>2026-04-06T10:11:36Z</time></trkpt><trkpt lat="43.35397713264276" lon="10.506708793091224"><ele>36.0</ele><time>2026-04-06T10:11:37Z</time></trkpt><trkpt lat="43.353849753529744" lon="10.50663993130849"><ele>36.0</ele><time>2026-04-06T10:11:38Z</time></trkpt><trkpt lat="43.35372137923658" lon="10.506566096988811"><ele>36.0</ele><time>2026-04-06T10:11:39Z</time></trkpt><trkpt lat="43.353586784780575" lon="10.506487919440781"><ele>36.0</ele><time>2026-04-06T10:11:40Z</time></trkpt><trkpt lat="43.35344712775019" lon="10.506406706640435"><ele>36.0</ele><time>2026-04-06T10:11:41Z</time></trkpt><trkpt lat="43.35329623599795" lon="10.506322050371935"><ele>36.0</ele><time>2026-04-06T10:11:42Z</time></trkpt><trkpt lat="43.35314260195138" lon="10.506235196108994"><ele>36.0</ele><time>2026-04-06T10:11:43Z</time></trkpt><trkpt lat="43.352995846256505" lon="10.506149476407437"><ele>36.0</ele><time>2026-04-06T10:11:44Z</time></trkpt><trkpt lat="43.35285768450751" lon="10.506071593778309"><ele>36.0</ele><time>2026-04-06T10:11:45Z</time></trkpt><trkpt lat="43.35271651815288" lon="10.50600177291864"><ele>36.0</ele><time>2026-04-06T10:11:46Z</time></trkpt><trkpt lat="43.352581095137474" lon="10.505917471709216"><ele>36.0</ele><time>2026-04-06T10:11:47Z</time></trkpt><trkpt lat="43.35244356545091" lon="10.505835805880361"><ele>36.0</ele><time>2026-04-06T10:11:48Z</time></trkpt><trkpt lat="43.352305074331106" lon="10.505759016829582"><ele>36.0</ele><time>2026-04-06T10:11:49Z</time></trkpt><trkpt lat="43.35216519084933" lon="10.505681199910203"><ele>35.666666666666664</ele><time>2026-04-06T10:11:50Z</time></trkpt><trkpt lat="43.3520254709206" lon="10.505600014406228"><ele>35.33333333333333</ele><time>2026-04-06T10:11:51Z</time></trkpt><trkpt lat="43.35188772186368" lon="10.505519222572127"><ele>35.0</ele><time>2026-04-06T10:11:52Z</time></trkpt><trkpt lat="43.35175037605405" lon="10.505441784674941"><ele>34.666666666666664</ele><time>2026-04-06T10:11:53Z</time></trkpt><trkpt lat="43.35161057763373" lon="10.50537002355612"><ele>34.333333333333336</ele><time>2026-04-06T10:11:54Z</time></trkpt><trkpt lat="43.35147310923827" lon="10.505292750154965"><ele>34.0</ele><time>2026-04-06T10:11:55Z</time></trkpt><trkpt lat="43.35133077690261" lon="10.505214778542246"><ele>33.333333333333336</ele><time>2026-04-06T10:11:56Z</time></trkpt><trkpt lat="43.351187639957665" lon="10.50513010550593"><ele>32.666666666666664</ele><time>2026-04-06T10:11:57Z</time></trkpt><trkpt lat="43.35104112898827" lon="10.505045955105585"><ele>32.0</ele><time>2026-04-06T10:11:58Z</time></trkpt><trkpt lat="43.350893617763376" lon="10.504963159844642"><ele>32.0</ele><time>2026-04-06T10:11:59Z</time></trkpt><trkpt lat="43.35075308583268" lon="10.504884328340847"><ele>32.0</ele><time>2026-04-06T10:12:00Z</time></trkpt><trkpt lat="43.350616463202485" lon="10.504805707896912"><ele>32.0</ele><time>2026-04-06T10:12:01Z</time></trkpt><trkpt lat="43.350479768942826" lon="10.504723703411624"><ele>32.0</ele><time>2026-04-06T10:12:02Z</time></trkpt><trkpt lat="43.35033998143861" lon="10.50464351977103"><ele>31.333333333333332</ele><time>2026-04-06T10:12:03Z</time></trkpt><trkpt lat="43.35019801572726" lon="10.504563494284316"><ele>30.666666666666664</ele><time>2026-04-06T10:12:04Z</time></trkpt><trkpt lat="43.35005311644538" lon="10.504484173436373"><ele>30.0</ele><time>2026-04-06T10:12:05Z</time></trkpt><trkpt lat="43.34990833343942" lon="10.504403075954398"><ele>30.0</ele><time>2026-04-06T10:12:06Z</time></trkpt><trkpt lat="43.34977021521978" lon="10.504327493356993"><ele>30.0</ele><time>2026-04-06T10:12:07Z</time></trkpt><trkpt lat="43.34963436085987" lon="10.504258159556427"><ele>30.0</ele><time>2026-04-06T10:12:08Z</time></trkpt><trkpt lat="43.349504517817486" lon="10.504192714970214"><ele>30.0</ele><time>2026-04-06T10:12:09Z</time></trkpt><trkpt lat="43.349375631806666" lon="10.504138102965918"><ele>30.0</ele><time>2026-04-06T10:12:10Z</time></trkpt><trkpt lat="43.349254157533935" lon="10.50408643890352"><ele>30.0</ele><time>2026-04-06T10:12:11Z</time></trkpt><trkpt lat="43.349132939878984" lon="10.50404320995417"><ele>30.0</ele><time>2026-04-06T10:12:12Z</time></trkpt><trkpt lat="43.34901294226595" lon="10.504009245248163"><ele>30.0</ele><time>2026-04-06T10:12:13Z</time></trkpt><trkpt lat="43.348899844978575" lon="10.503974515774136"><ele>30.0</ele><time>2026-04-06T10:12:14Z</time></trkpt><trkpt lat="43.348788309861845" lon="10.503946203092857"><ele>30.0</ele><time>2026-04-06T10:12:15Z</time></trkpt><trkpt lat="43.34867991213511" lon="10.503918648029787"><ele>30.0</ele><time>2026-04-06T10:12:16Z</time></trkpt><trkpt lat="43.34857545607381" lon="10.503891137808191"><ele>30.0</ele><time>2026-04-06T10:12:17Z</time></trkpt><trkpt lat="43.348478093856826" lon="10.50386651379238"><ele>30.0</ele><time>2026-04-06T10:12:18Z</time></trkpt><trkpt lat="43.348390400088626" lon="10.50384362613341"><ele>30.0</ele><time>2026-04-06T10:12:19Z</time></trkpt><trkpt lat="43.34830698348457" lon="10.503809947258882"><ele>30.0</ele><time>2026-04-06T10:12:20Z</time></trkpt><trkpt lat="43.34823308242046" lon="10.503762013571599"><ele>30.0</ele><time>2026-04-06T10:12:21Z</time></trkpt><trkpt lat="43.3481744054004" lon="10.503691938400555"><ele>30.0</ele><time>2026-04-06T10:12:22Z</time></trkpt><trkpt lat="43.34810400896183" lon="10.503656445397487"><ele>30.0</ele><time>2026-04-06T10:12:23Z</time></trkpt><trkpt lat="43.34801660092044" lon="10.50367835304377"><ele>30.0</ele><time>2026-04-06T10:12:24Z</time></trkpt><trkpt lat="43.34793559862392" lon="10.503756384945518"><ele>29.5</ele><time>2026-04-06T10:12:25Z</time></trkpt><trkpt lat="43.34784915596342" lon="10.503802270621783"><ele>29.0</ele><time>2026-04-06T10:12:26Z</time></trkpt><trkpt lat="43.347739225285" lon="10.503832867327349"><ele>28.5</ele><time>2026-04-06T10:12:27Z</time></trkpt><trkpt lat="43.347617852860864" lon="10.503861801107771"><ele>28.0</ele><time>2026-04-06T10:12:28Z</time></trkpt><trkpt lat="43.34749063638041" lon="10.503881850055308"><ele>28.0</ele><time>2026-04-06T10:12:29Z</time></trkpt><trkpt lat="43.34736579442074" lon="10.503904679147208"><ele>28.0</ele><time>2026-04-06T10:12:30Z</time></trkpt><trkpt lat="43.34724282869817" lon="10.503926998402415"><ele>28.0</ele><time>2026-04-06T10:12:31Z</time></trkpt><trkpt lat="43.34711995760394" lon="10.50393621307073"><ele>28.0</ele><time>2026-04-06T10:12:32Z</time></trkpt><trkpt lat="43.34699394028225" lon="10.503949410416265"><ele>28.25</ele><time>2026-04-06T10:12:33Z</time></trkpt><trkpt lat="43.346863124311355" lon="10.50397184821948"><ele>28.5</ele><time>2026-04-06T10:12:34Z</time></trkpt><trkpt lat="43.34673245737937" lon="10.503992146241016"><ele>28.75</ele><time>2026-04-06T10:12:35Z</time></trkpt><trkpt lat="43.34659929567897" lon="10.504010481579872"><ele>29.0</ele><time>2026-04-06T10:12:36Z</time></trkpt><trkpt lat="43.346462448272234" lon="10.504033164480049"><ele>28.25</ele><time>2026-04-06T10:12:37Z</time></trkpt><trkpt lat="43.34632658762383" lon="10.50405720638924"><ele>27.5</ele><time>2026-04-06T10:12:38Z</time></trkpt><trkpt lat="43.34619047334662" lon="10.504076756148965"><ele>26.75</ele><time>2026-04-06T10:12:39Z</time></trkpt><trkpt lat="43.346050896289626" lon="10.50409876382978"><ele>26.0</ele><time>2026-04-06T10:12:40Z</time></trkpt><trkpt lat="43.3459100723495" lon="10.504124137095575"><ele>26.0</ele><time>2026-04-06T10:12:41Z</time></trkpt><trkpt lat="43.34577027496274" lon="10.504153128216563"><ele>26.0</ele><time>2026-04-06T10:12:42Z</time></trkpt><trkpt lat="43.34562775251682" lon="10.504179140278362"><ele>26.0</ele><time>2026-04-06T10:12:43Z</time></trkpt><trkpt lat="43.34548204573773" lon="10.504205871112157"><ele>26.0</ele><time>2026-04-06T10:12:44Z</time></trkpt><trkpt lat="43.34533607601457" lon="10.5042276443119"><ele>26.0</ele><time>2026-04-06T10:12:45Z</time></trkpt><trkpt lat="43.345187303386" lon="10.504253018279861"><ele>26.0</ele><time>2026-04-06T10:12:46Z</time></trkpt><trkpt lat="43.34503859538563" lon="10.504277124513491"><ele>26.0</ele><time>2026-04-06T10:12:47Z</time></trkpt><trkpt lat="43.34488929577311" lon="10.504302024104879"><ele>26.0</ele><time>2026-04-06T10:12:48Z</time></trkpt><trkpt lat="43.344741973781765" lon="10.504329861917853"><ele>26.0</ele><time>2026-04-06T10:12:49Z</time></trkpt><trkpt lat="43.344602084961345" lon="10.504350845371874"><ele>26.0</ele><time>2026-04-06T10:12:50Z</time></trkpt><trkpt lat="43.34446630617501" lon="10.50436926771794"><ele>26.0</ele><time>2026-04-06T10:12:51Z</time></trkpt><trkpt lat="43.34433142146166" lon="10.504391945062967"><ele>25.25</ele><time>2026-04-06T10:12:52Z</time></trkpt><trkpt lat="43.344192707163536" lon="10.50441555247011"><ele>24.5</ele><time>2026-04-06T10:12:53Z</time></trkpt><trkpt lat="43.34405047571956" lon="10.504440794494009"><ele>23.75</ele><time>2026-04-06T10:12:54Z</time></trkpt><trkpt lat="43.343907460582464" lon="10.504465294680474"><ele>23.0</ele><time>2026-04-06T10:12:55Z</time></trkpt><trkpt lat="43.3437629900525" lon="10.504491806814666"><ele>22.75</ele><time>2026-04-06T10:12:56Z</time></trkpt><trkpt lat="43.3436155977424" lon="10.504513252124443"><ele>22.5</ele><time>2026-04-06T10:12:57Z</time></trkpt><trkpt lat="43.34347130359226" lon="10.504533908630385"><ele>22.25</ele><time>2026-04-06T10:12:58Z</time></trkpt><trkpt lat="43.34333076794473" lon="10.504558401318802"><ele>22.0</ele><time>2026-04-06T10:12:59Z</time></trkpt><trkpt lat="43.34319079551864" lon="10.504579336005238"><ele>22.25</ele><time>2026-04-06T10:13:00Z</time></trkpt><trkpt lat="43.34304997829071" lon="10.504605649550996"><ele>22.5</ele><time>2026-04-06T10:13:01Z</time></trkpt><trkpt lat="43.34290900233701" lon="10.504633266186657"><ele>22.75</ele><time>2026-04-06T10:13:02Z</time></trkpt><trkpt lat="43.3427682236714" lon="10.504657389455234"><ele>23.0</ele><time>2026-04-06T10:13:03Z</time></trkpt><trkpt lat="43.34263002249828" lon="10.504679814935763"><ele>22.75</ele><time>2026-04-06T10:13:04Z</time></trkpt><trkpt lat="43.34249101549747" lon="10.504704219581894"><ele>22.5</ele><time>2026-04-06T10:13:05Z</time></trkpt><trkpt lat="43.34235041480484" lon="10.504726468118218"><ele>22.25</ele><time>2026-04-06T10:13:06Z</time></trkpt><trkpt lat="43.342213792924625" lon="10.504744554320693"><ele>22.0</ele><time>2026-04-06T10:13:07Z</time></trkpt><trkpt lat="43.34207734405736" lon="10.504767201489765"><ele>22.0</ele><time>2026-04-06T10:13:08Z</time></trkpt><trkpt lat="43.34193944145557" lon="10.504790102818053"><ele>22.0</ele><time>2026-04-06T10:13:09Z</time></trkpt><trkpt lat="43.34180375520678" lon="10.504811879137645"><ele>22.0</ele><time>2026-04-06T10:13:10Z</time></trkpt><trkpt lat="43.34167752886614" lon="10.504824422386488"><ele>22.0</ele><time>2026-04-06T10:13:11Z</time></trkpt><trkpt lat="43.341552832973" lon="10.50483523092601"><ele>22.0</ele><time>2026-04-06T10:13:12Z</time></trkpt><trkpt lat="43.341426209262536" lon="10.504855831371142"><ele>22.0</ele><time>2026-04-06T10:13:13Z</time></trkpt><trkpt lat="43.34129695614656" lon="10.504879270672326"><ele>22.0</ele><time>2026-04-06T10:13:14Z</time></trkpt><trkpt lat="43.34116873005252" lon="10.50489597049152"><ele>22.0</ele><time>2026-04-06T10:13:15Z</time></trkpt><trkpt lat="43.3410390458999" lon="10.504920383199192"><ele>21.5</ele><time>2026-04-06T10:13:16Z</time></trkpt><trkpt lat="43.34090909467703" lon="10.504945207215055"><ele>21.0</ele><time>2026-04-06T10:13:17Z</time></trkpt><trkpt lat="43.340783652036976" lon="10.504975141996972"><ele>20.5</ele><time>2026-04-06T10:13:18Z</time></trkpt><trkpt lat="43.34066629988854" lon="10.505009199381218"><ele>20.0</ele><time>2026-04-06T10:13:19Z</time></trkpt><trkpt lat="43.34056188977493" lon="10.505040585236815"><ele>20.5</ele><time>2026-04-06T10:13:20Z</time></trkpt><trkpt lat="43.34046402870588" lon="10.505071991452729"><ele>21.0</ele><time>2026-04-06T10:13:21Z</time></trkpt><trkpt lat="43.340371748099116" lon="10.505102946174134"><ele>21.5</ele><time>2026-04-06T10:13:22Z</time></trkpt><trkpt lat="43.3402840915705" lon="10.505129939841925"><ele>22.0</ele><time>2026-04-06T10:13:23Z</time></trkpt><trkpt lat="43.34019990079635" lon="10.505138319968209"><ele>22.5</ele><time>2026-04-06T10:13:24Z</time></trkpt><trkpt lat="43.340124425654864" lon="10.505132586661304"><ele>23.0</ele><time>2026-04-06T10:13:25Z</time></trkpt><trkpt lat="43.340040825488515" lon="10.505148938375598"><ele>23.0</ele><time>2026-04-06T10:13:26Z</time></trkpt><trkpt lat="43.33994560505616" lon="10.50517913442581"><ele>23.0</ele><time>2026-04-06T10:13:27Z</time></trkpt><trkpt lat="43.3398292242142" lon="10.50520210354055"><ele>23.0</ele><time>2026-04-06T10:13:28Z</time></trkpt><trkpt lat="43.33970077277813" lon="10.505193921814092"><ele>23.0</ele><time>2026-04-06T10:13:29Z</time></trkpt><trkpt lat="43.3395690258401" lon="10.50518651735243"><ele>21.75</ele><time>2026-04-06T10:13:30Z</time></trkpt><trkpt lat="43.33943223228507" lon="10.505191684274479"><ele>20.5</ele><time>2026-04-06T10:13:31Z</time></trkpt><trkpt lat="43.33929113485303" lon="10.505212383787756"><ele>19.25</ele><time>2026-04-06T10:13:32Z</time></trkpt><trkpt lat="43.33914872658835" lon="10.505232192532642"><ele>18.0</ele><time>2026-04-06T10:13:33Z</time></trkpt><trkpt lat="43.33901188368825" lon="10.505250565560473"><ele>17.0</ele><time>2026-04-06T10:13:34Z</time></trkpt><trkpt lat="43.33886918447257" lon="10.505271691768359"><ele>16.0</ele><time>2026-04-06T10:13:35Z</time></trkpt><trkpt lat="43.338723068845574" lon="10.50528883205047"><ele>15.0</ele><time>2026-04-06T10:13:36Z</time></trkpt><trkpt lat="43.33857117340603" lon="10.505307861602779"><ele>14.0</ele><time>2026-04-06T10:13:37Z</time></trkpt><trkpt lat="43.33841516520804" lon="10.505328920236416"><ele>14.0</ele><time>2026-04-06T10:13:38Z</time></trkpt><trkpt lat="43.33825694263304" lon="10.50535623140889"><ele>14.0</ele><time>2026-04-06T10:13:39Z</time></trkpt><trkpt lat="43.338099783812105" lon="10.505382063501587"><ele>14.0</ele><time>2026-04-06T10:13:40Z</time></trkpt><trkpt lat="43.337939442318046" lon="10.505409122348354"><ele>14.0</ele><time>2026-04-06T10:13:41Z</time></trkpt><trkpt lat="43.33778347669736" lon="10.505428079327304"><ele>14.0</ele><time>2026-04-06T10:13:42Z</time></trkpt><trkpt lat="43.33762247717191" lon="10.505453250150936"><ele>14.0</ele><time>2026-04-06T10:13:43Z</time></trkpt><trkpt lat="43.33746093992177" lon="10.505476828585614"><ele>14.0</ele><time>2026-04-06T10:13:44Z</time></trkpt><trkpt lat="43.33729801256385" lon="10.505499454768556"><ele>14.0</ele><time>2026-04-06T10:13:45Z</time></trkpt><trkpt lat="43.337131357358615" lon="10.505523718821633"><ele>14.0</ele><time>2026-04-06T10:13:46Z</time></trkpt><trkpt lat="43.3369646818908" lon="10.505549257818155"><ele>13.666666666666668</ele><time>2026-04-06T10:13:47Z</time></trkpt><trkpt lat="43.336795887172215" lon="10.505574585429004"><ele>13.333333333333332</ele><time>2026-04-06T10:13:48Z</time></trkpt><trkpt lat="43.336626655948685" lon="10.505597107274417"><ele>13.0</ele><time>2026-04-06T10:13:49Z</time></trkpt><trkpt lat="43.33645392611243" lon="10.505624226844853"><ele>12.333333333333332</ele><time>2026-04-06T10:13:50Z</time></trkpt><trkpt lat="43.33628067325615" lon="10.505654008011847"><ele>11.666666666666666</ele><time>2026-04-06T10:13:51Z</time></trkpt><trkpt lat="43.33610628685451" lon="10.50568344948803"><ele>11.0</ele><time>2026-04-06T10:13:52Z</time></trkpt><trkpt lat="43.33593033541215" lon="10.505711111995877"><ele>11.0</ele><time>2026-04-06T10:13:53Z</time></trkpt><trkpt lat="43.33575020386766" lon="10.505738441055588"><ele>11.0</ele><time>2026-04-06T10:13:54Z</time></trkpt><trkpt lat="43.33556907904152" lon="10.505767156290663"><ele>11.0</ele><time>2026-04-06T10:13:55Z</time></trkpt><trkpt lat="43.3353879918118" lon="10.505798166487585"><ele>10.666666666666666</ele><time>2026-04-06T10:13:56Z</time></trkpt><trkpt lat="43.335207435601355" lon="10.50582324202425"><ele>10.333333333333334</ele><time>2026-04-06T10:13:57Z</time></trkpt><trkpt lat="43.33502851949274" lon="10.50584879983902"><ele>10.0</ele><time>2026-04-06T10:13:58Z</time></trkpt><trkpt lat="43.33485062899521" lon="10.505877112941564"><ele>10.0</ele><time>2026-04-06T10:13:59Z</time></trkpt><trkpt lat="43.334674269581" lon="10.505902463338792"><ele>10.0</ele><time>2026-04-06T10:14:00Z</time></trkpt><trkpt lat="43.33449635532608" lon="10.505926991003234"><ele>10.0</ele><time>2026-04-06T10:14:01Z</time></trkpt><trkpt lat="43.334326723510756" lon="10.50595415111519"><ele>10.0</ele><time>2026-04-06T10:14:02Z</time></trkpt><trkpt lat="43.334166582744224" lon="10.505980565122739"><ele>10.0</ele><time>2026-04-06T10:14:03Z</time></trkpt><trkpt lat="43.33401080674498" lon="10.506003706798504"><ele>10.0</ele><time>2026-04-06T10:14:04Z</time></trkpt><trkpt lat="43.33385095851186" lon="10.506027536949052"><ele>10.0</ele><time>2026-04-06T10:14:05Z</time></trkpt><trkpt lat="43.33369645200172" lon="10.506053612026731"><ele>10.0</ele><time>2026-04-06T10:14:06Z</time></trkpt><trkpt lat="43.33354701077877" lon="10.506076188318744"><ele>10.0</ele><time>2026-04-06T10:14:07Z</time></trkpt><trkpt lat="43.3334000236468" lon="10.50609931184724"><ele>10.0</ele><time>2026-04-06T10:14:08Z</time></trkpt><trkpt lat="43.33326113631179" lon="10.506125120850507"><ele>10.0</ele><time>2026-04-06T10:14:09Z</time></trkpt><trkpt lat="43.333124190092455" lon="10.506144717524851"><ele>10.0</ele><time>2026-04-06T10:14:10Z</time></trkpt><trkpt lat="43.332992191100125" lon="10.506163966012606"><ele>10.0</ele><time>2026-04-06T10:14:11Z</time></trkpt><trkpt lat="43.33286688970947" lon="10.506179701485067"><ele>9.8</ele><time>2026-04-06T10:14:12Z</time></trkpt><trkpt lat="43.332756112312794" lon="10.506196020877516"><ele>9.6</ele><time>2026-04-06T10:14:13Z</time></trkpt><trkpt lat="43.33264543233347" lon="10.506218483853855"><ele>9.4</ele><time>2026-04-06T10:14:14Z</time></trkpt><trkpt lat="43.33254515425018" lon="10.506233390508283"><ele>9.2</ele><time>2026-04-06T10:14:15Z</time></trkpt><trkpt lat="43.33244730291363" lon="10.50624976991746"><ele>9.0</ele><time>2026-04-06T10:14:16Z</time></trkpt><trkpt lat="43.332355779385836" lon="10.506264477351756"><ele>9.0</ele><time>2026-04-06T10:14:17Z</time></trkpt><trkpt lat="43.33226872613117" lon="10.50628040714457"><ele>9.0</ele><time>2026-04-06T10:14:18Z</time></trkpt><trkpt lat="43.33219104906067" lon="10.506293510858656"><ele>9.0</ele><time>2026-04-06T10:14:19Z</time></trkpt><trkpt lat="43.332115442297585" lon="10.506304884446042"><ele>9.0</ele><time>2026-04-06T10:14:20Z</time></trkpt><trkpt lat="43.332041613458564" lon="10.506322419385302"><ele>9.0</ele><time>2026-04-06T10:14:21Z</time></trkpt><trkpt lat="43.331972514539395" lon="10.506343145985982"><ele>9.0</ele><time>2026-04-06T10:14:22Z</time></trkpt><trkpt lat="43.33190224505442" lon="10.506366919064257"><ele>9.0</ele><time>2026-04-06T10:14:23Z</time></trkpt><trkpt lat="43.331826579456454" lon="10.506392771769423"><ele>9.0</ele><time>2026-04-06T10:14:24Z</time></trkpt><trkpt lat="43.3317471374359" lon="10.506410470438391"><ele>9.0</ele><time>2026-04-06T10:14:25Z</time></trkpt><trkpt lat="43.33166676839319" lon="10.506423042762732"><ele>9.0</ele><time>2026-04-06T10:14:26Z</time></trkpt><trkpt lat="43.331578034732445" lon="10.506438127592432"><ele>9.0</ele><time>2026-04-06T10:14:27Z</time></trkpt><trkpt lat="43.3314798553115" lon="10.506446966430195"><ele>9.0</ele><time>2026-04-06T10:14:28Z</time></trkpt><trkpt lat="43.33137583648831" lon="10.50644017078725"><ele>8.75</ele><time>2026-04-06T10:14:29Z</time></trkpt><trkpt lat="43.3312742611185" lon="10.506434087030936"><ele>8.5</ele><time>2026-04-06T10:14:30Z</time></trkpt><trkpt lat="43.3311677425261" lon="10.506441537371575"><ele>8.25</ele><time>2026-04-06T10:14:31Z</time></trkpt><trkpt lat="43.33104881544779" lon="10.506471317930368"><ele>8.0</ele><time>2026-04-06T10:14:32Z</time></trkpt><trkpt lat="43.330924897993825" lon="10.506500078271946"><ele>8.0</ele><time>2026-04-06T10:14:33Z</time></trkpt><trkpt lat="43.330803601278944" lon="10.50651314790006"><ele>8.0</ele><time>2026-04-06T10:14:34Z</time></trkpt><trkpt lat="43.33068159133378" lon="10.506527985075023"><ele>8.0</ele><time>2026-04-06T10:14:35Z</time></trkpt><trkpt lat="43.33056033970021" lon="10.506548938097698"><ele>8.0</ele><time>2026-04-06T10:14:36Z</time></trkpt><trkpt lat="43.33043538872121" lon="10.506569387645426"><ele>8.5</ele><time>2026-04-06T10:14:37Z</time></trkpt><trkpt lat="43.33031100084181" lon="10.506587620581985"><ele>9.0</ele><time>2026-04-06T10:14:38Z</time></trkpt><trkpt lat="43.330185833044965" lon="10.50660803936782"><ele>9.5</ele><time>2026-04-06T10:14:39Z</time></trkpt><trkpt lat="43.33006427876826" lon="10.50663050628388"><ele>10.0</ele><time>2026-04-06T10:14:40Z</time></trkpt><trkpt lat="43.32994629839922" lon="10.506646123356484"><ele>10.0</ele><time>2026-04-06T10:14:41Z</time></trkpt><trkpt lat="43.32982542708954" lon="10.506661641988885"><ele>10.0</ele><time>2026-04-06T10:14:42Z</time></trkpt><trkpt lat="43.32970617063583" lon="10.506677773516525"><ele>10.0</ele><time>2026-04-06T10:14:43Z</time></trkpt><trkpt lat="43.329587019628306" lon="10.506695167549218"><ele>10.0</ele><time>2026-04-06T10:14:44Z</time></trkpt><trkpt lat="43.32946556950432" lon="10.506718981565227"><ele>9.75</ele><time>2026-04-06T10:14:45Z</time></trkpt><trkpt lat="43.32934336606919" lon="10.506737268641503"><ele>9.5</ele><time>2026-04-06T10:14:46Z</time></trkpt><trkpt lat="43.329222262374245" lon="10.5067563186129"><ele>9.25</ele><time>2026-04-06T10:14:47Z</time></trkpt><trkpt lat="43.32911290340899" lon="10.506773838866069"><ele>9.0</ele><time>2026-04-06T10:14:48Z</time></trkpt><trkpt lat="43.32900766555316" lon="10.506787726323543"><ele>9.0</ele><time>2026-04-06T10:14:49Z</time></trkpt><trkpt lat="43.32891345174446" lon="10.506814705844608"><ele>9.0</ele><time>2026-04-06T10:14:50Z</time></trkpt><trkpt lat="43.32882286683404" lon="10.506812040373243"><ele>9.0</ele><time>2026-04-06T10:14:51Z</time></trkpt><trkpt lat="43.328737758686685" lon="10.506834550580896"><ele>9.0</ele><time>2026-04-06T10:14:52Z</time></trkpt><trkpt lat="43.3286575445322" lon="10.506852282073346"><ele>9.0</ele><time>2026-04-06T10:14:53Z</time></trkpt><trkpt lat="43.328577403958896" lon="10.506869384836335"><ele>9.0</ele><time>2026-04-06T10:14:54Z</time></trkpt><trkpt lat="43.3284956556653" lon="10.506904212393374"><ele>8.75</ele><time>2026-04-06T10:14:55Z</time></trkpt><trkpt lat="43.32842391867153" lon="10.506918438451008"><ele>8.5</ele><time>2026-04-06T10:14:56Z</time></trkpt><trkpt lat="43.32838518690663" lon="10.507178341603316"><ele>8.25</ele><time>2026-04-06T10:14:58Z</time></trkpt><trkpt lat="43.32835457688335" lon="10.507298295333761"><ele>8.0</ele><time>2026-04-06T10:14:59Z</time></trkpt><trkpt lat="43.3283358982448" lon="10.507426985646863"><ele>8.0</ele><time>2026-04-06T10:15:00Z</time></trkpt><trkpt lat="43.328316738008674" lon="10.507553628760402"><ele>8.0</ele><time>2026-04-06T10:15:01Z</time></trkpt><trkpt lat="43.32828297338039" lon="10.507684497184291"><ele>8.0</ele><time>2026-04-06T10:15:02Z</time></trkpt><trkpt lat="43.32826425133511" lon="10.507825861691"><ele>8.0</ele><time>2026-04-06T10:15:03Z</time></trkpt><trkpt lat="43.328240456770175" lon="10.507970314822474"><ele>8.0</ele><time>2026-04-06T10:15:04Z</time></trkpt><trkpt lat="43.32822480564053" lon="10.508123559699342"><ele>7.800000000000001</ele><time>2026-04-06T10:15:05Z</time></trkpt><trkpt lat="43.328209099692124" lon="10.508270084433672"><ele>7.6000000000000005</ele><time>2026-04-06T10:15:06Z</time></trkpt><trkpt lat="43.32818567847705" lon="10.508418434510093"><ele>7.3999999999999995</ele><time>2026-04-06T10:15:07Z</time></trkpt><trkpt lat="43.32815587411261" lon="10.50854339590444"><ele>7.199999999999999</ele><time>2026-04-06T10:15:08Z</time></trkpt><trkpt lat="43.32813411464481" lon="10.508660335536206"><ele>7.0</ele><time>2026-04-06T10:15:09Z</time></trkpt><trkpt lat="43.32811852256175" lon="10.508768314656411"><ele>7.000000000000001</ele><time>2026-04-06T10:15:10Z</time></trkpt><trkpt lat="43.32810464408206" lon="10.508856164114645"><ele>7.0</ele><time>2026-04-06T10:15:11Z</time></trkpt><trkpt lat="43.32808631286014" lon="10.508940586562003"><ele>7.0</ele><time>2026-04-06T10:15:12Z</time></trkpt><trkpt lat="43.32808686627638" lon="10.509029557141302"><ele>7.0</ele><time>2026-04-06T10:15:13Z</time></trkpt><trkpt lat="43.328071816910175" lon="10.509151756339362"><ele>7.000000000000001</ele><time>2026-04-06T10:15:15Z</time></trkpt><trkpt lat="43.328062630619876" lon="10.509243908602423"><ele>7.0</ele><time>2026-04-06T10:16:20Z</time></trkpt><trkpt lat="43.32804703094268" lon="10.509384335135874"><ele>7.0</ele><time>2026-04-06T10:16:23Z</time></trkpt><trkpt lat="43.32807877275066" lon="10.509522090272496"><ele>6.999999999999999</ele><time>2026-04-06T10:16:25Z</time></trkpt><trkpt lat="43.32812993477647" lon="10.509678226905041"><ele>6.999999999999999</ele><time>2026-04-06T10:16:27Z</time></trkpt><trkpt lat="43.328169892794946" lon="10.509771582658885"><ele>7.0</ele><time>2026-04-06T10:16:28Z</time></trkpt><trkpt lat="43.32821994501392" lon="10.509870082007925"><ele>7.0</ele><time>2026-04-06T10:16:29Z</time></trkpt><trkpt lat="43.328276349585536" lon="10.50997061266757"><ele>7.0</ele><time>2026-04-06T10:16:30Z</time></trkpt><trkpt lat="43.32833224097267" lon="10.510069781216668"><ele>6.999999999999999</ele><time>2026-04-06T10:16:31Z</time></trkpt><trkpt lat="43.3283927019511" lon="10.510176901211217"><ele>6.999999999999999</ele><time>2026-04-06T10:16:32Z</time></trkpt><trkpt lat="43.328459628284946" lon="10.510283599364701"><ele>7.0</ele><time>2026-04-06T10:16:33Z</time></trkpt><trkpt lat="43.32852157333381" lon="10.51038958188257"><ele>7.0</ele><time>2026-04-06T10:16:34Z</time></trkpt><trkpt lat="43.32857974291918" lon="10.510488519122315"><ele>7.0</ele><time>2026-04-06T10:16:35Z</time></trkpt><trkpt lat="43.328634526695375" lon="10.510588064499137"><ele>6.999999999999999</ele><time>2026-04-06T10:16:36Z</time></trkpt><trkpt lat="43.32869442706388" lon="10.510697148369943"><ele>6.999999999999999</ele><time>2026-04-06T10:16:37Z</time></trkpt><trkpt lat="43.32876097633101" lon="10.510811304599935"><ele>7.0</ele><time>2026-04-06T10:16:38Z</time></trkpt><trkpt lat="43.32882891833575" lon="10.51093426118169"><ele>7.0</ele><time>2026-04-06T10:16:39Z</time></trkpt><trkpt lat="43.32889883314152" lon="10.511054597594683"><ele>7.5</ele><time>2026-04-06T10:16:40Z</time></trkpt><trkpt lat="43.32897366315015" lon="10.511184504524486"><ele>8.0</ele><time>2026-04-06T10:16:41Z</time></trkpt><trkpt lat="43.32905288728375" lon="10.511314639145752"><ele>8.5</ele><time>2026-04-06T10:16:42Z</time></trkpt><trkpt lat="43.32913620377178" lon="10.511451384724854"><ele>9.0</ele><time>2026-04-06T10:16:43Z</time></trkpt><trkpt lat="43.32921660512863" lon="10.51159199633191"><ele>9.0</ele><time>2026-04-06T10:16:44Z</time></trkpt><trkpt lat="43.329291507754064" lon="10.511715170040985"><ele>9.0</ele><time>2026-04-06T10:16:45Z</time></trkpt><trkpt lat="43.32936383372269" lon="10.511844104376197"><ele>9.0</ele><time>2026-04-06T10:16:46Z</time></trkpt><trkpt lat="43.32944056565494" lon="10.511968539949775"><ele>9.0</ele><time>2026-04-06T10:16:47Z</time></trkpt><trkpt lat="43.32951899222764" lon="10.512098520028415"><ele>9.0</ele><time>2026-04-06T10:16:48Z</time></trkpt><trkpt lat="43.32959401230511" lon="10.512233113547348"><ele>9.0</ele><time>2026-04-06T10:16:49Z</time></trkpt><trkpt lat="43.329670615977165" lon="10.512365019079132"><ele>9.0</ele><time>2026-04-06T10:16:50Z</time></trkpt><trkpt lat="43.3297508503653" lon="10.512494604096098"><ele>9.0</ele><time>2026-04-06T10:16:51Z</time></trkpt><trkpt lat="43.32983453925053" lon="10.512629546608164"><ele>9.0</ele><time>2026-04-06T10:16:52Z</time></trkpt><trkpt lat="43.32991404954473" lon="10.512765233943927"><ele>9.0</ele><time>2026-04-06T10:16:53Z</time></trkpt><trkpt lat="43.32999243268661" lon="10.512895195428829"><ele>9.0</ele><time>2026-04-06T10:16:54Z</time></trkpt><trkpt lat="43.330061636678096" lon="10.513024773319655"><ele>9.0</ele><time>2026-04-06T10:16:55Z</time></trkpt><trkpt lat="43.33013749165324" lon="10.51314329798672"><ele>9.0</ele><time>2026-04-06T10:16:56Z</time></trkpt><trkpt lat="43.33020736550841" lon="10.513261955387385"><ele>9.0</ele><time>2026-04-06T10:16:57Z</time></trkpt><trkpt lat="43.33027366820699" lon="10.513379269511105"><ele>9.0</ele><time>2026-04-06T10:16:58Z</time></trkpt><trkpt lat="43.33034157294838" lon="10.513493568171695"><ele>9.0</ele><time>2026-04-06T10:16:59Z</time></trkpt><trkpt lat="43.33041238311167" lon="10.513614780254006"><ele>9.0</ele><time>2026-04-06T10:17:00Z</time></trkpt><trkpt lat="43.33048878785207" lon="10.513742542668306"><ele>9.25</ele><time>2026-04-06T10:17:01Z</time></trkpt><trkpt lat="43.330564405386454" lon="10.513868625526555"><ele>9.5</ele><time>2026-04-06T10:17:02Z</time></trkpt><trkpt lat="43.3306349658735" lon="10.513995807615393"><ele>9.75</ele><time>2026-04-06T10:17:03Z</time></trkpt><trkpt lat="43.33071797529721" lon="10.51411998473849"><ele>10.0</ele><time>2026-04-06T10:17:04Z</time></trkpt><trkpt lat="43.3307924517409" lon="10.514250641995497"><ele>10.0</ele><time>2026-04-06T10:17:05Z</time></trkpt><trkpt lat="43.3308627090247" lon="10.514372077742642"><ele>10.0</ele><time>2026-04-06T10:17:06Z</time></trkpt><trkpt lat="43.33092938588043" lon="10.514482330250924"><ele>10.0</ele><time>2026-04-06T10:17:07Z</time></trkpt><trkpt lat="43.33098884277364" lon="10.514581418000516"><ele>10.0</ele><time>2026-04-06T10:17:08Z</time></trkpt><trkpt lat="43.33104220462249" lon="10.51467194898296"><ele>10.0</ele><time>2026-04-06T10:17:09Z</time></trkpt><trkpt lat="43.331082803814176" lon="10.514756157441191"><ele>9.6</ele><time>2026-04-06T10:17:10Z</time></trkpt><trkpt lat="43.3311348583831" lon="10.51485702309076"><ele>9.2</ele><time>2026-04-06T10:17:12Z</time></trkpt><trkpt lat="43.33106982278632" lon="10.514962957293188"><ele>8.8</ele><time>2026-04-06T10:17:13Z</time></trkpt><trkpt lat="43.33095814565913" lon="10.515041337945187"><ele>8.4</ele><time>2026-04-06T10:17:15Z</time></trkpt><trkpt lat="43.330870982261736" lon="10.51505481660017"><ele>8.0</ele><time>2026-04-06T10:17:16Z</time></trkpt><trkpt lat="43.330771829874436" lon="10.51507286275246"><ele>8.0</ele><time>2026-04-06T10:17:17Z</time></trkpt><trkpt lat="43.330653432461105" lon="10.515099677880725"><ele>8.0</ele><time>2026-04-06T10:17:18Z</time></trkpt><trkpt lat="43.33053402643027" lon="10.515115656759106"><ele>8.0</ele><time>2026-04-06T10:17:19Z</time></trkpt><trkpt lat="43.33041651233859" lon="10.51513983167988"><ele>8.0</ele><time>2026-04-06T10:17:20Z</time></trkpt><trkpt lat="43.3303114323377" lon="10.515160527225627"><ele>8.200000000000001</ele><time>2026-04-06T10:17:21Z</time></trkpt><trkpt lat="43.33022289981714" lon="10.515176642292905"><ele>8.4</ele><time>2026-04-06T10:17:22Z</time></trkpt><trkpt lat="43.33014571428936" lon="10.515192163830543"><ele>8.600000000000001</ele><time>2026-04-06T10:17:23Z</time></trkpt><trkpt lat="43.330080029610905" lon="10.515209098312415"><ele>8.8</ele><time>2026-04-06T10:17:24Z</time></trkpt><trkpt lat="43.32997924506996" lon="10.515228544487297"><ele>9.0</ele><time>2026-04-06T10:17:26Z</time></trkpt><trkpt lat="43.32986728706796" lon="10.515256317028562"><ele>9.0</ele><time>2026-04-06T10:17:28Z</time></trkpt><trkpt lat="43.32978644480115" lon="10.515271541145731"><ele>9.0</ele><time>2026-04-06T10:17:29Z</time></trkpt><trkpt lat="43.329697220119236" lon="10.515293882251123"><ele>9.0</ele><time>2026-04-06T10:17:30Z</time></trkpt><trkpt lat="43.32960824485052" lon="10.51531597049474"><ele>9.0</ele><time>2026-04-06T10:17:31Z</time></trkpt><trkpt lat="43.32951117003462" lon="10.515333445387025"><ele>9.0</ele><time>2026-04-06T10:17:32Z</time></trkpt><trkpt lat="43.32940825816978" lon="10.515356478380687"><ele>9.0</ele><time>2026-04-06T10:17:33Z</time></trkpt><trkpt lat="43.32929886129089" lon="10.515377316836371"><ele>9.0</ele><time>2026-04-06T10:17:34Z</time></trkpt><trkpt lat="43.3291809545352" lon="10.515402063809427"><ele>9.0</ele><time>2026-04-06T10:17:35Z</time></trkpt><trkpt lat="43.32906040143889" lon="10.515428154774488"><ele>9.0</ele><time>2026-04-06T10:17:36Z</time></trkpt><trkpt lat="43.32894494418308" lon="10.515451245890278"><ele>8.25</ele><time>2026-04-06T10:17:37Z</time></trkpt><trkpt lat="43.32883047711106" lon="10.51547409621347"><ele>7.5</ele><time>2026-04-06T10:17:38Z</time></trkpt><trkpt lat="43.32871228687256" lon="10.515496760826178"><ele>6.75</ele><time>2026-04-06T10:17:39Z</time></trkpt><trkpt lat="43.32859266383276" lon="10.515520010552459"><ele>6.0</ele><time>2026-04-06T10:17:40Z</time></trkpt><trkpt lat="43.328467028984974" lon="10.515541434180884"><ele>6.0</ele><time>2026-04-06T10:17:41Z</time></trkpt><trkpt lat="43.32833674115827" lon="10.51556776358679"><ele>6.0</ele><time>2026-04-06T10:17:42Z</time></trkpt><trkpt lat="43.32820545340874" lon="10.515597544585152"><ele>6.0</ele><time>2026-04-06T10:17:43Z</time></trkpt><trkpt lat="43.328071617345785" lon="10.515629568762865"><ele>6.0</ele><time>2026-04-06T10:17:44Z</time></trkpt><trkpt lat="43.32793613886049" lon="10.51566600169453"><ele>6.25</ele><time>2026-04-06T10:17:45Z</time></trkpt><trkpt lat="43.32780661982445" lon="10.515694419970423"><ele>6.5</ele><time>2026-04-06T10:17:46Z</time></trkpt><trkpt lat="43.327678917791765" lon="10.515718034229007"><ele>6.75</ele><time>2026-04-06T10:17:47Z</time></trkpt><trkpt lat="43.32755301803079" lon="10.515739204089089"><ele>7.0</ele><time>2026-04-06T10:17:48Z</time></trkpt><trkpt lat="43.32743330711899" lon="10.51576489281078"><ele>7.0</ele><time>2026-04-06T10:17:49Z</time></trkpt><trkpt lat="43.32732165056012" lon="10.515791789005027"><ele>6.999999999999999</ele><time>2026-04-06T10:17:50Z</time></trkpt><trkpt lat="43.327217664163015" lon="10.515812998385355"><ele>6.999999999999999</ele><time>2026-04-06T10:17:51Z</time></trkpt><trkpt lat="43.327122636956865" lon="10.51582897948969"><ele>7.0</ele><time>2026-04-06T10:17:52Z</time></trkpt><trkpt lat="43.32704423893088" lon="10.51584102356717"><ele>7.0</ele><time>2026-04-06T10:17:53Z</time></trkpt><trkpt lat="43.32693521254989" lon="10.515841826335599"><ele>7.0</ele><time>2026-04-06T10:17:55Z</time></trkpt><trkpt lat="43.32693015482437" lon="10.515686250908516"><ele>6.999999999999999</ele><time>2026-04-06T10:17:56Z</time></trkpt><trkpt lat="43.326882709121605" lon="10.515584143755762"><ele>6.999999999999999</ele><time>2026-04-06T10:17:57Z</time></trkpt><trkpt lat="43.32682856999189" lon="10.515467631942961"><ele>7.0</ele><time>2026-04-06T10:17:58Z</time></trkpt><trkpt lat="43.32676355002841" lon="10.515327703591614"><ele>7.0</ele><time>2026-04-06T10:17:59Z</time></trkpt><trkpt lat="43.32669414253868" lon="10.515178332867071"><ele>7.25</ele><time>2026-04-06T10:18:00Z</time></trkpt><trkpt lat="43.326611730132036" lon="10.51503538267519"><ele>7.5</ele><time>2026-04-06T10:18:01Z</time></trkpt><trkpt lat="43.32654356589586" lon="10.514880707314651"><ele>7.75</ele><time>2026-04-06T10:18:02Z</time></trkpt><trkpt lat="43.32647491788383" lon="10.514728620034477"><ele>8.0</ele><time>2026-04-06T10:18:03Z</time></trkpt><trkpt lat="43.32641096256947" lon="10.514591152223066"><ele>7.800000000000001</ele><time>2026-04-06T10:18:04Z</time></trkpt><trkpt lat="43.32635255209016" lon="10.514461971087611"><ele>7.6000000000000005</ele><time>2026-04-06T10:18:05Z</time></trkpt><trkpt lat="43.3262980454735" lon="10.514339708781506"><ele>7.3999999999999995</ele><time>2026-04-06T10:18:06Z</time></trkpt><trkpt lat="43.32624956618031" lon="10.514231916658526"><ele>7.199999999999999</ele><time>2026-04-06T10:18:07Z</time></trkpt><trkpt lat="43.32620265327623" lon="10.514136500684787"><ele>7.0</ele><time>2026-04-06T10:18:08Z</time></trkpt><trkpt lat="43.32616030131177" lon="10.514040483714844"><ele>7.000000000000001</ele><time>2026-04-06T10:18:09Z</time></trkpt><trkpt lat="43.326125878665444" lon="10.513932778952569"><ele>7.0</ele><time>2026-04-06T10:18:10Z</time></trkpt><trkpt lat="43.326105775101844" lon="10.51383126105214"><ele>7.0</ele><time>2026-04-06T10:18:11Z</time></trkpt><trkpt lat="43.32606763752456" lon="10.5137622085325"><ele>7.0</ele><time>2026-04-06T10:18:12Z</time></trkpt><trkpt lat="43.32600404160066" lon="10.51371093695779"><ele>7.000000000000001</ele><time>2026-04-06T10:18:13Z</time></trkpt><trkpt lat="43.325921612645196" lon="10.51366147110254"><ele>7.0</ele><time>2026-04-06T10:18:14Z</time></trkpt><trkpt lat="43.32584109010401" lon="10.51357920830099"><ele>7.0</ele><time>2026-04-06T10:18:15Z</time></trkpt><trkpt lat="43.32577492134616" lon="10.513463853910466"><ele>7.0</ele><time>2026-04-06T10:18:16Z</time></trkpt><trkpt lat="43.32570957253541" lon="10.513315104321602"><ele>7.0</ele><time>2026-04-06T10:18:17Z</time></trkpt><trkpt lat="43.325638023724615" lon="10.513144362419304"><ele>7.0</ele><time>2026-04-06T10:18:18Z</time></trkpt><trkpt lat="43.325551917429" lon="10.512965166135903"><ele>7.333333333333334</ele><time>2026-04-06T10:18:19Z</time></trkpt><trkpt lat="43.3254703952272" lon="10.512786190689681"><ele>7.666666666666666</ele><time>2026-04-06T10:18:20Z</time></trkpt><trkpt lat="43.32537651162348" lon="10.512617495057297"><ele>8.0</ele><time>2026-04-06T10:18:21Z</time></trkpt><trkpt lat="43.325285191774825" lon="10.512452950963137"><ele>8.0</ele><time>2026-04-06T10:18:22Z</time></trkpt><trkpt lat="43.325193636891065" lon="10.512293509912888"><ele>8.0</ele><time>2026-04-06T10:18:23Z</time></trkpt><trkpt lat="43.32509823961271" lon="10.51213672667247"><ele>8.0</ele><time>2026-04-06T10:18:24Z</time></trkpt><trkpt lat="43.32499831111843" lon="10.511986721631777"><ele>8.0</ele><time>2026-04-06T10:18:25Z</time></trkpt><trkpt lat="43.324896703618876" lon="10.511837846271806"><ele>7.75</ele><time>2026-04-06T10:18:26Z</time></trkpt><trkpt lat="43.3247958688652" lon="10.51168838521864"><ele>7.5</ele><time>2026-04-06T10:18:27Z</time></trkpt><trkpt lat="43.32468989033318" lon="10.511547288429725"><ele>7.25</ele><time>2026-04-06T10:18:28Z</time></trkpt><trkpt lat="43.324584130182885" lon="10.511405966062586"><ele>7.0</ele><time>2026-04-06T10:18:29Z</time></trkpt><trkpt lat="43.324477546443646" lon="10.51126998181983"><ele>6.75</ele><time>2026-04-06T10:18:30Z</time></trkpt><trkpt lat="43.32437134165232" lon="10.511148097949686"><ele>6.5</ele><time>2026-04-06T10:18:31Z</time></trkpt><trkpt lat="43.32426721868423" lon="10.511028558628027"><ele>6.25</ele><time>2026-04-06T10:18:32Z</time></trkpt><trkpt lat="43.32416023272045" lon="10.510907826504292"><ele>6.0</ele><time>2026-04-06T10:18:33Z</time></trkpt><trkpt lat="43.324054580122414" lon="10.510785579726171"><ele>6.0</ele><time>2026-04-06T10:18:34Z</time></trkpt><trkpt lat="43.32395188579014" lon="10.510667862548537"><ele>6.0</ele><time>2026-04-06T10:18:35Z</time></trkpt><trkpt lat="43.32385878035637" lon="10.51055704170242"><ele>6.0</ele><time>2026-04-06T10:18:36Z</time></trkpt><trkpt lat="43.323772392360695" lon="10.51045939129026"><ele>6.0</ele><time>2026-04-06T10:18:37Z</time></trkpt><trkpt lat="43.32368799631452" lon="10.510365946111657"><ele>6.166666666666667</ele><time>2026-04-06T10:18:38Z</time></trkpt><trkpt lat="43.323612117255195" lon="10.51028051742669"><ele>6.333333333333334</ele><time>2026-04-06T10:18:39Z</time></trkpt><trkpt lat="43.32354544139738" lon="10.510203954310306"><ele>6.5</ele><time>2026-04-06T10:18:40Z</time></trkpt><trkpt lat="43.32348992759642" lon="10.510139076788198"><ele>6.666666666666667</ele><time>2026-04-06T10:18:41Z</time></trkpt><trkpt lat="43.32345731334627" lon="10.510058983120109"><ele>6.833333333333334</ele><time>2026-04-06T10:18:42Z</time></trkpt><trkpt lat="43.32340359194223" lon="10.50998149730678"><ele>7.0</ele><time>2026-04-06T10:18:44Z</time></trkpt><trkpt lat="43.3233888345476" lon="10.509873327938053"><ele>7.0</ele><time>2026-04-06T10:18:49Z</time></trkpt><trkpt lat="43.323394332565904" lon="10.509716065708938"><ele>6.999999999999999</ele><time>2026-04-06T10:18:51Z</time></trkpt><trkpt lat="43.32336468560667" lon="10.509598678519179"><ele>6.999999999999999</ele><time>2026-04-06T10:18:53Z</time></trkpt><trkpt lat="43.32328268697788" lon="10.50952722567134"><ele>7.0</ele><time>2026-04-06T10:18:55Z</time></trkpt><trkpt lat="43.323181424069546" lon="10.509534284368486"><ele>7.0</ele><time>2026-04-06T10:18:57Z</time></trkpt><trkpt lat="43.32312909607686" lon="10.509641929709922"><ele>7.000000000000001</ele><time>2026-04-06T10:18:58Z</time></trkpt><trkpt lat="43.323097978469356" lon="10.50971737510383"><ele>7.0</ele><time>2026-04-06T10:18:59Z</time></trkpt><trkpt lat="43.32306976286049" lon="10.509804592492918"><ele>7.0</ele><time>2026-04-06T10:19:00Z</time></trkpt><trkpt lat="43.32302981204579" lon="10.50989666140581"><ele>7.0</ele><time>2026-04-06T10:19:01Z</time></trkpt><trkpt lat="43.32298401378053" lon="10.509985081027665"><ele>7.000000000000001</ele><time>2026-04-06T10:19:02Z</time></trkpt><trkpt lat="43.32295928701726" lon="10.510069903448851"><ele>7.0</ele><time>2026-04-06T10:19:03Z</time></trkpt><trkpt lat="43.32285053095782" lon="10.51008955846319"><ele>6.6</ele><time>2026-04-06T10:19:04Z</time></trkpt><trkpt lat="43.32277180957861" lon="10.510134516959885"><ele>6.199999999999999</ele><time>2026-04-06T10:19:05Z</time></trkpt><trkpt lat="43.32268516024208" lon="10.510188334129682"><ele>5.8</ele><time>2026-04-06T10:19:06Z</time></trkpt><trkpt lat="43.32259574847395" lon="10.510248624461829"><ele>5.4</ele><time>2026-04-06T10:19:07Z</time></trkpt><trkpt lat="43.3225081659923" lon="10.510300226057907"><ele>5.0</ele><time>2026-04-06T10:19:08Z</time></trkpt><trkpt lat="43.32241554467038" lon="10.510356036071096"><ele>5.0</ele><time>2026-04-06T10:19:09Z</time></trkpt><trkpt lat="43.32231825450428" lon="10.510416151386085"><ele>5.0</ele><time>2026-04-06T10:19:10Z</time></trkpt><trkpt lat="43.322215641865036" lon="10.510482311171542"><ele>5.0</ele><time>2026-04-06T10:19:11Z</time></trkpt><trkpt lat="43.32210656644791" lon="10.5105525598117"><ele>5.0</ele><time>2026-04-06T10:19:12Z</time></trkpt><trkpt lat="43.32198849283244" lon="10.51062438845276"><ele>4.5</ele><time>2026-04-06T10:19:13Z</time></trkpt><trkpt lat="43.321872570351445" lon="10.510698572283001"><ele>4.0</ele><time>2026-04-06T10:19:14Z</time></trkpt><trkpt lat="43.321751975971544" lon="10.510776362905718"><ele>3.5</ele><time>2026-04-06T10:19:15Z</time></trkpt><trkpt lat="43.321631451349965" lon="10.510851923851659"><ele>3.0</ele><time>2026-04-06T10:19:16Z</time></trkpt><trkpt lat="43.321508045536866" lon="10.510932163027631"><ele>3.5</ele><time>2026-04-06T10:19:17Z</time></trkpt><trkpt lat="43.32138317125205" lon="10.511008779432006"><ele>4.0</ele><time>2026-04-06T10:19:18Z</time></trkpt><trkpt lat="43.32125801969254" lon="10.511086606424465"><ele>4.5</ele><time>2026-04-06T10:19:19Z</time></trkpt><trkpt lat="43.32113102389972" lon="10.511166307055763"><ele>5.0</ele><time>2026-04-06T10:19:20Z</time></trkpt><trkpt lat="43.321006385837116" lon="10.511246245104491"><ele>5.0</ele><time>2026-04-06T10:19:21Z</time></trkpt><trkpt lat="43.32088530555985" lon="10.511322911657693"><ele>5.0</ele><time>2026-04-06T10:19:22Z</time></trkpt><trkpt lat="43.32076425226498" lon="10.511398766540847"><ele>5.0</ele><time>2026-04-06T10:19:23Z</time></trkpt><trkpt lat="43.3206438198071" lon="10.511472235702197"><ele>5.0</ele><time>2026-04-06T10:19:24Z</time></trkpt><trkpt lat="43.32052102349403" lon="10.511547683985768"><ele>5.0</ele><time>2026-04-06T10:19:25Z</time></trkpt><trkpt lat="43.32039785422978" lon="10.5116244125635"><ele>5.0</ele><time>2026-04-06T10:19:26Z</time></trkpt><trkpt lat="43.320275031185965" lon="10.511700918132119"><ele>5.0</ele><time>2026-04-06T10:19:27Z</time></trkpt><trkpt lat="43.32015093366485" lon="10.511774904637283"><ele>5.0</ele><time>2026-04-06T10:19:28Z</time></trkpt><trkpt lat="43.32003030510055" lon="10.511849975228486"><ele>5.0</ele><time>2026-04-06T10:19:29Z</time></trkpt><trkpt lat="43.31990806556497" lon="10.511924264622555"><ele>5.0</ele><time>2026-04-06T10:19:30Z</time></trkpt><trkpt lat="43.319784450372055" lon="10.511998638530807"><ele>5.0</ele><time>2026-04-06T10:19:31Z</time></trkpt><trkpt lat="43.31965888098" lon="10.512078989137649"><ele>5.0</ele><time>2026-04-06T10:19:32Z</time></trkpt><trkpt lat="43.31953449529818" lon="10.51216378777804"><ele>5.25</ele><time>2026-04-06T10:19:33Z</time></trkpt><trkpt lat="43.31941277514872" lon="10.512238744307524"><ele>5.5</ele><time>2026-04-06T10:19:34Z</time></trkpt><trkpt lat="43.319296534070915" lon="10.512315875795313"><ele>5.75</ele><time>2026-04-06T10:19:35Z</time></trkpt><trkpt lat="43.31917733530026" lon="10.512393600222703"><ele>6.0</ele><time>2026-04-06T10:19:36Z</time></trkpt><trkpt lat="43.319059088832134" lon="10.5124672256036"><ele>6.0</ele><time>2026-04-06T10:19:37Z</time></trkpt><trkpt lat="43.31893759378041" lon="10.51253842075153"><ele>6.0</ele><time>2026-04-06T10:19:38Z</time></trkpt><trkpt lat="43.3188148921144" lon="10.512608271196042"><ele>6.0</ele><time>2026-04-06T10:19:39Z</time></trkpt><trkpt lat="43.31868572169671" lon="10.512676026889604"><ele>6.0</ele><time>2026-04-06T10:19:40Z</time></trkpt><trkpt lat="43.318557069537526" lon="10.512736577891571"><ele>5.75</ele><time>2026-04-06T10:19:41Z</time></trkpt><trkpt lat="43.31842320850549" lon="10.512802401389838"><ele>5.5</ele><time>2026-04-06T10:19:42Z</time></trkpt><trkpt lat="43.31829305116239" lon="10.512850099790427"><ele>5.25</ele><time>2026-04-06T10:19:43Z</time></trkpt><trkpt lat="43.318165259728566" lon="10.512902424763608"><ele>5.0</ele><time>2026-04-06T10:19:44Z</time></trkpt><trkpt lat="43.31803577048289" lon="10.512946956673487"><ele>4.25</ele><time>2026-04-06T10:19:45Z</time></trkpt><trkpt lat="43.31790759023524" lon="10.512990192739716"><ele>3.5</ele><time>2026-04-06T10:19:46Z</time></trkpt><trkpt lat="43.31778947747258" lon="10.513032010689043"><ele>2.75</ele><time>2026-04-06T10:19:47Z</time></trkpt><trkpt lat="43.31767946589076" lon="10.513069305982873"><ele>2.0</ele><time>2026-04-06T10:19:48Z</time></trkpt><trkpt lat="43.317574634998905" lon="10.513106453957485"><ele>2.0</ele><time>2026-04-06T10:19:49Z</time></trkpt><trkpt lat="43.31747118056079" lon="10.513142806560612"><ele>2.0</ele><time>2026-04-06T10:19:50Z</time></trkpt><trkpt lat="43.31737395612992" lon="10.513177780246885"><ele>2.0</ele><time>2026-04-06T10:19:51Z</time></trkpt><trkpt lat="43.31726550727886" lon="10.513222398675481"><ele>2.0</ele><time>2026-04-06T10:19:52Z</time></trkpt><trkpt lat="43.31714632548381" lon="10.513265872828374"><ele>2.0</ele><time>2026-04-06T10:19:53Z</time></trkpt><trkpt lat="43.31701814673833" lon="10.513308669083923"><ele>2.25</ele><time>2026-04-06T10:19:54Z</time></trkpt><trkpt lat="43.31689138759796" lon="10.51335241484585"><ele>2.5</ele><time>2026-04-06T10:19:55Z</time></trkpt><trkpt lat="43.3167682123565" lon="10.513394428291013"><ele>2.75</ele><time>2026-04-06T10:19:56Z</time></trkpt><trkpt lat="43.31664970869768" lon="10.513433786914712"><ele>3.0</ele><time>2026-04-06T10:19:57Z</time></trkpt><trkpt lat="43.31653119572879" lon="10.513471145975023"><ele>3.0</ele><time>2026-04-06T10:19:58Z</time></trkpt><trkpt lat="43.316413253065846" lon="10.513513612965749"><ele>3.0</ele><time>2026-04-06T10:19:59Z</time></trkpt><trkpt lat="43.31629667526067" lon="10.513562266648911"><ele>3.0</ele><time>2026-04-06T10:20:00Z</time></trkpt><trkpt lat="43.316180457771914" lon="10.513614496716452"><ele>3.0</ele><time>2026-04-06T10:20:01Z</time></trkpt><trkpt lat="43.31606120145124" lon="10.513670686562739"><ele>3.25</ele><time>2026-04-06T10:20:02Z</time></trkpt><trkpt lat="43.31594414634088" lon="10.513734797740186"><ele>3.5</ele><time>2026-04-06T10:20:03Z</time></trkpt><trkpt lat="43.3158257019915" lon="10.513804300961661"><ele>3.75</ele><time>2026-04-06T10:20:04Z</time></trkpt><trkpt lat="43.3157100045316" lon="10.513878492476076"><ele>4.0</ele><time>2026-04-06T10:20:05Z</time></trkpt><trkpt lat="43.315597664870445" lon="10.513958767266903"><ele>4.2</ele><time>2026-04-06T10:20:06Z</time></trkpt><trkpt lat="43.315496849152964" lon="10.514037384401602"><ele>4.4</ele><time>2026-04-06T10:20:07Z</time></trkpt><trkpt lat="43.31539919696212" lon="10.514117689925767"><ele>4.6</ele><time>2026-04-06T10:20:08Z</time></trkpt><trkpt lat="43.31530829558478" lon="10.514191052543133"><ele>4.8</ele><time>2026-04-06T10:20:09Z</time></trkpt><trkpt lat="43.31521818532714" lon="10.514267682984965"><ele>5.0</ele><time>2026-04-06T10:20:10Z</time></trkpt><trkpt lat="43.31513348313271" lon="10.514341483385827"><ele>5.0</ele><time>2026-04-06T10:20:11Z</time></trkpt><trkpt lat="43.31505207021022" lon="10.514413585895426"><ele>5.0</ele><time>2026-04-06T10:20:12Z</time></trkpt><trkpt lat="43.31497656949185" lon="10.514476768016792"><ele>5.0</ele><time>2026-04-06T10:20:13Z</time></trkpt><trkpt lat="43.31491005112396" lon="10.514535242298631"><ele>5.0</ele><time>2026-04-06T10:20:14Z</time></trkpt><trkpt lat="43.31484496158978" lon="10.514593514357694"><ele>5.0</ele><time>2026-04-06T10:20:15Z</time></trkpt><trkpt lat="43.314785682660734" lon="10.51464457958825"><ele>5.0</ele><time>2026-04-06T10:20:16Z</time></trkpt><trkpt lat="43.31472840897662" lon="10.514691114429501"><ele>5.8</ele><time>2026-04-06T10:20:17Z</time></trkpt><trkpt lat="43.314672936874935" lon="10.514735794225174"><ele>6.6</ele><time>2026-04-06T10:20:18Z</time></trkpt><trkpt lat="43.31458605600679" lon="10.514805292828608"><ele>7.4</ele><time>2026-04-06T10:20:20Z</time></trkpt><trkpt lat="43.31452380344516" lon="10.51485210558416"><ele>8.2</ele><time>2026-04-06T10:20:23Z</time></trkpt><trkpt lat="43.31443137973212" lon="10.514882108412694"><ele>9.0</ele><time>2026-04-06T10:20:30Z</time></trkpt><trkpt lat="43.31433789918176" lon="10.514771356255544"><ele>9.0</ele><time>2026-04-06T10:20:34Z</time></trkpt><trkpt lat="43.31430109598298" lon="10.514683665931873"><ele>9.0</ele><time>2026-04-06T10:20:35Z</time></trkpt><trkpt lat="43.31425568439314" lon="10.514529142135242"><ele>9.0</ele><time>2026-04-06T10:20:37Z</time></trkpt><trkpt lat="43.314223538965486" lon="10.514443259425772"><ele>9.0</ele><time>2026-04-06T10:20:38Z</time></trkpt><trkpt lat="43.31418765735708" lon="10.514346018192686"><ele>9.0</ele><time>2026-04-06T10:20:39Z</time></trkpt><trkpt lat="43.31415877377558" lon="10.514265588905856"><ele>9.0</ele><time>2026-04-06T10:20:40Z</time></trkpt><trkpt lat="43.314122762893696" lon="10.514143926513757"><ele>9.2</ele><time>2026-04-06T10:20:42Z</time></trkpt><trkpt lat="43.31407847175554" lon="10.514006890158424"><ele>9.4</ele><time>2026-04-06T10:20:44Z</time></trkpt><trkpt lat="43.31400958567972" lon="10.513860316130538"><ele>9.6</ele><time>2026-04-06T10:20:46Z</time></trkpt><trkpt lat="43.31397456082006" lon="10.513774966559176"><ele>9.8</ele><time>2026-04-06T10:20:47Z</time></trkpt><trkpt lat="43.31392793470347" lon="10.513642876091335"><ele>10.0</ele><time>2026-04-06T10:20:49Z</time></trkpt><trkpt lat="43.313839758184535" lon="10.51354777869785"><ele>10.0</ele><time>2026-04-06T10:20:52Z</time></trkpt><trkpt lat="43.313766557388725" lon="10.513486042910998"><ele>10.0</ele><time>2026-04-06T10:20:54Z</time></trkpt><trkpt lat="43.31372215471638" lon="10.513375720587259"><ele>10.0</ele><time>2026-04-06T10:20:57Z</time></trkpt><trkpt lat="43.31366574490975" lon="10.513279374741147"><ele>10.0</ele><time>2026-04-06T10:21:00Z</time></trkpt><trkpt lat="43.313625431600066" lon="10.513192102817117"><ele>10.0</ele><time>2026-04-06T10:21:02Z</time></trkpt><trkpt lat="43.313618696443996" lon="10.513046495080465"><ele>10.0</ele><time>2026-04-06T10:21:04Z</time></trkpt><trkpt lat="43.31360030365873" lon="10.512925719299856"><ele>10.0</ele><time>2026-04-06T10:21:06Z</time></trkpt><trkpt lat="43.31348169177943" lon="10.51296109004619"><ele>10.0</ele><time>2026-04-06T10:21:09Z</time></trkpt><trkpt lat="43.31344071238723" lon="10.51310986869023"><ele>10.0</ele><time>2026-04-06T10:21:11Z</time></trkpt><trkpt lat="43.31335236093815" lon="10.513074686136623"><ele>10.0</ele><time>2026-04-06T10:21:12Z</time></trkpt><trkpt lat="43.31331713373572" lon="10.513228514236808"><ele>10.0</ele><time>2026-04-06T10:21:13Z</time></trkpt><trkpt lat="43.31324043296696" lon="10.513292608868927"><ele>10.0</ele><time>2026-04-06T10:21:14Z</time></trkpt><trkpt lat="43.3131578344235" lon="10.51335685260537"><ele>10.0</ele><time>2026-04-06T10:21:15Z</time></trkpt><trkpt lat="43.31307844150236" lon="10.513419008142762"><ele>10.0</ele><time>2026-04-06T10:21:16Z</time></trkpt><trkpt lat="43.31299110937397" lon="10.513486408279958"><ele>10.0</ele><time>2026-04-06T10:21:17Z</time></trkpt><trkpt lat="43.31288942064858" lon="10.513526691163992"><ele>10.0</ele><time>2026-04-06T10:21:18Z</time></trkpt><trkpt lat="43.31279294826782" lon="10.513586718964644"><ele>10.0</ele><time>2026-04-06T10:21:19Z</time></trkpt><trkpt lat="43.312713687590694" lon="10.513656084952324"><ele>10.0</ele><time>2026-04-06T10:21:20Z</time></trkpt><trkpt lat="43.312637759699996" lon="10.513702301064084"><ele>10.0</ele><time>2026-04-06T10:21:21Z</time></trkpt><trkpt lat="43.31255885301085" lon="10.513744491922994"><ele>10.0</ele><time>2026-04-06T10:21:22Z</time></trkpt><trkpt lat="43.31248482567761" lon="10.513791439592355"><ele>10.0</ele><time>2026-04-06T10:21:23Z</time></trkpt><trkpt lat="43.31240675232299" lon="10.513838494582052"><ele>10.0</ele><time>2026-04-06T10:21:24Z</time></trkpt><trkpt lat="43.31232878484377" lon="10.51388427492035"><ele>10.166666666666668</ele><time>2026-04-06T10:21:25Z</time></trkpt><trkpt lat="43.312247480413696" lon="10.513934291762784"><ele>10.333333333333334</ele><time>2026-04-06T10:21:26Z</time></trkpt><trkpt lat="43.312166786477555" lon="10.513982728301263"><ele>10.5</ele><time>2026-04-06T10:21:27Z</time></trkpt><trkpt lat="43.31208816310374" lon="10.514029592881203"><ele>10.666666666666666</ele><time>2026-04-06T10:21:28Z</time></trkpt><trkpt lat="43.31201283239512" lon="10.514075087768212"><ele>10.833333333333332</ele><time>2026-04-06T10:21:29Z</time></trkpt><trkpt lat="43.31194288823933" lon="10.514120207501994"><ele>11.0</ele><time>2026-04-06T10:21:30Z</time></trkpt><trkpt lat="43.31187279875037" lon="10.514164906678849"><ele>11.0</ele><time>2026-04-06T10:21:31Z</time></trkpt><trkpt lat="43.31180307973263" lon="10.514206435722725"><ele>11.0</ele><time>2026-04-06T10:21:32Z</time></trkpt><trkpt lat="43.31173374843388" lon="10.514248913306496"><ele>11.0</ele><time>2026-04-06T10:21:33Z</time></trkpt><trkpt lat="43.3116736397559" lon="10.51429115219022"><ele>11.0</ele><time>2026-04-06T10:21:34Z</time></trkpt><trkpt lat="43.311617714598675" lon="10.514330945929016"><ele>11.0</ele><time>2026-04-06T10:21:35Z</time></trkpt><trkpt lat="43.31152738034603" lon="10.514386390003805"><ele>11.0</ele><time>2026-04-06T10:21:37Z</time></trkpt><trkpt lat="43.31141951384408" lon="10.514443312220386"><ele>11.0</ele><time>2026-04-06T10:21:39Z</time></trkpt><trkpt lat="43.31136196362452" lon="10.51448514601346"><ele>11.0</ele><time>2026-04-06T10:21:40Z</time></trkpt><trkpt lat="43.31130354796826" lon="10.514522034877874"><ele>11.0</ele><time>2026-04-06T10:21:41Z</time></trkpt><trkpt lat="43.31119109940597" lon="10.51459976723607"><ele>11.0</ele><time>2026-04-06T10:21:43Z</time></trkpt><trkpt lat="43.31112927865889" lon="10.514633420481328"><ele>11.0</ele><time>2026-04-06T10:21:44Z</time></trkpt><trkpt lat="43.31102028408558" lon="10.514706328538736"><ele>11.0</ele><time>2026-04-06T10:21:46Z</time></trkpt><trkpt lat="43.31090850976908" lon="10.514774221238198"><ele>11.0</ele><time>2026-04-06T10:21:48Z</time></trkpt><trkpt lat="43.31080155453497" lon="10.514842246793217"><ele>11.0</ele><time>2026-04-06T10:21:50Z</time></trkpt><trkpt lat="43.310719270812996" lon="10.514901595549016"><ele>11.0</ele><time>2026-04-06T10:21:52Z</time></trkpt><trkpt lat="43.310630711465365" lon="10.51495394778124"><ele>11.0</ele><time>2026-04-06T10:21:54Z</time></trkpt><trkpt lat="43.31054133512266" lon="10.514998091546472"><ele>11.0</ele><time>2026-04-06T10:21:56Z</time></trkpt><trkpt lat="43.31045141085598" lon="10.515051918250041"><ele>11.0</ele><time>2026-04-06T10:21:58Z</time></trkpt><trkpt lat="43.31035855546233" lon="10.515115530982609"><ele>11.0</ele><time>2026-04-06T10:22:00Z</time></trkpt><trkpt lat="43.310259101393775" lon="10.515179851326852"><ele>11.0</ele><time>2026-04-06T10:22:02Z</time></trkpt><trkpt lat="43.31014861697355" lon="10.51524401677944"><ele>11.0</ele><time>2026-04-06T10:22:04Z</time></trkpt><trkpt lat="43.31003884746746" lon="10.515313668166325"><ele>11.0</ele><time>2026-04-06T10:22:06Z</time></trkpt><trkpt lat="43.30992848059339" lon="10.515383397539363"><ele>11.0</ele><time>2026-04-06T10:22:08Z</time></trkpt><trkpt lat="43.30981788551731" lon="10.515456040508429"><ele>11.0</ele><time>2026-04-06T10:22:10Z</time></trkpt><trkpt lat="43.309713545722104" lon="10.515524781690399"><ele>11.0</ele><time>2026-04-06T10:22:12Z</time></trkpt><trkpt lat="43.309620087504356" lon="10.515583592109259"><ele>10.600000000000001</ele><time>2026-04-06T10:22:14Z</time></trkpt><trkpt lat="43.30954579002876" lon="10.515641224543488"><ele>10.200000000000001</ele><time>2026-04-06T10:22:16Z</time></trkpt><trkpt lat="43.309455780374556" lon="10.51570415106169"><ele>9.8</ele><time>2026-04-06T10:22:18Z</time></trkpt><trkpt lat="43.30934929627665" lon="10.515776092513848"><ele>9.4</ele><time>2026-04-06T10:22:20Z</time></trkpt><trkpt lat="43.30924316834361" lon="10.51583842111736"><ele>9.0</ele><time>2026-04-06T10:22:22Z</time></trkpt><trkpt lat="43.30914792024428" lon="10.515905959435493"><ele>9.0</ele><time>2026-04-06T10:22:24Z</time></trkpt><trkpt lat="43.309056859266796" lon="10.515971851166789"><ele>9.0</ele><time>2026-04-06T10:22:26Z</time></trkpt><trkpt lat="43.30896109917208" lon="10.516022709385858"><ele>9.0</ele><time>2026-04-06T10:22:28Z</time></trkpt><trkpt lat="43.308862795122955" lon="10.516080057267038"><ele>9.0</ele><time>2026-04-06T10:22:30Z</time></trkpt><trkpt lat="43.30877223249992" lon="10.51614171744798"><ele>9.0</ele><time>2026-04-06T10:22:32Z</time></trkpt><trkpt lat="43.30869602652698" lon="10.516181554725126"><ele>8.8</ele><time>2026-04-06T10:22:34Z</time></trkpt><trkpt lat="43.308612688358295" lon="10.516229424310197"><ele>8.600000000000001</ele><time>2026-04-06T10:22:36Z</time></trkpt><trkpt lat="43.308533450437984" lon="10.516280026375476"><ele>8.4</ele><time>2026-04-06T10:22:38Z</time></trkpt><trkpt lat="43.308448714076114" lon="10.516338984023735"><ele>8.200000000000001</ele><time>2026-04-06T10:22:40Z</time></trkpt><trkpt lat="43.30835451799754" lon="10.516410634136411"><ele>8.0</ele><time>2026-04-06T10:22:42Z</time></trkpt><trkpt lat="43.30826277304974" lon="10.516467775035727"><ele>8.200000000000001</ele><time>2026-04-06T10:22:44Z</time></trkpt><trkpt lat="43.30818559760798" lon="10.516504846860009"><ele>8.4</ele><time>2026-04-06T10:22:46Z</time></trkpt><trkpt lat="43.3081047473265" lon="10.516565444578653"><ele>8.600000000000001</ele><time>2026-04-06T10:22:48Z</time></trkpt><trkpt lat="43.30800125073548" lon="10.516654454311958"><ele>8.8</ele><time>2026-04-06T10:22:50Z</time></trkpt><trkpt lat="43.30793312982442" lon="10.516697347512563"><ele>9.0</ele><time>2026-04-06T10:22:51Z</time></trkpt><trkpt lat="43.3078592258791" lon="10.516740302121915"><ele>9.0</ele><time>2026-04-06T10:22:52Z</time></trkpt><trkpt lat="43.30778378610182" lon="10.51679372109554"><ele>9.0</ele><time>2026-04-06T10:22:53Z</time></trkpt><trkpt lat="43.30770951191877" lon="10.516842517828959"><ele>9.0</ele><time>2026-04-06T10:22:54Z</time></trkpt><trkpt lat="43.30763100762945" lon="10.516894911726682"><ele>9.0</ele><time>2026-04-06T10:22:55Z</time></trkpt><trkpt lat="43.30754788033837" lon="10.51694858233456"><ele>9.0</ele><time>2026-04-06T10:22:56Z</time></trkpt><trkpt lat="43.307462961691925" lon="10.516996220705742"><ele>9.0</ele><time>2026-04-06T10:22:57Z</time></trkpt><trkpt lat="43.307373787821376" lon="10.517049737512497"><ele>9.0</ele><time>2026-04-06T10:22:58Z</time></trkpt><trkpt lat="43.30728426215716" lon="10.517102121285934"><ele>9.0</ele><time>2026-04-06T10:22:59Z</time></trkpt><trkpt lat="43.307198372060824" lon="10.51715866696044"><ele>9.0</ele><time>2026-04-06T10:23:00Z</time></trkpt><trkpt lat="43.30710823834952" lon="10.517215614178651"><ele>9.0</ele><time>2026-04-06T10:23:01Z</time></trkpt><trkpt lat="43.30702107283594" lon="10.517262618407328"><ele>9.0</ele><time>2026-04-06T10:23:02Z</time></trkpt><trkpt lat="43.30693879347124" lon="10.517307517576475"><ele>9.0</ele><time>2026-04-06T10:23:03Z</time></trkpt><trkpt lat="43.306858643617716" lon="10.517350363073"><ele>9.0</ele><time>2026-04-06T10:23:04Z</time></trkpt><trkpt lat="43.30678027088324" lon="10.517397204434438"><ele>9.0</ele><time>2026-04-06T10:23:05Z</time></trkpt><trkpt lat="43.30669627344316" lon="10.517446019335393"><ele>9.0</ele><time>2026-04-06T10:23:06Z</time></trkpt><trkpt lat="43.30662178891169" lon="10.517495501444818"><ele>9.0</ele><time>2026-04-06T10:23:07Z</time></trkpt><trkpt lat="43.306539222918495" lon="10.51754127872731"><ele>9.0</ele><time>2026-04-06T10:23:08Z</time></trkpt><trkpt lat="43.306457854493395" lon="10.517595653714999"><ele>8.833333333333334</ele><time>2026-04-06T10:23:09Z</time></trkpt><trkpt lat="43.30637652113459" lon="10.51764657366624"><ele>8.666666666666666</ele><time>2026-04-06T10:23:10Z</time></trkpt><trkpt lat="43.30629892730074" lon="10.517692280612847"><ele>8.5</ele><time>2026-04-06T10:23:11Z</time></trkpt><trkpt lat="43.3062274584588" lon="10.51773321760505"><ele>8.333333333333332</ele><time>2026-04-06T10:23:12Z</time></trkpt><trkpt lat="43.30615883788514" lon="10.517771901714056"><ele>8.166666666666666</ele><time>2026-04-06T10:23:13Z</time></trkpt><trkpt lat="43.306085604977476" lon="10.517809306167447"><ele>8.0</ele><time>2026-04-06T10:23:14Z</time></trkpt><trkpt lat="43.3060109679033" lon="10.517850594229884"><ele>7.999999999999999</ele><time>2026-04-06T10:23:15Z</time></trkpt><trkpt lat="43.30593677789175" lon="10.517889541287284"><ele>8.0</ele><time>2026-04-06T10:23:16Z</time></trkpt><trkpt lat="43.30586032319441" lon="10.517938961095231"><ele>8.0</ele><time>2026-04-06T10:23:17Z</time></trkpt><trkpt lat="43.30578782133102" lon="10.517990574107035"><ele>8.0</ele><time>2026-04-06T10:23:18Z</time></trkpt><trkpt lat="43.30571644692447" lon="10.518035554497851"><ele>7.999999999999999</ele><time>2026-04-06T10:23:19Z</time></trkpt><trkpt lat="43.30564619186176" lon="10.51807471189536"><ele>8.0</ele><time>2026-04-06T10:23:20Z</time></trkpt><trkpt lat="43.305584352524605" lon="10.51811316655652"><ele>7.6000000000000005</ele><time>2026-04-06T10:23:21Z</time></trkpt><trkpt lat="43.30547895258764" lon="10.518191432031553"><ele>7.200000000000001</ele><time>2026-04-06T10:23:23Z</time></trkpt><trkpt lat="43.3054019868422" lon="10.518286120882752"><ele>6.8</ele><time>2026-04-06T10:23:25Z</time></trkpt><trkpt lat="43.30541521285287" lon="10.51838243025292"><ele>6.4</ele><time>2026-04-06T10:23:26Z</time></trkpt><trkpt lat="43.30544857119399" lon="10.518525292792418"><ele>6.0</ele><time>2026-04-06T10:23:28Z</time></trkpt><trkpt lat="43.30548626621707" lon="10.518672389472561"><ele>5.999999999999999</ele><time>2026-04-06T10:23:30Z</time></trkpt><trkpt lat="43.305512459140736" lon="10.518756111459172"><ele>6.0</ele><time>2026-04-06T10:23:31Z</time></trkpt><trkpt lat="43.30553921838852" lon="10.518841304777473"><ele>6.0</ele><time>2026-04-06T10:23:32Z</time></trkpt><trkpt lat="43.305564493627195" lon="10.518925579033175"><ele>6.0</ele><time>2026-04-06T10:23:33Z</time></trkpt><trkpt lat="43.30558760901846" lon="10.519006090581655"><ele>6.0</ele><time>2026-04-06T10:23:34Z</time></trkpt><trkpt lat="43.305611875297146" lon="10.51909219810256"><ele>5.999999999999999</ele><time>2026-04-06T10:23:35Z</time></trkpt><trkpt lat="43.30564206451571" lon="10.519179985725875"><ele>6.0</ele><time>2026-04-06T10:23:36Z</time></trkpt><trkpt lat="43.3056717350206" lon="10.51927501233388"><ele>6.333333333333333</ele><time>2026-04-06T10:23:37Z</time></trkpt><trkpt lat="43.30570048365236" lon="10.519376826518728"><ele>6.666666666666666</ele><time>2026-04-06T10:23:38Z</time></trkpt><trkpt lat="43.305729523454204" lon="10.519476265109684"><ele>7.0</ele><time>2026-04-06T10:23:39Z</time></trkpt><trkpt lat="43.30575117464417" lon="10.51957395026786"><ele>7.333333333333333</ele><time>2026-04-06T10:23:40Z</time></trkpt><trkpt lat="43.30578164939328" lon="10.519668299600841"><ele>7.666666666666666</ele><time>2026-04-06T10:23:41Z</time></trkpt><trkpt lat="43.30580388742218" lon="10.519758961327572"><ele>8.0</ele><time>2026-04-06T10:23:42Z</time></trkpt><trkpt lat="43.3058409516872" lon="10.5199025153844"><ele>8.333333333333332</ele><time>2026-04-06T10:23:44Z</time></trkpt><trkpt lat="43.30587129940197" lon="10.520007171918554"><ele>8.666666666666666</ele><time>2026-04-06T10:23:46Z</time></trkpt><trkpt lat="43.3059049063059" lon="10.520102145593809"><ele>9.0</ele><time>2026-04-06T10:24:40Z</time></trkpt><trkpt lat="43.3059449570848" lon="10.520208516592183"><ele>9.333333333333334</ele><time>2026-04-06T10:24:42Z</time></trkpt><trkpt lat="43.30582692143508" lon="10.52025176270759"><ele>9.666666666666668</ele><time>2026-04-06T10:24:44Z</time></trkpt><trkpt lat="43.305759540908895" lon="10.520273333972847"><ele>10.0</ele><time>2026-04-06T10:24:45Z</time></trkpt><trkpt lat="43.30569819006764" lon="10.520302394764498"><ele>10.0</ele><time>2026-04-06T10:24:46Z</time></trkpt><trkpt lat="43.305626075124664" lon="10.520357844046174"><ele>10.0</ele><time>2026-04-06T10:24:47Z</time></trkpt><trkpt lat="43.30553796874048" lon="10.5204101087473"><ele>10.0</ele><time>2026-04-06T10:24:48Z</time></trkpt><trkpt lat="43.30544513455518" lon="10.520468742645889"><ele>10.0</ele><time>2026-04-06T10:24:49Z</time></trkpt><trkpt lat="43.30535194800561" lon="10.52051374258326"><ele>10.0</ele><time>2026-04-06T10:24:50Z</time></trkpt><trkpt lat="43.30526326439946" lon="10.520558904482659"><ele>9.6</ele><time>2026-04-06T10:24:51Z</time></trkpt><trkpt lat="43.30516779834288" lon="10.520609008021129"><ele>9.2</ele><time>2026-04-06T10:24:52Z</time></trkpt><trkpt lat="43.30507447755558" lon="10.520659929027738"><ele>8.8</ele><time>2026-04-06T10:24:53Z</time></trkpt><trkpt lat="43.30498536458743" lon="10.520711161225263"><ele>8.4</ele><time>2026-04-06T10:24:54Z</time></trkpt><trkpt lat="43.30489514325864" lon="10.520761812748917"><ele>8.0</ele><time>2026-04-06T10:24:55Z</time></trkpt><trkpt lat="43.3047997893279" lon="10.520807666055262"><ele>8.200000000000001</ele><time>2026-04-06T10:24:56Z</time></trkpt><trkpt lat="43.30471018029762" lon="10.520850746555363"><ele>8.4</ele><time>2026-04-06T10:24:57Z</time></trkpt><trkpt lat="43.304619732372664" lon="10.52089660986742"><ele>8.600000000000001</ele><time>2026-04-06T10:24:58Z</time></trkpt><trkpt lat="43.30453033751452" lon="10.5209434381283"><ele>8.8</ele><time>2026-04-06T10:24:59Z</time></trkpt><trkpt lat="43.30444034010388" lon="10.520998430979832"><ele>9.0</ele><time>2026-04-06T10:25:00Z</time></trkpt><trkpt lat="43.3043457384588" lon="10.52104718451793"><ele>9.0</ele><time>2026-04-06T10:25:01Z</time></trkpt><trkpt lat="43.30425439097788" lon="10.521090717813443"><ele>9.0</ele><time>2026-04-06T10:25:02Z</time></trkpt><trkpt lat="43.30416439825278" lon="10.521137329206327"><ele>9.0</ele><time>2026-04-06T10:25:03Z</time></trkpt><trkpt lat="43.30407853177456" lon="10.521189999035869"><ele>9.0</ele><time>2026-04-06T10:25:04Z</time></trkpt><trkpt lat="43.30398978847537" lon="10.521242035111685"><ele>9.0</ele><time>2026-04-06T10:25:05Z</time></trkpt><trkpt lat="43.30389774468389" lon="10.521289983247623"><ele>10.0</ele><time>2026-04-06T10:25:06Z</time></trkpt><trkpt lat="43.30380366721056" lon="10.521340593585485"><ele>11.0</ele><time>2026-04-06T10:25:07Z</time></trkpt><trkpt lat="43.30370900237213" lon="10.52139051216963"><ele>11.999999999999998</ele><time>2026-04-06T10:25:08Z</time></trkpt><trkpt lat="43.30361320873304" lon="10.521444497745335"><ele>13.0</ele><time>2026-04-06T10:25:09Z</time></trkpt><trkpt lat="43.303524339097855" lon="10.521488879200021"><ele>14.0</ele><time>2026-04-06T10:25:10Z</time></trkpt><trkpt lat="43.303433522535485" lon="10.521528582327356"><ele>14.0</ele><time>2026-04-06T10:25:11Z</time></trkpt><trkpt lat="43.303344827540805" lon="10.521563898955078"><ele>13.999999999999998</ele><time>2026-04-06T10:25:12Z</time></trkpt><trkpt lat="43.30326378695597" lon="10.521573169850441"><ele>13.999999999999998</ele><time>2026-04-06T10:25:13Z</time></trkpt><trkpt lat="43.303186950781814" lon="10.52157240529836"><ele>14.0</ele><time>2026-04-06T10:25:14Z</time></trkpt><trkpt lat="43.30307638710904" lon="10.521627743141751"><ele>14.0</ele><time>2026-04-06T10:25:16Z</time></trkpt><trkpt lat="43.302959100935226" lon="10.5216902417761"><ele>13.333333333333334</ele><time>2026-04-06T10:25:18Z</time></trkpt><trkpt lat="43.302860500490155" lon="10.52172755062077"><ele>12.666666666666668</ele><time>2026-04-06T10:25:20Z</time></trkpt><trkpt lat="43.302565695066214" lon="10.521977832691633"><ele>12.0</ele><time>2026-04-06T10:25:21Z</time></trkpt><trkpt lat="43.30248702413043" lon="10.522020766115517"><ele>11.999999999999998</ele><time>2026-04-06T10:25:22Z</time></trkpt><trkpt lat="43.30241093643044" lon="10.522063863697124"><ele>12.0</ele><time>2026-04-06T10:25:23Z</time></trkpt><trkpt lat="43.302344505260024" lon="10.52210406760335"><ele>12.0</ele><time>2026-04-06T10:25:24Z</time></trkpt><trkpt lat="43.302284637848" lon="10.52214111514556"><ele>12.0</ele><time>2026-04-06T10:25:25Z</time></trkpt><trkpt lat="43.302222251006214" lon="10.522174674619306"><ele>12.0</ele><time>2026-04-06T10:25:26Z</time></trkpt><trkpt lat="43.30213846001092" lon="10.522217791170693"><ele>11.999999999999998</ele><time>2026-04-06T10:25:28Z</time></trkpt><trkpt lat="43.302073516787374" lon="10.522247451604438"><ele>12.0</ele><time>2026-04-06T10:25:30Z</time></trkpt><trkpt lat="43.30196745405004" lon="10.522304576912907"><ele>11.833333333333334</ele><time>2026-04-06T10:25:32Z</time></trkpt><trkpt lat="43.301898745318574" lon="10.522348315292327"><ele>11.666666666666666</ele><time>2026-04-06T10:25:33Z</time></trkpt><trkpt lat="43.301836448030514" lon="10.522379620010447"><ele>11.5</ele><time>2026-04-06T10:25:34Z</time></trkpt><trkpt lat="43.30177089378133" lon="10.522408320390175"><ele>11.333333333333332</ele><time>2026-04-06T10:25:35Z</time></trkpt><trkpt lat="43.301703936643655" lon="10.52244990373463"><ele>11.166666666666666</ele><time>2026-04-06T10:25:36Z</time></trkpt><trkpt lat="43.30162039177664" lon="10.52247430557733"><ele>11.0</ele><time>2026-04-06T10:25:37Z</time></trkpt><trkpt lat="43.301531416129514" lon="10.522522937566505"><ele>11.0</ele><time>2026-04-06T10:25:38Z</time></trkpt><trkpt lat="43.30143715858295" lon="10.522571488608248"><ele>11.0</ele><time>2026-04-06T10:25:39Z</time></trkpt><trkpt lat="43.30134476905387" lon="10.522619103535037"><ele>11.0</ele><time>2026-04-06T10:25:40Z</time></trkpt><trkpt lat="43.301251002593176" lon="10.52266649197118"><ele>11.0</ele><time>2026-04-06T10:25:41Z</time></trkpt><trkpt lat="43.30115575663589" lon="10.522708967587858"><ele>11.0</ele><time>2026-04-06T10:25:42Z</time></trkpt><trkpt lat="43.3010650511932" lon="10.522755982103927"><ele>10.4</ele><time>2026-04-06T10:25:43Z</time></trkpt><trkpt lat="43.300965710806814" lon="10.522818926638998"><ele>9.8</ele><time>2026-04-06T10:25:44Z</time></trkpt><trkpt lat="43.30086929156503" lon="10.52286715623102"><ele>9.200000000000001</ele><time>2026-04-06T10:25:45Z</time></trkpt><trkpt lat="43.30076351875334" lon="10.522916437495791"><ele>8.600000000000001</ele><time>2026-04-06T10:25:46Z</time></trkpt><trkpt lat="43.30065645721066" lon="10.522974432835339"><ele>8.0</ele><time>2026-04-06T10:25:47Z</time></trkpt><trkpt lat="43.30054915284364" lon="10.523029654673708"><ele>7.75</ele><time>2026-04-06T10:25:48Z</time></trkpt><trkpt lat="43.30044115316818" lon="10.523085865206477"><ele>7.5</ele><time>2026-04-06T10:25:49Z</time></trkpt><trkpt lat="43.30033333694564" lon="10.523139072361797"><ele>7.25</ele><time>2026-04-06T10:25:50Z</time></trkpt><trkpt lat="43.300227763246795" lon="10.523197889126834"><ele>7.0</ele><time>2026-04-06T10:25:51Z</time></trkpt><trkpt lat="43.300120929098135" lon="10.523249260563272"><ele>7.0</ele><time>2026-04-06T10:25:52Z</time></trkpt><trkpt lat="43.30001818449223" lon="10.523296290897017"><ele>7.0</ele><time>2026-04-06T10:25:53Z</time></trkpt><trkpt lat="43.299915683718964" lon="10.523352426102678"><ele>7.0</ele><time>2026-04-06T10:25:54Z</time></trkpt><trkpt lat="43.29980638786269" lon="10.523410365910248"><ele>7.0</ele><time>2026-04-06T10:25:55Z</time></trkpt><trkpt lat="43.299696012098394" lon="10.523466436434177"><ele>6.75</ele><time>2026-04-06T10:25:56Z</time></trkpt><trkpt lat="43.29958453000692" lon="10.523524486432258"><ele>6.5</ele><time>2026-04-06T10:25:57Z</time></trkpt><trkpt lat="43.2994764474031" lon="10.523586393153497"><ele>6.25</ele><time>2026-04-06T10:25:58Z</time></trkpt><trkpt lat="43.29936381550343" lon="10.523646471440388"><ele>6.0</ele><time>2026-04-06T10:25:59Z</time></trkpt><trkpt lat="43.29924950464028" lon="10.52370498073817"><ele>6.0</ele><time>2026-04-06T10:26:00Z</time></trkpt><trkpt lat="43.29913944358031" lon="10.52376540735571"><ele>6.0</ele><time>2026-04-06T10:26:01Z</time></trkpt><trkpt lat="43.299038657569966" lon="10.523822718212804"><ele>6.0</ele><time>2026-04-06T10:26:02Z</time></trkpt><trkpt lat="43.29894244861725" lon="10.523877158677395"><ele>6.0</ele><time>2026-04-06T10:26:03Z</time></trkpt><trkpt lat="43.29885129438753" lon="10.523922656474989"><ele>6.0</ele><time>2026-04-06T10:26:04Z</time></trkpt><trkpt lat="43.29876068281558" lon="10.523970567381852"><ele>6.0</ele><time>2026-04-06T10:26:05Z</time></trkpt><trkpt lat="43.29867371761755" lon="10.524016380281513"><ele>6.0</ele><time>2026-04-06T10:26:06Z</time></trkpt><trkpt lat="43.29858165849949" lon="10.524062583526064"><ele>6.0</ele><time>2026-04-06T10:26:07Z</time></trkpt><trkpt lat="43.298494100138576" lon="10.52410806938607"><ele>6.0</ele><time>2026-04-06T10:26:08Z</time></trkpt><trkpt lat="43.29840922896005" lon="10.5241570417569"><ele>6.0</ele><time>2026-04-06T10:26:09Z</time></trkpt><trkpt lat="43.298328307143024" lon="10.524199891481599"><ele>6.0</ele><time>2026-04-06T10:26:10Z</time></trkpt><trkpt lat="43.29824077994071" lon="10.524234997592156"><ele>6.0</ele><time>2026-04-06T10:26:11Z</time></trkpt><trkpt lat="43.29815857705552" lon="10.524249801102126"><ele>6.0</ele><time>2026-04-06T10:26:12Z</time></trkpt><trkpt lat="43.298073714786156" lon="10.524242164121986"><ele>6.0</ele><time>2026-04-06T10:26:13Z</time></trkpt><trkpt lat="43.29799331116175" lon="10.52420977150343"><ele>6.0</ele><time>2026-04-06T10:26:14Z</time></trkpt><trkpt lat="43.29792581569557" lon="10.524169561785332"><ele>6.0</ele><time>2026-04-06T10:26:15Z</time></trkpt><trkpt lat="43.297863109668505" lon="10.52415121841734"><ele>6.6</ele><time>2026-04-06T10:26:16Z</time></trkpt><trkpt lat="43.2977671969171" lon="10.524227650228593"><ele>7.199999999999999</ele><time>2026-04-06T10:26:18Z</time></trkpt><trkpt lat="43.297708625388076" lon="10.524371708612842"><ele>7.800000000000001</ele><time>2026-04-06T10:26:20Z</time></trkpt><trkpt lat="43.29766453070744" lon="10.524452787233262"><ele>8.4</ele><time>2026-04-06T10:26:21Z</time></trkpt><trkpt lat="43.297609303365235" lon="10.524537305670659"><ele>9.0</ele><time>2026-04-06T10:26:22Z</time></trkpt><trkpt lat="43.2975344500374" lon="10.52461701343316"><ele>9.25</ele><time>2026-04-06T10:26:23Z</time></trkpt><trkpt lat="43.297443299290215" lon="10.524676581311228"><ele>9.5</ele><time>2026-04-06T10:26:24Z</time></trkpt><trkpt lat="43.2973357655308" lon="10.524727407627324"><ele>9.75</ele><time>2026-04-06T10:26:25Z</time></trkpt><trkpt lat="43.297222327404164" lon="10.524781390286371"><ele>10.0</ele><time>2026-04-06T10:26:26Z</time></trkpt><trkpt lat="43.29710108398933" lon="10.524843795489208"><ele>10.25</ele><time>2026-04-06T10:26:27Z</time></trkpt><trkpt lat="43.2969770148351" lon="10.52490993114637"><ele>10.5</ele><time>2026-04-06T10:26:28Z</time></trkpt><trkpt lat="43.29685653232733" lon="10.52497964729157"><ele>10.75</ele><time>2026-04-06T10:26:29Z</time></trkpt><trkpt lat="43.296731196742535" lon="10.525052703404743"><ele>11.0</ele><time>2026-04-06T10:26:30Z</time></trkpt><trkpt lat="43.29660038102489" lon="10.525112775412158"><ele>11.0</ele><time>2026-04-06T10:26:31Z</time></trkpt><trkpt lat="43.296478818573156" lon="10.525175227688024"><ele>11.0</ele><time>2026-04-06T10:26:32Z</time></trkpt><trkpt lat="43.29635278860894" lon="10.525241104188552"><ele>11.0</ele><time>2026-04-06T10:26:33Z</time></trkpt><trkpt lat="43.29622650449411" lon="10.525308876321876"><ele>11.0</ele><time>2026-04-06T10:26:34Z</time></trkpt><trkpt lat="43.29611024118562" lon="10.5253724616387"><ele>11.0</ele><time>2026-04-06T10:26:35Z</time></trkpt><trkpt lat="43.29600298259787" lon="10.525427867199879"><ele>11.0</ele><time>2026-04-06T10:26:36Z</time></trkpt><trkpt lat="43.29590372445291" lon="10.525480828553505"><ele>11.0</ele><time>2026-04-06T10:26:37Z</time></trkpt><trkpt lat="43.29581249087682" lon="10.525536456656587"><ele>11.0</ele><time>2026-04-06T10:26:38Z</time></trkpt><trkpt lat="43.29572321185685" lon="10.525591924264083"><ele>11.0</ele><time>2026-04-06T10:26:39Z</time></trkpt><trkpt lat="43.295641747869595" lon="10.525641285066113"><ele>11.0</ele><time>2026-04-06T10:26:40Z</time></trkpt><trkpt lat="43.29556156889141" lon="10.525692382665499"><ele>11.0</ele><time>2026-04-06T10:26:41Z</time></trkpt><trkpt lat="43.29546981401983" lon="10.525751811120982"><ele>11.0</ele><time>2026-04-06T10:26:42Z</time></trkpt><trkpt lat="43.29536191818338" lon="10.525809124949367"><ele>11.0</ele><time>2026-04-06T10:26:43Z</time></trkpt><trkpt lat="43.295243010225036" lon="10.525850614997657"><ele>11.0</ele><time>2026-04-06T10:26:44Z</time></trkpt><trkpt lat="43.295116236918076" lon="10.525902733690584"><ele>11.0</ele><time>2026-04-06T10:26:45Z</time></trkpt><trkpt lat="43.29498333286734" lon="10.525963909337538"><ele>11.0</ele><time>2026-04-06T10:26:46Z</time></trkpt><trkpt lat="43.294856340244685" lon="10.526027328724235"><ele>11.0</ele><time>2026-04-06T10:26:47Z</time></trkpt><trkpt lat="43.294739724869274" lon="10.526091811707452"><ele>11.0</ele><time>2026-04-06T10:26:48Z</time></trkpt><trkpt lat="43.29462348343214" lon="10.526153770390511"><ele>10.75</ele><time>2026-04-06T10:26:49Z</time></trkpt><trkpt lat="43.29450844276639" lon="10.526216315130485"><ele>10.5</ele><time>2026-04-06T10:26:50Z</time></trkpt><trkpt lat="43.29439569423907" lon="10.52627355421747"><ele>10.25</ele><time>2026-04-06T10:26:51Z</time></trkpt><trkpt lat="43.29428152584402" lon="10.526329238413965"><ele>10.0</ele><time>2026-04-06T10:26:52Z</time></trkpt><trkpt lat="43.294163542616154" lon="10.526389112913012"><ele>10.0</ele><time>2026-04-06T10:26:53Z</time></trkpt><trkpt lat="43.294041325682166" lon="10.526453772308138"><ele>10.0</ele><time>2026-04-06T10:26:54Z</time></trkpt><trkpt lat="43.2939250776145" lon="10.526519434919027"><ele>10.0</ele><time>2026-04-06T10:26:55Z</time></trkpt><trkpt lat="43.29380811493644" lon="10.526580861461744"><ele>10.0</ele><time>2026-04-06T10:26:56Z</time></trkpt><trkpt lat="43.293709509760035" lon="10.52663621385773"><ele>9.8</ele><time>2026-04-06T10:26:57Z</time></trkpt><trkpt lat="43.29361499227863" lon="10.52668420437121"><ele>9.6</ele><time>2026-04-06T10:26:58Z</time></trkpt><trkpt lat="43.293524321452914" lon="10.526732004163184"><ele>9.4</ele><time>2026-04-06T10:26:59Z</time></trkpt><trkpt lat="43.293437454522916" lon="10.526775029525222"><ele>9.2</ele><time>2026-04-06T10:27:00Z</time></trkpt><trkpt lat="43.293343967203995" lon="10.526825873917607"><ele>9.0</ele><time>2026-04-06T10:27:01Z</time></trkpt><trkpt lat="43.29324458471413" lon="10.526880504083763"><ele>9.0</ele><time>2026-04-06T10:27:02Z</time></trkpt><trkpt lat="43.29314527591229" lon="10.526931307591449"><ele>9.0</ele><time>2026-04-06T10:27:03Z</time></trkpt><trkpt lat="43.29304210805461" lon="10.526987899778465"><ele>9.0</ele><time>2026-04-06T10:27:04Z</time></trkpt><trkpt lat="43.29293150481061" lon="10.5270472230913"><ele>9.0</ele><time>2026-04-06T10:27:05Z</time></trkpt><trkpt lat="43.29281558329269" lon="10.52711137781159"><ele>9.25</ele><time>2026-04-06T10:27:06Z</time></trkpt><trkpt lat="43.29269696422014" lon="10.527176525317874"><ele>9.5</ele><time>2026-04-06T10:27:07Z</time></trkpt><trkpt lat="43.29257498114758" lon="10.52723626359922"><ele>9.75</ele><time>2026-04-06T10:27:08Z</time></trkpt><trkpt lat="43.29245544861333" lon="10.527298441482024"><ele>10.0</ele><time>2026-04-06T10:27:09Z</time></trkpt><trkpt lat="43.29233935997513" lon="10.527360427376223"><ele>10.0</ele><time>2026-04-06T10:27:10Z</time></trkpt><trkpt lat="43.29222375471276" lon="10.527422155907683"><ele>10.0</ele><time>2026-04-06T10:27:11Z</time></trkpt><trkpt lat="43.292103503088036" lon="10.527481257363847"><ele>10.0</ele><time>2026-04-06T10:27:12Z</time></trkpt><trkpt lat="43.29198358541217" lon="10.527547028935135"><ele>10.0</ele><time>2026-04-06T10:27:13Z</time></trkpt><trkpt lat="43.29185891866945" lon="10.527616347837826"><ele>10.0</ele><time>2026-04-06T10:27:14Z</time></trkpt><trkpt lat="43.2917316587708" lon="10.527683910974908"><ele>10.0</ele><time>2026-04-06T10:27:15Z</time></trkpt><trkpt lat="43.29160669872998" lon="10.527750271910381"><ele>10.0</ele><time>2026-04-06T10:27:16Z</time></trkpt><trkpt lat="43.29148093362499" lon="10.527814412654957"><ele>10.0</ele><time>2026-04-06T10:27:17Z</time></trkpt><trkpt lat="43.29135366608064" lon="10.5278831716997"><ele>9.75</ele><time>2026-04-06T10:27:18Z</time></trkpt><trkpt lat="43.2912240201769" lon="10.527948423977776"><ele>9.5</ele><time>2026-04-06T10:27:19Z</time></trkpt><trkpt lat="43.29109473202039" lon="10.528016732857841"><ele>9.25</ele><time>2026-04-06T10:27:20Z</time></trkpt><trkpt lat="43.29096526946107" lon="10.528084318695791"><ele>9.0</ele><time>2026-04-06T10:27:21Z</time></trkpt><trkpt lat="43.29083676656972" lon="10.528152217705903"><ele>9.0</ele><time>2026-04-06T10:27:22Z</time></trkpt><trkpt lat="43.29070833113239" lon="10.528223350402003"><ele>9.0</ele><time>2026-04-06T10:27:23Z</time></trkpt><trkpt lat="43.2905872852566" lon="10.528292800260948"><ele>9.0</ele><time>2026-04-06T10:27:24Z</time></trkpt><trkpt lat="43.29046732802829" lon="10.528354225708716"><ele>9.0</ele><time>2026-04-06T10:27:25Z</time></trkpt><trkpt lat="43.29034090498995" lon="10.528414832289323"><ele>8.75</ele><time>2026-04-06T10:27:26Z</time></trkpt><trkpt lat="43.290214412518374" lon="10.528478390858538"><ele>8.5</ele><time>2026-04-06T10:27:27Z</time></trkpt><trkpt lat="43.29008781014409" lon="10.528544192652788"><ele>8.25</ele><time>2026-04-06T10:27:28Z</time></trkpt><trkpt lat="43.289959771349096" lon="10.528612343318596"><ele>8.0</ele><time>2026-04-06T10:27:29Z</time></trkpt><trkpt lat="43.28983077111673" lon="10.528681503765402"><ele>7.5</ele><time>2026-04-06T10:27:30Z</time></trkpt><trkpt lat="43.289701444183" lon="10.52875004440599"><ele>7.0</ele><time>2026-04-06T10:27:31Z</time></trkpt><trkpt lat="43.28956916929925" lon="10.528821768274593"><ele>6.5</ele><time>2026-04-06T10:27:32Z</time></trkpt><trkpt lat="43.289434274961785" lon="10.528894822389352"><ele>6.0</ele><time>2026-04-06T10:27:33Z</time></trkpt><trkpt lat="43.28929949131098" lon="10.52896749596645"><ele>6.0</ele><time>2026-04-06T10:27:34Z</time></trkpt><trkpt lat="43.2891614081853" lon="10.529036977645179"><ele>6.0</ele><time>2026-04-06T10:27:35Z</time></trkpt><trkpt lat="43.28902470375124" lon="10.52910198260219"><ele>6.0</ele><time>2026-04-06T10:27:36Z</time></trkpt><trkpt lat="43.288880831587846" lon="10.52918052333904"><ele>6.0</ele><time>2026-04-06T10:27:37Z</time></trkpt><trkpt lat="43.288742866724135" lon="10.529256164467657"><ele>6.0</ele><time>2026-04-06T10:27:38Z</time></trkpt><trkpt lat="43.28860478824526" lon="10.529323637503579"><ele>6.0</ele><time>2026-04-06T10:27:39Z</time></trkpt><trkpt lat="43.28846439947608" lon="10.529393052873314"><ele>6.0</ele><time>2026-04-06T10:27:40Z</time></trkpt><trkpt lat="43.28832342661996" lon="10.529468405932125"><ele>6.0</ele><time>2026-04-06T10:27:41Z</time></trkpt><trkpt lat="43.28818248926484" lon="10.529545493886005"><ele>6.666666666666666</ele><time>2026-04-06T10:27:42Z</time></trkpt><trkpt lat="43.28803993638122" lon="10.529619883551888"><ele>7.333333333333333</ele><time>2026-04-06T10:27:43Z</time></trkpt><trkpt lat="43.28789474188044" lon="10.529694340294224"><ele>8.0</ele><time>2026-04-06T10:27:44Z</time></trkpt><trkpt lat="43.287754582362425" lon="10.529768509407063"><ele>8.0</ele><time>2026-04-06T10:27:45Z</time></trkpt><trkpt lat="43.28760774592989" lon="10.529842604975977"><ele>8.0</ele><time>2026-04-06T10:27:46Z</time></trkpt><trkpt lat="43.28746546595545" lon="10.52992079629788"><ele>8.0</ele><time>2026-04-06T10:27:47Z</time></trkpt><trkpt lat="43.28731784452868" lon="10.529996118289377"><ele>7.666666666666666</ele><time>2026-04-06T10:27:48Z</time></trkpt><trkpt lat="43.287170291357356" lon="10.530077553063457"><ele>7.333333333333334</ele><time>2026-04-06T10:27:49Z</time></trkpt><trkpt lat="43.28702134101928" lon="10.530157264962808"><ele>7.0</ele><time>2026-04-06T10:27:50Z</time></trkpt><trkpt lat="43.286871722994334" lon="10.530235235887893"><ele>7.0</ele><time>2026-04-06T10:27:51Z</time></trkpt><trkpt lat="43.286715774165195" lon="10.530318213952526"><ele>7.0</ele><time>2026-04-06T10:27:52Z</time></trkpt><trkpt lat="43.28656000216035" lon="10.530399625490428"><ele>7.0</ele><time>2026-04-06T10:27:53Z</time></trkpt><trkpt lat="43.28640235246997" lon="10.530488356778896"><ele>7.333333333333334</ele><time>2026-04-06T10:27:54Z</time></trkpt><trkpt lat="43.28624183114715" lon="10.53057131059142"><ele>7.666666666666666</ele><time>2026-04-06T10:27:55Z</time></trkpt><trkpt lat="43.28608323955178" lon="10.53065618427923"><ele>8.0</ele><time>2026-04-06T10:27:56Z</time></trkpt><trkpt lat="43.28593906014728" lon="10.530740598904568"><ele>8.0</ele><time>2026-04-06T10:27:57Z</time></trkpt><trkpt lat="43.28579545719873" lon="10.530838899597207"><ele>8.0</ele><time>2026-04-06T10:27:58Z</time></trkpt><trkpt lat="43.285661510979125" lon="10.530957998591909"><ele>8.0</ele><time>2026-04-06T10:27:59Z</time></trkpt><trkpt lat="43.28553989270407" lon="10.531094786696984"><ele>7.0</ele><time>2026-04-06T10:28:00Z</time></trkpt><trkpt lat="43.28542596951612" lon="10.531249670599097"><ele>6.0</ele><time>2026-04-06T10:28:01Z</time></trkpt><trkpt lat="43.28532101409518" lon="10.531417687037228"><ele>5.0</ele><time>2026-04-06T10:28:02Z</time></trkpt><trkpt lat="43.28522314735924" lon="10.531594579387848"><ele>5.0</ele><time>2026-04-06T10:28:03Z</time></trkpt><trkpt lat="43.285132710852665" lon="10.531778391473788"><ele>5.0</ele><time>2026-04-06T10:28:04Z</time></trkpt><trkpt lat="43.285041976029795" lon="10.531964824074974"><ele>5.0</ele><time>2026-04-06T10:28:05Z</time></trkpt><trkpt lat="43.28494312254142" lon="10.53214480572821"><ele>5.0</ele><time>2026-04-06T10:28:06Z</time></trkpt><trkpt lat="43.28483788132354" lon="10.53231508935765"><ele>5.0</ele><time>2026-04-06T10:28:07Z</time></trkpt><trkpt lat="43.28473477019783" lon="10.532471325491152"><ele>5.0</ele><time>2026-04-06T10:28:08Z</time></trkpt><trkpt lat="43.284623010355055" lon="10.532617247820296"><ele>5.25</ele><time>2026-04-06T10:28:09Z</time></trkpt><trkpt lat="43.284514587517485" lon="10.53274644622969"><ele>5.5</ele><time>2026-04-06T10:28:10Z</time></trkpt><trkpt lat="43.28440932141363" lon="10.532866414390442"><ele>5.75</ele><time>2026-04-06T10:28:11Z</time></trkpt><trkpt lat="43.284300068521794" lon="10.532988914730558"><ele>6.0</ele><time>2026-04-06T10:28:12Z</time></trkpt><trkpt lat="43.284191545714144" lon="10.533116291034913"><ele>6.0</ele><time>2026-04-06T10:28:13Z</time></trkpt><trkpt lat="43.284079537294744" lon="10.533243469208191"><ele>6.0</ele><time>2026-04-06T10:28:14Z</time></trkpt><trkpt lat="43.2839667870321" lon="10.533370291872947"><ele>6.0</ele><time>2026-04-06T10:28:15Z</time></trkpt><trkpt lat="43.283851681788605" lon="10.533496764521493"><ele>6.0</ele><time>2026-04-06T10:28:16Z</time></trkpt><trkpt lat="43.283737423356186" lon="10.533628340733195"><ele>5.666666666666667</ele><time>2026-04-06T10:28:17Z</time></trkpt><trkpt lat="43.283622156266546" lon="10.533768998842293"><ele>5.333333333333334</ele><time>2026-04-06T10:28:18Z</time></trkpt><trkpt lat="43.28350714306" lon="10.533921009008974"><ele>5.0</ele><time>2026-04-06T10:28:19Z</time></trkpt><trkpt lat="43.28339095774502" lon="10.534077667995541"><ele>5.0</ele><time>2026-04-06T10:28:20Z</time></trkpt><trkpt lat="43.28327002521939" lon="10.53423639248684"><ele>5.0</ele><time>2026-04-06T10:28:21Z</time></trkpt><trkpt lat="43.283153464507016" lon="10.53439702629258"><ele>5.0</ele><time>2026-04-06T10:28:22Z</time></trkpt><trkpt lat="43.283035310069145" lon="10.534564640366018"><ele>4.666666666666667</ele><time>2026-04-06T10:28:23Z</time></trkpt><trkpt lat="43.28291523999622" lon="10.534733602326941"><ele>4.333333333333333</ele><time>2026-04-06T10:28:24Z</time></trkpt><trkpt lat="43.282794451283465" lon="10.534900817755215"><ele>4.0</ele><time>2026-04-06T10:28:25Z</time></trkpt><trkpt lat="43.282673632137325" lon="10.535067070184152"><ele>4.0</ele><time>2026-04-06T10:28:26Z</time></trkpt><trkpt lat="43.282555841499224" lon="10.535235108051083"><ele>4.0</ele><time>2026-04-06T10:28:27Z</time></trkpt><trkpt lat="43.28243796724427" lon="10.535397911230893"><ele>4.0</ele><time>2026-04-06T10:28:28Z</time></trkpt><trkpt lat="43.282321469823586" lon="10.535554500956046"><ele>4.0</ele><time>2026-04-06T10:28:29Z</time></trkpt><trkpt lat="43.28220440020475" lon="10.535717102150404"><ele>4.0</ele><time>2026-04-06T10:28:30Z</time></trkpt><trkpt lat="43.28208882418446" lon="10.535879883549791"><ele>4.0</ele><time>2026-04-06T10:28:31Z</time></trkpt><trkpt lat="43.281973724304535" lon="10.53604006174408"><ele>4.0</ele><time>2026-04-06T10:28:32Z</time></trkpt><trkpt lat="43.28186193000817" lon="10.536195358262214"><ele>4.0</ele><time>2026-04-06T10:28:33Z</time></trkpt><trkpt lat="43.28174831719368" lon="10.536353526345852"><ele>4.0</ele><time>2026-04-06T10:28:34Z</time></trkpt><trkpt lat="43.28163321219391" lon="10.536512672375624"><ele>4.333333333333333</ele><time>2026-04-06T10:28:35Z</time></trkpt><trkpt lat="43.281518725234626" lon="10.536668629178754"><ele>4.666666666666667</ele><time>2026-04-06T10:28:36Z</time></trkpt><trkpt lat="43.28140614180821" lon="10.536823967833003"><ele>5.0</ele><time>2026-04-06T10:28:37Z</time></trkpt><trkpt lat="43.28129739531054" lon="10.536983436490955"><ele>5.0</ele><time>2026-04-06T10:28:38Z</time></trkpt><trkpt lat="43.281196514995514" lon="10.537149157945095"><ele>5.0</ele><time>2026-04-06T10:28:39Z</time></trkpt><trkpt lat="43.281083830900386" lon="10.537306813176345"><ele>5.0</ele><time>2026-04-06T10:28:40Z</time></trkpt><trkpt lat="43.28099005107134" lon="10.537477184133232"><ele>5.0</ele><time>2026-04-06T10:28:41Z</time></trkpt><trkpt lat="43.28091314181748" lon="10.537661243539718"><ele>5.0</ele><time>2026-04-06T10:28:42Z</time></trkpt><trkpt lat="43.28082155855651" lon="10.537832982936003"><ele>5.0</ele><time>2026-04-06T10:28:43Z</time></trkpt><trkpt lat="43.28073105235485" lon="10.538003229781845"><ele>5.0</ele><time>2026-04-06T10:28:44Z</time></trkpt><trkpt lat="43.280641744535664" lon="10.538164619341984"><ele>5.0</ele><time>2026-04-06T10:28:45Z</time></trkpt><trkpt lat="43.2805479900029" lon="10.538323083169"><ele>5.0</ele><time>2026-04-06T10:28:46Z</time></trkpt><trkpt lat="43.2804448010296" lon="10.538468064590191"><ele>5.0</ele><time>2026-04-06T10:28:47Z</time></trkpt><trkpt lat="43.28033703883906" lon="10.538594201157288"><ele>5.0</ele><time>2026-04-06T10:28:48Z</time></trkpt><trkpt lat="43.28022760158196" lon="10.538706336351717"><ele>5.0</ele><time>2026-04-06T10:28:49Z</time></trkpt><trkpt lat="43.28012210060391" lon="10.538809003228781"><ele>5.0</ele><time>2026-04-06T10:28:50Z</time></trkpt><trkpt lat="43.280017192333375" lon="10.53890614802618"><ele>5.0</ele><time>2026-04-06T10:28:51Z</time></trkpt><trkpt lat="43.27991436445904" lon="10.539004734783308"><ele>5.25</ele><time>2026-04-06T10:28:52Z</time></trkpt><trkpt lat="43.27981113561739" lon="10.539101300516943"><ele>5.5</ele><time>2026-04-06T10:28:53Z</time></trkpt><trkpt lat="43.27970038020755" lon="10.539201939226897"><ele>5.75</ele><time>2026-04-06T10:28:54Z</time></trkpt><trkpt lat="43.27958872184704" lon="10.539296813077533"><ele>6.0</ele><time>2026-04-06T10:28:55Z</time></trkpt><trkpt lat="43.27947435201606" lon="10.53939203811691"><ele>6.25</ele><time>2026-04-06T10:28:56Z</time></trkpt><trkpt lat="43.27935599472508" lon="10.539490259939237"><ele>6.5</ele><time>2026-04-06T10:28:57Z</time></trkpt><trkpt lat="43.27924288748714" lon="10.539589723636764"><ele>6.75</ele><time>2026-04-06T10:28:58Z</time></trkpt><trkpt lat="43.279132610897626" lon="10.539678319557256"><ele>7.0</ele><time>2026-04-06T10:28:59Z</time></trkpt><trkpt lat="43.27902215987321" lon="10.53975972086735"><ele>7.0</ele><time>2026-04-06T10:29:00Z</time></trkpt><trkpt lat="43.27892141658051" lon="10.5398362112298"><ele>7.0</ele><time>2026-04-06T10:29:01Z</time></trkpt><trkpt lat="43.27882525285163" lon="10.539911225596978"><ele>7.0</ele><time>2026-04-06T10:29:02Z</time></trkpt><trkpt lat="43.278729893961696" lon="10.539983246317025"><ele>7.0</ele><time>2026-04-06T10:29:03Z</time></trkpt><trkpt lat="43.27862462580828" lon="10.540047761429822"><ele>7.0</ele><time>2026-04-06T10:29:04Z</time></trkpt><trkpt lat="43.278515580214005" lon="10.540112111319422"><ele>7.0</ele><time>2026-04-06T10:29:05Z</time></trkpt><trkpt lat="43.27841594127333" lon="10.540177497910777"><ele>7.0</ele><time>2026-04-06T10:29:06Z</time></trkpt><trkpt lat="43.27831221305076" lon="10.54025711376579"><ele>7.0</ele><time>2026-04-06T10:29:07Z</time></trkpt><trkpt lat="43.27820987306003" lon="10.54031023320135"><ele>7.0</ele><time>2026-04-06T10:29:08Z</time></trkpt><trkpt lat="43.27810470012473" lon="10.540342799295228"><ele>6.999999999999999</ele><time>2026-04-06T10:29:09Z</time></trkpt><trkpt lat="43.277996297964364" lon="10.540372677468577"><ele>6.999999999999999</ele><time>2026-04-06T10:29:10Z</time></trkpt><trkpt lat="43.277892730123334" lon="10.540405254205732"><ele>7.0</ele><time>2026-04-06T10:29:11Z</time></trkpt><trkpt lat="43.27778657520769" lon="10.540438893287861"><ele>7.0</ele><time>2026-04-06T10:29:12Z</time></trkpt><trkpt lat="43.27767814866496" lon="10.540475528237096"><ele>6.75</ele><time>2026-04-06T10:29:13Z</time></trkpt><trkpt lat="43.27756689538617" lon="10.540506427231758"><ele>6.5</ele><time>2026-04-06T10:29:14Z</time></trkpt><trkpt lat="43.27745104814435" lon="10.54054032468936"><ele>6.25</ele><time>2026-04-06T10:29:15Z</time></trkpt><trkpt lat="43.277335450382985" lon="10.540578740239384"><ele>6.0</ele><time>2026-04-06T10:29:16Z</time></trkpt><trkpt lat="43.27723312400457" lon="10.540607563327427"><ele>5.8</ele><time>2026-04-06T10:29:17Z</time></trkpt><trkpt lat="43.27713887594996" lon="10.540633810262188"><ele>5.6</ele><time>2026-04-06T10:29:18Z</time></trkpt><trkpt lat="43.27705282576241" lon="10.540661540153694"><ele>5.4</ele><time>2026-04-06T10:29:19Z</time></trkpt><trkpt lat="43.276959486341724" lon="10.540691396446201"><ele>5.2</ele><time>2026-04-06T10:29:20Z</time></trkpt><trkpt lat="43.276855074896865" lon="10.540731151377587"><ele>5.0</ele><time>2026-04-06T10:29:21Z</time></trkpt><trkpt lat="43.27673539370197" lon="10.540768170311816"><ele>5.0</ele><time>2026-04-06T10:29:22Z</time></trkpt><trkpt lat="43.276610076248296" lon="10.540814029943341"><ele>5.0</ele><time>2026-04-06T10:29:23Z</time></trkpt><trkpt lat="43.27648045821986" lon="10.540860271134969"><ele>5.0</ele><time>2026-04-06T10:29:24Z</time></trkpt><trkpt lat="43.276345200386636" lon="10.540899667095397"><ele>5.0</ele><time>2026-04-06T10:29:25Z</time></trkpt><trkpt lat="43.27620727832005" lon="10.540941069191886"><ele>5.25</ele><time>2026-04-06T10:29:26Z</time></trkpt><trkpt lat="43.27606640994009" lon="10.540983635058877"><ele>5.5</ele><time>2026-04-06T10:29:27Z</time></trkpt><trkpt lat="43.27592314826661" lon="10.541029247524484"><ele>5.75</ele><time>2026-04-06T10:29:28Z</time></trkpt><trkpt lat="43.27578129082815" lon="10.541073495972679"><ele>6.0</ele><time>2026-04-06T10:29:29Z</time></trkpt><trkpt lat="43.2756466851362" lon="10.541121118662975"><ele>6.25</ele><time>2026-04-06T10:29:30Z</time></trkpt><trkpt lat="43.27551543612115" lon="10.541164868802078"><ele>6.5</ele><time>2026-04-06T10:29:31Z</time></trkpt><trkpt lat="43.27539270789979" lon="10.541203158929802"><ele>6.75</ele><time>2026-04-06T10:29:32Z</time></trkpt><trkpt lat="43.27527029756839" lon="10.541247004914096"><ele>7.0</ele><time>2026-04-06T10:29:33Z</time></trkpt><trkpt lat="43.27515736909117" lon="10.541285811071269"><ele>7.199999999999999</ele><time>2026-04-06T10:29:34Z</time></trkpt><trkpt lat="43.27504290419493" lon="10.541322951398255"><ele>7.3999999999999995</ele><time>2026-04-06T10:29:35Z</time></trkpt><trkpt lat="43.27492910499664" lon="10.541353667943616"><ele>7.6000000000000005</ele><time>2026-04-06T10:29:36Z</time></trkpt><trkpt lat="43.274823868152794" lon="10.541385047474602"><ele>7.800000000000001</ele><time>2026-04-06T10:29:37Z</time></trkpt><trkpt lat="43.27472082074898" lon="10.541418225891006"><ele>8.0</ele><time>2026-04-06T10:29:38Z</time></trkpt><trkpt lat="43.27462177029595" lon="10.541448122653795"><ele>7.999999999999999</ele><time>2026-04-06T10:29:39Z</time></trkpt><trkpt lat="43.274527965163145" lon="10.541476543379087"><ele>8.0</ele><time>2026-04-06T10:29:40Z</time></trkpt><trkpt lat="43.27444821731386" lon="10.541501909810297"><ele>8.0</ele><time>2026-04-06T10:29:41Z</time></trkpt><trkpt lat="43.274382235822024" lon="10.541523357529574"><ele>8.0</ele><time>2026-04-06T10:29:42Z</time></trkpt><trkpt lat="43.274279334428634" lon="10.541560956868704"><ele>7.999999999999999</ele><time>2026-04-06T10:29:44Z</time></trkpt><trkpt lat="43.27420376105189" lon="10.541590699814048"><ele>8.0</ele><time>2026-04-06T10:29:46Z</time></trkpt><trkpt lat="43.274121371539806" lon="10.541630159796814"><ele>7.999999999999999</ele><time>2026-04-06T10:30:03Z</time></trkpt><trkpt lat="43.274037328805164" lon="10.54165409760001"><ele>8.0</ele><time>2026-04-06T10:30:05Z</time></trkpt><trkpt lat="43.273953867268624" lon="10.54167893898886"><ele>8.0</ele><time>2026-04-06T10:30:07Z</time></trkpt><trkpt lat="43.27386254683961" lon="10.54170282284299"><ele>8.0</ele><time>2026-04-06T10:30:09Z</time></trkpt><trkpt lat="43.27376944056943" lon="10.541735712440808"><ele>7.999999999999999</ele><time>2026-04-06T10:30:11Z</time></trkpt><trkpt lat="43.27369113598388" lon="10.541762666147703"><ele>8.0</ele><time>2026-04-06T10:30:13Z</time></trkpt><trkpt lat="43.27358983135385" lon="10.54178045810095"><ele>8.0</ele><time>2026-04-06T10:30:15Z</time></trkpt><trkpt lat="43.27348337720998" lon="10.541814656011631"><ele>8.0</ele><time>2026-04-06T10:30:17Z</time></trkpt><trkpt lat="43.2734122760691" lon="10.541837730933699"><ele>8.0</ele><time>2026-04-06T10:30:19Z</time></trkpt><trkpt lat="43.27331750705133" lon="10.54186848694648"><ele>8.0</ele><time>2026-04-06T10:30:21Z</time></trkpt><trkpt lat="43.27319877610208" lon="10.54190745821153"><ele>8.0</ele><time>2026-04-06T10:30:23Z</time></trkpt><trkpt lat="43.273126359745085" lon="10.541931453741588"><ele>7.999999999999999</ele><time>2026-04-06T10:30:24Z</time></trkpt><trkpt lat="43.27304759633707" lon="10.541957552443597"><ele>8.0</ele><time>2026-04-06T10:30:25Z</time></trkpt><trkpt lat="43.27296652169524" lon="10.541984751855477"><ele>8.0</ele><time>2026-04-06T10:30:26Z</time></trkpt><trkpt lat="43.272883317044354" lon="10.542012617667657"><ele>8.0</ele><time>2026-04-06T10:30:27Z</time></trkpt><trkpt lat="43.27280012366684" lon="10.542038499429852"><ele>7.999999999999999</ele><time>2026-04-06T10:30:28Z</time></trkpt><trkpt lat="43.27271353259745" lon="10.54206597407904"><ele>8.0</ele><time>2026-04-06T10:30:29Z</time></trkpt><trkpt lat="43.272633367088254" lon="10.542091410064407"><ele>7.999999999999999</ele><time>2026-04-06T10:30:30Z</time></trkpt><trkpt lat="43.2725592591711" lon="10.54211465797755"><ele>8.0</ele><time>2026-04-06T10:30:31Z</time></trkpt><trkpt lat="43.27248576304248" lon="10.54213789131142"><ele>8.0</ele><time>2026-04-06T10:30:32Z</time></trkpt><trkpt lat="43.272414906563306" lon="10.542160760564748"><ele>8.0</ele><time>2026-04-06T10:30:33Z</time></trkpt><trkpt lat="43.27234326504404" lon="10.542184908768823"><ele>7.999999999999999</ele><time>2026-04-06T10:30:34Z</time></trkpt><trkpt lat="43.272268367456086" lon="10.542210154499585"><ele>8.0</ele><time>2026-04-06T10:30:35Z</time></trkpt><trkpt lat="43.27218767863824" lon="10.542237352274691"><ele>8.0</ele><time>2026-04-06T10:30:36Z</time></trkpt><trkpt lat="43.27210092542561" lon="10.542266251795603"><ele>8.0</ele><time>2026-04-06T10:30:37Z</time></trkpt><trkpt lat="43.27200556249511" lon="10.542297977825093"><ele>8.0</ele><time>2026-04-06T10:30:38Z</time></trkpt><trkpt lat="43.27189521969316" lon="10.542334379259936"><ele>8.0</ele><time>2026-04-06T10:30:39Z</time></trkpt><trkpt lat="43.27178197705995" lon="10.542370712037505"><ele>8.0</ele><time>2026-04-06T10:30:40Z</time></trkpt><trkpt lat="43.27169326651538" lon="10.542399173933537"><ele>7.999999999999999</ele><time>2026-04-06T10:30:41Z</time></trkpt><trkpt lat="43.2716194266687" lon="10.542422864717581"><ele>8.0</ele><time>2026-04-06T10:30:42Z</time></trkpt><trkpt lat="43.27154521090291" lon="10.542469557894039"><ele>8.0</ele><time>2026-04-06T10:30:44Z</time></trkpt><trkpt lat="43.27146879512952" lon="10.5424942387334"><ele>8.0</ele><time>2026-04-06T10:31:12Z</time></trkpt><trkpt lat="43.27137550983421" lon="10.542501733089079"><ele>7.999999999999999</ele><time>2026-04-06T10:31:14Z</time></trkpt><trkpt lat="43.27127366086034" lon="10.542556286672776"><ele>8.0</ele><time>2026-04-06T10:31:16Z</time></trkpt><trkpt lat="43.271168408158765" lon="10.542582857483023"><ele>7.833333333333333</ele><time>2026-04-06T10:31:18Z</time></trkpt><trkpt lat="43.27104267895122" lon="10.542622098309213"><ele>7.666666666666666</ele><time>2026-04-06T10:31:20Z</time></trkpt><trkpt lat="43.27097564637933" lon="10.542641189529732"><ele>7.5</ele><time>2026-04-06T10:31:21Z</time></trkpt><trkpt lat="43.27090366484755" lon="10.542670352123011"><ele>7.333333333333334</ele><time>2026-04-06T10:31:22Z</time></trkpt><trkpt lat="43.27083390717209" lon="10.542691029311289"><ele>7.166666666666667</ele><time>2026-04-06T10:31:23Z</time></trkpt><trkpt lat="43.2707685404369" lon="10.542707030424177"><ele>7.0</ele><time>2026-04-06T10:31:24Z</time></trkpt><trkpt lat="43.27066912869438" lon="10.542743606931923"><ele>7.166666666666667</ele><time>2026-04-06T10:31:26Z</time></trkpt><trkpt lat="43.27060169094148" lon="10.542759173760343"><ele>7.333333333333334</ele><time>2026-04-06T10:31:28Z</time></trkpt><trkpt lat="43.27053723512262" lon="10.542783824799944"><ele>7.5</ele><time>2026-04-06T10:31:32Z</time></trkpt><trkpt lat="43.27046430460612" lon="10.542814002536844"><ele>7.666666666666666</ele><time>2026-04-06T10:31:35Z</time></trkpt><trkpt lat="43.27039204330075" lon="10.542838697020914"><ele>7.833333333333333</ele><time>2026-04-06T10:31:39Z</time></trkpt><trkpt lat="43.2703193108557" lon="10.542863864940628"><ele>8.0</ele><time>2026-04-06T10:31:41Z</time></trkpt><trkpt lat="43.27019422278681" lon="10.542868951748698"><ele>8.200000000000001</ele><time>2026-04-06T10:31:43Z</time></trkpt><trkpt lat="43.27006119564494" lon="10.542914486026428"><ele>8.4</ele><time>2026-04-06T10:31:45Z</time></trkpt><trkpt lat="43.269982050803705" lon="10.542941577350152"><ele>8.600000000000001</ele><time>2026-04-06T10:31:46Z</time></trkpt><trkpt lat="43.269895648012906" lon="10.542962359566154"><ele>8.8</ele><time>2026-04-06T10:31:47Z</time></trkpt><trkpt lat="43.26980146656064" lon="10.542988378456151"><ele>9.0</ele><time>2026-04-06T10:31:48Z</time></trkpt><trkpt lat="43.2697073058269" lon="10.54301473799568"><ele>9.0</ele><time>2026-04-06T10:31:49Z</time></trkpt><trkpt lat="43.269616641640276" lon="10.543041280348897"><ele>9.0</ele><time>2026-04-06T10:31:50Z</time></trkpt><trkpt lat="43.26953612158982" lon="10.543064852940255"><ele>9.0</ele><time>2026-04-06T10:31:51Z</time></trkpt><trkpt lat="43.26945274788323" lon="10.543089260936169"><ele>9.0</ele><time>2026-04-06T10:31:52Z</time></trkpt><trkpt lat="43.269367419152836" lon="10.543114241286277"><ele>9.0</ele><time>2026-04-06T10:31:53Z</time></trkpt><trkpt lat="43.26928512384268" lon="10.5431570115355"><ele>9.0</ele><time>2026-04-06T10:31:54Z</time></trkpt><trkpt lat="43.26920492278361" lon="10.543179963604814"><ele>9.0</ele><time>2026-04-06T10:31:55Z</time></trkpt><trkpt lat="43.269116916425496" lon="10.543190833285497"><ele>9.0</ele><time>2026-04-06T10:31:56Z</time></trkpt><trkpt lat="43.26903271073474" lon="10.543235255674398"><ele>9.0</ele><time>2026-04-06T10:31:57Z</time></trkpt><trkpt lat="43.26893878123899" lon="10.543269231896922"><ele>9.0</ele><time>2026-04-06T10:31:58Z</time></trkpt><trkpt lat="43.26883897931689" lon="10.543302371360724"><ele>9.0</ele><time>2026-04-06T10:31:59Z</time></trkpt><trkpt lat="43.26874051399711" lon="10.543333134736434"><ele>9.2</ele><time>2026-04-06T10:32:00Z</time></trkpt><trkpt lat="43.26864054245485" lon="10.543367712039624"><ele>9.4</ele><time>2026-04-06T10:32:01Z</time></trkpt><trkpt lat="43.26854904445383" lon="10.543399361208238"><ele>9.6</ele><time>2026-04-06T10:32:02Z</time></trkpt><trkpt lat="43.268455638193196" lon="10.543429619074503"><ele>9.8</ele><time>2026-04-06T10:32:03Z</time></trkpt><trkpt lat="43.26835892658228" lon="10.543457868732673"><ele>10.0</ele><time>2026-04-06T10:32:04Z</time></trkpt><trkpt lat="43.26826245631192" lon="10.543492605413027"><ele>10.0</ele><time>2026-04-06T10:32:05Z</time></trkpt><trkpt lat="43.268166921385316" lon="10.54353226655305"><ele>10.0</ele><time>2026-04-06T10:32:06Z</time></trkpt><trkpt lat="43.26806443700157" lon="10.543570545149704"><ele>10.0</ele><time>2026-04-06T10:32:07Z</time></trkpt><trkpt lat="43.26796414069204" lon="10.543606177744854"><ele>10.0</ele><time>2026-04-06T10:32:08Z</time></trkpt><trkpt lat="43.267860158855086" lon="10.543644411270932"><ele>10.0</ele><time>2026-04-06T10:32:09Z</time></trkpt><trkpt lat="43.26775131107545" lon="10.543685377902122"><ele>9.75</ele><time>2026-04-06T10:32:10Z</time></trkpt><trkpt lat="43.267636846682244" lon="10.543729893448923"><ele>9.5</ele><time>2026-04-06T10:32:11Z</time></trkpt><trkpt lat="43.267520628416634" lon="10.543775819580615"><ele>9.25</ele><time>2026-04-06T10:32:12Z</time></trkpt><trkpt lat="43.26740189374285" lon="10.543821641272311"><ele>9.0</ele><time>2026-04-06T10:32:13Z</time></trkpt><trkpt lat="43.26728267954146" lon="10.543867459317362"><ele>8.75</ele><time>2026-04-06T10:32:14Z</time></trkpt><trkpt lat="43.26716486440333" lon="10.543909470054054"><ele>8.5</ele><time>2026-04-06T10:32:15Z</time></trkpt><trkpt lat="43.2670490413735" lon="10.543951787992805"><ele>8.25</ele><time>2026-04-06T10:32:16Z</time></trkpt><trkpt lat="43.2669348796926" lon="10.543988924508096"><ele>8.0</ele><time>2026-04-06T10:32:17Z</time></trkpt><trkpt lat="43.266820760005366" lon="10.544027539826136"><ele>8.0</ele><time>2026-04-06T10:32:18Z</time></trkpt><trkpt lat="43.26670958927654" lon="10.54406499259632"><ele>8.0</ele><time>2026-04-06T10:32:19Z</time></trkpt><trkpt lat="43.26659438658029" lon="10.544099356645587"><ele>8.0</ele><time>2026-04-06T10:32:20Z</time></trkpt><trkpt lat="43.26648027076574" lon="10.544135890211018"><ele>8.0</ele><time>2026-04-06T10:32:21Z</time></trkpt><trkpt lat="43.26636616538345" lon="10.54417817670423"><ele>7.75</ele><time>2026-04-06T10:32:22Z</time></trkpt><trkpt lat="43.2662536979662" lon="10.544229447882458"><ele>7.5</ele><time>2026-04-06T10:32:23Z</time></trkpt><trkpt lat="43.266140482572304" lon="10.544276764881852"><ele>7.25</ele><time>2026-04-06T10:32:24Z</time></trkpt><trkpt lat="43.266027826684244" lon="10.544328993748595"><ele>7.0</ele><time>2026-04-06T10:32:25Z</time></trkpt><trkpt lat="43.26591839865854" lon="10.544389449694307"><ele>7.0</ele><time>2026-04-06T10:32:26Z</time></trkpt><trkpt lat="43.26580978674592" lon="10.544445392546153"><ele>7.0</ele><time>2026-04-06T10:32:27Z</time></trkpt><trkpt lat="43.26570315828956" lon="10.544508741813557"><ele>7.0</ele><time>2026-04-06T10:32:28Z</time></trkpt><trkpt lat="43.26559986254529" lon="10.54457317916431"><ele>7.0</ele><time>2026-04-06T10:32:29Z</time></trkpt><trkpt lat="43.26550131982016" lon="10.544637298875367"><ele>6.8</ele><time>2026-04-06T10:32:30Z</time></trkpt><trkpt lat="43.26540358816871" lon="10.544694220162995"><ele>6.6</ele><time>2026-04-06T10:32:31Z</time></trkpt><trkpt lat="43.26530185809118" lon="10.544754970477744"><ele>6.3999999999999995</ele><time>2026-04-06T10:32:32Z</time></trkpt><trkpt lat="43.265204457723044" lon="10.544812361360163"><ele>6.199999999999999</ele><time>2026-04-06T10:32:33Z</time></trkpt><trkpt lat="43.26510668146445" lon="10.544865210628245"><ele>6.0</ele><time>2026-04-06T10:32:34Z</time></trkpt><trkpt lat="43.26500964035891" lon="10.54491627672596"><ele>6.0</ele><time>2026-04-06T10:32:35Z</time></trkpt><trkpt lat="43.264909456877774" lon="10.544966485275827"><ele>6.0</ele><time>2026-04-06T10:32:36Z</time></trkpt><trkpt lat="43.2648056648783" lon="10.545018981841498"><ele>6.0</ele><time>2026-04-06T10:32:37Z</time></trkpt><trkpt lat="43.2647009011289" lon="10.545073714861743"><ele>6.0</ele><time>2026-04-06T10:32:38Z</time></trkpt><trkpt lat="43.2645939437947" lon="10.545130937489718"><ele>6.0</ele><time>2026-04-06T10:32:39Z</time></trkpt><trkpt lat="43.26449297983924" lon="10.545182965073941"><ele>6.0</ele><time>2026-04-06T10:32:40Z</time></trkpt><trkpt lat="43.26439652762032" lon="10.54523051749241"><ele>6.0</ele><time>2026-04-06T10:32:41Z</time></trkpt><trkpt lat="43.26430494246876" lon="10.545268187091105"><ele>6.0</ele><time>2026-04-06T10:32:42Z</time></trkpt><trkpt lat="43.26422137351131" lon="10.5453075808823"><ele>6.0</ele><time>2026-04-06T10:32:43Z</time></trkpt><trkpt lat="43.26414381367335" lon="10.54534875500605"><ele>6.0</ele><time>2026-04-06T10:32:44Z</time></trkpt><trkpt lat="43.26407191084305" lon="10.545383622889064"><ele>6.0</ele><time>2026-04-06T10:32:45Z</time></trkpt><trkpt lat="43.26399844851949" lon="10.54542221020258"><ele>6.199999999999999</ele><time>2026-04-06T10:32:46Z</time></trkpt><trkpt lat="43.26392027724005" lon="10.54546136456539"><ele>6.3999999999999995</ele><time>2026-04-06T10:32:47Z</time></trkpt><trkpt lat="43.26383307439213" lon="10.545500557851653"><ele>6.6</ele><time>2026-04-06T10:32:48Z</time></trkpt><trkpt lat="43.26374075232864" lon="10.54554357755087"><ele>6.8</ele><time>2026-04-06T10:32:49Z</time></trkpt><trkpt lat="43.26364708214345" lon="10.545584213788874"><ele>7.0</ele><time>2026-04-06T10:32:50Z</time></trkpt><trkpt lat="43.26355469884723" lon="10.54562428703941"><ele>7.0</ele><time>2026-04-06T10:32:51Z</time></trkpt><trkpt lat="43.26346170501332" lon="10.545675613919919"><ele>6.999999999999999</ele><time>2026-04-06T10:32:52Z</time></trkpt><trkpt lat="43.26336851107402" lon="10.545716934984508"><ele>6.999999999999999</ele><time>2026-04-06T10:32:53Z</time></trkpt><trkpt lat="43.26327077420335" lon="10.545753471267876"><ele>7.0</ele><time>2026-04-06T10:32:54Z</time></trkpt><trkpt lat="43.263164673269024" lon="10.54579009939683"><ele>7.0</ele><time>2026-04-06T10:32:55Z</time></trkpt><trkpt lat="43.26304892393696" lon="10.54583037881065"><ele>6.75</ele><time>2026-04-06T10:32:56Z</time></trkpt><trkpt lat="43.2629305384629" lon="10.545873013028025"><ele>6.5</ele><time>2026-04-06T10:32:57Z</time></trkpt><trkpt lat="43.26281824177814" lon="10.545913996771352"><ele>6.25</ele><time>2026-04-06T10:32:58Z</time></trkpt><trkpt lat="43.262705668200226" lon="10.545956440247112"><ele>6.0</ele><time>2026-04-06T10:32:59Z</time></trkpt><trkpt lat="43.26258978679658" lon="10.545996386792709"><ele>6.0</ele><time>2026-04-06T10:33:00Z</time></trkpt><trkpt lat="43.262477360080204" lon="10.546038938168122"><ele>6.0</ele><time>2026-04-06T10:33:01Z</time></trkpt><trkpt lat="43.26236484017882" lon="10.546074866134884"><ele>6.0</ele><time>2026-04-06T10:33:02Z</time></trkpt><trkpt lat="43.2622503048023" lon="10.5461087638987"><ele>6.0</ele><time>2026-04-06T10:33:03Z</time></trkpt><trkpt lat="43.26213689870515" lon="10.546133145539057"><ele>6.0</ele><time>2026-04-06T10:33:04Z</time></trkpt><trkpt lat="43.26202677709263" lon="10.54615593812532"><ele>6.0</ele><time>2026-04-06T10:33:05Z</time></trkpt><trkpt lat="43.26192144676014" lon="10.546170274650745"><ele>6.0</ele><time>2026-04-06T10:33:06Z</time></trkpt><trkpt lat="43.261818972935956" lon="10.546178313141251"><ele>6.0</ele><time>2026-04-06T10:33:07Z</time></trkpt><trkpt lat="43.26171575842526" lon="10.546189085052118"><ele>6.0</ele><time>2026-04-06T10:33:08Z</time></trkpt><trkpt lat="43.26161242890998" lon="10.546201019882862"><ele>6.0</ele><time>2026-04-06T10:33:09Z</time></trkpt><trkpt lat="43.261510374135696" lon="10.546209330320668"><ele>6.0</ele><time>2026-04-06T10:33:10Z</time></trkpt><trkpt lat="43.261409210414925" lon="10.546217694003625"><ele>6.0</ele><time>2026-04-06T10:33:11Z</time></trkpt><trkpt lat="43.26130507660262" lon="10.546226120565041"><ele>6.0</ele><time>2026-04-06T10:33:12Z</time></trkpt><trkpt lat="43.26119619059377" lon="10.546235505039196"><ele>6.0</ele><time>2026-04-06T10:33:13Z</time></trkpt><trkpt lat="43.261080857612555" lon="10.54624512573898"><ele>6.199999999999999</ele><time>2026-04-06T10:33:14Z</time></trkpt><trkpt lat="43.26096551968114" lon="10.546255204268212"><ele>6.3999999999999995</ele><time>2026-04-06T10:33:15Z</time></trkpt><trkpt lat="43.26085603827507" lon="10.54626583312241"><ele>6.6</ele><time>2026-04-06T10:33:16Z</time></trkpt><trkpt lat="43.260748838178294" lon="10.546278253469918"><ele>6.8</ele><time>2026-04-06T10:33:17Z</time></trkpt><trkpt lat="43.26064180827299" lon="10.546298214030456"><ele>7.0</ele><time>2026-04-06T10:33:18Z</time></trkpt><trkpt lat="43.26054096316032" lon="10.546320686545382"><ele>7.0</ele><time>2026-04-06T10:33:19Z</time></trkpt><trkpt lat="43.26044601768891" lon="10.546340235727493"><ele>6.999999999999999</ele><time>2026-04-06T10:33:20Z</time></trkpt><trkpt lat="43.26035563004788" lon="10.546364781655765"><ele>6.999999999999999</ele><time>2026-04-06T10:33:21Z</time></trkpt><trkpt lat="43.260266277457" lon="10.546383003128248"><ele>7.0</ele><time>2026-04-06T10:33:22Z</time></trkpt><trkpt lat="43.260176367725784" lon="10.546405527160264"><ele>7.0</ele><time>2026-04-06T10:33:23Z</time></trkpt><trkpt lat="43.26009057606859" lon="10.546433686380224"><ele>7.000000000000001</ele><time>2026-04-06T10:33:24Z</time></trkpt><trkpt lat="43.260011413968506" lon="10.54645649878158"><ele>7.0</ele><time>2026-04-06T10:33:25Z</time></trkpt><trkpt lat="43.259936799632634" lon="10.546477524057973"><ele>7.0</ele><time>2026-04-06T10:33:26Z</time></trkpt><trkpt lat="43.259865390737396" lon="10.546505536248361"><ele>7.0</ele><time>2026-04-06T10:33:27Z</time></trkpt><trkpt lat="43.25979197971622" lon="10.546538705537591"><ele>7.000000000000001</ele><time>2026-04-06T10:33:28Z</time></trkpt><trkpt lat="43.259724958220296" lon="10.54656743992652"><ele>7.0</ele><time>2026-04-06T10:33:29Z</time></trkpt><trkpt lat="43.25965753686858" lon="10.546598749078276"><ele>6.833333333333334</ele><time>2026-04-06T10:33:30Z</time></trkpt><trkpt lat="43.259591016209576" lon="10.54663179810765"><ele>6.666666666666667</ele><time>2026-04-06T10:33:31Z</time></trkpt><trkpt lat="43.25952226848346" lon="10.546662700383465"><ele>6.5</ele><time>2026-04-06T10:33:32Z</time></trkpt><trkpt lat="43.25945803288003" lon="10.546697858579561"><ele>6.333333333333334</ele><time>2026-04-06T10:33:33Z</time></trkpt><trkpt lat="43.25939773444293" lon="10.546726543385127"><ele>6.166666666666667</ele><time>2026-04-06T10:33:34Z</time></trkpt><trkpt lat="43.25928800619337" lon="10.546782257411019"><ele>6.0</ele><time>2026-04-06T10:33:36Z</time></trkpt><trkpt lat="43.25918632769849" lon="10.546838043680946"><ele>6.0</ele><time>2026-04-06T10:33:38Z</time></trkpt><trkpt lat="43.25908004973858" lon="10.546885151003396"><ele>6.0</ele><time>2026-04-06T10:33:40Z</time></trkpt><trkpt lat="43.25901321388686" lon="10.546917494690899"><ele>6.0</ele><time>2026-04-06T10:33:41Z</time></trkpt><trkpt lat="43.25893873045285" lon="10.546956467308304"><ele>6.0</ele><time>2026-04-06T10:33:42Z</time></trkpt><trkpt lat="43.258858144018006" lon="10.546997158458868"><ele>6.0</ele><time>2026-04-06T10:33:43Z</time></trkpt><trkpt lat="43.25878174799095" lon="10.547034950202585"><ele>6.0</ele><time>2026-04-06T10:33:44Z</time></trkpt><trkpt lat="43.258691949527936" lon="10.547082916999775"><ele>6.0</ele><time>2026-04-06T10:33:45Z</time></trkpt><trkpt lat="43.25859077914914" lon="10.54714137064523"><ele>6.0</ele><time>2026-04-06T10:33:46Z</time></trkpt><trkpt lat="43.258473858203" lon="10.547194806187667"><ele>6.0</ele><time>2026-04-06T10:33:47Z</time></trkpt><trkpt lat="43.25836268907495" lon="10.547246633610227"><ele>6.0</ele><time>2026-04-06T10:33:48Z</time></trkpt><trkpt lat="43.258248999183586" lon="10.547302785205673"><ele>6.0</ele><time>2026-04-06T10:33:49Z</time></trkpt><trkpt lat="43.25813298096076" lon="10.547362714529235"><ele>6.0</ele><time>2026-04-06T10:33:50Z</time></trkpt><trkpt lat="43.25802082476272" lon="10.547419065884275"><ele>6.0</ele><time>2026-04-06T10:33:51Z</time></trkpt><trkpt lat="43.257903670841706" lon="10.547479913928626"><ele>6.0</ele><time>2026-04-06T10:33:52Z</time></trkpt><trkpt lat="43.25778531606759" lon="10.547536039603544"><ele>6.0</ele><time>2026-04-06T10:33:53Z</time></trkpt><trkpt lat="43.25765846084325" lon="10.547591672390107"><ele>6.0</ele><time>2026-04-06T10:33:54Z</time></trkpt><trkpt lat="43.25752940914957" lon="10.547639504789066"><ele>6.0</ele><time>2026-04-06T10:33:55Z</time></trkpt><trkpt lat="43.25739477520221" lon="10.547677612241264"><ele>6.0</ele><time>2026-04-06T10:33:56Z</time></trkpt><trkpt lat="43.25725571553721" lon="10.54771240586526"><ele>5.666666666666667</ele><time>2026-04-06T10:33:57Z</time></trkpt><trkpt lat="43.25710830132993" lon="10.547736698334196"><ele>5.333333333333334</ele><time>2026-04-06T10:33:58Z</time></trkpt><trkpt lat="43.25695713446161" lon="10.547758502493132"><ele>5.0</ele><time>2026-04-06T10:33:59Z</time></trkpt><trkpt lat="43.25680289459323" lon="10.547779326192751"><ele>5.0</ele><time>2026-04-06T10:34:00Z</time></trkpt><trkpt lat="43.256644234373354" lon="10.547793328072153"><ele>5.0</ele><time>2026-04-06T10:34:01Z</time></trkpt><trkpt lat="43.256480214870926" lon="10.547819113445978"><ele>5.0</ele><time>2026-04-06T10:34:02Z</time></trkpt><trkpt lat="43.256317396277204" lon="10.54784708836096"><ele>5.0</ele><time>2026-04-06T10:34:03Z</time></trkpt><trkpt lat="43.256153575206646" lon="10.547890813505605"><ele>5.0</ele><time>2026-04-06T10:34:04Z</time></trkpt><trkpt lat="43.25598451540774" lon="10.547922191435948"><ele>5.0</ele><time>2026-04-06T10:34:05Z</time></trkpt><trkpt lat="43.25581687040887" lon="10.547981991117885"><ele>5.0</ele><time>2026-04-06T10:34:06Z</time></trkpt><trkpt lat="43.25565683873302" lon="10.548046653544997"><ele>5.0</ele><time>2026-04-06T10:34:07Z</time></trkpt><trkpt lat="43.255498323772834" lon="10.54813312235337"><ele>5.0</ele><time>2026-04-06T10:34:08Z</time></trkpt><trkpt lat="43.25533537334267" lon="10.548183678288035"><ele>5.666666666666667</ele><time>2026-04-06T10:34:09Z</time></trkpt><trkpt lat="43.25517069636734" lon="10.548228812277697"><ele>6.333333333333334</ele><time>2026-04-06T10:34:10Z</time></trkpt><trkpt lat="43.25501366959428" lon="10.548278908485822"><ele>7.0</ele><time>2026-04-06T10:34:11Z</time></trkpt><trkpt lat="43.25486503200147" lon="10.548326944978061"><ele>6.666666666666667</ele><time>2026-04-06T10:34:12Z</time></trkpt><trkpt lat="43.25471697071331" lon="10.548367359021686"><ele>6.333333333333334</ele><time>2026-04-06T10:34:13Z</time></trkpt><trkpt lat="43.2545711668674" lon="10.548418944927667"><ele>6.0</ele><time>2026-04-06T10:34:14Z</time></trkpt><trkpt lat="43.25442072211523" lon="10.548468185317624"><ele>6.0</ele><time>2026-04-06T10:34:15Z</time></trkpt><trkpt lat="43.25427161267045" lon="10.548524902438004"><ele>6.0</ele><time>2026-04-06T10:34:16Z</time></trkpt><trkpt lat="43.25412206296737" lon="10.54859480208971"><ele>6.0</ele><time>2026-04-06T10:34:17Z</time></trkpt><trkpt lat="43.25397114347235" lon="10.54867351565707"><ele>6.0</ele><time>2026-04-06T10:34:18Z</time></trkpt><trkpt lat="43.25381517715019" lon="10.548755227307028"><ele>6.0</ele><time>2026-04-06T10:34:19Z</time></trkpt><trkpt lat="43.253662011007314" lon="10.548842826172246"><ele>6.0</ele><time>2026-04-06T10:34:20Z</time></trkpt><trkpt lat="43.253506606534536" lon="10.548926035197226"><ele>6.0</ele><time>2026-04-06T10:34:21Z</time></trkpt><trkpt lat="43.253349099520236" lon="10.54901019563667"><ele>6.0</ele><time>2026-04-06T10:34:22Z</time></trkpt><trkpt lat="43.253193514072265" lon="10.549087122999596"><ele>6.0</ele><time>2026-04-06T10:34:23Z</time></trkpt><trkpt lat="43.25303334536134" lon="10.54915550927134"><ele>5.666666666666667</ele><time>2026-04-06T10:34:24Z</time></trkpt><trkpt lat="43.25287200457082" lon="10.549220158260487"><ele>5.333333333333334</ele><time>2026-04-06T10:34:25Z</time></trkpt><trkpt lat="43.25270940573973" lon="10.549274102137483"><ele>5.0</ele><time>2026-04-06T10:34:26Z</time></trkpt><trkpt lat="43.25255004072029" lon="10.549336740407313"><ele>5.0</ele><time>2026-04-06T10:34:27Z</time></trkpt><trkpt lat="43.252394837702056" lon="10.54940030183261"><ele>5.0</ele><time>2026-04-06T10:34:28Z</time></trkpt><trkpt lat="43.25224338350455" lon="10.549457569380838"><ele>5.0</ele><time>2026-04-06T10:34:29Z</time></trkpt><trkpt lat="43.252102952724556" lon="10.54951141065331"><ele>5.25</ele><time>2026-04-06T10:34:30Z</time></trkpt><trkpt lat="43.251975106582854" lon="10.549560401900534"><ele>5.5</ele><time>2026-04-06T10:34:31Z</time></trkpt><trkpt lat="43.2518528632283" lon="10.54960819272481"><ele>5.75</ele><time>2026-04-06T10:34:32Z</time></trkpt><trkpt lat="43.25174238074554" lon="10.549656229885933"><ele>6.0</ele><time>2026-04-06T10:34:33Z</time></trkpt><trkpt lat="43.25163930303781" lon="10.549698171815798"><ele>6.0</ele><time>2026-04-06T10:34:34Z</time></trkpt><trkpt lat="43.25154097243633" lon="10.549738473645109"><ele>6.0</ele><time>2026-04-06T10:34:35Z</time></trkpt><trkpt lat="43.25144244256437" lon="10.54977548114021"><ele>6.0</ele><time>2026-04-06T10:34:36Z</time></trkpt><trkpt lat="43.251336063774396" lon="10.549815714162802"><ele>6.0</ele><time>2026-04-06T10:34:37Z</time></trkpt><trkpt lat="43.25123003768608" lon="10.549856554289631"><ele>6.0</ele><time>2026-04-06T10:34:38Z</time></trkpt><trkpt lat="43.25111641160134" lon="10.549902129354576"><ele>6.4</ele><time>2026-04-06T10:34:39Z</time></trkpt><trkpt lat="43.25101068943248" lon="10.549946717974148"><ele>6.8</ele><time>2026-04-06T10:34:40Z</time></trkpt><trkpt lat="43.25090688202938" lon="10.549998239118942"><ele>7.200000000000001</ele><time>2026-04-06T10:34:41Z</time></trkpt><trkpt lat="43.25081530733767" lon="10.550022565268593"><ele>7.6000000000000005</ele><time>2026-04-06T10:34:42Z</time></trkpt><trkpt lat="43.2507304033566" lon="10.550060405615291"><ele>8.0</ele><time>2026-04-06T10:34:43Z</time></trkpt><trkpt lat="43.25064171771641" lon="10.550091997596436"><ele>7.800000000000001</ele><time>2026-04-06T10:34:44Z</time></trkpt><trkpt lat="43.25054760984895" lon="10.550126517651266"><ele>7.6000000000000005</ele><time>2026-04-06T10:34:45Z</time></trkpt><trkpt lat="43.25044962143994" lon="10.550150975098298"><ele>7.3999999999999995</ele><time>2026-04-06T10:34:46Z</time></trkpt><trkpt lat="43.25035393360268" lon="10.550196657034933"><ele>7.199999999999999</ele><time>2026-04-06T10:34:47Z</time></trkpt><trkpt lat="43.250257138676496" lon="10.550239825390562"><ele>7.0</ele><time>2026-04-06T10:34:48Z</time></trkpt><trkpt lat="43.25016295339751" lon="10.550256519282428"><ele>7.0</ele><time>2026-04-06T10:34:49Z</time></trkpt><trkpt lat="43.25006002251877" lon="10.55029325063665"><ele>6.999999999999999</ele><time>2026-04-06T10:34:50Z</time></trkpt><trkpt lat="43.24996027647943" lon="10.55032312015651"><ele>6.999999999999999</ele><time>2026-04-06T10:34:51Z</time></trkpt><trkpt lat="43.249856114199666" lon="10.550348881169505"><ele>7.0</ele><time>2026-04-06T10:34:52Z</time></trkpt><trkpt lat="43.24975133042965" lon="10.55037627745697"><ele>7.0</ele><time>2026-04-06T10:34:53Z</time></trkpt><trkpt lat="43.24964760587766" lon="10.550404952886707"><ele>7.3999999999999995</ele><time>2026-04-06T10:34:54Z</time></trkpt><trkpt lat="43.24954153068982" lon="10.550428458025248"><ele>7.799999999999999</ele><time>2026-04-06T10:34:55Z</time></trkpt><trkpt lat="43.24943733053486" lon="10.550434394992365"><ele>8.2</ele><time>2026-04-06T10:34:56Z</time></trkpt><trkpt lat="43.24934229429799" lon="10.550414975973482"><ele>8.6</ele><time>2026-04-06T10:34:57Z</time></trkpt><trkpt lat="43.24924992585884" lon="10.550396053997614"><ele>9.0</ele><time>2026-04-06T10:34:58Z</time></trkpt><trkpt lat="43.24915613950334" lon="10.550397561067737"><ele>9.0</ele><time>2026-04-06T10:34:59Z</time></trkpt><trkpt lat="43.249060585422185" lon="10.550427776226956"><ele>9.0</ele><time>2026-04-06T10:35:00Z</time></trkpt><trkpt lat="43.248965059423654" lon="10.550489258979868"><ele>9.0</ele><time>2026-04-06T10:35:01Z</time></trkpt><trkpt lat="43.24886147837803" lon="10.550574163849099"><ele>9.0</ele><time>2026-04-06T10:35:02Z</time></trkpt><trkpt lat="43.24876954806291" lon="10.550685987875259"><ele>9.0</ele><time>2026-04-06T10:35:03Z</time></trkpt><trkpt lat="43.24865536454997" lon="10.550720852506224"><ele>9.0</ele><time>2026-04-06T10:35:04Z</time></trkpt><trkpt lat="43.248549128099484" lon="10.550751954506032"><ele>9.0</ele><time>2026-04-06T10:35:05Z</time></trkpt><trkpt lat="43.248445332159385" lon="10.55078294553036"><ele>9.0</ele><time>2026-04-06T10:35:06Z</time></trkpt><trkpt lat="43.248342378102876" lon="10.55081829983331"><ele>9.0</ele><time>2026-04-06T10:35:07Z</time></trkpt><trkpt lat="43.2482391676532" lon="10.550853169830502"><ele>9.0</ele><time>2026-04-06T10:35:08Z</time></trkpt><trkpt lat="43.24813444468412" lon="10.550898974743053"><ele>9.25</ele><time>2026-04-06T10:35:09Z</time></trkpt><trkpt lat="43.24802680420176" lon="10.550939097667614"><ele>9.5</ele><time>2026-04-06T10:35:10Z</time></trkpt><trkpt lat="43.24791356820982" lon="10.550976590255287"><ele>9.75</ele><time>2026-04-06T10:35:11Z</time></trkpt><trkpt lat="43.24779745953772" lon="10.55102272307431"><ele>10.0</ele><time>2026-04-06T10:35:12Z</time></trkpt><trkpt lat="43.24767645528107" lon="10.551074478032104"><ele>10.0</ele><time>2026-04-06T10:35:13Z</time></trkpt><trkpt lat="43.24755277553583" lon="10.55112435812313"><ele>10.0</ele><time>2026-04-06T10:35:14Z</time></trkpt><trkpt lat="43.24743124041229" lon="10.55117691688114"><ele>10.0</ele><time>2026-04-06T10:35:15Z</time></trkpt><trkpt lat="43.247317071563344" lon="10.551232013386894"><ele>10.0</ele><time>2026-04-06T10:35:16Z</time></trkpt><trkpt lat="43.24721051951976" lon="10.551284454511302"><ele>9.8</ele><time>2026-04-06T10:35:17Z</time></trkpt><trkpt lat="43.247106667661235" lon="10.551337951095698"><ele>9.6</ele><time>2026-04-06T10:35:18Z</time></trkpt><trkpt lat="43.24700291954532" lon="10.551390920671668"><ele>9.4</ele><time>2026-04-06T10:35:19Z</time></trkpt><trkpt lat="43.24689920891902" lon="10.551442653501704"><ele>9.2</ele><time>2026-04-06T10:35:20Z</time></trkpt><trkpt lat="43.24678942789483" lon="10.551498399379359"><ele>9.0</ele><time>2026-04-06T10:35:21Z</time></trkpt><trkpt lat="43.24667893518315" lon="10.551551653021859"><ele>9.0</ele><time>2026-04-06T10:35:22Z</time></trkpt><trkpt lat="43.246560408868845" lon="10.551608369669635"><ele>9.0</ele><time>2026-04-06T10:35:23Z</time></trkpt><trkpt lat="43.246432350925744" lon="10.551673313894549"><ele>9.0</ele><time>2026-04-06T10:35:24Z</time></trkpt><trkpt lat="43.24629934719472" lon="10.551743947447008"><ele>9.0</ele><time>2026-04-06T10:35:25Z</time></trkpt><trkpt lat="43.24617409033413" lon="10.551812047568736"><ele>9.0</ele><time>2026-04-06T10:35:26Z</time></trkpt><trkpt lat="43.246049525475286" lon="10.551874921033741"><ele>9.0</ele><time>2026-04-06T10:35:27Z</time></trkpt><trkpt lat="43.245924734561214" lon="10.551926479906461"><ele>9.0</ele><time>2026-04-06T10:35:28Z</time></trkpt><trkpt lat="43.245796143857504" lon="10.551998241739328"><ele>9.0</ele><time>2026-04-06T10:35:29Z</time></trkpt><trkpt lat="43.24565308189836" lon="10.552065442788052"><ele>8.8</ele><time>2026-04-06T10:35:30Z</time></trkpt><trkpt lat="43.245573377380914" lon="10.552098880743571"><ele>8.600000000000001</ele><time>2026-04-06T10:35:31Z</time></trkpt><trkpt lat="43.24547186600744" lon="10.552138254100747"><ele>8.4</ele><time>2026-04-06T10:35:32Z</time></trkpt><trkpt lat="43.2453709100289" lon="10.552168085961997"><ele>8.200000000000001</ele><time>2026-04-06T10:35:33Z</time></trkpt><trkpt lat="43.24525659438831" lon="10.552205750515368"><ele>8.0</ele><time>2026-04-06T10:35:34Z</time></trkpt><trkpt lat="43.245140415054586" lon="10.552245018005035"><ele>8.0</ele><time>2026-04-06T10:35:35Z</time></trkpt><trkpt lat="43.245022501930464" lon="10.552285038109746"><ele>8.0</ele><time>2026-04-06T10:35:36Z</time></trkpt><trkpt lat="43.24490213542733" lon="10.552322517114675"><ele>8.0</ele><time>2026-04-06T10:35:37Z</time></trkpt><trkpt lat="43.24477991407711" lon="10.552361901074937"><ele>8.0</ele><time>2026-04-06T10:35:38Z</time></trkpt><trkpt lat="43.244659661839606" lon="10.552389768140355"><ele>7.75</ele><time>2026-04-06T10:35:39Z</time></trkpt><trkpt lat="43.244530853497686" lon="10.552427080300331"><ele>7.5</ele><time>2026-04-06T10:35:40Z</time></trkpt><trkpt lat="43.24440013988235" lon="10.552459948678644"><ele>7.25</ele><time>2026-04-06T10:35:41Z</time></trkpt><trkpt lat="43.24426738970987" lon="10.552489196995252"><ele>7.0</ele><time>2026-04-06T10:35:42Z</time></trkpt><trkpt lat="43.24413221577626" lon="10.552521787551935"><ele>7.0</ele><time>2026-04-06T10:35:43Z</time></trkpt><trkpt lat="43.24400156137798" lon="10.552557800053954"><ele>7.0</ele><time>2026-04-06T10:35:44Z</time></trkpt><trkpt lat="43.24386519888894" lon="10.552594426996322"><ele>7.0</ele><time>2026-04-06T10:35:45Z</time></trkpt><trkpt lat="43.24373556129127" lon="10.552627701906195"><ele>7.0</ele><time>2026-04-06T10:35:46Z</time></trkpt><trkpt lat="43.243605087351156" lon="10.552663045402728"><ele>7.25</ele><time>2026-04-06T10:35:47Z</time></trkpt><trkpt lat="43.24347953414376" lon="10.552688836823265"><ele>7.5</ele><time>2026-04-06T10:35:48Z</time></trkpt><trkpt lat="43.24334597757219" lon="10.552695848637269"><ele>7.75</ele><time>2026-04-06T10:35:49Z</time></trkpt><trkpt lat="43.24321728269067" lon="10.55271577783254"><ele>8.0</ele><time>2026-04-06T10:35:50Z</time></trkpt><trkpt lat="43.24309478641087" lon="10.552703106631974"><ele>8.0</ele><time>2026-04-06T10:35:51Z</time></trkpt><trkpt lat="43.24297749036808" lon="10.552678749083007"><ele>8.0</ele><time>2026-04-06T10:35:52Z</time></trkpt><trkpt lat="43.242863134000835" lon="10.552638328432312"><ele>8.0</ele><time>2026-04-06T10:35:53Z</time></trkpt><trkpt lat="43.24274573495765" lon="10.552609225944115"><ele>8.0</ele><time>2026-04-06T10:35:54Z</time></trkpt><trkpt lat="43.24263153791298" lon="10.552585604025309"><ele>8.0</ele><time>2026-04-06T10:35:55Z</time></trkpt><trkpt lat="43.24250108382714" lon="10.552571763104124"><ele>8.0</ele><time>2026-04-06T10:35:56Z</time></trkpt><trkpt lat="43.242375895088166" lon="10.552550984813907"><ele>8.0</ele><time>2026-04-06T10:35:57Z</time></trkpt><trkpt lat="43.242249257013604" lon="10.55252988961226"><ele>8.0</ele><time>2026-04-06T10:35:58Z</time></trkpt><trkpt lat="43.242124514779135" lon="10.552514394530421"><ele>8.0</ele><time>2026-04-06T10:35:59Z</time></trkpt><trkpt lat="43.24199937379942" lon="10.552494539153583"><ele>8.0</ele><time>2026-04-06T10:36:00Z</time></trkpt><trkpt lat="43.24186874633448" lon="10.552493022730086"><ele>8.0</ele><time>2026-04-06T10:36:01Z</time></trkpt><trkpt lat="43.24173920656999" lon="10.55249792088854"><ele>8.0</ele><time>2026-04-06T10:36:02Z</time></trkpt><trkpt lat="43.241608385635914" lon="10.552522284400478"><ele>8.0</ele><time>2026-04-06T10:36:03Z</time></trkpt><trkpt lat="43.241467624118506" lon="10.552544529719107"><ele>8.0</ele><time>2026-04-06T10:36:04Z</time></trkpt><trkpt lat="43.2413343140692" lon="10.552580848863807"><ele>8.0</ele><time>2026-04-06T10:36:05Z</time></trkpt><trkpt lat="43.24120038825907" lon="10.552628743937305"><ele>8.0</ele><time>2026-04-06T10:36:06Z</time></trkpt><trkpt lat="43.24108374154141" lon="10.552674148216289"><ele>7.75</ele><time>2026-04-06T10:36:07Z</time></trkpt><trkpt lat="43.240967402145415" lon="10.552708408523616"><ele>7.5</ele><time>2026-04-06T10:36:08Z</time></trkpt><trkpt lat="43.24085656288842" lon="10.552750259355506"><ele>7.25</ele><time>2026-04-06T10:36:09Z</time></trkpt><trkpt lat="43.24074660554942" lon="10.552797286498675"><ele>7.0</ele><time>2026-04-06T10:36:10Z</time></trkpt><trkpt lat="43.24061136085351" lon="10.552843140190936"><ele>6.5</ele><time>2026-04-06T10:36:11Z</time></trkpt><trkpt lat="43.24048005513457" lon="10.55288924503872"><ele>6.0</ele><time>2026-04-06T10:36:12Z</time></trkpt><trkpt lat="43.24036466339634" lon="10.55293263177884"><ele>5.5</ele><time>2026-04-06T10:36:13Z</time></trkpt><trkpt lat="43.24024352249732" lon="10.55297812282539"><ele>5.0</ele><time>2026-04-06T10:36:14Z</time></trkpt><trkpt lat="43.24012173802439" lon="10.553022159521255"><ele>5.0</ele><time>2026-04-06T10:36:15Z</time></trkpt><trkpt lat="43.24000011806301" lon="10.55307227805603"><ele>5.0</ele><time>2026-04-06T10:36:16Z</time></trkpt><trkpt lat="43.23987952423824" lon="10.553111840745832"><ele>5.0</ele><time>2026-04-06T10:36:17Z</time></trkpt><trkpt lat="43.23976264217578" lon="10.553152176569231"><ele>5.0</ele><time>2026-04-06T10:36:18Z</time></trkpt><trkpt lat="43.23964588947735" lon="10.553198140852095"><ele>4.75</ele><time>2026-04-06T10:36:19Z</time></trkpt><trkpt lat="43.23953268024163" lon="10.553235154018658"><ele>4.5</ele><time>2026-04-06T10:36:20Z</time></trkpt><trkpt lat="43.23941812241956" lon="10.553280418406377"><ele>4.25</ele><time>2026-04-06T10:36:21Z</time></trkpt><trkpt lat="43.239301447116546" lon="10.553336822477466"><ele>4.0</ele><time>2026-04-06T10:36:22Z</time></trkpt><trkpt lat="43.239183807684725" lon="10.553385375588865"><ele>4.0</ele><time>2026-04-06T10:36:23Z</time></trkpt><trkpt lat="43.23907216443299" lon="10.553458406859884"><ele>4.0</ele><time>2026-04-06T10:36:24Z</time></trkpt><trkpt lat="43.238961718358524" lon="10.553554221212911"><ele>4.0</ele><time>2026-04-06T10:36:25Z</time></trkpt><trkpt lat="43.23885044656091" lon="10.553646766986235"><ele>4.0</ele><time>2026-04-06T10:36:26Z</time></trkpt><trkpt lat="43.23873678980801" lon="10.553743998757371"><ele>4.5</ele><time>2026-04-06T10:36:27Z</time></trkpt><trkpt lat="43.23862437394442" lon="10.553842944664979"><ele>5.0</ele><time>2026-04-06T10:36:28Z</time></trkpt><trkpt lat="43.23850920955017" lon="10.553931978302193"><ele>5.5</ele><time>2026-04-06T10:36:29Z</time></trkpt><trkpt lat="43.23839102092407" lon="10.554025212002594"><ele>6.0</ele><time>2026-04-06T10:36:30Z</time></trkpt><trkpt lat="43.238274877747884" lon="10.554122683882394"><ele>6.0</ele><time>2026-04-06T10:36:31Z</time></trkpt><trkpt lat="43.238155479449354" lon="10.554220692372878"><ele>6.0</ele><time>2026-04-06T10:36:32Z</time></trkpt><trkpt lat="43.238033640559486" lon="10.554315996727064"><ele>6.0</ele><time>2026-04-06T10:36:33Z</time></trkpt><trkpt lat="43.237913908459596" lon="10.554420456613549"><ele>6.0</ele><time>2026-04-06T10:36:34Z</time></trkpt><trkpt lat="43.23780033146892" lon="10.554504295606927"><ele>6.5</ele><time>2026-04-06T10:36:35Z</time></trkpt><trkpt lat="43.23768672076612" lon="10.554590437124034"><ele>7.0</ele><time>2026-04-06T10:36:36Z</time></trkpt><trkpt lat="43.2375731872869" lon="10.554687490330354"><ele>7.5</ele><time>2026-04-06T10:36:37Z</time></trkpt><trkpt lat="43.23745522754081" lon="10.55477579966936"><ele>8.0</ele><time>2026-04-06T10:36:38Z</time></trkpt><trkpt lat="43.23733002766657" lon="10.554847287115194"><ele>7.75</ele><time>2026-04-06T10:36:39Z</time></trkpt><trkpt lat="43.237199604334" lon="10.554913987442777"><ele>7.5</ele><time>2026-04-06T10:36:40Z</time></trkpt><trkpt lat="43.23706441819725" lon="10.554961871843537"><ele>7.25</ele><time>2026-04-06T10:36:41Z</time></trkpt><trkpt lat="43.23693402223711" lon="10.555012032090826"><ele>7.0</ele><time>2026-04-06T10:36:42Z</time></trkpt><trkpt lat="43.23681335896554" lon="10.555056093132222"><ele>7.0</ele><time>2026-04-06T10:36:43Z</time></trkpt><trkpt lat="43.23669927522121" lon="10.55510323943982"><ele>7.0</ele><time>2026-04-06T10:36:44Z</time></trkpt><trkpt lat="43.23658905479421" lon="10.55515416329414"><ele>7.0</ele><time>2026-04-06T10:36:45Z</time></trkpt><trkpt lat="43.236481822731164" lon="10.555202426960365"><ele>7.0</ele><time>2026-04-06T10:36:46Z</time></trkpt><trkpt lat="43.23637602725142" lon="10.555249391641858"><ele>7.0</ele><time>2026-04-06T10:36:47Z</time></trkpt><trkpt lat="43.23626485551935" lon="10.5552955484279"><ele>7.0</ele><time>2026-04-06T10:36:48Z</time></trkpt><trkpt lat="43.23615110876422" lon="10.555339478816194"><ele>7.0</ele><time>2026-04-06T10:36:49Z</time></trkpt><trkpt lat="43.23603351161631" lon="10.55538511317224"><ele>7.0</ele><time>2026-04-06T10:36:50Z</time></trkpt><trkpt lat="43.23591484991205" lon="10.555431903636151"><ele>6.75</ele><time>2026-04-06T10:36:51Z</time></trkpt><trkpt lat="43.23579546023272" lon="10.55547631870046"><ele>6.5</ele><time>2026-04-06T10:36:52Z</time></trkpt><trkpt lat="43.23567822852735" lon="10.55551646143561"><ele>6.25</ele><time>2026-04-06T10:36:53Z</time></trkpt><trkpt lat="43.23556120726439" lon="10.555544505233685"><ele>6.0</ele><time>2026-04-06T10:36:54Z</time></trkpt><trkpt lat="43.235437094576504" lon="10.55555937823559"><ele>6.0</ele><time>2026-04-06T10:36:55Z</time></trkpt><trkpt lat="43.23531055485581" lon="10.555550460957944"><ele>6.0</ele><time>2026-04-06T10:36:56Z</time></trkpt><trkpt lat="43.23518449849636" lon="10.55553352402474"><ele>6.0</ele><time>2026-04-06T10:36:57Z</time></trkpt><trkpt lat="43.235056242617546" lon="10.555516404129929"><ele>6.0</ele><time>2026-04-06T10:36:58Z</time></trkpt><trkpt lat="43.234927977850475" lon="10.555501208294226"><ele>6.5</ele><time>2026-04-06T10:36:59Z</time></trkpt><trkpt lat="43.23479751876071" lon="10.555487332251916"><ele>7.0</ele><time>2026-04-06T10:37:00Z</time></trkpt><trkpt lat="43.23466496822118" lon="10.555482569295346"><ele>7.5</ele><time>2026-04-06T10:37:01Z</time></trkpt><trkpt lat="43.23453177504137" lon="10.555483134962511"><ele>8.0</ele><time>2026-04-06T10:37:02Z</time></trkpt><trkpt lat="43.23439299973712" lon="10.555490508375781"><ele>8.0</ele><time>2026-04-06T10:37:03Z</time></trkpt><trkpt lat="43.234253043802035" lon="10.555500700445394"><ele>8.0</ele><time>2026-04-06T10:37:04Z</time></trkpt><trkpt lat="43.23411116778881" lon="10.55551873013199"><ele>8.0</ele><time>2026-04-06T10:37:05Z</time></trkpt><trkpt lat="43.23397350732795" lon="10.555534579548254"><ele>8.0</ele><time>2026-04-06T10:37:06Z</time></trkpt><trkpt lat="43.233842772728195" lon="10.555583467816803"><ele>8.5</ele><time>2026-04-06T10:37:07Z</time></trkpt><trkpt lat="43.2337185701299" lon="10.55564430749333"><ele>9.0</ele><time>2026-04-06T10:37:08Z</time></trkpt><trkpt lat="43.23360147986843" lon="10.55572177063691"><ele>9.5</ele><time>2026-04-06T10:37:09Z</time></trkpt><trkpt lat="43.23349262519234" lon="10.5558314799427"><ele>10.0</ele><time>2026-04-06T10:37:10Z</time></trkpt><trkpt lat="43.23338455449129" lon="10.555963817023816"><ele>10.0</ele><time>2026-04-06T10:37:11Z</time></trkpt><trkpt lat="43.233276691983924" lon="10.556095797479074"><ele>10.0</ele><time>2026-04-06T10:37:12Z</time></trkpt><trkpt lat="43.23317120374258" lon="10.556212006662053"><ele>10.0</ele><time>2026-04-06T10:37:13Z</time></trkpt><trkpt lat="43.233062000309516" lon="10.556328259900539"><ele>10.0</ele><time>2026-04-06T10:37:14Z</time></trkpt><trkpt lat="43.23295271630814" lon="10.55645116710596"><ele>9.5</ele><time>2026-04-06T10:37:15Z</time></trkpt><trkpt lat="43.23280253297295" lon="10.556652485710725"><ele>9.0</ele><time>2026-04-06T10:37:17Z</time></trkpt><trkpt lat="43.23271684753894" lon="10.556752741871133"><ele>8.5</ele><time>2026-04-06T10:37:18Z</time></trkpt><trkpt lat="43.232613569231766" lon="10.556815275162323"><ele>8.0</ele><time>2026-04-06T10:37:19Z</time></trkpt><trkpt lat="43.23250879353055" lon="10.55687067719617"><ele>8.0</ele><time>2026-04-06T10:37:20Z</time></trkpt><trkpt lat="43.23238748482038" lon="10.556909437625233"><ele>8.0</ele><time>2026-04-06T10:37:21Z</time></trkpt><trkpt lat="43.23226495264116" lon="10.556926954167443"><ele>8.0</ele><time>2026-04-06T10:37:22Z</time></trkpt><trkpt lat="43.23216134959511" lon="10.55699225563028"><ele>8.0</ele><time>2026-04-06T10:37:23Z</time></trkpt><trkpt lat="43.232068661300424" lon="10.557022732174763"><ele>8.4</ele><time>2026-04-06T10:37:24Z</time></trkpt><trkpt lat="43.231983271617366" lon="10.557050307847629"><ele>8.8</ele><time>2026-04-06T10:37:25Z</time></trkpt><trkpt lat="43.23188880570726" lon="10.557084361968123"><ele>9.2</ele><time>2026-04-06T10:37:26Z</time></trkpt><trkpt lat="43.23178969466182" lon="10.55712568875938"><ele>9.6</ele><time>2026-04-06T10:37:27Z</time></trkpt><trkpt lat="43.231686278996975" lon="10.557169506771068"><ele>10.0</ele><time>2026-04-06T10:37:28Z</time></trkpt><trkpt lat="43.231578781184595" lon="10.557214009627964"><ele>9.6</ele><time>2026-04-06T10:37:29Z</time></trkpt><trkpt lat="43.231471657508884" lon="10.557257553902428"><ele>9.2</ele><time>2026-04-06T10:37:30Z</time></trkpt><trkpt lat="43.23136838063984" lon="10.557301172923376"><ele>8.8</ele><time>2026-04-06T10:37:31Z</time></trkpt><trkpt lat="43.23126631515889" lon="10.557346685508978"><ele>8.4</ele><time>2026-04-06T10:37:32Z</time></trkpt><trkpt lat="43.23115964525557" lon="10.55739708188595"><ele>8.0</ele><time>2026-04-06T10:37:33Z</time></trkpt><trkpt lat="43.23105132191781" lon="10.557433794664643"><ele>8.0</ele><time>2026-04-06T10:37:34Z</time></trkpt><trkpt lat="43.230943588838194" lon="10.557476544317684"><ele>8.0</ele><time>2026-04-06T10:37:35Z</time></trkpt><trkpt lat="43.23083225552411" lon="10.557519298586433"><ele>8.0</ele><time>2026-04-06T10:37:36Z</time></trkpt><trkpt lat="43.23071750698199" lon="10.557563010257839"><ele>8.0</ele><time>2026-04-06T10:37:37Z</time></trkpt><trkpt lat="43.230602280313626" lon="10.55761199593858"><ele>7.75</ele><time>2026-04-06T10:37:38Z</time></trkpt><trkpt lat="43.2304807960245" lon="10.557659397912516"><ele>7.5</ele><time>2026-04-06T10:37:39Z</time></trkpt><trkpt lat="43.23035880326267" lon="10.557706293854078"><ele>7.25</ele><time>2026-04-06T10:37:40Z</time></trkpt><trkpt lat="43.2302368525644" lon="10.55775507117769"><ele>7.0</ele><time>2026-04-06T10:37:41Z</time></trkpt><trkpt lat="43.23011753829927" lon="10.557804723614188"><ele>7.0</ele><time>2026-04-06T10:37:42Z</time></trkpt><trkpt lat="43.22999947281231" lon="10.557851983113956"><ele>7.0</ele><time>2026-04-06T10:37:43Z</time></trkpt><trkpt lat="43.22987979108588" lon="10.557903529611789"><ele>7.0</ele><time>2026-04-06T10:37:44Z</time></trkpt><trkpt lat="43.229761658037155" lon="10.55795061120584"><ele>7.0</ele><time>2026-04-06T10:37:45Z</time></trkpt><trkpt lat="43.22964659873119" lon="10.557994995513289"><ele>7.25</ele><time>2026-04-06T10:37:46Z</time></trkpt><trkpt lat="43.229527812312305" lon="10.558038731131038"><ele>7.5</ele><time>2026-04-06T10:37:47Z</time></trkpt><trkpt lat="43.22941028799793" lon="10.558086964325586"><ele>7.75</ele><time>2026-04-06T10:37:48Z</time></trkpt><trkpt lat="43.22929441410292" lon="10.558136014656238"><ele>8.0</ele><time>2026-04-06T10:37:49Z</time></trkpt><trkpt lat="43.22917104963333" lon="10.558187021790387"><ele>8.0</ele><time>2026-04-06T10:37:50Z</time></trkpt><trkpt lat="43.22905048274904" lon="10.558233560568762"><ele>8.0</ele><time>2026-04-06T10:37:51Z</time></trkpt><trkpt lat="43.228924940901464" lon="10.558291667619647"><ele>8.0</ele><time>2026-04-06T10:37:52Z</time></trkpt><trkpt lat="43.228799609615145" lon="10.558350620602413"><ele>8.0</ele><time>2026-04-06T10:37:53Z</time></trkpt><trkpt lat="43.22867483579386" lon="10.558415304239603"><ele>7.5</ele><time>2026-04-06T10:37:54Z</time></trkpt><trkpt lat="43.228552029475175" lon="10.558487409142753"><ele>7.0</ele><time>2026-04-06T10:37:55Z</time></trkpt><trkpt lat="43.228426876715204" lon="10.558561921206548"><ele>6.5</ele><time>2026-04-06T10:37:56Z</time></trkpt><trkpt lat="43.22830828551406" lon="10.558627027799638"><ele>6.0</ele><time>2026-04-06T10:37:57Z</time></trkpt><trkpt lat="43.228188607367606" lon="10.558694019280367"><ele>6.0</ele><time>2026-04-06T10:37:58Z</time></trkpt><trkpt lat="43.22807020718231" lon="10.558768827857525"><ele>6.0</ele><time>2026-04-06T10:37:59Z</time></trkpt><trkpt lat="43.22795127770706" lon="10.558841836627645"><ele>6.0</ele><time>2026-04-06T10:38:00Z</time></trkpt><trkpt lat="43.22783217174584" lon="10.558915281830645"><ele>6.0</ele><time>2026-04-06T10:38:01Z</time></trkpt><trkpt lat="43.22770999528418" lon="10.558985216073701"><ele>6.0</ele><time>2026-04-06T10:38:02Z</time></trkpt><trkpt lat="43.22758178532196" lon="10.559055595990081"><ele>6.0</ele><time>2026-04-06T10:38:03Z</time></trkpt><trkpt lat="43.227450430606964" lon="10.55913481918715"><ele>6.0</ele><time>2026-04-06T10:38:04Z</time></trkpt><trkpt lat="43.227319566588776" lon="10.559210934688949"><ele>6.0</ele><time>2026-04-06T10:38:05Z</time></trkpt><trkpt lat="43.22719235812111" lon="10.559281421266896"><ele>6.5</ele><time>2026-04-06T10:38:06Z</time></trkpt><trkpt lat="43.2270751606643" lon="10.559349813560369"><ele>7.0</ele><time>2026-04-06T10:38:07Z</time></trkpt><trkpt lat="43.226964947519626" lon="10.559415178648013"><ele>7.5</ele><time>2026-04-06T10:38:08Z</time></trkpt><trkpt lat="43.22685848465762" lon="10.559475792911913"><ele>8.0</ele><time>2026-04-06T10:38:09Z</time></trkpt><trkpt lat="43.22675849232654" lon="10.559532957257742"><ele>7.800000000000001</ele><time>2026-04-06T10:38:10Z</time></trkpt><trkpt lat="43.22666224671242" lon="10.559587284550807"><ele>7.6000000000000005</ele><time>2026-04-06T10:38:11Z</time></trkpt><trkpt lat="43.22657016416985" lon="10.559644448767774"><ele>7.3999999999999995</ele><time>2026-04-06T10:38:12Z</time></trkpt><trkpt lat="43.22649636534596" lon="10.559688409528219"><ele>7.199999999999999</ele><time>2026-04-06T10:38:13Z</time></trkpt><trkpt lat="43.22640755892855" lon="10.559741015624088"><ele>7.0</ele><time>2026-04-06T10:38:15Z</time></trkpt><trkpt lat="43.2263401685364" lon="10.559778317795972"><ele>7.000000000000001</ele><time>2026-04-06T10:38:20Z</time></trkpt><trkpt lat="43.226265344089164" lon="10.559826482070804"><ele>7.0</ele><time>2026-04-06T10:38:22Z</time></trkpt><trkpt lat="43.22619600291714" lon="10.559864204142631"><ele>7.0</ele><time>2026-04-06T10:38:24Z</time></trkpt><trkpt lat="43.22611543986492" lon="10.55990165611794"><ele>7.0</ele><time>2026-04-06T10:38:26Z</time></trkpt><trkpt lat="43.226037107805695" lon="10.559950234553618"><ele>7.000000000000001</ele><time>2026-04-06T10:38:28Z</time></trkpt><trkpt lat="43.22596828315751" lon="10.559996863438741"><ele>7.0</ele><time>2026-04-06T10:38:30Z</time></trkpt><trkpt lat="43.22600783391248" lon="10.560200467108192"><ele>7.000000000000001</ele><time>2026-04-06T10:38:32Z</time></trkpt><trkpt lat="43.22602575985078" lon="10.560292059435398"><ele>7.0</ele><time>2026-04-06T10:38:33Z</time></trkpt><trkpt lat="43.226041697422794" lon="10.560402525030424"><ele>7.0</ele><time>2026-04-06T10:38:34Z</time></trkpt><trkpt lat="43.22605906347644" lon="10.560525111968778"><ele>7.0</ele><time>2026-04-06T10:38:35Z</time></trkpt><trkpt lat="43.22608242197111" lon="10.56064150874155"><ele>7.000000000000001</ele><time>2026-04-06T10:38:36Z</time></trkpt><trkpt lat="43.22610279643945" lon="10.560769089901674"><ele>7.0</ele><time>2026-04-06T10:38:37Z</time></trkpt><trkpt lat="43.22612265194034" lon="10.56091120745661"><ele>7.25</ele><time>2026-04-06T10:38:38Z</time></trkpt><trkpt lat="43.226144913214085" lon="10.561061122766942"><ele>7.5</ele><time>2026-04-06T10:38:39Z</time></trkpt><trkpt lat="43.22616685099918" lon="10.56122120162841"><ele>7.75</ele><time>2026-04-06T10:38:40Z</time></trkpt><trkpt lat="43.22619047984191" lon="10.561387879440009"><ele>8.0</ele><time>2026-04-06T10:38:41Z</time></trkpt><trkpt lat="43.226208141260074" lon="10.561560068153023"><ele>8.0</ele><time>2026-04-06T10:38:42Z</time></trkpt><trkpt lat="43.22623403136269" lon="10.561734641762973"><ele>8.0</ele><time>2026-04-06T10:38:43Z</time></trkpt><trkpt lat="43.22626445896683" lon="10.561902976107751"><ele>8.0</ele><time>2026-04-06T10:38:44Z</time></trkpt><trkpt lat="43.2262909838144" lon="10.562065198090478"><ele>8.0</ele><time>2026-04-06T10:38:45Z</time></trkpt><trkpt lat="43.22631531935257" lon="10.56223099845054"><ele>8.25</ele><time>2026-04-06T10:38:46Z</time></trkpt><trkpt lat="43.22633948788093" lon="10.56240395485366"><ele>8.5</ele><time>2026-04-06T10:38:47Z</time></trkpt><trkpt lat="43.22636601356831" lon="10.562582733049052"><ele>8.75</ele><time>2026-04-06T10:38:48Z</time></trkpt><trkpt lat="43.22639485364812" lon="10.562770942472085"><ele>9.0</ele><time>2026-04-06T10:38:49Z</time></trkpt><trkpt lat="43.22642767060869" lon="10.562964960093554"><ele>9.5</ele><time>2026-04-06T10:38:50Z</time></trkpt><trkpt lat="43.22645192816733" lon="10.563157533938616"><ele>10.0</ele><time>2026-04-06T10:38:51Z</time></trkpt><trkpt lat="43.2264812973368" lon="10.563352485648275"><ele>10.5</ele><time>2026-04-06T10:38:52Z</time></trkpt><trkpt lat="43.22650991444378" lon="10.563542155476599"><ele>11.0</ele><time>2026-04-06T10:38:53Z</time></trkpt><trkpt lat="43.226536464291094" lon="10.5637351105322"><ele>11.25</ele><time>2026-04-06T10:38:54Z</time></trkpt><trkpt lat="43.22656317594118" lon="10.563929051572169"><ele>11.5</ele><time>2026-04-06T10:38:55Z</time></trkpt><trkpt lat="43.22658955850791" lon="10.564128220154387"><ele>11.75</ele><time>2026-04-06T10:38:56Z</time></trkpt><trkpt lat="43.22661366884487" lon="10.564326165681274"><ele>12.0</ele><time>2026-04-06T10:38:57Z</time></trkpt><trkpt lat="43.22664358290352" lon="10.564522839497686"><ele>11.75</ele><time>2026-04-06T10:38:58Z</time></trkpt><trkpt lat="43.22666975682859" lon="10.564721357280032"><ele>11.5</ele><time>2026-04-06T10:38:59Z</time></trkpt><trkpt lat="43.22669474521601" lon="10.564919366797996"><ele>11.25</ele><time>2026-04-06T10:39:00Z</time></trkpt><trkpt lat="43.22672732447354" lon="10.565117459512939"><ele>11.0</ele><time>2026-04-06T10:39:01Z</time></trkpt><trkpt lat="43.226758528186544" lon="10.56532043388691"><ele>10.666666666666666</ele><time>2026-04-06T10:39:02Z</time></trkpt><trkpt lat="43.226787091304644" lon="10.565522583699966"><ele>10.333333333333334</ele><time>2026-04-06T10:39:03Z</time></trkpt><trkpt lat="43.226819113880076" lon="10.565728196306372"><ele>10.0</ele><time>2026-04-06T10:39:04Z</time></trkpt><trkpt lat="43.226848428320714" lon="10.565939739379369"><ele>10.0</ele><time>2026-04-06T10:39:05Z</time></trkpt><trkpt lat="43.226881234190984" lon="10.566147031165656"><ele>10.0</ele><time>2026-04-06T10:39:06Z</time></trkpt><trkpt lat="43.22690743838119" lon="10.566348741789023"><ele>10.0</ele><time>2026-04-06T10:39:07Z</time></trkpt><trkpt lat="43.22694092183564" lon="10.566547972419652"><ele>11.0</ele><time>2026-04-06T10:39:08Z</time></trkpt><trkpt lat="43.226970249493945" lon="10.566757275107628"><ele>12.0</ele><time>2026-04-06T10:39:09Z</time></trkpt><trkpt lat="43.22699938440257" lon="10.566970510412926"><ele>13.0</ele><time>2026-04-06T10:39:10Z</time></trkpt><trkpt lat="43.22702717604423" lon="10.567184413064442"><ele>13.0</ele><time>2026-04-06T10:39:11Z</time></trkpt><trkpt lat="43.227053931416485" lon="10.567406945285308"><ele>13.0</ele><time>2026-04-06T10:39:12Z</time></trkpt><trkpt lat="43.22708417192382" lon="10.567635052895518"><ele>13.0</ele><time>2026-04-06T10:39:13Z</time></trkpt><trkpt lat="43.22711597965231" lon="10.567864510428885"><ele>13.0</ele><time>2026-04-06T10:39:14Z</time></trkpt><trkpt lat="43.22714720474947" lon="10.568097990112907"><ele>13.0</ele><time>2026-04-06T10:39:15Z</time></trkpt><trkpt lat="43.22717518886881" lon="10.568333797359873"><ele>13.0</ele><time>2026-04-06T10:39:16Z</time></trkpt><trkpt lat="43.22720944396657" lon="10.56856423410236"><ele>13.0</ele><time>2026-04-06T10:39:17Z</time></trkpt><trkpt lat="43.22724508801074" lon="10.56878876993625"><ele>13.0</ele><time>2026-04-06T10:39:18Z</time></trkpt><trkpt lat="43.22727772587455" lon="10.569009973061501"><ele>13.0</ele><time>2026-04-06T10:39:19Z</time></trkpt><trkpt lat="43.22730869096688" lon="10.569230170013116"><ele>14.0</ele><time>2026-04-06T10:39:20Z</time></trkpt><trkpt lat="43.227340320269995" lon="10.569446768794705"><ele>15.0</ele><time>2026-04-06T10:39:21Z</time></trkpt><trkpt lat="43.22737095660135" lon="10.569658347095597"><ele>16.0</ele><time>2026-04-06T10:39:22Z</time></trkpt><trkpt lat="43.227401670534626" lon="10.569872600442134"><ele>16.0</ele><time>2026-04-06T10:39:23Z</time></trkpt><trkpt lat="43.227433053236474" lon="10.570079026443489"><ele>16.0</ele><time>2026-04-06T10:39:24Z</time></trkpt><trkpt lat="43.227461294281234" lon="10.570286795620843"><ele>16.0</ele><time>2026-04-06T10:39:25Z</time></trkpt><trkpt lat="43.2274880488931" lon="10.570498513672877"><ele>16.333333333333332</ele><time>2026-04-06T10:39:26Z</time></trkpt><trkpt lat="43.22751848127189" lon="10.570710563849147"><ele>16.666666666666668</ele><time>2026-04-06T10:39:27Z</time></trkpt><trkpt lat="43.22754680831847" lon="10.570930117140305"><ele>17.0</ele><time>2026-04-06T10:39:28Z</time></trkpt><trkpt lat="43.22757984918733" lon="10.5711471293172"><ele>17.666666666666668</ele><time>2026-04-06T10:39:29Z</time></trkpt><trkpt lat="43.227610175812984" lon="10.571364209181397"><ele>18.333333333333332</ele><time>2026-04-06T10:39:30Z</time></trkpt><trkpt lat="43.227642047473765" lon="10.571581217815048"><ele>19.0</ele><time>2026-04-06T10:39:31Z</time></trkpt><trkpt lat="43.22766775489691" lon="10.571790411064423"><ele>19.0</ele><time>2026-04-06T10:39:32Z</time></trkpt><trkpt lat="43.22769296041434" lon="10.571997306977162"><ele>19.0</ele><time>2026-04-06T10:39:33Z</time></trkpt><trkpt lat="43.22772306094755" lon="10.572209858392123"><ele>19.0</ele><time>2026-04-06T10:39:34Z</time></trkpt><trkpt lat="43.22776156796998" lon="10.572436406762579"><ele>19.333333333333332</ele><time>2026-04-06T10:39:35Z</time></trkpt><trkpt lat="43.22780099805576" lon="10.572665017112131"><ele>19.666666666666668</ele><time>2026-04-06T10:39:36Z</time></trkpt><trkpt lat="43.227851845412076" lon="10.572910705299027"><ele>20.0</ele><time>2026-04-06T10:39:37Z</time></trkpt><trkpt lat="43.22787281154016" lon="10.573168828414273"><ele>20.0</ele><time>2026-04-06T10:39:38Z</time></trkpt><trkpt lat="43.22791054913777" lon="10.57343429753036"><ele>20.0</ele><time>2026-04-06T10:39:39Z</time></trkpt><trkpt lat="43.22794987643798" lon="10.573710949397496"><ele>20.0</ele><time>2026-04-06T10:39:40Z</time></trkpt><trkpt lat="43.2279917090387" lon="10.574005225037238"><ele>20.0</ele><time>2026-04-06T10:39:41Z</time></trkpt><trkpt lat="43.22803407722291" lon="10.574303268396713"><ele>20.0</ele><time>2026-04-06T10:39:42Z</time></trkpt><trkpt lat="43.22807576286799" lon="10.574596510290327"><ele>20.0</ele><time>2026-04-06T10:39:43Z</time></trkpt><trkpt lat="43.228113991659626" lon="10.574865434779982"><ele>20.666666666666668</ele><time>2026-04-06T10:39:44Z</time></trkpt><trkpt lat="43.22815144539413" lon="10.575128906706645"><ele>21.333333333333332</ele><time>2026-04-06T10:39:45Z</time></trkpt><trkpt lat="43.22818746892903" lon="10.575382317969122"><ele>22.0</ele><time>2026-04-06T10:39:46Z</time></trkpt><trkpt lat="43.22823694317313" lon="10.57563219388339"><ele>22.333333333333332</ele><time>2026-04-06T10:39:47Z</time></trkpt><trkpt lat="43.228270379599884" lon="10.57588427484148"><ele>22.666666666666668</ele><time>2026-04-06T10:39:48Z</time></trkpt><trkpt lat="43.22831139095958" lon="10.57613669620179"><ele>23.0</ele><time>2026-04-06T10:39:49Z</time></trkpt><trkpt lat="43.22834575199265" lon="10.576398058718869"><ele>23.0</ele><time>2026-04-06T10:39:50Z</time></trkpt><trkpt lat="43.228378646169126" lon="10.576667724663942"><ele>23.0</ele><time>2026-04-06T10:39:51Z</time></trkpt><trkpt lat="43.22840893471522" lon="10.576942021177791"><ele>23.0</ele><time>2026-04-06T10:39:52Z</time></trkpt><trkpt lat="43.22844326418466" lon="10.577216372092083"><ele>23.0</ele><time>2026-04-06T10:39:53Z</time></trkpt><trkpt lat="43.228481112351965" lon="10.57749251001523"><ele>23.0</ele><time>2026-04-06T10:39:54Z</time></trkpt><trkpt lat="43.22851991185341" lon="10.577763931256934"><ele>23.0</ele><time>2026-04-06T10:39:55Z</time></trkpt><trkpt lat="43.22855866776134" lon="10.5780418253617"><ele>22.666666666666668</ele><time>2026-04-06T10:39:56Z</time></trkpt><trkpt lat="43.22859755834348" lon="10.578318437401355"><ele>22.333333333333332</ele><time>2026-04-06T10:39:57Z</time></trkpt><trkpt lat="43.22864037479696" lon="10.578593013747685"><ele>22.0</ele><time>2026-04-06T10:39:58Z</time></trkpt><trkpt lat="43.228681625662084" lon="10.578865458390178"><ele>22.0</ele><time>2026-04-06T10:39:59Z</time></trkpt><trkpt lat="43.228725376684565" lon="10.579137190971428"><ele>22.0</ele><time>2026-04-06T10:40:00Z</time></trkpt><trkpt lat="43.22876518540184" lon="10.579407140095785"><ele>22.0</ele><time>2026-04-06T10:40:01Z</time></trkpt><trkpt lat="43.22880578923514" lon="10.579677319792566"><ele>22.0</ele><time>2026-04-06T10:40:02Z</time></trkpt><trkpt lat="43.22884442136331" lon="10.579948066957037"><ele>22.0</ele><time>2026-04-06T10:40:03Z</time></trkpt><trkpt lat="43.228883264083215" lon="10.580215374520462"><ele>22.0</ele><time>2026-04-06T10:40:04Z</time></trkpt><trkpt lat="43.22892067718575" lon="10.580479791934728"><ele>22.0</ele><time>2026-04-06T10:40:05Z</time></trkpt><trkpt lat="43.22895951205666" lon="10.580738108255082"><ele>22.0</ele><time>2026-04-06T10:40:06Z</time></trkpt><trkpt lat="43.22899592179332" lon="10.581003199417427"><ele>22.0</ele><time>2026-04-06T10:40:07Z</time></trkpt><trkpt lat="43.22903057652881" lon="10.581264876019196"><ele>23.333333333333332</ele><time>2026-04-06T10:40:08Z</time></trkpt><trkpt lat="43.229070578743304" lon="10.581524493035193"><ele>24.666666666666664</ele><time>2026-04-06T10:40:09Z</time></trkpt><trkpt lat="43.22910623138132" lon="10.581788506682079"><ele>26.0</ele><time>2026-04-06T10:40:10Z</time></trkpt><trkpt lat="43.22913853121502" lon="10.582054182730001"><ele>26.0</ele><time>2026-04-06T10:40:11Z</time></trkpt><trkpt lat="43.22917594971578" lon="10.582312792637124"><ele>26.0</ele><time>2026-04-06T10:40:12Z</time></trkpt><trkpt lat="43.22921009978657" lon="10.582576888657206"><ele>26.0</ele><time>2026-04-06T10:40:13Z</time></trkpt><trkpt lat="43.229244006030726" lon="10.582846632638125"><ele>25.666666666666664</ele><time>2026-04-06T10:40:14Z</time></trkpt><trkpt lat="43.229284957854595" lon="10.583105478257433"><ele>25.333333333333336</ele><time>2026-04-06T10:40:15Z</time></trkpt><trkpt lat="43.22931860704853" lon="10.58336288952498"><ele>25.0</ele><time>2026-04-06T10:40:16Z</time></trkpt><trkpt lat="43.22935755972205" lon="10.583616641423893"><ele>25.333333333333336</ele><time>2026-04-06T10:40:17Z</time></trkpt><trkpt lat="43.22939628677801" lon="10.583867498293309"><ele>25.666666666666664</ele><time>2026-04-06T10:40:18Z</time></trkpt><trkpt lat="43.229435143351154" lon="10.584121677013504"><ele>26.0</ele><time>2026-04-06T10:40:19Z</time></trkpt><trkpt lat="43.229473506482975" lon="10.584392456216058"><ele>26.666666666666664</ele><time>2026-04-06T10:40:20Z</time></trkpt><trkpt lat="43.22952128697523" lon="10.584669526787806"><ele>27.333333333333336</ele><time>2026-04-06T10:40:21Z</time></trkpt><trkpt lat="43.2295590400217" lon="10.58494396467848"><ele>28.0</ele><time>2026-04-06T10:40:22Z</time></trkpt><trkpt lat="43.229593449222065" lon="10.585202239175501"><ele>28.0</ele><time>2026-04-06T10:40:23Z</time></trkpt><trkpt lat="43.229628278803375" lon="10.58545666623284"><ele>28.0</ele><time>2026-04-06T10:40:24Z</time></trkpt><trkpt lat="43.22966110781237" lon="10.585716349098705"><ele>28.0</ele><time>2026-04-06T10:40:25Z</time></trkpt><trkpt lat="43.22970018241883" lon="10.585977898020104"><ele>28.333333333333336</ele><time>2026-04-06T10:40:26Z</time></trkpt><trkpt lat="43.229736224968775" lon="10.586243287581457"><ele>28.666666666666664</ele><time>2026-04-06T10:40:27Z</time></trkpt><trkpt lat="43.22977420233757" lon="10.586508292393349"><ele>29.0</ele><time>2026-04-06T10:40:28Z</time></trkpt><trkpt lat="43.229811910593455" lon="10.586781795684724"><ele>29.666666666666664</ele><time>2026-04-06T10:40:29Z</time></trkpt><trkpt lat="43.22985378127551" lon="10.587056085757421"><ele>30.333333333333336</ele><time>2026-04-06T10:40:30Z</time></trkpt><trkpt lat="43.22989504727565" lon="10.58732906358358"><ele>31.0</ele><time>2026-04-06T10:40:31Z</time></trkpt><trkpt lat="43.22993823673662" lon="10.587610654556048"><ele>30.666666666666668</ele><time>2026-04-06T10:40:32Z</time></trkpt><trkpt lat="43.229974524488334" lon="10.587895846159729"><ele>30.333333333333336</ele><time>2026-04-06T10:40:33Z</time></trkpt><trkpt lat="43.230014498068456" lon="10.58817291856056"><ele>30.0</ele><time>2026-04-06T10:40:34Z</time></trkpt><trkpt lat="43.23005546090606" lon="10.588455191284682"><ele>30.0</ele><time>2026-04-06T10:40:35Z</time></trkpt><trkpt lat="43.2300982271388" lon="10.588742600599256"><ele>30.0</ele><time>2026-04-06T10:40:36Z</time></trkpt><trkpt lat="43.23014710537894" lon="10.589026617973438"><ele>30.0</ele><time>2026-04-06T10:40:37Z</time></trkpt><trkpt lat="43.23019421118268" lon="10.5893328483791"><ele>31.0</ele><time>2026-04-06T10:40:38Z</time></trkpt><trkpt lat="43.23023700347213" lon="10.589641653062962"><ele>32.0</ele><time>2026-04-06T10:40:39Z</time></trkpt><trkpt lat="43.230276146800456" lon="10.589939105470254"><ele>33.0</ele><time>2026-04-06T10:40:40Z</time></trkpt><trkpt lat="43.23031328489819" lon="10.590225861708118"><ele>34.333333333333336</ele><time>2026-04-06T10:40:41Z</time></trkpt><trkpt lat="43.23035408092292" lon="10.590498867768654"><ele>35.66666666666667</ele><time>2026-04-06T10:40:42Z</time></trkpt><trkpt lat="43.23039050225596" lon="10.590772965685426"><ele>37.0</ele><time>2026-04-06T10:40:43Z</time></trkpt><trkpt lat="43.23042100530764" lon="10.59104990687441"><ele>37.333333333333336</ele><time>2026-04-06T10:40:44Z</time></trkpt><trkpt lat="43.23045466132347" lon="10.591321206336492"><ele>37.666666666666664</ele><time>2026-04-06T10:40:45Z</time></trkpt><trkpt lat="43.23049769848125" lon="10.591586962064394"><ele>38.0</ele><time>2026-04-06T10:40:46Z</time></trkpt><trkpt lat="43.230537292761646" lon="10.591853678670775"><ele>38.33333333333333</ele><time>2026-04-06T10:40:47Z</time></trkpt><trkpt lat="43.23057664163602" lon="10.592122780647612"><ele>38.666666666666664</ele><time>2026-04-06T10:40:48Z</time></trkpt><trkpt lat="43.23061252745419" lon="10.592390627395618"><ele>39.0</ele><time>2026-04-06T10:40:49Z</time></trkpt><trkpt lat="43.230651401193576" lon="10.592660355015092"><ele>39.666666666666664</ele><time>2026-04-06T10:40:50Z</time></trkpt><trkpt lat="43.230687920304945" lon="10.592927246706509"><ele>40.33333333333333</ele><time>2026-04-06T10:40:51Z</time></trkpt><trkpt lat="43.23072525108932" lon="10.59319557826021"><ele>41.0</ele><time>2026-04-06T10:40:52Z</time></trkpt><trkpt lat="43.23076619963339" lon="10.593466734156534"><ele>42.0</ele><time>2026-04-06T10:40:53Z</time></trkpt><trkpt lat="43.23080178276986" lon="10.593738477959407"><ele>43.0</ele><time>2026-04-06T10:40:54Z</time></trkpt><trkpt lat="43.230838032022966" lon="10.594010112131276"><ele>44.0</ele><time>2026-04-06T10:40:55Z</time></trkpt><trkpt lat="43.230875207422045" lon="10.59427884325502"><ele>44.33333333333333</ele><time>2026-04-06T10:40:56Z</time></trkpt><trkpt lat="43.23090951201738" lon="10.594547251236014"><ele>44.666666666666664</ele><time>2026-04-06T10:40:57Z</time></trkpt><trkpt lat="43.230945497372716" lon="10.5948103656348"><ele>45.0</ele><time>2026-04-06T10:40:58Z</time></trkpt><trkpt lat="43.230982041578685" lon="10.595074591010462"><ele>45.333333333333336</ele><time>2026-04-06T10:40:59Z</time></trkpt><trkpt lat="43.23101673526964" lon="10.595338622287247"><ele>45.66666666666667</ele><time>2026-04-06T10:41:00Z</time></trkpt><trkpt lat="43.23104990090368" lon="10.595592790613711"><ele>46.0</ele><time>2026-04-06T10:41:01Z</time></trkpt><trkpt lat="43.231083913840486" lon="10.595833490822466"><ele>46.0</ele><time>2026-04-06T10:41:02Z</time></trkpt><trkpt lat="43.23111870331449" lon="10.596063516840765"><ele>46.0</ele><time>2026-04-06T10:41:03Z</time></trkpt><trkpt lat="43.2311461596183" lon="10.596292216004615"><ele>46.0</ele><time>2026-04-06T10:41:04Z</time></trkpt><trkpt lat="43.23118161363752" lon="10.596521722205999"><ele>46.0</ele><time>2026-04-06T10:41:05Z</time></trkpt><trkpt lat="43.231214727521696" lon="10.596748451338843"><ele>46.0</ele><time>2026-04-06T10:41:06Z</time></trkpt><trkpt lat="43.23124845026185" lon="10.596974915370692"><ele>46.0</ele><time>2026-04-06T10:41:07Z</time></trkpt><trkpt lat="43.23128201370376" lon="10.597203888506458"><ele>47.0</ele><time>2026-04-06T10:41:08Z</time></trkpt><trkpt lat="43.231314689674235" lon="10.597434026695879"><ele>48.0</ele><time>2026-04-06T10:41:09Z</time></trkpt><trkpt lat="43.231350206801984" lon="10.5976649419278"><ele>49.0</ele><time>2026-04-06T10:41:10Z</time></trkpt><trkpt lat="43.23138640737963" lon="10.597898438220657"><ele>49.0</ele><time>2026-04-06T10:41:11Z</time></trkpt><trkpt lat="43.23141975431816" lon="10.598117557692825"><ele>49.0</ele><time>2026-04-06T10:41:12Z</time></trkpt><trkpt lat="43.23144830702037" lon="10.59832567560345"><ele>49.0</ele><time>2026-04-06T10:41:13Z</time></trkpt><trkpt lat="43.2314747508069" lon="10.598518745276365"><ele>49.5</ele><time>2026-04-06T10:41:14Z</time></trkpt><trkpt lat="43.23150371374184" lon="10.59872183056604"><ele>50.0</ele><time>2026-04-06T10:41:15Z</time></trkpt><trkpt lat="43.23153470015654" lon="10.59892226017061"><ele>50.5</ele><time>2026-04-06T10:41:16Z</time></trkpt><trkpt lat="43.23156144867485" lon="10.599120045816385"><ele>51.0</ele><time>2026-04-06T10:41:17Z</time></trkpt><trkpt lat="43.231590949898" lon="10.599306523198122"><ele>51.0</ele><time>2026-04-06T10:41:18Z</time></trkpt><trkpt lat="43.23161576205575" lon="10.599487489505306"><ele>51.0</ele><time>2026-04-06T10:41:19Z</time></trkpt><trkpt lat="43.23164628626478" lon="10.599671368877162"><ele>51.0</ele><time>2026-04-06T10:41:20Z</time></trkpt><trkpt lat="43.23167781141204" lon="10.599854756279784"><ele>51.0</ele><time>2026-04-06T10:41:21Z</time></trkpt><trkpt lat="43.23169262926188" lon="10.600049078078563"><ele>53.33333333333333</ele><time>2026-04-06T10:41:22Z</time></trkpt><trkpt lat="43.23174740214255" lon="10.600236015552403"><ele>55.666666666666664</ele><time>2026-04-06T10:41:23Z</time></trkpt><trkpt lat="43.2317775599565" lon="10.60044271261486"><ele>58.0</ele><time>2026-04-06T10:41:24Z</time></trkpt><trkpt lat="43.231801838094114" lon="10.600668194324589"><ele>58.0</ele><time>2026-04-06T10:41:25Z</time></trkpt><trkpt lat="43.2318204573777" lon="10.6009022150126"><ele>58.0</ele><time>2026-04-06T10:41:26Z</time></trkpt><trkpt lat="43.23185374497962" lon="10.601141832184732"><ele>58.0</ele><time>2026-04-06T10:41:27Z</time></trkpt><trkpt lat="43.23187500027146" lon="10.60141612479372"><ele>57.0</ele><time>2026-04-06T10:41:28Z</time></trkpt><trkpt lat="43.231916946978764" lon="10.601689111272488"><ele>56.0</ele><time>2026-04-06T10:41:29Z</time></trkpt><trkpt lat="43.23195861406901" lon="10.601978385348179"><ele>55.0</ele><time>2026-04-06T10:41:30Z</time></trkpt><trkpt lat="43.23199959893975" lon="10.602269079610089"><ele>55.0</ele><time>2026-04-06T10:41:31Z</time></trkpt><trkpt lat="43.23204339243689" lon="10.60255704475585"><ele>55.0</ele><time>2026-04-06T10:41:32Z</time></trkpt><trkpt lat="43.232087151055524" lon="10.60284503164799"><ele>55.0</ele><time>2026-04-06T10:41:33Z</time></trkpt><trkpt lat="43.23213176317298" lon="10.603130760800385"><ele>55.5</ele><time>2026-04-06T10:41:34Z</time></trkpt><trkpt lat="43.23218166854415" lon="10.603432775760945"><ele>56.0</ele><time>2026-04-06T10:41:35Z</time></trkpt><trkpt lat="43.23222435423702" lon="10.603736451067066"><ele>57.0</ele><time>2026-04-06T10:41:36Z</time></trkpt><trkpt lat="43.23226192406111" lon="10.604044282892438"><ele>58.0</ele><time>2026-04-06T10:41:37Z</time></trkpt><trkpt lat="43.232300410394444" lon="10.604353188950741"><ele>59.0</ele><time>2026-04-06T10:41:38Z</time></trkpt><trkpt lat="43.23234538811606" lon="10.604643586734715"><ele>60.0</ele><time>2026-04-06T10:41:39Z</time></trkpt><trkpt lat="43.232381700951294" lon="10.604917367189644"><ele>61.0</ele><time>2026-04-06T10:41:40Z</time></trkpt><trkpt lat="43.23241595186774" lon="10.605188236578655"><ele>61.666666666666664</ele><time>2026-04-06T10:41:41Z</time></trkpt><trkpt lat="43.23246803657665" lon="10.605438079595858"><ele>62.33333333333333</ele><time>2026-04-06T10:41:42Z</time></trkpt><trkpt lat="43.232502839721036" lon="10.605695168066354"><ele>63.0</ele><time>2026-04-06T10:41:43Z</time></trkpt><trkpt lat="43.23254010493015" lon="10.605950974494885"><ele>63.33333333333333</ele><time>2026-04-06T10:41:44Z</time></trkpt><trkpt lat="43.232579169053" lon="10.606201874630349"><ele>63.666666666666664</ele><time>2026-04-06T10:41:45Z</time></trkpt><trkpt lat="43.23261740138391" lon="10.606453003981837"><ele>64.0</ele><time>2026-04-06T10:41:46Z</time></trkpt><trkpt lat="43.23264876263746" lon="10.606706557694654"><ele>64.0</ele><time>2026-04-06T10:41:47Z</time></trkpt><trkpt lat="43.23268276381473" lon="10.606943109876154"><ele>64.0</ele><time>2026-04-06T10:41:48Z</time></trkpt><trkpt lat="43.23271116838777" lon="10.607168789804957"><ele>64.0</ele><time>2026-04-06T10:41:49Z</time></trkpt><trkpt lat="43.23273950930986" lon="10.607383188828612"><ele>64.33333333333333</ele><time>2026-04-06T10:41:50Z</time></trkpt><trkpt lat="43.232772866952324" lon="10.60759614127388"><ele>64.66666666666667</ele><time>2026-04-06T10:41:51Z</time></trkpt><trkpt lat="43.232805245722226" lon="10.607809596083099"><ele>65.0</ele><time>2026-04-06T10:41:52Z</time></trkpt><trkpt lat="43.232836544572734" lon="10.608024035274392"><ele>67.0</ele><time>2026-04-06T10:41:53Z</time></trkpt><trkpt lat="43.23286866575429" lon="10.608242115897987"><ele>69.0</ele><time>2026-04-06T10:41:54Z</time></trkpt><trkpt lat="43.23290077587605" lon="10.608463573457817"><ele>71.0</ele><time>2026-04-06T10:41:55Z</time></trkpt><trkpt lat="43.232934032452" lon="10.60868852226759"><ele>72.33333333333334</ele><time>2026-04-06T10:41:56Z</time></trkpt><trkpt lat="43.23296616495083" lon="10.608913746337517"><ele>73.66666666666667</ele><time>2026-04-06T10:41:57Z</time></trkpt><trkpt lat="43.23299745024551" lon="10.609141233396395"><ele>75.0</ele><time>2026-04-06T10:41:58Z</time></trkpt><trkpt lat="43.233024220238896" lon="10.60936612921216"><ele>76.33333333333333</ele><time>2026-04-06T10:41:59Z</time></trkpt><trkpt lat="43.23305073500235" lon="10.609587766733638"><ele>77.66666666666666</ele><time>2026-04-06T10:42:00Z</time></trkpt><trkpt lat="43.23308469274985" lon="10.609795889360766"><ele>79.0</ele><time>2026-04-06T10:42:01Z</time></trkpt><trkpt lat="43.233118859460674" lon="10.610001667565468"><ele>79.25</ele><time>2026-04-06T10:42:02Z</time></trkpt><trkpt lat="43.23314845394213" lon="10.610204291420372"><ele>79.5</ele><time>2026-04-06T10:42:03Z</time></trkpt><trkpt lat="43.233177029856265" lon="10.61039884537187"><ele>79.75</ele><time>2026-04-06T10:42:04Z</time></trkpt><trkpt lat="43.23320338005577" lon="10.610584887627391"><ele>80.0</ele><time>2026-04-06T10:42:05Z</time></trkpt><trkpt lat="43.233230355479265" lon="10.610750924457363"><ele>81.0</ele><time>2026-04-06T10:42:06Z</time></trkpt><trkpt lat="43.2332550686143" lon="10.610913516642839"><ele>82.0</ele><time>2026-04-06T10:42:07Z</time></trkpt><trkpt lat="43.233283587398454" lon="10.611082556565401"><ele>83.0</ele><time>2026-04-06T10:42:08Z</time></trkpt><trkpt lat="43.23330770649929" lon="10.611251978647289"><ele>84.0</ele><time>2026-04-06T10:42:09Z</time></trkpt><trkpt lat="43.23332872684733" lon="10.611401031970836"><ele>84.0</ele><time>2026-04-06T10:42:10Z</time></trkpt><trkpt lat="43.23334807109936" lon="10.61154163923149"><ele>84.0</ele><time>2026-04-06T10:42:11Z</time></trkpt><trkpt lat="43.23336803117147" lon="10.61167151857293"><ele>84.0</ele><time>2026-04-06T10:42:12Z</time></trkpt><trkpt lat="43.23338208587611" lon="10.611794870964752"><ele>84.0</ele><time>2026-04-06T10:42:13Z</time></trkpt><trkpt lat="43.23340231263863" lon="10.611908008153884"><ele>84.0</ele><time>2026-04-06T10:42:14Z</time></trkpt><trkpt lat="43.233418895057" lon="10.612021116439069"><ele>84.33333333333333</ele><time>2026-04-06T10:42:15Z</time></trkpt><trkpt lat="43.233435821220574" lon="10.612134600932908"><ele>84.66666666666667</ele><time>2026-04-06T10:42:16Z</time></trkpt><trkpt lat="43.233452672684066" lon="10.612246064103156"><ele>85.0</ele><time>2026-04-06T10:42:17Z</time></trkpt><trkpt lat="43.233461385217545" lon="10.61236173853403"><ele>85.33333333333334</ele><time>2026-04-06T10:42:18Z</time></trkpt><trkpt lat="43.23348473120421" lon="10.612476253059565"><ele>85.66666666666667</ele><time>2026-04-06T10:42:19Z</time></trkpt><trkpt lat="43.23350505003699" lon="10.612593499724559"><ele>86.0</ele><time>2026-04-06T10:42:20Z</time></trkpt><trkpt lat="43.23351854431717" lon="10.612706029963855"><ele>86.4</ele><time>2026-04-06T10:42:21Z</time></trkpt><trkpt lat="43.23353533007178" lon="10.612823350937969"><ele>86.8</ele><time>2026-04-06T10:42:22Z</time></trkpt><trkpt lat="43.23355495750376" lon="10.61294692678226"><ele>87.2</ele><time>2026-04-06T10:42:23Z</time></trkpt><trkpt lat="43.23357459240141" lon="10.613074167962832"><ele>87.60000000000001</ele><time>2026-04-06T10:42:24Z</time></trkpt><trkpt lat="43.2335949515517" lon="10.613202030832811"><ele>88.0</ele><time>2026-04-06T10:42:25Z</time></trkpt><trkpt lat="43.23360529830212" lon="10.613333885519172"><ele>88.0</ele><time>2026-04-06T10:42:26Z</time></trkpt><trkpt lat="43.233617701663164" lon="10.613477573772082"><ele>88.0</ele><time>2026-04-06T10:42:27Z</time></trkpt><trkpt lat="43.23364014529469" lon="10.613611760313171"><ele>88.0</ele><time>2026-04-06T10:42:28Z</time></trkpt><trkpt lat="43.23366491983215" lon="10.613750975135423"><ele>88.0</ele><time>2026-04-06T10:42:29Z</time></trkpt><trkpt lat="43.23368745833145" lon="10.613889800981408"><ele>88.0</ele><time>2026-04-06T10:42:30Z</time></trkpt><trkpt lat="43.23371037003017" lon="10.614030178716842"><ele>87.80000000000001</ele><time>2026-04-06T10:42:31Z</time></trkpt><trkpt lat="43.2337307866474" lon="10.614172650294764"><ele>87.6</ele><time>2026-04-06T10:42:32Z</time></trkpt><trkpt lat="43.23374446614696" lon="10.614319129608209"><ele>87.4</ele><time>2026-04-06T10:42:33Z</time></trkpt><trkpt lat="43.23375554308159" lon="10.614456090570194"><ele>87.19999999999999</ele><time>2026-04-06T10:42:34Z</time></trkpt><trkpt lat="43.23376556055303" lon="10.614579005070906"><ele>87.0</ele><time>2026-04-06T10:42:35Z</time></trkpt><trkpt lat="43.23377269923719" lon="10.614694489582849"><ele>87.0</ele><time>2026-04-06T10:42:36Z</time></trkpt><trkpt lat="43.2337826745794" lon="10.614807637209264"><ele>87.0</ele><time>2026-04-06T10:42:37Z</time></trkpt><trkpt lat="43.233791518838004" lon="10.614927269531899"><ele>87.0</ele><time>2026-04-06T10:42:38Z</time></trkpt><trkpt lat="43.23379938709887" lon="10.615042782335594"><ele>87.0</ele><time>2026-04-06T10:42:39Z</time></trkpt><trkpt lat="43.23380778279751" lon="10.615149840233816"><ele>87.0</ele><time>2026-04-06T10:42:40Z</time></trkpt><trkpt lat="43.2338131971501" lon="10.615246921032163"><ele>87.0</ele><time>2026-04-06T10:42:41Z</time></trkpt><trkpt lat="43.23382037972799" lon="10.61533527576311"><ele>86.8</ele><time>2026-04-06T10:42:42Z</time></trkpt><trkpt lat="43.233839063666224" lon="10.615494647201274"><ele>86.6</ele><time>2026-04-06T10:42:44Z</time></trkpt><trkpt lat="43.23385467144049" lon="10.615657057365096"><ele>86.39999999999999</ele><time>2026-04-06T10:42:46Z</time></trkpt><trkpt lat="43.233867272918694" lon="10.615818448423704"><ele>86.19999999999999</ele><time>2026-04-06T10:42:48Z</time></trkpt><trkpt lat="43.233875194391594" lon="10.61590521421359"><ele>86.0</ele><time>2026-04-06T10:42:49Z</time></trkpt><trkpt lat="43.233883422548445" lon="10.61607530220106"><ele>85.85714285714286</ele><time>2026-04-06T10:42:51Z</time></trkpt><trkpt lat="43.23388757439457" lon="10.61616247522173"><ele>85.71428571428572</ele><time>2026-04-06T10:42:52Z</time></trkpt><trkpt lat="43.23389302125891" lon="10.616250449821466"><ele>85.57142857142858</ele><time>2026-04-06T10:42:53Z</time></trkpt><trkpt lat="43.23389978743713" lon="10.616337466114038"><ele>85.42857142857143</ele><time>2026-04-06T10:42:54Z</time></trkpt><trkpt lat="43.23390748792727" lon="10.616424064295897"><ele>85.28571428571428</ele><time>2026-04-06T10:42:55Z</time></trkpt><trkpt lat="43.233921045317096" lon="10.616567992498865"><ele>85.14285714285715</ele><time>2026-04-06T10:42:57Z</time></trkpt><trkpt lat="43.2339253087102" lon="10.616678964805704"><ele>85.0</ele><time>2026-04-06T10:42:59Z</time></trkpt><trkpt lat="43.23389682219514" lon="10.61677209640735"><ele>85.0</ele><time>2026-04-06T10:43:02Z</time></trkpt><trkpt lat="43.23378784168544" lon="10.616777602605662"><ele>85.0</ele><time>2026-04-06T10:43:04Z</time></trkpt><trkpt lat="43.23367686462066" lon="10.616805114899856"><ele>85.0</ele><time>2026-04-06T10:43:06Z</time></trkpt><trkpt lat="43.23355902717307" lon="10.616842016212441"><ele>85.0</ele><time>2026-04-06T10:43:08Z</time></trkpt><trkpt lat="43.23344289528767" lon="10.616878238062352"><ele>85.0</ele><time>2026-04-06T10:43:10Z</time></trkpt><trkpt lat="43.23334067944081" lon="10.616921789976999"><ele>85.0</ele><time>2026-04-06T10:43:12Z</time></trkpt><trkpt lat="43.233290348381466" lon="10.616987310400058"><ele>85.0</ele><time>2026-04-06T10:43:13Z</time></trkpt><trkpt lat="43.2332511251342" lon="10.617118227369419"><ele>85.0</ele><time>2026-04-06T10:43:15Z</time></trkpt><trkpt lat="43.23320627760345" lon="10.617263877947446"><ele>85.0</ele><time>2026-04-06T10:43:17Z</time></trkpt><trkpt lat="43.23318753041513" lon="10.6173471532204"><ele>86.0</ele><time>2026-04-06T10:43:18Z</time></trkpt><trkpt lat="43.233160045765395" lon="10.617427335646031"><ele>87.0</ele><time>2026-04-06T10:43:19Z</time></trkpt><trkpt lat="43.23311539964392" lon="10.617579543261545"><ele>88.0</ele><time>2026-04-06T10:43:21Z</time></trkpt><trkpt lat="43.23307487218369" lon="10.617716526789998"><ele>89.0</ele><time>2026-04-06T10:43:23Z</time></trkpt><trkpt lat="43.2330372422594" lon="10.617837704183893"><ele>90.0</ele><time>2026-04-06T10:43:25Z</time></trkpt><trkpt lat="43.23299959363306" lon="10.617939559817158"><ele>90.6</ele><time>2026-04-06T10:43:27Z</time></trkpt><trkpt lat="43.23295717244511" lon="10.618026208901826"><ele>91.2</ele><time>2026-04-06T10:43:30Z</time></trkpt><trkpt lat="43.232874944639114" lon="10.618098576216894"><ele>91.80000000000001</ele><time>2026-04-06T10:43:33Z</time></trkpt><trkpt lat="43.23288031077245" lon="10.61820700990801"><ele>92.4</ele><time>2026-04-06T10:43:35Z</time></trkpt><trkpt lat="43.23290934759279" lon="10.618355256204701"><ele>93.0</ele><time>2026-04-06T10:43:37Z</time></trkpt><trkpt lat="43.232919388900854" lon="10.618498736347943"><ele>93.0</ele><time>2026-04-06T10:43:39Z</time></trkpt><trkpt lat="43.232916997628855" lon="10.61860508181914"><ele>93.0</ele><time>2026-04-06T10:43:41Z</time></trkpt><trkpt lat="43.23291986551406" lon="10.618714986718619"><ele>93.0</ele><time>2026-04-06T10:43:44Z</time></trkpt><trkpt lat="43.232909576111346" lon="10.61880973753453"><ele>93.0</ele><time>2026-04-06T10:44:28Z</time></trkpt><trkpt lat="43.23289358758589" lon="10.618933956746876"><ele>93.0</ele><time>2026-04-06T10:44:38Z</time></trkpt><trkpt lat="43.23290114120422" lon="10.619059104491491"><ele>93.0</ele><time>2026-04-06T10:45:15Z</time></trkpt><trkpt lat="43.232900211761276" lon="10.619185691007173"><ele>93.33333333333333</ele><time>2026-04-06T10:45:17Z</time></trkpt><trkpt lat="43.23288511405887" lon="10.619285656665618"><ele>93.66666666666667</ele><time>2026-04-06T10:45:19Z</time></trkpt><trkpt lat="43.23284895512747" lon="10.619403336291745"><ele>94.0</ele><time>2026-04-06T10:45:22Z</time></trkpt><trkpt lat="43.23281875652045" lon="10.619492243752978"><ele>94.33333333333334</ele><time>2026-04-06T10:45:24Z</time></trkpt><trkpt lat="43.23278888806523" lon="10.619583047556736"><ele>94.66666666666667</ele><time>2026-04-06T10:45:26Z</time></trkpt><trkpt lat="43.23278117193013" lon="10.619689565557447"><ele>95.0</ele><time>2026-04-06T10:45:28Z</time></trkpt><trkpt lat="43.23281098635581" lon="10.61978056172877"><ele>95.0</ele><time>2026-04-06T10:45:31Z</time></trkpt><trkpt lat="43.23288392090493" lon="10.61976960102428"><ele>95.0</ele><time>2026-04-06T10:45:34Z</time></trkpt><trkpt lat="43.23295156574551" lon="10.619701548401451"><ele>95.0</ele><time>2026-04-06T10:45:46Z</time></trkpt><trkpt lat="43.233036090499816" lon="10.619642062845449"><ele>95.0</ele><time>2026-04-06T10:45:48Z</time></trkpt><trkpt lat="43.233095357338556" lon="10.619595451868351"><ele>95.0</ele><time>2026-04-06T10:45:49Z</time></trkpt><trkpt lat="43.23314996510019" lon="10.619539738583633"><ele>95.0</ele><time>2026-04-06T10:45:50Z</time></trkpt><trkpt lat="43.23321449721977" lon="10.619493979612368"><ele>95.0</ele><time>2026-04-06T10:45:51Z</time></trkpt><trkpt lat="43.233280709291954" lon="10.619441939313665"><ele>95.0</ele><time>2026-04-06T10:45:52Z</time></trkpt><trkpt lat="43.23335035558002" lon="10.619391054084597"><ele>95.0</ele><time>2026-04-06T10:45:53Z</time></trkpt><trkpt lat="43.233423159060706" lon="10.619337451012326"><ele>95.0</ele><time>2026-04-06T10:45:54Z</time></trkpt><trkpt lat="43.2335020060575" lon="10.619278094084603"><ele>95.0</ele><time>2026-04-06T10:45:55Z</time></trkpt><trkpt lat="43.23357662513045" lon="10.619221031707523"><ele>95.0</ele><time>2026-04-06T10:45:56Z</time></trkpt><trkpt lat="43.233638202529114" lon="10.619169938716052"><ele>95.0</ele><time>2026-04-06T10:45:57Z</time></trkpt><trkpt lat="43.23371261536254" lon="10.619142995814093"><ele>95.0</ele><time>2026-04-06T10:45:59Z</time></trkpt><trkpt lat="43.233801937782104" lon="10.619175383974643"><ele>95.0</ele><time>2026-04-06T10:46:01Z</time></trkpt><trkpt lat="43.23388698690266" lon="10.619178635166675"><ele>95.0</ele><time>2026-04-06T10:46:08Z</time></trkpt><trkpt lat="43.233953805735446" lon="10.619243825066572"><ele>95.0</ele><time>2026-04-06T10:46:12Z</time></trkpt><trkpt lat="43.233954763154294" lon="10.619375021832187"><ele>95.0</ele><time>2026-04-06T10:46:14Z</time></trkpt><trkpt lat="43.23397279244237" lon="10.6195151035203"><ele>96.33333333333334</ele><time>2026-04-06T10:46:16Z</time></trkpt><trkpt lat="43.23400229991268" lon="10.619653379621038"><ele>97.66666666666667</ele><time>2026-04-06T10:46:18Z</time></trkpt><trkpt lat="43.23401234278452" lon="10.619771816617343"><ele>99.0</ele><time>2026-04-06T10:46:20Z</time></trkpt><trkpt lat="43.23403069513541" lon="10.6198798228272"><ele>100.33333333333334</ele><time>2026-04-06T10:46:22Z</time></trkpt><trkpt lat="43.234039847701546" lon="10.619988357283594"><ele>101.66666666666667</ele><time>2026-04-06T10:46:25Z</time></trkpt><trkpt lat="43.23406313046128" lon="10.620088425983978"><ele>103.0</ele><time>2026-04-06T10:46:28Z</time></trkpt><trkpt lat="43.234079441517615" lon="10.620175342078129"><ele>103.00000000000001</ele><time>2026-04-06T10:46:30Z</time></trkpt><trkpt lat="43.23408614886728" lon="10.620265367188246"><ele>103.0</ele><time>2026-04-06T10:46:32Z</time></trkpt><trkpt lat="43.23410069086818" lon="10.620355611373315"><ele>103.0</ele><time>2026-04-06T10:46:34Z</time></trkpt><trkpt lat="43.234108211946975" lon="10.62045166650172"><ele>103.0</ele><time>2026-04-06T10:46:36Z</time></trkpt><trkpt lat="43.23412466082024" lon="10.620572089708869"><ele>103.00000000000001</ele><time>2026-04-06T10:46:39Z</time></trkpt><trkpt lat="43.23413970596593" lon="10.620695011368056"><ele>103.0</ele><time>2026-04-06T10:46:42Z</time></trkpt><trkpt lat="43.23415945886474" lon="10.620822406206567"><ele>103.42857142857142</ele><time>2026-04-06T10:46:45Z</time></trkpt><trkpt lat="43.23417700803987" lon="10.620927854950935"><ele>103.85714285714286</ele><time>2026-04-06T10:46:48Z</time></trkpt><trkpt lat="43.23418755988613" lon="10.621031952863165"><ele>104.28571428571428</ele><time>2026-04-06T10:46:52Z</time></trkpt><trkpt lat="43.234209027500576" lon="10.621123084388152"><ele>104.71428571428571</ele><time>2026-04-06T10:46:56Z</time></trkpt><trkpt lat="43.23420803511804" lon="10.621221043921235"><ele>105.14285714285714</ele><time>2026-04-06T10:47:00Z</time></trkpt><trkpt lat="43.23422970253392" lon="10.621324108844798"><ele>105.57142857142857</ele><time>2026-04-06T10:47:05Z</time></trkpt><trkpt lat="43.23423877403396" lon="10.621412471304179"><ele>106.0</ele><time>2026-04-06T10:47:11Z</time></trkpt><trkpt lat="43.23424944331431" lon="10.621498472483921"><ele>108.0</ele><time>2026-04-06T10:47:15Z</time></trkpt><trkpt lat="43.234257764705454" lon="10.621590290027854"><ele>108.0</ele><time>2026-04-06T10:47:20Z</time></trkpt><trkpt lat="43.23427095184021" lon="10.621681156367444"><ele>108.0</ele><time>2026-04-06T10:47:34Z</time></trkpt><trkpt lat="43.23427095184021" lon="10.621681156367444"><ele>108.0</ele><time>2026-04-06T10:47:34Z</time></trkpt><trkpt lat="43.23427095184021" lon="10.621681156367444"><ele>108.0</ele><time>2026-04-06T10:47:34Z</time></trkpt></trkseg><trkseg><trkpt lat="43.234124842797776" lon="10.621737101743754"><ele>108.0</ele><time>2026-04-06T12:21:54.017Z</time></trkpt><trkpt lat="43.23401825010499" lon="10.62174885284299"><ele>108.00000000000001</ele><time>2026-04-06T12:21:55.017Z</time></trkpt><trkpt lat="43.23410682848574" lon="10.621681068140445"><ele>108.00000000000001</ele><time>2026-04-06T12:22:08Z</time></trkpt><trkpt lat="43.23405871402241" lon="10.621568826990888"><ele>108.0</ele><time>2026-04-06T12:23:47Z</time></trkpt><trkpt lat="43.23409001258171" lon="10.621673910244274"><ele>108.0</ele><time>2026-04-06T12:24:20Z</time></trkpt><trkpt lat="43.23417720134166" lon="10.621700061192517"><ele>108.0</ele><time>2026-04-06T12:25:14Z</time></trkpt><trkpt lat="43.234260869608605" lon="10.621719188944825"><ele>108.0</ele><time>2026-04-06T12:25:19Z</time></trkpt><trkpt lat="43.234250180092985" lon="10.621848121122737"><ele>108.0</ele><time>2026-04-06T12:25:34Z</time></trkpt><trkpt lat="43.23426580920592" lon="10.621962860730472"><ele>108.0</ele><time>2026-04-06T12:25:36Z</time></trkpt><trkpt lat="43.23427278016725" lon="10.622054216131888"><ele>108.0</ele><time>2026-04-06T12:25:37Z</time></trkpt><trkpt lat="43.23434428954884" lon="10.622149318110154"><ele>108.0</ele><time>2026-04-06T12:25:40Z</time></trkpt><trkpt lat="43.23432674866596" lon="10.622271785401571"><ele>108.5</ele><time>2026-04-06T12:25:42Z</time></trkpt><trkpt lat="43.234333869974776" lon="10.622380722785866"><ele>109.0</ele><time>2026-04-06T12:25:44Z</time></trkpt><trkpt lat="43.23432614927102" lon="10.622468631736922"><ele>109.5</ele><time>2026-04-06T12:25:46Z</time></trkpt><trkpt lat="43.234312216705305" lon="10.622572971612339"><ele>110.0</ele><time>2026-04-06T12:25:49Z</time></trkpt><trkpt lat="43.234402875794274" lon="10.622701128413865"><ele>110.5</ele><time>2026-04-06T12:27:06Z</time></trkpt><trkpt lat="43.23438988392314" lon="10.622817391633555"><ele>111.0</ele><time>2026-04-06T12:27:08Z</time></trkpt><trkpt lat="43.23436151618366" lon="10.622935382909228"><ele>111.0</ele><time>2026-04-06T12:27:10Z</time></trkpt><trkpt lat="43.23433391555298" lon="10.623053607610522"><ele>111.0</ele><time>2026-04-06T12:27:13Z</time></trkpt><trkpt lat="43.234307451115434" lon="10.62315345734658"><ele>111.0</ele><time>2026-04-06T12:27:15Z</time></trkpt><trkpt lat="43.2342707861027" lon="10.623265339297955"><ele>111.0</ele><time>2026-04-06T12:27:17Z</time></trkpt><trkpt lat="43.234251888397004" lon="10.6233927831161"><ele>111.0</ele><time>2026-04-06T12:27:19Z</time></trkpt><trkpt lat="43.23424292972176" lon="10.623520617022841"><ele>111.0</ele><time>2026-04-06T12:27:21Z</time></trkpt><trkpt lat="43.23428727211704" lon="10.623647628171664"><ele>110.8</ele><time>2026-04-06T12:27:24Z</time></trkpt><trkpt lat="43.2343399175801" lon="10.623772684673757"><ele>110.6</ele><time>2026-04-06T12:27:26Z</time></trkpt><trkpt lat="43.23439787897552" lon="10.623895944894318"><ele>110.4</ele><time>2026-04-06T12:27:28Z</time></trkpt><trkpt lat="43.234453854357" lon="10.624020112453621"><ele>110.2</ele><time>2026-04-06T12:27:30Z</time></trkpt><trkpt lat="43.234507122544926" lon="10.624141958972961"><ele>110.0</ele><time>2026-04-06T12:27:32Z</time></trkpt><trkpt lat="43.23455762624095" lon="10.624258981986992"><ele>109.99999999999999</ele><time>2026-04-06T12:27:34Z</time></trkpt><trkpt lat="43.234610247917374" lon="10.6243712594132"><ele>110.0</ele><time>2026-04-06T12:27:36Z</time></trkpt><trkpt lat="43.23465589652388" lon="10.624480129525887"><ele>110.0</ele><time>2026-04-06T12:27:38Z</time></trkpt><trkpt lat="43.23471486115685" lon="10.624566953056727"><ele>110.0</ele><time>2026-04-06T12:27:41Z</time></trkpt><trkpt lat="43.23478521230687" lon="10.62462277051904"><ele>109.99999999999999</ele><time>2026-04-06T12:27:43Z</time></trkpt><trkpt lat="43.23486035059363" lon="10.624676787640864"><ele>110.0</ele><time>2026-04-06T12:27:45Z</time></trkpt><trkpt lat="43.234900921308295" lon="10.62478232925419"><ele>111.16666666666666</ele><time>2026-04-06T12:27:47Z</time></trkpt><trkpt lat="43.234928616877156" lon="10.624916592295646"><ele>112.33333333333333</ele><time>2026-04-06T12:27:49Z</time></trkpt><trkpt lat="43.23496964357255" lon="10.625074016846701"><ele>113.5</ele><time>2026-04-06T12:27:51Z</time></trkpt><trkpt lat="43.234994155791895" lon="10.625158794448678"><ele>114.66666666666666</ele><time>2026-04-06T12:27:52Z</time></trkpt><trkpt lat="43.23502153109808" lon="10.625251194355032"><ele>115.83333333333333</ele><time>2026-04-06T12:27:53Z</time></trkpt><trkpt lat="43.235046035079705" lon="10.625347247783175"><ele>117.0</ele><time>2026-04-06T12:27:54Z</time></trkpt><trkpt lat="43.235060337705" lon="10.625496833320069"><ele>118.19999999999999</ele><time>2026-04-06T12:27:56Z</time></trkpt><trkpt lat="43.2350670513936" lon="10.62562605405733"><ele>119.39999999999999</ele><time>2026-04-06T12:27:58Z</time></trkpt><trkpt lat="43.235094568018106" lon="10.62577150403028"><ele>120.60000000000001</ele><time>2026-04-06T12:28:00Z</time></trkpt><trkpt lat="43.23511741826536" lon="10.625920895443342"><ele>121.80000000000001</ele><time>2026-04-06T12:28:02Z</time></trkpt><trkpt lat="43.23514761371231" lon="10.626072974417339"><ele>123.0</ele><time>2026-04-06T12:28:04Z</time></trkpt><trkpt lat="43.23517984600751" lon="10.62622154865743"><ele>123.2</ele><time>2026-04-06T12:28:06Z</time></trkpt><trkpt lat="43.2351995990203" lon="10.626330342800728"><ele>123.4</ele><time>2026-04-06T12:28:08Z</time></trkpt><trkpt lat="43.23517689181618" lon="10.626418741245768"><ele>123.60000000000001</ele><time>2026-04-06T12:28:10Z</time></trkpt><trkpt lat="43.235068164836655" lon="10.626486096368009"><ele>123.80000000000001</ele><time>2026-04-06T12:28:12Z</time></trkpt><trkpt lat="43.23497335041069" lon="10.626540629253775"><ele>124.0</ele><time>2026-04-06T12:28:14Z</time></trkpt><trkpt lat="43.23488143704097" lon="10.626567272406099"><ele>124.00000000000001</ele><time>2026-04-06T12:28:16Z</time></trkpt><trkpt lat="43.23480518793423" lon="10.626615414228674"><ele>124.0</ele><time>2026-04-06T12:28:18Z</time></trkpt><trkpt lat="43.234735691965255" lon="10.626620912891388"><ele>124.0</ele><time>2026-04-06T12:28:20Z</time></trkpt><trkpt lat="43.23470596042045" lon="10.62650238164387"><ele>124.0</ele><time>2026-04-06T12:28:22Z</time></trkpt><trkpt lat="43.2346647191397" lon="10.626412736565012"><ele>124.00000000000001</ele><time>2026-04-06T12:28:24Z</time></trkpt><trkpt lat="43.234631166101366" lon="10.626316329126062"><ele>124.0</ele><time>2026-04-06T12:28:25Z</time></trkpt><trkpt lat="43.23456762903551" lon="10.626172551766865"><ele>123.00000000000001</ele><time>2026-04-06T12:28:27Z</time></trkpt><trkpt lat="43.23453518153894" lon="10.626098111270949"><ele>122.0</ele><time>2026-04-06T12:28:28Z</time></trkpt><trkpt lat="43.234468137661814" lon="10.625944298644688"><ele>121.0</ele><time>2026-04-06T12:28:30Z</time></trkpt><trkpt lat="43.23443380433409" lon="10.62586370695849"><ele>120.0</ele><time>2026-04-06T12:28:31Z</time></trkpt><trkpt lat="43.23440077783179" lon="10.62578475416557"><ele>119.00000000000001</ele><time>2026-04-06T12:28:32Z</time></trkpt><trkpt lat="43.23436364306768" lon="10.625703730936344"><ele>118.0</ele><time>2026-04-06T12:28:33Z</time></trkpt><trkpt lat="43.23432688807388" lon="10.625628924669472"><ele>118.0</ele><time>2026-04-06T12:28:34Z</time></trkpt><trkpt lat="43.23428777149258" lon="10.625553635851283"><ele>118.0</ele><time>2026-04-06T12:28:35Z</time></trkpt><trkpt lat="43.23425097939367" lon="10.62547670704913"><ele>118.0</ele><time>2026-04-06T12:28:36Z</time></trkpt><trkpt lat="43.23421694428388" lon="10.62538801207009"><ele>118.0</ele><time>2026-04-06T12:28:37Z</time></trkpt><trkpt lat="43.23418811698337" lon="10.62530167525144"><ele>118.0</ele><time>2026-04-06T12:28:38Z</time></trkpt><trkpt lat="43.23415671936337" lon="10.625217663577468"><ele>118.0</ele><time>2026-04-06T12:28:39Z</time></trkpt><trkpt lat="43.23412768795638" lon="10.625130734491076"><ele>118.0</ele><time>2026-04-06T12:28:40Z</time></trkpt><trkpt lat="43.23410020164829" lon="10.625050244413313"><ele>116.5</ele><time>2026-04-06T12:28:41Z</time></trkpt><trkpt lat="43.23405520004782" lon="10.62490046569342"><ele>115.0</ele><time>2026-04-06T12:28:43Z</time></trkpt><trkpt lat="43.23401551434163" lon="10.624755472109259"><ele>113.5</ele><time>2026-04-06T12:28:45Z</time></trkpt><trkpt lat="43.23397485650095" lon="10.624615589264371"><ele>112.0</ele><time>2026-04-06T12:28:47Z</time></trkpt><trkpt lat="43.23392921151246" lon="10.624474472050876"><ele>111.33333333333334</ele><time>2026-04-06T12:28:49Z</time></trkpt><trkpt lat="43.23389127110449" lon="10.624331472359716"><ele>110.66666666666667</ele><time>2026-04-06T12:28:51Z</time></trkpt><trkpt lat="43.233846560760995" lon="10.624176252349901"><ele>110.0</ele><time>2026-04-06T12:28:53Z</time></trkpt><trkpt lat="43.23382160888851" lon="10.624092847614753"><ele>109.33333333333334</ele><time>2026-04-06T12:28:54Z</time></trkpt><trkpt lat="43.23379761330011" lon="10.624003593828222"><ele>108.66666666666667</ele><time>2026-04-06T12:28:55Z</time></trkpt><trkpt lat="43.233769466201274" lon="10.623907142570937"><ele>108.0</ele><time>2026-04-06T12:28:56Z</time></trkpt><trkpt lat="43.23374597513406" lon="10.623816784477532"><ele>108.0</ele><time>2026-04-06T12:28:57Z</time></trkpt><trkpt lat="43.23370967848402" lon="10.623663483265725"><ele>108.0</ele><time>2026-04-06T12:28:59Z</time></trkpt><trkpt lat="43.2336889856366" lon="10.623580863331208"><ele>108.0</ele><time>2026-04-06T12:29:00Z</time></trkpt><trkpt lat="43.23366923160562" lon="10.623486882822487"><ele>108.0</ele><time>2026-04-06T12:29:01Z</time></trkpt><trkpt lat="43.23366529740442" lon="10.623398884092792"><ele>108.0</ele><time>2026-04-06T12:29:02Z</time></trkpt><trkpt lat="43.233656074711625" lon="10.623306835455399"><ele>108.0</ele><time>2026-04-06T12:29:03Z</time></trkpt><trkpt lat="43.2336446517337" lon="10.623221115984501"><ele>108.0</ele><time>2026-04-06T12:29:04Z</time></trkpt><trkpt lat="43.23361263190213" lon="10.623133113114168"><ele>107.33333333333333</ele><time>2026-04-06T12:29:05Z</time></trkpt><trkpt lat="43.233580043288946" lon="10.623030284668989"><ele>106.66666666666666</ele><time>2026-04-06T12:29:06Z</time></trkpt><trkpt lat="43.23354667346182" lon="10.622921293032165"><ele>106.0</ele><time>2026-04-06T12:29:07Z</time></trkpt><trkpt lat="43.233521340397026" lon="10.622801520911258"><ele>105.33333333333333</ele><time>2026-04-06T12:29:08Z</time></trkpt><trkpt lat="43.23349929894655" lon="10.622681367529784"><ele>104.66666666666666</ele><time>2026-04-06T12:29:09Z</time></trkpt><trkpt lat="43.233477314938625" lon="10.622562833733326"><ele>104.0</ele><time>2026-04-06T12:29:10Z</time></trkpt><trkpt lat="43.233476158342945" lon="10.622444561822379"><ele>103.66666666666666</ele><time>2026-04-06T12:29:11Z</time></trkpt><trkpt lat="43.23346424629038" lon="10.622338928221252"><ele>103.33333333333333</ele><time>2026-04-06T12:29:12Z</time></trkpt><trkpt lat="43.23344715277068" lon="10.6221572883415"><ele>103.0</ele><time>2026-04-06T12:29:14Z</time></trkpt><trkpt lat="43.23343797746229" lon="10.622046760829788"><ele>102.66666666666666</ele><time>2026-04-06T12:29:15Z</time></trkpt><trkpt lat="43.23342477311617" lon="10.621942102631875"><ele>102.33333333333333</ele><time>2026-04-06T12:29:17Z</time></trkpt><trkpt lat="43.23342264130834" lon="10.621847457296427"><ele>102.0</ele><time>2026-04-06T12:29:18Z</time></trkpt><trkpt lat="43.233423615458996" lon="10.621758227418258"><ele>102.0</ele><time>2026-04-06T12:29:19Z</time></trkpt><trkpt lat="43.233426756976655" lon="10.621665237491937"><ele>102.0</ele><time>2026-04-06T12:29:20Z</time></trkpt><trkpt lat="43.2334300872219" lon="10.621552619192265"><ele>102.0</ele><time>2026-04-06T12:29:21Z</time></trkpt><trkpt lat="43.233442297848555" lon="10.621445702764973"><ele>102.0</ele><time>2026-04-06T12:29:22Z</time></trkpt><trkpt lat="43.23345199875313" lon="10.621339769397206"><ele>102.0</ele><time>2026-04-06T12:29:23Z</time></trkpt><trkpt lat="43.23344744502434" lon="10.62125061040335"><ele>102.0</ele><time>2026-04-06T12:29:24Z</time></trkpt><trkpt lat="43.23345229837564" lon="10.62116058019274"><ele>102.0</ele><time>2026-04-06T12:29:25Z</time></trkpt><trkpt lat="43.23346481866259" lon="10.62107284913115"><ele>101.66666666666667</ele><time>2026-04-06T12:29:26Z</time></trkpt><trkpt lat="43.23345949590355" lon="10.620973544779108"><ele>101.33333333333334</ele><time>2026-04-06T12:29:27Z</time></trkpt><trkpt lat="43.23346155476582" lon="10.620874359047622"><ele>101.0</ele><time>2026-04-06T12:29:28Z</time></trkpt><trkpt lat="43.233466528077436" lon="10.620764166974487"><ele>100.66666666666667</ele><time>2026-04-06T12:29:29Z</time></trkpt><trkpt lat="43.23346950490452" lon="10.620656818829055"><ele>100.33333333333334</ele><time>2026-04-06T12:29:30Z</time></trkpt><trkpt lat="43.233473568321465" lon="10.62055052177903"><ele>100.0</ele><time>2026-04-06T12:29:31Z</time></trkpt><trkpt lat="43.23347975841449" lon="10.62045108690333"><ele>100.00000000000001</ele><time>2026-04-06T12:29:32Z</time></trkpt><trkpt lat="43.233487140757575" lon="10.620335703868092"><ele>100.0</ele><time>2026-04-06T12:29:33Z</time></trkpt><trkpt lat="43.23350303914127" lon="10.620224089403344"><ele>100.0</ele><time>2026-04-06T12:29:34Z</time></trkpt><trkpt lat="43.233526503551346" lon="10.620102035805607"><ele>100.0</ele><time>2026-04-06T12:29:35Z</time></trkpt><trkpt lat="43.23355638928538" lon="10.619991289054113"><ele>100.00000000000001</ele><time>2026-04-06T12:29:36Z</time></trkpt><trkpt lat="43.23358435702534" lon="10.619882110282308"><ele>100.0</ele><time>2026-04-06T12:29:37Z</time></trkpt><trkpt lat="43.233614095800036" lon="10.6197856793737"><ele>99.16666666666667</ele><time>2026-04-06T12:29:38Z</time></trkpt><trkpt lat="43.23364812461519" lon="10.619698704889723"><ele>98.33333333333334</ele><time>2026-04-06T12:29:39Z</time></trkpt><trkpt lat="43.23368231517928" lon="10.619613843067304"><ele>97.5</ele><time>2026-04-06T12:29:40Z</time></trkpt><trkpt lat="43.233712312656706" lon="10.619533739746833"><ele>96.66666666666667</ele><time>2026-04-06T12:29:41Z</time></trkpt><trkpt lat="43.23374347298074" lon="10.619456401244378"><ele>95.83333333333334</ele><time>2026-04-06T12:29:42Z</time></trkpt><trkpt lat="43.23379589457103" lon="10.619319866877092"><ele>95.0</ele><time>2026-04-06T12:29:44Z</time></trkpt><trkpt lat="43.23382967787509" lon="10.61923180274716"><ele>95.0</ele><time>2026-04-06T12:29:46Z</time></trkpt><trkpt lat="43.23385926676189" lon="10.619153690665701"><ele>95.0</ele><time>2026-04-06T12:29:48Z</time></trkpt><trkpt lat="43.23391536238009" lon="10.61903308194081"><ele>95.0</ele><time>2026-04-06T12:29:50Z</time></trkpt><trkpt lat="43.23399817391224" lon="10.618930652627315"><ele>95.0</ele><time>2026-04-06T12:29:52Z</time></trkpt><trkpt lat="43.234047436897875" lon="10.618816648197656"><ele>95.0</ele><time>2026-04-06T12:29:54Z</time></trkpt><trkpt lat="43.234061871128404" lon="10.61868018343037"><ele>95.66666666666667</ele><time>2026-04-06T12:29:56Z</time></trkpt><trkpt lat="43.23406528100005" lon="10.618575782942166"><ele>96.33333333333334</ele><time>2026-04-06T12:29:58Z</time></trkpt><trkpt lat="43.2340696672365" lon="10.618478437182233"><ele>97.0</ele><time>2026-04-06T12:30:00Z</time></trkpt><trkpt lat="43.23407944212536" lon="10.618382273748356"><ele>97.66666666666667</ele><time>2026-04-06T12:30:02Z</time></trkpt><trkpt lat="43.23409542118822" lon="10.618293535055077"><ele>98.33333333333333</ele><time>2026-04-06T12:30:04Z</time></trkpt><trkpt lat="43.23410863651932" lon="10.618169031045168"><ele>99.0</ele><time>2026-04-06T12:30:07Z</time></trkpt><trkpt lat="43.23411636444492" lon="10.618056779771404"><ele>99.0</ele><time>2026-04-06T12:30:10Z</time></trkpt><trkpt lat="43.234126145555386" lon="10.617931659420226"><ele>99.0</ele><time>2026-04-06T12:30:13Z</time></trkpt><trkpt lat="43.23413806704008" lon="10.61784548910811"><ele>99.0</ele><time>2026-04-06T12:30:15Z</time></trkpt><trkpt lat="43.234149170347585" lon="10.617735538783839"><ele>99.0</ele><time>2026-04-06T12:30:18Z</time></trkpt><trkpt lat="43.234157426602366" lon="10.617644740358005"><ele>99.0</ele><time>2026-04-06T12:30:21Z</time></trkpt><trkpt lat="43.23416593975606" lon="10.617555560776108"><ele>99.0</ele><time>2026-04-06T12:30:23Z</time></trkpt><trkpt lat="43.23416567449334" lon="10.61745005408391"><ele>99.0</ele><time>2026-04-06T12:30:25Z</time></trkpt><trkpt lat="43.23412628165919" lon="10.617361279715638"><ele>98.6</ele><time>2026-04-06T12:30:27Z</time></trkpt><trkpt lat="43.234051657438116" lon="10.61727305828131"><ele>98.2</ele><time>2026-04-06T12:30:29Z</time></trkpt><trkpt lat="43.233977390696005" lon="10.617211658878974"><ele>97.8</ele><time>2026-04-06T12:30:31Z</time></trkpt><trkpt lat="43.23394517041637" lon="10.617099094365662"><ele>97.39999999999999</ele><time>2026-04-06T12:30:33Z</time></trkpt><trkpt lat="43.233939317128" lon="10.616978172452564"><ele>97.0</ele><time>2026-04-06T12:30:35Z</time></trkpt><trkpt lat="43.233937124232945" lon="10.616832869505858"><ele>95.16666666666667</ele><time>2026-04-06T12:30:37Z</time></trkpt><trkpt lat="43.23393965323581" lon="10.616739301735686"><ele>93.33333333333334</ele><time>2026-04-06T12:30:38Z</time></trkpt><trkpt lat="43.233938831104794" lon="10.616629591582885"><ele>91.5</ele><time>2026-04-06T12:30:39Z</time></trkpt><trkpt lat="43.233933717583405" lon="10.616530301785048"><ele>89.66666666666667</ele><time>2026-04-06T12:30:40Z</time></trkpt><trkpt lat="43.23392910794597" lon="10.616443967800498"><ele>87.83333333333334</ele><time>2026-04-06T12:30:41Z</time></trkpt><trkpt lat="43.233915502070396" lon="10.61628694520943"><ele>86.0</ele><time>2026-04-06T12:30:43Z</time></trkpt><trkpt lat="43.233902376805446" lon="10.61613881834865"><ele>86.0</ele><time>2026-04-06T12:30:45Z</time></trkpt><trkpt lat="43.233891190746775" lon="10.615992838600988"><ele>86.0</ele><time>2026-04-06T12:30:47Z</time></trkpt><trkpt lat="43.23388492612914" lon="10.61583374865588"><ele>86.0</ele><time>2026-04-06T12:30:49Z</time></trkpt><trkpt lat="43.2338684621991" lon="10.61566284622477"><ele>86.0</ele><time>2026-04-06T12:30:51Z</time></trkpt><trkpt lat="43.233857575991415" lon="10.615569930360735"><ele>86.0</ele><time>2026-04-06T12:30:52Z</time></trkpt><trkpt lat="43.23384893003099" lon="10.615477137424506"><ele>86.0</ele><time>2026-04-06T12:30:53Z</time></trkpt><trkpt lat="43.23385662503541" lon="10.615382932027694"><ele>86.0</ele><time>2026-04-06T12:30:54Z</time></trkpt><trkpt lat="43.2338497303044" lon="10.615290584830696"><ele>86.0</ele><time>2026-04-06T12:30:55Z</time></trkpt><trkpt lat="43.233843123253344" lon="10.615202090760667"><ele>86.0</ele><time>2026-04-06T12:30:56Z</time></trkpt><trkpt lat="43.23383652473118" lon="10.615113710994946"><ele>86.0</ele><time>2026-04-06T12:30:57Z</time></trkpt><trkpt lat="43.233823841501646" lon="10.614943833378232"><ele>86.0</ele><time>2026-04-06T12:30:59Z</time></trkpt><trkpt lat="43.23381171047333" lon="10.61478135189692"><ele>86.0</ele><time>2026-04-06T12:31:01Z</time></trkpt><trkpt lat="43.233785054764034" lon="10.614626238511566"><ele>86.0</ele><time>2026-04-06T12:31:03Z</time></trkpt><trkpt lat="43.23377804322499" lon="10.614462896321013"><ele>86.0</ele><time>2026-04-06T12:31:05Z</time></trkpt><trkpt lat="43.23375700054627" lon="10.614291575051412"><ele>86.0</ele><time>2026-04-06T12:31:07Z</time></trkpt><trkpt lat="43.2337618944173" lon="10.61419697766968"><ele>86.0</ele><time>2026-04-06T12:31:08Z</time></trkpt><trkpt lat="43.23375023797453" lon="10.614105352598433"><ele>86.0</ele><time>2026-04-06T12:31:09Z</time></trkpt><trkpt lat="43.23373735324389" lon="10.614011897711956"><ele>86.0</ele><time>2026-04-06T12:31:10Z</time></trkpt><trkpt lat="43.23371742175904" lon="10.613924811891682"><ele>86.0</ele><time>2026-04-06T12:31:11Z</time></trkpt><trkpt lat="43.23370375784361" lon="10.61383874846057"><ele>86.0</ele><time>2026-04-06T12:31:12Z</time></trkpt><trkpt lat="43.23367988325419" lon="10.613672982928387"><ele>86.0</ele><time>2026-04-06T12:31:14Z</time></trkpt><trkpt lat="43.23365790609753" lon="10.613517309632888"><ele>86.0</ele><time>2026-04-06T12:31:16Z</time></trkpt><trkpt lat="43.233639237676826" lon="10.613370100344783"><ele>86.0</ele><time>2026-04-06T12:31:18Z</time></trkpt><trkpt lat="43.23361882528407" lon="10.613232857994959"><ele>86.0</ele><time>2026-04-06T12:31:20Z</time></trkpt><trkpt lat="43.233600211116965" lon="10.613101859095531"><ele>86.0</ele><time>2026-04-06T12:31:22Z</time></trkpt><trkpt lat="43.233580322687764" lon="10.612970773283308"><ele>86.0</ele><time>2026-04-06T12:31:24Z</time></trkpt><trkpt lat="43.23355954287721" lon="10.612863094705295"><ele>86.0</ele><time>2026-04-06T12:31:26Z</time></trkpt><trkpt lat="43.23354310378732" lon="10.612747516180924"><ele>86.0</ele><time>2026-04-06T12:31:28Z</time></trkpt><trkpt lat="43.233526386873194" lon="10.612622051895475"><ele>86.0</ele><time>2026-04-06T12:31:30Z</time></trkpt><trkpt lat="43.23350716292496" lon="10.612498258162091"><ele>86.0</ele><time>2026-04-06T12:31:32Z</time></trkpt><trkpt lat="43.23350642863249" lon="10.612407471585122"><ele>86.0</ele><time>2026-04-06T12:31:33Z</time></trkpt><trkpt lat="43.233469400833556" lon="10.612236663059424"><ele>86.0</ele><time>2026-04-06T12:31:35Z</time></trkpt><trkpt lat="43.233454845029264" lon="10.612138561378448"><ele>86.0</ele><time>2026-04-06T12:31:36Z</time></trkpt><trkpt lat="43.23344853354601" lon="10.612044387224564"><ele>86.0</ele><time>2026-04-06T12:31:37Z</time></trkpt><trkpt lat="43.23343299047808" lon="10.611939104636805"><ele>86.0</ele><time>2026-04-06T12:31:38Z</time></trkpt><trkpt lat="43.233421273131874" lon="10.611831846341847"><ele>86.0</ele><time>2026-04-06T12:31:39Z</time></trkpt><trkpt lat="43.233403579323195" lon="10.611724937695673"><ele>86.0</ele><time>2026-04-06T12:31:40Z</time></trkpt><trkpt lat="43.2333914667769" lon="10.611622731384218"><ele>86.0</ele><time>2026-04-06T12:31:41Z</time></trkpt><trkpt lat="43.23337677264885" lon="10.611528728006721"><ele>85.66666666666667</ele><time>2026-04-06T12:31:42Z</time></trkpt><trkpt lat="43.23336568263384" lon="10.611438887715712"><ele>85.33333333333334</ele><time>2026-04-06T12:31:43Z</time></trkpt><trkpt lat="43.23333763805571" lon="10.611289810326136"><ele>85.0</ele><time>2026-04-06T12:31:45Z</time></trkpt><trkpt lat="43.23332449872156" lon="10.611130025836562"><ele>84.66666666666667</ele><time>2026-04-06T12:31:47Z</time></trkpt><trkpt lat="43.233313209530415" lon="10.61104301657124"><ele>84.33333333333333</ele><time>2026-04-06T12:31:48Z</time></trkpt><trkpt lat="43.2332999877354" lon="10.610952384284467"><ele>84.0</ele><time>2026-04-06T12:31:49Z</time></trkpt><trkpt lat="43.23328280015987" lon="10.61085485404137"><ele>84.0</ele><time>2026-04-06T12:31:50Z</time></trkpt><trkpt lat="43.23326626809587" lon="10.610755267630454"><ele>84.0</ele><time>2026-04-06T12:31:51Z</time></trkpt><trkpt lat="43.23325068237285" lon="10.610653663938374"><ele>84.0</ele><time>2026-04-06T12:31:52Z</time></trkpt><trkpt lat="43.23323878122219" lon="10.610549333739149"><ele>84.0</ele><time>2026-04-06T12:31:53Z</time></trkpt><trkpt lat="43.233226030692705" lon="10.610442193454146"><ele>84.0</ele><time>2026-04-06T12:31:54Z</time></trkpt><trkpt lat="43.23320502775918" lon="10.610332510695924"><ele>84.0</ele><time>2026-04-06T12:31:55Z</time></trkpt><trkpt lat="43.233182226150845" lon="10.610213290800832"><ele>83.0</ele><time>2026-04-06T12:31:56Z</time></trkpt><trkpt lat="43.23316147783347" lon="10.610087380421996"><ele>82.0</ele><time>2026-04-06T12:31:57Z</time></trkpt><trkpt lat="43.23313454559049" lon="10.609936764836785"><ele>81.0</ele><time>2026-04-06T12:31:58Z</time></trkpt><trkpt lat="43.2331209869159" lon="10.609764833056797"><ele>80.0</ele><time>2026-04-06T12:31:59Z</time></trkpt><trkpt lat="43.23309570569347" lon="10.609590344602028"><ele>78.75</ele><time>2026-04-06T12:32:00Z</time></trkpt><trkpt lat="43.233072581244286" lon="10.609430741833085"><ele>77.5</ele><time>2026-04-06T12:32:01Z</time></trkpt><trkpt lat="43.23304772671636" lon="10.609259198067612"><ele>76.25</ele><time>2026-04-06T12:32:02Z</time></trkpt><trkpt lat="43.233023248897545" lon="10.609090254661815"><ele>75.0</ele><time>2026-04-06T12:32:03Z</time></trkpt><trkpt lat="43.232997844741554" lon="10.6089149179036"><ele>75.0</ele><time>2026-04-06T12:32:04Z</time></trkpt><trkpt lat="43.23297199078393" lon="10.608736593867933"><ele>75.0</ele><time>2026-04-06T12:32:05Z</time></trkpt><trkpt lat="43.2329440467014" lon="10.608543895877245"><ele>75.0</ele><time>2026-04-06T12:32:06Z</time></trkpt><trkpt lat="43.232914596174005" lon="10.608340809504716"><ele>75.0</ele><time>2026-04-06T12:32:07Z</time></trkpt><trkpt lat="43.232890499916174" lon="10.608174645545846"><ele>73.66666666666667</ele><time>2026-04-06T12:32:08Z</time></trkpt><trkpt lat="43.232860969253885" lon="10.607971006512868"><ele>72.33333333333334</ele><time>2026-04-06T12:32:09Z</time></trkpt><trkpt lat="43.23283041341122" lon="10.60776029817095"><ele>71.0</ele><time>2026-04-06T12:32:10Z</time></trkpt><trkpt lat="43.23280009964243" lon="10.607550448132667"><ele>69.0</ele><time>2026-04-06T12:32:11Z</time></trkpt><trkpt lat="43.232768792652216" lon="10.607333553863246"><ele>67.0</ele><time>2026-04-06T12:32:12Z</time></trkpt><trkpt lat="43.23273772094869" lon="10.607118289681349"><ele>65.0</ele><time>2026-04-06T12:32:13Z</time></trkpt><trkpt lat="43.23270617459354" lon="10.606899737095207"><ele>64.66666666666667</ele><time>2026-04-06T12:32:14Z</time></trkpt><trkpt lat="43.23267468073084" lon="10.606681548151988"><ele>64.33333333333333</ele><time>2026-04-06T12:32:15Z</time></trkpt><trkpt lat="43.23264271109465" lon="10.606460063120943"><ele>64.0</ele><time>2026-04-06T12:32:16Z</time></trkpt><trkpt lat="43.232610905874154" lon="10.606239717113878"><ele>63.666666666666664</ele><time>2026-04-06T12:32:17Z</time></trkpt><trkpt lat="43.23257942471249" lon="10.606019300057007"><ele>63.33333333333333</ele><time>2026-04-06T12:32:18Z</time></trkpt><trkpt lat="43.23254826656023" lon="10.605800851914827"><ele>63.0</ele><time>2026-04-06T12:32:19Z</time></trkpt><trkpt lat="43.23251691825453" lon="10.60558107056133"><ele>63.0</ele><time>2026-04-06T12:32:20Z</time></trkpt><trkpt lat="43.2324871597447" lon="10.605372435172754"><ele>63.0</ele><time>2026-04-06T12:32:21Z</time></trkpt><trkpt lat="43.23245733451025" lon="10.605163332045077"><ele>63.0</ele><time>2026-04-06T12:32:22Z</time></trkpt><trkpt lat="43.23242679958284" lon="10.604949253259093"><ele>62.33333333333333</ele><time>2026-04-06T12:32:23Z</time></trkpt><trkpt lat="43.23239558419018" lon="10.604731214326428"><ele>61.666666666666664</ele><time>2026-04-06T12:32:24Z</time></trkpt><trkpt lat="43.23236439882368" lon="10.604513445222114"><ele>61.0</ele><time>2026-04-06T12:32:25Z</time></trkpt><trkpt lat="43.23233397158725" lon="10.604300970197029"><ele>60.0</ele><time>2026-04-06T12:32:26Z</time></trkpt><trkpt lat="43.232304009631996" lon="10.604091744207256"><ele>59.0</ele><time>2026-04-06T12:32:27Z</time></trkpt><trkpt lat="43.232273892499165" lon="10.60388143456812"><ele>58.0</ele><time>2026-04-06T12:32:28Z</time></trkpt><trkpt lat="43.23224376996971" lon="10.603671087264726"><ele>57.33333333333333</ele><time>2026-04-06T12:32:29Z</time></trkpt><trkpt lat="43.2322133197494" lon="10.60345845168584"><ele>56.66666666666667</ele><time>2026-04-06T12:32:30Z</time></trkpt><trkpt lat="43.23218171159398" lon="10.603237730179812"><ele>56.0</ele><time>2026-04-06T12:32:31Z</time></trkpt><trkpt lat="43.232150837048586" lon="10.603022131636486"><ele>55.75</ele><time>2026-04-06T12:32:32Z</time></trkpt><trkpt lat="43.232121066166656" lon="10.602814239984022"><ele>55.5</ele><time>2026-04-06T12:32:33Z</time></trkpt><trkpt lat="43.23209254976503" lon="10.602615108254579"><ele>55.25</ele><time>2026-04-06T12:32:34Z</time></trkpt><trkpt lat="43.232064622911615" lon="10.60242009357825"><ele>55.0</ele><time>2026-04-06T12:32:35Z</time></trkpt><trkpt lat="43.232037024917865" lon="10.602227375349857"><ele>55.0</ele><time>2026-04-06T12:32:36Z</time></trkpt><trkpt lat="43.23201008823353" lon="10.602039274996766"><ele>55.0</ele><time>2026-04-06T12:32:37Z</time></trkpt><trkpt lat="43.2319848437822" lon="10.6018629915855"><ele>55.0</ele><time>2026-04-06T12:32:38Z</time></trkpt><trkpt lat="43.231959953454094" lon="10.601688888940926"><ele>55.0</ele><time>2026-04-06T12:32:39Z</time></trkpt><trkpt lat="43.2319355324349" lon="10.601517914936265"><ele>54.75</ele><time>2026-04-06T12:32:40Z</time></trkpt><trkpt lat="43.23189690447527" lon="10.601349758082208"><ele>54.5</ele><time>2026-04-06T12:32:41Z</time></trkpt><trkpt lat="43.23187869939958" lon="10.601190176206531"><ele>54.25</ele><time>2026-04-06T12:32:42Z</time></trkpt><trkpt lat="43.231857039004865" lon="10.601034677678177"><ele>54.0</ele><time>2026-04-06T12:32:43Z</time></trkpt><trkpt lat="43.23183473226867" lon="10.60090472329109"><ele>54.666666666666664</ele><time>2026-04-06T12:32:44Z</time></trkpt><trkpt lat="43.231825091796225" lon="10.600802241746552"><ele>55.33333333333333</ele><time>2026-04-06T12:32:45Z</time></trkpt><trkpt lat="43.23181133135212" lon="10.60070499213542"><ele>56.0</ele><time>2026-04-06T12:32:46Z</time></trkpt><trkpt lat="43.23179781841275" lon="10.600599690501067"><ele>56.666666666666664</ele><time>2026-04-06T12:32:47Z</time></trkpt><trkpt lat="43.23177830788705" lon="10.600490089209975"><ele>57.33333333333333</ele><time>2026-04-06T12:32:48Z</time></trkpt><trkpt lat="43.23176464645217" lon="10.60036015412152"><ele>58.0</ele><time>2026-04-06T12:32:49Z</time></trkpt><trkpt lat="43.23174515611287" lon="10.600210008143296"><ele>58.0</ele><time>2026-04-06T12:32:50Z</time></trkpt><trkpt lat="43.23171642873881" lon="10.600025298944727"><ele>58.0</ele><time>2026-04-06T12:32:51Z</time></trkpt><trkpt lat="43.23168168755864" lon="10.599810861530226"><ele>58.0</ele><time>2026-04-06T12:32:52Z</time></trkpt><trkpt lat="43.231646837388084" lon="10.599571703054869"><ele>55.666666666666664</ele><time>2026-04-06T12:32:53Z</time></trkpt><trkpt lat="43.23160791876654" lon="10.59931185383733"><ele>53.33333333333333</ele><time>2026-04-06T12:32:54Z</time></trkpt><trkpt lat="43.23158143477111" lon="10.599021890405577"><ele>51.0</ele><time>2026-04-06T12:32:55Z</time></trkpt><trkpt lat="43.23153743416468" lon="10.598712077919766"><ele>51.0</ele><time>2026-04-06T12:32:56Z</time></trkpt><trkpt lat="43.231490012174525" lon="10.59837817486281"><ele>51.0</ele><time>2026-04-06T12:32:57Z</time></trkpt><trkpt lat="43.23144208023698" lon="10.598040681372442"><ele>50.0</ele><time>2026-04-06T12:32:58Z</time></trkpt><trkpt lat="43.23139449581173" lon="10.597705634729923"><ele>49.0</ele><time>2026-04-06T12:32:59Z</time></trkpt><trkpt lat="43.231346921854026" lon="10.597370661805261"><ele>49.0</ele><time>2026-04-06T12:33:00Z</time></trkpt><trkpt lat="43.23129933039528" lon="10.597035565734378"><ele>49.0</ele><time>2026-04-06T12:33:01Z</time></trkpt><trkpt lat="43.23125277340866" lon="10.596707753373591"><ele>47.5</ele><time>2026-04-06T12:33:02Z</time></trkpt><trkpt lat="43.23120672700028" lon="10.596383536093416"><ele>46.0</ele><time>2026-04-06T12:33:03Z</time></trkpt><trkpt lat="43.231160376355646" lon="10.596057176624692"><ele>46.0</ele><time>2026-04-06T12:33:04Z</time></trkpt><trkpt lat="43.23111307186737" lon="10.595724101121336"><ele>46.0</ele><time>2026-04-06T12:33:05Z</time></trkpt><trkpt lat="43.23106427186606" lon="10.595380495455238"><ele>45.5</ele><time>2026-04-06T12:33:06Z</time></trkpt><trkpt lat="43.23101455781119" lon="10.595030036876949"><ele>45.0</ele><time>2026-04-06T12:33:07Z</time></trkpt><trkpt lat="43.23096643603815" lon="10.594690272756111"><ele>44.5</ele><time>2026-04-06T12:33:08Z</time></trkpt><trkpt lat="43.230918887144114" lon="10.594354553549508"><ele>44.0</ele><time>2026-04-06T12:33:09Z</time></trkpt><trkpt lat="43.23087246490366" lon="10.594026788964609"><ele>44.0</ele><time>2026-04-06T12:33:10Z</time></trkpt><trkpt lat="43.23082599510405" lon="10.593696605515452"><ele>44.0</ele><time>2026-04-06T12:33:11Z</time></trkpt><trkpt lat="43.2307811499432" lon="10.59337666983576"><ele>42.5</ele><time>2026-04-06T12:33:12Z</time></trkpt><trkpt lat="43.230736096381186" lon="10.593055247219942"><ele>41.0</ele><time>2026-04-06T12:33:13Z</time></trkpt><trkpt lat="43.230675880576854" lon="10.592738927649513"><ele>40.0</ele><time>2026-04-06T12:33:14Z</time></trkpt><trkpt lat="43.23063020414255" lon="10.59242054092396"><ele>39.0</ele><time>2026-04-06T12:33:15Z</time></trkpt><trkpt lat="43.23060133916555" lon="10.59209385835566"><ele>38.5</ele><time>2026-04-06T12:33:16Z</time></trkpt><trkpt lat="43.230556006466216" lon="10.59177044426008"><ele>38.0</ele><time>2026-04-06T12:33:17Z</time></trkpt><trkpt lat="43.230511130588745" lon="10.591448737892415"><ele>37.5</ele><time>2026-04-06T12:33:18Z</time></trkpt><trkpt lat="43.23045274779456" lon="10.591145338497983"><ele>37.0</ele><time>2026-04-06T12:33:19Z</time></trkpt><trkpt lat="43.23041112750029" lon="10.590847176424122"><ele>37.0</ele><time>2026-04-06T12:33:20Z</time></trkpt><trkpt lat="43.230369238247214" lon="10.590544975046184"><ele>37.0</ele><time>2026-04-06T12:33:21Z</time></trkpt><trkpt lat="43.23032741269618" lon="10.590237773725272"><ele>35.0</ele><time>2026-04-06T12:33:22Z</time></trkpt><trkpt lat="43.23028539297263" lon="10.58992083273158"><ele>33.0</ele><time>2026-04-06T12:33:23Z</time></trkpt><trkpt lat="43.230234975078936" lon="10.589587444882085"><ele>31.5</ele><time>2026-04-06T12:33:24Z</time></trkpt><trkpt lat="43.230202734290884" lon="10.58924935155161"><ele>30.0</ele><time>2026-04-06T12:33:25Z</time></trkpt><trkpt lat="43.23015816107843" lon="10.588934004478459"><ele>30.0</ele><time>2026-04-06T12:33:26Z</time></trkpt><trkpt lat="43.23009864814956" lon="10.58861990450918"><ele>30.0</ele><time>2026-04-06T12:33:27Z</time></trkpt><trkpt lat="43.23005741209183" lon="10.588313569568339"><ele>30.0</ele><time>2026-04-06T12:33:28Z</time></trkpt><trkpt lat="43.23001883570605" lon="10.588015151912245"><ele>30.0</ele><time>2026-04-06T12:33:29Z</time></trkpt><trkpt lat="43.22998608155506" lon="10.587712964599431"><ele>30.0</ele><time>2026-04-06T12:33:30Z</time></trkpt><trkpt lat="43.2299449379437" lon="10.58742090927074"><ele>30.333333333333336</ele><time>2026-04-06T12:33:31Z</time></trkpt><trkpt lat="43.22990592660375" lon="10.587146219546431"><ele>30.666666666666668</ele><time>2026-04-06T12:33:32Z</time></trkpt><trkpt lat="43.22985153293099" lon="10.586881246475834"><ele>31.0</ele><time>2026-04-06T12:33:33Z</time></trkpt><trkpt lat="43.22982098287695" lon="10.586597285056639"><ele>30.333333333333336</ele><time>2026-04-06T12:33:34Z</time></trkpt><trkpt lat="43.229778060857946" lon="10.586302079477678"><ele>29.666666666666664</ele><time>2026-04-06T12:33:35Z</time></trkpt><trkpt lat="43.229733249665806" lon="10.586001129056902"><ele>29.0</ele><time>2026-04-06T12:33:36Z</time></trkpt><trkpt lat="43.22968899688907" lon="10.585710311912266"><ele>28.666666666666664</ele><time>2026-04-06T12:33:37Z</time></trkpt><trkpt lat="43.22965081351406" lon="10.585426128841105"><ele>28.333333333333336</ele><time>2026-04-06T12:33:38Z</time></trkpt><trkpt lat="43.22960987966494" lon="10.585142734798897"><ele>28.0</ele><time>2026-04-06T12:33:39Z</time></trkpt><trkpt lat="43.22956889529595" lon="10.584865007027359"><ele>28.0</ele><time>2026-04-06T12:33:40Z</time></trkpt><trkpt lat="43.22952745117783" lon="10.584590278483526"><ele>28.0</ele><time>2026-04-06T12:33:41Z</time></trkpt><trkpt lat="43.22948735852706" lon="10.584317703175367"><ele>28.0</ele><time>2026-04-06T12:33:42Z</time></trkpt><trkpt lat="43.22944942062026" lon="10.584047465230551"><ele>27.333333333333336</ele><time>2026-04-06T12:33:43Z</time></trkpt><trkpt lat="43.22941168538942" lon="10.583769296610253"><ele>26.666666666666664</ele><time>2026-04-06T12:33:44Z</time></trkpt><trkpt lat="43.22936992135444" lon="10.5834849229748"><ele>26.0</ele><time>2026-04-06T12:33:45Z</time></trkpt><trkpt lat="43.22932844862971" lon="10.583200303888288"><ele>26.0</ele><time>2026-04-06T12:33:46Z</time></trkpt><trkpt lat="43.22928823457784" lon="10.582920259840968"><ele>26.0</ele><time>2026-04-06T12:33:47Z</time></trkpt><trkpt lat="43.22924914603993" lon="10.58264024362468"><ele>26.0</ele><time>2026-04-06T12:33:48Z</time></trkpt><trkpt lat="43.229209936940684" lon="10.582363683159455"><ele>26.0</ele><time>2026-04-06T12:33:49Z</time></trkpt><trkpt lat="43.229169691284454" lon="10.58208557469467"><ele>26.0</ele><time>2026-04-06T12:33:50Z</time></trkpt><trkpt lat="43.22913241311143" lon="10.581806176075391"><ele>26.0</ele><time>2026-04-06T12:33:51Z</time></trkpt><trkpt lat="43.22909247005463" lon="10.58153045132331"><ele>26.0</ele><time>2026-04-06T12:33:52Z</time></trkpt><trkpt lat="43.22905324303962" lon="10.581255641270607"><ele>26.0</ele><time>2026-04-06T12:33:53Z</time></trkpt><trkpt lat="43.22900987410009" lon="10.580973413528461"><ele>26.0</ele><time>2026-04-06T12:33:54Z</time></trkpt><trkpt lat="43.228966074498516" lon="10.58067760427978"><ele>24.666666666666664</ele><time>2026-04-06T12:33:55Z</time></trkpt><trkpt lat="43.22892108011379" lon="10.580374186991001"><ele>23.333333333333332</ele><time>2026-04-06T12:33:56Z</time></trkpt><trkpt lat="43.228880269875845" lon="10.580076354324618"><ele>22.0</ele><time>2026-04-06T12:33:57Z</time></trkpt><trkpt lat="43.22883953404794" lon="10.579786715280884"><ele>22.0</ele><time>2026-04-06T12:33:58Z</time></trkpt><trkpt lat="43.22879798350801" lon="10.579499449624509"><ele>22.0</ele><time>2026-04-06T12:33:59Z</time></trkpt><trkpt lat="43.22875818770415" lon="10.579221488848626"><ele>22.0</ele><time>2026-04-06T12:34:00Z</time></trkpt><trkpt lat="43.22871738191195" lon="10.578947314135632"><ele>22.0</ele><time>2026-04-06T12:34:01Z</time></trkpt><trkpt lat="43.22867963001722" lon="10.578667847501727"><ele>22.0</ele><time>2026-04-06T12:34:02Z</time></trkpt><trkpt lat="43.228640523170455" lon="10.578391106567292"><ele>22.0</ele><time>2026-04-06T12:34:03Z</time></trkpt><trkpt lat="43.22860053203446" lon="10.578119685527161"><ele>22.333333333333332</ele><time>2026-04-06T12:34:04Z</time></trkpt><trkpt lat="43.22855630207341" lon="10.57784185100752"><ele>22.666666666666668</ele><time>2026-04-06T12:34:05Z</time></trkpt><trkpt lat="43.228522783680106" lon="10.57756391668572"><ele>23.0</ele><time>2026-04-06T12:34:06Z</time></trkpt><trkpt lat="43.22848405774692" lon="10.577285978666191"><ele>23.0</ele><time>2026-04-06T12:34:07Z</time></trkpt><trkpt lat="43.22844205609174" lon="10.577001096457359"><ele>23.0</ele><time>2026-04-06T12:34:08Z</time></trkpt><trkpt lat="43.22840153858363" lon="10.576711648655966"><ele>23.0</ele><time>2026-04-06T12:34:09Z</time></trkpt><trkpt lat="43.22836133414307" lon="10.576415151027104"><ele>23.0</ele><time>2026-04-06T12:34:10Z</time></trkpt><trkpt lat="43.22832335054221" lon="10.576112301041757"><ele>23.0</ele><time>2026-04-06T12:34:11Z</time></trkpt><trkpt lat="43.2282844304808" lon="10.575823304534476"><ele>23.0</ele><time>2026-04-06T12:34:12Z</time></trkpt><trkpt lat="43.228245140991405" lon="10.57553700849339"><ele>22.666666666666668</ele><time>2026-04-06T12:34:13Z</time></trkpt><trkpt lat="43.228206484419516" lon="10.575253715491638"><ele>22.333333333333332</ele><time>2026-04-06T12:34:14Z</time></trkpt><trkpt lat="43.22816627467294" lon="10.574973678708325"><ele>22.0</ele><time>2026-04-06T12:34:15Z</time></trkpt><trkpt lat="43.22812606673573" lon="10.574697978345794"><ele>20.666666666666664</ele><time>2026-04-06T12:34:16Z</time></trkpt><trkpt lat="43.22808374266482" lon="10.574423242839561"><ele>19.333333333333332</ele><time>2026-04-06T12:34:17Z</time></trkpt><trkpt lat="43.22804275536059" lon="10.574148387168194"><ele>18.0</ele><time>2026-04-06T12:34:18Z</time></trkpt><trkpt lat="43.22800077015423" lon="10.573866509948692"><ele>18.666666666666668</ele><time>2026-04-06T12:34:19Z</time></trkpt><trkpt lat="43.227961164404256" lon="10.573586679859444"><ele>19.333333333333336</ele><time>2026-04-06T12:34:20Z</time></trkpt><trkpt lat="43.22792039285137" lon="10.573304020628488"><ele>20.0</ele><time>2026-04-06T12:34:21Z</time></trkpt><trkpt lat="43.227880055575596" lon="10.573017372341733"><ele>20.666666666666668</ele><time>2026-04-06T12:34:22Z</time></trkpt><trkpt lat="43.22783976562129" lon="10.572733437026562"><ele>21.333333333333332</ele><time>2026-04-06T12:34:23Z</time></trkpt><trkpt lat="43.22780035157548" lon="10.572448141866225"><ele>22.0</ele><time>2026-04-06T12:34:24Z</time></trkpt><trkpt lat="43.22775637588751" lon="10.572160551171303"><ele>21.0</ele><time>2026-04-06T12:34:25Z</time></trkpt><trkpt lat="43.22771218707836" lon="10.571869962505202"><ele>20.0</ele><time>2026-04-06T12:34:26Z</time></trkpt><trkpt lat="43.22767089688226" lon="10.571579926508601"><ele>19.0</ele><time>2026-04-06T12:34:27Z</time></trkpt><trkpt lat="43.227630988924176" lon="10.57129201439704"><ele>18.333333333333332</ele><time>2026-04-06T12:34:28Z</time></trkpt><trkpt lat="43.22759205032859" lon="10.571015404453822"><ele>17.666666666666668</ele><time>2026-04-06T12:34:29Z</time></trkpt><trkpt lat="43.22755244902132" lon="10.570735110427837"><ele>17.0</ele><time>2026-04-06T12:34:30Z</time></trkpt><trkpt lat="43.22751160628844" lon="10.570459321658536"><ele>16.666666666666668</ele><time>2026-04-06T12:34:31Z</time></trkpt><trkpt lat="43.227469460493325" lon="10.570182027134015"><ele>16.333333333333332</ele><time>2026-04-06T12:34:32Z</time></trkpt><trkpt lat="43.22742695226482" lon="10.56990334899755"><ele>16.0</ele><time>2026-04-06T12:34:33Z</time></trkpt><trkpt lat="43.22738934423093" lon="10.569619759480462"><ele>16.0</ele><time>2026-04-06T12:34:34Z</time></trkpt><trkpt lat="43.227349941362846" lon="10.569335701056946"><ele>16.0</ele><time>2026-04-06T12:34:35Z</time></trkpt><trkpt lat="43.22730915786153" lon="10.569053403297303"><ele>16.0</ele><time>2026-04-06T12:34:36Z</time></trkpt><trkpt lat="43.22727159416813" lon="10.568777019178397"><ele>15.0</ele><time>2026-04-06T12:34:37Z</time></trkpt><trkpt lat="43.22723147504993" lon="10.568498979173683"><ele>14.0</ele><time>2026-04-06T12:34:38Z</time></trkpt><trkpt lat="43.22718879691686" lon="10.56822301290905"><ele>13.0</ele><time>2026-04-06T12:34:39Z</time></trkpt><trkpt lat="43.22715288736945" lon="10.567954898141371"><ele>13.0</ele><time>2026-04-06T12:34:40Z</time></trkpt><trkpt lat="43.227115770647956" lon="10.567695455157786"><ele>13.0</ele><time>2026-04-06T12:34:41Z</time></trkpt><trkpt lat="43.227077676783" lon="10.567451097398225"><ele>13.0</ele><time>2026-04-06T12:34:42Z</time></trkpt><trkpt lat="43.227043371464745" lon="10.567215826043707"><ele>13.333333333333332</ele><time>2026-04-06T12:34:43Z</time></trkpt><trkpt lat="43.227008361638866" lon="10.566991909790438"><ele>13.666666666666668</ele><time>2026-04-06T12:34:44Z</time></trkpt><trkpt lat="43.22699352796821" lon="10.566774255780988"><ele>14.0</ele><time>2026-04-06T12:34:45Z</time></trkpt><trkpt lat="43.226964216131236" lon="10.566568399204211"><ele>14.0</ele><time>2026-04-06T12:34:46Z</time></trkpt><trkpt lat="43.22693626755458" lon="10.566372116685889"><ele>14.0</ele><time>2026-04-06T12:34:47Z</time></trkpt><trkpt lat="43.22690893196222" lon="10.566180139220583"><ele>14.0</ele><time>2026-04-06T12:34:48Z</time></trkpt><trkpt lat="43.22688164803409" lon="10.565988524585487"><ele>14.0</ele><time>2026-04-06T12:34:49Z</time></trkpt><trkpt lat="43.22685477107781" lon="10.5657997679842"><ele>13.25</ele><time>2026-04-06T12:34:50Z</time></trkpt><trkpt lat="43.226826070077394" lon="10.565598201475966"><ele>12.5</ele><time>2026-04-06T12:34:51Z</time></trkpt><trkpt lat="43.22679769024165" lon="10.565398890136358"><ele>11.75</ele><time>2026-04-06T12:34:52Z</time></trkpt><trkpt lat="43.22677040343813" lon="10.56520024936345"><ele>11.0</ele><time>2026-04-06T12:34:53Z</time></trkpt><trkpt lat="43.226743306027224" lon="10.565002685623877"><ele>11.0</ele><time>2026-04-06T12:34:54Z</time></trkpt><trkpt lat="43.22671687582263" lon="10.564809986413843"><ele>11.0</ele><time>2026-04-06T12:34:55Z</time></trkpt><trkpt lat="43.22669104886668" lon="10.564621687549387"><ele>11.0</ele><time>2026-04-06T12:34:56Z</time></trkpt><trkpt lat="43.2266648889497" lon="10.56443172508672"><ele>11.0</ele><time>2026-04-06T12:34:57Z</time></trkpt><trkpt lat="43.22663884118193" lon="10.564242439870654"><ele>11.0</ele><time>2026-04-06T12:34:58Z</time></trkpt><trkpt lat="43.226612558422495" lon="10.564052894327952"><ele>11.0</ele><time>2026-04-06T12:34:59Z</time></trkpt><trkpt lat="43.22658575161944" lon="10.563861934263647"><ele>11.0</ele><time>2026-04-06T12:35:00Z</time></trkpt><trkpt lat="43.226559400987256" lon="10.563674223706048"><ele>11.0</ele><time>2026-04-06T12:35:01Z</time></trkpt><trkpt lat="43.22653356707403" lon="10.563490194013685"><ele>11.0</ele><time>2026-04-06T12:35:02Z</time></trkpt><trkpt lat="43.22650870438814" lon="10.563313083017169"><ele>11.0</ele><time>2026-04-06T12:35:03Z</time></trkpt><trkpt lat="43.22648358133638" lon="10.563134773710285"><ele>11.0</ele><time>2026-04-06T12:35:04Z</time></trkpt><trkpt lat="43.2264438801974" lon="10.562969073982082"><ele>11.0</ele><time>2026-04-06T12:35:05Z</time></trkpt><trkpt lat="43.226420481779186" lon="10.562799589656647"><ele>10.5</ele><time>2026-04-06T12:35:06Z</time></trkpt><trkpt lat="43.22641142444676" lon="10.562623566984765"><ele>10.0</ele><time>2026-04-06T12:35:07Z</time></trkpt><trkpt lat="43.22638708484726" lon="10.562451129357946"><ele>9.5</ele><time>2026-04-06T12:35:08Z</time></trkpt><trkpt lat="43.22636239182825" lon="10.562277010658732"><ele>9.0</ele><time>2026-04-06T12:35:09Z</time></trkpt><trkpt lat="43.22633764896437" lon="10.562102292679107"><ele>8.75</ele><time>2026-04-06T12:35:10Z</time></trkpt><trkpt lat="43.22631262244358" lon="10.561925481422492"><ele>8.5</ele><time>2026-04-06T12:35:11Z</time></trkpt><trkpt lat="43.226287383397775" lon="10.561748145070197"><ele>8.25</ele><time>2026-04-06T12:35:12Z</time></trkpt><trkpt lat="43.22626319157682" lon="10.561578162387203"><ele>8.0</ele><time>2026-04-06T12:35:13Z</time></trkpt><trkpt lat="43.226223998751756" lon="10.561416029198568"><ele>8.0</ele><time>2026-04-06T12:35:14Z</time></trkpt><trkpt lat="43.22620987139484" lon="10.561253903683863"><ele>8.0</ele><time>2026-04-06T12:35:15Z</time></trkpt><trkpt lat="43.226188001312494" lon="10.56110525163565"><ele>8.0</ele><time>2026-04-06T12:35:16Z</time></trkpt><trkpt lat="43.22616556427371" lon="10.560947318126663"><ele>8.0</ele><time>2026-04-06T12:35:17Z</time></trkpt><trkpt lat="43.22614194757568" lon="10.560793250663968"><ele>8.0</ele><time>2026-04-06T12:35:18Z</time></trkpt><trkpt lat="43.226122041171465" lon="10.560650932147125"><ele>8.0</ele><time>2026-04-06T12:35:19Z</time></trkpt><trkpt lat="43.226103140019404" lon="10.56052497581469"><ele>8.0</ele><time>2026-04-06T12:35:20Z</time></trkpt><trkpt lat="43.226084906688044" lon="10.560412655114131"><ele>8.0</ele><time>2026-04-06T12:35:21Z</time></trkpt><trkpt lat="43.226070468876394" lon="10.560318174339958"><ele>8.0</ele><time>2026-04-06T12:35:22Z</time></trkpt><trkpt lat="43.22605828117967" lon="10.560165935029893"><ele>7.833333333333333</ele><time>2026-04-06T12:35:24Z</time></trkpt><trkpt lat="43.22604144850427" lon="10.560060857925208"><ele>7.666666666666666</ele><time>2026-04-06T12:35:26Z</time></trkpt><trkpt lat="43.2260865314535" lon="10.55993998261691"><ele>7.5</ele><time>2026-04-06T12:35:29Z</time></trkpt><trkpt lat="43.22615962909375" lon="10.559934437858761"><ele>7.333333333333334</ele><time>2026-04-06T12:35:30Z</time></trkpt><trkpt lat="43.226229272261996" lon="10.559881325902907"><ele>7.166666666666667</ele><time>2026-04-06T12:35:31Z</time></trkpt><trkpt lat="43.22630417902576" lon="10.559845452388195"><ele>7.0</ele><time>2026-04-06T12:35:32Z</time></trkpt><trkpt lat="43.22639611441675" lon="10.559793449495812"><ele>7.0</ele><time>2026-04-06T12:35:33Z</time></trkpt><trkpt lat="43.22650557991196" lon="10.559726482162695"><ele>7.0</ele><time>2026-04-06T12:35:34Z</time></trkpt><trkpt lat="43.22662864953297" lon="10.559653559924282"><ele>7.0</ele><time>2026-04-06T12:35:35Z</time></trkpt><trkpt lat="43.22675641071181" lon="10.559579571063633"><ele>7.0</ele><time>2026-04-06T12:35:36Z</time></trkpt><trkpt lat="43.22689615039277" lon="10.559496298791947"><ele>7.333333333333334</ele><time>2026-04-06T12:35:37Z</time></trkpt><trkpt lat="43.227052395970816" lon="10.55940274537808"><ele>7.666666666666666</ele><time>2026-04-06T12:35:38Z</time></trkpt><trkpt lat="43.2272172220465" lon="10.559309840641392"><ele>8.0</ele><time>2026-04-06T12:35:39Z</time></trkpt><trkpt lat="43.2273838199006" lon="10.559210919405531"><ele>7.333333333333333</ele><time>2026-04-06T12:35:40Z</time></trkpt><trkpt lat="43.2275525570782" lon="10.559106593060912"><ele>6.666666666666666</ele><time>2026-04-06T12:35:41Z</time></trkpt><trkpt lat="43.22771960032156" lon="10.559007466721988"><ele>6.0</ele><time>2026-04-06T12:35:42Z</time></trkpt><trkpt lat="43.227887441752245" lon="10.55890379659582"><ele>6.0</ele><time>2026-04-06T12:35:43Z</time></trkpt><trkpt lat="43.228054837516716" lon="10.558809573537147"><ele>6.0</ele><time>2026-04-06T12:35:44Z</time></trkpt><trkpt lat="43.2282271265966" lon="10.558709728239036"><ele>6.0</ele><time>2026-04-06T12:35:45Z</time></trkpt><trkpt lat="43.228396778595105" lon="10.558616105517233"><ele>6.0</ele><time>2026-04-06T12:35:46Z</time></trkpt><trkpt lat="43.22855785921106" lon="10.558523844072239"><ele>6.0</ele><time>2026-04-06T12:35:47Z</time></trkpt><trkpt lat="43.228714175620894" lon="10.558437674336902"><ele>6.0</ele><time>2026-04-06T12:35:48Z</time></trkpt><trkpt lat="43.22887239158226" lon="10.558355654212752"><ele>6.666666666666666</ele><time>2026-04-06T12:35:49Z</time></trkpt><trkpt lat="43.229028726270464" lon="10.558281303948588"><ele>7.333333333333333</ele><time>2026-04-06T12:35:50Z</time></trkpt><trkpt lat="43.22918943088641" lon="10.55821355369829"><ele>8.0</ele><time>2026-04-06T12:35:51Z</time></trkpt><trkpt lat="43.22935142328459" lon="10.558139869387519"><ele>8.0</ele><time>2026-04-06T12:35:52Z</time></trkpt><trkpt lat="43.22951662222161" lon="10.558074589686589"><ele>8.0</ele><time>2026-04-06T12:35:53Z</time></trkpt><trkpt lat="43.229686076825395" lon="10.558004477393721"><ele>8.0</ele><time>2026-04-06T12:35:54Z</time></trkpt><trkpt lat="43.2298684042282" lon="10.557933350843859"><ele>7.666666666666666</ele><time>2026-04-06T12:35:55Z</time></trkpt><trkpt lat="43.23004762946457" lon="10.557860632090419"><ele>7.333333333333334</ele><time>2026-04-06T12:35:56Z</time></trkpt><trkpt lat="43.23023096419781" lon="10.557788801162076"><ele>7.0</ele><time>2026-04-06T12:35:57Z</time></trkpt><trkpt lat="43.230420140842746" lon="10.557715370191458"><ele>7.0</ele><time>2026-04-06T12:35:58Z</time></trkpt><trkpt lat="43.2306088785267" lon="10.557636210192424"><ele>7.0</ele><time>2026-04-06T12:35:59Z</time></trkpt><trkpt lat="43.23079875609716" lon="10.557555244296067"><ele>7.0</ele><time>2026-04-06T12:36:00Z</time></trkpt><trkpt lat="43.23098930119077" lon="10.557480016326355"><ele>7.333333333333334</ele><time>2026-04-06T12:36:01Z</time></trkpt><trkpt lat="43.23117698986877" lon="10.55740439234554"><ele>7.666666666666666</ele><time>2026-04-06T12:36:02Z</time></trkpt><trkpt lat="43.23135956621844" lon="10.557326854193116"><ele>8.0</ele><time>2026-04-06T12:36:03Z</time></trkpt><trkpt lat="43.231535386919035" lon="10.557257611801171"><ele>8.666666666666666</ele><time>2026-04-06T12:36:04Z</time></trkpt><trkpt lat="43.23169595630097" lon="10.557190208221282"><ele>9.333333333333334</ele><time>2026-04-06T12:36:05Z</time></trkpt><trkpt lat="43.2318616773333" lon="10.557118853902674"><ele>10.0</ele><time>2026-04-06T12:36:06Z</time></trkpt><trkpt lat="43.23202831443219" lon="10.557052277404944"><ele>9.666666666666668</ele><time>2026-04-06T12:36:07Z</time></trkpt><trkpt lat="43.23218783816958" lon="10.556991274690542"><ele>9.333333333333334</ele><time>2026-04-06T12:36:08Z</time></trkpt><trkpt lat="43.2323347031605" lon="10.556934453717949"><ele>9.0</ele><time>2026-04-06T12:36:09Z</time></trkpt><trkpt lat="43.2324738857861" lon="10.556876596167474"><ele>8.75</ele><time>2026-04-06T12:36:10Z</time></trkpt><trkpt lat="43.23260336765128" lon="10.556814935338416"><ele>8.5</ele><time>2026-04-06T12:36:11Z</time></trkpt><trkpt lat="43.232730840664956" lon="10.556749045048164"><ele>8.25</ele><time>2026-04-06T12:36:12Z</time></trkpt><trkpt lat="43.23284789451673" lon="10.556656998182754"><ele>8.0</ele><time>2026-04-06T12:36:13Z</time></trkpt><trkpt lat="43.232973027644356" lon="10.556522543741785"><ele>8.0</ele><time>2026-04-06T12:36:14Z</time></trkpt><trkpt lat="43.23310188586177" lon="10.556361662970906"><ele>8.0</ele><time>2026-04-06T12:36:15Z</time></trkpt><trkpt lat="43.233210101496354" lon="10.556211995932486"><ele>8.0</ele><time>2026-04-06T12:36:16Z</time></trkpt><trkpt lat="43.23332748426966" lon="10.556099260285148"><ele>8.666666666666666</ele><time>2026-04-06T12:36:17Z</time></trkpt><trkpt lat="43.23343495780926" lon="10.555971355322345"><ele>9.333333333333334</ele><time>2026-04-06T12:36:18Z</time></trkpt><trkpt lat="43.23354485854631" lon="10.555844510646653"><ele>10.0</ele><time>2026-04-06T12:36:19Z</time></trkpt><trkpt lat="43.23368481536934" lon="10.555716467402005"><ele>10.0</ele><time>2026-04-06T12:36:20Z</time></trkpt><trkpt lat="43.23379909756875" lon="10.555673810582219"><ele>10.0</ele><time>2026-04-06T12:36:21Z</time></trkpt><trkpt lat="43.23394725667108" lon="10.555611900866255"><ele>10.0</ele><time>2026-04-06T12:36:22Z</time></trkpt><trkpt lat="43.23410754405844" lon="10.55557865737307"><ele>10.0</ele><time>2026-04-06T12:36:23Z</time></trkpt><trkpt lat="43.23427811300132" lon="10.5555538882972"><ele>9.333333333333334</ele><time>2026-04-06T12:36:24Z</time></trkpt><trkpt lat="43.2344564731937" lon="10.555541187465144"><ele>8.666666666666666</ele><time>2026-04-06T12:36:25Z</time></trkpt><trkpt lat="43.234631972035054" lon="10.555533479143783"><ele>8.0</ele><time>2026-04-06T12:36:26Z</time></trkpt><trkpt lat="43.23479686669885" lon="10.555543328790115"><ele>7.333333333333333</ele><time>2026-04-06T12:36:27Z</time></trkpt><trkpt lat="43.23496193315357" lon="10.555560445989157"><ele>6.666666666666666</ele><time>2026-04-06T12:36:28Z</time></trkpt><trkpt lat="43.23512767417539" lon="10.55557953714556"><ele>6.0</ele><time>2026-04-06T12:36:29Z</time></trkpt><trkpt lat="43.23529397809233" lon="10.555588549682952"><ele>6.0</ele><time>2026-04-06T12:36:30Z</time></trkpt><trkpt lat="43.23545901340642" lon="10.555581784746941"><ele>6.0</ele><time>2026-04-06T12:36:31Z</time></trkpt><trkpt lat="43.23562587333486" lon="10.555556342163582"><ele>6.0</ele><time>2026-04-06T12:36:32Z</time></trkpt><trkpt lat="43.235797629487294" lon="10.555512913360614"><ele>6.333333333333334</ele><time>2026-04-06T12:36:33Z</time></trkpt><trkpt lat="43.235975336555796" lon="10.555443141001396"><ele>6.666666666666667</ele><time>2026-04-06T12:36:34Z</time></trkpt><trkpt lat="43.23615119424236" lon="10.555371524434575"><ele>7.0</ele><time>2026-04-06T12:36:35Z</time></trkpt><trkpt lat="43.236331806242625" lon="10.555297615449442"><ele>7.0</ele><time>2026-04-06T12:36:36Z</time></trkpt><trkpt lat="43.236510874240594" lon="10.555225987813804"><ele>7.0</ele><time>2026-04-06T12:36:37Z</time></trkpt><trkpt lat="43.23667735928923" lon="10.555159514519824"><ele>7.0</ele><time>2026-04-06T12:36:38Z</time></trkpt><trkpt lat="43.236830250273" lon="10.555094516999795"><ele>7.0</ele><time>2026-04-06T12:36:39Z</time></trkpt><trkpt lat="43.236973713400516" lon="10.555034656307708"><ele>7.0</ele><time>2026-04-06T12:36:40Z</time></trkpt><trkpt lat="43.23711850395263" lon="10.554976916463893"><ele>7.0</ele><time>2026-04-06T12:36:41Z</time></trkpt><trkpt lat="43.23726604788727" lon="10.55491164551175"><ele>7.333333333333334</ele><time>2026-04-06T12:36:42Z</time></trkpt><trkpt lat="43.237411254070906" lon="10.554829693128232"><ele>7.666666666666666</ele><time>2026-04-06T12:36:43Z</time></trkpt><trkpt lat="43.23755957607637" lon="10.554734948309173"><ele>8.0</ele><time>2026-04-06T12:36:44Z</time></trkpt><trkpt lat="43.23771043887201" lon="10.554622101881929"><ele>7.666666666666666</ele><time>2026-04-06T12:36:45Z</time></trkpt><trkpt lat="43.237857025568665" lon="10.554503617305512"><ele>7.333333333333334</ele><time>2026-04-06T12:36:46Z</time></trkpt><trkpt lat="43.23799988223717" lon="10.554387007274173"><ele>7.0</ele><time>2026-04-06T12:36:47Z</time></trkpt><trkpt lat="43.23814573309956" lon="10.554264544235265"><ele>6.666666666666667</ele><time>2026-04-06T12:36:48Z</time></trkpt><trkpt lat="43.23828684554438" lon="10.554146421607497"><ele>6.333333333333334</ele><time>2026-04-06T12:36:49Z</time></trkpt><trkpt lat="43.23843330815641" lon="10.554034708459545"><ele>6.0</ele><time>2026-04-06T12:36:50Z</time></trkpt><trkpt lat="43.238576386152374" lon="10.553922081421403"><ele>6.0</ele><time>2026-04-06T12:36:51Z</time></trkpt><trkpt lat="43.23871774049129" lon="10.55381078476132"><ele>6.0</ele><time>2026-04-06T12:36:52Z</time></trkpt><trkpt lat="43.2388596534319" lon="10.553699995315073"><ele>6.0</ele><time>2026-04-06T12:36:53Z</time></trkpt><trkpt lat="43.23899864611033" lon="10.553592130626281"><ele>5.333333333333333</ele><time>2026-04-06T12:36:54Z</time></trkpt><trkpt lat="43.23913995502675" lon="10.553488290742715"><ele>4.666666666666666</ele><time>2026-04-06T12:36:55Z</time></trkpt><trkpt lat="43.2392897799563" lon="10.553398063380953"><ele>4.0</ele><time>2026-04-06T12:36:56Z</time></trkpt><trkpt lat="43.23944489881174" lon="10.553319704877117"><ele>4.0</ele><time>2026-04-06T12:36:57Z</time></trkpt><trkpt lat="43.23960420647502" lon="10.553253120216796"><ele>4.0</ele><time>2026-04-06T12:36:58Z</time></trkpt><trkpt lat="43.239764059203594" lon="10.553195221066831"><ele>4.0</ele><time>2026-04-06T12:36:59Z</time></trkpt><trkpt lat="43.23992546539537" lon="10.553132610325141"><ele>4.333333333333333</ele><time>2026-04-06T12:37:00Z</time></trkpt><trkpt lat="43.24009157276073" lon="10.553071912750092"><ele>4.666666666666667</ele><time>2026-04-06T12:37:01Z</time></trkpt><trkpt lat="43.24025799363579" lon="10.5530115164172"><ele>5.0</ele><time>2026-04-06T12:37:02Z</time></trkpt><trkpt lat="43.24042601413562" lon="10.552947115259876"><ele>5.0</ele><time>2026-04-06T12:37:03Z</time></trkpt><trkpt lat="43.240593887689684" lon="10.552885180192426"><ele>5.0</ele><time>2026-04-06T12:37:04Z</time></trkpt><trkpt lat="43.24076256078023" lon="10.55282614807065"><ele>5.0</ele><time>2026-04-06T12:37:05Z</time></trkpt><trkpt lat="43.24093122934443" lon="10.552770074785332"><ele>5.666666666666667</ele><time>2026-04-06T12:37:06Z</time></trkpt><trkpt lat="43.241096438704766" lon="10.552710312793405"><ele>6.333333333333334</ele><time>2026-04-06T12:37:07Z</time></trkpt><trkpt lat="43.241257911180185" lon="10.552651481214573"><ele>7.0</ele><time>2026-04-06T12:37:08Z</time></trkpt><trkpt lat="43.241413677427445" lon="10.552600280659696"><ele>7.333333333333334</ele><time>2026-04-06T12:37:09Z</time></trkpt><trkpt lat="43.24156891784499" lon="10.552556771654325"><ele>7.666666666666666</ele><time>2026-04-06T12:37:10Z</time></trkpt><trkpt lat="43.241728937190864" lon="10.552533308982229"><ele>8.0</ele><time>2026-04-06T12:37:11Z</time></trkpt><trkpt lat="43.24189465527532" lon="10.552530330458469"><ele>8.0</ele><time>2026-04-06T12:37:12Z</time></trkpt><trkpt lat="43.242068563938844" lon="10.552542437642787"><ele>8.0</ele><time>2026-04-06T12:37:13Z</time></trkpt><trkpt lat="43.242246035360004" lon="10.552560162958628"><ele>8.0</ele><time>2026-04-06T12:37:14Z</time></trkpt><trkpt lat="43.24242674399989" lon="10.552586994245507"><ele>8.0</ele><time>2026-04-06T12:37:15Z</time></trkpt><trkpt lat="43.242610692301874" lon="10.55261996951021"><ele>8.0</ele><time>2026-04-06T12:37:16Z</time></trkpt><trkpt lat="43.242791508845485" lon="10.552659459751018"><ele>8.0</ele><time>2026-04-06T12:37:17Z</time></trkpt><trkpt lat="43.24297037265882" lon="10.552692226945158"><ele>8.0</ele><time>2026-04-06T12:37:18Z</time></trkpt><trkpt lat="43.2431450886644" lon="10.552712514420733"><ele>8.0</ele><time>2026-04-06T12:37:19Z</time></trkpt><trkpt lat="43.24331510036429" lon="10.552725314992372"><ele>8.0</ele><time>2026-04-06T12:37:20Z</time></trkpt><trkpt lat="43.24348878166549" lon="10.552713569178925"><ele>8.0</ele><time>2026-04-06T12:37:21Z</time></trkpt><trkpt lat="43.24366732499176" lon="10.552679405284861"><ele>8.0</ele><time>2026-04-06T12:37:22Z</time></trkpt><trkpt lat="43.243856043094915" lon="10.55262682933677"><ele>8.0</ele><time>2026-04-06T12:37:23Z</time></trkpt><trkpt lat="43.24405464412502" lon="10.552569360046503"><ele>7.666666666666666</ele><time>2026-04-06T12:37:24Z</time></trkpt><trkpt lat="43.24425919103601" lon="10.552522837586384"><ele>7.333333333333334</ele><time>2026-04-06T12:37:25Z</time></trkpt><trkpt lat="43.24445018056666" lon="10.552479056115427"><ele>7.0</ele><time>2026-04-06T12:37:26Z</time></trkpt><trkpt lat="43.244624585269165" lon="10.552436667732517"><ele>7.0</ele><time>2026-04-06T12:37:27Z</time></trkpt><trkpt lat="43.24479402783347" lon="10.552393213581286"><ele>7.0</ele><time>2026-04-06T12:37:28Z</time></trkpt><trkpt lat="43.244963103540265" lon="10.552344426568158"><ele>7.0</ele><time>2026-04-06T12:37:29Z</time></trkpt><trkpt lat="43.24513775215039" lon="10.552292902314743"><ele>7.0</ele><time>2026-04-06T12:37:30Z</time></trkpt><trkpt lat="43.2453156403729" lon="10.552231426865863"><ele>7.0</ele><time>2026-04-06T12:37:31Z</time></trkpt><trkpt lat="43.24548546404042" lon="10.552167123552655"><ele>7.0</ele><time>2026-04-06T12:37:32Z</time></trkpt><trkpt lat="43.24566257019949" lon="10.552097412896464"><ele>7.666666666666667</ele><time>2026-04-06T12:37:33Z</time></trkpt><trkpt lat="43.245836770752106" lon="10.552020747603063"><ele>8.333333333333334</ele><time>2026-04-06T12:37:34Z</time></trkpt><trkpt lat="43.24600654634031" lon="10.551937098905036"><ele>9.0</ele><time>2026-04-06T12:37:35Z</time></trkpt><trkpt lat="43.246170189019665" lon="10.55185276187141"><ele>9.0</ele><time>2026-04-06T12:37:36Z</time></trkpt><trkpt lat="43.24631937886062" lon="10.551772094649191"><ele>9.0</ele><time>2026-04-06T12:37:37Z</time></trkpt><trkpt lat="43.24646934232956" lon="10.551695979941286"><ele>9.0</ele><time>2026-04-06T12:37:38Z</time></trkpt><trkpt lat="43.24662715033998" lon="10.551625115400638"><ele>9.0</ele><time>2026-04-06T12:37:39Z</time></trkpt><trkpt lat="43.24678238755942" lon="10.551542380975144"><ele>9.0</ele><time>2026-04-06T12:37:40Z</time></trkpt><trkpt lat="43.24694183107624" lon="10.551463303059181"><ele>9.0</ele><time>2026-04-06T12:37:41Z</time></trkpt><trkpt lat="43.24709603896916" lon="10.551391180151105"><ele>9.0</ele><time>2026-04-06T12:37:42Z</time></trkpt><trkpt lat="43.24724384965451" lon="10.551321100101584"><ele>9.0</ele><time>2026-04-06T12:37:43Z</time></trkpt><trkpt lat="43.24738989967501" lon="10.551250412687535"><ele>9.0</ele><time>2026-04-06T12:37:44Z</time></trkpt><trkpt lat="43.24753994071311" lon="10.551181188476722"><ele>9.333333333333334</ele><time>2026-04-06T12:37:45Z</time></trkpt><trkpt lat="43.24769099082853" lon="10.55111597603362"><ele>9.666666666666668</ele><time>2026-04-06T12:37:46Z</time></trkpt><trkpt lat="43.247838020031125" lon="10.551061146254794"><ele>10.0</ele><time>2026-04-06T12:37:47Z</time></trkpt><trkpt lat="43.24797695249103" lon="10.55101014157381"><ele>10.0</ele><time>2026-04-06T12:37:48Z</time></trkpt><trkpt lat="43.2481064800172" lon="10.550962606322535"><ele>10.0</ele><time>2026-04-06T12:37:49Z</time></trkpt><trkpt lat="43.248236195227165" lon="10.550915998874043"><ele>10.0</ele><time>2026-04-06T12:37:50Z</time></trkpt><trkpt lat="43.248365721242884" lon="10.55087303217126"><ele>10.0</ele><time>2026-04-06T12:37:51Z</time></trkpt><trkpt lat="43.24848822627331" lon="10.550834650976526"><ele>9.8</ele><time>2026-04-06T12:37:52Z</time></trkpt><trkpt lat="43.24859974176185" lon="10.55080185034981"><ele>9.6</ele><time>2026-04-06T12:37:53Z</time></trkpt><trkpt lat="43.248704713312584" lon="10.550779730344402"><ele>9.4</ele><time>2026-04-06T12:37:54Z</time></trkpt><trkpt lat="43.2488128621109" lon="10.550774203969462"><ele>9.2</ele><time>2026-04-06T12:37:55Z</time></trkpt><trkpt lat="43.24893025308203" lon="10.550781210369426"><ele>9.0</ele><time>2026-04-06T12:37:56Z</time></trkpt><trkpt lat="43.249052195270835" lon="10.550783039049831"><ele>9.0</ele><time>2026-04-06T12:37:57Z</time></trkpt><trkpt lat="43.249164545770824" lon="10.550762199592947"><ele>9.0</ele><time>2026-04-06T12:37:58Z</time></trkpt><trkpt lat="43.249263985725875" lon="10.550723106009507"><ele>9.0</ele><time>2026-04-06T12:37:59Z</time></trkpt><trkpt lat="43.24936999380951" lon="10.550653575473506"><ele>9.0</ele><time>2026-04-06T12:38:00Z</time></trkpt><trkpt lat="43.24948364193443" lon="10.550564891029868"><ele>9.0</ele><time>2026-04-06T12:38:01Z</time></trkpt><trkpt lat="43.249614035439045" lon="10.550485203134116"><ele>9.0</ele><time>2026-04-06T12:38:02Z</time></trkpt><trkpt lat="43.2497598624538" lon="10.550422531537382"><ele>9.0</ele><time>2026-04-06T12:38:03Z</time></trkpt><trkpt lat="43.249929559826214" lon="10.550368037645578"><ele>8.333333333333334</ele><time>2026-04-06T12:38:04Z</time></trkpt><trkpt lat="43.25009858987623" lon="10.550314245366533"><ele>7.666666666666667</ele><time>2026-04-06T12:38:05Z</time></trkpt><trkpt lat="43.250260861514946" lon="10.550262475114994"><ele>7.0</ele><time>2026-04-06T12:38:06Z</time></trkpt><trkpt lat="43.250410378917955" lon="10.550209207160567"><ele>7.0</ele><time>2026-04-06T12:38:07Z</time></trkpt><trkpt lat="43.25055474970685" lon="10.550154356303338"><ele>7.0</ele><time>2026-04-06T12:38:08Z</time></trkpt><trkpt lat="43.250702241112386" lon="10.550096599912775"><ele>7.0</ele><time>2026-04-06T12:38:09Z</time></trkpt><trkpt lat="43.25084802923353" lon="10.550040078312227"><ele>7.333333333333334</ele><time>2026-04-06T12:38:10Z</time></trkpt><trkpt lat="43.251009097646126" lon="10.549972901819944"><ele>7.666666666666666</ele><time>2026-04-06T12:38:11Z</time></trkpt><trkpt lat="43.25115402066684" lon="10.549929394209107"><ele>8.0</ele><time>2026-04-06T12:38:12Z</time></trkpt><trkpt lat="43.251303481953926" lon="10.549867820351464"><ele>8.0</ele><time>2026-04-06T12:38:13Z</time></trkpt><trkpt lat="43.2514487461257" lon="10.549811674777127"><ele>8.0</ele><time>2026-04-06T12:38:14Z</time></trkpt><trkpt lat="43.251602076649256" lon="10.549746665226694"><ele>8.0</ele><time>2026-04-06T12:38:15Z</time></trkpt><trkpt lat="43.25177310869154" lon="10.549682714825833"><ele>7.333333333333333</ele><time>2026-04-06T12:38:16Z</time></trkpt><trkpt lat="43.251953270461314" lon="10.549614804942784"><ele>6.666666666666666</ele><time>2026-04-06T12:38:17Z</time></trkpt><trkpt lat="43.25214338982348" lon="10.549539464032433"><ele>6.0</ele><time>2026-04-06T12:38:18Z</time></trkpt><trkpt lat="43.25234283159312" lon="10.549462149310662"><ele>5.666666666666667</ele><time>2026-04-06T12:38:19Z</time></trkpt><trkpt lat="43.25254948530844" lon="10.549383241573434"><ele>5.333333333333334</ele><time>2026-04-06T12:38:20Z</time></trkpt><trkpt lat="43.25275351176282" lon="10.549304931445459"><ele>5.0</ele><time>2026-04-06T12:38:21Z</time></trkpt><trkpt lat="43.252956816289085" lon="10.549228738252447"><ele>5.333333333333334</ele><time>2026-04-06T12:38:22Z</time></trkpt><trkpt lat="43.25315541073356" lon="10.549143261717285"><ele>5.666666666666667</ele><time>2026-04-06T12:38:23Z</time></trkpt><trkpt lat="43.2533564730854" lon="10.549042436724525"><ele>6.0</ele><time>2026-04-06T12:38:24Z</time></trkpt><trkpt lat="43.253564725443816" lon="10.54893663606254"><ele>6.0</ele><time>2026-04-06T12:38:25Z</time></trkpt><trkpt lat="43.253770965394295" lon="10.548828465286741"><ele>6.0</ele><time>2026-04-06T12:38:26Z</time></trkpt><trkpt lat="43.253960155985105" lon="10.548726645989554"><ele>6.0</ele><time>2026-04-06T12:38:27Z</time></trkpt><trkpt lat="43.25415343395825" lon="10.548635271671959"><ele>6.0</ele><time>2026-04-06T12:38:28Z</time></trkpt><trkpt lat="43.254346664129336" lon="10.548544999518105"><ele>6.0</ele><time>2026-04-06T12:38:29Z</time></trkpt><trkpt lat="43.254544362247586" lon="10.54846747244984"><ele>6.0</ele><time>2026-04-06T12:38:30Z</time></trkpt><trkpt lat="43.25474524290816" lon="10.5483995918511"><ele>6.333333333333334</ele><time>2026-04-06T12:38:31Z</time></trkpt><trkpt lat="43.25494780239135" lon="10.548336296432543"><ele>6.666666666666667</ele><time>2026-04-06T12:38:32Z</time></trkpt><trkpt lat="43.25514995872415" lon="10.54826889875311"><ele>7.0</ele><time>2026-04-06T12:38:33Z</time></trkpt><trkpt lat="43.255355351758446" lon="10.548192219227602"><ele>7.0</ele><time>2026-04-06T12:38:34Z</time></trkpt><trkpt lat="43.25555555130787" lon="10.548124372859698"><ele>7.0</ele><time>2026-04-06T12:38:35Z</time></trkpt><trkpt lat="43.25575704654212" lon="10.548047470563109"><ele>7.0</ele><time>2026-04-06T12:38:36Z</time></trkpt><trkpt lat="43.255960495823" lon="10.547976073559742"><ele>6.333333333333334</ele><time>2026-04-06T12:38:37Z</time></trkpt><trkpt lat="43.25616170073637" lon="10.54792025975005"><ele>5.666666666666667</ele><time>2026-04-06T12:38:38Z</time></trkpt><trkpt lat="43.25637026668801" lon="10.547878362370511"><ele>5.0</ele><time>2026-04-06T12:38:39Z</time></trkpt><trkpt lat="43.25658443771499" lon="10.547851159975686"><ele>5.0</ele><time>2026-04-06T12:38:40Z</time></trkpt><trkpt lat="43.256800966412406" lon="10.547823435668667"><ele>5.0</ele><time>2026-04-06T12:38:41Z</time></trkpt><trkpt lat="43.257011622296076" lon="10.547794523529321"><ele>5.0</ele><time>2026-04-06T12:38:42Z</time></trkpt><trkpt lat="43.25721146898339" lon="10.547763135614945"><ele>5.333333333333334</ele><time>2026-04-06T12:38:43Z</time></trkpt><trkpt lat="43.257401822364265" lon="10.5477207072732"><ele>5.666666666666667</ele><time>2026-04-06T12:38:44Z</time></trkpt><trkpt lat="43.25759015992333" lon="10.547658021467855"><ele>6.0</ele><time>2026-04-06T12:38:45Z</time></trkpt><trkpt lat="43.257777317930504" lon="10.5475781331331"><ele>6.0</ele><time>2026-04-06T12:38:46Z</time></trkpt><trkpt lat="43.257972803898355" lon="10.547491439719469"><ele>6.0</ele><time>2026-04-06T12:38:47Z</time></trkpt><trkpt lat="43.25816650614809" lon="10.547392597422592"><ele>6.0</ele><time>2026-04-06T12:38:48Z</time></trkpt><trkpt lat="43.258366221889446" lon="10.547293490164122"><ele>6.0</ele><time>2026-04-06T12:38:49Z</time></trkpt><trkpt lat="43.25856559855234" lon="10.547197560207014"><ele>6.0</ele><time>2026-04-06T12:38:50Z</time></trkpt><trkpt lat="43.25875890732792" lon="10.547104175077402"><ele>6.0</ele><time>2026-04-06T12:38:51Z</time></trkpt><trkpt lat="43.25894944087435" lon="10.547008800482633"><ele>6.0</ele><time>2026-04-06T12:38:52Z</time></trkpt><trkpt lat="43.259133815065326" lon="10.546916149381868"><ele>6.0</ele><time>2026-04-06T12:38:53Z</time></trkpt><trkpt lat="43.25931010935198" lon="10.54682259673902"><ele>6.0</ele><time>2026-04-06T12:38:54Z</time></trkpt><trkpt lat="43.259479868893344" lon="10.546735219798261"><ele>6.0</ele><time>2026-04-06T12:38:55Z</time></trkpt><trkpt lat="43.25964895947566" lon="10.546653285857403"><ele>6.0</ele><time>2026-04-06T12:38:56Z</time></trkpt><trkpt lat="43.25980878075366" lon="10.546583289804417"><ele>6.0</ele><time>2026-04-06T12:38:57Z</time></trkpt><trkpt lat="43.25995810562313" lon="10.54651987960512"><ele>6.333333333333334</ele><time>2026-04-06T12:38:58Z</time></trkpt><trkpt lat="43.260105008356874" lon="10.546466555878602"><ele>6.666666666666667</ele><time>2026-04-06T12:38:59Z</time></trkpt><trkpt lat="43.26026079890602" lon="10.546421140448313"><ele>7.0</ele><time>2026-04-06T12:39:00Z</time></trkpt><trkpt lat="43.260422906929456" lon="10.546386633482541"><ele>7.0</ele><time>2026-04-06T12:39:01Z</time></trkpt><trkpt lat="43.26059292702579" lon="10.546347873012865"><ele>7.0</ele><time>2026-04-06T12:39:02Z</time></trkpt><trkpt lat="43.26077194550411" lon="10.54631074615458"><ele>7.0</ele><time>2026-04-06T12:39:03Z</time></trkpt><trkpt lat="43.26095940945755" lon="10.546285082518452"><ele>7.0</ele><time>2026-04-06T12:39:04Z</time></trkpt><trkpt lat="43.26115305116109" lon="10.546268357342475"><ele>7.0</ele><time>2026-04-06T12:39:05Z</time></trkpt><trkpt lat="43.26134144628059" lon="10.54625621608933"><ele>7.0</ele><time>2026-04-06T12:39:06Z</time></trkpt><trkpt lat="43.26152672838572" lon="10.54624804122445"><ele>6.666666666666667</ele><time>2026-04-06T12:39:07Z</time></trkpt><trkpt lat="43.26169245228503" lon="10.546233754350956"><ele>6.333333333333334</ele><time>2026-04-06T12:39:08Z</time></trkpt><trkpt lat="43.26186380097712" lon="10.546219633850242"><ele>6.0</ele><time>2026-04-06T12:39:09Z</time></trkpt><trkpt lat="43.26204062632611" lon="10.546205773867838"><ele>6.0</ele><time>2026-04-06T12:39:10Z</time></trkpt><trkpt lat="43.262219762566545" lon="10.546168918282344"><ele>6.0</ele><time>2026-04-06T12:39:11Z</time></trkpt><trkpt lat="43.26240280056691" lon="10.546120791393585"><ele>6.0</ele><time>2026-04-06T12:39:12Z</time></trkpt><trkpt lat="43.26258900438173" lon="10.546058121486244"><ele>6.0</ele><time>2026-04-06T12:39:13Z</time></trkpt><trkpt lat="43.26278265638521" lon="10.545983059425325"><ele>6.0</ele><time>2026-04-06T12:39:14Z</time></trkpt><trkpt lat="43.2629820142109" lon="10.545906886849671"><ele>6.0</ele><time>2026-04-06T12:39:15Z</time></trkpt><trkpt lat="43.26318765097002" lon="10.545823507179962"><ele>6.333333333333334</ele><time>2026-04-06T12:39:16Z</time></trkpt><trkpt lat="43.263396370766294" lon="10.545733746190066"><ele>6.666666666666667</ele><time>2026-04-06T12:39:17Z</time></trkpt><trkpt lat="43.26360808951451" lon="10.54564468117852"><ele>7.0</ele><time>2026-04-06T12:39:18Z</time></trkpt><trkpt lat="43.26382452482623" lon="10.545550583364216"><ele>6.666666666666667</ele><time>2026-04-06T12:39:19Z</time></trkpt><trkpt lat="43.264041390221124" lon="10.545449229632489"><ele>6.333333333333334</ele><time>2026-04-06T12:39:20Z</time></trkpt><trkpt lat="43.26424515388149" lon="10.545350260352174"><ele>6.0</ele><time>2026-04-06T12:39:21Z</time></trkpt><trkpt lat="43.26443167751336" lon="10.54526221475753"><ele>6.0</ele><time>2026-04-06T12:39:22Z</time></trkpt><trkpt lat="43.264606977563524" lon="10.545182740351638"><ele>6.0</ele><time>2026-04-06T12:39:23Z</time></trkpt><trkpt lat="43.26477553029997" lon="10.545100481394181"><ele>6.0</ele><time>2026-04-06T12:39:24Z</time></trkpt><trkpt lat="43.264937299517285" lon="10.545009133778947"><ele>6.0</ele><time>2026-04-06T12:39:25Z</time></trkpt><trkpt lat="43.26510978783294" lon="10.544928431585081"><ele>6.0</ele><time>2026-04-06T12:39:26Z</time></trkpt><trkpt lat="43.26527128780795" lon="10.544807709449076"><ele>6.0</ele><time>2026-04-06T12:39:27Z</time></trkpt><trkpt lat="43.26543866320324" lon="10.544709432777447"><ele>6.0</ele><time>2026-04-06T12:39:28Z</time></trkpt><trkpt lat="43.26560280692022" lon="10.544613044648127"><ele>6.0</ele><time>2026-04-06T12:39:29Z</time></trkpt><trkpt lat="43.265763127153136" lon="10.544524236480445"><ele>6.0</ele><time>2026-04-06T12:39:30Z</time></trkpt><trkpt lat="43.265917366185136" lon="10.544434712373715"><ele>6.333333333333334</ele><time>2026-04-06T12:39:31Z</time></trkpt><trkpt lat="43.26606986099259" lon="10.544351580158288"><ele>6.666666666666667</ele><time>2026-04-06T12:39:32Z</time></trkpt><trkpt lat="43.266226132229924" lon="10.544276856883227"><ele>7.0</ele><time>2026-04-06T12:39:33Z</time></trkpt><trkpt lat="43.26639087532699" lon="10.544212111564251"><ele>7.333333333333334</ele><time>2026-04-06T12:39:34Z</time></trkpt><trkpt lat="43.266553656217816" lon="10.544154618258986"><ele>7.666666666666666</ele><time>2026-04-06T12:39:35Z</time></trkpt><trkpt lat="43.26670500134202" lon="10.544096592600173"><ele>8.0</ele><time>2026-04-06T12:39:36Z</time></trkpt><trkpt lat="43.2668562767601" lon="10.54403780515565"><ele>8.0</ele><time>2026-04-06T12:39:37Z</time></trkpt><trkpt lat="43.2670102624882" lon="10.543984612259125"><ele>8.0</ele><time>2026-04-06T12:39:38Z</time></trkpt><trkpt lat="43.26715620531176" lon="10.543941176799539"><ele>8.0</ele><time>2026-04-06T12:39:39Z</time></trkpt><trkpt lat="43.26729507260993" lon="10.543888210036016"><ele>8.25</ele><time>2026-04-06T12:39:40Z</time></trkpt><trkpt lat="43.267436029115494" lon="10.543835370401032"><ele>8.5</ele><time>2026-04-06T12:39:41Z</time></trkpt><trkpt lat="43.267571840574455" lon="10.543785238801078"><ele>8.75</ele><time>2026-04-06T12:39:42Z</time></trkpt><trkpt lat="43.267708731631515" lon="10.543736046400015"><ele>9.0</ele><time>2026-04-06T12:39:43Z</time></trkpt><trkpt lat="43.26784587318499" lon="10.54368691420046"><ele>9.25</ele><time>2026-04-06T12:39:44Z</time></trkpt><trkpt lat="43.267978851922805" lon="10.54363837335411"><ele>9.5</ele><time>2026-04-06T12:39:45Z</time></trkpt><trkpt lat="43.2681119367357" lon="10.543589715985975"><ele>9.75</ele><time>2026-04-06T12:39:46Z</time></trkpt><trkpt lat="43.268247550917884" lon="10.54353969240144"><ele>10.0</ele><time>2026-04-06T12:39:47Z</time></trkpt><trkpt lat="43.26838302659487" lon="10.543496946934683"><ele>10.0</ele><time>2026-04-06T12:39:48Z</time></trkpt><trkpt lat="43.26850809155697" lon="10.543460637520168"><ele>10.0</ele><time>2026-04-06T12:39:49Z</time></trkpt><trkpt lat="43.268626883256324" lon="10.54342362010069"><ele>10.0</ele><time>2026-04-06T12:39:50Z</time></trkpt><trkpt lat="43.26873606713735" lon="10.543380342854904"><ele>10.0</ele><time>2026-04-06T12:39:51Z</time></trkpt><trkpt lat="43.26884155403229" lon="10.543349828703937"><ele>9.75</ele><time>2026-04-06T12:39:52Z</time></trkpt><trkpt lat="43.268977112826946" lon="10.54329074604941"><ele>9.5</ele><time>2026-04-06T12:39:53Z</time></trkpt><trkpt lat="43.26908276211511" lon="10.54325204257652"><ele>9.25</ele><time>2026-04-06T12:39:54Z</time></trkpt><trkpt lat="43.26919542788777" lon="10.543215442694837"><ele>9.0</ele><time>2026-04-06T12:39:55Z</time></trkpt><trkpt lat="43.26931647204888" lon="10.543176897545765"><ele>9.0</ele><time>2026-04-06T12:39:56Z</time></trkpt><trkpt lat="43.26943357747583" lon="10.543141560570113"><ele>9.0</ele><time>2026-04-06T12:39:57Z</time></trkpt><trkpt lat="43.269545265091196" lon="10.543107463196263"><ele>9.0</ele><time>2026-04-06T12:39:58Z</time></trkpt><trkpt lat="43.26965161689019" lon="10.543068858645075"><ele>9.0</ele><time>2026-04-06T12:39:59Z</time></trkpt><trkpt lat="43.26975994300905" lon="10.543042679416386"><ele>9.0</ele><time>2026-04-06T12:40:00Z</time></trkpt><trkpt lat="43.26986879075393" lon="10.543015333008615"><ele>9.0</ele><time>2026-04-06T12:40:01Z</time></trkpt><trkpt lat="43.26997276398999" lon="10.542984972520033"><ele>9.0</ele><time>2026-04-06T12:40:02Z</time></trkpt><trkpt lat="43.27007950404423" lon="10.542951566593777"><ele>9.0</ele><time>2026-04-06T12:40:03Z</time></trkpt><trkpt lat="43.270189997640756" lon="10.542915536830193"><ele>9.0</ele><time>2026-04-06T12:40:04Z</time></trkpt><trkpt lat="43.270293814904676" lon="10.542881481921036"><ele>8.8</ele><time>2026-04-06T12:40:05Z</time></trkpt><trkpt lat="43.2703995588875" lon="10.542850696380494"><ele>8.600000000000001</ele><time>2026-04-06T12:40:06Z</time></trkpt><trkpt lat="43.270504712640026" lon="10.5428205272415"><ele>8.4</ele><time>2026-04-06T12:40:07Z</time></trkpt><trkpt lat="43.27060242231659" lon="10.5427967640844"><ele>8.200000000000001</ele><time>2026-04-06T12:40:08Z</time></trkpt><trkpt lat="43.27069839501912" lon="10.542760958431217"><ele>8.0</ele><time>2026-04-06T12:40:09Z</time></trkpt><trkpt lat="43.27079076069452" lon="10.54272931914301"><ele>7.833333333333333</ele><time>2026-04-06T12:40:10Z</time></trkpt><trkpt lat="43.27087418146142" lon="10.542700444229364"><ele>7.666666666666666</ele><time>2026-04-06T12:40:11Z</time></trkpt><trkpt lat="43.270949374626106" lon="10.54267162382678"><ele>7.5</ele><time>2026-04-06T12:40:12Z</time></trkpt><trkpt lat="43.27102246600549" lon="10.54264893219903"><ele>7.333333333333334</ele><time>2026-04-06T12:40:13Z</time></trkpt><trkpt lat="43.2710902306629" lon="10.542636487962683"><ele>7.166666666666667</ele><time>2026-04-06T12:40:14Z</time></trkpt><trkpt lat="43.27119706618676" lon="10.542579303989578"><ele>7.0</ele><time>2026-04-06T12:40:16Z</time></trkpt><trkpt lat="43.27125407640806" lon="10.54251672210231"><ele>7.0</ele><time>2026-04-06T12:40:18Z</time></trkpt><trkpt lat="43.271260022980584" lon="10.542368871414887"><ele>6.999999999999999</ele><time>2026-04-06T12:40:20Z</time></trkpt><trkpt lat="43.2711803701655" lon="10.54235468701675"><ele>6.999999999999999</ele><time>2026-04-06T12:40:22Z</time></trkpt><trkpt lat="43.27111851455081" lon="10.542307741667893"><ele>7.0</ele><time>2026-04-06T12:40:24Z</time></trkpt><trkpt lat="43.27101256235128" lon="10.542402678634012"><ele>7.0</ele><time>2026-04-06T12:40:26Z</time></trkpt><trkpt lat="43.27094875322447" lon="10.542423574223385"><ele>7.000000000000001</ele><time>2026-04-06T12:40:28Z</time></trkpt><trkpt lat="43.27096329874111" lon="10.542515128467379"><ele>7.0</ele><time>2026-04-06T12:40:31Z</time></trkpt><trkpt lat="43.27089947574952" lon="10.542442137922924"><ele>7.0</ele><time>2026-04-06T12:40:32Z</time></trkpt><trkpt lat="43.27104559848276" lon="10.542453160982278"><ele>7.0</ele><time>2026-04-06T12:40:34Z</time></trkpt><trkpt lat="43.2711157143097" lon="10.5424438951499"><ele>7.000000000000001</ele><time>2026-04-06T12:44:25Z</time></trkpt><trkpt lat="43.27104768662571" lon="10.542428517313963"><ele>7.0</ele><time>2026-04-06T12:46:08Z</time></trkpt><trkpt lat="43.27097046954225" lon="10.542413435564862"><ele>7.0</ele><time>2026-04-06T12:46:10Z</time></trkpt><trkpt lat="43.27090435452646" lon="10.542468158174437"><ele>7.0</ele><time>2026-04-06T12:46:13Z</time></trkpt><trkpt lat="43.27097703397193" lon="10.542519290439929"><ele>7.0</ele><time>2026-04-06T12:46:19Z</time></trkpt><trkpt lat="43.2710386505288" lon="10.542490866475307"><ele>7.0</ele><time>2026-04-06T12:46:21Z</time></trkpt><trkpt lat="43.27109621012189" lon="10.542445637860123"><ele>7.0</ele><time>2026-04-06T12:47:08Z</time></trkpt><trkpt lat="43.271172860741096" lon="10.542417160435237"><ele>7.0</ele><time>2026-04-06T12:47:14Z</time></trkpt><trkpt lat="43.271244551850515" lon="10.54242956707301"><ele>7.0</ele><time>2026-04-06T12:47:18Z</time></trkpt><trkpt lat="43.27129578487768" lon="10.542575126219775"><ele>7.0</ele><time>2026-04-06T12:47:30Z</time></trkpt><trkpt lat="43.27142935054159" lon="10.54254325225477"><ele>6.999999999999999</ele><time>2026-04-06T12:47:33Z</time></trkpt><trkpt lat="43.27149553372193" lon="10.542502735593002"><ele>6.999999999999999</ele><time>2026-04-06T12:47:34Z</time></trkpt><trkpt lat="43.27161277508907" lon="10.542464825190203"><ele>7.0</ele><time>2026-04-06T12:47:36Z</time></trkpt><trkpt lat="43.27168072168952" lon="10.542441603222871"><ele>7.0</ele><time>2026-04-06T12:47:37Z</time></trkpt><trkpt lat="43.27175347009714" lon="10.54241075643666"><ele>7.166666666666667</ele><time>2026-04-06T12:47:38Z</time></trkpt><trkpt lat="43.27182822443244" lon="10.542381948248826"><ele>7.333333333333334</ele><time>2026-04-06T12:47:39Z</time></trkpt><trkpt lat="43.271901592667206" lon="10.542358911194956"><ele>7.5</ele><time>2026-04-06T12:47:40Z</time></trkpt><trkpt lat="43.27198223572852" lon="10.542334474430186"><ele>7.666666666666666</ele><time>2026-04-06T12:47:41Z</time></trkpt><trkpt lat="43.27207153675962" lon="10.542314613188053"><ele>7.833333333333333</ele><time>2026-04-06T12:47:42Z</time></trkpt><trkpt lat="43.27216222565882" lon="10.542281265416216"><ele>8.0</ele><time>2026-04-06T12:47:43Z</time></trkpt><trkpt lat="43.27225318060936" lon="10.54224952451786"><ele>8.0</ele><time>2026-04-06T12:47:44Z</time></trkpt><trkpt lat="43.27234879125753" lon="10.542219298175649"><ele>8.0</ele><time>2026-04-06T12:47:45Z</time></trkpt><trkpt lat="43.27244406873077" lon="10.5421836680945"><ele>8.0</ele><time>2026-04-06T12:47:46Z</time></trkpt><trkpt lat="43.27254410931467" lon="10.542163443979456"><ele>8.0</ele><time>2026-04-06T12:47:47Z</time></trkpt><trkpt lat="43.272644827024855" lon="10.542124269222509"><ele>8.0</ele><time>2026-04-06T12:47:48Z</time></trkpt><trkpt lat="43.272747395142844" lon="10.542087580567618"><ele>8.0</ele><time>2026-04-06T12:47:49Z</time></trkpt><trkpt lat="43.272852769179316" lon="10.542052714513629"><ele>8.0</ele><time>2026-04-06T12:47:50Z</time></trkpt><trkpt lat="43.27295949018073" lon="10.542019335938342"><ele>8.0</ele><time>2026-04-06T12:47:51Z</time></trkpt><trkpt lat="43.27306576511551" lon="10.541985605758239"><ele>8.0</ele><time>2026-04-06T12:47:52Z</time></trkpt><trkpt lat="43.27317175375087" lon="10.541951576110815"><ele>8.0</ele><time>2026-04-06T12:47:53Z</time></trkpt><trkpt lat="43.273285227924646" lon="10.541921386821151"><ele>8.0</ele><time>2026-04-06T12:47:54Z</time></trkpt><trkpt lat="43.273398263826245" lon="10.541880925628533"><ele>8.0</ele><time>2026-04-06T12:47:55Z</time></trkpt><trkpt lat="43.273518493590196" lon="10.541845601612692"><ele>8.0</ele><time>2026-04-06T12:47:56Z</time></trkpt><trkpt lat="43.27363811270226" lon="10.54181071428326"><ele>8.0</ele><time>2026-04-06T12:47:57Z</time></trkpt><trkpt lat="43.27376127888537" lon="10.541772822907765"><ele>8.0</ele><time>2026-04-06T12:47:58Z</time></trkpt><trkpt lat="43.273883133700195" lon="10.541731543223795"><ele>8.0</ele><time>2026-04-06T12:47:59Z</time></trkpt><trkpt lat="43.274004161059665" lon="10.541689683488478"><ele>8.0</ele><time>2026-04-06T12:48:00Z</time></trkpt><trkpt lat="43.274121188017126" lon="10.541645235793721"><ele>8.0</ele><time>2026-04-06T12:48:01Z</time></trkpt><trkpt lat="43.2742403327396" lon="10.541610316350942"><ele>8.0</ele><time>2026-04-06T12:48:02Z</time></trkpt><trkpt lat="43.274353807092155" lon="10.541570085569392"><ele>8.0</ele><time>2026-04-06T12:48:03Z</time></trkpt><trkpt lat="43.27447277242995" lon="10.541531986815908"><ele>8.0</ele><time>2026-04-06T12:48:04Z</time></trkpt><trkpt lat="43.27458925007593" lon="10.54149325185369"><ele>8.0</ele><time>2026-04-06T12:48:05Z</time></trkpt><trkpt lat="43.2747063833262" lon="10.541457775483636"><ele>8.25</ele><time>2026-04-06T12:48:06Z</time></trkpt><trkpt lat="43.27482256927384" lon="10.541419218939792"><ele>8.5</ele><time>2026-04-06T12:48:07Z</time></trkpt><trkpt lat="43.27494217199851" lon="10.541377988566829"><ele>8.75</ele><time>2026-04-06T12:48:08Z</time></trkpt><trkpt lat="43.2750683197447" lon="10.541342723952054"><ele>9.0</ele><time>2026-04-06T12:48:09Z</time></trkpt><trkpt lat="43.27519978176668" lon="10.54130218209177"><ele>9.0</ele><time>2026-04-06T12:48:10Z</time></trkpt><trkpt lat="43.27533580581172" lon="10.541257077426305"><ele>9.0</ele><time>2026-04-06T12:48:11Z</time></trkpt><trkpt lat="43.27547421588225" lon="10.541208999354735"><ele>9.0</ele><time>2026-04-06T12:48:12Z</time></trkpt><trkpt lat="43.27562717200345" lon="10.541171117539264"><ele>9.0</ele><time>2026-04-06T12:48:13Z</time></trkpt><trkpt lat="43.275776171719855" lon="10.541123439935767"><ele>8.0</ele><time>2026-04-06T12:48:14Z</time></trkpt><trkpt lat="43.275923743747086" lon="10.541055415285529"><ele>7.0</ele><time>2026-04-06T12:48:15Z</time></trkpt><trkpt lat="43.27607420144304" lon="10.541010211565762"><ele>6.0</ele><time>2026-04-06T12:48:16Z</time></trkpt><trkpt lat="43.2762202832346" lon="10.540962476774984"><ele>6.0</ele><time>2026-04-06T12:48:17Z</time></trkpt><trkpt lat="43.27637058667177" lon="10.540915616894893"><ele>6.0</ele><time>2026-04-06T12:48:18Z</time></trkpt><trkpt lat="43.27651612565699" lon="10.540865268404602"><ele>6.0</ele><time>2026-04-06T12:48:19Z</time></trkpt><trkpt lat="43.27665984143278" lon="10.540814053225816"><ele>5.75</ele><time>2026-04-06T12:48:20Z</time></trkpt><trkpt lat="43.27679561485549" lon="10.54077484706353"><ele>5.5</ele><time>2026-04-06T12:48:21Z</time></trkpt><trkpt lat="43.276925662045" lon="10.540732551929032"><ele>5.25</ele><time>2026-04-06T12:48:22Z</time></trkpt><trkpt lat="43.277052821400986" lon="10.540696504372939"><ele>5.0</ele><time>2026-04-06T12:48:23Z</time></trkpt><trkpt lat="43.27717829187472" lon="10.540662059130847"><ele>5.25</ele><time>2026-04-06T12:48:24Z</time></trkpt><trkpt lat="43.277299111279625" lon="10.54062538371568"><ele>5.5</ele><time>2026-04-06T12:48:25Z</time></trkpt><trkpt lat="43.27742145068816" lon="10.540584259450837"><ele>5.75</ele><time>2026-04-06T12:48:26Z</time></trkpt><trkpt lat="43.27754751750699" lon="10.540543409453505"><ele>6.0</ele><time>2026-04-06T12:48:27Z</time></trkpt><trkpt lat="43.277671712254914" lon="10.540505372719393"><ele>6.0</ele><time>2026-04-06T12:48:28Z</time></trkpt><trkpt lat="43.27780207802247" lon="10.54047005470018"><ele>6.0</ele><time>2026-04-06T12:48:29Z</time></trkpt><trkpt lat="43.277930922330846" lon="10.540431145495033"><ele>6.0</ele><time>2026-04-06T12:48:30Z</time></trkpt><trkpt lat="43.278059743798025" lon="10.540390075195734"><ele>6.0</ele><time>2026-04-06T12:48:31Z</time></trkpt><trkpt lat="43.27818607380379" lon="10.540347911051159"><ele>6.25</ele><time>2026-04-06T12:48:32Z</time></trkpt><trkpt lat="43.278319977667984" lon="10.540297776313135"><ele>6.5</ele><time>2026-04-06T12:48:33Z</time></trkpt><trkpt lat="43.27844567179053" lon="10.540225541911417"><ele>6.75</ele><time>2026-04-06T12:48:34Z</time></trkpt><trkpt lat="43.27857023235454" lon="10.540144681128947"><ele>7.0</ele><time>2026-04-06T12:48:35Z</time></trkpt><trkpt lat="43.27869224439934" lon="10.540076082207303"><ele>7.0</ele><time>2026-04-06T12:48:36Z</time></trkpt><trkpt lat="43.27881938347044" lon="10.539993600090101"><ele>7.0</ele><time>2026-04-06T12:48:37Z</time></trkpt><trkpt lat="43.278949724993865" lon="10.539901671358228"><ele>7.0</ele><time>2026-04-06T12:48:38Z</time></trkpt><trkpt lat="43.27907372102531" lon="10.539788814113559"><ele>7.0</ele><time>2026-04-06T12:48:39Z</time></trkpt><trkpt lat="43.27920687108313" lon="10.53966844891168"><ele>7.0</ele><time>2026-04-06T12:48:40Z</time></trkpt><trkpt lat="43.27933416466072" lon="10.539564033231368"><ele>7.0</ele><time>2026-04-06T12:48:41Z</time></trkpt><trkpt lat="43.27945709332198" lon="10.53945465198284"><ele>7.0</ele><time>2026-04-06T12:48:42Z</time></trkpt><trkpt lat="43.279581821753524" lon="10.539348278211701"><ele>7.0</ele><time>2026-04-06T12:48:43Z</time></trkpt><trkpt lat="43.27970553928689" lon="10.539234915567212"><ele>6.666666666666667</ele><time>2026-04-06T12:48:44Z</time></trkpt><trkpt lat="43.27982876022381" lon="10.539111672370462"><ele>6.333333333333334</ele><time>2026-04-06T12:48:45Z</time></trkpt><trkpt lat="43.27995233193555" lon="10.538994752561184"><ele>6.0</ele><time>2026-04-06T12:48:46Z</time></trkpt><trkpt lat="43.280073663332495" lon="10.538874279806825"><ele>6.0</ele><time>2026-04-06T12:48:47Z</time></trkpt><trkpt lat="43.28019843566013" lon="10.538757049000656"><ele>6.0</ele><time>2026-04-06T12:48:48Z</time></trkpt><trkpt lat="43.28032344661905" lon="10.538633212996675"><ele>6.0</ele><time>2026-04-06T12:48:49Z</time></trkpt><trkpt lat="43.28043978751127" lon="10.538497038992134"><ele>5.666666666666667</ele><time>2026-04-06T12:48:50Z</time></trkpt><trkpt lat="43.280549021071366" lon="10.538346477911707"><ele>5.333333333333334</ele><time>2026-04-06T12:48:51Z</time></trkpt><trkpt lat="43.28065078241009" lon="10.538181608356119"><ele>5.0</ele><time>2026-04-06T12:48:52Z</time></trkpt><trkpt lat="43.28074631383396" lon="10.538002629469121"><ele>5.0</ele><time>2026-04-06T12:48:53Z</time></trkpt><trkpt lat="43.28084402412996" lon="10.537822618207906"><ele>5.0</ele><time>2026-04-06T12:48:54Z</time></trkpt><trkpt lat="43.28094316937743" lon="10.537637589364007"><ele>5.0</ele><time>2026-04-06T12:48:55Z</time></trkpt><trkpt lat="43.281043473287106" lon="10.53745153019804"><ele>5.0</ele><time>2026-04-06T12:48:56Z</time></trkpt><trkpt lat="43.28114862180632" lon="10.537268792769172"><ele>5.0</ele><time>2026-04-06T12:48:57Z</time></trkpt><trkpt lat="43.281257673345124" lon="10.537087286103766"><ele>5.0</ele><time>2026-04-06T12:48:58Z</time></trkpt><trkpt lat="43.28137388077157" lon="10.53691563197347"><ele>5.0</ele><time>2026-04-06T12:48:59Z</time></trkpt><trkpt lat="43.28149588001935" lon="10.53675444091542"><ele>5.0</ele><time>2026-04-06T12:49:00Z</time></trkpt><trkpt lat="43.28161901594155" lon="10.536591636865419"><ele>5.0</ele><time>2026-04-06T12:49:01Z</time></trkpt><trkpt lat="43.28173701878009" lon="10.536423239109128"><ele>5.0</ele><time>2026-04-06T12:49:02Z</time></trkpt><trkpt lat="43.281856960014025" lon="10.536253627630428"><ele>5.0</ele><time>2026-04-06T12:49:03Z</time></trkpt><trkpt lat="43.28197730826768" lon="10.536081588991935"><ele>5.0</ele><time>2026-04-06T12:49:04Z</time></trkpt><trkpt lat="43.28209886872915" lon="10.53591421114145"><ele>5.0</ele><time>2026-04-06T12:49:05Z</time></trkpt><trkpt lat="43.282219829974" lon="10.535744007725315"><ele>5.0</ele><time>2026-04-06T12:49:06Z</time></trkpt><trkpt lat="43.28233898186492" lon="10.53557183403503"><ele>5.0</ele><time>2026-04-06T12:49:07Z</time></trkpt><trkpt lat="43.282454893614876" lon="10.53540497101324"><ele>4.666666666666667</ele><time>2026-04-06T12:49:08Z</time></trkpt><trkpt lat="43.28256387627025" lon="10.535249478232988"><ele>4.333333333333333</ele><time>2026-04-06T12:49:09Z</time></trkpt><trkpt lat="43.28267144743907" lon="10.53510004552935"><ele>4.0</ele><time>2026-04-06T12:49:10Z</time></trkpt><trkpt lat="43.28277789429368" lon="10.534962638992992"><ele>4.0</ele><time>2026-04-06T12:49:11Z</time></trkpt><trkpt lat="43.282877688626535" lon="10.534835886019605"><ele>4.0</ele><time>2026-04-06T12:49:12Z</time></trkpt><trkpt lat="43.282974116389084" lon="10.5347195831117"><ele>4.0</ele><time>2026-04-06T12:49:13Z</time></trkpt><trkpt lat="43.28306527363173" lon="10.534568364887106"><ele>4.0</ele><time>2026-04-06T12:49:14Z</time></trkpt><trkpt lat="43.28316614052684" lon="10.534433808916264"><ele>4.25</ele><time>2026-04-06T12:49:15Z</time></trkpt><trkpt lat="43.283266094428384" lon="10.53429474739934"><ele>4.5</ele><time>2026-04-06T12:49:16Z</time></trkpt><trkpt lat="43.2833706981573" lon="10.53414989360233"><ele>4.75</ele><time>2026-04-06T12:49:17Z</time></trkpt><trkpt lat="43.28347808677762" lon="10.534006554040907"><ele>5.0</ele><time>2026-04-06T12:49:18Z</time></trkpt><trkpt lat="43.28358954084441" lon="10.533856649406056"><ele>4.666666666666667</ele><time>2026-04-06T12:49:19Z</time></trkpt><trkpt lat="43.28370348214787" lon="10.533716071940232"><ele>4.333333333333333</ele><time>2026-04-06T12:49:20Z</time></trkpt><trkpt lat="43.28381584888778" lon="10.533578860807324"><ele>4.0</ele><time>2026-04-06T12:49:21Z</time></trkpt><trkpt lat="43.2839296799009" lon="10.533446919716374"><ele>4.5</ele><time>2026-04-06T12:49:22Z</time></trkpt><trkpt lat="43.284055600423834" lon="10.53330515635219"><ele>5.0</ele><time>2026-04-06T12:49:23Z</time></trkpt><trkpt lat="43.284145250590086" lon="10.533196752484432"><ele>5.5</ele><time>2026-04-06T12:49:24Z</time></trkpt><trkpt lat="43.28426789308282" lon="10.533061629853098"><ele>6.0</ele><time>2026-04-06T12:49:25Z</time></trkpt><trkpt lat="43.284384838840474" lon="10.53292710325014"><ele>6.333333333333334</ele><time>2026-04-06T12:49:26Z</time></trkpt><trkpt lat="43.28450776922238" lon="10.532788457877277"><ele>6.666666666666667</ele><time>2026-04-06T12:49:27Z</time></trkpt><trkpt lat="43.2846224829776" lon="10.532650835626136"><ele>7.0</ele><time>2026-04-06T12:49:28Z</time></trkpt><trkpt lat="43.2847369801685" lon="10.532502608696786"><ele>6.333333333333334</ele><time>2026-04-06T12:49:29Z</time></trkpt><trkpt lat="43.28484239388714" lon="10.532345672653461"><ele>5.666666666666667</ele><time>2026-04-06T12:49:30Z</time></trkpt><trkpt lat="43.28494245719425" lon="10.532182256788635"><ele>5.0</ele><time>2026-04-06T12:49:31Z</time></trkpt><trkpt lat="43.28503686673714" lon="10.532004068456184"><ele>5.0</ele><time>2026-04-06T12:49:32Z</time></trkpt><trkpt lat="43.28512946733173" lon="10.531835345544689"><ele>5.0</ele><time>2026-04-06T12:49:33Z</time></trkpt><trkpt lat="43.285220530861345" lon="10.53165407487895"><ele>5.0</ele><time>2026-04-06T12:49:34Z</time></trkpt><trkpt lat="43.28531110301577" lon="10.5314798078785"><ele>5.0</ele><time>2026-04-06T12:49:35Z</time></trkpt><trkpt lat="43.285401667913824" lon="10.531315662076295"><ele>5.0</ele><time>2026-04-06T12:49:36Z</time></trkpt><trkpt lat="43.28550261910041" lon="10.531162673294626"><ele>5.0</ele><time>2026-04-06T12:49:37Z</time></trkpt><trkpt lat="43.2856262209747" lon="10.531040116701021"><ele>6.0</ele><time>2026-04-06T12:49:38Z</time></trkpt><trkpt lat="43.28575069706229" lon="10.530917782663217"><ele>7.0</ele><time>2026-04-06T12:49:39Z</time></trkpt><trkpt lat="43.28588799161939" lon="10.530810441946988"><ele>8.0</ele><time>2026-04-06T12:49:40Z</time></trkpt><trkpt lat="43.28602408748314" lon="10.530725249594639"><ele>8.0</ele><time>2026-04-06T12:49:41Z</time></trkpt><trkpt lat="43.286171791283174" lon="10.530644269833612"><ele>8.0</ele><time>2026-04-06T12:49:42Z</time></trkpt><trkpt lat="43.286318549655135" lon="10.530566908752935"><ele>8.0</ele><time>2026-04-06T12:49:43Z</time></trkpt><trkpt lat="43.28646736496337" lon="10.530488392297702"><ele>7.666666666666666</ele><time>2026-04-06T12:49:44Z</time></trkpt><trkpt lat="43.28661353386388" lon="10.530411272355414"><ele>7.333333333333334</ele><time>2026-04-06T12:49:45Z</time></trkpt><trkpt lat="43.286754575548606" lon="10.53032138198487"><ele>7.0</ele><time>2026-04-06T12:49:46Z</time></trkpt><trkpt lat="43.28689795737532" lon="10.530260193088914"><ele>7.0</ele><time>2026-04-06T12:49:47Z</time></trkpt><trkpt lat="43.287018456871586" lon="10.530191309393475"><ele>7.0</ele><time>2026-04-06T12:49:48Z</time></trkpt><trkpt lat="43.28713533759465" lon="10.530125219076163"><ele>7.0</ele><time>2026-04-06T12:49:49Z</time></trkpt><trkpt lat="43.287253012580955" lon="10.530066384469505"><ele>7.0</ele><time>2026-04-06T12:49:50Z</time></trkpt><trkpt lat="43.28736726280218" lon="10.530005597698512"><ele>7.25</ele><time>2026-04-06T12:49:51Z</time></trkpt><trkpt lat="43.28747486601269" lon="10.529949993366968"><ele>7.5</ele><time>2026-04-06T12:49:52Z</time></trkpt><trkpt lat="43.287586434491054" lon="10.529892238885045"><ele>7.75</ele><time>2026-04-06T12:49:53Z</time></trkpt><trkpt lat="43.28770009113925" lon="10.529830901634602"><ele>8.0</ele><time>2026-04-06T12:49:54Z</time></trkpt><trkpt lat="43.28780312591756" lon="10.529777470988595"><ele>8.0</ele><time>2026-04-06T12:49:55Z</time></trkpt><trkpt lat="43.28790174009469" lon="10.529733979920088"><ele>8.0</ele><time>2026-04-06T12:49:56Z</time></trkpt><trkpt lat="43.28799394131967" lon="10.529683907739837"><ele>8.0</ele><time>2026-04-06T12:49:57Z</time></trkpt><trkpt lat="43.28807306734828" lon="10.529643998495532"><ele>8.0</ele><time>2026-04-06T12:49:58Z</time></trkpt><trkpt lat="43.288161724193785" lon="10.52959515476932"><ele>8.0</ele><time>2026-04-06T12:49:59Z</time></trkpt><trkpt lat="43.288246964342136" lon="10.529552828503164"><ele>7.6000000000000005</ele><time>2026-04-06T12:50:00Z</time></trkpt><trkpt lat="43.288339023754894" lon="10.529501475872113"><ele>7.200000000000001</ele><time>2026-04-06T12:50:01Z</time></trkpt><trkpt lat="43.288431551079604" lon="10.529450954689256"><ele>6.8</ele><time>2026-04-06T12:50:02Z</time></trkpt><trkpt lat="43.28852694449225" lon="10.529396166658172"><ele>6.4</ele><time>2026-04-06T12:50:03Z</time></trkpt><trkpt lat="43.28862437616099" lon="10.529346549698493"><ele>6.0</ele><time>2026-04-06T12:50:04Z</time></trkpt><trkpt lat="43.2887203889543" lon="10.52929344738445"><ele>6.0</ele><time>2026-04-06T12:50:05Z</time></trkpt><trkpt lat="43.288816639119176" lon="10.529240951924454"><ele>6.0</ele><time>2026-04-06T12:50:06Z</time></trkpt><trkpt lat="43.2889197203551" lon="10.529187821349486"><ele>6.0</ele><time>2026-04-06T12:50:07Z</time></trkpt><trkpt lat="43.28901906482882" lon="10.529136416542665"><ele>6.0</ele><time>2026-04-06T12:50:08Z</time></trkpt><trkpt lat="43.289121225174604" lon="10.529079395657618"><ele>6.0</ele><time>2026-04-06T12:50:09Z</time></trkpt><trkpt lat="43.28922275135949" lon="10.529026852713203"><ele>6.0</ele><time>2026-04-06T12:50:10Z</time></trkpt><trkpt lat="43.28932309230442" lon="10.528972246096371"><ele>6.0</ele><time>2026-04-06T12:50:11Z</time></trkpt><trkpt lat="43.28943053769151" lon="10.528924898999232"><ele>6.0</ele><time>2026-04-06T12:50:12Z</time></trkpt><trkpt lat="43.28953107972356" lon="10.528875003683229"><ele>6.0</ele><time>2026-04-06T12:50:13Z</time></trkpt><trkpt lat="43.289628376781884" lon="10.528823695734749"><ele>6.0</ele><time>2026-04-06T12:50:14Z</time></trkpt><trkpt lat="43.28972219937189" lon="10.528774502421637"><ele>6.4</ele><time>2026-04-06T12:50:15Z</time></trkpt><trkpt lat="43.28981629286569" lon="10.528723603930706"><ele>6.8</ele><time>2026-04-06T12:50:16Z</time></trkpt><trkpt lat="43.28990537120526" lon="10.528671516507217"><ele>7.200000000000001</ele><time>2026-04-06T12:50:17Z</time></trkpt><trkpt lat="43.28999282696142" lon="10.5286232896328"><ele>7.6000000000000005</ele><time>2026-04-06T12:50:18Z</time></trkpt><trkpt lat="43.290084262429204" lon="10.528579362729605"><ele>8.0</ele><time>2026-04-06T12:50:19Z</time></trkpt><trkpt lat="43.29017714866563" lon="10.528537640448214"><ele>8.0</ele><time>2026-04-06T12:50:20Z</time></trkpt><trkpt lat="43.29026971966183" lon="10.52848515967297"><ele>8.0</ele><time>2026-04-06T12:50:21Z</time></trkpt><trkpt lat="43.29036195054017" lon="10.528434341730376"><ele>8.0</ele><time>2026-04-06T12:50:22Z</time></trkpt><trkpt lat="43.29045492597262" lon="10.52838519258898"><ele>8.0</ele><time>2026-04-06T12:50:23Z</time></trkpt><trkpt lat="43.2905442636946" lon="10.528336962375072"><ele>8.0</ele><time>2026-04-06T12:50:24Z</time></trkpt><trkpt lat="43.290630019024576" lon="10.528294092855974"><ele>8.200000000000001</ele><time>2026-04-06T12:50:25Z</time></trkpt><trkpt lat="43.29071613435072" lon="10.528248791766563"><ele>8.4</ele><time>2026-04-06T12:50:26Z</time></trkpt><trkpt lat="43.290805184617675" lon="10.528201483189912"><ele>8.600000000000001</ele><time>2026-04-06T12:50:27Z</time></trkpt><trkpt lat="43.29089362952039" lon="10.528149685158791"><ele>8.8</ele><time>2026-04-06T12:50:28Z</time></trkpt><trkpt lat="43.29098925682348" lon="10.52811547685165"><ele>9.0</ele><time>2026-04-06T12:50:29Z</time></trkpt><trkpt lat="43.29108062623399" lon="10.528049035159663"><ele>9.0</ele><time>2026-04-06T12:50:30Z</time></trkpt><trkpt lat="43.291181944868505" lon="10.527998046716222"><ele>9.0</ele><time>2026-04-06T12:50:31Z</time></trkpt><trkpt lat="43.29128443441171" lon="10.527947038750614"><ele>9.0</ele><time>2026-04-06T12:50:32Z</time></trkpt><trkpt lat="43.29137766605095" lon="10.527899471388048"><ele>9.0</ele><time>2026-04-06T12:50:33Z</time></trkpt><trkpt lat="43.291466630379595" lon="10.527856210309636"><ele>9.0</ele><time>2026-04-06T12:50:34Z</time></trkpt><trkpt lat="43.291554715947605" lon="10.527807028159193"><ele>9.2</ele><time>2026-04-06T12:50:35Z</time></trkpt><trkpt lat="43.29164618323374" lon="10.527757804742343"><ele>9.4</ele><time>2026-04-06T12:50:36Z</time></trkpt><trkpt lat="43.29173913071085" lon="10.527708403598266"><ele>9.6</ele><time>2026-04-06T12:50:37Z</time></trkpt><trkpt lat="43.29182936761581" lon="10.5276567362571"><ele>9.8</ele><time>2026-04-06T12:50:38Z</time></trkpt><trkpt lat="43.29191878936317" lon="10.527605656347149"><ele>10.0</ele><time>2026-04-06T12:50:39Z</time></trkpt><trkpt lat="43.29200697217122" lon="10.527563599346301"><ele>10.0</ele><time>2026-04-06T12:50:40Z</time></trkpt><trkpt lat="43.29209599113794" lon="10.527510889278783"><ele>10.0</ele><time>2026-04-06T12:50:41Z</time></trkpt><trkpt lat="43.29220343731083" lon="10.527477681117757"><ele>10.0</ele><time>2026-04-06T12:50:42Z</time></trkpt><trkpt lat="43.29230817920319" lon="10.527398656337219"><ele>10.0</ele><time>2026-04-06T12:50:43Z</time></trkpt><trkpt lat="43.292426992843595" lon="10.527330560541431"><ele>10.0</ele><time>2026-04-06T12:50:44Z</time></trkpt><trkpt lat="43.292559514980724" lon="10.52725749465048"><ele>10.0</ele><time>2026-04-06T12:50:45Z</time></trkpt><trkpt lat="43.292694275797935" lon="10.527188024461983"><ele>10.0</ele><time>2026-04-06T12:50:46Z</time></trkpt><trkpt lat="43.292837621413604" lon="10.527141553283421"><ele>10.0</ele><time>2026-04-06T12:50:47Z</time></trkpt><trkpt lat="43.292969916302035" lon="10.527047632212412"><ele>9.75</ele><time>2026-04-06T12:50:48Z</time></trkpt><trkpt lat="43.29311442517526" lon="10.526990500181292"><ele>9.5</ele><time>2026-04-06T12:50:49Z</time></trkpt><trkpt lat="43.29324719569429" lon="10.526921389054982"><ele>9.25</ele><time>2026-04-06T12:50:50Z</time></trkpt><trkpt lat="43.293369478904616" lon="10.52685205990378"><ele>9.0</ele><time>2026-04-06T12:50:51Z</time></trkpt><trkpt lat="43.29349499128306" lon="10.526782557267857"><ele>9.0</ele><time>2026-04-06T12:50:52Z</time></trkpt><trkpt lat="43.293623138975995" lon="10.526712956982587"><ele>9.0</ele><time>2026-04-06T12:50:53Z</time></trkpt><trkpt lat="43.293749714086864" lon="10.526643149544306"><ele>9.0</ele><time>2026-04-06T12:50:54Z</time></trkpt><trkpt lat="43.29386603655873" lon="10.5265841385479"><ele>9.0</ele><time>2026-04-06T12:50:55Z</time></trkpt><trkpt lat="43.29398532272034" lon="10.526525430791114"><ele>9.25</ele><time>2026-04-06T12:50:56Z</time></trkpt><trkpt lat="43.29410213007666" lon="10.526466773239939"><ele>9.5</ele><time>2026-04-06T12:50:57Z</time></trkpt><trkpt lat="43.29421582955698" lon="10.526404097062258"><ele>9.75</ele><time>2026-04-06T12:50:58Z</time></trkpt><trkpt lat="43.294329411169024" lon="10.526337773870127"><ele>10.0</ele><time>2026-04-06T12:50:59Z</time></trkpt><trkpt lat="43.29443839887212" lon="10.526281945047792"><ele>10.0</ele><time>2026-04-06T12:51:00Z</time></trkpt><trkpt lat="43.29454429572336" lon="10.526223535013111"><ele>10.0</ele><time>2026-04-06T12:51:01Z</time></trkpt><trkpt lat="43.29464471107287" lon="10.526165896138306"><ele>10.0</ele><time>2026-04-06T12:51:02Z</time></trkpt><trkpt lat="43.2947536661406" lon="10.526132735012196"><ele>10.0</ele><time>2026-04-06T12:51:03Z</time></trkpt><trkpt lat="43.29485139576868" lon="10.526075313465096"><ele>10.0</ele><time>2026-04-06T12:51:04Z</time></trkpt><trkpt lat="43.294943383657184" lon="10.526026650735604"><ele>10.166666666666668</ele><time>2026-04-06T12:51:05Z</time></trkpt><trkpt lat="43.29503008418597" lon="10.525978820470753"><ele>10.333333333333334</ele><time>2026-04-06T12:51:06Z</time></trkpt><trkpt lat="43.29511650258835" lon="10.525945119519577"><ele>10.5</ele><time>2026-04-06T12:51:07Z</time></trkpt><trkpt lat="43.29520050643918" lon="10.525915843320398"><ele>10.666666666666666</ele><time>2026-04-06T12:51:08Z</time></trkpt><trkpt lat="43.295272434311165" lon="10.525892212450122"><ele>10.833333333333332</ele><time>2026-04-06T12:51:09Z</time></trkpt><trkpt lat="43.29536529204623" lon="10.525857776753638"><ele>11.0</ele><time>2026-04-06T12:51:11Z</time></trkpt><trkpt lat="43.2954496699056" lon="10.525856682452911"><ele>11.0</ele><time>2026-04-06T12:51:13Z</time></trkpt><trkpt lat="43.29555442641831" lon="10.52587027349035"><ele>11.0</ele><time>2026-04-06T12:51:15Z</time></trkpt><trkpt lat="43.29564290894539" lon="10.525760787313978"><ele>11.0</ele><time>2026-04-06T12:51:17Z</time></trkpt><trkpt lat="43.29567632861837" lon="10.525683426431582"><ele>11.0</ele><time>2026-04-06T12:51:18Z</time></trkpt><trkpt lat="43.29572983502489" lon="10.525606596288252"><ele>11.0</ele><time>2026-04-06T12:51:19Z</time></trkpt><trkpt lat="43.29581586872971" lon="10.525579603843138"><ele>11.0</ele><time>2026-04-06T12:51:20Z</time></trkpt><trkpt lat="43.295908963221045" lon="10.525501352912435"><ele>11.0</ele><time>2026-04-06T12:51:21Z</time></trkpt><trkpt lat="43.29602647862552" lon="10.52545025000881"><ele>11.0</ele><time>2026-04-06T12:51:22Z</time></trkpt><trkpt lat="43.296151080354285" lon="10.525382725220322"><ele>11.0</ele><time>2026-04-06T12:51:23Z</time></trkpt><trkpt lat="43.29627655745893" lon="10.525314046423267"><ele>11.0</ele><time>2026-04-06T12:51:24Z</time></trkpt><trkpt lat="43.296405498024164" lon="10.525244979374529"><ele>11.0</ele><time>2026-04-06T12:51:25Z</time></trkpt><trkpt lat="43.296541273758045" lon="10.525169213426315"><ele>11.0</ele><time>2026-04-06T12:51:26Z</time></trkpt><trkpt lat="43.296685587300345" lon="10.52509491306784"><ele>11.0</ele><time>2026-04-06T12:51:27Z</time></trkpt><trkpt lat="43.29682504144177" lon="10.525018944966103"><ele>11.0</ele><time>2026-04-06T12:51:28Z</time></trkpt><trkpt lat="43.29696231539472" lon="10.52495099193599"><ele>11.0</ele><time>2026-04-06T12:51:29Z</time></trkpt><trkpt lat="43.29709605595316" lon="10.524893133933697"><ele>11.0</ele><time>2026-04-06T12:51:30Z</time></trkpt><trkpt lat="43.29722351046008" lon="10.524820650605673"><ele>11.0</ele><time>2026-04-06T12:51:31Z</time></trkpt><trkpt lat="43.29734834510879" lon="10.52474983490859"><ele>10.75</ele><time>2026-04-06T12:51:32Z</time></trkpt><trkpt lat="43.29746757306974" lon="10.524682113830274"><ele>10.5</ele><time>2026-04-06T12:51:33Z</time></trkpt><trkpt lat="43.29757699736212" lon="10.52462172392434"><ele>10.25</ele><time>2026-04-06T12:51:34Z</time></trkpt><trkpt lat="43.29767393345248" lon="10.524559675944259"><ele>10.0</ele><time>2026-04-06T12:51:35Z</time></trkpt><trkpt lat="43.297769433770135" lon="10.52450384546997"><ele>9.75</ele><time>2026-04-06T12:51:36Z</time></trkpt><trkpt lat="43.29787404439381" lon="10.524438487846977"><ele>9.5</ele><time>2026-04-06T12:51:37Z</time></trkpt><trkpt lat="43.29798943810872" lon="10.524369913998457"><ele>9.25</ele><time>2026-04-06T12:51:38Z</time></trkpt><trkpt lat="43.29811905679422" lon="10.524308914701283"><ele>9.0</ele><time>2026-04-06T12:51:39Z</time></trkpt><trkpt lat="43.29827575887004" lon="10.524283365365228"><ele>8.0</ele><time>2026-04-06T12:51:40Z</time></trkpt><trkpt lat="43.29843615258452" lon="10.524198868280255"><ele>7.0</ele><time>2026-04-06T12:51:41Z</time></trkpt><trkpt lat="43.29858861669566" lon="10.524117312476609"><ele>6.0</ele><time>2026-04-06T12:51:42Z</time></trkpt><trkpt lat="43.29875160239183" lon="10.524035554990034"><ele>6.0</ele><time>2026-04-06T12:51:43Z</time></trkpt><trkpt lat="43.29891305086521" lon="10.523949645433804"><ele>6.0</ele><time>2026-04-06T12:51:44Z</time></trkpt><trkpt lat="43.2990665955882" lon="10.523869767427275"><ele>6.0</ele><time>2026-04-06T12:51:45Z</time></trkpt><trkpt lat="43.299223195106784" lon="10.523786831456258"><ele>6.0</ele><time>2026-04-06T12:51:46Z</time></trkpt><trkpt lat="43.299383211053275" lon="10.523701866090809"><ele>6.0</ele><time>2026-04-06T12:51:47Z</time></trkpt><trkpt lat="43.299533581578096" lon="10.523598139968206"><ele>6.0</ele><time>2026-04-06T12:51:48Z</time></trkpt><trkpt lat="43.29969018397918" lon="10.523516745979926"><ele>6.333333333333334</ele><time>2026-04-06T12:51:49Z</time></trkpt><trkpt lat="43.29984030172892" lon="10.523434627051222"><ele>6.666666666666667</ele><time>2026-04-06T12:51:50Z</time></trkpt><trkpt lat="43.29999086699828" lon="10.523356878281854"><ele>7.0</ele><time>2026-04-06T12:51:51Z</time></trkpt><trkpt lat="43.3001400472562" lon="10.523278824186928"><ele>7.0</ele><time>2026-04-06T12:51:52Z</time></trkpt><trkpt lat="43.300288896070064" lon="10.523193457187958"><ele>7.0</ele><time>2026-04-06T12:51:53Z</time></trkpt><trkpt lat="43.30044404383361" lon="10.523113381779094"><ele>7.0</ele><time>2026-04-06T12:51:54Z</time></trkpt><trkpt lat="43.3006020739683" lon="10.523041168329065"><ele>7.0</ele><time>2026-04-06T12:51:55Z</time></trkpt><trkpt lat="43.300758731928575" lon="10.522955652734359"><ele>7.0</ele><time>2026-04-06T12:51:56Z</time></trkpt><trkpt lat="43.301188480860276" lon="10.522732981935407"><ele>7.0</ele><time>2026-04-06T12:51:59Z</time></trkpt><trkpt lat="43.30131891102278" lon="10.52266337462924"><ele>7.0</ele><time>2026-04-06T12:52:00Z</time></trkpt><trkpt lat="43.30144105343371" lon="10.522602637706335"><ele>7.0</ele><time>2026-04-06T12:52:01Z</time></trkpt><trkpt lat="43.30155705881009" lon="10.522544758549795"><ele>7.0</ele><time>2026-04-06T12:52:02Z</time></trkpt><trkpt lat="43.301665840306875" lon="10.52248639998006"><ele>7.8</ele><time>2026-04-06T12:52:03Z</time></trkpt><trkpt lat="43.30176222313951" lon="10.522433825717938"><ele>8.6</ele><time>2026-04-06T12:52:04Z</time></trkpt><trkpt lat="43.3018443886269" lon="10.52239965240444"><ele>9.4</ele><time>2026-04-06T12:52:05Z</time></trkpt><trkpt lat="43.30193858941596" lon="10.52235880966305"><ele>10.200000000000001</ele><time>2026-04-06T12:52:07Z</time></trkpt><trkpt lat="43.30202780051677" lon="10.522325617764139"><ele>11.0</ele><time>2026-04-06T12:52:10Z</time></trkpt><trkpt lat="43.30212985986307" lon="10.522269558673106"><ele>11.0</ele><time>2026-04-06T12:52:12Z</time></trkpt><trkpt lat="43.302186662040896" lon="10.522220084534373"><ele>11.0</ele><time>2026-04-06T12:52:13Z</time></trkpt><trkpt lat="43.302264429316196" lon="10.52219715785384"><ele>11.0</ele><time>2026-04-06T12:52:14Z</time></trkpt><trkpt lat="43.30234741240574" lon="10.522132553027186"><ele>11.0</ele><time>2026-04-06T12:52:15Z</time></trkpt><trkpt lat="43.30244800528751" lon="10.522089180427217"><ele>11.0</ele><time>2026-04-06T12:52:16Z</time></trkpt><trkpt lat="43.30254936126385" lon="10.52203114811726"><ele>11.200000000000001</ele><time>2026-04-06T12:52:17Z</time></trkpt><trkpt lat="43.30265161067537" lon="10.521981514573499"><ele>11.4</ele><time>2026-04-06T12:52:18Z</time></trkpt><trkpt lat="43.30275101608698" lon="10.521931446574692"><ele>11.6</ele><time>2026-04-06T12:52:19Z</time></trkpt><trkpt lat="43.30284651190652" lon="10.52187700906035"><ele>11.8</ele><time>2026-04-06T12:52:20Z</time></trkpt><trkpt lat="43.302936462095374" lon="10.521821346155297"><ele>12.0</ele><time>2026-04-06T12:52:21Z</time></trkpt><trkpt lat="43.30302245204692" lon="10.521772969810602"><ele>12.5</ele><time>2026-04-06T12:52:22Z</time></trkpt><trkpt lat="43.30312211673733" lon="10.521714667137276"><ele>13.0</ele><time>2026-04-06T12:52:23Z</time></trkpt><trkpt lat="43.30323227783107" lon="10.521679760016728"><ele>13.5</ele><time>2026-04-06T12:52:24Z</time></trkpt><trkpt lat="43.303342517184916" lon="10.52162190008609"><ele>14.0</ele><time>2026-04-06T12:52:25Z</time></trkpt><trkpt lat="43.303452140889135" lon="10.521555739181498"><ele>14.0</ele><time>2026-04-06T12:52:26Z</time></trkpt><trkpt lat="43.303562763503415" lon="10.52149283803779"><ele>14.0</ele><time>2026-04-06T12:52:27Z</time></trkpt><trkpt lat="43.30367689001638" lon="10.521428204458017"><ele>14.0</ele><time>2026-04-06T12:52:28Z</time></trkpt><trkpt lat="43.30379663368172" lon="10.521376593364398"><ele>14.0</ele><time>2026-04-06T12:52:29Z</time></trkpt><trkpt lat="43.30391531246679" lon="10.521312790568668"><ele>13.75</ele><time>2026-04-06T12:52:30Z</time></trkpt><trkpt lat="43.304039636569684" lon="10.521247382215577"><ele>13.5</ele><time>2026-04-06T12:52:31Z</time></trkpt><trkpt lat="43.30416739215583" lon="10.52117706610768"><ele>13.25</ele><time>2026-04-06T12:52:32Z</time></trkpt><trkpt lat="43.30429865707201" lon="10.521105785839644"><ele>13.0</ele><time>2026-04-06T12:52:33Z</time></trkpt><trkpt lat="43.30443528060954" lon="10.521033353673639"><ele>12.0</ele><time>2026-04-06T12:52:34Z</time></trkpt><trkpt lat="43.30457004403742" lon="10.520958119077662"><ele>11.0</ele><time>2026-04-06T12:52:35Z</time></trkpt><trkpt lat="43.30470694124021" lon="10.52088222204129"><ele>10.0</ele><time>2026-04-06T12:52:36Z</time></trkpt><trkpt lat="43.30484629001926" lon="10.520810352110223"><ele>9.0</ele><time>2026-04-06T12:52:37Z</time></trkpt><trkpt lat="43.3049875761145" lon="10.520734311864892"><ele>8.75</ele><time>2026-04-06T12:52:38Z</time></trkpt><trkpt lat="43.305122568636115" lon="10.52068471699237"><ele>8.5</ele><time>2026-04-06T12:52:39Z</time></trkpt><trkpt lat="43.30523733984026" lon="10.520624536114024"><ele>8.25</ele><time>2026-04-06T12:52:40Z</time></trkpt><trkpt lat="43.30532854042316" lon="10.520555590194213"><ele>8.0</ele><time>2026-04-06T12:52:41Z</time></trkpt><trkpt lat="43.305414518970856" lon="10.52051338279164"><ele>8.0</ele><time>2026-04-06T12:52:42Z</time></trkpt><trkpt lat="43.305489371330516" lon="10.520477899999898"><ele>8.0</ele><time>2026-04-06T12:52:43Z</time></trkpt><trkpt lat="43.30559712443299" lon="10.520425176742465"><ele>8.0</ele><time>2026-04-06T12:52:45Z</time></trkpt><trkpt lat="43.305680921805475" lon="10.520385410039198"><ele>8.0</ele><time>2026-04-06T12:52:47Z</time></trkpt><trkpt lat="43.305747594107174" lon="10.520350855868484"><ele>8.0</ele><time>2026-04-06T12:52:49Z</time></trkpt><trkpt lat="43.30584189613686" lon="10.520304268097732"><ele>8.5</ele><time>2026-04-06T12:53:16Z</time></trkpt><trkpt lat="43.305913235828385" lon="10.520266518946213"><ele>9.0</ele><time>2026-04-06T12:53:17Z</time></trkpt><trkpt lat="43.30606092841702" lon="10.520188994034132"><ele>9.5</ele><time>2026-04-06T12:53:19Z</time></trkpt><trkpt lat="43.306177101238575" lon="10.520128268531774"><ele>10.0</ele><time>2026-04-06T12:53:20Z</time></trkpt><trkpt lat="43.30631375741734" lon="10.520056836177607"><ele>10.333333333333334</ele><time>2026-04-06T12:53:21Z</time></trkpt><trkpt lat="43.30646847901792" lon="10.519975960556877"><ele>10.666666666666666</ele><time>2026-04-06T12:53:22Z</time></trkpt><trkpt lat="43.30661069395611" lon="10.51990162261751"><ele>11.0</ele><time>2026-04-06T12:53:23Z</time></trkpt><trkpt lat="43.30675524334464" lon="10.519826064150037"><ele>11.0</ele><time>2026-04-06T12:53:24Z</time></trkpt><trkpt lat="43.30689359066168" lon="10.519753059301436"><ele>11.0</ele><time>2026-04-06T12:53:25Z</time></trkpt><trkpt lat="43.307029276708604" lon="10.519681136197715"><ele>11.0</ele><time>2026-04-06T12:53:26Z</time></trkpt><trkpt lat="43.3071669040757" lon="10.519608396186703"><ele>11.0</ele><time>2026-04-06T12:53:27Z</time></trkpt><trkpt lat="43.30730283267341" lon="10.519536701148851"><ele>11.0</ele><time>2026-04-06T12:53:28Z</time></trkpt><trkpt lat="43.30742577766882" lon="10.5194715770162"><ele>11.0</ele><time>2026-04-06T12:53:29Z</time></trkpt><trkpt lat="43.307542755411774" lon="10.519408782111993"><ele>11.0</ele><time>2026-04-06T12:53:30Z</time></trkpt><trkpt lat="43.30766081461253" lon="10.51934366645605"><ele>11.0</ele><time>2026-04-06T12:53:31Z</time></trkpt><trkpt lat="43.307779190504505" lon="10.519275328749096"><ele>11.0</ele><time>2026-04-06T12:53:32Z</time></trkpt><trkpt lat="43.30788537137307" lon="10.519219547261402"><ele>11.0</ele><time>2026-04-06T12:53:33Z</time></trkpt><trkpt lat="43.307981477220885" lon="10.51916975207824"><ele>11.0</ele><time>2026-04-06T12:53:34Z</time></trkpt><trkpt lat="43.30806500633238" lon="10.519126956862353"><ele>11.0</ele><time>2026-04-06T12:53:35Z</time></trkpt><trkpt lat="43.308141949530544" lon="10.51909290061827"><ele>11.0</ele><time>2026-04-06T12:53:36Z</time></trkpt><trkpt lat="43.30820842762037" lon="10.5190469562401"><ele>10.833333333333332</ele><time>2026-04-06T12:53:37Z</time></trkpt><trkpt lat="43.308268673616304" lon="10.519014472324415"><ele>10.666666666666666</ele><time>2026-04-06T12:53:38Z</time></trkpt><trkpt lat="43.308353366201175" lon="10.518968326127045"><ele>10.5</ele><time>2026-04-06T12:53:40Z</time></trkpt><trkpt lat="43.30842025678068" lon="10.518929710706272"><ele>10.333333333333334</ele><time>2026-04-06T12:53:43Z</time></trkpt><trkpt lat="43.30850954567834" lon="10.518904299499601"><ele>10.166666666666668</ele><time>2026-04-06T12:53:53Z</time></trkpt><trkpt lat="43.30856917921583" lon="10.518851553192864"><ele>10.0</ele><time>2026-04-06T12:53:54Z</time></trkpt><trkpt lat="43.308649642380594" lon="10.518830696661757"><ele>10.0</ele><time>2026-04-06T12:53:55Z</time></trkpt><trkpt lat="43.30873329661696" lon="10.518786824815248"><ele>10.0</ele><time>2026-04-06T12:53:56Z</time></trkpt><trkpt lat="43.308819816930615" lon="10.518741449888584"><ele>10.0</ele><time>2026-04-06T12:53:57Z</time></trkpt><trkpt lat="43.30890626443164" lon="10.518696113136041"><ele>10.0</ele><time>2026-04-06T12:53:58Z</time></trkpt><trkpt lat="43.30899362307386" lon="10.518634184317564"><ele>10.0</ele><time>2026-04-06T12:53:59Z</time></trkpt><trkpt lat="43.30909261856458" lon="10.518591554788138"><ele>10.5</ele><time>2026-04-06T12:54:00Z</time></trkpt><trkpt lat="43.30919373079565" lon="10.518531314192044"><ele>11.0</ele><time>2026-04-06T12:54:01Z</time></trkpt><trkpt lat="43.30930221500546" lon="10.518469918385584"><ele>11.5</ele><time>2026-04-06T12:54:02Z</time></trkpt><trkpt lat="43.309411318315064" lon="10.518426078794166"><ele>12.0</ele><time>2026-04-06T12:54:03Z</time></trkpt><trkpt lat="43.30952099823587" lon="10.518367445674373"><ele>12.0</ele><time>2026-04-06T12:54:04Z</time></trkpt><trkpt lat="43.30963481663227" lon="10.518306600191808"><ele>12.0</ele><time>2026-04-06T12:54:05Z</time></trkpt><trkpt lat="43.30974096809938" lon="10.51824985309789"><ele>12.0</ele><time>2026-04-06T12:54:06Z</time></trkpt><trkpt lat="43.309851938057726" lon="10.518191772657179"><ele>12.0</ele><time>2026-04-06T12:54:07Z</time></trkpt><trkpt lat="43.309966958916505" lon="10.518131401963076"><ele>12.6</ele><time>2026-04-06T12:54:08Z</time></trkpt><trkpt lat="43.31008283316609" lon="10.51807090973666"><ele>13.2</ele><time>2026-04-06T12:54:09Z</time></trkpt><trkpt lat="43.31019174096365" lon="10.518014369094717"><ele>13.8</ele><time>2026-04-06T12:54:10Z</time></trkpt><trkpt lat="43.310288873546554" lon="10.517916533974136"><ele>14.4</ele><time>2026-04-06T12:54:11Z</time></trkpt><trkpt lat="43.3103726649435" lon="10.517885183376634"><ele>15.0</ele><time>2026-04-06T12:54:12Z</time></trkpt><trkpt lat="43.31045063967656" lon="10.517832874259545"><ele>15.0</ele><time>2026-04-06T12:54:13Z</time></trkpt><trkpt lat="43.31052172464772" lon="10.51779472723913"><ele>15.0</ele><time>2026-04-06T12:54:14Z</time></trkpt><trkpt lat="43.31059398610279" lon="10.517752880011969"><ele>15.0</ele><time>2026-04-06T12:54:15Z</time></trkpt><trkpt lat="43.31069976197212" lon="10.517719034383191"><ele>15.0</ele><time>2026-04-06T12:54:17Z</time></trkpt><trkpt lat="43.31070593810746" lon="10.517530776928654"><ele>15.0</ele><time>2026-04-06T12:54:18Z</time></trkpt><trkpt lat="43.310671948046554" lon="10.517443332549195"><ele>15.2</ele><time>2026-04-06T12:54:19Z</time></trkpt><trkpt lat="43.310639852445156" lon="10.517330663668396"><ele>15.4</ele><time>2026-04-06T12:54:20Z</time></trkpt><trkpt lat="43.310605235126474" lon="10.517192303427292"><ele>15.600000000000001</ele><time>2026-04-06T12:54:21Z</time></trkpt><trkpt lat="43.31056896471301" lon="10.517048117426095"><ele>15.8</ele><time>2026-04-06T12:54:22Z</time></trkpt><trkpt lat="43.31054083668531" lon="10.516918247638316"><ele>16.0</ele><time>2026-04-06T12:54:23Z</time></trkpt><trkpt lat="43.31049683847363" lon="10.516809058245178"><ele>15.200000000000001</ele><time>2026-04-06T12:54:24Z</time></trkpt><trkpt lat="43.31047661704349" lon="10.516690852186173"><ele>14.400000000000002</ele><time>2026-04-06T12:54:25Z</time></trkpt><trkpt lat="43.310436930996076" lon="10.51660407584278"><ele>13.6</ele><time>2026-04-06T12:54:26Z</time></trkpt><trkpt lat="43.310427118644654" lon="10.516512336232331"><ele>12.8</ele><time>2026-04-06T12:54:27Z</time></trkpt><trkpt lat="43.310400627126995" lon="10.516377202540374"><ele>12.0</ele><time>2026-04-06T12:54:29Z</time></trkpt><trkpt lat="43.31056022856608" lon="10.516298553108435"><ele>12.399999999999999</ele><time>2026-04-06T12:54:31Z</time></trkpt><trkpt lat="43.310639518972806" lon="10.516235276491086"><ele>12.799999999999999</ele><time>2026-04-06T12:54:32Z</time></trkpt><trkpt lat="43.31074330089428" lon="10.516182453499184"><ele>13.2</ele><time>2026-04-06T12:54:33Z</time></trkpt><trkpt lat="43.310842034792216" lon="10.516132199863883"><ele>13.6</ele><time>2026-04-06T12:54:34Z</time></trkpt><trkpt lat="43.31094745688919" lon="10.516100291204106"><ele>14.0</ele><time>2026-04-06T12:54:35Z</time></trkpt><trkpt lat="43.31101516841531" lon="10.516026399513978"><ele>14.0</ele><time>2026-04-06T12:54:36Z</time></trkpt><trkpt lat="43.31111762855289" lon="10.515969456062496"><ele>13.999999999999998</ele><time>2026-04-06T12:54:37Z</time></trkpt><trkpt lat="43.31121631787875" lon="10.51591091714388"><ele>13.999999999999998</ele><time>2026-04-06T12:54:38Z</time></trkpt><trkpt lat="43.31131497197501" lon="10.515856465816842"><ele>14.0</ele><time>2026-04-06T12:54:39Z</time></trkpt><trkpt lat="43.31141305773478" lon="10.515798580506527"><ele>14.0</ele><time>2026-04-06T12:54:40Z</time></trkpt><trkpt lat="43.311502687670135" lon="10.51575825124612"><ele>14.2</ele><time>2026-04-06T12:54:41Z</time></trkpt><trkpt lat="43.31158330788886" lon="10.515713642265164"><ele>14.399999999999999</ele><time>2026-04-06T12:54:42Z</time></trkpt><trkpt lat="43.311661965643765" lon="10.515674948590698"><ele>14.6</ele><time>2026-04-06T12:54:43Z</time></trkpt><trkpt lat="43.31173024488614" lon="10.5156303439214"><ele>14.8</ele><time>2026-04-06T12:54:44Z</time></trkpt><trkpt lat="43.311826480598484" lon="10.515572422732633"><ele>15.0</ele><time>2026-04-06T12:54:46Z</time></trkpt><trkpt lat="43.31186090401726" lon="10.515421097082378"><ele>14.666666666666666</ele><time>2026-04-06T12:54:49Z</time></trkpt><trkpt lat="43.31181914314482" lon="10.515324580352214"><ele>14.333333333333332</ele><time>2026-04-06T12:54:50Z</time></trkpt><trkpt lat="43.31179306702114" lon="10.51523069713992"><ele>14.0</ele><time>2026-04-06T12:54:51Z</time></trkpt><trkpt lat="43.311760870659185" lon="10.515124379352995"><ele>13.666666666666666</ele><time>2026-04-06T12:54:52Z</time></trkpt><trkpt lat="43.311733359703354" lon="10.515011370108791"><ele>13.333333333333332</ele><time>2026-04-06T12:54:53Z</time></trkpt><trkpt lat="43.31170880356673" lon="10.514907525982029"><ele>13.0</ele><time>2026-04-06T12:54:54Z</time></trkpt><trkpt lat="43.31168657412786" lon="10.514813633190016"><ele>12.999999999999998</ele><time>2026-04-06T12:54:55Z</time></trkpt><trkpt lat="43.31165690228097" lon="10.514729690459658"><ele>13.0</ele><time>2026-04-06T12:54:56Z</time></trkpt><trkpt lat="43.311623397947145" lon="10.514655575665143"><ele>13.0</ele><time>2026-04-06T12:54:57Z</time></trkpt><trkpt lat="43.31159950073864" lon="10.514574106167057"><ele>13.0</ele><time>2026-04-06T12:54:58Z</time></trkpt><trkpt lat="43.311584666407505" lon="10.514426232524311"><ele>12.999999999999998</ele><time>2026-04-06T12:55:00Z</time></trkpt><trkpt lat="43.3116912453035" lon="10.514305851405066"><ele>13.0</ele><time>2026-04-06T12:55:03Z</time></trkpt><trkpt lat="43.31175591140172" lon="10.514271356596668"><ele>12.600000000000001</ele><time>2026-04-06T12:55:04Z</time></trkpt><trkpt lat="43.31183785907697" lon="10.514229626259468"><ele>12.200000000000001</ele><time>2026-04-06T12:55:05Z</time></trkpt><trkpt lat="43.31193384687898" lon="10.51418972855563"><ele>11.8</ele><time>2026-04-06T12:55:06Z</time></trkpt><trkpt lat="43.312025785767034" lon="10.514124316214698"><ele>11.4</ele><time>2026-04-06T12:55:07Z</time></trkpt><trkpt lat="43.31212272027723" lon="10.51406493747447"><ele>11.0</ele><time>2026-04-06T12:55:08Z</time></trkpt><trkpt lat="43.31222708248289" lon="10.514001344017295"><ele>11.25</ele><time>2026-04-06T12:55:09Z</time></trkpt><trkpt lat="43.312332888963596" lon="10.513935861470637"><ele>11.5</ele><time>2026-04-06T12:55:10Z</time></trkpt><trkpt lat="43.31243821884315" lon="10.513865861818775"><ele>11.75</ele><time>2026-04-06T12:55:11Z</time></trkpt><trkpt lat="43.31255150743049" lon="10.513794619988923"><ele>12.0</ele><time>2026-04-06T12:55:12Z</time></trkpt><trkpt lat="43.3126549564359" lon="10.513732988113603"><ele>11.6</ele><time>2026-04-06T12:55:13Z</time></trkpt><trkpt lat="43.31275546865126" lon="10.513675275287287"><ele>11.2</ele><time>2026-04-06T12:55:14Z</time></trkpt><trkpt lat="43.31284822284102" lon="10.513604473932952"><ele>10.8</ele><time>2026-04-06T12:55:15Z</time></trkpt><trkpt lat="43.31294863832181" lon="10.513539746865712"><ele>10.4</ele><time>2026-04-06T12:55:16Z</time></trkpt><trkpt lat="43.3130430990082" lon="10.513475607037329"><ele>10.0</ele><time>2026-04-06T12:55:17Z</time></trkpt><trkpt lat="43.31313297189738" lon="10.51341655989731"><ele>10.0</ele><time>2026-04-06T12:55:18Z</time></trkpt><trkpt lat="43.31321936953461" lon="10.513361248966849"><ele>10.0</ele><time>2026-04-06T12:55:19Z</time></trkpt><trkpt lat="43.31329739084277" lon="10.513302100398311"><ele>10.0</ele><time>2026-04-06T12:55:20Z</time></trkpt><trkpt lat="43.31337012801882" lon="10.513240851929174"><ele>10.0</ele><time>2026-04-06T12:55:21Z</time></trkpt><trkpt lat="43.3134437114364" lon="10.513186146363292"><ele>10.0</ele><time>2026-04-06T12:55:22Z</time></trkpt><trkpt lat="43.31350279585852" lon="10.513151977001016"><ele>10.0</ele><time>2026-04-06T12:55:23Z</time></trkpt><trkpt lat="43.31359911002601" lon="10.513162847835217"><ele>10.0</ele><time>2026-04-06T12:55:25Z</time></trkpt><trkpt lat="43.31367828570151" lon="10.513326486602342"><ele>10.0</ele><time>2026-04-06T12:55:27Z</time></trkpt><trkpt lat="43.313723386762696" lon="10.513435470094622"><ele>10.0</ele><time>2026-04-06T12:55:28Z</time></trkpt><trkpt lat="43.31377917409059" lon="10.513571555364956"><ele>10.0</ele><time>2026-04-06T12:55:29Z</time></trkpt><trkpt lat="43.313837775921996" lon="10.513715610189546"><ele>10.0</ele><time>2026-04-06T12:55:30Z</time></trkpt><trkpt lat="43.31389908274178" lon="10.513847142799776"><ele>10.0</ele><time>2026-04-06T12:55:31Z</time></trkpt><trkpt lat="43.313960451129795" lon="10.51397988370153"><ele>10.0</ele><time>2026-04-06T12:55:32Z</time></trkpt><trkpt lat="43.314028712021205" lon="10.514117803918946"><ele>10.0</ele><time>2026-04-06T12:55:33Z</time></trkpt><trkpt lat="43.31408808004393" lon="10.514250779815598"><ele>9.8</ele><time>2026-04-06T12:55:34Z</time></trkpt><trkpt lat="43.3141455530442" lon="10.514381411891076"><ele>9.6</ele><time>2026-04-06T12:55:35Z</time></trkpt><trkpt lat="43.31418788219473" lon="10.514489597561193"><ele>9.4</ele><time>2026-04-06T12:55:36Z</time></trkpt><trkpt lat="43.314225762757786" lon="10.514598276753619"><ele>9.2</ele><time>2026-04-06T12:55:37Z</time></trkpt><trkpt lat="43.31425000804598" lon="10.514686320609009"><ele>9.0</ele><time>2026-04-06T12:55:38Z</time></trkpt><trkpt lat="43.31428721972864" lon="10.51482374864995"><ele>9.0</ele><time>2026-04-06T12:55:40Z</time></trkpt><trkpt lat="43.31432989877007" lon="10.514909790229597"><ele>9.0</ele><time>2026-04-06T12:55:43Z</time></trkpt><trkpt lat="43.314368283535785" lon="10.515031000484965"><ele>9.0</ele><time>2026-04-06T12:55:45Z</time></trkpt><trkpt lat="43.314499005424445" lon="10.514982963536932"><ele>9.0</ele><time>2026-04-06T12:55:48Z</time></trkpt><trkpt lat="43.314554992075294" lon="10.514928775655667"><ele>9.0</ele><time>2026-04-06T12:55:49Z</time></trkpt><trkpt lat="43.31462663415277" lon="10.514865457395251"><ele>9.0</ele><time>2026-04-06T12:55:50Z</time></trkpt><trkpt lat="43.314707990353554" lon="10.514795380000622"><ele>9.0</ele><time>2026-04-06T12:55:51Z</time></trkpt><trkpt lat="43.31479389563112" lon="10.514721921397813"><ele>9.0</ele><time>2026-04-06T12:55:52Z</time></trkpt><trkpt lat="43.31488251709448" lon="10.514645266494703"><ele>9.0</ele><time>2026-04-06T12:55:53Z</time></trkpt><trkpt lat="43.31497795155321" lon="10.514559620824805"><ele>9.0</ele><time>2026-04-06T12:55:54Z</time></trkpt><trkpt lat="43.315077000470886" lon="10.514472173551422"><ele>8.0</ele><time>2026-04-06T12:55:55Z</time></trkpt><trkpt lat="43.31518213442353" lon="10.514380925968261"><ele>7.0</ele><time>2026-04-06T12:55:56Z</time></trkpt><trkpt lat="43.31528850437853" lon="10.514294838555777"><ele>6.0</ele><time>2026-04-06T12:55:57Z</time></trkpt><trkpt lat="43.31539104779861" lon="10.514205150419414"><ele>5.0</ele><time>2026-04-06T12:55:58Z</time></trkpt><trkpt lat="43.31549363118411" lon="10.51411547690098"><ele>5.25</ele><time>2026-04-06T12:55:59Z</time></trkpt><trkpt lat="43.31560357762606" lon="10.51403314572791"><ele>5.5</ele><time>2026-04-06T12:56:00Z</time></trkpt><trkpt lat="43.31571948609425" lon="10.513945550506495"><ele>5.75</ele><time>2026-04-06T12:56:01Z</time></trkpt><trkpt lat="43.31584562991324" lon="10.513859049966547"><ele>6.0</ele><time>2026-04-06T12:56:02Z</time></trkpt><trkpt lat="43.315977380925524" lon="10.513784714710626"><ele>5.5</ele><time>2026-04-06T12:56:03Z</time></trkpt><trkpt lat="43.31611181470884" lon="10.513716556513696"><ele>5.0</ele><time>2026-04-06T12:56:04Z</time></trkpt><trkpt lat="43.316247691464234" lon="10.513658116473302"><ele>4.5</ele><time>2026-04-06T12:56:05Z</time></trkpt><trkpt lat="43.31638188299201" lon="10.513598102443282"><ele>4.0</ele><time>2026-04-06T12:56:06Z</time></trkpt><trkpt lat="43.31651976742269" lon="10.513539016438795"><ele>3.75</ele><time>2026-04-06T12:56:07Z</time></trkpt><trkpt lat="43.31665972871065" lon="10.513483983676553"><ele>3.5</ele><time>2026-04-06T12:56:08Z</time></trkpt><trkpt lat="43.316803232917934" lon="10.51343006954579"><ele>3.25</ele><time>2026-04-06T12:56:09Z</time></trkpt><trkpt lat="43.31694708455517" lon="10.51337998288974"><ele>3.0</ele><time>2026-04-06T12:56:10Z</time></trkpt><trkpt lat="43.317093624524986" lon="10.513329491616444"><ele>2.75</ele><time>2026-04-06T12:56:11Z</time></trkpt><trkpt lat="43.31723907250903" lon="10.513278957602166"><ele>2.5</ele><time>2026-04-06T12:56:12Z</time></trkpt><trkpt lat="43.317378751428926" lon="10.51323577943437"><ele>2.25</ele><time>2026-04-06T12:56:13Z</time></trkpt><trkpt lat="43.31751444020874" lon="10.513189122590163"><ele>2.0</ele><time>2026-04-06T12:56:14Z</time></trkpt><trkpt lat="43.31765084427737" lon="10.513138016682477"><ele>2.0</ele><time>2026-04-06T12:56:15Z</time></trkpt><trkpt lat="43.317788506366796" lon="10.513088948672129"><ele>2.0</ele><time>2026-04-06T12:56:16Z</time></trkpt><trkpt lat="43.317926479795155" lon="10.513040787698754"><ele>2.0</ele><time>2026-04-06T12:56:17Z</time></trkpt><trkpt lat="43.318063169400205" lon="10.512988445910501"><ele>2.0</ele><time>2026-04-06T12:56:18Z</time></trkpt><trkpt lat="43.31820251341986" lon="10.51293471713766"><ele>2.75</ele><time>2026-04-06T12:56:19Z</time></trkpt><trkpt lat="43.318341870912285" lon="10.512876782634022"><ele>3.5</ele><time>2026-04-06T12:56:20Z</time></trkpt><trkpt lat="43.318481715376116" lon="10.512821752410671"><ele>4.25</ele><time>2026-04-06T12:56:21Z</time></trkpt><trkpt lat="43.3186209821641" lon="10.512764996707958"><ele>5.0</ele><time>2026-04-06T12:56:22Z</time></trkpt><trkpt lat="43.31875399771498" lon="10.512703157108255"><ele>5.0</ele><time>2026-04-06T12:56:23Z</time></trkpt><trkpt lat="43.31888893882363" lon="10.512624044335253"><ele>5.0</ele><time>2026-04-06T12:56:24Z</time></trkpt><trkpt lat="43.31902224979595" lon="10.512559818604297"><ele>5.0</ele><time>2026-04-06T12:56:25Z</time></trkpt><trkpt lat="43.319153188820586" lon="10.512483086093832"><ele>5.0</ele><time>2026-04-06T12:56:26Z</time></trkpt><trkpt lat="43.319283712098155" lon="10.51240342424211"><ele>5.0</ele><time>2026-04-06T12:56:27Z</time></trkpt><trkpt lat="43.31940934865711" lon="10.512323652109481"><ele>5.0</ele><time>2026-04-06T12:56:28Z</time></trkpt><trkpt lat="43.319531816009906" lon="10.512248802586726"><ele>5.0</ele><time>2026-04-06T12:56:29Z</time></trkpt><trkpt lat="43.31964573793678" lon="10.512181118765465"><ele>5.0</ele><time>2026-04-06T12:56:30Z</time></trkpt><trkpt lat="43.319745179862764" lon="10.512112851176607"><ele>5.0</ele><time>2026-04-06T12:56:31Z</time></trkpt><trkpt lat="43.319844703845625" lon="10.512049053623022"><ele>5.0</ele><time>2026-04-06T12:56:32Z</time></trkpt><trkpt lat="43.319948966412305" lon="10.511996025736364"><ele>5.0</ele><time>2026-04-06T12:56:33Z</time></trkpt><trkpt lat="43.320058829737384" lon="10.51193893790544"><ele>5.0</ele><time>2026-04-06T12:56:34Z</time></trkpt><trkpt lat="43.32017794225771" lon="10.511857289865269"><ele>5.0</ele><time>2026-04-06T12:56:35Z</time></trkpt><trkpt lat="43.32030590288085" lon="10.511772294582531"><ele>5.0</ele><time>2026-04-06T12:56:36Z</time></trkpt><trkpt lat="43.32043948943406" lon="10.511688847558522"><ele>5.0</ele><time>2026-04-06T12:56:37Z</time></trkpt><trkpt lat="43.32057931298914" lon="10.511596763218126"><ele>5.0</ele><time>2026-04-06T12:56:38Z</time></trkpt><trkpt lat="43.320719462954706" lon="10.511504194473996"><ele>5.0</ele><time>2026-04-06T12:56:39Z</time></trkpt><trkpt lat="43.3208614043781" lon="10.511410455996614"><ele>5.0</ele><time>2026-04-06T12:56:40Z</time></trkpt><trkpt lat="43.32100813400488" lon="10.511322784912222"><ele>5.0</ele><time>2026-04-06T12:56:41Z</time></trkpt><trkpt lat="43.32115359331278" lon="10.511233127911458"><ele>5.0</ele><time>2026-04-06T12:56:42Z</time></trkpt><trkpt lat="43.32129868247836" lon="10.511134292445199"><ele>5.0</ele><time>2026-04-06T12:56:43Z</time></trkpt><trkpt lat="43.321446829627526" lon="10.51103872946958"><ele>5.0</ele><time>2026-04-06T12:56:44Z</time></trkpt><trkpt lat="43.321597861778095" lon="10.510947445959417"><ele>4.333333333333334</ele><time>2026-04-06T12:56:45Z</time></trkpt><trkpt lat="43.32174650246289" lon="10.510856958823839"><ele>3.666666666666667</ele><time>2026-04-06T12:56:46Z</time></trkpt><trkpt lat="43.32188855867023" lon="10.510771734195101"><ele>3.0</ele><time>2026-04-06T12:56:47Z</time></trkpt><trkpt lat="43.3220308171981" lon="10.510683274208253"><ele>3.0</ele><time>2026-04-06T12:56:48Z</time></trkpt><trkpt lat="43.32217036356383" lon="10.510598114832046"><ele>3.0</ele><time>2026-04-06T12:56:49Z</time></trkpt><trkpt lat="43.3223074889857" lon="10.510511584748519"><ele>3.0</ele><time>2026-04-06T12:56:50Z</time></trkpt><trkpt lat="43.3224356865622" lon="10.510427244687163"><ele>3.0</ele><time>2026-04-06T12:56:51Z</time></trkpt><trkpt lat="43.32255228366757" lon="10.510356992831348"><ele>3.4</ele><time>2026-04-06T12:56:52Z</time></trkpt><trkpt lat="43.322656647606166" lon="10.510296012006163"><ele>3.8</ele><time>2026-04-06T12:56:53Z</time></trkpt><trkpt lat="43.32274641978095" lon="10.510234797237075"><ele>4.2</ele><time>2026-04-06T12:56:54Z</time></trkpt><trkpt lat="43.322830995617444" lon="10.510179075113465"><ele>4.6</ele><time>2026-04-06T12:56:55Z</time></trkpt><trkpt lat="43.32291355098212" lon="10.510124232687646"><ele>5.0</ele><time>2026-04-06T12:56:56Z</time></trkpt><trkpt lat="43.322993110392936" lon="10.510072760488598"><ele>5.5</ele><time>2026-04-06T12:56:57Z</time></trkpt><trkpt lat="43.32307954777427" lon="10.510014978020147"><ele>6.0</ele><time>2026-04-06T12:56:58Z</time></trkpt><trkpt lat="43.32317989314625" lon="10.50995456011882"><ele>6.5</ele><time>2026-04-06T12:56:59Z</time></trkpt><trkpt lat="43.32329328628332" lon="10.509889102095633"><ele>7.0</ele><time>2026-04-06T12:57:00Z</time></trkpt><trkpt lat="43.32341183204518" lon="10.509849520108268"><ele>7.0</ele><time>2026-04-06T12:57:01Z</time></trkpt><trkpt lat="43.32351838668096" lon="10.509749446333558"><ele>7.0</ele><time>2026-04-06T12:57:02Z</time></trkpt><trkpt lat="43.32362412701411" lon="10.50966695095223"><ele>7.0</ele><time>2026-04-06T12:57:03Z</time></trkpt><trkpt lat="43.32373749900257" lon="10.509596258570182"><ele>7.0</ele><time>2026-04-06T12:57:04Z</time></trkpt><trkpt lat="43.32384932500201" lon="10.509525532406673"><ele>7.0</ele><time>2026-04-06T12:57:05Z</time></trkpt><trkpt lat="43.323964244335826" lon="10.509453647212421"><ele>7.0</ele><time>2026-04-06T12:57:06Z</time></trkpt><trkpt lat="43.324073581057014" lon="10.50937460873768"><ele>7.0</ele><time>2026-04-06T12:57:07Z</time></trkpt><trkpt lat="43.324182684888164" lon="10.509299742734125"><ele>7.0</ele><time>2026-04-06T12:57:08Z</time></trkpt><trkpt lat="43.32428623809338" lon="10.50923472035788"><ele>7.0</ele><time>2026-04-06T12:57:09Z</time></trkpt><trkpt lat="43.32438711714808" lon="10.509180298985994"><ele>6.999999999999999</ele><time>2026-04-06T12:57:10Z</time></trkpt><trkpt lat="43.32448220281088" lon="10.509107555579115"><ele>6.999999999999999</ele><time>2026-04-06T12:57:11Z</time></trkpt><trkpt lat="43.32458222336765" lon="10.509045209536131"><ele>7.0</ele><time>2026-04-06T12:57:12Z</time></trkpt><trkpt lat="43.32468407804166" lon="10.508976542966105"><ele>7.0</ele><time>2026-04-06T12:57:13Z</time></trkpt><trkpt lat="43.32478637259587" lon="10.508909344165438"><ele>7.3999999999999995</ele><time>2026-04-06T12:57:14Z</time></trkpt><trkpt lat="43.324888077394135" lon="10.508851136206372"><ele>7.799999999999999</ele><time>2026-04-06T12:57:15Z</time></trkpt><trkpt lat="43.3249886609194" lon="10.508778908551479"><ele>8.2</ele><time>2026-04-06T12:57:16Z</time></trkpt><trkpt lat="43.325085128057346" lon="10.508709860592155"><ele>8.6</ele><time>2026-04-06T12:57:17Z</time></trkpt><trkpt lat="43.32518178998033" lon="10.508646207601222"><ele>9.0</ele><time>2026-04-06T12:57:18Z</time></trkpt><trkpt lat="43.32527971315184" lon="10.508587347373478"><ele>9.0</ele><time>2026-04-06T12:57:19Z</time></trkpt><trkpt lat="43.32537562531336" lon="10.508521569394178"><ele>9.0</ele><time>2026-04-06T12:57:20Z</time></trkpt><trkpt lat="43.32546994825825" lon="10.50845853929956"><ele>9.0</ele><time>2026-04-06T12:57:21Z</time></trkpt><trkpt lat="43.32556625923991" lon="10.508402218674558"><ele>9.0</ele><time>2026-04-06T12:57:22Z</time></trkpt><trkpt lat="43.32566410453006" lon="10.50834025394407"><ele>9.0</ele><time>2026-04-06T12:57:23Z</time></trkpt><trkpt lat="43.32575723752026" lon="10.508283858231243"><ele>8.8</ele><time>2026-04-06T12:57:24Z</time></trkpt><trkpt lat="43.32584776707011" lon="10.508220483870408"><ele>8.600000000000001</ele><time>2026-04-06T12:57:25Z</time></trkpt><trkpt lat="43.325936751822255" lon="10.508162181371116"><ele>8.4</ele><time>2026-04-06T12:57:26Z</time></trkpt><trkpt lat="43.32602292922274" lon="10.508099970713737"><ele>8.200000000000001</ele><time>2026-04-06T12:57:27Z</time></trkpt><trkpt lat="43.326107339216385" lon="10.508041784385467"><ele>8.0</ele><time>2026-04-06T12:57:28Z</time></trkpt><trkpt lat="43.326188617151224" lon="10.507988103035089"><ele>8.0</ele><time>2026-04-06T12:57:29Z</time></trkpt><trkpt lat="43.32627244688523" lon="10.507933516695024"><ele>8.0</ele><time>2026-04-06T12:57:30Z</time></trkpt><trkpt lat="43.326355599714766" lon="10.507875288482092"><ele>8.0</ele><time>2026-04-06T12:57:31Z</time></trkpt><trkpt lat="43.32644000375383" lon="10.507811038106292"><ele>8.0</ele><time>2026-04-06T12:57:32Z</time></trkpt><trkpt lat="43.32652510518091" lon="10.50774765185731"><ele>8.0</ele><time>2026-04-06T12:57:33Z</time></trkpt><trkpt lat="43.326622167934396" lon="10.507712868634094"><ele>8.166666666666666</ele><time>2026-04-06T12:57:34Z</time></trkpt><trkpt lat="43.326707134564586" lon="10.507658768202576"><ele>8.333333333333332</ele><time>2026-04-06T12:57:35Z</time></trkpt><trkpt lat="43.32678834613785" lon="10.507605067684745"><ele>8.5</ele><time>2026-04-06T12:57:36Z</time></trkpt><trkpt lat="43.3268658051097" lon="10.507539106673354"><ele>8.666666666666666</ele><time>2026-04-06T12:57:37Z</time></trkpt><trkpt lat="43.326942373992296" lon="10.50748641640846"><ele>8.833333333333334</ele><time>2026-04-06T12:57:38Z</time></trkpt><trkpt lat="43.32701317622285" lon="10.5074267124801"><ele>9.0</ele><time>2026-04-06T12:57:39Z</time></trkpt><trkpt lat="43.327075407741205" lon="10.507383427256796"><ele>9.0</ele><time>2026-04-06T12:57:40Z</time></trkpt><trkpt lat="43.327137081503345" lon="10.507359428792789"><ele>9.0</ele><time>2026-04-06T12:57:41Z</time></trkpt><trkpt lat="43.32720429990362" lon="10.507364721439746"><ele>9.0</ele><time>2026-04-06T12:57:42Z</time></trkpt><trkpt lat="43.32726458714613" lon="10.507243607497134"><ele>9.0</ele><time>2026-04-06T12:57:44Z</time></trkpt><trkpt lat="43.32724016102661" lon="10.507067757987206"><ele>9.0</ele><time>2026-04-06T12:57:46Z</time></trkpt><trkpt lat="43.327269543078515" lon="10.506904150138956"><ele>9.4</ele><time>2026-04-06T12:57:48Z</time></trkpt><trkpt lat="43.32731734620034" lon="10.506821024898695"><ele>9.8</ele><time>2026-04-06T12:57:49Z</time></trkpt><trkpt lat="43.32736603077055" lon="10.506729179270463"><ele>10.200000000000001</ele><time>2026-04-06T12:57:50Z</time></trkpt><trkpt lat="43.3274223881421" lon="10.506628419493847"><ele>10.600000000000001</ele><time>2026-04-06T12:57:51Z</time></trkpt><trkpt lat="43.327477594870544" lon="10.506510842284165"><ele>11.0</ele><time>2026-04-06T12:57:52Z</time></trkpt><trkpt lat="43.327535152544606" lon="10.50638788380256"><ele>11.0</ele><time>2026-04-06T12:57:53Z</time></trkpt><trkpt lat="43.327604868921874" lon="10.506257472242726"><ele>11.0</ele><time>2026-04-06T12:57:54Z</time></trkpt><trkpt lat="43.32767271265337" lon="10.506122260520417"><ele>11.0</ele><time>2026-04-06T12:57:55Z</time></trkpt><trkpt lat="43.32773691116516" lon="10.505967667348042"><ele>11.0</ele><time>2026-04-06T12:57:56Z</time></trkpt><trkpt lat="43.32780812003326" lon="10.505809756380872"><ele>10.5</ele><time>2026-04-06T12:57:57Z</time></trkpt><trkpt lat="43.32788370956971" lon="10.505655986851801"><ele>10.0</ele><time>2026-04-06T12:57:58Z</time></trkpt><trkpt lat="43.32795659612842" lon="10.505515619463544"><ele>9.5</ele><time>2026-04-06T12:57:59Z</time></trkpt><trkpt lat="43.328025373139496" lon="10.505381696808904"><ele>9.0</ele><time>2026-04-06T12:58:00Z</time></trkpt><trkpt lat="43.328091114147405" lon="10.505253276773463"><ele>9.0</ele><time>2026-04-06T12:58:01Z</time></trkpt><trkpt lat="43.32815253314344" lon="10.505133213512813"><ele>9.0</ele><time>2026-04-06T12:58:02Z</time></trkpt><trkpt lat="43.328209663096665" lon="10.505019679273255"><ele>9.0</ele><time>2026-04-06T12:58:03Z</time></trkpt><trkpt lat="43.32826439398725" lon="10.504912944761742"><ele>9.0</ele><time>2026-04-06T12:58:04Z</time></trkpt><trkpt lat="43.328309335471324" lon="10.504816225688652"><ele>9.0</ele><time>2026-04-06T12:58:05Z</time></trkpt><trkpt lat="43.3283534256312" lon="10.504738181086372"><ele>9.0</ele><time>2026-04-06T12:58:06Z</time></trkpt><trkpt lat="43.32842063543805" lon="10.504603050773031"><ele>9.0</ele><time>2026-04-06T12:58:08Z</time></trkpt><trkpt lat="43.32845731897091" lon="10.504525475812274"><ele>9.0</ele><time>2026-04-06T12:58:10Z</time></trkpt><trkpt lat="43.32850094421273" lon="10.504449109457193"><ele>9.0</ele><time>2026-04-06T12:58:13Z</time></trkpt><trkpt lat="43.32854492906925" lon="10.504352503341593"><ele>9.0</ele><time>2026-04-06T12:58:36Z</time></trkpt><trkpt lat="43.328603149606366" lon="10.50420859088907"><ele>9.0</ele><time>2026-04-06T12:58:38Z</time></trkpt><trkpt lat="43.32863763843529" lon="10.504134427227049"><ele>9.0</ele><time>2026-04-06T12:58:39Z</time></trkpt><trkpt lat="43.32867540979105" lon="10.504053663548769"><ele>9.0</ele><time>2026-04-06T12:58:40Z</time></trkpt><trkpt lat="43.32872079408747" lon="10.50396357741333"><ele>9.0</ele><time>2026-04-06T12:58:41Z</time></trkpt><trkpt lat="43.32877449431379" lon="10.503852413865813"><ele>9.0</ele><time>2026-04-06T12:58:42Z</time></trkpt><trkpt lat="43.32883164083954" lon="10.50373819226541"><ele>9.0</ele><time>2026-04-06T12:58:43Z</time></trkpt><trkpt lat="43.32889095681391" lon="10.50361189047978"><ele>9.0</ele><time>2026-04-06T12:58:44Z</time></trkpt><trkpt lat="43.32895685001773" lon="10.503483673277936"><ele>9.0</ele><time>2026-04-06T12:58:45Z</time></trkpt><trkpt lat="43.32902329155722" lon="10.50335124290228"><ele>9.0</ele><time>2026-04-06T12:58:46Z</time></trkpt><trkpt lat="43.329090669539355" lon="10.503217682670398"><ele>9.0</ele><time>2026-04-06T12:58:47Z</time></trkpt><trkpt lat="43.32916110397269" lon="10.5030763690864"><ele>9.0</ele><time>2026-04-06T12:58:48Z</time></trkpt><trkpt lat="43.32922558882861" lon="10.502925438460576"><ele>9.0</ele><time>2026-04-06T12:58:49Z</time></trkpt><trkpt lat="43.32930410035466" lon="10.502778667785096"><ele>9.0</ele><time>2026-04-06T12:58:50Z</time></trkpt><trkpt lat="43.32938285366569" lon="10.502625597167382"><ele>9.0</ele><time>2026-04-06T12:58:51Z</time></trkpt><trkpt lat="43.329459183570506" lon="10.502465304214445"><ele>9.0</ele><time>2026-04-06T12:58:52Z</time></trkpt><trkpt lat="43.32953461829098" lon="10.502309156707499"><ele>9.0</ele><time>2026-04-06T12:58:53Z</time></trkpt><trkpt lat="43.32961408280242" lon="10.502151082892368"><ele>9.0</ele><time>2026-04-06T12:58:54Z</time></trkpt><trkpt lat="43.329694032041786" lon="10.501990353296666"><ele>9.0</ele><time>2026-04-06T12:58:55Z</time></trkpt><trkpt lat="43.329775319400305" lon="10.501827445444967"><ele>8.666666666666666</ele><time>2026-04-06T12:58:56Z</time></trkpt><trkpt lat="43.32986530517488" lon="10.501664453921444"><ele>8.333333333333332</ele><time>2026-04-06T12:58:57Z</time></trkpt><trkpt lat="43.32994602141492" lon="10.501491059135706"><ele>8.0</ele><time>2026-04-06T12:58:58Z</time></trkpt><trkpt lat="43.33003292026611" lon="10.501318194799266"><ele>8.0</ele><time>2026-04-06T12:58:59Z</time></trkpt><trkpt lat="43.33011991434154" lon="10.50115181800336"><ele>8.0</ele><time>2026-04-06T12:59:00Z</time></trkpt><trkpt lat="43.33018370041991" lon="10.500988795807434"><ele>8.0</ele><time>2026-04-06T12:59:01Z</time></trkpt><trkpt lat="43.33026749547534" lon="10.500814907792494"><ele>8.0</ele><time>2026-04-06T12:59:02Z</time></trkpt><trkpt lat="43.330350356958" lon="10.500648444394185"><ele>8.0</ele><time>2026-04-06T12:59:03Z</time></trkpt><trkpt lat="43.33044386876065" lon="10.500492613509254"><ele>8.0</ele><time>2026-04-06T12:59:04Z</time></trkpt><trkpt lat="43.330530104584916" lon="10.500324021567746"><ele>8.0</ele><time>2026-04-06T12:59:05Z</time></trkpt><trkpt lat="43.33061347224397" lon="10.500145307769806"><ele>8.0</ele><time>2026-04-06T12:59:06Z</time></trkpt><trkpt lat="43.3307029974036" lon="10.499976481114759"><ele>8.0</ele><time>2026-04-06T12:59:07Z</time></trkpt><trkpt lat="43.330787540775326" lon="10.499801568227273"><ele>8.0</ele><time>2026-04-06T12:59:08Z</time></trkpt><trkpt lat="43.33087416517453" lon="10.499618546855876"><ele>8.0</ele><time>2026-04-06T12:59:09Z</time></trkpt><trkpt lat="43.33096770867754" lon="10.499427739835292"><ele>8.0</ele><time>2026-04-06T12:59:10Z</time></trkpt><trkpt lat="43.33107289868378" lon="10.499239308319197"><ele>8.0</ele><time>2026-04-06T12:59:11Z</time></trkpt><trkpt lat="43.33117449073589" lon="10.49904036320145"><ele>8.0</ele><time>2026-04-06T12:59:12Z</time></trkpt><trkpt lat="43.331277707535314" lon="10.498844594934727"><ele>8.0</ele><time>2026-04-06T12:59:13Z</time></trkpt><trkpt lat="43.33138714987471" lon="10.498639207995895"><ele>8.0</ele><time>2026-04-06T12:59:14Z</time></trkpt><trkpt lat="43.331489361539816" lon="10.498429875916226"><ele>7.666666666666666</ele><time>2026-04-06T12:59:15Z</time></trkpt><trkpt lat="43.33158738055463" lon="10.49822113735162"><ele>7.333333333333334</ele><time>2026-04-06T12:59:16Z</time></trkpt><trkpt lat="43.331679660477214" lon="10.498020880936966"><ele>7.0</ele><time>2026-04-06T12:59:17Z</time></trkpt><trkpt lat="43.331778010009565" lon="10.497815009718648"><ele>7.0</ele><time>2026-04-06T12:59:18Z</time></trkpt><trkpt lat="43.33187929357877" lon="10.497613377338775"><ele>7.0</ele><time>2026-04-06T12:59:19Z</time></trkpt><trkpt lat="43.33197785681222" lon="10.497406407306459"><ele>7.0</ele><time>2026-04-06T12:59:20Z</time></trkpt><trkpt lat="43.33208064799234" lon="10.497198010598353"><ele>7.0</ele><time>2026-04-06T12:59:21Z</time></trkpt><trkpt lat="43.33217230184309" lon="10.496999155649865"><ele>7.0</ele><time>2026-04-06T12:59:22Z</time></trkpt><trkpt lat="43.33226871534525" lon="10.496792783048667"><ele>7.0</ele><time>2026-04-06T12:59:23Z</time></trkpt><trkpt lat="43.33236860902666" lon="10.496587198501615"><ele>7.0</ele><time>2026-04-06T12:59:24Z</time></trkpt><trkpt lat="43.332482302689556" lon="10.496377573765393"><ele>7.0</ele><time>2026-04-06T12:59:25Z</time></trkpt><trkpt lat="43.332585146271676" lon="10.496160841158229"><ele>7.0</ele><time>2026-04-06T12:59:26Z</time></trkpt><trkpt lat="43.332692850882815" lon="10.495945505959632"><ele>6.666666666666667</ele><time>2026-04-06T12:59:27Z</time></trkpt><trkpt lat="43.33280176948801" lon="10.495721139829595"><ele>6.333333333333334</ele><time>2026-04-06T12:59:28Z</time></trkpt><trkpt lat="43.332914704254165" lon="10.495500098108156"><ele>6.0</ele><time>2026-04-06T12:59:29Z</time></trkpt><trkpt lat="43.33302166767457" lon="10.4952793741024"><ele>6.333333333333334</ele><time>2026-04-06T12:59:30Z</time></trkpt><trkpt lat="43.33313992615511" lon="10.49505127058184"><ele>6.666666666666667</ele><time>2026-04-06T12:59:31Z</time></trkpt><trkpt lat="43.333251324511465" lon="10.49482683666676"><ele>7.0</ele><time>2026-04-06T12:59:32Z</time></trkpt><trkpt lat="43.33335480426195" lon="10.49460164727047"><ele>7.333333333333334</ele><time>2026-04-06T12:59:33Z</time></trkpt><trkpt lat="43.33347102843296" lon="10.494377207947073"><ele>7.666666666666666</ele><time>2026-04-06T12:59:34Z</time></trkpt><trkpt lat="43.33358436245963" lon="10.494144559170845"><ele>8.0</ele><time>2026-04-06T12:59:35Z</time></trkpt><trkpt lat="43.33369190713849" lon="10.493912470783563"><ele>8.333333333333332</ele><time>2026-04-06T12:59:36Z</time></trkpt><trkpt lat="43.333800009110696" lon="10.493686669771808"><ele>8.666666666666666</ele><time>2026-04-06T12:59:37Z</time></trkpt><trkpt lat="43.333908967414956" lon="10.493463483404943"><ele>9.0</ele><time>2026-04-06T12:59:38Z</time></trkpt><trkpt lat="43.33402180551966" lon="10.493239975309052"><ele>9.0</ele><time>2026-04-06T12:59:39Z</time></trkpt><trkpt lat="43.334126792197715" lon="10.493013306574257"><ele>9.0</ele><time>2026-04-06T12:59:40Z</time></trkpt><trkpt lat="43.33423480870414" lon="10.492793509413882"><ele>9.0</ele><time>2026-04-06T12:59:41Z</time></trkpt><trkpt lat="43.33434263047372" lon="10.492565139851381"><ele>8.666666666666666</ele><time>2026-04-06T12:59:42Z</time></trkpt><trkpt lat="43.33445332658454" lon="10.492338493587622"><ele>8.333333333333332</ele><time>2026-04-06T12:59:43Z</time></trkpt><trkpt lat="43.33456960399762" lon="10.49211129513688"><ele>8.0</ele><time>2026-04-06T12:59:44Z</time></trkpt><trkpt lat="43.33468344322457" lon="10.49188995636334"><ele>7.333333333333333</ele><time>2026-04-06T12:59:45Z</time></trkpt><trkpt lat="43.33479938726896" lon="10.491660823732248"><ele>6.666666666666666</ele><time>2026-04-06T12:59:46Z</time></trkpt><trkpt lat="43.33490723191501" lon="10.49142650114789"><ele>6.0</ele><time>2026-04-06T12:59:47Z</time></trkpt><trkpt lat="43.33500682466231" lon="10.491192362551224"><ele>6.0</ele><time>2026-04-06T12:59:48Z</time></trkpt><trkpt lat="43.33511365380082" lon="10.49096503962869"><ele>6.0</ele><time>2026-04-06T12:59:49Z</time></trkpt><trkpt lat="43.3352239682935" lon="10.490736334350318"><ele>6.0</ele><time>2026-04-06T12:59:50Z</time></trkpt><trkpt lat="43.335339587649976" lon="10.490511928853078"><ele>7.0</ele><time>2026-04-06T12:59:51Z</time></trkpt><trkpt lat="43.335448250686895" lon="10.490297316627496"><ele>8.0</ele><time>2026-04-06T12:59:52Z</time></trkpt><trkpt lat="43.33555751578165" lon="10.49008103749647"><ele>9.0</ele><time>2026-04-06T12:59:53Z</time></trkpt><trkpt lat="43.33566332149476" lon="10.489871750849705"><ele>9.0</ele><time>2026-04-06T12:59:54Z</time></trkpt><trkpt lat="43.33576836017411" lon="10.489667529223723"><ele>9.0</ele><time>2026-04-06T12:59:55Z</time></trkpt><trkpt lat="43.3358671241697" lon="10.48946289856984"><ele>9.0</ele><time>2026-04-06T12:59:56Z</time></trkpt><trkpt lat="43.33596788739043" lon="10.48925865253099"><ele>9.0</ele><time>2026-04-06T12:59:57Z</time></trkpt><trkpt lat="43.33606885905608" lon="10.489051343162476"><ele>9.0</ele><time>2026-04-06T12:59:58Z</time></trkpt><trkpt lat="43.33617104789649" lon="10.488841723960578"><ele>9.0</ele><time>2026-04-06T12:59:59Z</time></trkpt><trkpt lat="43.33627620857663" lon="10.488629661581598"><ele>9.0</ele><time>2026-04-06T13:00:00Z</time></trkpt><trkpt lat="43.336384683745344" lon="10.488412373819473"><ele>9.0</ele><time>2026-04-06T13:00:01Z</time></trkpt><trkpt lat="43.336494316289546" lon="10.488196831491999"><ele>9.0</ele><time>2026-04-06T13:00:02Z</time></trkpt><trkpt lat="43.336605719196115" lon="10.487978930972142"><ele>9.0</ele><time>2026-04-06T13:00:03Z</time></trkpt><trkpt lat="43.33671441485007" lon="10.48775336860605"><ele>9.0</ele><time>2026-04-06T13:00:04Z</time></trkpt><trkpt lat="43.33682286971354" lon="10.487527885935581"><ele>9.0</ele><time>2026-04-06T13:00:05Z</time></trkpt><trkpt lat="43.336933248796036" lon="10.487299216465477"><ele>9.0</ele><time>2026-04-06T13:00:06Z</time></trkpt><trkpt lat="43.33704821307213" lon="10.4870689584526"><ele>9.0</ele><time>2026-04-06T13:00:07Z</time></trkpt><trkpt lat="43.337163857565" lon="10.486835126475276"><ele>9.0</ele><time>2026-04-06T13:00:08Z</time></trkpt><trkpt lat="43.33728189661167" lon="10.486597814849853"><ele>9.0</ele><time>2026-04-06T13:00:09Z</time></trkpt><trkpt lat="43.33739740265839" lon="10.486352776973684"><ele>9.0</ele><time>2026-04-06T13:00:10Z</time></trkpt><trkpt lat="43.337517594113876" lon="10.486110092800711"><ele>9.0</ele><time>2026-04-06T13:00:11Z</time></trkpt><trkpt lat="43.33764267013303" lon="10.485865350404042"><ele>9.0</ele><time>2026-04-06T13:00:12Z</time></trkpt><trkpt lat="43.337770624722914" lon="10.485612179211985"><ele>9.0</ele><time>2026-04-06T13:00:13Z</time></trkpt><trkpt lat="43.33789693696602" lon="10.48535449927425"><ele>8.5</ele><time>2026-04-06T13:00:14Z</time></trkpt><trkpt lat="43.33802461105167" lon="10.485098922631952"><ele>8.0</ele><time>2026-04-06T13:00:15Z</time></trkpt><trkpt lat="43.33815426934892" lon="10.484836257347125"><ele>8.0</ele><time>2026-04-06T13:00:16Z</time></trkpt><trkpt lat="43.33828470034972" lon="10.48457201805903"><ele>8.0</ele><time>2026-04-06T13:00:17Z</time></trkpt><trkpt lat="43.33841606692426" lon="10.484305936027152"><ele>8.0</ele><time>2026-04-06T13:00:18Z</time></trkpt><trkpt lat="43.338548692493596" lon="10.484037084345015"><ele>8.0</ele><time>2026-04-06T13:00:19Z</time></trkpt><trkpt lat="43.33867700513915" lon="10.483769025796198"><ele>8.0</ele><time>2026-04-06T13:00:20Z</time></trkpt><trkpt lat="43.33880236097489" lon="10.483504424561378"><ele>8.0</ele><time>2026-04-06T13:00:21Z</time></trkpt><trkpt lat="43.33892909849031" lon="10.483249410220287"><ele>8.0</ele><time>2026-04-06T13:00:22Z</time></trkpt><trkpt lat="43.339054888031704" lon="10.48299865764776"><ele>8.0</ele><time>2026-04-06T13:00:23Z</time></trkpt><trkpt lat="43.33917747189367" lon="10.482746328435763"><ele>8.0</ele><time>2026-04-06T13:00:24Z</time></trkpt><trkpt lat="43.33929638216954" lon="10.48249371895819"><ele>8.0</ele><time>2026-04-06T13:00:25Z</time></trkpt><trkpt lat="43.339417181717906" lon="10.482247711359092"><ele>8.0</ele><time>2026-04-06T13:00:26Z</time></trkpt><trkpt lat="43.33953324181088" lon="10.482007652927715"><ele>8.0</ele><time>2026-04-06T13:00:27Z</time></trkpt><trkpt lat="43.33964708166576" lon="10.481769580130917"><ele>7.666666666666666</ele><time>2026-04-06T13:00:28Z</time></trkpt><trkpt lat="43.33976372062972" lon="10.481533578133975"><ele>7.333333333333334</ele><time>2026-04-06T13:00:29Z</time></trkpt><trkpt lat="43.339876836662434" lon="10.481298755745767"><ele>7.0</ele><time>2026-04-06T13:00:30Z</time></trkpt><trkpt lat="43.3399956268414" lon="10.481066401038982"><ele>6.666666666666667</ele><time>2026-04-06T13:00:31Z</time></trkpt><trkpt lat="43.34011090911586" lon="10.480837244146707"><ele>6.333333333333334</ele><time>2026-04-06T13:00:32Z</time></trkpt><trkpt lat="43.340222867456276" lon="10.48061253907794"><ele>6.0</ele><time>2026-04-06T13:00:33Z</time></trkpt><trkpt lat="43.34033443286849" lon="10.480392139785424"><ele>5.666666666666667</ele><time>2026-04-06T13:00:34Z</time></trkpt><trkpt lat="43.34044391593312" lon="10.480176190494667"><ele>5.333333333333334</ele><time>2026-04-06T13:00:35Z</time></trkpt><trkpt lat="43.340551834722106" lon="10.479959373315992"><ele>5.0</ele><time>2026-04-06T13:00:36Z</time></trkpt><trkpt lat="43.34065707373909" lon="10.479738809831332"><ele>5.333333333333334</ele><time>2026-04-06T13:00:37Z</time></trkpt><trkpt lat="43.34076114092518" lon="10.479522246108198"><ele>5.666666666666667</ele><time>2026-04-06T13:00:38Z</time></trkpt><trkpt lat="43.34086555175251" lon="10.479308067374834"><ele>6.0</ele><time>2026-04-06T13:00:39Z</time></trkpt><trkpt lat="43.34097097830222" lon="10.479093832389768"><ele>6.0</ele><time>2026-04-06T13:00:40Z</time></trkpt><trkpt lat="43.34107678245462" lon="10.478882458545305"><ele>6.0</ele><time>2026-04-06T13:00:41Z</time></trkpt><trkpt lat="43.341179475160295" lon="10.478665927354259"><ele>6.0</ele><time>2026-04-06T13:00:42Z</time></trkpt><trkpt lat="43.34128336946734" lon="10.478449956262553"><ele>6.666666666666666</ele><time>2026-04-06T13:00:43Z</time></trkpt><trkpt lat="43.34138955664004" lon="10.478231047411164"><ele>7.333333333333333</ele><time>2026-04-06T13:00:44Z</time></trkpt><trkpt lat="43.34149743485896" lon="10.478015971998387"><ele>8.0</ele><time>2026-04-06T13:00:45Z</time></trkpt><trkpt lat="43.34160650642613" lon="10.477800210405903"><ele>8.0</ele><time>2026-04-06T13:00:46Z</time></trkpt><trkpt lat="43.3417173492859" lon="10.477578419333884"><ele>8.0</ele><time>2026-04-06T13:00:47Z</time></trkpt><trkpt lat="43.341827108533415" lon="10.477351145317682"><ele>8.0</ele><time>2026-04-06T13:00:48Z</time></trkpt><trkpt lat="43.341937932230856" lon="10.477125078014378"><ele>8.0</ele><time>2026-04-06T13:00:49Z</time></trkpt><trkpt lat="43.34204927139829" lon="10.476896304732353"><ele>8.0</ele><time>2026-04-06T13:00:50Z</time></trkpt><trkpt lat="43.34215988966396" lon="10.476664720999525"><ele>8.0</ele><time>2026-04-06T13:00:51Z</time></trkpt><trkpt lat="43.34227203037359" lon="10.476430017068905"><ele>7.666666666666666</ele><time>2026-04-06T13:00:52Z</time></trkpt><trkpt lat="43.34238597800697" lon="10.476198644813808"><ele>7.333333333333334</ele><time>2026-04-06T13:00:53Z</time></trkpt><trkpt lat="43.34249684716478" lon="10.475967244108734"><ele>7.0</ele><time>2026-04-06T13:00:54Z</time></trkpt><trkpt lat="43.342607522136994" lon="10.47573193216573"><ele>7.0</ele><time>2026-04-06T13:00:55Z</time></trkpt><trkpt lat="43.34272463914621" lon="10.475493379003668"><ele>7.0</ele><time>2026-04-06T13:00:56Z</time></trkpt><trkpt lat="43.342845295666855" lon="10.47524886379359"><ele>7.0</ele><time>2026-04-06T13:00:57Z</time></trkpt><trkpt lat="43.3429652433498" lon="10.47500085402544"><ele>6.333333333333334</ele><time>2026-04-06T13:00:58Z</time></trkpt><trkpt lat="43.343088281400924" lon="10.474749755374875"><ele>5.666666666666667</ele><time>2026-04-06T13:00:59Z</time></trkpt><trkpt lat="43.343213471593124" lon="10.474494358179609"><ele>5.0</ele><time>2026-04-06T13:01:00Z</time></trkpt><trkpt lat="43.34333876076297" lon="10.474233119136024"><ele>5.0</ele><time>2026-04-06T13:01:01Z</time></trkpt><trkpt lat="43.3434621627892" lon="10.47397148950184"><ele>5.0</ele><time>2026-04-06T13:01:02Z</time></trkpt><trkpt lat="43.34359221707954" lon="10.47371355446773"><ele>5.5</ele><time>2026-04-06T13:01:03Z</time></trkpt><trkpt lat="43.34371904390555" lon="10.47345028761688"><ele>6.0</ele><time>2026-04-06T13:01:04Z</time></trkpt><trkpt lat="43.34384165945345" lon="10.473190876515398"><ele>5.0</ele><time>2026-04-06T13:01:05Z</time></trkpt><trkpt lat="43.34396187059636" lon="10.472932871321596"><ele>4.0</ele><time>2026-04-06T13:01:06Z</time></trkpt><trkpt lat="43.344080763416386" lon="10.472672664957845"><ele>3.0</ele><time>2026-04-06T13:01:07Z</time></trkpt><trkpt lat="43.34420041215216" lon="10.47241530132058"><ele>3.0</ele><time>2026-04-06T13:01:08Z</time></trkpt><trkpt lat="43.34431948444716" lon="10.472158565267563"><ele>3.0</ele><time>2026-04-06T13:01:09Z</time></trkpt><trkpt lat="43.34443656894302" lon="10.471912102927748"><ele>3.0</ele><time>2026-04-06T13:01:10Z</time></trkpt><trkpt lat="43.344548393693074" lon="10.471680554282047"><ele>2.6666666666666665</ele><time>2026-04-06T13:01:11Z</time></trkpt><trkpt lat="43.344655758674186" lon="10.471459597048685"><ele>2.333333333333333</ele><time>2026-04-06T13:01:12Z</time></trkpt><trkpt lat="43.34476156390935" lon="10.471243402110094"><ele>2.0</ele><time>2026-04-06T13:01:13Z</time></trkpt><trkpt lat="43.34486434763987" lon="10.471031805826124"><ele>2.6666666666666665</ele><time>2026-04-06T13:01:14Z</time></trkpt><trkpt lat="43.3449688488677" lon="10.47082038136579"><ele>3.333333333333333</ele><time>2026-04-06T13:01:15Z</time></trkpt><trkpt lat="43.34507169097566" lon="10.4706064010989"><ele>4.0</ele><time>2026-04-06T13:01:16Z</time></trkpt><trkpt lat="43.34517444484766" lon="10.4703907440128"><ele>4.333333333333333</ele><time>2026-04-06T13:01:17Z</time></trkpt><trkpt lat="43.34527890338605" lon="10.470173955148553"><ele>4.666666666666667</ele><time>2026-04-06T13:01:18Z</time></trkpt><trkpt lat="43.3453853244006" lon="10.469955949189147"><ele>5.0</ele><time>2026-04-06T13:01:19Z</time></trkpt><trkpt lat="43.34549445721724" lon="10.469738790189211"><ele>4.0</ele><time>2026-04-06T13:01:20Z</time></trkpt><trkpt lat="43.34560041123444" lon="10.469518034547033"><ele>3.0</ele><time>2026-04-06T13:01:21Z</time></trkpt><trkpt lat="43.34570691477199" lon="10.469297671678873"><ele>2.0</ele><time>2026-04-06T13:01:22Z</time></trkpt><trkpt lat="43.34581182177925" lon="10.469076670284702"><ele>2.0</ele><time>2026-04-06T13:01:23Z</time></trkpt><trkpt lat="43.34591618394953" lon="10.468857250572844"><ele>2.0</ele><time>2026-04-06T13:01:24Z</time></trkpt><trkpt lat="43.34602358189712" lon="10.468639420033423"><ele>2.0</ele><time>2026-04-06T13:01:25Z</time></trkpt><trkpt lat="43.34613226353735" lon="10.46842405669039"><ele>2.0</ele><time>2026-04-06T13:01:26Z</time></trkpt><trkpt lat="43.346236640667755" lon="10.468203280218109"><ele>2.0</ele><time>2026-04-06T13:01:27Z</time></trkpt><trkpt lat="43.34634231859631" lon="10.467981288976251"><ele>2.0</ele><time>2026-04-06T13:01:28Z</time></trkpt><trkpt lat="43.34644868716626" lon="10.467759968905638"><ele>2.0</ele><time>2026-04-06T13:01:29Z</time></trkpt><trkpt lat="43.34655784009256" lon="10.467539151430097"><ele>2.0</ele><time>2026-04-06T13:01:30Z</time></trkpt><trkpt lat="43.34666617616562" lon="10.467318976746691"><ele>2.0</ele><time>2026-04-06T13:01:31Z</time></trkpt><trkpt lat="43.34677359001711" lon="10.467097575521716"><ele>2.0</ele><time>2026-04-06T13:01:32Z</time></trkpt><trkpt lat="43.346879230782804" lon="10.466875148132056"><ele>2.0</ele><time>2026-04-06T13:01:33Z</time></trkpt><trkpt lat="43.34698770809171" lon="10.466654280137465"><ele>2.0</ele><time>2026-04-06T13:01:34Z</time></trkpt><trkpt lat="43.34709540224736" lon="10.466433389603365"><ele>2.0</ele><time>2026-04-06T13:01:35Z</time></trkpt><trkpt lat="43.34720115485947" lon="10.466212553628578"><ele>2.0</ele><time>2026-04-06T13:01:36Z</time></trkpt><trkpt lat="43.34730483943255" lon="10.465995816015283"><ele>2.0</ele><time>2026-04-06T13:01:37Z</time></trkpt><trkpt lat="43.34741055740299" lon="10.46579211475748"><ele>2.0</ele><time>2026-04-06T13:01:38Z</time></trkpt><trkpt lat="43.34750935557347" lon="10.465597307612617"><ele>2.0</ele><time>2026-04-06T13:01:39Z</time></trkpt><trkpt lat="43.347590607621136" lon="10.46541428841753"><ele>2.0</ele><time>2026-04-06T13:01:40Z</time></trkpt><trkpt lat="43.347678449858165" lon="10.465238927615566"><ele>2.0</ele><time>2026-04-06T13:01:41Z</time></trkpt><trkpt lat="43.347757189736704" lon="10.465075165532872"><ele>2.0</ele><time>2026-04-06T13:01:42Z</time></trkpt><trkpt lat="43.347837087006404" lon="10.464915680482932"><ele>2.0</ele><time>2026-04-06T13:01:43Z</time></trkpt><trkpt lat="43.34792295337279" lon="10.46474829850381"><ele>2.0</ele><time>2026-04-06T13:01:44Z</time></trkpt><trkpt lat="43.348009506778375" lon="10.464576234738077"><ele>2.75</ele><time>2026-04-06T13:01:45Z</time></trkpt><trkpt lat="43.34808946100334" lon="10.4644131327258"><ele>3.5</ele><time>2026-04-06T13:01:46Z</time></trkpt><trkpt lat="43.34816519774699" lon="10.46425725846972"><ele>4.25</ele><time>2026-04-06T13:01:47Z</time></trkpt><trkpt lat="43.34823599596626" lon="10.464103022002103"><ele>5.0</ele><time>2026-04-06T13:01:48Z</time></trkpt><trkpt lat="43.34830281150719" lon="10.463953015227599"><ele>5.0</ele><time>2026-04-06T13:01:49Z</time></trkpt><trkpt lat="43.34836566305536" lon="10.463810451044814"><ele>5.0</ele><time>2026-04-06T13:01:50Z</time></trkpt><trkpt lat="43.34842895062279" lon="10.463687062143247"><ele>5.0</ele><time>2026-04-06T13:01:51Z</time></trkpt><trkpt lat="43.348489492337755" lon="10.463569856821728"><ele>5.0</ele><time>2026-04-06T13:01:52Z</time></trkpt><trkpt lat="43.348551228505684" lon="10.463439689521138"><ele>5.0</ele><time>2026-04-06T13:01:53Z</time></trkpt><trkpt lat="43.34860265854968" lon="10.46334007182692"><ele>5.0</ele><time>2026-04-06T13:01:54Z</time></trkpt><trkpt lat="43.34865378574586" lon="10.463245094052917"><ele>5.0</ele><time>2026-04-06T13:01:55Z</time></trkpt><trkpt lat="43.34871024502408" lon="10.463155175834585"><ele>5.0</ele><time>2026-04-06T13:01:56Z</time></trkpt><trkpt lat="43.348774395495305" lon="10.463078378760745"><ele>5.0</ele><time>2026-04-06T13:01:57Z</time></trkpt><trkpt lat="43.34884986645367" lon="10.463022384226269"><ele>5.0</ele><time>2026-04-06T13:01:58Z</time></trkpt><trkpt lat="43.34892743572191" lon="10.462961336415535"><ele>5.0</ele><time>2026-04-06T13:01:59Z</time></trkpt><trkpt lat="43.348990418040664" lon="10.462888205282091"><ele>5.0</ele><time>2026-04-06T13:02:00Z</time></trkpt><trkpt lat="43.34902268973482" lon="10.46280637384205"><ele>5.0</ele><time>2026-04-06T13:02:01Z</time></trkpt><trkpt lat="43.349041189279845" lon="10.462629580295468"><ele>5.0</ele><time>2026-04-06T13:02:03Z</time></trkpt><trkpt lat="43.34904455866942" lon="10.462524830948238"><ele>5.0</ele><time>2026-04-06T13:02:04Z</time></trkpt><trkpt lat="43.349068638663056" lon="10.462418247328236"><ele>5.0</ele><time>2026-04-06T13:02:05Z</time></trkpt><trkpt lat="43.34911304439683" lon="10.462301514739133"><ele>5.0</ele><time>2026-04-06T13:02:06Z</time></trkpt><trkpt lat="43.34917310651731" lon="10.462186416175856"><ele>5.0</ele><time>2026-04-06T13:02:07Z</time></trkpt><trkpt lat="43.34924062929626" lon="10.462065456517172"><ele>5.0</ele><time>2026-04-06T13:02:08Z</time></trkpt><trkpt lat="43.349310041809495" lon="10.461920466563114"><ele>5.0</ele><time>2026-04-06T13:02:09Z</time></trkpt><trkpt lat="43.349386744830475" lon="10.46175770284388"><ele>5.0</ele><time>2026-04-06T13:02:10Z</time></trkpt><trkpt lat="43.34946868935958" lon="10.461583532363672"><ele>5.0</ele><time>2026-04-06T13:02:11Z</time></trkpt><trkpt lat="43.34955334501472" lon="10.461401643457702"><ele>5.0</ele><time>2026-04-06T13:02:12Z</time></trkpt><trkpt lat="43.349649322643344" lon="10.46120887166318"><ele>5.0</ele><time>2026-04-06T13:02:13Z</time></trkpt><trkpt lat="43.34974732102891" lon="10.461010737589865"><ele>5.0</ele><time>2026-04-06T13:02:14Z</time></trkpt><trkpt lat="43.34984303295178" lon="10.46081028759113"><ele>5.0</ele><time>2026-04-06T13:02:15Z</time></trkpt><trkpt lat="43.34994240273065" lon="10.460612157589342"><ele>5.0</ele><time>2026-04-06T13:02:16Z</time></trkpt><trkpt lat="43.35004062423979" lon="10.46041003231373"><ele>5.0</ele><time>2026-04-06T13:02:17Z</time></trkpt><trkpt lat="43.350139246433116" lon="10.460206900986531"><ele>5.0</ele><time>2026-04-06T13:02:18Z</time></trkpt><trkpt lat="43.35023616768727" lon="10.460009509842758"><ele>5.0</ele><time>2026-04-06T13:02:19Z</time></trkpt><trkpt lat="43.35032883953719" lon="10.459813780434722"><ele>5.0</ele><time>2026-04-06T13:02:20Z</time></trkpt><trkpt lat="43.35042132243971" lon="10.459622411330317"><ele>5.0</ele><time>2026-04-06T13:02:21Z</time></trkpt><trkpt lat="43.350516091402184" lon="10.459438630721948"><ele>4.333333333333334</ele><time>2026-04-06T13:02:22Z</time></trkpt><trkpt lat="43.350606094233356" lon="10.45925810245881"><ele>3.666666666666667</ele><time>2026-04-06T13:02:23Z</time></trkpt><trkpt lat="43.35069492405566" lon="10.45907871740469"><ele>3.0</ele><time>2026-04-06T13:02:24Z</time></trkpt><trkpt lat="43.35077836492398" lon="10.45890458115925"><ele>2.75</ele><time>2026-04-06T13:02:25Z</time></trkpt><trkpt lat="43.35084367877606" lon="10.45877355533288"><ele>2.5</ele><time>2026-04-06T13:02:26Z</time></trkpt><trkpt lat="43.35090331554983" lon="10.458650322741935"><ele>2.25</ele><time>2026-04-06T13:02:27Z</time></trkpt><trkpt lat="43.35096374739418" lon="10.458515997565508"><ele>2.0</ele><time>2026-04-06T13:02:28Z</time></trkpt><trkpt lat="43.351028387574004" lon="10.458385136454465"><ele>2.0</ele><time>2026-04-06T13:02:29Z</time></trkpt><trkpt lat="43.351096057743256" lon="10.458250104616068"><ele>2.0</ele><time>2026-04-06T13:02:30Z</time></trkpt><trkpt lat="43.35116781872552" lon="10.458105150607327"><ele>2.0</ele><time>2026-04-06T13:02:31Z</time></trkpt><trkpt lat="43.351236773169305" lon="10.457952125075447"><ele>2.0</ele><time>2026-04-06T13:02:32Z</time></trkpt><trkpt lat="43.35130000419028" lon="10.45781499281501"><ele>2.0</ele><time>2026-04-06T13:02:33Z</time></trkpt><trkpt lat="43.35135791471427" lon="10.45769435911268"><ele>2.0</ele><time>2026-04-06T13:02:34Z</time></trkpt><trkpt lat="43.351415775461916" lon="10.4575807383629"><ele>2.0</ele><time>2026-04-06T13:02:35Z</time></trkpt><trkpt lat="43.35146948716013" lon="10.45747202060737"><ele>2.0</ele><time>2026-04-06T13:02:36Z</time></trkpt><trkpt lat="43.35151883071316" lon="10.45736771337949"><ele>2.0</ele><time>2026-04-06T13:02:37Z</time></trkpt><trkpt lat="43.35156699620039" lon="10.457267764643857"><ele>1.9999999999999998</ele><time>2026-04-06T13:02:38Z</time></trkpt><trkpt lat="43.351603828409935" lon="10.45718130069717"><ele>2.0</ele><time>2026-04-06T13:02:39Z</time></trkpt><trkpt lat="43.35163881349259" lon="10.457106590159029"><ele>2.0</ele><time>2026-04-06T13:02:40Z</time></trkpt><trkpt lat="43.35169099918863" lon="10.457008560391207"><ele>2.0</ele><time>2026-04-06T13:02:42Z</time></trkpt><trkpt lat="43.3517561559376" lon="10.456957608099483"><ele>1.9999999999999998</ele><time>2026-04-06T13:02:45Z</time></trkpt><trkpt lat="43.35185223142273" lon="10.456936058177519"><ele>2.0</ele><time>2026-04-06T13:02:47Z</time></trkpt><trkpt lat="43.35191525966025" lon="10.456919296592721"><ele>1.9999999999999998</ele><time>2026-04-06T13:02:48Z</time></trkpt><trkpt lat="43.35198279563296" lon="10.456885932277514"><ele>2.0</ele><time>2026-04-06T13:02:49Z</time></trkpt><trkpt lat="43.352041347817334" lon="10.456850428066813"><ele>2.0</ele><time>2026-04-06T13:02:50Z</time></trkpt><trkpt lat="43.352129710957065" lon="10.45678550567183"><ele>2.0</ele><time>2026-04-06T13:02:52Z</time></trkpt><trkpt lat="43.35221187916539" lon="10.456700375720665"><ele>1.9999999999999998</ele><time>2026-04-06T13:02:54Z</time></trkpt><trkpt lat="43.35226476381198" lon="10.456595573201065"><ele>2.0</ele><time>2026-04-06T13:02:56Z</time></trkpt><trkpt lat="43.35229731314371" lon="10.45648749894832"><ele>1.8333333333333333</ele><time>2026-04-06T13:02:58Z</time></trkpt><trkpt lat="43.35236279882142" lon="10.456419290135146"><ele>1.6666666666666665</ele><time>2026-04-06T13:03:00Z</time></trkpt><trkpt lat="43.35244270870003" lon="10.45640922109103"><ele>1.5</ele><time>2026-04-06T13:03:02Z</time></trkpt><trkpt lat="43.35254784669" lon="10.456374097412414"><ele>1.3333333333333333</ele><time>2026-04-06T13:03:04Z</time></trkpt><trkpt lat="43.35261627058297" lon="10.456347571193415"><ele>1.1666666666666665</ele><time>2026-04-06T13:03:05Z</time></trkpt><trkpt lat="43.352685830255595" lon="10.45631918858699"><ele>1.0</ele><time>2026-04-06T13:03:06Z</time></trkpt><trkpt lat="43.352757764479506" lon="10.456289031771203"><ele>1.0</ele><time>2026-04-06T13:03:07Z</time></trkpt><trkpt lat="43.35282328247839" lon="10.45626388131268"><ele>1.0</ele><time>2026-04-06T13:03:08Z</time></trkpt><trkpt lat="43.35294043058907" lon="10.45621883293322"><ele>1.0</ele><time>2026-04-06T13:03:10Z</time></trkpt><trkpt lat="43.35306306603821" lon="10.456180083108153"><ele>1.0</ele><time>2026-04-06T13:03:12Z</time></trkpt><trkpt lat="43.35312872872912" lon="10.45615604006787"><ele>1.0</ele><time>2026-04-06T13:03:13Z</time></trkpt><trkpt lat="43.353199265522775" lon="10.45613113331242"><ele>1.0</ele><time>2026-04-06T13:03:14Z</time></trkpt><trkpt lat="43.353267720189606" lon="10.456106775372932"><ele>1.0</ele><time>2026-04-06T13:03:15Z</time></trkpt><trkpt lat="43.35333715282165" lon="10.456080956430055"><ele>1.0</ele><time>2026-04-06T13:03:16Z</time></trkpt><trkpt lat="43.35340050558745" lon="10.456059223529513"><ele>1.0</ele><time>2026-04-06T13:03:17Z</time></trkpt><trkpt lat="43.35353035398848" lon="10.456020030674086"><ele>1.0</ele><time>2026-04-06T13:03:19Z</time></trkpt><trkpt lat="43.35364043663074" lon="10.455978348046376"><ele>0.9999999999999999</ele><time>2026-04-06T13:03:21Z</time></trkpt><trkpt lat="43.35371546037172" lon="10.455955349986253"><ele>1.0</ele><time>2026-04-06T13:03:23Z</time></trkpt><trkpt lat="43.353796173151736" lon="10.45593376203188"><ele>1.0</ele><time>2026-04-06T13:03:25Z</time></trkpt><trkpt lat="43.3538621573336" lon="10.455925537793085"><ele>1.0</ele><time>2026-04-06T13:03:26Z</time></trkpt><trkpt lat="43.3539367732228" lon="10.45589842979003"><ele>0.9999999999999999</ele><time>2026-04-06T13:03:27Z</time></trkpt><trkpt lat="43.354019014073764" lon="10.455861056730964"><ele>1.0</ele><time>2026-04-06T13:03:28Z</time></trkpt><trkpt lat="43.35410753752336" lon="10.455820017383607"><ele>0.9999999999999999</ele><time>2026-04-06T13:03:29Z</time></trkpt><trkpt lat="43.354185596261516" lon="10.455786363755742"><ele>1.0</ele><time>2026-04-06T13:03:30Z</time></trkpt><trkpt lat="43.35426568332616" lon="10.455756705672322"><ele>1.0</ele><time>2026-04-06T13:03:31Z</time></trkpt><trkpt lat="43.3543415026607" lon="10.45573008242346"><ele>1.0</ele><time>2026-04-06T13:03:32Z</time></trkpt><trkpt lat="43.354413381960164" lon="10.455701473187387"><ele>0.9999999999999999</ele><time>2026-04-06T13:03:33Z</time></trkpt><trkpt lat="43.35449002858981" lon="10.455670415400824"><ele>1.0</ele><time>2026-04-06T13:03:34Z</time></trkpt><trkpt lat="43.35455943620054" lon="10.455642337743646"><ele>1.0</ele><time>2026-04-06T13:03:35Z</time></trkpt><trkpt lat="43.35462194646979" lon="10.455620231154592"><ele>0.9999999999999999</ele><time>2026-04-06T13:03:36Z</time></trkpt><trkpt lat="43.3546873806598" lon="10.455597462791392"><ele>1.0</ele><time>2026-04-06T13:03:37Z</time></trkpt><trkpt lat="43.35475555129238" lon="10.455574384487056"><ele>1.0</ele><time>2026-04-06T13:03:38Z</time></trkpt><trkpt lat="43.35481795823117" lon="10.455558645799343"><ele>0.9999999999999999</ele><time>2026-04-06T13:03:39Z</time></trkpt><trkpt lat="43.354901192961144" lon="10.455538772580782"><ele>1.0</ele><time>2026-04-06T13:03:41Z</time></trkpt><trkpt lat="43.354976493747486" lon="10.455532839331699"><ele>1.0</ele><time>2026-04-06T13:03:48Z</time></trkpt><trkpt lat="43.35508524425441" lon="10.455542461503091"><ele>0.9999999999999999</ele><time>2026-04-06T13:03:50Z</time></trkpt><trkpt lat="43.35519741295782" lon="10.455501060178925"><ele>1.0</ele><time>2026-04-06T13:03:52Z</time></trkpt><trkpt lat="43.355262737521485" lon="10.455463058058605"><ele>1.0</ele><time>2026-04-06T13:03:53Z</time></trkpt><trkpt lat="43.35532971885307" lon="10.455407386880527"><ele>1.0</ele><time>2026-04-06T13:03:54Z</time></trkpt><trkpt lat="43.35540510135185" lon="10.455356570617775"><ele>0.9999999999999999</ele><time>2026-04-06T13:03:55Z</time></trkpt><trkpt lat="43.355484412916454" lon="10.455320343277629"><ele>1.0</ele><time>2026-04-06T13:03:56Z</time></trkpt><trkpt lat="43.35556872711555" lon="10.455290325401302"><ele>0.8</ele><time>2026-04-06T13:03:57Z</time></trkpt><trkpt lat="43.355659076367374" lon="10.455256684609111"><ele>0.6000000000000001</ele><time>2026-04-06T13:03:58Z</time></trkpt><trkpt lat="43.35575633452285" lon="10.455220616733117"><ele>0.4</ele><time>2026-04-06T13:03:59Z</time></trkpt><trkpt lat="43.35585741102408" lon="10.455181590895666"><ele>0.2</ele><time>2026-04-06T13:04:00Z</time></trkpt><trkpt lat="43.355960959223495" lon="10.455141811761921"><ele>0.0</ele><time>2026-04-06T13:04:01Z</time></trkpt><trkpt lat="43.35606473645379" lon="10.455103158707642"><ele>0.0</ele><time>2026-04-06T13:04:02Z</time></trkpt><trkpt lat="43.35615957871877" lon="10.45506763985574"><ele>0.0</ele><time>2026-04-06T13:04:03Z</time></trkpt><trkpt lat="43.35625122771584" lon="10.45503287334001"><ele>0.0</ele><time>2026-04-06T13:04:04Z</time></trkpt><trkpt lat="43.35633812919715" lon="10.455000909562319"><ele>0.0</ele><time>2026-04-06T13:04:05Z</time></trkpt><trkpt lat="43.356433290764" lon="10.45497126097152"><ele>0.0</ele><time>2026-04-06T13:04:06Z</time></trkpt><trkpt lat="43.35652901419993" lon="10.454935638543525"><ele>0.2</ele><time>2026-04-06T13:04:07Z</time></trkpt><trkpt lat="43.35662709939002" lon="10.45489921389092"><ele>0.4</ele><time>2026-04-06T13:04:08Z</time></trkpt><trkpt lat="43.356728691489494" lon="10.454861987300157"><ele>0.6000000000000001</ele><time>2026-04-06T13:04:09Z</time></trkpt><trkpt lat="43.35683334998335" lon="10.454824042987468"><ele>0.8</ele><time>2026-04-06T13:04:10Z</time></trkpt><trkpt lat="43.356942841840684" lon="10.454781198504696"><ele>1.0</ele><time>2026-04-06T13:04:11Z</time></trkpt><trkpt lat="43.35704934746155" lon="10.454742368923513"><ele>1.0</ele><time>2026-04-06T13:04:12Z</time></trkpt><trkpt lat="43.35716047899001" lon="10.454702895672021"><ele>1.0</ele><time>2026-04-06T13:04:13Z</time></trkpt><trkpt lat="43.35727048904057" lon="10.454661978715476"><ele>1.0</ele><time>2026-04-06T13:04:14Z</time></trkpt><trkpt lat="43.357382525679675" lon="10.454618770559426"><ele>1.0</ele><time>2026-04-06T13:04:15Z</time></trkpt><trkpt lat="43.35750002211518" lon="10.454570611650404"><ele>1.3333333333333333</ele><time>2026-04-06T13:04:16Z</time></trkpt><trkpt lat="43.35763747043493" lon="10.454513709334837"><ele>1.6666666666666665</ele><time>2026-04-06T13:04:17Z</time></trkpt><trkpt lat="43.357796191427596" lon="10.454460325250674"><ele>2.0</ele><time>2026-04-06T13:04:18Z</time></trkpt><trkpt lat="43.35796989660321" lon="10.454405901230777"><ele>1.3333333333333333</ele><time>2026-04-06T13:04:19Z</time></trkpt><trkpt lat="43.358155400954054" lon="10.454345494771985"><ele>0.6666666666666666</ele><time>2026-04-06T13:04:20Z</time></trkpt><trkpt lat="43.35833639302546" lon="10.454282817272901"><ele>0.0</ele><time>2026-04-06T13:04:21Z</time></trkpt><trkpt lat="43.35851999621869" lon="10.454216976340684"><ele>0.0</ele><time>2026-04-06T13:04:22Z</time></trkpt><trkpt lat="43.35870033485452" lon="10.454151751136989"><ele>0.0</ele><time>2026-04-06T13:04:23Z</time></trkpt><trkpt lat="43.358878533795014" lon="10.454090268334449"><ele>0.0</ele><time>2026-04-06T13:04:24Z</time></trkpt><trkpt lat="43.359051339402725" lon="10.454026841694427"><ele>0.3333333333333333</ele><time>2026-04-06T13:04:25Z</time></trkpt><trkpt lat="43.359220496882735" lon="10.453964150149599"><ele>0.6666666666666666</ele><time>2026-04-06T13:04:26Z</time></trkpt><trkpt lat="43.359387848386646" lon="10.453906043136502"><ele>1.0</ele><time>2026-04-06T13:04:27Z</time></trkpt><trkpt lat="43.35955731182424" lon="10.453844998024893"><ele>0.6666666666666666</ele><time>2026-04-06T13:04:28Z</time></trkpt><trkpt lat="43.359730141237" lon="10.453779802008327"><ele>0.3333333333333333</ele><time>2026-04-06T13:04:29Z</time></trkpt><trkpt lat="43.35990474866099" lon="10.453714959334272"><ele>0.0</ele><time>2026-04-06T13:04:30Z</time></trkpt><trkpt lat="43.3600785052352" lon="10.453654718384414"><ele>0.0</ele><time>2026-04-06T13:04:31Z</time></trkpt><trkpt lat="43.360254873280816" lon="10.453591080357688"><ele>0.0</ele><time>2026-04-06T13:04:32Z</time></trkpt><trkpt lat="43.36042686722273" lon="10.453524688031708"><ele>0.0</ele><time>2026-04-06T13:04:33Z</time></trkpt><trkpt lat="43.36060734787047" lon="10.453460730105366"><ele>0.3333333333333333</ele><time>2026-04-06T13:04:34Z</time></trkpt><trkpt lat="43.36078338772806" lon="10.453395559778688"><ele>0.6666666666666666</ele><time>2026-04-06T13:04:35Z</time></trkpt><trkpt lat="43.36096174219326" lon="10.453332389524595"><ele>1.0</ele><time>2026-04-06T13:04:36Z</time></trkpt><trkpt lat="43.36113603470086" lon="10.453268168000958"><ele>1.0</ele><time>2026-04-06T13:04:37Z</time></trkpt><trkpt lat="43.3613104175088" lon="10.45320561074426"><ele>1.0</ele><time>2026-04-06T13:04:38Z</time></trkpt><trkpt lat="43.36148536804992" lon="10.45314430844803"><ele>1.0</ele><time>2026-04-06T13:04:39Z</time></trkpt><trkpt lat="43.361657316246244" lon="10.453080708320433"><ele>1.0</ele><time>2026-04-06T13:04:40Z</time></trkpt><trkpt lat="43.36183058233307" lon="10.453015915959602"><ele>1.0</ele><time>2026-04-06T13:04:41Z</time></trkpt><trkpt lat="43.36200393354156" lon="10.452957595450592"><ele>1.0</ele><time>2026-04-06T13:04:42Z</time></trkpt><trkpt lat="43.36216935561728" lon="10.452900342887135"><ele>1.0</ele><time>2026-04-06T13:04:43Z</time></trkpt><trkpt lat="43.362340140636334" lon="10.452840906437212"><ele>1.0</ele><time>2026-04-06T13:04:44Z</time></trkpt><trkpt lat="43.36250868602753" lon="10.452783288543767"><ele>1.0</ele><time>2026-04-06T13:04:45Z</time></trkpt><trkpt lat="43.36267629774438" lon="10.452721034739882"><ele>1.0</ele><time>2026-04-06T13:04:46Z</time></trkpt><trkpt lat="43.36284389594121" lon="10.452659859579528"><ele>1.0</ele><time>2026-04-06T13:04:47Z</time></trkpt><trkpt lat="43.363015177536404" lon="10.452598728649846"><ele>1.0</ele><time>2026-04-06T13:04:48Z</time></trkpt><trkpt lat="43.363186992803065" lon="10.452535959864067"><ele>1.0</ele><time>2026-04-06T13:04:49Z</time></trkpt><trkpt lat="43.36335977264153" lon="10.452473618209"><ele>1.0</ele><time>2026-04-06T13:04:50Z</time></trkpt><trkpt lat="43.363535065503534" lon="10.452412031004977"><ele>1.0</ele><time>2026-04-06T13:04:51Z</time></trkpt><trkpt lat="43.36371028829079" lon="10.452347121010254"><ele>0.6666666666666666</ele><time>2026-04-06T13:04:52Z</time></trkpt><trkpt lat="43.36388863028475" lon="10.452282382331347"><ele>0.3333333333333333</ele><time>2026-04-06T13:04:53Z</time></trkpt><trkpt lat="43.36406973760825" lon="10.452218873089478"><ele>0.0</ele><time>2026-04-06T13:04:54Z</time></trkpt><trkpt lat="43.36425026807138" lon="10.452153896744356"><ele>0.0</ele><time>2026-04-06T13:04:55Z</time></trkpt><trkpt lat="43.364430358255625" lon="10.452086672609623"><ele>0.0</ele><time>2026-04-06T13:04:56Z</time></trkpt><trkpt lat="43.36460887274739" lon="10.45202184881852"><ele>0.0</ele><time>2026-04-06T13:04:57Z</time></trkpt><trkpt lat="43.364788794657706" lon="10.451956572276929"><ele>0.3333333333333333</ele><time>2026-04-06T13:04:58Z</time></trkpt><trkpt lat="43.364967523187225" lon="10.451889733572703"><ele>0.6666666666666666</ele><time>2026-04-06T13:04:59Z</time></trkpt><trkpt lat="43.36514383510263" lon="10.451826196497178"><ele>1.0</ele><time>2026-04-06T13:05:00Z</time></trkpt><trkpt lat="43.36532328546013" lon="10.451765845836418"><ele>1.0</ele><time>2026-04-06T13:05:01Z</time></trkpt><trkpt lat="43.36550075778027" lon="10.45170753480065"><ele>1.0</ele><time>2026-04-06T13:05:02Z</time></trkpt><trkpt lat="43.36567666083255" lon="10.451648095834127"><ele>1.0</ele><time>2026-04-06T13:05:03Z</time></trkpt><trkpt lat="43.36585444353057" lon="10.451584975638228"><ele>0.6666666666666666</ele><time>2026-04-06T13:05:04Z</time></trkpt><trkpt lat="43.366027738181685" lon="10.451520543638306"><ele>0.3333333333333333</ele><time>2026-04-06T13:05:05Z</time></trkpt><trkpt lat="43.36620250639065" lon="10.451458145312055"><ele>0.0</ele><time>2026-04-06T13:05:06Z</time></trkpt><trkpt lat="43.36637539497744" lon="10.451394820571071"><ele>0.3333333333333333</ele><time>2026-04-06T13:05:07Z</time></trkpt><trkpt lat="43.366551614019606" lon="10.451331166246996"><ele>0.6666666666666666</ele><time>2026-04-06T13:05:08Z</time></trkpt><trkpt lat="43.36671620238926" lon="10.451272151910741"><ele>1.0</ele><time>2026-04-06T13:05:09Z</time></trkpt><trkpt lat="43.36687269583302" lon="10.451211866392349"><ele>1.0</ele><time>2026-04-06T13:05:10Z</time></trkpt><trkpt lat="43.36703467444264" lon="10.451151634232795"><ele>1.0</ele><time>2026-04-06T13:05:11Z</time></trkpt><trkpt lat="43.36719478964399" lon="10.451091326369433"><ele>1.0</ele><time>2026-04-06T13:05:12Z</time></trkpt><trkpt lat="43.367357311601054" lon="10.451036049340255"><ele>0.6666666666666666</ele><time>2026-04-06T13:05:13Z</time></trkpt><trkpt lat="43.36751695170545" lon="10.450980668474893"><ele>0.3333333333333333</ele><time>2026-04-06T13:05:14Z</time></trkpt><trkpt lat="43.36767674581296" lon="10.450922364447017"><ele>0.0</ele><time>2026-04-06T13:05:15Z</time></trkpt><trkpt lat="43.36783838913024" lon="10.45086416048068"><ele>0.0</ele><time>2026-04-06T13:05:16Z</time></trkpt><trkpt lat="43.36800113876028" lon="10.450806484480331"><ele>0.0</ele><time>2026-04-06T13:05:17Z</time></trkpt><trkpt lat="43.368158830376146" lon="10.450748516050117"><ele>0.0</ele><time>2026-04-06T13:05:18Z</time></trkpt><trkpt lat="43.36831446393546" lon="10.45069340975852"><ele>0.3333333333333333</ele><time>2026-04-06T13:05:19Z</time></trkpt><trkpt lat="43.36847287641132" lon="10.450638954553572"><ele>0.6666666666666666</ele><time>2026-04-06T13:05:20Z</time></trkpt><trkpt lat="43.368631521816134" lon="10.45058493626277"><ele>1.0</ele><time>2026-04-06T13:05:21Z</time></trkpt><trkpt lat="43.36878822235518" lon="10.450532081007946"><ele>1.3333333333333333</ele><time>2026-04-06T13:05:22Z</time></trkpt><trkpt lat="43.36894463168789" lon="10.45047858019419"><ele>1.6666666666666665</ele><time>2026-04-06T13:05:23Z</time></trkpt><trkpt lat="43.36909900319682" lon="10.450418376154163"><ele>2.0</ele><time>2026-04-06T13:05:24Z</time></trkpt><trkpt lat="43.36924960272936" lon="10.450361946660589"><ele>2.25</ele><time>2026-04-06T13:05:25Z</time></trkpt><trkpt lat="43.369391714508666" lon="10.45031055115967"><ele>2.5</ele><time>2026-04-06T13:05:26Z</time></trkpt><trkpt lat="43.36952831146395" lon="10.450262571275248"><ele>2.75</ele><time>2026-04-06T13:05:27Z</time></trkpt><trkpt lat="43.36965329627882" lon="10.450222186157069"><ele>3.0</ele><time>2026-04-06T13:05:28Z</time></trkpt><trkpt lat="43.36974853958736" lon="10.450188235885514"><ele>3.0</ele><time>2026-04-06T13:05:29Z</time></trkpt><trkpt lat="43.36984059425012" lon="10.4501651039086"><ele>3.0</ele><time>2026-04-06T13:05:30Z</time></trkpt><trkpt lat="43.3699227696728" lon="10.450144577894063"><ele>3.0</ele><time>2026-04-06T13:05:31Z</time></trkpt><trkpt lat="43.36999999506424" lon="10.45012863778545"><ele>3.0</ele><time>2026-04-06T13:05:32Z</time></trkpt><trkpt lat="43.37008379595259" lon="10.450108413718912"><ele>3.0</ele><time>2026-04-06T13:05:33Z</time></trkpt><trkpt lat="43.370175841567416" lon="10.450095121859558"><ele>3.0</ele><time>2026-04-06T13:05:34Z</time></trkpt><trkpt lat="43.3702757062453" lon="10.450082103499533"><ele>3.0</ele><time>2026-04-06T13:05:35Z</time></trkpt><trkpt lat="43.37038046891951" lon="10.450072080454639"><ele>3.0</ele><time>2026-04-06T13:05:36Z</time></trkpt><trkpt lat="43.370481919032194" lon="10.45006613654246"><ele>3.0</ele><time>2026-04-06T13:05:37Z</time></trkpt><trkpt lat="43.37056834833823" lon="10.450060051104053"><ele>3.0</ele><time>2026-04-06T13:05:38Z</time></trkpt><trkpt lat="43.37065611837778" lon="10.45005325259056"><ele>3.0</ele><time>2026-04-06T13:05:39Z</time></trkpt><trkpt lat="43.37075651216853" lon="10.450048996952928"><ele>3.25</ele><time>2026-04-06T13:05:40Z</time></trkpt><trkpt lat="43.37086570749884" lon="10.450047268863987"><ele>3.5</ele><time>2026-04-06T13:05:41Z</time></trkpt><trkpt lat="43.37098356237433" lon="10.450045740519485"><ele>3.75</ele><time>2026-04-06T13:05:42Z</time></trkpt><trkpt lat="43.37110941081961" lon="10.450042807361918"><ele>4.0</ele><time>2026-04-06T13:05:43Z</time></trkpt><trkpt lat="43.37124450603143" lon="10.45003043390512"><ele>4.0</ele><time>2026-04-06T13:05:44Z</time></trkpt><trkpt lat="43.37138978091629" lon="10.450022928595587"><ele>4.0</ele><time>2026-04-06T13:05:45Z</time></trkpt><trkpt lat="43.37153944330697" lon="10.450017736815598"><ele>4.0</ele><time>2026-04-06T13:05:46Z</time></trkpt><trkpt lat="43.371689533959255" lon="10.450013680224094"><ele>4.0</ele><time>2026-04-06T13:05:47Z</time></trkpt><trkpt lat="43.37184663712066" lon="10.45000503975425"><ele>4.0</ele><time>2026-04-06T13:05:48Z</time></trkpt><trkpt lat="43.37200922108615" lon="10.449992687321114"><ele>4.0</ele><time>2026-04-06T13:05:49Z</time></trkpt><trkpt lat="43.372173196430076" lon="10.450001919469656"><ele>4.0</ele><time>2026-04-06T13:05:50Z</time></trkpt><trkpt lat="43.37233424161983" lon="10.449972777341335"><ele>3.6666666666666665</ele><time>2026-04-06T13:05:51Z</time></trkpt><trkpt lat="43.372486928553755" lon="10.44993146012755"><ele>3.333333333333333</ele><time>2026-04-06T13:05:52Z</time></trkpt><trkpt lat="43.372638001202034" lon="10.449879704336276"><ele>3.0</ele><time>2026-04-06T13:05:53Z</time></trkpt><trkpt lat="43.3727894417983" lon="10.449802781735244"><ele>3.0</ele><time>2026-04-06T13:05:54Z</time></trkpt><trkpt lat="43.37292819405313" lon="10.449688587060399"><ele>3.0</ele><time>2026-04-06T13:05:55Z</time></trkpt><trkpt lat="43.37306794272346" lon="10.449590906032885"><ele>3.0</ele><time>2026-04-06T13:05:56Z</time></trkpt><trkpt lat="43.37321340813715" lon="10.449480630512944"><ele>3.0</ele><time>2026-04-06T13:05:57Z</time></trkpt><trkpt lat="43.37335998929622" lon="10.449366073596831"><ele>3.0</ele><time>2026-04-06T13:05:58Z</time></trkpt><trkpt lat="43.37351821062347" lon="10.44926800690853"><ele>3.0</ele><time>2026-04-06T13:05:59Z</time></trkpt><trkpt lat="43.37366744979233" lon="10.449125693749789"><ele>3.0</ele><time>2026-04-06T13:06:00Z</time></trkpt><trkpt lat="43.37383199879769" lon="10.44900098059651"><ele>3.0</ele><time>2026-04-06T13:06:01Z</time></trkpt><trkpt lat="43.3740007561606" lon="10.448868044625005"><ele>3.0</ele><time>2026-04-06T13:06:02Z</time></trkpt><trkpt lat="43.37416989038004" lon="10.448731362421789"><ele>2.6666666666666665</ele><time>2026-04-06T13:06:03Z</time></trkpt><trkpt lat="43.37434017327492" lon="10.448598684653511"><ele>2.333333333333333</ele><time>2026-04-06T13:06:04Z</time></trkpt><trkpt lat="43.37451395543329" lon="10.448464091249384"><ele>2.0</ele><time>2026-04-06T13:06:05Z</time></trkpt><trkpt lat="43.37468766808609" lon="10.448327201668802"><ele>2.0</ele><time>2026-04-06T13:06:06Z</time></trkpt><trkpt lat="43.3748615008069" lon="10.448189565187517"><ele>2.0</ele><time>2026-04-06T13:06:07Z</time></trkpt><trkpt lat="43.375038844037654" lon="10.44805044437168"><ele>2.0</ele><time>2026-04-06T13:06:08Z</time></trkpt><trkpt lat="43.37521683762667" lon="10.447909715940481"><ele>1.6666666666666665</ele><time>2026-04-06T13:06:09Z</time></trkpt><trkpt lat="43.37539242560621" lon="10.447770430291252"><ele>1.3333333333333333</ele><time>2026-04-06T13:06:10Z</time></trkpt><trkpt lat="43.375568498599065" lon="10.44763119402931"><ele>1.0</ele><time>2026-04-06T13:06:11Z</time></trkpt><trkpt lat="43.37574227793435" lon="10.447491749028494"><ele>1.0</ele><time>2026-04-06T13:06:12Z</time></trkpt><trkpt lat="43.37591723529824" lon="10.447355958117257"><ele>1.0</ele><time>2026-04-06T13:06:13Z</time></trkpt><trkpt lat="43.37609257729272" lon="10.44722049789296"><ele>1.0</ele><time>2026-04-06T13:06:14Z</time></trkpt><trkpt lat="43.37626823664925" lon="10.44708286056971"><ele>1.6666666666666665</ele><time>2026-04-06T13:06:15Z</time></trkpt><trkpt lat="43.37644350389056" lon="10.446942210682625"><ele>2.3333333333333335</ele><time>2026-04-06T13:06:16Z</time></trkpt><trkpt lat="43.376618251782396" lon="10.446803356434923"><ele>3.0</ele><time>2026-04-06T13:06:17Z</time></trkpt><trkpt lat="43.37679171673234" lon="10.446672864120751"><ele>3.0</ele><time>2026-04-06T13:06:18Z</time></trkpt><trkpt lat="43.37696199530775" lon="10.44653920609738"><ele>3.0</ele><time>2026-04-06T13:06:19Z</time></trkpt><trkpt lat="43.37712956013347" lon="10.446406513811421"><ele>3.0</ele><time>2026-04-06T13:06:20Z</time></trkpt><trkpt lat="43.37729451544469" lon="10.446275541887667"><ele>2.6666666666666665</ele><time>2026-04-06T13:06:21Z</time></trkpt><trkpt lat="43.377460858958" lon="10.446142460157988"><ele>2.333333333333333</ele><time>2026-04-06T13:06:22Z</time></trkpt><trkpt lat="43.377627768151946" lon="10.446008961106784"><ele>2.0</ele><time>2026-04-06T13:06:23Z</time></trkpt><trkpt lat="43.37779631516942" lon="10.44587704474247"><ele>2.0</ele><time>2026-04-06T13:06:24Z</time></trkpt><trkpt lat="43.37796370802794" lon="10.445743976770176"><ele>2.0</ele><time>2026-04-06T13:06:25Z</time></trkpt><trkpt lat="43.37813012091868" lon="10.445614752970238"><ele>2.0</ele><time>2026-04-06T13:06:26Z</time></trkpt><trkpt lat="43.37828799628658" lon="10.445491377119025"><ele>2.333333333333333</ele><time>2026-04-06T13:06:27Z</time></trkpt><trkpt lat="43.37844714879676" lon="10.44536315150001"><ele>2.6666666666666665</ele><time>2026-04-06T13:06:28Z</time></trkpt><trkpt lat="43.378603949534664" lon="10.445238348693778"><ele>3.0</ele><time>2026-04-06T13:06:29Z</time></trkpt><trkpt lat="43.37876183533413" lon="10.445115721908266"><ele>3.333333333333333</ele><time>2026-04-06T13:06:30Z</time></trkpt><trkpt lat="43.37891806263261" lon="10.444992875252613"><ele>3.6666666666666665</ele><time>2026-04-06T13:06:31Z</time></trkpt><trkpt lat="43.37907470533367" lon="10.444867928034563"><ele>4.0</ele><time>2026-04-06T13:06:32Z</time></trkpt><trkpt lat="43.379231793597455" lon="10.444746374652198"><ele>4.333333333333333</ele><time>2026-04-06T13:06:33Z</time></trkpt><trkpt lat="43.37938898658692" lon="10.44462383968149"><ele>4.666666666666667</ele><time>2026-04-06T13:06:34Z</time></trkpt><trkpt lat="43.379546699784214" lon="10.444502355350084"><ele>5.0</ele><time>2026-04-06T13:06:35Z</time></trkpt><trkpt lat="43.379705982642896" lon="10.444384385658289"><ele>5.0</ele><time>2026-04-06T13:06:36Z</time></trkpt><trkpt lat="43.37986556471548" lon="10.444262476596979"><ele>5.0</ele><time>2026-04-06T13:06:37Z</time></trkpt><trkpt lat="43.38002535280949" lon="10.444136298548742"><ele>5.0</ele><time>2026-04-06T13:06:38Z</time></trkpt><trkpt lat="43.380183719488386" lon="10.444007446597691"><ele>5.0</ele><time>2026-04-06T13:06:39Z</time></trkpt><trkpt lat="43.38034354959913" lon="10.443877206187366"><ele>5.0</ele><time>2026-04-06T13:06:40Z</time></trkpt><trkpt lat="43.380503843610676" lon="10.443747265513155"><ele>5.0</ele><time>2026-04-06T13:06:41Z</time></trkpt><trkpt lat="43.38066260923312" lon="10.443620457562163"><ele>4.666666666666667</ele><time>2026-04-06T13:06:42Z</time></trkpt><trkpt lat="43.3808201116339" lon="10.443495174150133"><ele>4.333333333333333</ele><time>2026-04-06T13:06:43Z</time></trkpt><trkpt lat="43.380977804552494" lon="10.443372759369234"><ele>4.0</ele><time>2026-04-06T13:06:44Z</time></trkpt><trkpt lat="43.38113281226773" lon="10.443246282431634"><ele>4.0</ele><time>2026-04-06T13:06:45Z</time></trkpt><trkpt lat="43.38128432703056" lon="10.443124641178214"><ele>4.0</ele><time>2026-04-06T13:06:46Z</time></trkpt><trkpt lat="43.381433552759646" lon="10.443004397016793"><ele>4.0</ele><time>2026-04-06T13:06:47Z</time></trkpt><trkpt lat="43.38158274744052" lon="10.442888265327447"><ele>3.6666666666666665</ele><time>2026-04-06T13:06:48Z</time></trkpt><trkpt lat="43.38172958303387" lon="10.442772778229862"><ele>3.333333333333333</ele><time>2026-04-06T13:06:49Z</time></trkpt><trkpt lat="43.38187581941482" lon="10.442654305469196"><ele>3.0</ele><time>2026-04-06T13:06:50Z</time></trkpt><trkpt lat="43.38201245980986" lon="10.44254139091737"><ele>3.0</ele><time>2026-04-06T13:06:51Z</time></trkpt><trkpt lat="43.38214408258585" lon="10.442434154979374"><ele>3.0</ele><time>2026-04-06T13:06:52Z</time></trkpt><trkpt lat="43.382270634514626" lon="10.442336402633606"><ele>3.0</ele><time>2026-04-06T13:06:53Z</time></trkpt><trkpt lat="43.38239153948607" lon="10.442244441457444"><ele>3.0</ele><time>2026-04-06T13:06:54Z</time></trkpt><trkpt lat="43.38250814648216" lon="10.442152867297377"><ele>4.0</ele><time>2026-04-06T13:06:55Z</time></trkpt><trkpt lat="43.382618989281255" lon="10.442062743974716"><ele>5.0</ele><time>2026-04-06T13:06:56Z</time></trkpt><trkpt lat="43.38273016714146" lon="10.44197074445992"><ele>6.0</ele><time>2026-04-06T13:06:57Z</time></trkpt><trkpt lat="43.38283731527148" lon="10.441879183112766"><ele>7.0</ele><time>2026-04-06T13:06:58Z</time></trkpt><trkpt lat="43.382937095238674" lon="10.441796259016659"><ele>7.199999999999999</ele><time>2026-04-06T13:06:59Z</time></trkpt><trkpt lat="43.38303393003881" lon="10.4417184649997"><ele>7.3999999999999995</ele><time>2026-04-06T13:07:00Z</time></trkpt><trkpt lat="43.3831201910272" lon="10.441652222987361"><ele>7.6000000000000005</ele><time>2026-04-06T13:07:01Z</time></trkpt><trkpt lat="43.383190726675465" lon="10.441593747713785"><ele>7.800000000000001</ele><time>2026-04-06T13:07:02Z</time></trkpt><trkpt lat="43.38324861103181" lon="10.441548810306866"><ele>8.0</ele><time>2026-04-06T13:07:03Z</time></trkpt><trkpt lat="43.38334455220841" lon="10.441478301948633"><ele>8.0</ele><time>2026-04-06T13:07:05Z</time></trkpt><trkpt lat="43.38346289497972" lon="10.44138966106434"><ele>8.0</ele><time>2026-04-06T13:07:07Z</time></trkpt><trkpt lat="43.38353123778252" lon="10.441323341315313"><ele>8.0</ele><time>2026-04-06T13:07:08Z</time></trkpt><trkpt lat="43.383602547685506" lon="10.441251938674473"><ele>8.0</ele><time>2026-04-06T13:07:09Z</time></trkpt><trkpt lat="43.38368156765949" lon="10.441178563355109"><ele>8.0</ele><time>2026-04-06T13:07:10Z</time></trkpt><trkpt lat="43.38377643991559" lon="10.44110477322485"><ele>8.5</ele><time>2026-04-06T13:07:11Z</time></trkpt><trkpt lat="43.38387612356901" lon="10.441027219892618"><ele>9.0</ele><time>2026-04-06T13:07:12Z</time></trkpt><trkpt lat="43.38398196952113" lon="10.440943998459774"><ele>9.5</ele><time>2026-04-06T13:07:13Z</time></trkpt><trkpt lat="43.38408597229654" lon="10.440858089369575"><ele>10.0</ele><time>2026-04-06T13:07:14Z</time></trkpt><trkpt lat="43.384178938156964" lon="10.44078418757071"><ele>10.0</ele><time>2026-04-06T13:07:15Z</time></trkpt><trkpt lat="43.384272867853255" lon="10.440712289157442"><ele>10.0</ele><time>2026-04-06T13:07:16Z</time></trkpt><trkpt lat="43.384366560426876" lon="10.440641885578152"><ele>10.0</ele><time>2026-04-06T13:07:17Z</time></trkpt><trkpt lat="43.384456287877086" lon="10.440573753962848"><ele>10.0</ele><time>2026-04-06T13:07:18Z</time></trkpt><trkpt lat="43.384545863013074" lon="10.440503897801117"><ele>10.0</ele><time>2026-04-06T13:07:19Z</time></trkpt><trkpt lat="43.3846356162499" lon="10.440433899033245"><ele>10.0</ele><time>2026-04-06T13:07:20Z</time></trkpt><trkpt lat="43.384723445146875" lon="10.440363223592293"><ele>10.0</ele><time>2026-04-06T13:07:21Z</time></trkpt><trkpt lat="43.38480889002057" lon="10.440294671733044"><ele>10.0</ele><time>2026-04-06T13:07:22Z</time></trkpt><trkpt lat="43.3848922477737" lon="10.440230123674068"><ele>10.0</ele><time>2026-04-06T13:07:23Z</time></trkpt><trkpt lat="43.38497585660795" lon="10.440166528538622"><ele>10.0</ele><time>2026-04-06T13:07:24Z</time></trkpt><trkpt lat="43.385052606805125" lon="10.440105683936942"><ele>10.0</ele><time>2026-04-06T13:07:25Z</time></trkpt><trkpt lat="43.385122257514276" lon="10.440048502610804"><ele>10.0</ele><time>2026-04-06T13:07:26Z</time></trkpt><trkpt lat="43.385189999660206" lon="10.439992681683623"><ele>10.0</ele><time>2026-04-06T13:07:27Z</time></trkpt><trkpt lat="43.38526230253044" lon="10.439934926734376"><ele>10.0</ele><time>2026-04-06T13:07:28Z</time></trkpt><trkpt lat="43.3853368863999" lon="10.43987724694261"><ele>10.0</ele><time>2026-04-06T13:07:29Z</time></trkpt><trkpt lat="43.385416607142204" lon="10.439814284822923"><ele>10.0</ele><time>2026-04-06T13:07:30Z</time></trkpt><trkpt lat="43.38549726527255" lon="10.439748705186378"><ele>10.4</ele><time>2026-04-06T13:07:31Z</time></trkpt><trkpt lat="43.38558213789831" lon="10.439676032664451"><ele>10.8</ele><time>2026-04-06T13:07:32Z</time></trkpt><trkpt lat="43.38567166219312" lon="10.439599303217165"><ele>11.2</ele><time>2026-04-06T13:07:33Z</time></trkpt><trkpt lat="43.385766868581435" lon="10.439521066854002"><ele>11.6</ele><time>2026-04-06T13:07:34Z</time></trkpt><trkpt lat="43.38585654346896" lon="10.43945065707326"><ele>12.0</ele><time>2026-04-06T13:07:35Z</time></trkpt><trkpt lat="43.38594500691501" lon="10.439379274753918"><ele>12.0</ele><time>2026-04-06T13:07:36Z</time></trkpt><trkpt lat="43.38604045727561" lon="10.439303641655181"><ele>12.0</ele><time>2026-04-06T13:07:37Z</time></trkpt><trkpt lat="43.38613767672604" lon="10.43923016665844"><ele>12.0</ele><time>2026-04-06T13:07:38Z</time></trkpt><trkpt lat="43.38623255135987" lon="10.439150997498443"><ele>12.0</ele><time>2026-04-06T13:07:39Z</time></trkpt><trkpt lat="43.38632682839333" lon="10.43907203105033"><ele>12.0</ele><time>2026-04-06T13:07:40Z</time></trkpt><trkpt lat="43.3864211584895" lon="10.438992398814104"><ele>11.8</ele><time>2026-04-06T13:07:41Z</time></trkpt><trkpt lat="43.3865151617957" lon="10.438916715567245"><ele>11.6</ele><time>2026-04-06T13:07:42Z</time></trkpt><trkpt lat="43.38660280005401" lon="10.438847007963075"><ele>11.4</ele><time>2026-04-06T13:07:43Z</time></trkpt><trkpt lat="43.386688032403455" lon="10.438777859033353"><ele>11.200000000000001</ele><time>2026-04-06T13:07:44Z</time></trkpt><trkpt lat="43.386770157408876" lon="10.438712825402934"><ele>11.0</ele><time>2026-04-06T13:07:45Z</time></trkpt><trkpt lat="43.38684439652257" lon="10.438654287857362"><ele>10.666666666666666</ele><time>2026-04-06T13:07:46Z</time></trkpt><trkpt lat="43.38691889589909" lon="10.438598216484925"><ele>10.333333333333332</ele><time>2026-04-06T13:07:47Z</time></trkpt><trkpt lat="43.3869922623343" lon="10.438539396225783"><ele>10.0</ele><time>2026-04-06T13:07:48Z</time></trkpt><trkpt lat="43.38706642157422" lon="10.438480952820118"><ele>9.666666666666666</ele><time>2026-04-06T13:07:49Z</time></trkpt><trkpt lat="43.38714024100385" lon="10.438425196446117"><ele>9.333333333333334</ele><time>2026-04-06T13:07:50Z</time></trkpt><trkpt lat="43.387219891650155" lon="10.438371101395871"><ele>9.0</ele><time>2026-04-06T13:07:51Z</time></trkpt><trkpt lat="43.38730109874569" lon="10.438313908526677"><ele>9.0</ele><time>2026-04-06T13:07:52Z</time></trkpt><trkpt lat="43.38738079119838" lon="10.438254289950263"><ele>9.0</ele><time>2026-04-06T13:07:53Z</time></trkpt><trkpt lat="43.387454137753146" lon="10.438195351832151"><ele>9.0</ele><time>2026-04-06T13:07:54Z</time></trkpt><trkpt lat="43.387523830923364" lon="10.438138080305821"><ele>9.0</ele><time>2026-04-06T13:07:55Z</time></trkpt><trkpt lat="43.38758698982938" lon="10.43808021711909"><ele>9.0</ele><time>2026-04-06T13:07:56Z</time></trkpt><trkpt lat="43.38765460651947" lon="10.438023064251466"><ele>9.0</ele><time>2026-04-06T13:07:57Z</time></trkpt><trkpt lat="43.38772260781342" lon="10.437967837061219"><ele>9.166666666666666</ele><time>2026-04-06T13:07:58Z</time></trkpt><trkpt lat="43.38779292196617" lon="10.437910654137674"><ele>9.333333333333334</ele><time>2026-04-06T13:07:59Z</time></trkpt><trkpt lat="43.387861195616594" lon="10.437857979039608"><ele>9.5</ele><time>2026-04-06T13:08:00Z</time></trkpt><trkpt lat="43.38792882452678" lon="10.43780293629489"><ele>9.666666666666668</ele><time>2026-04-06T13:08:01Z</time></trkpt><trkpt lat="43.387994453557674" lon="10.437749419376267"><ele>9.833333333333334</ele><time>2026-04-06T13:08:02Z</time></trkpt><trkpt lat="43.38806158447229" lon="10.437696120042634"><ele>10.0</ele><time>2026-04-06T13:08:03Z</time></trkpt><trkpt lat="43.388129702880455" lon="10.43764199041637"><ele>10.0</ele><time>2026-04-06T13:08:04Z</time></trkpt><trkpt lat="43.38820152647576" lon="10.437593056817898"><ele>10.0</ele><time>2026-04-06T13:08:05Z</time></trkpt><trkpt lat="43.38827120072071" lon="10.43753944476992"><ele>10.0</ele><time>2026-04-06T13:08:06Z</time></trkpt><trkpt lat="43.3883406229199" lon="10.4374822754762"><ele>10.0</ele><time>2026-04-06T13:08:07Z</time></trkpt><trkpt lat="43.38840940057565" lon="10.437427209965303"><ele>10.0</ele><time>2026-04-06T13:08:08Z</time></trkpt><trkpt lat="43.38848555002307" lon="10.437370576289345"><ele>10.0</ele><time>2026-04-06T13:08:09Z</time></trkpt><trkpt lat="43.38856223038405" lon="10.437314370168522"><ele>10.0</ele><time>2026-04-06T13:08:10Z</time></trkpt><trkpt lat="43.38863925075094" lon="10.437255515712778"><ele>10.0</ele><time>2026-04-06T13:08:11Z</time></trkpt><trkpt lat="43.388718812748266" lon="10.437192857538399"><ele>10.0</ele><time>2026-04-06T13:08:12Z</time></trkpt><trkpt lat="43.3887990004355" lon="10.437131634608598"><ele>10.0</ele><time>2026-04-06T13:08:13Z</time></trkpt><trkpt lat="43.3888811963716" lon="10.43707292210026"><ele>10.0</ele><time>2026-04-06T13:08:14Z</time></trkpt><trkpt lat="43.38896848670473" lon="10.437011586631225"><ele>10.2</ele><time>2026-04-06T13:08:15Z</time></trkpt><trkpt lat="43.38905563315026" lon="10.436947525673425"><ele>10.4</ele><time>2026-04-06T13:08:16Z</time></trkpt><trkpt lat="43.38914271149124" lon="10.436880447323162"><ele>10.600000000000001</ele><time>2026-04-06T13:08:17Z</time></trkpt><trkpt lat="43.389227039213665" lon="10.436813100843567"><ele>10.8</ele><time>2026-04-06T13:08:18Z</time></trkpt><trkpt lat="43.389309215496525" lon="10.436744620124939"><ele>11.0</ele><time>2026-04-06T13:08:19Z</time></trkpt><trkpt lat="43.389389005558385" lon="10.436679868184784"><ele>11.0</ele><time>2026-04-06T13:08:20Z</time></trkpt><trkpt lat="43.38946481669233" lon="10.436619700449219"><ele>11.0</ele><time>2026-04-06T13:08:21Z</time></trkpt><trkpt lat="43.389537138398204" lon="10.436566560513102"><ele>11.0</ele><time>2026-04-06T13:08:22Z</time></trkpt><trkpt lat="43.3896088423415" lon="10.436510417760415"><ele>11.0</ele><time>2026-04-06T13:08:23Z</time></trkpt><trkpt lat="43.389686198461035" lon="10.436450385191772"><ele>11.0</ele><time>2026-04-06T13:08:24Z</time></trkpt><trkpt lat="43.38976961520283" lon="10.436384783352917"><ele>11.0</ele><time>2026-04-06T13:08:25Z</time></trkpt><trkpt lat="43.38985542148104" lon="10.436317115484837"><ele>11.166666666666666</ele><time>2026-04-06T13:08:26Z</time></trkpt><trkpt lat="43.389941476193364" lon="10.436249792338256"><ele>11.333333333333332</ele><time>2026-04-06T13:08:27Z</time></trkpt><trkpt lat="43.39001919431783" lon="10.436186434271805"><ele>11.5</ele><time>2026-04-06T13:08:28Z</time></trkpt><trkpt lat="43.39009138289673" lon="10.436128222207675"><ele>11.666666666666666</ele><time>2026-04-06T13:08:29Z</time></trkpt><trkpt lat="43.3901615485125" lon="10.436075120031047"><ele>11.833333333333334</ele><time>2026-04-06T13:08:30Z</time></trkpt><trkpt lat="43.390232154725204" lon="10.436022851703344"><ele>12.0</ele><time>2026-04-06T13:08:31Z</time></trkpt><trkpt lat="43.39030130044146" lon="10.43596680715367"><ele>12.0</ele><time>2026-04-06T13:08:32Z</time></trkpt><trkpt lat="43.39037038576802" lon="10.435909249631388"><ele>12.0</ele><time>2026-04-06T13:08:33Z</time></trkpt><trkpt lat="43.39044423272311" lon="10.43585123847941"><ele>12.0</ele><time>2026-04-06T13:08:34Z</time></trkpt><trkpt lat="43.39051799913521" lon="10.435794166961344"><ele>12.0</ele><time>2026-04-06T13:08:35Z</time></trkpt><trkpt lat="43.3905873403136" lon="10.435737036961475"><ele>12.0</ele><time>2026-04-06T13:08:36Z</time></trkpt><trkpt lat="43.390653730697586" lon="10.435684035460296"><ele>12.0</ele><time>2026-04-06T13:08:37Z</time></trkpt><trkpt lat="43.39072205870169" lon="10.435635957252236"><ele>12.0</ele><time>2026-04-06T13:08:38Z</time></trkpt><trkpt lat="43.3907891009426" lon="10.435585273396338"><ele>12.0</ele><time>2026-04-06T13:08:39Z</time></trkpt><trkpt lat="43.39085817543512" lon="10.435529321910042"><ele>12.0</ele><time>2026-04-06T13:08:40Z</time></trkpt><trkpt lat="43.39092690786701" lon="10.435470332613885"><ele>12.0</ele><time>2026-04-06T13:08:41Z</time></trkpt><trkpt lat="43.391001638497215" lon="10.435409686546288"><ele>12.0</ele><time>2026-04-06T13:08:42Z</time></trkpt><trkpt lat="43.39108004689572" lon="10.435346627095356"><ele>12.0</ele><time>2026-04-06T13:08:43Z</time></trkpt><trkpt lat="43.39115810623838" lon="10.435281293731235"><ele>12.0</ele><time>2026-04-06T13:08:44Z</time></trkpt><trkpt lat="43.3912344210878" lon="10.435221099839302"><ele>12.0</ele><time>2026-04-06T13:08:45Z</time></trkpt><trkpt lat="43.39131021030146" lon="10.435163416727207"><ele>12.0</ele><time>2026-04-06T13:08:46Z</time></trkpt><trkpt lat="43.391380027796245" lon="10.4351084456312"><ele>12.0</ele><time>2026-04-06T13:08:47Z</time></trkpt><trkpt lat="43.391451456025685" lon="10.435053181195578"><ele>12.0</ele><time>2026-04-06T13:08:48Z</time></trkpt><trkpt lat="43.3915204493597" lon="10.43499787161829"><ele>12.0</ele><time>2026-04-06T13:08:49Z</time></trkpt><trkpt lat="43.39159041396529" lon="10.434941482397043"><ele>12.0</ele><time>2026-04-06T13:08:50Z</time></trkpt><trkpt lat="43.39166058494837" lon="10.434887340227679"><ele>12.0</ele><time>2026-04-06T13:08:51Z</time></trkpt><trkpt lat="43.39172146464331" lon="10.434837622045105"><ele>12.0</ele><time>2026-04-06T13:08:52Z</time></trkpt><trkpt lat="43.391780281464364" lon="10.434790003463489"><ele>12.0</ele><time>2026-04-06T13:08:53Z</time></trkpt><trkpt lat="43.391882075151344" lon="10.434701566267655"><ele>12.0</ele><time>2026-04-06T13:08:55Z</time></trkpt><trkpt lat="43.39199585447326" lon="10.434620096497818"><ele>12.0</ele><time>2026-04-06T13:08:57Z</time></trkpt><trkpt lat="43.392065619475886" lon="10.434574398025791"><ele>12.0</ele><time>2026-04-06T13:08:58Z</time></trkpt><trkpt lat="43.39213277075358" lon="10.434519292539697"><ele>12.0</ele><time>2026-04-06T13:08:59Z</time></trkpt><trkpt lat="43.392200269563595" lon="10.434460006459124"><ele>12.0</ele><time>2026-04-06T13:09:00Z</time></trkpt><trkpt lat="43.392269369494834" lon="10.434402358929082"><ele>12.0</ele><time>2026-04-06T13:09:01Z</time></trkpt><trkpt lat="43.39234046225157" lon="10.434347543988505"><ele>12.0</ele><time>2026-04-06T13:09:02Z</time></trkpt><trkpt lat="43.392413317701354" lon="10.43429135758572"><ele>11.999999999999998</ele><time>2026-04-06T13:09:03Z</time></trkpt><trkpt lat="43.39248107436185" lon="10.434238764854175"><ele>12.0</ele><time>2026-04-06T13:09:04Z</time></trkpt><trkpt lat="43.39254094663248" lon="10.434188865696555"><ele>12.0</ele><time>2026-04-06T13:09:05Z</time></trkpt><trkpt lat="43.3926060041802" lon="10.434139100244288"><ele>12.0</ele><time>2026-04-06T13:09:06Z</time></trkpt><trkpt lat="43.39267289173258" lon="10.43408763001026"><ele>12.0</ele><time>2026-04-06T13:09:07Z</time></trkpt><trkpt lat="43.392739839510476" lon="10.434036837027733"><ele>11.999999999999998</ele><time>2026-04-06T13:09:08Z</time></trkpt><trkpt lat="43.392803706698444" lon="10.43398500894028"><ele>12.0</ele><time>2026-04-06T13:09:09Z</time></trkpt><trkpt lat="43.392859600645096" lon="10.433940572020036"><ele>12.0</ele><time>2026-04-06T13:09:10Z</time></trkpt><trkpt lat="43.392966123446705" lon="10.433852037385192"><ele>12.0</ele><time>2026-04-06T13:09:12Z</time></trkpt><trkpt lat="43.39302290786372" lon="10.433804729697554"><ele>12.0</ele><time>2026-04-06T13:09:13Z</time></trkpt><trkpt lat="43.393083811862056" lon="10.433756564859781"><ele>12.0</ele><time>2026-04-06T13:09:14Z</time></trkpt><trkpt lat="43.393146738306385" lon="10.433706787606177"><ele>12.0</ele><time>2026-04-06T13:09:15Z</time></trkpt><trkpt lat="43.39321182578272" lon="10.433657680576058"><ele>12.0</ele><time>2026-04-06T13:09:16Z</time></trkpt><trkpt lat="43.393281698114286" lon="10.433600352557253"><ele>12.333333333333334</ele><time>2026-04-06T13:09:17Z</time></trkpt><trkpt lat="43.39335058560684" lon="10.433541968367253"><ele>12.666666666666668</ele><time>2026-04-06T13:09:18Z</time></trkpt><trkpt lat="43.393422332229456" lon="10.433483966689701"><ele>13.0</ele><time>2026-04-06T13:09:19Z</time></trkpt><trkpt lat="43.393494766155335" lon="10.433425183193327"><ele>13.333333333333334</ele><time>2026-04-06T13:09:20Z</time></trkpt><trkpt lat="43.39356539367157" lon="10.433369379773834"><ele>13.666666666666668</ele><time>2026-04-06T13:09:21Z</time></trkpt><trkpt lat="43.39363809192569" lon="10.433314443687802"><ele>14.0</ele><time>2026-04-06T13:09:22Z</time></trkpt><trkpt lat="43.39370575584474" lon="10.43325885198857"><ele>14.000000000000002</ele><time>2026-04-06T13:09:23Z</time></trkpt><trkpt lat="43.39377272797333" lon="10.433206226359546"><ele>14.0</ele><time>2026-04-06T13:09:24Z</time></trkpt><trkpt lat="43.39383592609007" lon="10.433155260365375"><ele>14.0</ele><time>2026-04-06T13:09:25Z</time></trkpt><trkpt lat="43.39389682667796" lon="10.433104579778712"><ele>14.0</ele><time>2026-04-06T13:09:26Z</time></trkpt><trkpt lat="43.39395523699329" lon="10.433057988332992"><ele>14.000000000000002</ele><time>2026-04-06T13:09:27Z</time></trkpt><trkpt lat="43.39405764331755" lon="10.432980151199807"><ele>14.0</ele><time>2026-04-06T13:09:29Z</time></trkpt><trkpt lat="43.3941628079818" lon="10.43290859533728"><ele>13.666666666666668</ele><time>2026-04-06T13:09:31Z</time></trkpt><trkpt lat="43.39422233241056" lon="10.432862432442983"><ele>13.333333333333334</ele><time>2026-04-06T13:09:32Z</time></trkpt><trkpt lat="43.39428492339934" lon="10.432816082709415"><ele>13.0</ele><time>2026-04-06T13:09:33Z</time></trkpt><trkpt lat="43.39435438420098" lon="10.432763116345141"><ele>12.666666666666668</ele><time>2026-04-06T13:09:34Z</time></trkpt><trkpt lat="43.39442777024865" lon="10.43270578209364"><ele>12.333333333333334</ele><time>2026-04-06T13:09:35Z</time></trkpt><trkpt lat="43.39450610937776" lon="10.432644748356282"><ele>12.0</ele><time>2026-04-06T13:09:36Z</time></trkpt><trkpt lat="43.39458892852172" lon="10.432585243207617"><ele>12.0</ele><time>2026-04-06T13:09:37Z</time></trkpt><trkpt lat="43.39467570048626" lon="10.432519156349258"><ele>12.0</ele><time>2026-04-06T13:09:38Z</time></trkpt><trkpt lat="43.39476336934343" lon="10.432447583074843"><ele>12.0</ele><time>2026-04-06T13:09:39Z</time></trkpt><trkpt lat="43.3948478049864" lon="10.432375483094463"><ele>12.0</ele><time>2026-04-06T13:09:40Z</time></trkpt><trkpt lat="43.394938611210165" lon="10.43230302058745"><ele>12.0</ele><time>2026-04-06T13:09:41Z</time></trkpt><trkpt lat="43.39502979681258" lon="10.432231769202632"><ele>12.0</ele><time>2026-04-06T13:09:42Z</time></trkpt><trkpt lat="43.395113908279704" lon="10.43216318293226"><ele>12.0</ele><time>2026-04-06T13:09:43Z</time></trkpt><trkpt lat="43.395192803778194" lon="10.432108938784742"><ele>12.0</ele><time>2026-04-06T13:09:44Z</time></trkpt><trkpt lat="43.395259263829246" lon="10.432067913070123"><ele>12.0</ele><time>2026-04-06T13:09:45Z</time></trkpt><trkpt lat="43.39532282859462" lon="10.43203710690586"><ele>12.0</ele><time>2026-04-06T13:09:46Z</time></trkpt><trkpt lat="43.39542383959553" lon="10.431941908802134"><ele>12.0</ele><time>2026-04-06T13:09:48Z</time></trkpt><trkpt lat="43.39554893392322" lon="10.431844845927039"><ele>11.5</ele><time>2026-04-06T13:09:50Z</time></trkpt><trkpt lat="43.39565026673612" lon="10.431845715760343"><ele>11.0</ele><time>2026-04-06T13:09:51Z</time></trkpt><trkpt lat="43.395744784697094" lon="10.431757099918586"><ele>10.5</ele><time>2026-04-06T13:09:52Z</time></trkpt><trkpt lat="43.395843606280216" lon="10.43166460437782"><ele>10.0</ele><time>2026-04-06T13:09:53Z</time></trkpt><trkpt lat="43.3959582612366" lon="10.431554050497803"><ele>10.0</ele><time>2026-04-06T13:09:54Z</time></trkpt><trkpt lat="43.3960375559986" lon="10.431494226544169"><ele>10.0</ele><time>2026-04-06T13:09:55Z</time></trkpt><trkpt lat="43.39611105317072" lon="10.431433770219012"><ele>10.0</ele><time>2026-04-06T13:09:56Z</time></trkpt><trkpt lat="43.39618514995761" lon="10.431372927913426"><ele>10.0</ele><time>2026-04-06T13:09:57Z</time></trkpt><trkpt lat="43.39626153026745" lon="10.431306423853602"><ele>10.0</ele><time>2026-04-06T13:09:58Z</time></trkpt><trkpt lat="43.396341641454896" lon="10.43122608083213"><ele>10.0</ele><time>2026-04-06T13:09:59Z</time></trkpt><trkpt lat="43.39641965311383" lon="10.431141317656497"><ele>10.0</ele><time>2026-04-06T13:10:00Z</time></trkpt><trkpt lat="43.39649499955018" lon="10.43106285046304"><ele>10.0</ele><time>2026-04-06T13:10:01Z</time></trkpt><trkpt lat="43.396580490859726" lon="10.43098729515808"><ele>10.0</ele><time>2026-04-06T13:10:02Z</time></trkpt><trkpt lat="43.39666016282358" lon="10.430937539105182"><ele>10.0</ele><time>2026-04-06T13:10:03Z</time></trkpt><trkpt lat="43.39671736235023" lon="10.430887283876277"><ele>10.0</ele><time>2026-04-06T13:10:04Z</time></trkpt><trkpt lat="43.396783614544596" lon="10.430819226741608"><ele>10.0</ele><time>2026-04-06T13:10:05Z</time></trkpt><trkpt lat="43.39685854700265" lon="10.430755547791515"><ele>10.0</ele><time>2026-04-06T13:10:06Z</time></trkpt><trkpt lat="43.39693494454772" lon="10.43069456125235"><ele>10.0</ele><time>2026-04-06T13:10:07Z</time></trkpt><trkpt lat="43.39700773542732" lon="10.430614307922154"><ele>10.0</ele><time>2026-04-06T13:10:08Z</time></trkpt><trkpt lat="43.39708486195887" lon="10.43053359082836"><ele>10.0</ele><time>2026-04-06T13:10:09Z</time></trkpt><trkpt lat="43.39715299997583" lon="10.430452510040066"><ele>10.166666666666668</ele><time>2026-04-06T13:10:10Z</time></trkpt><trkpt lat="43.39721787762047" lon="10.430377692101471"><ele>10.333333333333334</ele><time>2026-04-06T13:10:11Z</time></trkpt><trkpt lat="43.397280106588404" lon="10.430299375060786"><ele>10.5</ele><time>2026-04-06T13:10:12Z</time></trkpt><trkpt lat="43.397339960203965" lon="10.43022450387473"><ele>10.666666666666666</ele><time>2026-04-06T13:10:13Z</time></trkpt><trkpt lat="43.397400341364346" lon="10.430148038779752"><ele>10.833333333333332</ele><time>2026-04-06T13:10:14Z</time></trkpt><trkpt lat="43.39746685646917" lon="10.430078284483345"><ele>11.0</ele><time>2026-04-06T13:10:15Z</time></trkpt><trkpt lat="43.39754055296705" lon="10.430005699376242"><ele>11.0</ele><time>2026-04-06T13:10:16Z</time></trkpt><trkpt lat="43.39760905432933" lon="10.429929335503852"><ele>11.0</ele><time>2026-04-06T13:10:17Z</time></trkpt><trkpt lat="43.397676828759096" lon="10.429849027786446"><ele>11.0</ele><time>2026-04-06T13:10:18Z</time></trkpt><trkpt lat="43.39773285590023" lon="10.429768531633334"><ele>11.0</ele><time>2026-04-06T13:10:19Z</time></trkpt><trkpt lat="43.397782616865655" lon="10.429706371825926"><ele>11.0</ele><time>2026-04-06T13:10:20Z</time></trkpt><trkpt lat="43.397829527611506" lon="10.429647670804522"><ele>11.0</ele><time>2026-04-06T13:10:21Z</time></trkpt><trkpt lat="43.39791479399826" lon="10.429530436099197"><ele>11.0</ele><time>2026-04-06T13:10:23Z</time></trkpt><trkpt lat="43.39796230579169" lon="10.429471175947752"><ele>11.0</ele><time>2026-04-06T13:10:24Z</time></trkpt><trkpt lat="43.3980443056734" lon="10.429357100403026"><ele>11.0</ele><time>2026-04-06T13:10:26Z</time></trkpt><trkpt lat="43.39809667332869" lon="10.429290295474006"><ele>11.0</ele><time>2026-04-06T13:10:27Z</time></trkpt><trkpt lat="43.3981495686346" lon="10.429223750381853"><ele>11.0</ele><time>2026-04-06T13:10:28Z</time></trkpt><trkpt lat="43.39820665726142" lon="10.42915122207535"><ele>11.0</ele><time>2026-04-06T13:10:29Z</time></trkpt><trkpt lat="43.39826398684443" lon="10.429079226225294"><ele>11.0</ele><time>2026-04-06T13:10:30Z</time></trkpt><trkpt lat="43.398323686499026" lon="10.428993914803252"><ele>11.0</ele><time>2026-04-06T13:10:31Z</time></trkpt><trkpt lat="43.398379335563256" lon="10.428912300153167"><ele>11.0</ele><time>2026-04-06T13:10:32Z</time></trkpt><trkpt lat="43.3984428178504" lon="10.428833087165032"><ele>11.0</ele><time>2026-04-06T13:10:33Z</time></trkpt><trkpt lat="43.39849074646193" lon="10.428764260794598"><ele>11.0</ele><time>2026-04-06T13:10:34Z</time></trkpt><trkpt lat="43.39853541776144" lon="10.428702882452413"><ele>11.0</ele><time>2026-04-06T13:10:35Z</time></trkpt><trkpt lat="43.39862121018718" lon="10.428592463356386"><ele>10.200000000000001</ele><time>2026-04-06T13:10:37Z</time></trkpt><trkpt lat="43.39870417879623" lon="10.428488813192356"><ele>9.4</ele><time>2026-04-06T13:10:39Z</time></trkpt><trkpt lat="43.39879816971393" lon="10.42836324848765"><ele>8.6</ele><time>2026-04-06T13:10:41Z</time></trkpt><trkpt lat="43.39884907523334" lon="10.428294323361357"><ele>7.8</ele><time>2026-04-06T13:10:42Z</time></trkpt><trkpt lat="43.39890919855248" lon="10.428221469442695"><ele>7.0</ele><time>2026-04-06T13:10:43Z</time></trkpt><trkpt lat="43.398968120209055" lon="10.428144379063403"><ele>7.000000000000001</ele><time>2026-04-06T13:10:44Z</time></trkpt><trkpt lat="43.399023690770235" lon="10.428073801476826"><ele>7.0</ele><time>2026-04-06T13:10:45Z</time></trkpt><trkpt lat="43.39907594993301" lon="10.42800593806978"><ele>7.0</ele><time>2026-04-06T13:10:46Z</time></trkpt><trkpt lat="43.39912212070047" lon="10.427941672402293"><ele>7.0</ele><time>2026-04-06T13:10:47Z</time></trkpt><trkpt lat="43.3991673588463" lon="10.427872941075886"><ele>7.000000000000001</ele><time>2026-04-06T13:10:48Z</time></trkpt><trkpt lat="43.3992125952349" lon="10.427804288388675"><ele>7.0</ele><time>2026-04-06T13:10:49Z</time></trkpt><trkpt lat="43.39930045091981" lon="10.427686632462907"><ele>7.166666666666667</ele><time>2026-04-06T13:10:51Z</time></trkpt><trkpt lat="43.39937885134619" lon="10.427586570030545"><ele>7.333333333333334</ele><time>2026-04-06T13:10:53Z</time></trkpt><trkpt lat="43.39942668594943" lon="10.427521956433345"><ele>7.5</ele><time>2026-04-06T13:10:55Z</time></trkpt><trkpt lat="43.39947160770694" lon="10.427443370832256"><ele>7.666666666666666</ele><time>2026-04-06T13:10:59Z</time></trkpt><trkpt lat="43.399538474145395" lon="10.427361432542874"><ele>7.833333333333333</ele><time>2026-04-06T13:11:02Z</time></trkpt><trkpt lat="43.399616668027114" lon="10.427260246815667"><ele>8.0</ele><time>2026-04-06T13:11:04Z</time></trkpt><trkpt lat="43.39969730304692" lon="10.42715436768061"><ele>8.166666666666666</ele><time>2026-04-06T13:11:06Z</time></trkpt><trkpt lat="43.399742223604306" lon="10.427087548246496"><ele>8.333333333333332</ele><time>2026-04-06T13:11:07Z</time></trkpt><trkpt lat="43.39978881040572" lon="10.427012024129706"><ele>8.5</ele><time>2026-04-06T13:11:08Z</time></trkpt><trkpt lat="43.399843192128834" lon="10.426937355585613"><ele>8.666666666666666</ele><time>2026-04-06T13:11:09Z</time></trkpt><trkpt lat="43.39989470812442" lon="10.426867558586999"><ele>8.833333333333334</ele><time>2026-04-06T13:11:10Z</time></trkpt><trkpt lat="43.39994943799476" lon="10.426790817012892"><ele>9.0</ele><time>2026-04-06T13:11:11Z</time></trkpt><trkpt lat="43.40001229829924" lon="10.42671240307308"><ele>9.0</ele><time>2026-04-06T13:11:12Z</time></trkpt><trkpt lat="43.40006406850596" lon="10.426640396306091"><ele>9.0</ele><time>2026-04-06T13:11:13Z</time></trkpt><trkpt lat="43.400123615837146" lon="10.426562414338987"><ele>9.0</ele><time>2026-04-06T13:11:15Z</time></trkpt><trkpt lat="43.40018681883402" lon="10.426473658471524"><ele>9.0</ele><time>2026-04-06T13:11:30Z</time></trkpt><trkpt lat="43.40025014985192" lon="10.426377100746382"><ele>9.0</ele><time>2026-04-06T13:11:32Z</time></trkpt><trkpt lat="43.40032867241228" lon="10.426302421649051"><ele>9.0</ele><time>2026-04-06T13:11:34Z</time></trkpt><trkpt lat="43.400394014141526" lon="10.426214011455933"><ele>9.166666666666666</ele><time>2026-04-06T13:11:36Z</time></trkpt><trkpt lat="43.40047800048374" lon="10.426100374882957"><ele>9.333333333333334</ele><time>2026-04-06T13:11:38Z</time></trkpt><trkpt lat="43.40052738789132" lon="10.426034474798989"><ele>9.5</ele><time>2026-04-06T13:11:39Z</time></trkpt><trkpt lat="43.400579929336075" lon="10.425964500971702"><ele>9.666666666666668</ele><time>2026-04-06T13:11:40Z</time></trkpt><trkpt lat="43.400641678047286" lon="10.425882265062228"><ele>9.833333333333334</ele><time>2026-04-06T13:11:41Z</time></trkpt><trkpt lat="43.400707206811234" lon="10.425794994922475"><ele>10.0</ele><time>2026-04-06T13:11:42Z</time></trkpt><trkpt lat="43.4007663463532" lon="10.42571623386446"><ele>10.0</ele><time>2026-04-06T13:11:43Z</time></trkpt><trkpt lat="43.40080518380124" lon="10.425633928009916"><ele>10.0</ele><time>2026-04-06T13:11:44Z</time></trkpt><trkpt lat="43.40086012622049" lon="10.425591340029907"><ele>10.0</ele><time>2026-04-06T13:11:45Z</time></trkpt><trkpt lat="43.40092722183748" lon="10.425486384987131"><ele>10.0</ele><time>2026-04-06T13:11:47Z</time></trkpt><trkpt lat="43.40100296444806" lon="10.425379069825494"><ele>10.0</ele><time>2026-04-06T13:11:49Z</time></trkpt><trkpt lat="43.4010955781704" lon="10.425260820767038"><ele>10.0</ele><time>2026-04-06T13:11:51Z</time></trkpt><trkpt lat="43.40118557648692" lon="10.42514945443682"><ele>10.0</ele><time>2026-04-06T13:11:53Z</time></trkpt><trkpt lat="43.40127013816617" lon="10.425037145922378"><ele>10.0</ele><time>2026-04-06T13:11:55Z</time></trkpt><trkpt lat="43.40135514896204" lon="10.424925491951107"><ele>10.0</ele><time>2026-04-06T13:11:57Z</time></trkpt><trkpt lat="43.40143950892844" lon="10.424806344438075"><ele>10.0</ele><time>2026-04-06T13:11:59Z</time></trkpt><trkpt lat="43.401529884354346" lon="10.42469213226344"><ele>10.0</ele><time>2026-04-06T13:12:01Z</time></trkpt><trkpt lat="43.40162031588828" lon="10.424576380968084"><ele>10.0</ele><time>2026-04-06T13:12:03Z</time></trkpt><trkpt lat="43.40170794659725" lon="10.424466383347728"><ele>10.0</ele><time>2026-04-06T13:12:05Z</time></trkpt><trkpt lat="43.40179794106379" lon="10.424353524382816"><ele>10.8</ele><time>2026-04-06T13:12:07Z</time></trkpt><trkpt lat="43.40188865694027" lon="10.424247269876902"><ele>11.6</ele><time>2026-04-06T13:12:09Z</time></trkpt><trkpt lat="43.40198160700419" lon="10.424123666472655"><ele>12.399999999999999</ele><time>2026-04-06T13:12:11Z</time></trkpt><trkpt lat="43.40202901331704" lon="10.4240583358179"><ele>13.2</ele><time>2026-04-06T13:12:12Z</time></trkpt><trkpt lat="43.40208379451247" lon="10.423991550897203"><ele>14.0</ele><time>2026-04-06T13:12:13Z</time></trkpt><trkpt lat="43.4021471275631" lon="10.423913126709467"><ele>13.799999999999999</ele><time>2026-04-06T13:12:14Z</time></trkpt><trkpt lat="43.402218560990946" lon="10.423827305967828"><ele>13.599999999999998</ele><time>2026-04-06T13:12:15Z</time></trkpt><trkpt lat="43.40229144266138" lon="10.423727271486893"><ele>13.4</ele><time>2026-04-06T13:12:16Z</time></trkpt><trkpt lat="43.40236066751391" lon="10.423623209782829"><ele>13.2</ele><time>2026-04-06T13:12:17Z</time></trkpt><trkpt lat="43.40242877812144" lon="10.423527120661962"><ele>13.0</ele><time>2026-04-06T13:12:18Z</time></trkpt><trkpt lat="43.4024969091201" lon="10.423435762992643"><ele>13.499999999999998</ele><time>2026-04-06T13:12:19Z</time></trkpt><trkpt lat="43.402562230168535" lon="10.423345455476893"><ele>14.0</ele><time>2026-04-06T13:12:20Z</time></trkpt><trkpt lat="43.402623896255825" lon="10.423259121139848"><ele>14.5</ele><time>2026-04-06T13:12:21Z</time></trkpt><trkpt lat="43.40267789836612" lon="10.423182059273856"><ele>15.0</ele><time>2026-04-06T13:12:22Z</time></trkpt><trkpt lat="43.40273821340653" lon="10.423111313766114"><ele>15.499999999999998</ele><time>2026-04-06T13:12:23Z</time></trkpt><trkpt lat="43.40278780804806" lon="10.423044948851512"><ele>16.0</ele><time>2026-04-06T13:12:24Z</time></trkpt><trkpt lat="43.40288181805256" lon="10.422934005663267"><ele>16.285714285714285</ele><time>2026-04-06T13:12:26Z</time></trkpt><trkpt lat="43.402928383076315" lon="10.422871430856436"><ele>16.57142857142857</ele><time>2026-04-06T13:12:27Z</time></trkpt><trkpt lat="43.40298055018612" lon="10.422804795152762"><ele>16.857142857142858</ele><time>2026-04-06T13:12:28Z</time></trkpt><trkpt lat="43.40304076519377" lon="10.422734684623924"><ele>17.142857142857142</ele><time>2026-04-06T13:12:29Z</time></trkpt><trkpt lat="43.40309568869171" lon="10.422665016069503"><ele>17.42857142857143</ele><time>2026-04-06T13:12:30Z</time></trkpt><trkpt lat="43.403151170637635" lon="10.422595440131335"><ele>17.714285714285715</ele><time>2026-04-06T13:12:31Z</time></trkpt><trkpt lat="43.403200853757276" lon="10.422522361936435"><ele>18.0</ele><time>2026-04-06T13:12:32Z</time></trkpt><trkpt lat="43.4032505856208" lon="10.422450788881044"><ele>18.166666666666668</ele><time>2026-04-06T13:12:33Z</time></trkpt><trkpt lat="43.40330258988785" lon="10.422374948024904"><ele>18.333333333333332</ele><time>2026-04-06T13:12:34Z</time></trkpt><trkpt lat="43.40336024633505" lon="10.422299709514352"><ele>18.5</ele><time>2026-04-06T13:12:35Z</time></trkpt><trkpt lat="43.40342119879633" lon="10.422224421109322"><ele>18.666666666666664</ele><time>2026-04-06T13:12:36Z</time></trkpt><trkpt lat="43.40347704098657" lon="10.422147793552401"><ele>18.833333333333332</ele><time>2026-04-06T13:12:37Z</time></trkpt><trkpt lat="43.40353604910249" lon="10.422075183770664"><ele>19.0</ele><time>2026-04-06T13:12:38Z</time></trkpt><trkpt lat="43.40358868875201" lon="10.422003527047334"><ele>19.0</ele><time>2026-04-06T13:12:39Z</time></trkpt><trkpt lat="43.40363939994891" lon="10.421936076713497"><ele>19.0</ele><time>2026-04-06T13:12:40Z</time></trkpt><trkpt lat="43.403688260412615" lon="10.421870811267507"><ele>19.0</ele><time>2026-04-06T13:12:41Z</time></trkpt><trkpt lat="43.40373390498207" lon="10.421809331098641"><ele>19.0</ele><time>2026-04-06T13:12:42Z</time></trkpt><trkpt lat="43.40381412414919" lon="10.421694210115465"><ele>19.0</ele><time>2026-04-06T13:12:44Z</time></trkpt><trkpt lat="43.40385897728487" lon="10.421632463808404"><ele>19.0</ele><time>2026-04-06T13:12:45Z</time></trkpt><trkpt lat="43.403906774103284" lon="10.421569871116562"><ele>19.0</ele><time>2026-04-06T13:12:46Z</time></trkpt><trkpt lat="43.40395717694796" lon="10.42149989198276"><ele>18.666666666666664</ele><time>2026-04-06T13:12:47Z</time></trkpt><trkpt lat="43.40400709447899" lon="10.42142876994015"><ele>18.333333333333332</ele><time>2026-04-06T13:12:48Z</time></trkpt><trkpt lat="43.40405860002694" lon="10.421354868887672"><ele>18.0</ele><time>2026-04-06T13:12:49Z</time></trkpt><trkpt lat="43.4040977206812" lon="10.421286695537518"><ele>17.666666666666668</ele><time>2026-04-06T13:12:50Z</time></trkpt><trkpt lat="43.40416895147893" lon="10.42115515756557"><ele>17.333333333333336</ele><time>2026-04-06T13:12:52Z</time></trkpt><trkpt lat="43.404215136306526" lon="10.42102611654394"><ele>17.0</ele><time>2026-04-06T13:12:54Z</time></trkpt><trkpt lat="43.40424862821284" lon="10.420877451678518"><ele>16.6</ele><time>2026-04-06T13:12:56Z</time></trkpt><trkpt lat="43.40426700765369" lon="10.420769299291733"><ele>16.2</ele><time>2026-04-06T13:12:58Z</time></trkpt><trkpt lat="43.4042877486376" lon="10.420640458032707"><ele>15.8</ele><time>2026-04-06T13:13:06Z</time></trkpt><trkpt lat="43.40429998703502" lon="10.420500934522051"><ele>15.4</ele><time>2026-04-06T13:13:08Z</time></trkpt><trkpt lat="43.404316432697925" lon="10.420352170153409"><ele>15.0</ele><time>2026-04-06T13:13:10Z</time></trkpt><trkpt lat="43.40433693418106" lon="10.42020184612708"><ele>15.0</ele><time>2026-04-06T13:13:12Z</time></trkpt><trkpt lat="43.40434546328603" lon="10.420077380272502"><ele>15.0</ele><time>2026-04-06T13:13:14Z</time></trkpt><trkpt lat="43.40435697033191" lon="10.419962121560845"><ele>15.0</ele><time>2026-04-06T13:13:16Z</time></trkpt><trkpt lat="43.40436763488087" lon="10.419843111601043"><ele>15.0</ele><time>2026-04-06T13:13:18Z</time></trkpt><trkpt lat="43.40438342728133" lon="10.41967319100128"><ele>15.0</ele><time>2026-04-06T13:13:20Z</time></trkpt><trkpt lat="43.40440236700922" lon="10.419567286225167"><ele>15.0</ele><time>2026-04-06T13:13:21Z</time></trkpt><trkpt lat="43.404414695354006" lon="10.4194515322746"><ele>15.0</ele><time>2026-04-06T13:13:22Z</time></trkpt><trkpt lat="43.40442031526137" lon="10.419343485561095"><ele>15.0</ele><time>2026-04-06T13:13:23Z</time></trkpt><trkpt lat="43.404426246181" lon="10.419236416004674"><ele>15.0</ele><time>2026-04-06T13:13:24Z</time></trkpt><trkpt lat="43.40444117322148" lon="10.419121989327442"><ele>15.0</ele><time>2026-04-06T13:13:25Z</time></trkpt><trkpt lat="43.4044556698016" lon="10.419006619894057"><ele>15.0</ele><time>2026-04-06T13:13:26Z</time></trkpt><trkpt lat="43.40446714796366" lon="10.41890696079013"><ele>15.285714285714286</ele><time>2026-04-06T13:13:27Z</time></trkpt><trkpt lat="43.40447979159655" lon="10.418806442908936"><ele>15.57142857142857</ele><time>2026-04-06T13:13:28Z</time></trkpt><trkpt lat="43.40449090684181" lon="10.418705565078598"><ele>15.857142857142856</ele><time>2026-04-06T13:13:29Z</time></trkpt><trkpt lat="43.40449981685029" lon="10.418611886663179"><ele>16.142857142857142</ele><time>2026-04-06T13:13:30Z</time></trkpt><trkpt lat="43.404511053148894" lon="10.418511282032908"><ele>16.428571428571427</ele><time>2026-04-06T13:13:31Z</time></trkpt><trkpt lat="43.40452381826686" lon="10.418411222323014"><ele>16.71428571428571</ele><time>2026-04-06T13:13:32Z</time></trkpt><trkpt lat="43.40453202528538" lon="10.418317726475559"><ele>17.0</ele><time>2026-04-06T13:13:33Z</time></trkpt><trkpt lat="43.404543184729675" lon="10.418222100010192"><ele>17.0</ele><time>2026-04-06T13:13:34Z</time></trkpt><trkpt lat="43.4045495976731" lon="10.418124496735127"><ele>17.0</ele><time>2026-04-06T13:13:35Z</time></trkpt><trkpt lat="43.404559295419695" lon="10.417963625152069"><ele>17.0</ele><time>2026-04-06T13:13:37Z</time></trkpt><trkpt lat="43.40457185988177" lon="10.417833112936048"><ele>17.0</ele><time>2026-04-06T13:13:39Z</time></trkpt><trkpt lat="43.40459603491918" lon="10.417701504245027"><ele>17.0</ele><time>2026-04-06T13:13:41Z</time></trkpt><trkpt lat="43.40461660584014" lon="10.4175458939146"><ele>17.166666666666668</ele><time>2026-04-06T13:13:43Z</time></trkpt><trkpt lat="43.40462198986432" lon="10.417449748286307"><ele>17.333333333333336</ele><time>2026-04-06T13:13:44Z</time></trkpt><trkpt lat="43.404633596139796" lon="10.417363886767507"><ele>17.5</ele><time>2026-04-06T13:13:45Z</time></trkpt><trkpt lat="43.40464288451895" lon="10.41726766310733"><ele>17.666666666666668</ele><time>2026-04-06T13:13:46Z</time></trkpt><trkpt lat="43.404651772016834" lon="10.417172937585349"><ele>17.833333333333332</ele><time>2026-04-06T13:13:47Z</time></trkpt><trkpt lat="43.404663380513526" lon="10.417011906017526"><ele>18.0</ele><time>2026-04-06T13:13:49Z</time></trkpt><trkpt lat="43.404674182802914" lon="10.416855236424674"><ele>18.166666666666668</ele><time>2026-04-06T13:13:51Z</time></trkpt><trkpt lat="43.40467993497181" lon="10.416768019992821"><ele>18.333333333333332</ele><time>2026-04-06T13:13:52Z</time></trkpt><trkpt lat="43.404682284434905" lon="10.416612186560558"><ele>18.5</ele><time>2026-04-06T13:13:54Z</time></trkpt><trkpt lat="43.404695751193096" lon="10.416500342654464"><ele>18.666666666666664</ele><time>2026-04-06T13:13:56Z</time></trkpt><trkpt lat="43.40468526470345" lon="10.41640221350732"><ele>18.833333333333332</ele><time>2026-04-06T13:13:58Z</time></trkpt><trkpt lat="43.404665877054455" lon="10.416290218327392"><ele>19.0</ele><time>2026-04-06T13:14:00Z</time></trkpt><trkpt lat="43.404644826557245" lon="10.41619308422045"><ele>18.333333333333332</ele><time>2026-04-06T13:14:02Z</time></trkpt><trkpt lat="43.40461282272384" lon="10.416065522450522"><ele>17.666666666666664</ele><time>2026-04-06T13:14:04Z</time></trkpt><trkpt lat="43.40457064261118" lon="10.415913653510835"><ele>17.0</ele><time>2026-04-06T13:14:06Z</time></trkpt><trkpt lat="43.40454867058014" lon="10.415819159006682"><ele>16.333333333333332</ele><time>2026-04-06T13:14:07Z</time></trkpt><trkpt lat="43.40452442508161" lon="10.415710553007445"><ele>15.666666666666666</ele><time>2026-04-06T13:14:08Z</time></trkpt><trkpt lat="43.404497502619996" lon="10.415613980906945"><ele>15.0</ele><time>2026-04-06T13:14:09Z</time></trkpt><trkpt lat="43.404472366375" lon="10.415524343213573"><ele>15.333333333333334</ele><time>2026-04-06T13:14:10Z</time></trkpt><trkpt lat="43.40444827731971" lon="10.41543190913727"><ele>15.666666666666668</ele><time>2026-04-06T13:14:11Z</time></trkpt><trkpt lat="43.40444285786289" lon="10.415334832408835"><ele>16.0</ele><time>2026-04-06T13:14:12Z</time></trkpt><trkpt lat="43.40442652021628" lon="10.415236542043479"><ele>16.333333333333336</ele><time>2026-04-06T13:14:13Z</time></trkpt><trkpt lat="43.40441221226196" lon="10.415134987955375"><ele>16.666666666666668</ele><time>2026-04-06T13:14:14Z</time></trkpt><trkpt lat="43.40440649438139" lon="10.41496595692123"><ele>17.0</ele><time>2026-04-06T13:14:16Z</time></trkpt><trkpt lat="43.40439768169191" lon="10.41480614694207"><ele>17.0</ele><time>2026-04-06T13:14:18Z</time></trkpt><trkpt lat="43.404394687392546" lon="10.414657128449731"><ele>17.0</ele><time>2026-04-06T13:14:20Z</time></trkpt><trkpt lat="43.404392049129385" lon="10.414520826214888"><ele>17.0</ele><time>2026-04-06T13:14:22Z</time></trkpt><trkpt lat="43.40439140703344" lon="10.414389785821498"><ele>17.0</ele><time>2026-04-06T13:14:24Z</time></trkpt><trkpt lat="43.40438565753302" lon="10.414237126395243"><ele>17.0</ele><time>2026-04-06T13:14:26Z</time></trkpt><trkpt lat="43.40438324016246" lon="10.414141910821467"><ele>17.166666666666668</ele><time>2026-04-06T13:14:27Z</time></trkpt><trkpt lat="43.40438046002009" lon="10.414040443879681"><ele>17.333333333333336</ele><time>2026-04-06T13:14:28Z</time></trkpt><trkpt lat="43.404388790551096" lon="10.413922736647638"><ele>17.5</ele><time>2026-04-06T13:14:29Z</time></trkpt><trkpt lat="43.4043989202793" lon="10.41379422390039"><ele>17.666666666666668</ele><time>2026-04-06T13:14:30Z</time></trkpt><trkpt lat="43.40441416672488" lon="10.413658072938734"><ele>17.833333333333332</ele><time>2026-04-06T13:14:31Z</time></trkpt><trkpt lat="43.40444235911886" lon="10.413540193863838"><ele>18.0</ele><time>2026-04-06T13:14:32Z</time></trkpt><trkpt lat="43.40446076615921" lon="10.413428296911725"><ele>18.000000000000004</ele><time>2026-04-06T13:14:33Z</time></trkpt><trkpt lat="43.404474897231914" lon="10.413325972252554"><ele>18.0</ele><time>2026-04-06T13:14:34Z</time></trkpt><trkpt lat="43.404490866282565" lon="10.413228420911903"><ele>18.0</ele><time>2026-04-06T13:14:35Z</time></trkpt><trkpt lat="43.4045047954322" lon="10.41312945622016"><ele>18.0</ele><time>2026-04-06T13:14:36Z</time></trkpt><trkpt lat="43.404522222696954" lon="10.413029301017115"><ele>18.0</ele><time>2026-04-06T13:14:37Z</time></trkpt><trkpt lat="43.40454161510685" lon="10.412927099459779"><ele>18.000000000000004</ele><time>2026-04-06T13:14:38Z</time></trkpt><trkpt lat="43.40455513610032" lon="10.412827909535327"><ele>18.0</ele><time>2026-04-06T13:14:39Z</time></trkpt><trkpt lat="43.4045742767011" lon="10.412742332293828"><ele>18.4</ele><time>2026-04-06T13:14:40Z</time></trkpt><trkpt lat="43.404600279271925" lon="10.412578332333092"><ele>18.8</ele><time>2026-04-06T13:14:42Z</time></trkpt><trkpt lat="43.40462152383251" lon="10.41241004972247"><ele>19.2</ele><time>2026-04-06T13:14:44Z</time></trkpt><trkpt lat="43.40463768297514" lon="10.412322243152081"><ele>19.6</ele><time>2026-04-06T13:14:45Z</time></trkpt><trkpt lat="43.404651209573416" lon="10.412229478947893"><ele>20.0</ele><time>2026-04-06T13:14:46Z</time></trkpt><trkpt lat="43.40467099862326" lon="10.412137500133946"><ele>21.5</ele><time>2026-04-06T13:14:47Z</time></trkpt><trkpt lat="43.40469027758706" lon="10.412039802451119"><ele>23.0</ele><time>2026-04-06T13:14:48Z</time></trkpt><trkpt lat="43.404713907376596" lon="10.411943266487759"><ele>24.5</ele><time>2026-04-06T13:14:49Z</time></trkpt><trkpt lat="43.40473725120892" lon="10.411845976368944"><ele>26.0</ele><time>2026-04-06T13:14:50Z</time></trkpt><trkpt lat="43.40477520693644" lon="10.411712472485302"><ele>27.499999999999996</ele><time>2026-04-06T13:14:52Z</time></trkpt><trkpt lat="43.40480658350871" lon="10.411612688390953"><ele>29.0</ele><time>2026-04-06T13:14:54Z</time></trkpt><trkpt lat="43.40483102128221" lon="10.411522725868418"><ele>29.0</ele><time>2026-04-06T13:14:56Z</time></trkpt><trkpt lat="43.40486836642269" lon="10.411393707926221"><ele>29.0</ele><time>2026-04-06T13:14:58Z</time></trkpt><trkpt lat="43.40491736812647" lon="10.411230859794468"><ele>29.0</ele><time>2026-04-06T13:15:00Z</time></trkpt><trkpt lat="43.40494826021773" lon="10.411127850939714"><ele>29.0</ele><time>2026-04-06T13:15:01Z</time></trkpt><trkpt lat="43.4049899275854" lon="10.411017832407"><ele>29.0</ele><time>2026-04-06T13:15:02Z</time></trkpt><trkpt lat="43.40503205217507" lon="10.410903781715078"><ele>29.166666666666664</ele><time>2026-04-06T13:15:03Z</time></trkpt><trkpt lat="43.40507993060206" lon="10.410795269692601"><ele>29.333333333333332</ele><time>2026-04-06T13:15:04Z</time></trkpt><trkpt lat="43.40513639790862" lon="10.410686916019399"><ele>29.5</ele><time>2026-04-06T13:15:05Z</time></trkpt><trkpt lat="43.40518536127605" lon="10.410593150926841"><ele>29.666666666666664</ele><time>2026-04-06T13:15:06Z</time></trkpt><trkpt lat="43.405236604883115" lon="10.410514377730347"><ele>29.833333333333332</ele><time>2026-04-06T13:15:07Z</time></trkpt><trkpt lat="43.40528458153886" lon="10.410446214341444"><ele>30.0</ele><time>2026-04-06T13:15:08Z</time></trkpt><trkpt lat="43.405365858899415" lon="10.410337598885993"><ele>30.2</ele><time>2026-04-06T13:15:10Z</time></trkpt><trkpt lat="43.405421813871065" lon="10.410279143889923"><ele>30.4</ele><time>2026-04-06T13:15:11Z</time></trkpt><trkpt lat="43.40551933630389" lon="10.410179525950644"><ele>30.6</ele><time>2026-04-06T13:15:13Z</time></trkpt><trkpt lat="43.405619091325185" lon="10.410072060304893"><ele>30.8</ele><time>2026-04-06T13:15:15Z</time></trkpt><trkpt lat="43.405665561065796" lon="10.410005471773749"><ele>31.0</ele><time>2026-04-06T13:15:16Z</time></trkpt><trkpt lat="43.40571050766014" lon="10.40993007344685"><ele>31.166666666666668</ele><time>2026-04-06T13:15:17Z</time></trkpt><trkpt lat="43.40575939173014" lon="10.40984894753155"><ele>31.333333333333336</ele><time>2026-04-06T13:15:18Z</time></trkpt><trkpt lat="43.40581036735389" lon="10.409759685629377"><ele>31.5</ele><time>2026-04-06T13:15:19Z</time></trkpt><trkpt lat="43.405862633371434" lon="10.409664768090247"><ele>31.666666666666664</ele><time>2026-04-06T13:15:20Z</time></trkpt><trkpt lat="43.40592196090515" lon="10.409572336915506"><ele>31.833333333333332</ele><time>2026-04-06T13:15:21Z</time></trkpt><trkpt lat="43.405983890669305" lon="10.409478926338513"><ele>32.0</ele><time>2026-04-06T13:15:22Z</time></trkpt><trkpt lat="43.406046164078674" lon="10.40940067917754"><ele>31.499999999999996</ele><time>2026-04-06T13:15:23Z</time></trkpt><trkpt lat="43.40611444321498" lon="10.40933283977603"><ele>31.0</ele><time>2026-04-06T13:15:24Z</time></trkpt><trkpt lat="43.406177894208746" lon="10.409266818664271"><ele>30.5</ele><time>2026-04-06T13:15:25Z</time></trkpt><trkpt lat="43.40624857441326" lon="10.409206822701544"><ele>30.0</ele><time>2026-04-06T13:15:26Z</time></trkpt><trkpt lat="43.40632370878642" lon="10.409160077795477"><ele>29.499999999999996</ele><time>2026-04-06T13:15:27Z</time></trkpt><trkpt lat="43.40640716262775" lon="10.40910504740349"><ele>29.0</ele><time>2026-04-06T13:15:28Z</time></trkpt><trkpt lat="43.40648929098948" lon="10.409035080484141"><ele>29.0</ele><time>2026-04-06T13:15:29Z</time></trkpt><trkpt lat="43.40658427938005" lon="10.408960647744966"><ele>29.0</ele><time>2026-04-06T13:15:30Z</time></trkpt><trkpt lat="43.406679962713326" lon="10.408882384163334"><ele>29.0</ele><time>2026-04-06T13:15:31Z</time></trkpt><trkpt lat="43.406776744092824" lon="10.408796800674493"><ele>29.0</ele><time>2026-04-06T13:15:32Z</time></trkpt><trkpt lat="43.40687432132722" lon="10.40871514483885"><ele>27.4</ele><time>2026-04-06T13:15:33Z</time></trkpt><trkpt lat="43.40697072181746" lon="10.408637749207672"><ele>25.799999999999997</ele><time>2026-04-06T13:15:34Z</time></trkpt><trkpt lat="43.40706642316991" lon="10.408562979885595"><ele>24.200000000000003</ele><time>2026-04-06T13:15:35Z</time></trkpt><trkpt lat="43.407160808172286" lon="10.408483289985238"><ele>22.6</ele><time>2026-04-06T13:15:36Z</time></trkpt><trkpt lat="43.40726658281301" lon="10.408420085290777"><ele>21.0</ele><time>2026-04-06T13:15:37Z</time></trkpt><trkpt lat="43.40737420168979" lon="10.408352306603101"><ele>21.0</ele><time>2026-04-06T13:15:38Z</time></trkpt><trkpt lat="43.407477149609555" lon="10.408287514396605"><ele>21.0</ele><time>2026-04-06T13:15:39Z</time></trkpt><trkpt lat="43.40758664696095" lon="10.408236425980027"><ele>21.0</ele><time>2026-04-06T13:15:40Z</time></trkpt><trkpt lat="43.40769367394281" lon="10.40818043909404"><ele>21.0</ele><time>2026-04-06T13:15:41Z</time></trkpt><trkpt lat="43.40780441250624" lon="10.40812849429757"><ele>21.0</ele><time>2026-04-06T13:15:42Z</time></trkpt><trkpt lat="43.40791352957801" lon="10.408076122548685"><ele>21.0</ele><time>2026-04-06T13:15:43Z</time></trkpt><trkpt lat="43.40802662940672" lon="10.408033960921387"><ele>21.0</ele><time>2026-04-06T13:15:44Z</time></trkpt><trkpt lat="43.408147451773104" lon="10.407973319450477"><ele>21.0</ele><time>2026-04-06T13:15:45Z</time></trkpt><trkpt lat="43.40825862759527" lon="10.407937442990361"><ele>19.25</ele><time>2026-04-06T13:15:46Z</time></trkpt><trkpt lat="43.408377395244855" lon="10.407896886619994"><ele>17.5</ele><time>2026-04-06T13:15:47Z</time></trkpt><trkpt lat="43.40850045429711" lon="10.407860140709346"><ele>15.75</ele><time>2026-04-06T13:15:48Z</time></trkpt><trkpt lat="43.408627579429314" lon="10.407820457374262"><ele>14.0</ele><time>2026-04-06T13:15:49Z</time></trkpt><trkpt lat="43.40875533417242" lon="10.407778636713985"><ele>14.5</ele><time>2026-04-06T13:15:50Z</time></trkpt><trkpt lat="43.40888212259323" lon="10.407734917954594"><ele>15.0</ele><time>2026-04-06T13:15:51Z</time></trkpt><trkpt lat="43.409007016957155" lon="10.407693061302197"><ele>15.5</ele><time>2026-04-06T13:15:52Z</time></trkpt><trkpt lat="43.409118103483486" lon="10.407652149703425"><ele>16.0</ele><time>2026-04-06T13:15:53Z</time></trkpt><trkpt lat="43.40922488841062" lon="10.40762031162906"><ele>16.0</ele><time>2026-04-06T13:15:54Z</time></trkpt><trkpt lat="43.40933097110006" lon="10.407601234464947"><ele>16.0</ele><time>2026-04-06T13:15:55Z</time></trkpt><trkpt lat="43.40943744194317" lon="10.407594594034725"><ele>16.0</ele><time>2026-04-06T13:15:56Z</time></trkpt><trkpt lat="43.40955367455286" lon="10.407601215112852"><ele>16.0</ele><time>2026-04-06T13:15:57Z</time></trkpt><trkpt lat="43.40967108937873" lon="10.407619676391986"><ele>16.0</ele><time>2026-04-06T13:15:58Z</time></trkpt><trkpt lat="43.409778737129436" lon="10.407630945661948"><ele>16.400000000000002</ele><time>2026-04-06T13:15:59Z</time></trkpt><trkpt lat="43.4098799048322" lon="10.407639859670764"><ele>16.8</ele><time>2026-04-06T13:16:00Z</time></trkpt><trkpt lat="43.40997686277878" lon="10.407645485492582"><ele>17.200000000000003</ele><time>2026-04-06T13:16:01Z</time></trkpt><trkpt lat="43.410079647347615" lon="10.407632590142423"><ele>17.6</ele><time>2026-04-06T13:16:02Z</time></trkpt><trkpt lat="43.41016434855677" lon="10.407591884009054"><ele>18.0</ele><time>2026-04-06T13:16:03Z</time></trkpt><trkpt lat="43.410225643717446" lon="10.407512568365219"><ele>18.0</ele><time>2026-04-06T13:16:04Z</time></trkpt><trkpt lat="43.41026813840531" lon="10.407407836152451"><ele>18.0</ele><time>2026-04-06T13:16:05Z</time></trkpt><trkpt lat="43.41027677933701" lon="10.407286346156276"><ele>18.0</ele><time>2026-04-06T13:16:06Z</time></trkpt><trkpt lat="43.410266219876696" lon="10.407150576818145"><ele>18.0</ele><time>2026-04-06T13:16:07Z</time></trkpt><trkpt lat="43.41024016242308" lon="10.407001032372696"><ele>18.0</ele><time>2026-04-06T13:16:08Z</time></trkpt><trkpt lat="43.4102158003504" lon="10.4068361911063"><ele>18.0</ele><time>2026-04-06T13:16:09Z</time></trkpt><trkpt lat="43.410195442927055" lon="10.406655439364956"><ele>18.0</ele><time>2026-04-06T13:16:10Z</time></trkpt><trkpt lat="43.41017000395421" lon="10.406496921004534"><ele>18.0</ele><time>2026-04-06T13:16:11Z</time></trkpt><trkpt lat="43.4101458474611" lon="10.406325330089036"><ele>18.0</ele><time>2026-04-06T13:16:12Z</time></trkpt><trkpt lat="43.41012934974476" lon="10.40615407908339"><ele>18.0</ele><time>2026-04-06T13:16:13Z</time></trkpt><trkpt lat="43.41011536223569" lon="10.405990915277808"><ele>18.0</ele><time>2026-04-06T13:16:14Z</time></trkpt><trkpt lat="43.410105726812375" lon="10.405822887126693"><ele>18.0</ele><time>2026-04-06T13:16:15Z</time></trkpt><trkpt lat="43.41010779418252" lon="10.405651227670017"><ele>18.0</ele><time>2026-04-06T13:16:16Z</time></trkpt><trkpt lat="43.41012223172511" lon="10.405470684163065"><ele>17.25</ele><time>2026-04-06T13:16:17Z</time></trkpt><trkpt lat="43.41015778337858" lon="10.405273912018519"><ele>16.5</ele><time>2026-04-06T13:16:18Z</time></trkpt><trkpt lat="43.41019611702628" lon="10.405072817636267"><ele>15.75</ele><time>2026-04-06T13:16:19Z</time></trkpt><trkpt lat="43.410238308956146" lon="10.404885221664157"><ele>15.0</ele><time>2026-04-06T13:16:20Z</time></trkpt><trkpt lat="43.410276622205586" lon="10.404723016102174"><ele>12.75</ele><time>2026-04-06T13:16:21Z</time></trkpt><trkpt lat="43.410325390012055" lon="10.40457035274697"><ele>10.5</ele><time>2026-04-06T13:16:22Z</time></trkpt><trkpt lat="43.41038974138" lon="10.404420475501887"><ele>8.25</ele><time>2026-04-06T13:16:23Z</time></trkpt><trkpt lat="43.41044596994874" lon="10.404289426177463"><ele>6.0</ele><time>2026-04-06T13:16:24Z</time></trkpt><trkpt lat="43.41052807358516" lon="10.404195601971002"><ele>11.0</ele><time>2026-04-06T13:16:25Z</time></trkpt><trkpt lat="43.41062530113698" lon="10.404099373335805"><ele>16.0</ele><time>2026-04-06T13:16:26Z</time></trkpt><trkpt lat="43.410733430435364" lon="10.404013760014847"><ele>21.0</ele><time>2026-04-06T13:16:27Z</time></trkpt><trkpt lat="43.410846025395095" lon="10.403945975396345"><ele>26.0</ele><time>2026-04-06T13:16:28Z</time></trkpt><trkpt lat="43.41095814508847" lon="10.40390950615187"><ele>26.0</ele><time>2026-04-06T13:16:29Z</time></trkpt><trkpt lat="43.411070716259374" lon="10.403896682186703"><ele>26.0</ele><time>2026-04-06T13:16:30Z</time></trkpt><trkpt lat="43.41118083945452" lon="10.40390132650448"><ele>26.0</ele><time>2026-04-06T13:16:31Z</time></trkpt><trkpt lat="43.411297355987685" lon="10.403915532222038"><ele>26.0</ele><time>2026-04-06T13:16:32Z</time></trkpt><trkpt lat="43.411413526236885" lon="10.403946919066666"><ele>26.25</ele><time>2026-04-06T13:16:33Z</time></trkpt><trkpt lat="43.411527210371716" lon="10.403997650718539"><ele>26.5</ele><time>2026-04-06T13:16:34Z</time></trkpt><trkpt lat="43.41163792306684" lon="10.40403390881581"><ele>26.75</ele><time>2026-04-06T13:16:35Z</time></trkpt><trkpt lat="43.41175265245109" lon="10.404073535117762"><ele>27.0</ele><time>2026-04-06T13:16:36Z</time></trkpt><trkpt lat="43.41187543608869" lon="10.404118300258299"><ele>27.0</ele><time>2026-04-06T13:16:37Z</time></trkpt><trkpt lat="43.41200396898147" lon="10.404150203913993"><ele>27.0</ele><time>2026-04-06T13:16:38Z</time></trkpt><trkpt lat="43.41212915894707" lon="10.404154744970826"><ele>27.0</ele><time>2026-04-06T13:16:39Z</time></trkpt><trkpt lat="43.41224863065494" lon="10.404136179912747"><ele>27.0</ele><time>2026-04-06T13:16:40Z</time></trkpt><trkpt lat="43.41236136651497" lon="10.404089920722333"><ele>28.5</ele><time>2026-04-06T13:16:41Z</time></trkpt><trkpt lat="43.41248001091426" lon="10.40401738400649"><ele>30.0</ele><time>2026-04-06T13:16:42Z</time></trkpt><trkpt lat="43.41258475204895" lon="10.403924351745205"><ele>31.5</ele><time>2026-04-06T13:16:43Z</time></trkpt><trkpt lat="43.41269267107884" lon="10.403809605941266"><ele>33.0</ele><time>2026-04-06T13:16:44Z</time></trkpt><trkpt lat="43.412797644989794" lon="10.403677659850961"><ele>33.75</ele><time>2026-04-06T13:16:45Z</time></trkpt><trkpt lat="43.4128918989972" lon="10.403525719288586"><ele>34.5</ele><time>2026-04-06T13:16:46Z</time></trkpt><trkpt lat="43.41297861422056" lon="10.403372835318981"><ele>35.25</ele><time>2026-04-06T13:16:47Z</time></trkpt><trkpt lat="43.41305999876328" lon="10.403228483884861"><ele>36.0</ele><time>2026-04-06T13:16:48Z</time></trkpt><trkpt lat="43.41313949660526" lon="10.403092183197947"><ele>31.8</ele><time>2026-04-06T13:16:49Z</time></trkpt><trkpt lat="43.41322576843779" lon="10.402968255763149"><ele>27.6</ele><time>2026-04-06T13:16:50Z</time></trkpt><trkpt lat="43.41330779243505" lon="10.402856659919722"><ele>23.4</ele><time>2026-04-06T13:16:51Z</time></trkpt><trkpt lat="43.41338919218543" lon="10.40276698050166"><ele>19.2</ele><time>2026-04-06T13:16:52Z</time></trkpt><trkpt lat="43.4134825083741" lon="10.402714945247812"><ele>15.0</ele><time>2026-04-06T13:16:53Z</time></trkpt><trkpt lat="43.41358357748549" lon="10.402680735527131"><ele>15.0</ele><time>2026-04-06T13:16:54Z</time></trkpt><trkpt lat="43.41368883669216" lon="10.402663891186833"><ele>15.0</ele><time>2026-04-06T13:16:55Z</time></trkpt><trkpt lat="43.4137904417235" lon="10.402676395435753"><ele>15.0</ele><time>2026-04-06T13:16:56Z</time></trkpt><trkpt lat="43.41390308167857" lon="10.402720366596437"><ele>15.0</ele><time>2026-04-06T13:16:57Z</time></trkpt><trkpt lat="43.41402258197259" lon="10.40274812132113"><ele>15.0</ele><time>2026-04-06T13:16:58Z</time></trkpt><trkpt lat="43.41414805901104" lon="10.402733207417816"><ele>16.75</ele><time>2026-04-06T13:16:59Z</time></trkpt><trkpt lat="43.414280398818015" lon="10.402681715663814"><ele>18.5</ele><time>2026-04-06T13:17:00Z</time></trkpt><trkpt lat="43.41440737985578" lon="10.402597372332831"><ele>20.25</ele><time>2026-04-06T13:17:01Z</time></trkpt><trkpt lat="43.414532663340054" lon="10.402518655666784"><ele>22.0</ele><time>2026-04-06T13:17:02Z</time></trkpt><trkpt lat="43.41464524049184" lon="10.402434975606063"><ele>24.25</ele><time>2026-04-06T13:17:03Z</time></trkpt><trkpt lat="43.414745729609876" lon="10.402344229177436"><ele>26.5</ele><time>2026-04-06T13:17:04Z</time></trkpt><trkpt lat="43.414840240843716" lon="10.402254392927773"><ele>28.75</ele><time>2026-04-06T13:17:05Z</time></trkpt><trkpt lat="43.414939277526244" lon="10.402188409061937"><ele>31.0</ele><time>2026-04-06T13:17:06Z</time></trkpt><trkpt lat="43.41504436377302" lon="10.402141538471977"><ele>29.6</ele><time>2026-04-06T13:17:07Z</time></trkpt><trkpt lat="43.41515216906951" lon="10.402111219251973"><ele>28.200000000000003</ele><time>2026-04-06T13:17:08Z</time></trkpt><trkpt lat="43.41524917516442" lon="10.402096758467785"><ele>26.799999999999997</ele><time>2026-04-06T13:17:09Z</time></trkpt><trkpt lat="43.41534368417261" lon="10.402064232678912"><ele>25.4</ele><time>2026-04-06T13:17:10Z</time></trkpt><trkpt lat="43.41543084034721" lon="10.401999288114363"><ele>24.0</ele><time>2026-04-06T13:17:11Z</time></trkpt><trkpt lat="43.41551141396559" lon="10.401906591971207"><ele>24.0</ele><time>2026-04-06T13:17:12Z</time></trkpt><trkpt lat="43.415583185328245" lon="10.401812383852773"><ele>24.0</ele><time>2026-04-06T13:17:13Z</time></trkpt><trkpt lat="43.41564718658963" lon="10.40172298444477"><ele>24.0</ele><time>2026-04-06T13:17:14Z</time></trkpt><trkpt lat="43.4157082102199" lon="10.401633477961683"><ele>24.0</ele><time>2026-04-06T13:17:15Z</time></trkpt><trkpt lat="43.415768056222" lon="10.401552640454508"><ele>24.0</ele><time>2026-04-06T13:17:16Z</time></trkpt><trkpt lat="43.4158387402303" lon="10.401479704921316"><ele>24.0</ele><time>2026-04-06T13:17:17Z</time></trkpt><trkpt lat="43.41591246312997" lon="10.40142070263253"><ele>24.0</ele><time>2026-04-06T13:17:18Z</time></trkpt><trkpt lat="43.41599455480864" lon="10.401385004629734"><ele>24.0</ele><time>2026-04-06T13:17:19Z</time></trkpt><trkpt lat="43.41608552192963" lon="10.401363432234596"><ele>24.0</ele><time>2026-04-06T13:17:20Z</time></trkpt><trkpt lat="43.416182756054745" lon="10.401347207852758"><ele>24.0</ele><time>2026-04-06T13:17:21Z</time></trkpt><trkpt lat="43.41628574091167" lon="10.401339279226896"><ele>24.4</ele><time>2026-04-06T13:17:22Z</time></trkpt><trkpt lat="43.41638986779721" lon="10.401350162919185"><ele>24.799999999999997</ele><time>2026-04-06T13:17:23Z</time></trkpt><trkpt lat="43.41649832117155" lon="10.40137294817149"><ele>25.200000000000003</ele><time>2026-04-06T13:17:24Z</time></trkpt><trkpt lat="43.41660660103849" lon="10.401396778645735"><ele>25.6</ele><time>2026-04-06T13:17:25Z</time></trkpt><trkpt lat="43.41672567453603" lon="10.40142028425105"><ele>26.0</ele><time>2026-04-06T13:17:26Z</time></trkpt><trkpt lat="43.41684113933717" lon="10.401445288663009"><ele>26.0</ele><time>2026-04-06T13:17:27Z</time></trkpt><trkpt lat="43.41696059091687" lon="10.401472456527378"><ele>26.0</ele><time>2026-04-06T13:17:28Z</time></trkpt><trkpt lat="43.41708742369816" lon="10.401499669168064"><ele>26.0</ele><time>2026-04-06T13:17:29Z</time></trkpt><trkpt lat="43.417213370322884" lon="10.40152826114912"><ele>26.0</ele><time>2026-04-06T13:17:30Z</time></trkpt><trkpt lat="43.41733189686721" lon="10.401538909627163"><ele>24.8</ele><time>2026-04-06T13:17:31Z</time></trkpt><trkpt lat="43.41743935655002" lon="10.401556888683059"><ele>23.6</ele><time>2026-04-06T13:17:32Z</time></trkpt><trkpt lat="43.41754244797736" lon="10.401577305095183"><ele>22.4</ele><time>2026-04-06T13:17:33Z</time></trkpt><trkpt lat="43.417650178819294" lon="10.401600864843005"><ele>21.2</ele><time>2026-04-06T13:17:34Z</time></trkpt><trkpt lat="43.41775578351119" lon="10.401626166512855"><ele>20.0</ele><time>2026-04-06T13:17:35Z</time></trkpt><trkpt lat="43.417858598479214" lon="10.40165121937458"><ele>20.0</ele><time>2026-04-06T13:17:36Z</time></trkpt><trkpt lat="43.41795631506337" lon="10.401671703580961"><ele>20.0</ele><time>2026-04-06T13:17:37Z</time></trkpt><trkpt lat="43.418059985191654" lon="10.40168983232883"><ele>20.0</ele><time>2026-04-06T13:17:38Z</time></trkpt><trkpt lat="43.41818643202725" lon="10.401710485601827"><ele>20.0</ele><time>2026-04-06T13:17:39Z</time></trkpt><trkpt lat="43.41830776247739" lon="10.401734994699465"><ele>19.0</ele><time>2026-04-06T13:17:40Z</time></trkpt><trkpt lat="43.41842610691112" lon="10.401758356458243"><ele>18.0</ele><time>2026-04-06T13:17:41Z</time></trkpt><trkpt lat="43.418558480075525" lon="10.401781539074982"><ele>17.0</ele><time>2026-04-06T13:17:42Z</time></trkpt><trkpt lat="43.418688466589366" lon="10.401799613083273"><ele>16.0</ele><time>2026-04-06T13:17:43Z</time></trkpt><trkpt lat="43.41881500326474" lon="10.401809188126853"><ele>15.5</ele><time>2026-04-06T13:17:44Z</time></trkpt><trkpt lat="43.418938849627494" lon="10.401817022315228"><ele>15.0</ele><time>2026-04-06T13:17:45Z</time></trkpt><trkpt lat="43.41906658084377" lon="10.401822836138995"><ele>14.5</ele><time>2026-04-06T13:17:46Z</time></trkpt><trkpt lat="43.41919139477562" lon="10.401839997133274"><ele>14.0</ele><time>2026-04-06T13:17:47Z</time></trkpt><trkpt lat="43.41931849409103" lon="10.401853974156223"><ele>14.0</ele><time>2026-04-06T13:17:48Z</time></trkpt><trkpt lat="43.41944902301839" lon="10.401858754756116"><ele>14.0</ele><time>2026-04-06T13:17:49Z</time></trkpt><trkpt lat="43.41957954832068" lon="10.401859911529222"><ele>14.0</ele><time>2026-04-06T13:17:50Z</time></trkpt><trkpt lat="43.41971379826946" lon="10.401865162966104"><ele>14.0</ele><time>2026-04-06T13:17:51Z</time></trkpt><trkpt lat="43.419848286836185" lon="10.4018672739871"><ele>12.75</ele><time>2026-04-06T13:17:52Z</time></trkpt><trkpt lat="43.41997266096454" lon="10.401871806843449"><ele>11.5</ele><time>2026-04-06T13:17:53Z</time></trkpt><trkpt lat="43.42009234596257" lon="10.401865787380162"><ele>10.25</ele><time>2026-04-06T13:17:54Z</time></trkpt><trkpt lat="43.42020761166483" lon="10.401835285747"><ele>9.0</ele><time>2026-04-06T13:17:55Z</time></trkpt><trkpt lat="43.42032441271361" lon="10.401776120674036"><ele>9.0</ele><time>2026-04-06T13:17:56Z</time></trkpt><trkpt lat="43.42044007219217" lon="10.401699476666002"><ele>9.0</ele><time>2026-04-06T13:17:57Z</time></trkpt><trkpt lat="43.42055236685992" lon="10.401611063268657"><ele>9.0</ele><time>2026-04-06T13:17:58Z</time></trkpt><trkpt lat="43.420664400904606" lon="10.401509590230699"><ele>9.0</ele><time>2026-04-06T13:17:59Z</time></trkpt><trkpt lat="43.420777476060024" lon="10.401411762858775"><ele>8.25</ele><time>2026-04-06T13:18:00Z</time></trkpt><trkpt lat="43.420891813377686" lon="10.401317681932849"><ele>7.5</ele><time>2026-04-06T13:18:01Z</time></trkpt><trkpt lat="43.420999726437245" lon="10.401243810034945"><ele>6.75</ele><time>2026-04-06T13:18:02Z</time></trkpt><trkpt lat="43.4211058257973" lon="10.401198513391506"><ele>6.0</ele><time>2026-04-06T13:18:03Z</time></trkpt><trkpt lat="43.421218322525434" lon="10.401175339574769"><ele>7.0</ele><time>2026-04-06T13:18:04Z</time></trkpt><trkpt lat="43.42133224312682" lon="10.401179506820874"><ele>8.0</ele><time>2026-04-06T13:18:05Z</time></trkpt><trkpt lat="43.42145488396213" lon="10.401203467053088"><ele>9.0</ele><time>2026-04-06T13:18:06Z</time></trkpt><trkpt lat="43.42158365666728" lon="10.401236900798436"><ele>10.0</ele><time>2026-04-06T13:18:07Z</time></trkpt><trkpt lat="43.42172029820896" lon="10.401274290211429"><ele>10.0</ele><time>2026-04-06T13:18:08Z</time></trkpt><trkpt lat="43.42185853965852" lon="10.401310698071622"><ele>10.0</ele><time>2026-04-06T13:18:09Z</time></trkpt><trkpt lat="43.421999275375406" lon="10.401346999272633"><ele>10.0</ele><time>2026-04-06T13:18:10Z</time></trkpt><trkpt lat="43.42213299948314" lon="10.401374482520763"><ele>10.0</ele><time>2026-04-06T13:18:11Z</time></trkpt><trkpt lat="43.42226661063594" lon="10.401407574051246"><ele>12.75</ele><time>2026-04-06T13:18:12Z</time></trkpt><trkpt lat="43.422399362682334" lon="10.401456298507986"><ele>15.5</ele><time>2026-04-06T13:18:13Z</time></trkpt><trkpt lat="43.42252733170202" lon="10.401489837239204"><ele>18.25</ele><time>2026-04-06T13:18:14Z</time></trkpt><trkpt lat="43.42266076845459" lon="10.401520814008943"><ele>21.0</ele><time>2026-04-06T13:18:15Z</time></trkpt><trkpt lat="43.42278726829953" lon="10.401550759332181"><ele>21.0</ele><time>2026-04-06T13:18:16Z</time></trkpt><trkpt lat="43.422909981603354" lon="10.401577137537295"><ele>21.0</ele><time>2026-04-06T13:18:17Z</time></trkpt><trkpt lat="43.42302017329955" lon="10.401615422429336"><ele>21.0</ele><time>2026-04-06T13:18:18Z</time></trkpt><trkpt lat="43.423131185734626" lon="10.401628228201119"><ele>21.0</ele><time>2026-04-06T13:18:19Z</time></trkpt><trkpt lat="43.423238982385165" lon="10.401604848881814"><ele>21.0</ele><time>2026-04-06T13:18:20Z</time></trkpt><trkpt lat="43.42335600049045" lon="10.401562986446764"><ele>21.0</ele><time>2026-04-06T13:18:21Z</time></trkpt><trkpt lat="43.423470859664334" lon="10.401518206473378"><ele>21.0</ele><time>2026-04-06T13:18:22Z</time></trkpt><trkpt lat="43.42358912158571" lon="10.401482109459224"><ele>21.0</ele><time>2026-04-06T13:18:23Z</time></trkpt><trkpt lat="43.42371418358152" lon="10.401442484989905"><ele>21.5</ele><time>2026-04-06T13:18:24Z</time></trkpt><trkpt lat="43.42384279944279" lon="10.40140390849432"><ele>22.0</ele><time>2026-04-06T13:18:25Z</time></trkpt><trkpt lat="43.42397387308952" lon="10.401365743537438"><ele>22.5</ele><time>2026-04-06T13:18:26Z</time></trkpt><trkpt lat="43.42411075804245" lon="10.401330960514981"><ele>23.0</ele><time>2026-04-06T13:18:27Z</time></trkpt><trkpt lat="43.42425716151037" lon="10.401306004130559"><ele>19.75</ele><time>2026-04-06T13:18:28Z</time></trkpt><trkpt lat="43.42440381237354" lon="10.4012838739298"><ele>16.5</ele><time>2026-04-06T13:18:29Z</time></trkpt><trkpt lat="43.42454862361902" lon="10.401256779195732"><ele>13.25</ele><time>2026-04-06T13:18:30Z</time></trkpt><trkpt lat="43.42469061199342" lon="10.401225548046874"><ele>10.0</ele><time>2026-04-06T13:18:31Z</time></trkpt><trkpt lat="43.42482628522211" lon="10.401186334649772"><ele>10.0</ele><time>2026-04-06T13:18:32Z</time></trkpt><trkpt lat="43.42495155539503" lon="10.401144170927694"><ele>10.0</ele><time>2026-04-06T13:18:33Z</time></trkpt><trkpt lat="43.42506939562422" lon="10.401098311652522"><ele>10.0</ele><time>2026-04-06T13:18:34Z</time></trkpt><trkpt lat="43.42518385678808" lon="10.401051388403873"><ele>10.0</ele><time>2026-04-06T13:18:35Z</time></trkpt><trkpt lat="43.425293018462874" lon="10.401007237289987"><ele>10.0</ele><time>2026-04-06T13:18:36Z</time></trkpt><trkpt lat="43.425395649533634" lon="10.400964447359378"><ele>10.0</ele><time>2026-04-06T13:18:37Z</time></trkpt><trkpt lat="43.42549206657931" lon="10.400927711490642"><ele>10.0</ele><time>2026-04-06T13:18:38Z</time></trkpt><trkpt lat="43.425584040450325" lon="10.400891569033721"><ele>10.0</ele><time>2026-04-06T13:18:39Z</time></trkpt><trkpt lat="43.42566808568261" lon="10.400848890273009"><ele>10.0</ele><time>2026-04-06T13:18:40Z</time></trkpt><trkpt lat="43.42575290991197" lon="10.400774793641917"><ele>9.2</ele><time>2026-04-06T13:18:41Z</time></trkpt><trkpt lat="43.42582870989049" lon="10.400663478278307"><ele>8.4</ele><time>2026-04-06T13:18:42Z</time></trkpt><trkpt lat="43.425893878021164" lon="10.400538466695272"><ele>7.6</ele><time>2026-04-06T13:18:43Z</time></trkpt><trkpt lat="43.42595327230987" lon="10.400417162818606"><ele>6.8</ele><time>2026-04-06T13:18:44Z</time></trkpt><trkpt lat="43.42601495885679" lon="10.400306580928998"><ele>6.0</ele><time>2026-04-06T13:18:45Z</time></trkpt><trkpt lat="43.426086177515366" lon="10.400203256270371"><ele>6.0</ele><time>2026-04-06T13:18:46Z</time></trkpt><trkpt lat="43.42616693739759" lon="10.4001121533626"><ele>6.0</ele><time>2026-04-06T13:18:47Z</time></trkpt><trkpt lat="43.426248749871085" lon="10.400043013112018"><ele>6.0</ele><time>2026-04-06T13:18:48Z</time></trkpt><trkpt lat="43.42634599159164" lon="10.399997199276195"><ele>6.0</ele><time>2026-04-06T13:18:49Z</time></trkpt><trkpt lat="43.42645649398575" lon="10.3999488978291"><ele>6.0</ele><time>2026-04-06T13:18:50Z</time></trkpt><trkpt lat="43.42657200561208" lon="10.399900735567089"><ele>6.5</ele><time>2026-04-06T13:18:51Z</time></trkpt><trkpt lat="43.4266690921252" lon="10.399834854644647"><ele>7.0</ele><time>2026-04-06T13:18:52Z</time></trkpt><trkpt lat="43.42675385547091" lon="10.3997363332043"><ele>7.5</ele><time>2026-04-06T13:18:53Z</time></trkpt><trkpt lat="43.426820573955865" lon="10.399600771952151"><ele>8.0</ele><time>2026-04-06T13:18:54Z</time></trkpt><trkpt lat="43.42686656191368" lon="10.399447760826"><ele>8.0</ele><time>2026-04-06T13:18:55Z</time></trkpt><trkpt lat="43.4269134780773" lon="10.399289680711249"><ele>8.0</ele><time>2026-04-06T13:18:56Z</time></trkpt><trkpt lat="43.42696723335692" lon="10.399156211125813"><ele>8.0</ele><time>2026-04-06T13:18:57Z</time></trkpt><trkpt lat="43.42702218244418" lon="10.399053321883807"><ele>8.0</ele><time>2026-04-06T13:18:58Z</time></trkpt><trkpt lat="43.427092292654464" lon="10.398984045309637"><ele>8.0</ele><time>2026-04-06T13:18:59Z</time></trkpt><trkpt lat="43.427184453124966" lon="10.39892404703999"><ele>8.25</ele><time>2026-04-06T13:19:00Z</time></trkpt><trkpt lat="43.42729432202015" lon="10.398877676715564"><ele>8.5</ele><time>2026-04-06T13:19:01Z</time></trkpt><trkpt lat="43.42741668740172" lon="10.398850129054614"><ele>8.75</ele><time>2026-04-06T13:19:02Z</time></trkpt><trkpt lat="43.42753357431928" lon="10.398838992391836"><ele>9.0</ele><time>2026-04-06T13:19:03Z</time></trkpt><trkpt lat="43.42764376319985" lon="10.39882415656524"><ele>9.0</ele><time>2026-04-06T13:19:04Z</time></trkpt><trkpt lat="43.42775035991178" lon="10.398804522156123"><ele>9.0</ele><time>2026-04-06T13:19:05Z</time></trkpt><trkpt lat="43.427852067627605" lon="10.39874963843054"><ele>9.0</ele><time>2026-04-06T13:19:06Z</time></trkpt><trkpt lat="43.42794357069971" lon="10.398656033282723"><ele>9.0</ele><time>2026-04-06T13:19:07Z</time></trkpt><trkpt lat="43.42803587647668" lon="10.398531501144333"><ele>10.75</ele><time>2026-04-06T13:19:08Z</time></trkpt><trkpt lat="43.42813472468843" lon="10.398388294842416"><ele>12.5</ele><time>2026-04-06T13:19:09Z</time></trkpt><trkpt lat="43.428227619355376" lon="10.398240900486938"><ele>14.25</ele><time>2026-04-06T13:19:10Z</time></trkpt><trkpt lat="43.42831705580254" lon="10.398103362014146"><ele>16.0</ele><time>2026-04-06T13:19:11Z</time></trkpt><trkpt lat="43.42838844523252" lon="10.39796666316089"><ele>16.25</ele><time>2026-04-06T13:19:12Z</time></trkpt><trkpt lat="43.428445588843836" lon="10.397814192913039"><ele>16.5</ele><time>2026-04-06T13:19:13Z</time></trkpt><trkpt lat="43.42848972898127" lon="10.397649293897732"><ele>16.75</ele><time>2026-04-06T13:19:14Z</time></trkpt><trkpt lat="43.428526236618154" lon="10.397473247487799"><ele>17.0</ele><time>2026-04-06T13:19:15Z</time></trkpt><trkpt lat="43.428561773530454" lon="10.397304100019547"><ele>16.6</ele><time>2026-04-06T13:19:16Z</time></trkpt><trkpt lat="43.42859224761983" lon="10.397146980536938"><ele>16.2</ele><time>2026-04-06T13:19:17Z</time></trkpt><trkpt lat="43.428622684188056" lon="10.397006393608587"><ele>15.8</ele><time>2026-04-06T13:19:18Z</time></trkpt><trkpt lat="43.428661860009065" lon="10.396874344880626"><ele>15.4</ele><time>2026-04-06T13:19:19Z</time></trkpt><trkpt lat="43.42870838302243" lon="10.396747703314425"><ele>15.0</ele><time>2026-04-06T13:19:20Z</time></trkpt><trkpt lat="43.428776187726356" lon="10.396619370601815"><ele>16.5</ele><time>2026-04-06T13:19:21Z</time></trkpt><trkpt lat="43.42885539752567" lon="10.396500149954175"><ele>18.0</ele><time>2026-04-06T13:19:22Z</time></trkpt><trkpt lat="43.42894542855506" lon="10.396408109808641"><ele>19.5</ele><time>2026-04-06T13:19:23Z</time></trkpt><trkpt lat="43.42904901311655" lon="10.396329349034987"><ele>21.0</ele><time>2026-04-06T13:19:24Z</time></trkpt><trkpt lat="43.429166851965064" lon="10.396250559866159"><ele>21.0</ele><time>2026-04-06T13:19:25Z</time></trkpt><trkpt lat="43.429276162161635" lon="10.396172970615225"><ele>21.0</ele><time>2026-04-06T13:19:26Z</time></trkpt><trkpt lat="43.429364769369855" lon="10.39607531424638"><ele>21.0</ele><time>2026-04-06T13:19:27Z</time></trkpt><trkpt lat="43.42944346667265" lon="10.395947661102197"><ele>21.0</ele><time>2026-04-06T13:19:28Z</time></trkpt><trkpt lat="43.42951053668819" lon="10.395791736666505"><ele>21.0</ele><time>2026-04-06T13:19:29Z</time></trkpt><trkpt lat="43.42958211487932" lon="10.395619931484836"><ele>21.0</ele><time>2026-04-06T13:19:30Z</time></trkpt><trkpt lat="43.42965314712018" lon="10.395456843910406"><ele>21.0</ele><time>2026-04-06T13:19:31Z</time></trkpt><trkpt lat="43.42971995614767" lon="10.39529571454118"><ele>21.0</ele><time>2026-04-06T13:19:32Z</time></trkpt><trkpt lat="43.42979056955202" lon="10.39515730313837"><ele>21.8</ele><time>2026-04-06T13:19:33Z</time></trkpt><trkpt lat="43.429863894452296" lon="10.395045283203958"><ele>22.6</ele><time>2026-04-06T13:19:34Z</time></trkpt><trkpt lat="43.42994492009435" lon="10.394958182871726"><ele>23.4</ele><time>2026-04-06T13:19:35Z</time></trkpt><trkpt lat="43.430031866946436" lon="10.394884035989184"><ele>24.2</ele><time>2026-04-06T13:19:36Z</time></trkpt><trkpt lat="43.430131398120274" lon="10.39478974473841"><ele>25.0</ele><time>2026-04-06T13:19:37Z</time></trkpt><trkpt lat="43.430212481791365" lon="10.394674781457882"><ele>24.0</ele><time>2026-04-06T13:19:38Z</time></trkpt><trkpt lat="43.430292425685835" lon="10.394546357883629"><ele>23.0</ele><time>2026-04-06T13:19:39Z</time></trkpt><trkpt lat="43.43037855424762" lon="10.39439561937768"><ele>22.0</ele><time>2026-04-06T13:19:40Z</time></trkpt><trkpt lat="43.43045997973275" lon="10.394225202776825"><ele>21.0</ele><time>2026-04-06T13:19:41Z</time></trkpt><trkpt lat="43.4305362699989" lon="10.394057286152067"><ele>21.0</ele><time>2026-04-06T13:19:42Z</time></trkpt><trkpt lat="43.430613921936775" lon="10.393898012497699"><ele>21.0</ele><time>2026-04-06T13:19:43Z</time></trkpt><trkpt lat="43.430689511946944" lon="10.393748388454028"><ele>21.0</ele><time>2026-04-06T13:19:44Z</time></trkpt><trkpt lat="43.43076809651746" lon="10.39359612729295"><ele>21.0</ele><time>2026-04-06T13:19:45Z</time></trkpt><trkpt lat="43.430843358195474" lon="10.393447932665863"><ele>20.0</ele><time>2026-04-06T13:19:46Z</time></trkpt><trkpt lat="43.43091058905778" lon="10.393308987976715"><ele>19.0</ele><time>2026-04-06T13:19:47Z</time></trkpt><trkpt lat="43.43097115265463" lon="10.393172644979462"><ele>18.0</ele><time>2026-04-06T13:19:48Z</time></trkpt><trkpt lat="43.431017843487815" lon="10.393034768460401"><ele>17.0</ele><time>2026-04-06T13:19:49Z</time></trkpt><trkpt lat="43.431053989518006" lon="10.39287589434111"><ele>16.0</ele><time>2026-04-06T13:19:50Z</time></trkpt><trkpt lat="43.43106653728446" lon="10.392700699070884"><ele>15.0</ele><time>2026-04-06T13:19:51Z</time></trkpt><trkpt lat="43.431065928417496" lon="10.392520834274245"><ele>14.0</ele><time>2026-04-06T13:19:52Z</time></trkpt><trkpt lat="43.431066949610525" lon="10.392344418517762"><ele>13.0</ele><time>2026-04-06T13:19:53Z</time></trkpt><trkpt lat="43.431091542147094" lon="10.392175059041449"><ele>12.200000000000001</ele><time>2026-04-06T13:19:54Z</time></trkpt><trkpt lat="43.43112606002885" lon="10.392027537019645"><ele>11.4</ele><time>2026-04-06T13:19:55Z</time></trkpt><trkpt lat="43.43116641769136" lon="10.391887199682525"><ele>10.600000000000001</ele><time>2026-04-06T13:19:56Z</time></trkpt><trkpt lat="43.43121809198355" lon="10.391750020624684"><ele>9.8</ele><time>2026-04-06T13:19:57Z</time></trkpt><trkpt lat="43.4312928358298" lon="10.391634205299384"><ele>9.0</ele><time>2026-04-06T13:19:58Z</time></trkpt><trkpt lat="43.431388650698366" lon="10.391514457369102"><ele>10.75</ele><time>2026-04-06T13:19:59Z</time></trkpt><trkpt lat="43.431497646105356" lon="10.391407749943266"><ele>12.5</ele><time>2026-04-06T13:20:00Z</time></trkpt><trkpt lat="43.43161416676271" lon="10.391308403563443"><ele>14.25</ele><time>2026-04-06T13:20:01Z</time></trkpt><trkpt lat="43.431731323904756" lon="10.391214798237483"><ele>16.0</ele><time>2026-04-06T13:20:02Z</time></trkpt><trkpt lat="43.4318483093627" lon="10.39112281501571"><ele>16.0</ele><time>2026-04-06T13:20:03Z</time></trkpt><trkpt lat="43.43196476819972" lon="10.391042898003125"><ele>16.0</ele><time>2026-04-06T13:20:04Z</time></trkpt><trkpt lat="43.432075294509524" lon="10.390964121632205"><ele>16.0</ele><time>2026-04-06T13:20:05Z</time></trkpt><trkpt lat="43.43218668645926" lon="10.39087728409685"><ele>16.0</ele><time>2026-04-06T13:20:06Z</time></trkpt><trkpt lat="43.43229671123183" lon="10.390791174282272"><ele>15.75</ele><time>2026-04-06T13:20:07Z</time></trkpt><trkpt lat="43.4324081512838" lon="10.390727494795987"><ele>15.5</ele><time>2026-04-06T13:20:08Z</time></trkpt><trkpt lat="43.43251280134764" lon="10.390646831228624"><ele>15.25</ele><time>2026-04-06T13:20:09Z</time></trkpt><trkpt lat="43.43262447914904" lon="10.390558015715095"><ele>15.0</ele><time>2026-04-06T13:20:10Z</time></trkpt><trkpt lat="43.432749812988256" lon="10.390475479068101"><ele>15.0</ele><time>2026-04-06T13:20:11Z</time></trkpt><trkpt lat="43.43287459527791" lon="10.390391019458859"><ele>15.0</ele><time>2026-04-06T13:20:12Z</time></trkpt><trkpt lat="43.43299736266219" lon="10.3902960043055"><ele>15.0</ele><time>2026-04-06T13:20:13Z</time></trkpt><trkpt lat="43.43312281686096" lon="10.390197175533876"><ele>15.0</ele><time>2026-04-06T13:20:14Z</time></trkpt><trkpt lat="43.43325044925656" lon="10.390105281401746"><ele>16.25</ele><time>2026-04-06T13:20:15Z</time></trkpt><trkpt lat="43.43337618579063" lon="10.390009211050495"><ele>17.5</ele><time>2026-04-06T13:20:16Z</time></trkpt><trkpt lat="43.43349732854301" lon="10.38990797172726"><ele>18.75</ele><time>2026-04-06T13:20:17Z</time></trkpt><trkpt lat="43.433621712313816" lon="10.389814243977268"><ele>20.0</ele><time>2026-04-06T13:20:18Z</time></trkpt><trkpt lat="43.43375036755283" lon="10.389724478435797"><ele>19.25</ele><time>2026-04-06T13:20:19Z</time></trkpt><trkpt lat="43.433882628932345" lon="10.389637590494308"><ele>18.5</ele><time>2026-04-06T13:20:20Z</time></trkpt><trkpt lat="43.43400959237649" lon="10.389549417246482"><ele>17.75</ele><time>2026-04-06T13:20:21Z</time></trkpt><trkpt lat="43.43413187264144" lon="10.389459987204582"><ele>17.0</ele><time>2026-04-06T13:20:22Z</time></trkpt><trkpt lat="43.43425658679585" lon="10.389365564545159"><ele>17.0</ele><time>2026-04-06T13:20:23Z</time></trkpt><trkpt lat="43.43438142533675" lon="10.389276574071223"><ele>17.0</ele><time>2026-04-06T13:20:24Z</time></trkpt><trkpt lat="43.434498228621216" lon="10.389187923983464"><ele>17.0</ele><time>2026-04-06T13:20:25Z</time></trkpt><trkpt lat="43.43461450231839" lon="10.389100203191079"><ele>17.0</ele><time>2026-04-06T13:20:26Z</time></trkpt><trkpt lat="43.43472949591236" lon="10.389014644564465"><ele>17.25</ele><time>2026-04-06T13:20:27Z</time></trkpt><trkpt lat="43.43484583179005" lon="10.388928177595348"><ele>17.5</ele><time>2026-04-06T13:20:28Z</time></trkpt><trkpt lat="43.43496949615816" lon="10.388845903063565"><ele>17.75</ele><time>2026-04-06T13:20:29Z</time></trkpt><trkpt lat="43.43508557011016" lon="10.38875650666148"><ele>18.0</ele><time>2026-04-06T13:20:30Z</time></trkpt><trkpt lat="43.435200743747444" lon="10.388675967928668"><ele>18.0</ele><time>2026-04-06T13:20:31Z</time></trkpt><trkpt lat="43.43532587631843" lon="10.388593564217917"><ele>18.0</ele><time>2026-04-06T13:20:32Z</time></trkpt><trkpt lat="43.43544994629807" lon="10.388498100945238"><ele>18.0</ele><time>2026-04-06T13:20:33Z</time></trkpt><trkpt lat="43.43558617804533" lon="10.3884140093668"><ele>18.0</ele><time>2026-04-06T13:20:34Z</time></trkpt><trkpt lat="43.43572315395704" lon="10.38833668878894"><ele>18.5</ele><time>2026-04-06T13:20:35Z</time></trkpt><trkpt lat="43.43586155425675" lon="10.38826080153768"><ele>19.0</ele><time>2026-04-06T13:20:36Z</time></trkpt><trkpt lat="43.4359902167168" lon="10.388187193813339"><ele>19.5</ele><time>2026-04-06T13:20:37Z</time></trkpt><trkpt lat="43.43611428448244" lon="10.388120135769409"><ele>20.0</ele><time>2026-04-06T13:20:38Z</time></trkpt><trkpt lat="43.436233057200816" lon="10.388058889629361"><ele>18.5</ele><time>2026-04-06T13:20:39Z</time></trkpt><trkpt lat="43.436355821962" lon="10.388001319019795"><ele>17.0</ele><time>2026-04-06T13:20:40Z</time></trkpt><trkpt lat="43.436479198197084" lon="10.387940146590909"><ele>15.5</ele><time>2026-04-06T13:20:41Z</time></trkpt><trkpt lat="43.43659815634965" lon="10.387881050068094"><ele>14.0</ele><time>2026-04-06T13:20:42Z</time></trkpt><trkpt lat="43.43672241956692" lon="10.387814380991477"><ele>14.0</ele><time>2026-04-06T13:20:43Z</time></trkpt><trkpt lat="43.43684936742099" lon="10.387753594615354"><ele>14.0</ele><time>2026-04-06T13:20:44Z</time></trkpt><trkpt lat="43.43697297157673" lon="10.38768770020718"><ele>14.0</ele><time>2026-04-06T13:20:45Z</time></trkpt><trkpt lat="43.43710342502582" lon="10.387622777436327"><ele>14.0</ele><time>2026-04-06T13:20:46Z</time></trkpt><trkpt lat="43.437229910885485" lon="10.387553029326584"><ele>14.75</ele><time>2026-04-06T13:20:47Z</time></trkpt><trkpt lat="43.43735955042093" lon="10.387486152025401"><ele>15.5</ele><time>2026-04-06T13:20:48Z</time></trkpt><trkpt lat="43.43749330248105" lon="10.387419095319471"><ele>16.25</ele><time>2026-04-06T13:20:49Z</time></trkpt><trkpt lat="43.4376298467393" lon="10.387348437202217"><ele>17.0</ele><time>2026-04-06T13:20:50Z</time></trkpt><trkpt lat="43.437767088830014" lon="10.387279011023333"><ele>17.0</ele><time>2026-04-06T13:20:51Z</time></trkpt><trkpt lat="43.437905254108955" lon="10.38721022493804"><ele>17.0</ele><time>2026-04-06T13:20:52Z</time></trkpt><trkpt lat="43.438035113687924" lon="10.387143329947321"><ele>17.0</ele><time>2026-04-06T13:20:53Z</time></trkpt><trkpt lat="43.43816655482227" lon="10.38707374888763"><ele>17.0</ele><time>2026-04-06T13:20:54Z</time></trkpt><trkpt lat="43.43829990172591" lon="10.387009366420632"><ele>15.333333333333334</ele><time>2026-04-06T13:20:55Z</time></trkpt><trkpt lat="43.43843450485021" lon="10.38694033997425"><ele>13.666666666666668</ele><time>2026-04-06T13:20:56Z</time></trkpt><trkpt lat="43.43857549199551" lon="10.38686588732855"><ele>12.0</ele><time>2026-04-06T13:20:57Z</time></trkpt><trkpt lat="43.4387216549356" lon="10.386794724543995"><ele>13.666666666666668</ele><time>2026-04-06T13:20:58Z</time></trkpt><trkpt lat="43.43887067605134" lon="10.386719382736928"><ele>15.333333333333334</ele><time>2026-04-06T13:20:59Z</time></trkpt><trkpt lat="43.43902465799704" lon="10.386635838030067"><ele>17.0</ele><time>2026-04-06T13:21:00Z</time></trkpt><trkpt lat="43.43917503217666" lon="10.386554366444633"><ele>17.0</ele><time>2026-04-06T13:21:01Z</time></trkpt><trkpt lat="43.439322261700795" lon="10.386478730478862"><ele>17.0</ele><time>2026-04-06T13:21:02Z</time></trkpt><trkpt lat="43.43946738641949" lon="10.386406242459959"><ele>17.0</ele><time>2026-04-06T13:21:03Z</time></trkpt><trkpt lat="43.43960997565568" lon="10.386330947441344"><ele>17.0</ele><time>2026-04-06T13:21:04Z</time></trkpt><trkpt lat="43.43975490919904" lon="10.386256294581628"><ele>17.0</ele><time>2026-04-06T13:21:05Z</time></trkpt><trkpt lat="43.439896733103396" lon="10.38617786455924"><ele>17.0</ele><time>2026-04-06T13:21:06Z</time></trkpt><trkpt lat="43.440037863127706" lon="10.386100994358225"><ele>17.0</ele><time>2026-04-06T13:21:07Z</time></trkpt><trkpt lat="43.44017950646856" lon="10.386016275613576"><ele>17.0</ele><time>2026-04-06T13:21:08Z</time></trkpt><trkpt lat="43.44032234967152" lon="10.385931282183565"><ele>17.0</ele><time>2026-04-06T13:21:09Z</time></trkpt><trkpt lat="43.44046362493445" lon="10.38584288721399"><ele>17.0</ele><time>2026-04-06T13:21:10Z</time></trkpt><trkpt lat="43.44060151345988" lon="10.385743358221054"><ele>17.0</ele><time>2026-04-06T13:21:11Z</time></trkpt><trkpt lat="43.440734403079084" lon="10.385639217691244"><ele>17.0</ele><time>2026-04-06T13:21:12Z</time></trkpt><trkpt lat="43.44086884406579" lon="10.385544337068737"><ele>16.5</ele><time>2026-04-06T13:21:13Z</time></trkpt><trkpt lat="43.4409983393915" lon="10.385454586661513"><ele>16.0</ele><time>2026-04-06T13:21:14Z</time></trkpt><trkpt lat="43.44112503963195" lon="10.385363590712066"><ele>15.5</ele><time>2026-04-06T13:21:15Z</time></trkpt><trkpt lat="43.441252386480805" lon="10.38527078953157"><ele>15.0</ele><time>2026-04-06T13:21:16Z</time></trkpt><trkpt lat="43.44137781036992" lon="10.38517675214195"><ele>16.25</ele><time>2026-04-06T13:21:17Z</time></trkpt><trkpt lat="43.441503263343996" lon="10.385081583702165"><ele>17.5</ele><time>2026-04-06T13:21:18Z</time></trkpt><trkpt lat="43.441629986754634" lon="10.384987390838708"><ele>18.75</ele><time>2026-04-06T13:21:19Z</time></trkpt><trkpt lat="43.44175594046515" lon="10.384896378456446"><ele>20.0</ele><time>2026-04-06T13:21:20Z</time></trkpt><trkpt lat="43.4418868715289" lon="10.384803144497798"><ele>20.0</ele><time>2026-04-06T13:21:21Z</time></trkpt><trkpt lat="43.442020766921914" lon="10.384711251201985"><ele>20.0</ele><time>2026-04-06T13:21:22Z</time></trkpt><trkpt lat="43.442152794182505" lon="10.384614206337673"><ele>20.0</ele><time>2026-04-06T13:21:23Z</time></trkpt><trkpt lat="43.442287034356646" lon="10.384518974394194"><ele>18.5</ele><time>2026-04-06T13:21:24Z</time></trkpt><trkpt lat="43.442421485298695" lon="10.384427472614433"><ele>17.0</ele><time>2026-04-06T13:21:25Z</time></trkpt><trkpt lat="43.442548338975364" lon="10.384341585445968"><ele>15.5</ele><time>2026-04-06T13:21:26Z</time></trkpt><trkpt lat="43.44266770809506" lon="10.384255244101428"><ele>14.0</ele><time>2026-04-06T13:21:27Z</time></trkpt><trkpt lat="43.442789624085584" lon="10.384166855792037"><ele>14.0</ele><time>2026-04-06T13:21:28Z</time></trkpt><trkpt lat="43.442913084890996" lon="10.384078314941565"><ele>14.0</ele><time>2026-04-06T13:21:29Z</time></trkpt><trkpt lat="43.443034029476365" lon="10.383991380921383"><ele>14.0</ele><time>2026-04-06T13:21:30Z</time></trkpt><trkpt lat="43.44315466893304" lon="10.383912172480782"><ele>14.0</ele><time>2026-04-06T13:21:31Z</time></trkpt><trkpt lat="43.443269288289024" lon="10.383833269412998"><ele>13.75</ele><time>2026-04-06T13:21:32Z</time></trkpt><trkpt lat="43.44338717574447" lon="10.383748208267406"><ele>13.5</ele><time>2026-04-06T13:21:33Z</time></trkpt><trkpt lat="43.44350891708385" lon="10.383654376421067"><ele>13.25</ele><time>2026-04-06T13:21:34Z</time></trkpt><trkpt lat="43.44363155467623" lon="10.383566440196663"><ele>13.0</ele><time>2026-04-06T13:21:35Z</time></trkpt><trkpt lat="43.44375665629497" lon="10.383481034634922"><ele>14.5</ele><time>2026-04-06T13:21:36Z</time></trkpt><trkpt lat="43.44388100109347" lon="10.383396222007134"><ele>16.0</ele><time>2026-04-06T13:21:37Z</time></trkpt><trkpt lat="43.44400921555916" lon="10.383309793377771"><ele>17.5</ele><time>2026-04-06T13:21:38Z</time></trkpt><trkpt lat="43.444142135351875" lon="10.383241636296601"><ele>19.0</ele><time>2026-04-06T13:21:39Z</time></trkpt><trkpt lat="43.444277506518425" lon="10.383186843057944"><ele>19.0</ele><time>2026-04-06T13:21:40Z</time></trkpt><trkpt lat="43.44440795780615" lon="10.383132612671439"><ele>19.0</ele><time>2026-04-06T13:21:41Z</time></trkpt><trkpt lat="43.44454092201714" lon="10.383080079381589"><ele>19.0</ele><time>2026-04-06T13:21:42Z</time></trkpt><trkpt lat="43.44467530685816" lon="10.383035395001118"><ele>19.0</ele><time>2026-04-06T13:21:43Z</time></trkpt><trkpt lat="43.44480430723557" lon="10.382990920004179"><ele>17.4</ele><time>2026-04-06T13:21:44Z</time></trkpt><trkpt lat="43.44491846280571" lon="10.382952587208354"><ele>15.799999999999999</ele><time>2026-04-06T13:21:45Z</time></trkpt><trkpt lat="43.445026252901265" lon="10.382922510650218"><ele>14.2</ele><time>2026-04-06T13:21:46Z</time></trkpt><trkpt lat="43.4451299715745" lon="10.382899704020073"><ele>12.600000000000001</ele><time>2026-04-06T13:21:47Z</time></trkpt><trkpt lat="43.44523565579732" lon="10.382892670307639"><ele>11.0</ele><time>2026-04-06T13:21:48Z</time></trkpt><trkpt lat="43.44534951825372" lon="10.382895560590185"><ele>11.0</ele><time>2026-04-06T13:21:49Z</time></trkpt><trkpt lat="43.445458811455204" lon="10.382910464969752"><ele>11.0</ele><time>2026-04-06T13:21:50Z</time></trkpt><trkpt lat="43.44557416998217" lon="10.382926063793802"><ele>11.0</ele><time>2026-04-06T13:21:51Z</time></trkpt><trkpt lat="43.445680943836436" lon="10.382923799847173"><ele>11.0</ele><time>2026-04-06T13:21:52Z</time></trkpt><trkpt lat="43.44577627264175" lon="10.382889362327898"><ele>11.0</ele><time>2026-04-06T13:21:53Z</time></trkpt><trkpt lat="43.445869207177346" lon="10.382831150942684"><ele>11.5</ele><time>2026-04-06T13:21:54Z</time></trkpt><trkpt lat="43.44597016451958" lon="10.382760823002322"><ele>12.0</ele><time>2026-04-06T13:21:55Z</time></trkpt><trkpt lat="43.44607504952381" lon="10.382687917413971"><ele>12.5</ele><time>2026-04-06T13:21:56Z</time></trkpt><trkpt lat="43.44617856341907" lon="10.382613651953474"><ele>13.0</ele><time>2026-04-06T13:21:57Z</time></trkpt><trkpt lat="43.44628158276026" lon="10.382532905827558"><ele>16.25</ele><time>2026-04-06T13:21:58Z</time></trkpt><trkpt lat="43.446386936921435" lon="10.382448897255976"><ele>19.5</ele><time>2026-04-06T13:21:59Z</time></trkpt><trkpt lat="43.446488160463595" lon="10.382365228659527"><ele>22.75</ele><time>2026-04-06T13:22:00Z</time></trkpt><trkpt lat="43.44658608752966" lon="10.382280535700865"><ele>26.0</ele><time>2026-04-06T13:22:01Z</time></trkpt><trkpt lat="43.44667896074827" lon="10.38219406192335"><ele>21.75</ele><time>2026-04-06T13:22:02Z</time></trkpt><trkpt lat="43.44677926408727" lon="10.382105337177105"><ele>17.5</ele><time>2026-04-06T13:22:03Z</time></trkpt><trkpt lat="43.44687978276047" lon="10.382016299961023"><ele>13.25</ele><time>2026-04-06T13:22:04Z</time></trkpt><trkpt lat="43.4469781972767" lon="10.38192645635011"><ele>9.0</ele><time>2026-04-06T13:22:05Z</time></trkpt><trkpt lat="43.44707786607426" lon="10.38183266104382"><ele>12.25</ele><time>2026-04-06T13:22:06Z</time></trkpt><trkpt lat="43.44718206164966" lon="10.381736095771869"><ele>15.5</ele><time>2026-04-06T13:22:07Z</time></trkpt><trkpt lat="43.44728735183505" lon="10.381637699565143"><ele>18.75</ele><time>2026-04-06T13:22:08Z</time></trkpt><trkpt lat="43.44739600578471" lon="10.38153802065866"><ele>22.0</ele><time>2026-04-06T13:22:09Z</time></trkpt><trkpt lat="43.44750824111241" lon="10.38143788031701"><ele>19.25</ele><time>2026-04-06T13:22:10Z</time></trkpt><trkpt lat="43.447619614842615" lon="10.381334271924358"><ele>16.5</ele><time>2026-04-06T13:22:11Z</time></trkpt><trkpt lat="43.44772936443978" lon="10.3812262869713"><ele>13.75</ele><time>2026-04-06T13:22:12Z</time></trkpt><trkpt lat="43.44784145319784" lon="10.381116609845376"><ele>11.0</ele><time>2026-04-06T13:22:13Z</time></trkpt><trkpt lat="43.44794289872747" lon="10.38100467689841"><ele>11.75</ele><time>2026-04-06T13:22:14Z</time></trkpt><trkpt lat="43.448053149631974" lon="10.380899257799747"><ele>12.5</ele><time>2026-04-06T13:22:15Z</time></trkpt><trkpt lat="43.44816558507366" lon="10.380803414563706"><ele>13.25</ele><time>2026-04-06T13:22:16Z</time></trkpt><trkpt lat="43.44827777477278" lon="10.380713621584025"><ele>14.0</ele><time>2026-04-06T13:22:17Z</time></trkpt><trkpt lat="43.448381839111086" lon="10.380607706814986"><ele>13.0</ele><time>2026-04-06T13:22:18Z</time></trkpt><trkpt lat="43.448488065804334" lon="10.38051357520469"><ele>12.0</ele><time>2026-04-06T13:22:19Z</time></trkpt><trkpt lat="43.44858980383042" lon="10.380418413514235"><ele>11.0</ele><time>2026-04-06T13:22:20Z</time></trkpt><trkpt lat="43.4486871262111" lon="10.380321487121993"><ele>10.0</ele><time>2026-04-06T13:22:21Z</time></trkpt><trkpt lat="43.44878536539673" lon="10.380224802597878"><ele>10.25</ele><time>2026-04-06T13:22:22Z</time></trkpt><trkpt lat="43.44888295798137" lon="10.38012143817026"><ele>10.5</ele><time>2026-04-06T13:22:23Z</time></trkpt><trkpt lat="43.44897907781727" lon="10.380018384008704"><ele>10.75</ele><time>2026-04-06T13:22:24Z</time></trkpt><trkpt lat="43.44907298034441" lon="10.379923249607504"><ele>11.0</ele><time>2026-04-06T13:22:25Z</time></trkpt><trkpt lat="43.44916449746998" lon="10.3798323393651"><ele>11.0</ele><time>2026-04-06T13:22:26Z</time></trkpt><trkpt lat="43.4492490271168" lon="10.379747455162061"><ele>11.0</ele><time>2026-04-06T13:22:27Z</time></trkpt><trkpt lat="43.44932964535809" lon="10.379668027657145"><ele>11.0</ele><time>2026-04-06T13:22:28Z</time></trkpt><trkpt lat="43.449407172853974" lon="10.379596012500464"><ele>11.0</ele><time>2026-04-06T13:22:29Z</time></trkpt><trkpt lat="43.44948188084418" lon="10.3795264206367"><ele>11.0</ele><time>2026-04-06T13:22:30Z</time></trkpt><trkpt lat="43.449553046481725" lon="10.37945773485245"><ele>11.333333333333332</ele><time>2026-04-06T13:22:31Z</time></trkpt><trkpt lat="43.44962606410092" lon="10.379390208605088"><ele>11.666666666666666</ele><time>2026-04-06T13:22:32Z</time></trkpt><trkpt lat="43.44969024295971" lon="10.37931721135837"><ele>12.0</ele><time>2026-04-06T13:22:33Z</time></trkpt><trkpt lat="43.44975881106995" lon="10.379257980344157"><ele>12.333333333333332</ele><time>2026-04-06T13:22:34Z</time></trkpt><trkpt lat="43.44982339804062" lon="10.379217518141667"><ele>12.666666666666666</ele><time>2026-04-06T13:22:35Z</time></trkpt><trkpt lat="43.44993395620246" lon="10.379186429688342"><ele>13.0</ele><time>2026-04-06T13:22:37Z</time></trkpt><trkpt lat="43.449991349604296" lon="10.37934070078091"><ele>13.0</ele><time>2026-04-06T13:22:39Z</time></trkpt><trkpt lat="43.45002849620918" lon="10.379420401077864"><ele>13.0</ele><time>2026-04-06T13:22:40Z</time></trkpt><trkpt lat="43.45007753644261" lon="10.379520158342961"><ele>13.0</ele><time>2026-04-06T13:22:42Z</time></trkpt><trkpt lat="43.45017428067252" lon="10.379352085679702"><ele>13.0</ele><time>2026-04-06T13:22:44Z</time></trkpt><trkpt lat="43.450206004986484" lon="10.37926927717112"><ele>13.0</ele><time>2026-04-06T13:22:45Z</time></trkpt><trkpt lat="43.45023852676971" lon="10.379172904839876"><ele>13.0</ele><time>2026-04-06T13:22:46Z</time></trkpt><trkpt lat="43.45027579343085" lon="10.379066288002123"><ele>13.0</ele><time>2026-04-06T13:22:47Z</time></trkpt><trkpt lat="43.45031755067628" lon="10.378945512454555"><ele>13.0</ele><time>2026-04-06T13:22:48Z</time></trkpt><trkpt lat="43.450364789862846" lon="10.378814348788035"><ele>13.0</ele><time>2026-04-06T13:22:49Z</time></trkpt><trkpt lat="43.45042444120567" lon="10.3786824043071"><ele>13.0</ele><time>2026-04-06T13:22:50Z</time></trkpt><trkpt lat="43.45048620874441" lon="10.378566107143428"><ele>14.2</ele><time>2026-04-06T13:22:51Z</time></trkpt><trkpt lat="43.450549993504126" lon="10.378445490382452"><ele>15.4</ele><time>2026-04-06T13:22:52Z</time></trkpt><trkpt lat="43.45061085729272" lon="10.378324637393103"><ele>16.599999999999998</ele><time>2026-04-06T13:22:53Z</time></trkpt><trkpt lat="43.45067392139261" lon="10.37821448865251"><ele>17.8</ele><time>2026-04-06T13:22:54Z</time></trkpt><trkpt lat="43.450732944930024" lon="10.378089524454635"><ele>19.0</ele><time>2026-04-06T13:22:55Z</time></trkpt><trkpt lat="43.45079585370675" lon="10.377977266540615"><ele>19.0</ele><time>2026-04-06T13:22:56Z</time></trkpt><trkpt lat="43.45085843101652" lon="10.377868308366162"><ele>19.0</ele><time>2026-04-06T13:22:57Z</time></trkpt><trkpt lat="43.4509228147039" lon="10.377765583824381"><ele>19.0</ele><time>2026-04-06T13:22:58Z</time></trkpt><trkpt lat="43.450993327522006" lon="10.377665910062928"><ele>19.0</ele><time>2026-04-06T13:22:59Z</time></trkpt><trkpt lat="43.45106743515297" lon="10.37758178490876"><ele>19.0</ele><time>2026-04-06T13:23:00Z</time></trkpt><trkpt lat="43.451117967105795" lon="10.377487153130875"><ele>19.0</ele><time>2026-04-06T13:23:01Z</time></trkpt><trkpt lat="43.4511779444446" lon="10.377418822317951"><ele>19.0</ele><time>2026-04-06T13:23:02Z</time></trkpt><trkpt lat="43.45123050309362" lon="10.377365654270223"><ele>19.0</ele><time>2026-04-06T13:23:03Z</time></trkpt><trkpt lat="43.45128861535064" lon="10.3773008484875"><ele>19.0</ele><time>2026-04-06T13:23:04Z</time></trkpt><trkpt lat="43.45135263593984" lon="10.377218768143734"><ele>19.0</ele><time>2026-04-06T13:23:05Z</time></trkpt><trkpt lat="43.451427608545046" lon="10.377140680193648"><ele>19.0</ele><time>2026-04-06T13:23:06Z</time></trkpt><trkpt lat="43.451524727696516" lon="10.377069050984925"><ele>19.799999999999997</ele><time>2026-04-06T13:23:07Z</time></trkpt><trkpt lat="43.451623306950324" lon="10.377000205930207"><ele>20.599999999999998</ele><time>2026-04-06T13:23:08Z</time></trkpt><trkpt lat="43.45172389166786" lon="10.376935576695125"><ele>21.4</ele><time>2026-04-06T13:23:09Z</time></trkpt><trkpt lat="43.45182297335487" lon="10.376862377438663"><ele>22.2</ele><time>2026-04-06T13:23:10Z</time></trkpt><trkpt lat="43.45192083937306" lon="10.376790492483213"><ele>23.0</ele><time>2026-04-06T13:23:11Z</time></trkpt><trkpt lat="43.45202077667854" lon="10.376713234817572"><ele>23.0</ele><time>2026-04-06T13:23:12Z</time></trkpt><trkpt lat="43.452115222114216" lon="10.37663403574648"><ele>23.0</ele><time>2026-04-06T13:23:13Z</time></trkpt><trkpt lat="43.45221347121888" lon="10.376558606630137"><ele>23.0</ele><time>2026-04-06T13:23:14Z</time></trkpt><trkpt lat="43.45231676215207" lon="10.376483604249872"><ele>23.0</ele><time>2026-04-06T13:23:15Z</time></trkpt><trkpt lat="43.452419538712455" lon="10.376405823677684"><ele>23.599999999999998</ele><time>2026-04-06T13:23:16Z</time></trkpt><trkpt lat="43.45252246275779" lon="10.37632103063156"><ele>24.2</ele><time>2026-04-06T13:23:17Z</time></trkpt><trkpt lat="43.452617484903456" lon="10.376245492891147"><ele>24.8</ele><time>2026-04-06T13:23:18Z</time></trkpt><trkpt lat="43.45270746644085" lon="10.376176837790984"><ele>25.4</ele><time>2026-04-06T13:23:19Z</time></trkpt><trkpt lat="43.452798543495994" lon="10.376104928059409"><ele>26.0</ele><time>2026-04-06T13:23:20Z</time></trkpt><trkpt lat="43.45289190261259" lon="10.376039968785085"><ele>27.166666666666664</ele><time>2026-04-06T13:23:21Z</time></trkpt><trkpt lat="43.452974635525045" lon="10.375978903311324"><ele>28.333333333333332</ele><time>2026-04-06T13:23:22Z</time></trkpt><trkpt lat="43.45304879909089" lon="10.375922180526691"><ele>29.5</ele><time>2026-04-06T13:23:23Z</time></trkpt><trkpt lat="43.45311667822081" lon="10.375864412014314"><ele>30.666666666666664</ele><time>2026-04-06T13:23:24Z</time></trkpt><trkpt lat="43.453186783876696" lon="10.375814020049702"><ele>31.833333333333332</ele><time>2026-04-06T13:23:25Z</time></trkpt><trkpt lat="43.453262748680004" lon="10.375760260951312"><ele>33.0</ele><time>2026-04-06T13:23:26Z</time></trkpt><trkpt lat="43.4533426406453" lon="10.375701187367037"><ele>33.0</ele><time>2026-04-06T13:23:27Z</time></trkpt><trkpt lat="43.453423748970266" lon="10.375632244091731"><ele>33.0</ele><time>2026-04-06T13:23:28Z</time></trkpt><trkpt lat="43.45350688760646" lon="10.375557116404615"><ele>33.0</ele><time>2026-04-06T13:23:29Z</time></trkpt><trkpt lat="43.45359701165993" lon="10.375490025989423"><ele>33.0</ele><time>2026-04-06T13:23:30Z</time></trkpt><trkpt lat="43.45369465784086" lon="10.375417924258251"><ele>33.0</ele><time>2026-04-06T13:23:31Z</time></trkpt><trkpt lat="43.453797935122346" lon="10.375346023806014"><ele>32.5</ele><time>2026-04-06T13:23:32Z</time></trkpt><trkpt lat="43.453901314563005" lon="10.375270773268788"><ele>32.0</ele><time>2026-04-06T13:23:33Z</time></trkpt><trkpt lat="43.45400503256015" lon="10.375192152971177"><ele>31.5</ele><time>2026-04-06T13:23:34Z</time></trkpt><trkpt lat="43.45411053688837" lon="10.37511528918493"><ele>31.0</ele><time>2026-04-06T13:23:35Z</time></trkpt><trkpt lat="43.45420691875829" lon="10.375035355078708"><ele>31.0</ele><time>2026-04-06T13:23:36Z</time></trkpt><trkpt lat="43.45430734331769" lon="10.374957762510677"><ele>31.0</ele><time>2026-04-06T13:23:37Z</time></trkpt><trkpt lat="43.454403612008385" lon="10.374880937371028"><ele>31.0</ele><time>2026-04-06T13:23:38Z</time></trkpt><trkpt lat="43.45450409821784" lon="10.374798807678308"><ele>31.0</ele><time>2026-04-06T13:23:39Z</time></trkpt><trkpt lat="43.454592087887356" lon="10.374713385182766"><ele>31.200000000000003</ele><time>2026-04-06T13:23:40Z</time></trkpt><trkpt lat="43.454680403665755" lon="10.374623881882497"><ele>31.400000000000002</ele><time>2026-04-06T13:23:41Z</time></trkpt><trkpt lat="43.454764672862225" lon="10.374530348058585"><ele>31.6</ele><time>2026-04-06T13:23:42Z</time></trkpt><trkpt lat="43.45485099143766" lon="10.37443295973583"><ele>31.8</ele><time>2026-04-06T13:23:43Z</time></trkpt><trkpt lat="43.45493394738362" lon="10.374331550287103"><ele>32.0</ele><time>2026-04-06T13:23:44Z</time></trkpt><trkpt lat="43.45501893201671" lon="10.374225796440836"><ele>32.0</ele><time>2026-04-06T13:23:45Z</time></trkpt><trkpt lat="43.45510426812801" lon="10.374122672051692"><ele>32.0</ele><time>2026-04-06T13:23:46Z</time></trkpt><trkpt lat="43.45519072581193" lon="10.374014450593751"><ele>32.0</ele><time>2026-04-06T13:23:47Z</time></trkpt><trkpt lat="43.45527739895516" lon="10.373910111602246"><ele>32.0</ele><time>2026-04-06T13:23:48Z</time></trkpt><trkpt lat="43.45536226051721" lon="10.373808327909957"><ele>32.25</ele><time>2026-04-06T13:23:49Z</time></trkpt><trkpt lat="43.455446752290094" lon="10.37370465290318"><ele>32.5</ele><time>2026-04-06T13:23:50Z</time></trkpt><trkpt lat="43.45553718405808" lon="10.373597417021653"><ele>32.75</ele><time>2026-04-06T13:23:51Z</time></trkpt><trkpt lat="43.455629322307765" lon="10.37348619877557"><ele>33.0</ele><time>2026-04-06T13:23:52Z</time></trkpt><trkpt lat="43.455718196554855" lon="10.373377036076985"><ele>33.0</ele><time>2026-04-06T13:23:53Z</time></trkpt><trkpt lat="43.45580642140949" lon="10.373276239668694"><ele>33.0</ele><time>2026-04-06T13:23:54Z</time></trkpt><trkpt lat="43.45589315732553" lon="10.373169923587929"><ele>33.0</ele><time>2026-04-06T13:23:55Z</time></trkpt><trkpt lat="43.4559782099914" lon="10.373062964124056"><ele>33.0</ele><time>2026-04-06T13:23:56Z</time></trkpt><trkpt lat="43.4560658810539" lon="10.37295858054884"><ele>32.25</ele><time>2026-04-06T13:23:57Z</time></trkpt><trkpt lat="43.456151939315404" lon="10.372854409500281"><ele>31.5</ele><time>2026-04-06T13:23:58Z</time></trkpt><trkpt lat="43.45623762340106" lon="10.37274439797685"><ele>30.75</ele><time>2026-04-06T13:23:59Z</time></trkpt><trkpt lat="43.456325814877175" lon="10.372632371685349"><ele>30.0</ele><time>2026-04-06T13:24:00Z</time></trkpt><trkpt lat="43.45642146378368" lon="10.372519450262901"><ele>30.0</ele><time>2026-04-06T13:24:01Z</time></trkpt><trkpt lat="43.456516734108185" lon="10.372407315540892"><ele>30.0</ele><time>2026-04-06T13:24:02Z</time></trkpt><trkpt lat="43.45661215606584" lon="10.372300640076336"><ele>30.0</ele><time>2026-04-06T13:24:03Z</time></trkpt><trkpt lat="43.456702197536494" lon="10.372193800620016"><ele>30.0</ele><time>2026-04-06T13:24:04Z</time></trkpt><trkpt lat="43.456804792936666" lon="10.3720732503801"><ele>31.0</ele><time>2026-04-06T13:24:05Z</time></trkpt><trkpt lat="43.45690130492768" lon="10.371955867352884"><ele>32.0</ele><time>2026-04-06T13:24:06Z</time></trkpt><trkpt lat="43.456997696948164" lon="10.371836440698111"><ele>33.0</ele><time>2026-04-06T13:24:07Z</time></trkpt><trkpt lat="43.457088699175635" lon="10.371715715524381"><ele>34.0</ele><time>2026-04-06T13:24:08Z</time></trkpt><trkpt lat="43.457188788326015" lon="10.371598893359518"><ele>34.0</ele><time>2026-04-06T13:24:09Z</time></trkpt><trkpt lat="43.4572869227329" lon="10.371487375086387"><ele>34.0</ele><time>2026-04-06T13:24:10Z</time></trkpt><trkpt lat="43.45738037898138" lon="10.371384367142504"><ele>34.0</ele><time>2026-04-06T13:24:11Z</time></trkpt><trkpt lat="43.45746261985552" lon="10.371279978800786"><ele>34.0</ele><time>2026-04-06T13:24:12Z</time></trkpt><trkpt lat="43.45755053876073" lon="10.3711791494014"><ele>32.2</ele><time>2026-04-06T13:24:13Z</time></trkpt><trkpt lat="43.45762748121988" lon="10.371072653096617"><ele>30.4</ele><time>2026-04-06T13:24:14Z</time></trkpt><trkpt lat="43.457705117826684" lon="10.370963748350468"><ele>28.6</ele><time>2026-04-06T13:24:15Z</time></trkpt><trkpt lat="43.45778292071583" lon="10.370847887146269"><ele>26.8</ele><time>2026-04-06T13:24:16Z</time></trkpt><trkpt lat="43.45785354552815" lon="10.370724815147602"><ele>25.0</ele><time>2026-04-06T13:24:17Z</time></trkpt><trkpt lat="43.45791756028719" lon="10.370591481178009"><ele>24.75</ele><time>2026-04-06T13:24:18Z</time></trkpt><trkpt lat="43.45797369938411" lon="10.370453218061225"><ele>24.5</ele><time>2026-04-06T13:24:19Z</time></trkpt><trkpt lat="43.45802479736943" lon="10.370306591996382"><ele>24.25</ele><time>2026-04-06T13:24:20Z</time></trkpt><trkpt lat="43.458071509873164" lon="10.370142951263123"><ele>24.0</ele><time>2026-04-06T13:24:21Z</time></trkpt><trkpt lat="43.458116639276014" lon="10.369970598847361"><ele>24.0</ele><time>2026-04-06T13:24:22Z</time></trkpt><trkpt lat="43.45817087720452" lon="10.36979125905163"><ele>24.0</ele><time>2026-04-06T13:24:23Z</time></trkpt><trkpt lat="43.4582189228561" lon="10.369611660922306"><ele>24.0</ele><time>2026-04-06T13:24:24Z</time></trkpt><trkpt lat="43.458274796205075" lon="10.369427172098453"><ele>24.0</ele><time>2026-04-06T13:24:25Z</time></trkpt><trkpt lat="43.45833504285536" lon="10.369238946833054"><ele>23.25</ele><time>2026-04-06T13:24:26Z</time></trkpt><trkpt lat="43.45839911696052" lon="10.369044520537194"><ele>22.5</ele><time>2026-04-06T13:24:27Z</time></trkpt><trkpt lat="43.45846392920154" lon="10.368862904866338"><ele>21.75</ele><time>2026-04-06T13:24:28Z</time></trkpt><trkpt lat="43.45852757875595" lon="10.36869899062038"><ele>21.0</ele><time>2026-04-06T13:24:29Z</time></trkpt><trkpt lat="43.45860044744207" lon="10.36855666264898"><ele>21.0</ele><time>2026-04-06T13:24:30Z</time></trkpt><trkpt lat="43.45868579320411" lon="10.368434279461725"><ele>21.0</ele><time>2026-04-06T13:24:31Z</time></trkpt><trkpt lat="43.458787608161664" lon="10.368308448250229"><ele>21.0</ele><time>2026-04-06T13:24:32Z</time></trkpt><trkpt lat="43.45889490727699" lon="10.368186164963715"><ele>21.0</ele><time>2026-04-06T13:24:33Z</time></trkpt><trkpt lat="43.45899912264868" lon="10.368085517415645"><ele>21.5</ele><time>2026-04-06T13:24:34Z</time></trkpt><trkpt lat="43.4590937665542" lon="10.367990438411196"><ele>22.0</ele><time>2026-04-06T13:24:35Z</time></trkpt><trkpt lat="43.45918958474464" lon="10.367897748167682"><ele>22.5</ele><time>2026-04-06T13:24:36Z</time></trkpt><trkpt lat="43.45929811858314" lon="10.367811643509215"><ele>23.0</ele><time>2026-04-06T13:24:37Z</time></trkpt><trkpt lat="43.45940303394299" lon="10.367729070931869"><ele>23.0</ele><time>2026-04-06T13:24:38Z</time></trkpt><trkpt lat="43.459509372196464" lon="10.36765286419062"><ele>23.0</ele><time>2026-04-06T13:24:39Z</time></trkpt><trkpt lat="43.45962539659718" lon="10.367585771111612"><ele>23.0</ele><time>2026-04-06T13:24:40Z</time></trkpt><trkpt lat="43.45974833580951" lon="10.367522715654461"><ele>23.0</ele><time>2026-04-06T13:24:41Z</time></trkpt><trkpt lat="43.45987675412239" lon="10.367467592195633"><ele>22.25</ele><time>2026-04-06T13:24:42Z</time></trkpt><trkpt lat="43.460006742255395" lon="10.36741147336817"><ele>21.5</ele><time>2026-04-06T13:24:43Z</time></trkpt><trkpt lat="43.46014143247948" lon="10.367350069398503"><ele>20.75</ele><time>2026-04-06T13:24:44Z</time></trkpt><trkpt lat="43.46027665011701" lon="10.367280957297043"><ele>20.0</ele><time>2026-04-06T13:24:45Z</time></trkpt><trkpt lat="43.460408952673234" lon="10.367195111232883"><ele>18.5</ele><time>2026-04-06T13:24:46Z</time></trkpt><trkpt lat="43.46052985422024" lon="10.367087501050392"><ele>17.0</ele><time>2026-04-06T13:24:47Z</time></trkpt><trkpt lat="43.460629216897885" lon="10.36696481675559"><ele>15.5</ele><time>2026-04-06T13:24:48Z</time></trkpt><trkpt lat="43.46071826576978" lon="10.366822870336886"><ele>14.0</ele><time>2026-04-06T13:24:49Z</time></trkpt><trkpt lat="43.460797156923626" lon="10.366669314571949"><ele>14.0</ele><time>2026-04-06T13:24:50Z</time></trkpt><trkpt lat="43.46085921197287" lon="10.366513072956913"><ele>14.0</ele><time>2026-04-06T13:24:51Z</time></trkpt><trkpt lat="43.46090659669221" lon="10.36634745241429"><ele>14.0</ele><time>2026-04-06T13:24:52Z</time></trkpt><trkpt lat="43.46094306394061" lon="10.366175654499838"><ele>14.0</ele><time>2026-04-06T13:24:53Z</time></trkpt><trkpt lat="43.460976913484" lon="10.366015280955054"><ele>15.5</ele><time>2026-04-06T13:24:54Z</time></trkpt><trkpt lat="43.461010032954135" lon="10.36585699884268"><ele>17.0</ele><time>2026-04-06T13:24:55Z</time></trkpt><trkpt lat="43.46104851380247" lon="10.365702146016107"><ele>18.5</ele><time>2026-04-06T13:24:56Z</time></trkpt><trkpt lat="43.461095841806" lon="10.365554482304416"><ele>20.0</ele><time>2026-04-06T13:24:57Z</time></trkpt><trkpt lat="43.46116274124949" lon="10.365406426744885"><ele>20.75</ele><time>2026-04-06T13:24:58Z</time></trkpt><trkpt lat="43.46125413040718" lon="10.36528173662415"><ele>21.5</ele><time>2026-04-06T13:24:59Z</time></trkpt><trkpt lat="43.46135504760577" lon="10.365150832710912"><ele>22.25</ele><time>2026-04-06T13:25:00Z</time></trkpt><trkpt lat="43.46146039274947" lon="10.36500518680111"><ele>23.0</ele><time>2026-04-06T13:25:01Z</time></trkpt><trkpt lat="43.461553790096424" lon="10.364840074931822"><ele>24.666666666666668</ele><time>2026-04-06T13:25:02Z</time></trkpt><trkpt lat="43.46165891242335" lon="10.364666493178603"><ele>26.333333333333336</ele><time>2026-04-06T13:25:03Z</time></trkpt><trkpt lat="43.46176699412718" lon="10.364477502044936"><ele>28.0</ele><time>2026-04-06T13:25:04Z</time></trkpt><trkpt lat="43.46186746527562" lon="10.3642627240249"><ele>28.0</ele><time>2026-04-06T13:25:05Z</time></trkpt><trkpt lat="43.46194849307766" lon="10.364035348570372"><ele>28.0</ele><time>2026-04-06T13:25:06Z</time></trkpt><trkpt lat="43.46202940933641" lon="10.363764728917456"><ele>28.0</ele><time>2026-04-06T13:25:07Z</time></trkpt><trkpt lat="43.461900828407686" lon="10.364091910614382"><ele>28.0</ele><time>2026-04-06T13:25:08Z</time></trkpt><trkpt lat="43.46194563070857" lon="10.363936474025413"><ele>28.0</ele><time>2026-04-06T13:25:09Z</time></trkpt><trkpt lat="43.46198504905682" lon="10.363787061100007"><ele>28.0</ele><time>2026-04-06T13:25:10Z</time></trkpt><trkpt lat="43.4620167309884" lon="10.36364173387239"><ele>28.0</ele><time>2026-04-06T13:25:11Z</time></trkpt><trkpt lat="43.46205515111942" lon="10.363490358488036"><ele>29.0</ele><time>2026-04-06T13:25:12Z</time></trkpt><trkpt lat="43.462096848456056" lon="10.363349481628738"><ele>30.0</ele><time>2026-04-06T13:25:13Z</time></trkpt><trkpt lat="43.46214081254916" lon="10.363204204540361"><ele>31.0</ele><time>2026-04-06T13:25:14Z</time></trkpt><trkpt lat="43.46220186852877" lon="10.363061437310687"><ele>32.0</ele><time>2026-04-06T13:25:15Z</time></trkpt><trkpt lat="43.46226919671468" lon="10.362928796113433"><ele>35.25</ele><time>2026-04-06T13:25:16Z</time></trkpt><trkpt lat="43.46234657604943" lon="10.362817722855189"><ele>38.5</ele><time>2026-04-06T13:25:17Z</time></trkpt><trkpt lat="43.46243773386832" lon="10.362724841671978"><ele>41.75</ele><time>2026-04-06T13:25:18Z</time></trkpt><trkpt lat="43.462546316999855" lon="10.362647714108393"><ele>45.0</ele><time>2026-04-06T13:25:19Z</time></trkpt><trkpt lat="43.46264779947363" lon="10.362575240327361"><ele>45.0</ele><time>2026-04-06T13:25:20Z</time></trkpt><trkpt lat="43.462759387589145" lon="10.362550162220394"><ele>45.0</ele><time>2026-04-06T13:25:21Z</time></trkpt><trkpt lat="43.46287370701928" lon="10.362498472948323"><ele>45.0</ele><time>2026-04-06T13:25:22Z</time></trkpt><trkpt lat="43.46298750183643" lon="10.36246444945292"><ele>45.0</ele><time>2026-04-06T13:25:23Z</time></trkpt><trkpt lat="43.46308868193455" lon="10.362428910438139"><ele>46.666666666666664</ele><time>2026-04-06T13:25:24Z</time></trkpt><trkpt lat="43.463172958984806" lon="10.362399440589149"><ele>48.33333333333333</ele><time>2026-04-06T13:25:25Z</time></trkpt><trkpt lat="43.463239056367" lon="10.362331820218433"><ele>50.0</ele><time>2026-04-06T13:25:26Z</time></trkpt><trkpt lat="43.46328783179929" lon="10.362232977939476"><ele>51.666666666666664</ele><time>2026-04-06T13:25:27Z</time></trkpt><trkpt lat="43.463310594050775" lon="10.362120463671546"><ele>53.33333333333333</ele><time>2026-04-06T13:25:28Z</time></trkpt><trkpt lat="43.46330999170977" lon="10.361986640077907"><ele>55.0</ele><time>2026-04-06T13:25:29Z</time></trkpt><trkpt lat="43.4632847502001" lon="10.361875669132992"><ele>54.2</ele><time>2026-04-06T13:25:30Z</time></trkpt><trkpt lat="43.463181426590516" lon="10.361799141564116"><ele>53.4</ele><time>2026-04-06T13:25:31Z</time></trkpt><trkpt lat="43.46309455648165" lon="10.361757433508206"><ele>52.599999999999994</ele><time>2026-04-06T13:25:32Z</time></trkpt><trkpt lat="43.462992278455665" lon="10.361748041977537"><ele>51.8</ele><time>2026-04-06T13:25:33Z</time></trkpt><trkpt lat="43.46289204492152" lon="10.361755757823229"><ele>51.0</ele><time>2026-04-06T13:25:34Z</time></trkpt><trkpt lat="43.4627746949873" lon="10.361759507576092"><ele>51.0</ele><time>2026-04-06T13:25:35Z</time></trkpt><trkpt lat="43.462659213342185" lon="10.361744422900946"><ele>51.0</ele><time>2026-04-06T13:25:36Z</time></trkpt><trkpt lat="43.46255823301029" lon="10.36171863987829"><ele>51.0</ele><time>2026-04-06T13:25:37Z</time></trkpt><trkpt lat="43.462473042296736" lon="10.361689129965164"><ele>51.0</ele><time>2026-04-06T13:25:38Z</time></trkpt><trkpt lat="43.46240743169605" lon="10.361617440751742"><ele>51.0</ele><time>2026-04-06T13:25:39Z</time></trkpt><trkpt lat="43.462361469065435" lon="10.361515868317417"><ele>51.0</ele><time>2026-04-06T13:25:40Z</time></trkpt><trkpt lat="43.462344831883826" lon="10.361374571766367"><ele>51.0</ele><time>2026-04-06T13:25:41Z</time></trkpt><trkpt lat="43.462344552369686" lon="10.361233176425516"><ele>51.0</ele><time>2026-04-06T13:25:42Z</time></trkpt><trkpt lat="43.46234858524206" lon="10.361089727431608"><ele>51.0</ele><time>2026-04-06T13:25:43Z</time></trkpt><trkpt lat="43.46234932884077" lon="10.360946295084693"><ele>51.0</ele><time>2026-04-06T13:25:44Z</time></trkpt><trkpt lat="43.46234736582786" lon="10.360799807825654"><ele>52.4</ele><time>2026-04-06T13:25:45Z</time></trkpt><trkpt lat="43.462341800450695" lon="10.360653836980646"><ele>53.8</ele><time>2026-04-06T13:25:46Z</time></trkpt><trkpt lat="43.462339960099264" lon="10.360506278086469"><ele>55.199999999999996</ele><time>2026-04-06T13:25:47Z</time></trkpt><trkpt lat="43.462348165686734" lon="10.360360343947516"><ele>56.599999999999994</ele><time>2026-04-06T13:25:48Z</time></trkpt><trkpt lat="43.46240310282331" lon="10.36021231648994"><ele>58.0</ele><time>2026-04-06T13:25:49Z</time></trkpt><trkpt lat="43.46246126320341" lon="10.360070373008169"><ele>58.0</ele><time>2026-04-06T13:25:50Z</time></trkpt><trkpt lat="43.46251377063004" lon="10.35994516889691"><ele>58.0</ele><time>2026-04-06T13:25:51Z</time></trkpt><trkpt lat="43.46256397926297" lon="10.35981903085005"><ele>58.0</ele><time>2026-04-06T13:25:52Z</time></trkpt><trkpt lat="43.46262287585344" lon="10.35970334119727"><ele>58.0</ele><time>2026-04-06T13:25:53Z</time></trkpt><trkpt lat="43.462690014502535" lon="10.359608520186823"><ele>58.0</ele><time>2026-04-06T13:25:54Z</time></trkpt><trkpt lat="43.46278174748888" lon="10.35952393108507"><ele>55.4</ele><time>2026-04-06T13:25:55Z</time></trkpt><trkpt lat="43.46288642533974" lon="10.359446263927016"><ele>52.8</ele><time>2026-04-06T13:25:56Z</time></trkpt><trkpt lat="43.46298624212954" lon="10.359359262176387"><ele>50.2</ele><time>2026-04-06T13:25:57Z</time></trkpt><trkpt lat="43.46307785258863" lon="10.359286039824491"><ele>47.6</ele><time>2026-04-06T13:25:58Z</time></trkpt><trkpt lat="43.46316138261697" lon="10.35920991849636"><ele>45.0</ele><time>2026-04-06T13:25:59Z</time></trkpt><trkpt lat="43.4632490982439" lon="10.35914422333158"><ele>48.6</ele><time>2026-04-06T13:26:00Z</time></trkpt><trkpt lat="43.46333296707249" lon="10.35907344762015"><ele>52.2</ele><time>2026-04-06T13:26:01Z</time></trkpt><trkpt lat="43.46341988273847" lon="10.358995997818232"><ele>55.8</ele><time>2026-04-06T13:26:02Z</time></trkpt><trkpt lat="43.46350564694786" lon="10.358922520358822"><ele>59.4</ele><time>2026-04-06T13:26:03Z</time></trkpt><trkpt lat="43.463595873576125" lon="10.358842228549761"><ele>63.0</ele><time>2026-04-06T13:26:04Z</time></trkpt><trkpt lat="43.46366567267775" lon="10.358745129586822"><ele>63.0</ele><time>2026-04-06T13:26:05Z</time></trkpt><trkpt lat="43.463711764931574" lon="10.358622271195959"><ele>63.0</ele><time>2026-04-06T13:26:06Z</time></trkpt><trkpt lat="43.46374191819283" lon="10.358488224213739"><ele>63.0</ele><time>2026-04-06T13:26:07Z</time></trkpt><trkpt lat="43.46376492100967" lon="10.358355660281351"><ele>63.0</ele><time>2026-04-06T13:26:08Z</time></trkpt><trkpt lat="43.46378744632492" lon="10.35820849483747"><ele>63.0</ele><time>2026-04-06T13:26:09Z</time></trkpt><trkpt lat="43.46380714364052" lon="10.358059635854868"><ele>67.8</ele><time>2026-04-06T13:26:10Z</time></trkpt><trkpt lat="43.46383570772367" lon="10.35792367860453"><ele>72.6</ele><time>2026-04-06T13:26:11Z</time></trkpt><trkpt lat="43.46386706048579" lon="10.35778377764949"><ele>77.39999999999999</ele><time>2026-04-06T13:26:12Z</time></trkpt><trkpt lat="43.46390701687584" lon="10.35764735841594"><ele>82.19999999999999</ele><time>2026-04-06T13:26:13Z</time></trkpt><trkpt lat="43.46393038985558" lon="10.357501311423015"><ele>87.0</ele><time>2026-04-06T13:26:14Z</time></trkpt><trkpt lat="43.46395741486443" lon="10.357357092969316"><ele>87.0</ele><time>2026-04-06T13:26:15Z</time></trkpt><trkpt lat="43.46399512478429" lon="10.357208008315387"><ele>87.0</ele><time>2026-04-06T13:26:16Z</time></trkpt><trkpt lat="43.46404024291158" lon="10.357054375017666"><ele>87.0</ele><time>2026-04-06T13:26:17Z</time></trkpt><trkpt lat="43.46410379235913" lon="10.356937460065986"><ele>87.0</ele><time>2026-04-06T13:26:18Z</time></trkpt><trkpt lat="43.46417910282843" lon="10.35682957903059"><ele>85.6</ele><time>2026-04-06T13:26:19Z</time></trkpt><trkpt lat="43.46426187409322" lon="10.356725735520815"><ele>84.19999999999999</ele><time>2026-04-06T13:26:20Z</time></trkpt><trkpt lat="43.464342438590464" lon="10.35664681058798"><ele>82.8</ele><time>2026-04-06T13:26:21Z</time></trkpt><trkpt lat="43.46442161114011" lon="10.356569931766524"><ele>81.4</ele><time>2026-04-06T13:26:22Z</time></trkpt><trkpt lat="43.46449296600991" lon="10.356491919751331"><ele>80.0</ele><time>2026-04-06T13:26:23Z</time></trkpt><trkpt lat="43.46456029293677" lon="10.356411466865302"><ele>76.2</ele><time>2026-04-06T13:26:24Z</time></trkpt><trkpt lat="43.464625751929724" lon="10.356337171229592"><ele>72.4</ele><time>2026-04-06T13:26:25Z</time></trkpt><trkpt lat="43.46469248775045" lon="10.356267109184728"><ele>68.6</ele><time>2026-04-06T13:26:26Z</time></trkpt><trkpt lat="43.464771678191056" lon="10.356199908919692"><ele>64.8</ele><time>2026-04-06T13:26:27Z</time></trkpt><trkpt lat="43.46485898592655" lon="10.356151300617816"><ele>61.0</ele><time>2026-04-06T13:26:28Z</time></trkpt><trkpt lat="43.46496791687471" lon="10.356117692734134"><ele>61.0</ele><time>2026-04-06T13:26:29Z</time></trkpt><trkpt lat="43.46506720040011" lon="10.356106995817541"><ele>60.99999999999999</ele><time>2026-04-06T13:26:30Z</time></trkpt><trkpt lat="43.46516588450163" lon="10.356099218445424"><ele>60.99999999999999</ele><time>2026-04-06T13:26:31Z</time></trkpt><trkpt lat="43.465255310614815" lon="10.356080934603574"><ele>61.0</ele><time>2026-04-06T13:26:32Z</time></trkpt><trkpt lat="43.46534168443464" lon="10.356036698543267"><ele>61.0</ele><time>2026-04-06T13:26:33Z</time></trkpt><trkpt lat="43.46542199002528" lon="10.355975172545385"><ele>63.4</ele><time>2026-04-06T13:26:34Z</time></trkpt><trkpt lat="43.465488598533334" lon="10.355872517148468"><ele>65.8</ele><time>2026-04-06T13:26:35Z</time></trkpt><trkpt lat="43.46554235325786" lon="10.355748738342974"><ele>68.19999999999999</ele><time>2026-04-06T13:26:36Z</time></trkpt><trkpt lat="43.46558370750328" lon="10.355591932499527"><ele>70.6</ele><time>2026-04-06T13:26:37Z</time></trkpt><trkpt lat="43.46561603603279" lon="10.355431406101536"><ele>73.0</ele><time>2026-04-06T13:26:38Z</time></trkpt><trkpt lat="43.46562341606864" lon="10.35527277537872"><ele>73.0</ele><time>2026-04-06T13:26:39Z</time></trkpt><trkpt lat="43.46562375995226" lon="10.35512157506887"><ele>73.0</ele><time>2026-04-06T13:26:40Z</time></trkpt><trkpt lat="43.4655944626066" lon="10.354978830322189"><ele>73.0</ele><time>2026-04-06T13:26:41Z</time></trkpt><trkpt lat="43.46554285052274" lon="10.354840304158683"><ele>73.0</ele><time>2026-04-06T13:26:42Z</time></trkpt><trkpt lat="43.46547706298705" lon="10.354706444574926"><ele>73.0</ele><time>2026-04-06T13:26:43Z</time></trkpt><trkpt lat="43.465405099343776" lon="10.354582531889545"><ele>67.6</ele><time>2026-04-06T13:26:44Z</time></trkpt><trkpt lat="43.46533810410841" lon="10.354467798442226"><ele>62.199999999999996</ele><time>2026-04-06T13:26:45Z</time></trkpt><trkpt lat="43.465284279651144" lon="10.354349448685275"><ele>56.8</ele><time>2026-04-06T13:26:46Z</time></trkpt><trkpt lat="43.46522495113394" lon="10.354233044581429"><ele>51.4</ele><time>2026-04-06T13:26:47Z</time></trkpt><trkpt lat="43.465171104791516" lon="10.354126312214472"><ele>46.0</ele><time>2026-04-06T13:26:48Z</time></trkpt><trkpt lat="43.46511781898866" lon="10.354020471267775"><ele>46.0</ele><time>2026-04-06T13:26:49Z</time></trkpt><trkpt lat="43.4650659740102" lon="10.353910615319377"><ele>46.0</ele><time>2026-04-06T13:26:50Z</time></trkpt><trkpt lat="43.46501449601991" lon="10.353805203764969"><ele>46.0</ele><time>2026-04-06T13:26:51Z</time></trkpt><trkpt lat="43.464963626270176" lon="10.353693819188326"><ele>46.0</ele><time>2026-04-06T13:26:52Z</time></trkpt><trkpt lat="43.46490512732717" lon="10.353585098376147"><ele>46.0</ele><time>2026-04-06T13:26:53Z</time></trkpt><trkpt lat="43.464847650377905" lon="10.353470682619333"><ele>48.599999999999994</ele><time>2026-04-06T13:26:54Z</time></trkpt><trkpt lat="43.46479273018366" lon="10.353360160152791"><ele>51.2</ele><time>2026-04-06T13:26:55Z</time></trkpt><trkpt lat="43.46474339475072" lon="10.353246322040864"><ele>53.800000000000004</ele><time>2026-04-06T13:26:56Z</time></trkpt><trkpt lat="43.46469829674534" lon="10.353128627563136"><ele>56.400000000000006</ele><time>2026-04-06T13:26:57Z</time></trkpt><trkpt lat="43.46465779560725" lon="10.353005352349166"><ele>59.0</ele><time>2026-04-06T13:26:58Z</time></trkpt><trkpt lat="43.464626704043695" lon="10.352880722893023"><ele>51.800000000000004</ele><time>2026-04-06T13:26:59Z</time></trkpt><trkpt lat="43.46459827258035" lon="10.352759675597229"><ele>44.60000000000001</ele><time>2026-04-06T13:27:00Z</time></trkpt><trkpt lat="43.464569954421826" lon="10.352641583297778"><ele>37.4</ele><time>2026-04-06T13:27:01Z</time></trkpt><trkpt lat="43.464545059723754" lon="10.352517567664737"><ele>30.2</ele><time>2026-04-06T13:27:02Z</time></trkpt><trkpt lat="43.464531899827136" lon="10.35239067541206"><ele>23.0</ele><time>2026-04-06T13:27:03Z</time></trkpt><trkpt lat="43.46453307203077" lon="10.35225934131009"><ele>21.599999999999998</ele><time>2026-04-06T13:27:04Z</time></trkpt><trkpt lat="43.46454941376731" lon="10.35213508547519"><ele>20.2</ele><time>2026-04-06T13:27:05Z</time></trkpt><trkpt lat="43.46457075850883" lon="10.352005225849842"><ele>18.8</ele><time>2026-04-06T13:27:06Z</time></trkpt><trkpt lat="43.46461057616359" lon="10.35187250327173"><ele>17.4</ele><time>2026-04-06T13:27:07Z</time></trkpt><trkpt lat="43.46465113401172" lon="10.351716639022714"><ele>16.0</ele><time>2026-04-06T13:27:08Z</time></trkpt><trkpt lat="43.464696709321736" lon="10.351576858504062"><ele>20.6</ele><time>2026-04-06T13:27:09Z</time></trkpt><trkpt lat="43.46474866587693" lon="10.351442485596843"><ele>25.200000000000003</ele><time>2026-04-06T13:27:10Z</time></trkpt><trkpt lat="43.464810919229" lon="10.35132246079123"><ele>29.799999999999997</ele><time>2026-04-06T13:27:11Z</time></trkpt><trkpt lat="43.464877622064954" lon="10.351213504717487"><ele>34.4</ele><time>2026-04-06T13:27:12Z</time></trkpt><trkpt lat="43.46495096628711" lon="10.351118656752229"><ele>39.0</ele><time>2026-04-06T13:27:13Z</time></trkpt><trkpt lat="43.465021693153005" lon="10.351015026878402"><ele>39.0</ele><time>2026-04-06T13:27:14Z</time></trkpt><trkpt lat="43.465081093956826" lon="10.350891611523942"><ele>39.0</ele><time>2026-04-06T13:27:15Z</time></trkpt><trkpt lat="43.46513994711855" lon="10.350749886194702"><ele>39.0</ele><time>2026-04-06T13:27:16Z</time></trkpt><trkpt lat="43.46516539905423" lon="10.350572458661889"><ele>39.0</ele><time>2026-04-06T13:27:17Z</time></trkpt><trkpt lat="43.46517680214722" lon="10.350360154898524"><ele>34.333333333333336</ele><time>2026-04-06T13:27:18Z</time></trkpt><trkpt lat="43.465182353250476" lon="10.350117209747062"><ele>29.666666666666668</ele><time>2026-04-06T13:27:19Z</time></trkpt><trkpt lat="43.46519134447457" lon="10.349882465411433"><ele>25.0</ele><time>2026-04-06T13:27:20Z</time></trkpt><trkpt lat="43.46519842620423" lon="10.349674785432276"><ele>21.0</ele><time>2026-04-06T13:27:21Z</time></trkpt><trkpt lat="43.46520667825079" lon="10.349481715749619"><ele>17.0</ele><time>2026-04-06T13:27:22Z</time></trkpt><trkpt lat="43.46520884497784" lon="10.349298088770668"><ele>13.0</ele><time>2026-04-06T13:27:23Z</time></trkpt><trkpt lat="43.465211500261105" lon="10.34911664237168"><ele>9.0</ele><time>2026-04-06T13:27:24Z</time></trkpt><trkpt lat="43.46520914153311" lon="10.348929903510047"><ele>9.25</ele><time>2026-04-06T13:27:25Z</time></trkpt><trkpt lat="43.46520786078848" lon="10.34874130238726"><ele>9.5</ele><time>2026-04-06T13:27:26Z</time></trkpt><trkpt lat="43.465201691035624" lon="10.348549450294371"><ele>9.75</ele><time>2026-04-06T13:27:27Z</time></trkpt><trkpt lat="43.46519391377259" lon="10.348355634781646"><ele>10.0</ele><time>2026-04-06T13:27:28Z</time></trkpt><trkpt lat="43.46518822145317" lon="10.34815834984572"><ele>12.75</ele><time>2026-04-06T13:27:29Z</time></trkpt><trkpt lat="43.46518282347845" lon="10.347960383838307"><ele>15.5</ele><time>2026-04-06T13:27:30Z</time></trkpt><trkpt lat="43.465181223378806" lon="10.347773176738547"><ele>18.25</ele><time>2026-04-06T13:27:31Z</time></trkpt><trkpt lat="43.4651755608262" lon="10.347594145408083"><ele>21.0</ele><time>2026-04-06T13:27:32Z</time></trkpt><trkpt lat="43.46516173459176" lon="10.347414174252428"><ele>21.0</ele><time>2026-04-06T13:27:33Z</time></trkpt><trkpt lat="43.46514414409965" lon="10.347241713586238"><ele>21.0</ele><time>2026-04-06T13:27:34Z</time></trkpt><trkpt lat="43.46511847849335" lon="10.347069701829634"><ele>21.0</ele><time>2026-04-06T13:27:35Z</time></trkpt><trkpt lat="43.465089104922654" lon="10.34689904556975"><ele>21.0</ele><time>2026-04-06T13:27:36Z</time></trkpt><trkpt lat="43.46506267471389" lon="10.346735305348957"><ele>24.0</ele><time>2026-04-06T13:27:37Z</time></trkpt><trkpt lat="43.46503982487395" lon="10.346585426629815"><ele>27.0</ele><time>2026-04-06T13:27:38Z</time></trkpt><trkpt lat="43.46501532264412" lon="10.346444935794606"><ele>30.0</ele><time>2026-04-06T13:27:39Z</time></trkpt><trkpt lat="43.464991950495225" lon="10.346308257997846"><ele>33.0</ele><time>2026-04-06T13:27:40Z</time></trkpt><trkpt lat="43.46496860725333" lon="10.346158024297395"><ele>36.0</ele><time>2026-04-06T13:27:41Z</time></trkpt><trkpt lat="43.46496506484657" lon="10.345974512253294"><ele>36.75</ele><time>2026-04-06T13:27:42Z</time></trkpt><trkpt lat="43.46495645263792" lon="10.345806052943587"><ele>37.5</ele><time>2026-04-06T13:27:43Z</time></trkpt><trkpt lat="43.4649531481882" lon="10.345629976302327"><ele>38.25</ele><time>2026-04-06T13:27:44Z</time></trkpt><trkpt lat="43.46495798083903" lon="10.345427703733073"><ele>39.0</ele><time>2026-04-06T13:27:45Z</time></trkpt><trkpt lat="43.464975512751366" lon="10.34521750858303"><ele>39.5</ele><time>2026-04-06T13:27:46Z</time></trkpt><trkpt lat="43.464998953616075" lon="10.345017407525601"><ele>40.0</ele><time>2026-04-06T13:27:47Z</time></trkpt><trkpt lat="43.46501975682844" lon="10.3448358622827"><ele>40.5</ele><time>2026-04-06T13:27:48Z</time></trkpt><trkpt lat="43.46504061942235" lon="10.344668274355778"><ele>41.0</ele><time>2026-04-06T13:27:49Z</time></trkpt><trkpt lat="43.46506699468001" lon="10.344515263381485"><ele>40.0</ele><time>2026-04-06T13:27:50Z</time></trkpt><trkpt lat="43.465099792736595" lon="10.344372354831968"><ele>39.0</ele><time>2026-04-06T13:27:51Z</time></trkpt><trkpt lat="43.46513819002473" lon="10.34422341104833"><ele>38.0</ele><time>2026-04-06T13:27:52Z</time></trkpt><trkpt lat="43.46516931717204" lon="10.344074945017793"><ele>37.0</ele><time>2026-04-06T13:27:53Z</time></trkpt><trkpt lat="43.465187330811055" lon="10.343936623765334"><ele>36.0</ele><time>2026-04-06T13:27:54Z</time></trkpt><trkpt lat="43.465195320722316" lon="10.343799874432893"><ele>34.0</ele><time>2026-04-06T13:27:55Z</time></trkpt><trkpt lat="43.465193125451364" lon="10.343660802307522"><ele>32.0</ele><time>2026-04-06T13:27:56Z</time></trkpt><trkpt lat="43.46519196784995" lon="10.343525634078789"><ele>30.0</ele><time>2026-04-06T13:27:57Z</time></trkpt><trkpt lat="43.465185844095465" lon="10.343403033685512"><ele>28.0</ele><time>2026-04-06T13:27:58Z</time></trkpt><trkpt lat="43.465179220956195" lon="10.343281000740628"><ele>26.0</ele><time>2026-04-06T13:27:59Z</time></trkpt><trkpt lat="43.46518422690387" lon="10.343163238576578"><ele>24.400000000000002</ele><time>2026-04-06T13:28:00Z</time></trkpt><trkpt lat="43.465198281646174" lon="10.343042051521802"><ele>22.8</ele><time>2026-04-06T13:28:01Z</time></trkpt><trkpt lat="43.46522851580551" lon="10.342916259628476"><ele>21.200000000000003</ele><time>2026-04-06T13:28:02Z</time></trkpt><trkpt lat="43.4652683564457" lon="10.342790245107022"><ele>19.6</ele><time>2026-04-06T13:28:03Z</time></trkpt><trkpt lat="43.46531963664951" lon="10.342670318581819"><ele>18.0</ele><time>2026-04-06T13:28:04Z</time></trkpt><trkpt lat="43.46538867115573" lon="10.342552932945868"><ele>21.75</ele><time>2026-04-06T13:28:05Z</time></trkpt><trkpt lat="43.465467658430285" lon="10.342434516351378"><ele>25.5</ele><time>2026-04-06T13:28:06Z</time></trkpt><trkpt lat="43.465547876181645" lon="10.342314114228913"><ele>29.25</ele><time>2026-04-06T13:28:07Z</time></trkpt><trkpt lat="43.46562787119314" lon="10.342195734690275"><ele>33.0</ele><time>2026-04-06T13:28:08Z</time></trkpt><trkpt lat="43.465712076550865" lon="10.34207829030423"><ele>33.0</ele><time>2026-04-06T13:28:09Z</time></trkpt><trkpt lat="43.46580377202885" lon="10.341952272940159"><ele>33.0</ele><time>2026-04-06T13:28:10Z</time></trkpt><trkpt lat="43.4658976748421" lon="10.34182438593244"><ele>33.0</ele><time>2026-04-06T13:28:11Z</time></trkpt><trkpt lat="43.46599774168442" lon="10.34170190373102"><ele>33.0</ele><time>2026-04-06T13:28:12Z</time></trkpt><trkpt lat="43.466090667696726" lon="10.341577904683371"><ele>33.0</ele><time>2026-04-06T13:28:13Z</time></trkpt><trkpt lat="43.46617870305412" lon="10.341458299366248"><ele>33.0</ele><time>2026-04-06T13:28:14Z</time></trkpt><trkpt lat="43.46626531172328" lon="10.341344250926035"><ele>33.0</ele><time>2026-04-06T13:28:15Z</time></trkpt><trkpt lat="43.466352647323376" lon="10.341233684268131"><ele>33.0</ele><time>2026-04-06T13:28:16Z</time></trkpt><trkpt lat="43.466439530393586" lon="10.341124730610069"><ele>33.199999999999996</ele><time>2026-04-06T13:28:17Z</time></trkpt><trkpt lat="43.46652074044149" lon="10.34102193013175"><ele>33.4</ele><time>2026-04-06T13:28:18Z</time></trkpt><trkpt lat="43.46660573210603" lon="10.34093156972365"><ele>33.599999999999994</ele><time>2026-04-06T13:28:19Z</time></trkpt><trkpt lat="43.46668028703011" lon="10.340840226528805"><ele>33.8</ele><time>2026-04-06T13:28:20Z</time></trkpt><trkpt lat="43.46676391810248" lon="10.340757972894545"><ele>34.0</ele><time>2026-04-06T13:28:21Z</time></trkpt><trkpt lat="43.46685395777876" lon="10.340659212918965"><ele>36.5</ele><time>2026-04-06T13:28:22Z</time></trkpt><trkpt lat="43.46694734399834" lon="10.340549350045746"><ele>39.0</ele><time>2026-04-06T13:28:23Z</time></trkpt><trkpt lat="43.467027961140275" lon="10.34042933297081"><ele>41.5</ele><time>2026-04-06T13:28:24Z</time></trkpt><trkpt lat="43.46709224286151" lon="10.340295032375213"><ele>44.0</ele><time>2026-04-06T13:28:25Z</time></trkpt><trkpt lat="43.46717080431932" lon="10.340166027310286"><ele>44.0</ele><time>2026-04-06T13:28:26Z</time></trkpt><trkpt lat="43.467248441608774" lon="10.340038943376083"><ele>44.0</ele><time>2026-04-06T13:28:27Z</time></trkpt><trkpt lat="43.46730501413163" lon="10.339913622877821"><ele>44.0</ele><time>2026-04-06T13:28:28Z</time></trkpt><trkpt lat="43.467383596583254" lon="10.339794621485794"><ele>44.0</ele><time>2026-04-06T13:28:29Z</time></trkpt><trkpt lat="43.46746265356668" lon="10.339682938427282"><ele>37.75</ele><time>2026-04-06T13:28:30Z</time></trkpt><trkpt lat="43.467544933150556" lon="10.339579372801154"><ele>31.5</ele><time>2026-04-06T13:28:31Z</time></trkpt><trkpt lat="43.467631223868764" lon="10.339480235087573"><ele>25.25</ele><time>2026-04-06T13:28:32Z</time></trkpt><trkpt lat="43.467724944642875" lon="10.339383122440791"><ele>19.0</ele><time>2026-04-06T13:28:33Z</time></trkpt><trkpt lat="43.467823102094044" lon="10.339270472249291"><ele>19.0</ele><time>2026-04-06T13:28:34Z</time></trkpt><trkpt lat="43.46791864840052" lon="10.33917158112812"><ele>19.0</ele><time>2026-04-06T13:28:35Z</time></trkpt><trkpt lat="43.46798714309369" lon="10.339041299662446"><ele>19.0</ele><time>2026-04-06T13:28:36Z</time></trkpt><trkpt lat="43.46806824420371" lon="10.338922802308415"><ele>19.0</ele><time>2026-04-06T13:28:37Z</time></trkpt><trkpt lat="43.46815812123571" lon="10.338789840827623"><ele>20.0</ele><time>2026-04-06T13:28:38Z</time></trkpt><trkpt lat="43.46825195918341" lon="10.338666274985844"><ele>21.0</ele><time>2026-04-06T13:28:39Z</time></trkpt><trkpt lat="43.468346519945044" lon="10.338475697572342"><ele>22.0</ele><time>2026-04-06T13:28:40Z</time></trkpt><trkpt lat="43.46843250194709" lon="10.338348867403315"><ele>23.0</ele><time>2026-04-06T13:28:41Z</time></trkpt><trkpt lat="43.46851353256562" lon="10.338221092433333"><ele>23.0</ele><time>2026-04-06T13:28:42Z</time></trkpt><trkpt lat="43.46859654169985" lon="10.338100242950151"><ele>23.0</ele><time>2026-04-06T13:28:43Z</time></trkpt><trkpt lat="43.46868410437769" lon="10.337969635750474"><ele>23.0</ele><time>2026-04-06T13:28:44Z</time></trkpt><trkpt lat="43.46878483103822" lon="10.33783295751252"><ele>23.0</ele><time>2026-04-06T13:28:45Z</time></trkpt><trkpt lat="43.46889232610609" lon="10.33769771310052"><ele>24.5</ele><time>2026-04-06T13:28:46Z</time></trkpt><trkpt lat="43.468997690616234" lon="10.337577145546486"><ele>26.0</ele><time>2026-04-06T13:28:47Z</time></trkpt><trkpt lat="43.46909967297006" lon="10.337453112491174"><ele>27.5</ele><time>2026-04-06T13:28:48Z</time></trkpt><trkpt lat="43.46919389240628" lon="10.337318437785937"><ele>29.0</ele><time>2026-04-06T13:28:49Z</time></trkpt><trkpt lat="43.46927026210663" lon="10.33717830806962"><ele>24.5</ele><time>2026-04-06T13:28:50Z</time></trkpt><trkpt lat="43.46932802126011" lon="10.337036089785084"><ele>20.0</ele><time>2026-04-06T13:28:51Z</time></trkpt><trkpt lat="43.46939156062334" lon="10.336899752058008"><ele>15.5</ele><time>2026-04-06T13:28:52Z</time></trkpt><trkpt lat="43.46946295070771" lon="10.336772519170255"><ele>11.0</ele><time>2026-04-06T13:28:53Z</time></trkpt><trkpt lat="43.46955226047605" lon="10.33664854957432"><ele>11.25</ele><time>2026-04-06T13:28:54Z</time></trkpt><trkpt lat="43.469646004289736" lon="10.336533548901624"><ele>11.5</ele><time>2026-04-06T13:28:55Z</time></trkpt><trkpt lat="43.469739413174835" lon="10.336423933719542"><ele>11.75</ele><time>2026-04-06T13:28:56Z</time></trkpt><trkpt lat="43.469835756204226" lon="10.33631672390867"><ele>12.0</ele><time>2026-04-06T13:28:57Z</time></trkpt><trkpt lat="43.469927785097575" lon="10.33621476443378"><ele>12.0</ele><time>2026-04-06T13:28:58Z</time></trkpt><trkpt lat="43.47003070385835" lon="10.336128396962096"><ele>12.0</ele><time>2026-04-06T13:28:59Z</time></trkpt><trkpt lat="43.47013833272645" lon="10.336059506103078"><ele>12.0</ele><time>2026-04-06T13:29:00Z</time></trkpt><trkpt lat="43.470255207868796" lon="10.335989538246128"><ele>12.0</ele><time>2026-04-06T13:29:01Z</time></trkpt><trkpt lat="43.47037331909269" lon="10.335922520298896"><ele>13.5</ele><time>2026-04-06T13:29:02Z</time></trkpt><trkpt lat="43.47048771828928" lon="10.335851290697166"><ele>15.0</ele><time>2026-04-06T13:29:03Z</time></trkpt><trkpt lat="43.470600985270494" lon="10.335767943952455"><ele>16.5</ele><time>2026-04-06T13:29:04Z</time></trkpt><trkpt lat="43.4707137239269" lon="10.335674631765617"><ele>18.0</ele><time>2026-04-06T13:29:05Z</time></trkpt><trkpt lat="43.470827378707845" lon="10.335567000912667"><ele>15.5</ele><time>2026-04-06T13:29:06Z</time></trkpt><trkpt lat="43.47093534250387" lon="10.335445896773678"><ele>13.0</ele><time>2026-04-06T13:29:07Z</time></trkpt><trkpt lat="43.47103401485596" lon="10.335318213847035"><ele>10.5</ele><time>2026-04-06T13:29:08Z</time></trkpt><trkpt lat="43.47112800859308" lon="10.335193133223624"><ele>8.0</ele><time>2026-04-06T13:29:09Z</time></trkpt><trkpt lat="43.47121810649934" lon="10.335063522656913"><ele>7.5</ele><time>2026-04-06T13:29:10Z</time></trkpt><trkpt lat="43.47131103072388" lon="10.334930786826092"><ele>7.0</ele><time>2026-04-06T13:29:11Z</time></trkpt><trkpt lat="43.471400507242556" lon="10.334800802699496"><ele>6.5</ele><time>2026-04-06T13:29:12Z</time></trkpt><trkpt lat="43.47149518766872" lon="10.33467883049772"><ele>6.0</ele><time>2026-04-06T13:29:13Z</time></trkpt><trkpt lat="43.47159366182559" lon="10.334552681857733"><ele>6.0</ele><time>2026-04-06T13:29:14Z</time></trkpt><trkpt lat="43.47169360131831" lon="10.334421608733338"><ele>6.0</ele><time>2026-04-06T13:29:15Z</time></trkpt><trkpt lat="43.4717878467843" lon="10.334296379040063"><ele>6.0</ele><time>2026-04-06T13:29:16Z</time></trkpt><trkpt lat="43.47187724731042" lon="10.334175403187599"><ele>6.0</ele><time>2026-04-06T13:29:17Z</time></trkpt><trkpt lat="43.47196370490671" lon="10.3340586307348"><ele>6.0</ele><time>2026-04-06T13:29:18Z</time></trkpt><trkpt lat="43.47204858081889" lon="10.333941875829133"><ele>6.0</ele><time>2026-04-06T13:29:19Z</time></trkpt><trkpt lat="43.4721371704852" lon="10.333826834360892"><ele>6.0</ele><time>2026-04-06T13:29:20Z</time></trkpt><trkpt lat="43.47222428255222" lon="10.333708144113709"><ele>6.0</ele><time>2026-04-06T13:29:21Z</time></trkpt><trkpt lat="43.47231060340003" lon="10.333586873898092"><ele>7.4</ele><time>2026-04-06T13:29:22Z</time></trkpt><trkpt lat="43.47239653122593" lon="10.333476825104475"><ele>8.8</ele><time>2026-04-06T13:29:23Z</time></trkpt><trkpt lat="43.47247715384127" lon="10.333365834362503"><ele>10.200000000000001</ele><time>2026-04-06T13:29:24Z</time></trkpt><trkpt lat="43.47255062958932" lon="10.333256789469257"><ele>11.6</ele><time>2026-04-06T13:29:25Z</time></trkpt><trkpt lat="43.47262088832774" lon="10.33315662419632"><ele>13.0</ele><time>2026-04-06T13:29:26Z</time></trkpt><trkpt lat="43.47269647240236" lon="10.333056499558474"><ele>12.0</ele><time>2026-04-06T13:29:27Z</time></trkpt><trkpt lat="43.47276597916437" lon="10.332938230081943"><ele>11.0</ele><time>2026-04-06T13:29:28Z</time></trkpt><trkpt lat="43.472822257388565" lon="10.332809796663613"><ele>10.0</ele><time>2026-04-06T13:29:29Z</time></trkpt><trkpt lat="43.47287326666367" lon="10.33268330040594"><ele>9.0</ele><time>2026-04-06T13:29:30Z</time></trkpt><trkpt lat="43.4729253558901" lon="10.33255583233099"><ele>8.0</ele><time>2026-04-06T13:29:31Z</time></trkpt><trkpt lat="43.472981986704205" lon="10.332432430065607"><ele>9.0</ele><time>2026-04-06T13:29:32Z</time></trkpt><trkpt lat="43.473040227635416" lon="10.332301977306583"><ele>10.0</ele><time>2026-04-06T13:29:33Z</time></trkpt><trkpt lat="43.47309938633444" lon="10.332178817014562"><ele>11.0</ele><time>2026-04-06T13:29:34Z</time></trkpt><trkpt lat="43.4731655412745" lon="10.332054050432951"><ele>12.0</ele><time>2026-04-06T13:29:35Z</time></trkpt><trkpt lat="43.47323304368343" lon="10.331937869806808"><ele>13.0</ele><time>2026-04-06T13:29:36Z</time></trkpt><trkpt lat="43.47331186976443" lon="10.331836965538537"><ele>13.0</ele><time>2026-04-06T13:29:37Z</time></trkpt><trkpt lat="43.47339903291298" lon="10.331747939965744"><ele>13.0</ele><time>2026-04-06T13:29:38Z</time></trkpt><trkpt lat="43.473492813139146" lon="10.331670635893854"><ele>13.0</ele><time>2026-04-06T13:29:39Z</time></trkpt><trkpt lat="43.47357920157601" lon="10.331597672933079"><ele>13.0</ele><time>2026-04-06T13:29:40Z</time></trkpt><trkpt lat="43.47366484529696" lon="10.331526073416281"><ele>13.0</ele><time>2026-04-06T13:29:41Z</time></trkpt><trkpt lat="43.47374889918552" lon="10.33145637875939"><ele>12.0</ele><time>2026-04-06T13:29:42Z</time></trkpt><trkpt lat="43.47384044613234" lon="10.331382031867259"><ele>11.0</ele><time>2026-04-06T13:29:43Z</time></trkpt><trkpt lat="43.47393107860778" lon="10.331306488052315"><ele>10.0</ele><time>2026-04-06T13:29:44Z</time></trkpt><trkpt lat="43.474019587351556" lon="10.331236824687956"><ele>9.0</ele><time>2026-04-06T13:29:45Z</time></trkpt><trkpt lat="43.47410932365815" lon="10.331175285652236"><ele>8.0</ele><time>2026-04-06T13:29:46Z</time></trkpt><trkpt lat="43.47420613176992" lon="10.331136832043079"><ele>8.0</ele><time>2026-04-06T13:29:47Z</time></trkpt><trkpt lat="43.47430692649872" lon="10.331124333703896"><ele>8.0</ele><time>2026-04-06T13:29:48Z</time></trkpt><trkpt lat="43.47441730244321" lon="10.331131882765684"><ele>8.0</ele><time>2026-04-06T13:29:49Z</time></trkpt><trkpt lat="43.474530831322255" lon="10.331147450690695"><ele>8.0</ele><time>2026-04-06T13:29:50Z</time></trkpt><trkpt lat="43.47463569630301" lon="10.331160947619392"><ele>8.0</ele><time>2026-04-06T13:29:51Z</time></trkpt><trkpt lat="43.47473673464205" lon="10.331172997676358"><ele>8.200000000000001</ele><time>2026-04-06T13:29:52Z</time></trkpt><trkpt lat="43.4748294118217" lon="10.331188073488757"><ele>8.4</ele><time>2026-04-06T13:29:53Z</time></trkpt><trkpt lat="43.47492867731788" lon="10.33120740790825"><ele>8.600000000000001</ele><time>2026-04-06T13:29:54Z</time></trkpt><trkpt lat="43.47503419031519" lon="10.331222496432499"><ele>8.8</ele><time>2026-04-06T13:29:55Z</time></trkpt><trkpt lat="43.475142751290385" lon="10.331230758081007"><ele>9.0</ele><time>2026-04-06T13:29:56Z</time></trkpt><trkpt lat="43.47525294588603" lon="10.331225510360115"><ele>9.0</ele><time>2026-04-06T13:29:57Z</time></trkpt><trkpt lat="43.47536307409904" lon="10.33119519162751"><ele>9.0</ele><time>2026-04-06T13:29:58Z</time></trkpt><trkpt lat="43.47547092023481" lon="10.331137420461607"><ele>9.0</ele><time>2026-04-06T13:29:59Z</time></trkpt><trkpt lat="43.47556381433102" lon="10.331048612538533"><ele>9.0</ele><time>2026-04-06T13:30:00Z</time></trkpt><trkpt lat="43.475646379761166" lon="10.330942916307746"><ele>8.2</ele><time>2026-04-06T13:30:01Z</time></trkpt><trkpt lat="43.47571848630508" lon="10.33084359277175"><ele>7.4</ele><time>2026-04-06T13:30:02Z</time></trkpt><trkpt lat="43.47578835015958" lon="10.33075178060895"><ele>6.6</ele><time>2026-04-06T13:30:03Z</time></trkpt><trkpt lat="43.47586497475663" lon="10.330669632648444"><ele>5.8</ele><time>2026-04-06T13:30:04Z</time></trkpt><trkpt lat="43.47595020788908" lon="10.330595351224925"><ele>5.0</ele><time>2026-04-06T13:30:05Z</time></trkpt><trkpt lat="43.47604595266054" lon="10.330524652247147"><ele>5.0</ele><time>2026-04-06T13:30:06Z</time></trkpt><trkpt lat="43.47613833473498" lon="10.330461282974937"><ele>5.0</ele><time>2026-04-06T13:30:07Z</time></trkpt><trkpt lat="43.476235094542396" lon="10.330413880589006"><ele>5.0</ele><time>2026-04-06T13:30:08Z</time></trkpt><trkpt lat="43.47633239112865" lon="10.330388218773672"><ele>5.0</ele><time>2026-04-06T13:30:09Z</time></trkpt><trkpt lat="43.47643719556385" lon="10.33038644284146"><ele>5.0</ele><time>2026-04-06T13:30:10Z</time></trkpt><trkpt lat="43.47654511632279" lon="10.330408926189236"><ele>5.5</ele><time>2026-04-06T13:30:11Z</time></trkpt><trkpt lat="43.47665739578266" lon="10.330454383339244"><ele>6.0</ele><time>2026-04-06T13:30:12Z</time></trkpt><trkpt lat="43.476772466456204" lon="10.330512248666095"><ele>6.5</ele><time>2026-04-06T13:30:13Z</time></trkpt><trkpt lat="43.47689101277737" lon="10.330568773628148"><ele>7.0</ele><time>2026-04-06T13:30:14Z</time></trkpt><trkpt lat="43.4770071777675" lon="10.330630314227045"><ele>7.75</ele><time>2026-04-06T13:30:15Z</time></trkpt><trkpt lat="43.47711855334623" lon="10.330696552626392"><ele>8.5</ele><time>2026-04-06T13:30:16Z</time></trkpt><trkpt lat="43.47722980819479" lon="10.33076657641081"><ele>9.25</ele><time>2026-04-06T13:30:17Z</time></trkpt><trkpt lat="43.47733892896891" lon="10.330837414901984"><ele>10.0</ele><time>2026-04-06T13:30:18Z</time></trkpt><trkpt lat="43.477438835158644" lon="10.33092354317448"><ele>10.0</ele><time>2026-04-06T13:30:19Z</time></trkpt><trkpt lat="43.47753697441487" lon="10.331019412948127"><ele>10.0</ele><time>2026-04-06T13:30:20Z</time></trkpt><trkpt lat="43.477632745933526" lon="10.331123690593161"><ele>10.0</ele><time>2026-04-06T13:30:21Z</time></trkpt><trkpt lat="43.477724918990205" lon="10.331232073312865"><ele>10.0</ele><time>2026-04-06T13:30:22Z</time></trkpt><trkpt lat="43.47782156513369" lon="10.331343611133494"><ele>9.5</ele><time>2026-04-06T13:30:23Z</time></trkpt><trkpt lat="43.47791526754392" lon="10.331454270495506"><ele>9.0</ele><time>2026-04-06T13:30:24Z</time></trkpt><trkpt lat="43.47799576704927" lon="10.331567658409746"><ele>8.5</ele><time>2026-04-06T13:30:25Z</time></trkpt><trkpt lat="43.47808623227937" lon="10.331678795650195"><ele>8.0</ele><time>2026-04-06T13:30:26Z</time></trkpt><trkpt lat="43.47817336702278" lon="10.331796399383075"><ele>8.0</ele><time>2026-04-06T13:30:27Z</time></trkpt><trkpt lat="43.47825662245881" lon="10.33191880266002"><ele>8.0</ele><time>2026-04-06T13:30:28Z</time></trkpt><trkpt lat="43.47833482677356" lon="10.332050259281617"><ele>8.0</ele><time>2026-04-06T13:30:29Z</time></trkpt><trkpt lat="43.47840711065847" lon="10.332190374096438"><ele>8.0</ele><time>2026-04-06T13:30:30Z</time></trkpt><trkpt lat="43.4784801751019" lon="10.332334263742746"><ele>8.25</ele><time>2026-04-06T13:30:31Z</time></trkpt><trkpt lat="43.478550085002716" lon="10.332473423296939"><ele>8.5</ele><time>2026-04-06T13:30:32Z</time></trkpt><trkpt lat="43.4786232092576" lon="10.332603491274162"><ele>8.75</ele><time>2026-04-06T13:30:33Z</time></trkpt><trkpt lat="43.47870659152397" lon="10.332721637422821"><ele>9.0</ele><time>2026-04-06T13:30:34Z</time></trkpt><trkpt lat="43.47880390916152" lon="10.33282505402229"><ele>9.0</ele><time>2026-04-06T13:30:35Z</time></trkpt><trkpt lat="43.4789109531356" lon="10.332913942864812"><ele>9.0</ele><time>2026-04-06T13:30:36Z</time></trkpt><trkpt lat="43.47902381202104" lon="10.332995604784411"><ele>9.0</ele><time>2026-04-06T13:30:37Z</time></trkpt><trkpt lat="43.47914059853501" lon="10.333073440870322"><ele>9.0</ele><time>2026-04-06T13:30:38Z</time></trkpt><trkpt lat="43.47924951198925" lon="10.333140373382843"><ele>10.25</ele><time>2026-04-06T13:30:39Z</time></trkpt><trkpt lat="43.479360249229785" lon="10.33319774766596"><ele>11.5</ele><time>2026-04-06T13:30:40Z</time></trkpt><trkpt lat="43.4794665890626" lon="10.333254080317309"><ele>12.75</ele><time>2026-04-06T13:30:41Z</time></trkpt><trkpt lat="43.4795745005481" lon="10.333307186478958"><ele>14.0</ele><time>2026-04-06T13:30:42Z</time></trkpt><trkpt lat="43.479687491975824" lon="10.333352787470726"><ele>14.0</ele><time>2026-04-06T13:30:43Z</time></trkpt><trkpt lat="43.47979945136376" lon="10.333389045715201"><ele>13.999999999999998</ele><time>2026-04-06T13:30:44Z</time></trkpt><trkpt lat="43.47989784450594" lon="10.333419932898144"><ele>13.999999999999998</ele><time>2026-04-06T13:30:45Z</time></trkpt><trkpt lat="43.479987256345744" lon="10.333452226157869"><ele>14.0</ele><time>2026-04-06T13:30:46Z</time></trkpt><trkpt lat="43.48007534677697" lon="10.33350154283677"><ele>14.0</ele><time>2026-04-06T13:30:47Z</time></trkpt><trkpt lat="43.48015593979092" lon="10.333576526727585"><ele>14.0</ele><time>2026-04-06T13:30:48Z</time></trkpt><trkpt lat="43.480218388482825" lon="10.333674015319344"><ele>13.999999999999998</ele><time>2026-04-06T13:30:49Z</time></trkpt><trkpt lat="43.48026176031132" lon="10.333798347872573"><ele>13.999999999999998</ele><time>2026-04-06T13:30:50Z</time></trkpt><trkpt lat="43.48028645391274" lon="10.333946230444203"><ele>14.0</ele><time>2026-04-06T13:30:51Z</time></trkpt><trkpt lat="43.4802959190503" lon="10.334106624037783"><ele>14.0</ele><time>2026-04-06T13:30:52Z</time></trkpt><trkpt lat="43.480312145776274" lon="10.334267801281143"><ele>14.6</ele><time>2026-04-06T13:30:53Z</time></trkpt><trkpt lat="43.480350562211775" lon="10.334420767426968"><ele>15.2</ele><time>2026-04-06T13:30:54Z</time></trkpt><trkpt lat="43.480423797058336" lon="10.334555282292184"><ele>15.799999999999999</ele><time>2026-04-06T13:30:55Z</time></trkpt><trkpt lat="43.48049825576638" lon="10.334644356353534"><ele>16.4</ele><time>2026-04-06T13:30:56Z</time></trkpt><trkpt lat="43.48058444928932" lon="10.334697040922325"><ele>17.0</ele><time>2026-04-06T13:30:57Z</time></trkpt><trkpt lat="43.48067562617685" lon="10.334711561695945"><ele>17.2</ele><time>2026-04-06T13:30:58Z</time></trkpt><trkpt lat="43.48076729672902" lon="10.334694534407445"><ele>17.4</ele><time>2026-04-06T13:30:59Z</time></trkpt><trkpt lat="43.48086251939373" lon="10.334655577670198"><ele>17.6</ele><time>2026-04-06T13:31:00Z</time></trkpt><trkpt lat="43.48095900508085" lon="10.334623951407314"><ele>17.8</ele><time>2026-04-06T13:31:01Z</time></trkpt><trkpt lat="43.48106056505891" lon="10.334588673663657"><ele>18.0</ele><time>2026-04-06T13:31:02Z</time></trkpt><trkpt lat="43.48117265305098" lon="10.334559186752234"><ele>18.25</ele><time>2026-04-06T13:31:03Z</time></trkpt><trkpt lat="43.481297056335464" lon="10.334534936793068"><ele>18.5</ele><time>2026-04-06T13:31:04Z</time></trkpt><trkpt lat="43.48143381605578" lon="10.334517414726925"><ele>18.75</ele><time>2026-04-06T13:31:05Z</time></trkpt><trkpt lat="43.48157763833671" lon="10.33450252137438"><ele>19.0</ele><time>2026-04-06T13:31:06Z</time></trkpt><trkpt lat="43.48171649510728" lon="10.334498927658602"><ele>19.0</ele><time>2026-04-06T13:31:07Z</time></trkpt><trkpt lat="43.481848699733945" lon="10.334494819644023"><ele>19.0</ele><time>2026-04-06T13:31:08Z</time></trkpt><trkpt lat="43.48198038684046" lon="10.334488826310428"><ele>19.0</ele><time>2026-04-06T13:31:09Z</time></trkpt><trkpt lat="43.48210904233517" lon="10.33447273557359"><ele>19.0</ele><time>2026-04-06T13:31:10Z</time></trkpt><trkpt lat="43.48225408073488" lon="10.334452415824167"><ele>19.666666666666664</ele><time>2026-04-06T13:31:11Z</time></trkpt><trkpt lat="43.48240662601508" lon="10.33442556025696"><ele>20.333333333333332</ele><time>2026-04-06T13:31:12Z</time></trkpt><trkpt lat="43.48256059441333" lon="10.334392603805963"><ele>21.0</ele><time>2026-04-06T13:31:13Z</time></trkpt><trkpt lat="43.48270142936344" lon="10.334358601375973"><ele>21.0</ele><time>2026-04-06T13:31:14Z</time></trkpt><trkpt lat="43.48282554110169" lon="10.334322629734462"><ele>21.0</ele><time>2026-04-06T13:31:15Z</time></trkpt><trkpt lat="43.482938089545634" lon="10.334286873691159"><ele>21.0</ele><time>2026-04-06T13:31:16Z</time></trkpt><trkpt lat="43.48305026642484" lon="10.334255176200273"><ele>21.0</ele><time>2026-04-06T13:31:17Z</time></trkpt><trkpt lat="43.48316572622351" lon="10.334219842856093"><ele>21.4</ele><time>2026-04-06T13:31:18Z</time></trkpt><trkpt lat="43.483271260650035" lon="10.334180054641488"><ele>21.8</ele><time>2026-04-06T13:31:19Z</time></trkpt><trkpt lat="43.483368015668766" lon="10.334133069885556"><ele>22.2</ele><time>2026-04-06T13:31:20Z</time></trkpt><trkpt lat="43.48345965455153" lon="10.33407236063008"><ele>22.599999999999998</ele><time>2026-04-06T13:31:21Z</time></trkpt><trkpt lat="43.483528132121165" lon="10.333983543318551"><ele>23.0</ele><time>2026-04-06T13:31:22Z</time></trkpt><trkpt lat="43.483570163456655" lon="10.33386687388736"><ele>21.75</ele><time>2026-04-06T13:31:23Z</time></trkpt><trkpt lat="43.48360231026419" lon="10.333748522022255"><ele>20.5</ele><time>2026-04-06T13:31:24Z</time></trkpt><trkpt lat="43.48361293657527" lon="10.333596430980714"><ele>19.25</ele><time>2026-04-06T13:31:25Z</time></trkpt><trkpt lat="43.483624860059166" lon="10.333430050652153"><ele>18.0</ele><time>2026-04-06T13:31:26Z</time></trkpt><trkpt lat="43.483655986989355" lon="10.333245622041797"><ele>17.25</ele><time>2026-04-06T13:31:27Z</time></trkpt><trkpt lat="43.48369055454133" lon="10.33305268131793"><ele>16.5</ele><time>2026-04-06T13:31:28Z</time></trkpt><trkpt lat="43.483723490569204" lon="10.332875162549499"><ele>15.75</ele><time>2026-04-06T13:31:29Z</time></trkpt><trkpt lat="43.48375750186685" lon="10.332720356475745"><ele>15.0</ele><time>2026-04-06T13:31:30Z</time></trkpt><trkpt lat="43.483806226380906" lon="10.33259771323105"><ele>15.0</ele><time>2026-04-06T13:31:31Z</time></trkpt><trkpt lat="43.48386835111318" lon="10.332492115162188"><ele>15.0</ele><time>2026-04-06T13:31:32Z</time></trkpt><trkpt lat="43.483947821398154" lon="10.332390738835855"><ele>15.0</ele><time>2026-04-06T13:31:33Z</time></trkpt><trkpt lat="43.48404688055212" lon="10.332301423019619"><ele>15.0</ele><time>2026-04-06T13:31:34Z</time></trkpt><trkpt lat="43.48416593528843" lon="10.33221789365163"><ele>16.0</ele><time>2026-04-06T13:31:35Z</time></trkpt><trkpt lat="43.4842992955848" lon="10.332140071531702"><ele>17.0</ele><time>2026-04-06T13:31:36Z</time></trkpt><trkpt lat="43.48444835853314" lon="10.332063406210507"><ele>18.0</ele><time>2026-04-06T13:31:37Z</time></trkpt><trkpt lat="43.48461146094129" lon="10.331979169854483"><ele>18.0</ele><time>2026-04-06T13:31:38Z</time></trkpt><trkpt lat="43.484781341740714" lon="10.331885355412503"><ele>18.0</ele><time>2026-04-06T13:31:39Z</time></trkpt><trkpt lat="43.484938835773356" lon="10.331799574217818"><ele>18.0</ele><time>2026-04-06T13:31:40Z</time></trkpt><trkpt lat="43.48509061458843" lon="10.331719332943727"><ele>18.0</ele><time>2026-04-06T13:31:41Z</time></trkpt><trkpt lat="43.485231819586225" lon="10.331637790175465"><ele>18.0</ele><time>2026-04-06T13:31:42Z</time></trkpt><trkpt lat="43.485363006066066" lon="10.331567622424357"><ele>18.0</ele><time>2026-04-06T13:31:43Z</time></trkpt><trkpt lat="43.485493540002444" lon="10.331493967098627"><ele>18.0</ele><time>2026-04-06T13:31:44Z</time></trkpt><trkpt lat="43.485624956467525" lon="10.331423799209093"><ele>17.75</ele><time>2026-04-06T13:31:45Z</time></trkpt><trkpt lat="43.485757797371214" lon="10.331357089428497"><ele>17.5</ele><time>2026-04-06T13:31:46Z</time></trkpt><trkpt lat="43.48588792815712" lon="10.331284510632189"><ele>17.25</ele><time>2026-04-06T13:31:47Z</time></trkpt><trkpt lat="43.48601866847824" lon="10.331216367350374"><ele>17.0</ele><time>2026-04-06T13:31:48Z</time></trkpt><trkpt lat="43.486144962510544" lon="10.3311465575759"><ele>17.5</ele><time>2026-04-06T13:31:49Z</time></trkpt><trkpt lat="43.48627359451905" lon="10.33107408843205"><ele>18.0</ele><time>2026-04-06T13:31:50Z</time></trkpt><trkpt lat="43.4864026584234" lon="10.331004896181195"><ele>18.5</ele><time>2026-04-06T13:31:51Z</time></trkpt><trkpt lat="43.486534474067" lon="10.33093329148754"><ele>19.0</ele><time>2026-04-06T13:31:52Z</time></trkpt><trkpt lat="43.48666557103124" lon="10.330863734491892"><ele>19.0</ele><time>2026-04-06T13:31:53Z</time></trkpt><trkpt lat="43.48679595396034" lon="10.330798369985137"><ele>19.0</ele><time>2026-04-06T13:31:54Z</time></trkpt><trkpt lat="43.4869161014369" lon="10.330736781082008"><ele>19.0</ele><time>2026-04-06T13:31:55Z</time></trkpt><trkpt lat="43.48703500314509" lon="10.330672403978886"><ele>19.0</ele><time>2026-04-06T13:31:56Z</time></trkpt><trkpt lat="43.48715603997051" lon="10.330608636100692"><ele>18.0</ele><time>2026-04-06T13:31:57Z</time></trkpt><trkpt lat="43.487278145695186" lon="10.330540321146604"><ele>17.0</ele><time>2026-04-06T13:31:58Z</time></trkpt><trkpt lat="43.48740434638063" lon="10.330468394014936"><ele>16.0</ele><time>2026-04-06T13:31:59Z</time></trkpt><trkpt lat="43.48753463007745" lon="10.330395976713564"><ele>15.0</ele><time>2026-04-06T13:32:00Z</time></trkpt><trkpt lat="43.48766139616724" lon="10.330329361705058"><ele>15.0</ele><time>2026-04-06T13:32:01Z</time></trkpt><trkpt lat="43.48777745233838" lon="10.330268987870777"><ele>15.0</ele><time>2026-04-06T13:32:02Z</time></trkpt><trkpt lat="43.48789268038221" lon="10.330208279637072"><ele>15.0</ele><time>2026-04-06T13:32:03Z</time></trkpt><trkpt lat="43.48800097247073" lon="10.33014580215897"><ele>15.0</ele><time>2026-04-06T13:32:04Z</time></trkpt><trkpt lat="43.48811862041098" lon="10.330079147431487"><ele>15.75</ele><time>2026-04-06T13:32:05Z</time></trkpt><trkpt lat="43.48823946985994" lon="10.330007464419273"><ele>16.5</ele><time>2026-04-06T13:32:06Z</time></trkpt><trkpt lat="43.48836605518278" lon="10.329943162890208"><ele>17.25</ele><time>2026-04-06T13:32:07Z</time></trkpt><trkpt lat="43.488481291359385" lon="10.329885060605076"><ele>18.0</ele><time>2026-04-06T13:32:08Z</time></trkpt><trkpt lat="43.48860332455248" lon="10.329820024015211"><ele>18.0</ele><time>2026-04-06T13:32:09Z</time></trkpt><trkpt lat="43.4887271724323" lon="10.329750951859443"><ele>18.0</ele><time>2026-04-06T13:32:10Z</time></trkpt><trkpt lat="43.488850945982925" lon="10.329682842129317"><ele>18.0</ele><time>2026-04-06T13:32:11Z</time></trkpt><trkpt lat="43.48897767927242" lon="10.329610283627442"><ele>18.0</ele><time>2026-04-06T13:32:12Z</time></trkpt><trkpt lat="43.4891060865893" lon="10.329538799347716"><ele>18.5</ele><time>2026-04-06T13:32:13Z</time></trkpt><trkpt lat="43.48923203369077" lon="10.329471995898125"><ele>19.0</ele><time>2026-04-06T13:32:14Z</time></trkpt><trkpt lat="43.4893617297046" lon="10.329402702865341"><ele>19.5</ele><time>2026-04-06T13:32:15Z</time></trkpt><trkpt lat="43.489497498577364" lon="10.329330944106758"><ele>20.0</ele><time>2026-04-06T13:32:16Z</time></trkpt><trkpt lat="43.489630535026926" lon="10.329250642050175"><ele>20.0</ele><time>2026-04-06T13:32:17Z</time></trkpt><trkpt lat="43.48976473303164" lon="10.329173860361156"><ele>20.0</ele><time>2026-04-06T13:32:18Z</time></trkpt><trkpt lat="43.48989257056987" lon="10.329107887623437"><ele>20.0</ele><time>2026-04-06T13:32:19Z</time></trkpt><trkpt lat="43.49001121607891" lon="10.32904411124399"><ele>20.0</ele><time>2026-04-06T13:32:20Z</time></trkpt><trkpt lat="43.49012543399347" lon="10.32898258861373"><ele>20.0</ele><time>2026-04-06T13:32:21Z</time></trkpt><trkpt lat="43.49023356312666" lon="10.328919386580855"><ele>20.0</ele><time>2026-04-06T13:32:22Z</time></trkpt><trkpt lat="43.490342833007375" lon="10.328860122088637"><ele>20.0</ele><time>2026-04-06T13:32:23Z</time></trkpt><trkpt lat="43.490444521717265" lon="10.32880161894983"><ele>20.0</ele><time>2026-04-06T13:32:24Z</time></trkpt><trkpt lat="43.490549691465596" lon="10.328742791848416"><ele>19.75</ele><time>2026-04-06T13:32:25Z</time></trkpt><trkpt lat="43.490665695509044" lon="10.328684282663009"><ele>19.5</ele><time>2026-04-06T13:32:26Z</time></trkpt><trkpt lat="43.490787001174006" lon="10.32862185256622"><ele>19.25</ele><time>2026-04-06T13:32:27Z</time></trkpt><trkpt lat="43.490911674631185" lon="10.328552811778735"><ele>19.0</ele><time>2026-04-06T13:32:28Z</time></trkpt><trkpt lat="43.49102970301699" lon="10.328487037020107"><ele>19.0</ele><time>2026-04-06T13:32:29Z</time></trkpt><trkpt lat="43.49114199994992" lon="10.328424342535843"><ele>19.0</ele><time>2026-04-06T13:32:30Z</time></trkpt><trkpt lat="43.49125411120215" lon="10.328359591746443"><ele>19.0</ele><time>2026-04-06T13:32:31Z</time></trkpt><trkpt lat="43.49136055398078" lon="10.328303926939581"><ele>19.0</ele><time>2026-04-06T13:32:32Z</time></trkpt><trkpt lat="43.49146531782029" lon="10.328248264496828"><ele>19.0</ele><time>2026-04-06T13:32:33Z</time></trkpt><trkpt lat="43.49156720534192" lon="10.328194088860267"><ele>19.0</ele><time>2026-04-06T13:32:34Z</time></trkpt><trkpt lat="43.49167041669874" lon="10.328139285943369"><ele>19.0</ele><time>2026-04-06T13:32:35Z</time></trkpt><trkpt lat="43.491775371606316" lon="10.328076471805021"><ele>19.0</ele><time>2026-04-06T13:32:36Z</time></trkpt><trkpt lat="43.49188196022451" lon="10.328015273316073"><ele>19.0</ele><time>2026-04-06T13:32:37Z</time></trkpt><trkpt lat="43.49199036044019" lon="10.327955075824095"><ele>19.0</ele><time>2026-04-06T13:32:38Z</time></trkpt><trkpt lat="43.49210755200632" lon="10.327891486669293"><ele>19.0</ele><time>2026-04-06T13:32:39Z</time></trkpt><trkpt lat="43.492223399383455" lon="10.32782549555545"><ele>19.0</ele><time>2026-04-06T13:32:40Z</time></trkpt><trkpt lat="43.492341182535434" lon="10.327758320119608"><ele>19.0</ele><time>2026-04-06T13:32:41Z</time></trkpt><trkpt lat="43.49246055869154" lon="10.327690030624536"><ele>19.0</ele><time>2026-04-06T13:32:42Z</time></trkpt><trkpt lat="43.49258375535642" lon="10.32761811962329"><ele>19.0</ele><time>2026-04-06T13:32:43Z</time></trkpt><trkpt lat="43.49271611547286" lon="10.327547293269904"><ele>19.0</ele><time>2026-04-06T13:32:44Z</time></trkpt><trkpt lat="43.49285076743772" lon="10.327480292465987"><ele>19.0</ele><time>2026-04-06T13:32:45Z</time></trkpt><trkpt lat="43.492973940755945" lon="10.327413524189165"><ele>19.0</ele><time>2026-04-06T13:32:46Z</time></trkpt><trkpt lat="43.493093162951084" lon="10.327349634668714"><ele>19.0</ele><time>2026-04-06T13:32:47Z</time></trkpt><trkpt lat="43.49321792421371" lon="10.327280625479132"><ele>19.0</ele><time>2026-04-06T13:32:48Z</time></trkpt><trkpt lat="43.49333497181525" lon="10.327215842167556"><ele>19.0</ele><time>2026-04-06T13:32:49Z</time></trkpt><trkpt lat="43.49344760387332" lon="10.327153550310042"><ele>19.0</ele><time>2026-04-06T13:32:50Z</time></trkpt><trkpt lat="43.493559691881664" lon="10.327090558591072"><ele>19.0</ele><time>2026-04-06T13:32:51Z</time></trkpt><trkpt lat="43.49367648735385" lon="10.32702698642004"><ele>19.0</ele><time>2026-04-06T13:32:52Z</time></trkpt><trkpt lat="43.49379751074212" lon="10.326960113451142"><ele>19.0</ele><time>2026-04-06T13:32:53Z</time></trkpt><trkpt lat="43.49391353305521" lon="10.32689250863347"><ele>19.0</ele><time>2026-04-06T13:32:54Z</time></trkpt><trkpt lat="43.49402800620599" lon="10.326826155534233"><ele>19.0</ele><time>2026-04-06T13:32:55Z</time></trkpt><trkpt lat="43.49413772856685" lon="10.326765935531927"><ele>19.0</ele><time>2026-04-06T13:32:56Z</time></trkpt><trkpt lat="43.494241704487806" lon="10.32670695742567"><ele>19.0</ele><time>2026-04-06T13:32:57Z</time></trkpt><trkpt lat="43.494343779549745" lon="10.326655606591366"><ele>19.0</ele><time>2026-04-06T13:32:58Z</time></trkpt><trkpt lat="43.494437744368604" lon="10.326606631733084"><ele>19.0</ele><time>2026-04-06T13:32:59Z</time></trkpt><trkpt lat="43.49453010575916" lon="10.32655430995694"><ele>19.0</ele><time>2026-04-06T13:33:00Z</time></trkpt><trkpt lat="43.49461826308744" lon="10.326505627872605"><ele>19.0</ele><time>2026-04-06T13:33:01Z</time></trkpt><trkpt lat="43.494699558100244" lon="10.326458552304027"><ele>18.833333333333332</ele><time>2026-04-06T13:33:02Z</time></trkpt><trkpt lat="43.49477946512157" lon="10.326412716869184"><ele>18.666666666666664</ele><time>2026-04-06T13:33:03Z</time></trkpt><trkpt lat="43.49486325950331" lon="10.326369515913731"><ele>18.5</ele><time>2026-04-06T13:33:04Z</time></trkpt><trkpt lat="43.494944218078196" lon="10.326326818025562"><ele>18.333333333333332</ele><time>2026-04-06T13:33:05Z</time></trkpt><trkpt lat="43.49501946924162" lon="10.326285595565798"><ele>18.166666666666668</ele><time>2026-04-06T13:33:06Z</time></trkpt><trkpt lat="43.49509157262293" lon="10.32624616616885"><ele>18.0</ele><time>2026-04-06T13:33:07Z</time></trkpt><trkpt lat="43.49516189232321" lon="10.326206969174645"><ele>17.833333333333332</ele><time>2026-04-06T13:33:08Z</time></trkpt><trkpt lat="43.49523708451439" lon="10.326166524044082"><ele>17.666666666666668</ele><time>2026-04-06T13:33:09Z</time></trkpt><trkpt lat="43.49531082566526" lon="10.32612106647709"><ele>17.5</ele><time>2026-04-06T13:33:10Z</time></trkpt><trkpt lat="43.495383604425164" lon="10.326079459193236"><ele>17.333333333333336</ele><time>2026-04-06T13:33:11Z</time></trkpt><trkpt lat="43.49545249308602" lon="10.326038809658304"><ele>17.166666666666668</ele><time>2026-04-06T13:33:12Z</time></trkpt><trkpt lat="43.49551954861704" lon="10.326003653610917"><ele>17.0</ele><time>2026-04-06T13:33:13Z</time></trkpt><trkpt lat="43.49558674585208" lon="10.325968477676515"><ele>17.0</ele><time>2026-04-06T13:33:14Z</time></trkpt><trkpt lat="43.49564779978526" lon="10.325935688800605"><ele>17.0</ele><time>2026-04-06T13:33:15Z</time></trkpt><trkpt lat="43.49575581070368" lon="10.325878833225381"><ele>17.0</ele><time>2026-04-06T13:33:17Z</time></trkpt><trkpt lat="43.49585101636964" lon="10.325828444970423"><ele>17.0</ele><time>2026-04-06T13:33:19Z</time></trkpt><trkpt lat="43.49594685861566" lon="10.325782867649064"><ele>17.0</ele><time>2026-04-06T13:33:21Z</time></trkpt><trkpt lat="43.49603156340871" lon="10.325731453566291"><ele>17.0</ele><time>2026-04-06T13:33:23Z</time></trkpt><trkpt lat="43.49611685499322" lon="10.325688274738352"><ele>17.0</ele><time>2026-04-06T13:33:25Z</time></trkpt><trkpt lat="43.4961922694434" lon="10.325638947951923"><ele>17.0</ele><time>2026-04-06T13:33:27Z</time></trkpt><trkpt lat="43.496273689862285" lon="10.32559131580089"><ele>17.0</ele><time>2026-04-06T13:33:29Z</time></trkpt><trkpt lat="43.496346502267684" lon="10.325542082357371"><ele>17.0</ele><time>2026-04-06T13:33:31Z</time></trkpt><trkpt lat="43.49641226109812" lon="10.325505458613383"><ele>17.0</ele><time>2026-04-06T13:33:33Z</time></trkpt><trkpt lat="43.496482540433135" lon="10.325469598923348"><ele>17.142857142857142</ele><time>2026-04-06T13:33:35Z</time></trkpt><trkpt lat="43.49655286483245" lon="10.325435184216706"><ele>17.285714285714285</ele><time>2026-04-06T13:33:37Z</time></trkpt><trkpt lat="43.49661504713638" lon="10.325401472832677"><ele>17.42857142857143</ele><time>2026-04-06T13:33:39Z</time></trkpt><trkpt lat="43.4966762069328" lon="10.325366158047201"><ele>17.57142857142857</ele><time>2026-04-06T13:33:41Z</time></trkpt><trkpt lat="43.496750596628274" lon="10.325328246907029"><ele>17.714285714285715</ele><time>2026-04-06T13:33:43Z</time></trkpt><trkpt lat="43.49681156167143" lon="10.325294351195563"><ele>17.857142857142858</ele><time>2026-04-06T13:33:45Z</time></trkpt><trkpt lat="43.49687775223861" lon="10.325268769967863"><ele>18.0</ele><time>2026-04-06T13:33:47Z</time></trkpt><trkpt lat="43.496965803314794" lon="10.32523684270566"><ele>18.0</ele><time>2026-04-06T13:33:49Z</time></trkpt><trkpt lat="43.49709621440346" lon="10.325223193219536"><ele>18.0</ele><time>2026-04-06T13:33:51Z</time></trkpt><trkpt lat="43.49719032825262" lon="10.3251955805817"><ele>18.0</ele><time>2026-04-06T13:33:52Z</time></trkpt><trkpt lat="43.49729082695443" lon="10.325194373369753"><ele>18.0</ele><time>2026-04-06T13:33:53Z</time></trkpt><trkpt lat="43.49741382740257" lon="10.325193045964735"><ele>18.0</ele><time>2026-04-06T13:33:54Z</time></trkpt><trkpt lat="43.49754025754095" lon="10.325214876293249"><ele>18.0</ele><time>2026-04-06T13:33:55Z</time></trkpt><trkpt lat="43.49764610850643" lon="10.32520736218596"><ele>18.0</ele><time>2026-04-06T13:33:56Z</time></trkpt><trkpt lat="43.49772584800738" lon="10.325218860563599"><ele>18.0</ele><time>2026-04-06T13:33:57Z</time></trkpt><trkpt lat="43.497793439517096" lon="10.32522958872094"><ele>18.0</ele><time>2026-04-06T13:33:58Z</time></trkpt><trkpt lat="43.497861494811545" lon="10.32526100304269"><ele>17.666666666666668</ele><time>2026-04-06T13:34:00Z</time></trkpt><trkpt lat="43.497935739501116" lon="10.325256060533265"><ele>17.333333333333332</ele><time>2026-04-06T13:36:10Z</time></trkpt><trkpt lat="43.49800598894908" lon="10.325245466911474"><ele>17.0</ele><time>2026-04-06T13:36:13Z</time></trkpt><trkpt lat="43.49810371016011" lon="10.325256597137159"><ele>16.666666666666664</ele><time>2026-04-06T13:36:15Z</time></trkpt><trkpt lat="43.49822511044871" lon="10.325266481902469"><ele>16.333333333333332</ele><time>2026-04-06T13:36:17Z</time></trkpt><trkpt lat="43.49830225045697" lon="10.325273038339144"><ele>16.0</ele><time>2026-04-06T13:36:18Z</time></trkpt><trkpt lat="43.498387397502924" lon="10.325280909377744"><ele>16.0</ele><time>2026-04-06T13:36:19Z</time></trkpt><trkpt lat="43.49847827891592" lon="10.325289310514725"><ele>16.0</ele><time>2026-04-06T13:36:20Z</time></trkpt><trkpt lat="43.49858160519753" lon="10.325298093496352"><ele>16.0</ele><time>2026-04-06T13:36:21Z</time></trkpt><trkpt lat="43.498686597070964" lon="10.325306691514065"><ele>16.0</ele><time>2026-04-06T13:36:22Z</time></trkpt><trkpt lat="43.498815124339984" lon="10.32529544683535"><ele>16.0</ele><time>2026-04-06T13:36:23Z</time></trkpt><trkpt lat="43.49892411100321" lon="10.325328223111814"><ele>15.25</ele><time>2026-04-06T13:36:24Z</time></trkpt><trkpt lat="43.49905314376631" lon="10.325337303024234"><ele>14.5</ele><time>2026-04-06T13:36:25Z</time></trkpt><trkpt lat="43.49917217429822" lon="10.32534565536782"><ele>13.75</ele><time>2026-04-06T13:36:26Z</time></trkpt><trkpt lat="43.49929557371892" lon="10.325352467591728"><ele>13.0</ele><time>2026-04-06T13:36:27Z</time></trkpt><trkpt lat="43.49941705505903" lon="10.325336442476315"><ele>13.0</ele><time>2026-04-06T13:36:28Z</time></trkpt><trkpt lat="43.49954327752681" lon="10.32534854639753"><ele>13.0</ele><time>2026-04-06T13:36:29Z</time></trkpt><trkpt lat="43.49967089028039" lon="10.32535113515641"><ele>13.0</ele><time>2026-04-06T13:36:30Z</time></trkpt><trkpt lat="43.49979041926882" lon="10.32535256189615"><ele>13.0</ele><time>2026-04-06T13:36:31Z</time></trkpt><trkpt lat="43.49990285278314" lon="10.325358751509976"><ele>14.0</ele><time>2026-04-06T13:36:32Z</time></trkpt><trkpt lat="43.50001144670027" lon="10.325382674526521"><ele>15.0</ele><time>2026-04-06T13:36:33Z</time></trkpt><trkpt lat="43.50012384755866" lon="10.325425036904393"><ele>16.0</ele><time>2026-04-06T13:36:34Z</time></trkpt><trkpt lat="43.50023523584417" lon="10.325513101671307"><ele>17.0</ele><time>2026-04-06T13:36:35Z</time></trkpt><trkpt lat="43.50036760560933" lon="10.325601546053356"><ele>17.5</ele><time>2026-04-06T13:36:36Z</time></trkpt><trkpt lat="43.50049244965441" lon="10.325684961824381"><ele>18.0</ele><time>2026-04-06T13:36:37Z</time></trkpt><trkpt lat="43.50060846000113" lon="10.325763189772783"><ele>18.5</ele><time>2026-04-06T13:36:38Z</time></trkpt><trkpt lat="43.50072081943562" lon="10.325841046221104"><ele>19.0</ele><time>2026-04-06T13:36:39Z</time></trkpt><trkpt lat="43.500838432350236" lon="10.325901468098701"><ele>19.0</ele><time>2026-04-06T13:36:40Z</time></trkpt><trkpt lat="43.500937613701254" lon="10.326003844323942"><ele>19.0</ele><time>2026-04-06T13:36:41Z</time></trkpt><trkpt lat="43.50104639964518" lon="10.32609361233456"><ele>19.0</ele><time>2026-04-06T13:36:42Z</time></trkpt><trkpt lat="43.50115316576062" lon="10.326180395084535"><ele>19.0</ele><time>2026-04-06T13:36:43Z</time></trkpt><trkpt lat="43.50126247771882" lon="10.326269760346237"><ele>19.0</ele><time>2026-04-06T13:36:44Z</time></trkpt><trkpt lat="43.501366472912046" lon="10.326364343737218"><ele>19.0</ele><time>2026-04-06T13:36:45Z</time></trkpt><trkpt lat="43.50146666961956" lon="10.326450164626374"><ele>19.0</ele><time>2026-04-06T13:36:46Z</time></trkpt><trkpt lat="43.50156404890522" lon="10.326533238670013"><ele>19.0</ele><time>2026-04-06T13:36:47Z</time></trkpt><trkpt lat="43.50166452586267" lon="10.326616229213903"><ele>19.0</ele><time>2026-04-06T13:36:48Z</time></trkpt><trkpt lat="43.5017637623002" lon="10.326695334305475"><ele>19.0</ele><time>2026-04-06T13:36:49Z</time></trkpt><trkpt lat="43.50186448512413" lon="10.32677126360143"><ele>19.0</ele><time>2026-04-06T13:36:50Z</time></trkpt><trkpt lat="43.50196902623502" lon="10.326851022403691"><ele>19.0</ele><time>2026-04-06T13:36:51Z</time></trkpt><trkpt lat="43.50207318255431" lon="10.326934780350365"><ele>19.75</ele><time>2026-04-06T13:36:52Z</time></trkpt><trkpt lat="43.50217961996024" lon="10.32701797168491"><ele>20.5</ele><time>2026-04-06T13:36:53Z</time></trkpt><trkpt lat="43.50229078713168" lon="10.32711575880556"><ele>21.25</ele><time>2026-04-06T13:36:54Z</time></trkpt><trkpt lat="43.5024008476582" lon="10.327208663768122"><ele>22.0</ele><time>2026-04-06T13:36:55Z</time></trkpt><trkpt lat="43.50250837780892" lon="10.327299239294616"><ele>22.0</ele><time>2026-04-06T13:36:56Z</time></trkpt><trkpt lat="43.50261549873703" lon="10.327389500711767"><ele>22.0</ele><time>2026-04-06T13:36:57Z</time></trkpt><trkpt lat="43.50270600953861" lon="10.32750466516745"><ele>22.0</ele><time>2026-04-06T13:36:58Z</time></trkpt><trkpt lat="43.502802649367496" lon="10.327611207088461"><ele>22.0</ele><time>2026-04-06T13:36:59Z</time></trkpt><trkpt lat="43.50289267621689" lon="10.32769241051315"><ele>22.200000000000003</ele><time>2026-04-06T13:37:00Z</time></trkpt><trkpt lat="43.50296702354887" lon="10.327770534811114"><ele>22.4</ele><time>2026-04-06T13:37:01Z</time></trkpt><trkpt lat="43.503046310714275" lon="10.327835017603652"><ele>22.6</ele><time>2026-04-06T13:37:02Z</time></trkpt><trkpt lat="43.50313340261545" lon="10.327861877162887"><ele>22.799999999999997</ele><time>2026-04-06T13:37:03Z</time></trkpt><trkpt lat="43.50322020455767" lon="10.327858367873334"><ele>23.0</ele><time>2026-04-06T13:37:04Z</time></trkpt><trkpt lat="43.503326460780336" lon="10.327818415803959"><ele>23.0</ele><time>2026-04-06T13:37:05Z</time></trkpt><trkpt lat="43.50344834622902" lon="10.327754924222106"><ele>23.0</ele><time>2026-04-06T13:37:06Z</time></trkpt><trkpt lat="43.50358894577194" lon="10.327673210805807"><ele>23.0</ele><time>2026-04-06T13:37:07Z</time></trkpt><trkpt lat="43.50372960898623" lon="10.327599979374954"><ele>23.0</ele><time>2026-04-06T13:37:08Z</time></trkpt><trkpt lat="43.50386034533269" lon="10.327538771143818"><ele>23.0</ele><time>2026-04-06T13:37:09Z</time></trkpt><trkpt lat="43.50398651438527" lon="10.32748250174168"><ele>23.0</ele><time>2026-04-06T13:37:10Z</time></trkpt><trkpt lat="43.50411286198497" lon="10.327431081501475"><ele>23.0</ele><time>2026-04-06T13:37:11Z</time></trkpt><trkpt lat="43.50423640504197" lon="10.327385175817911"><ele>23.0</ele><time>2026-04-06T13:37:12Z</time></trkpt><trkpt lat="43.504359254063814" lon="10.327340298350766"><ele>23.0</ele><time>2026-04-06T13:37:13Z</time></trkpt><trkpt lat="43.50448895896421" lon="10.327295371763352"><ele>23.0</ele><time>2026-04-06T13:37:14Z</time></trkpt><trkpt lat="43.50461776737924" lon="10.327253460195832"><ele>23.0</ele><time>2026-04-06T13:37:15Z</time></trkpt><trkpt lat="43.50474865947157" lon="10.32721224603532"><ele>23.0</ele><time>2026-04-06T13:37:16Z</time></trkpt><trkpt lat="43.50488074933066" lon="10.32717352625879"><ele>22.5</ele><time>2026-04-06T13:37:17Z</time></trkpt><trkpt lat="43.5050165360767" lon="10.327135193936657"><ele>22.0</ele><time>2026-04-06T13:37:18Z</time></trkpt><trkpt lat="43.50515436546302" lon="10.327100097612384"><ele>21.5</ele><time>2026-04-06T13:37:19Z</time></trkpt><trkpt lat="43.50528402245314" lon="10.327080120370363"><ele>21.0</ele><time>2026-04-06T13:37:20Z</time></trkpt><trkpt lat="43.50541972636676" lon="10.327076429230944"><ele>20.333333333333332</ele><time>2026-04-06T13:37:21Z</time></trkpt><trkpt lat="43.505565082307044" lon="10.327091096955375"><ele>19.666666666666664</ele><time>2026-04-06T13:37:22Z</time></trkpt><trkpt lat="43.50572073405614" lon="10.327121257306718"><ele>19.0</ele><time>2026-04-06T13:37:23Z</time></trkpt><trkpt lat="43.50587557830134" lon="10.327150783965124"><ele>19.0</ele><time>2026-04-06T13:37:24Z</time></trkpt><trkpt lat="43.50602339733312" lon="10.327172937722125"><ele>19.0</ele><time>2026-04-06T13:37:25Z</time></trkpt><trkpt lat="43.50617326142048" lon="10.327195727875397"><ele>19.0</ele><time>2026-04-06T13:37:26Z</time></trkpt><trkpt lat="43.50632541257109" lon="10.327220479159179"><ele>18.5</ele><time>2026-04-06T13:37:27Z</time></trkpt><trkpt lat="43.506472642816455" lon="10.327246152550572"><ele>18.0</ele><time>2026-04-06T13:37:28Z</time></trkpt><trkpt lat="43.50660828070397" lon="10.327270467353022"><ele>17.5</ele><time>2026-04-06T13:37:29Z</time></trkpt><trkpt lat="43.50674898089022" lon="10.327290880704885"><ele>17.0</ele><time>2026-04-06T13:37:30Z</time></trkpt><trkpt lat="43.506883548253" lon="10.327312212154242"><ele>17.0</ele><time>2026-04-06T13:37:31Z</time></trkpt><trkpt lat="43.50703376367083" lon="10.327335875979797"><ele>17.0</ele><time>2026-04-06T13:37:32Z</time></trkpt><trkpt lat="43.50717278425232" lon="10.327360137330182"><ele>17.0</ele><time>2026-04-06T13:37:33Z</time></trkpt><trkpt lat="43.50732212008171" lon="10.32738408941376"><ele>17.0</ele><time>2026-04-06T13:37:34Z</time></trkpt><trkpt lat="43.507469411128" lon="10.327412543880524"><ele>17.25</ele><time>2026-04-06T13:37:35Z</time></trkpt><trkpt lat="43.507615562773786" lon="10.327436821331043"><ele>17.5</ele><time>2026-04-06T13:37:36Z</time></trkpt><trkpt lat="43.507760897825385" lon="10.327456889133257"><ele>17.75</ele><time>2026-04-06T13:37:37Z</time></trkpt><trkpt lat="43.50790653628222" lon="10.32747145160795"><ele>18.0</ele><time>2026-04-06T13:37:38Z</time></trkpt><trkpt lat="43.50805273998821" lon="10.327474498598264"><ele>18.0</ele><time>2026-04-06T13:37:39Z</time></trkpt><trkpt lat="43.50820186468965" lon="10.327460440822941"><ele>18.0</ele><time>2026-04-06T13:37:40Z</time></trkpt><trkpt lat="43.508355347573406" lon="10.327433874109818"><ele>18.0</ele><time>2026-04-06T13:37:41Z</time></trkpt><trkpt lat="43.50850947205077" lon="10.327401937217854"><ele>18.0</ele><time>2026-04-06T13:37:42Z</time></trkpt><trkpt lat="43.50866530554136" lon="10.327371978216103"><ele>18.0</ele><time>2026-04-06T13:37:43Z</time></trkpt><trkpt lat="43.50881712044994" lon="10.327344908211339"><ele>18.0</ele><time>2026-04-06T13:37:44Z</time></trkpt><trkpt lat="43.508970532345565" lon="10.32731559055597"><ele>17.5</ele><time>2026-04-06T13:37:45Z</time></trkpt><trkpt lat="43.50911571380645" lon="10.327289959630752"><ele>17.0</ele><time>2026-04-06T13:37:46Z</time></trkpt><trkpt lat="43.50926135382766" lon="10.327261032498825"><ele>16.5</ele><time>2026-04-06T13:37:47Z</time></trkpt><trkpt lat="43.5094087214784" lon="10.32723026775736"><ele>16.0</ele><time>2026-04-06T13:37:48Z</time></trkpt><trkpt lat="43.509556236469884" lon="10.32720485667495"><ele>14.666666666666666</ele><time>2026-04-06T13:37:49Z</time></trkpt><trkpt lat="43.509710058565" lon="10.32717784907237"><ele>13.333333333333332</ele><time>2026-04-06T13:37:50Z</time></trkpt><trkpt lat="43.50986703174631" lon="10.327149066863289"><ele>12.0</ele><time>2026-04-06T13:37:51Z</time></trkpt><trkpt lat="43.510026111044944" lon="10.327120523666629"><ele>12.0</ele><time>2026-04-06T13:37:52Z</time></trkpt><trkpt lat="43.51016252874883" lon="10.327095939797706"><ele>12.0</ele><time>2026-04-06T13:37:53Z</time></trkpt><trkpt lat="43.510294728237525" lon="10.327072388685114"><ele>12.0</ele><time>2026-04-06T13:37:54Z</time></trkpt><trkpt lat="43.51043152828511" lon="10.327045633957129"><ele>12.0</ele><time>2026-04-06T13:37:55Z</time></trkpt><trkpt lat="43.51056189785301" lon="10.327018966102765"><ele>12.333333333333332</ele><time>2026-04-06T13:37:56Z</time></trkpt><trkpt lat="43.51071344443982" lon="10.326991385534493"><ele>12.666666666666666</ele><time>2026-04-06T13:37:57Z</time></trkpt><trkpt lat="43.510863675585284" lon="10.32696316630872"><ele>13.0</ele><time>2026-04-06T13:37:58Z</time></trkpt><trkpt lat="43.51101669851859" lon="10.326930437283584"><ele>13.0</ele><time>2026-04-06T13:37:59Z</time></trkpt><trkpt lat="43.51116750490921" lon="10.326899652818005"><ele>13.0</ele><time>2026-04-06T13:38:00Z</time></trkpt><trkpt lat="43.511314610091176" lon="10.326874110790873"><ele>13.0</ele><time>2026-04-06T13:38:01Z</time></trkpt><trkpt lat="43.51144752985827" lon="10.326853568489357"><ele>13.0</ele><time>2026-04-06T13:38:02Z</time></trkpt><trkpt lat="43.511556956083425" lon="10.32683301701811"><ele>12.8</ele><time>2026-04-06T13:38:03Z</time></trkpt><trkpt lat="43.51165584951603" lon="10.326813918046525"><ele>12.600000000000001</ele><time>2026-04-06T13:38:04Z</time></trkpt><trkpt lat="43.51174656920462" lon="10.326796771862016"><ele>12.399999999999999</ele><time>2026-04-06T13:38:05Z</time></trkpt><trkpt lat="43.511841081327965" lon="10.326784521780864"><ele>12.2</ele><time>2026-04-06T13:38:06Z</time></trkpt><trkpt lat="43.511929078198655" lon="10.326786887008488"><ele>12.0</ele><time>2026-04-06T13:38:07Z</time></trkpt><trkpt lat="43.51201050200712" lon="10.326810616085561"><ele>11.666666666666666</ele><time>2026-04-06T13:38:08Z</time></trkpt><trkpt lat="43.51208483548031" lon="10.326862189424649"><ele>11.333333333333334</ele><time>2026-04-06T13:38:09Z</time></trkpt><trkpt lat="43.51215591672364" lon="10.326931761911522"><ele>11.0</ele><time>2026-04-06T13:38:10Z</time></trkpt><trkpt lat="43.51221326545023" lon="10.327015303754145"><ele>10.666666666666668</ele><time>2026-04-06T13:38:11Z</time></trkpt><trkpt lat="43.5122703647981" lon="10.327107097701333"><ele>10.333333333333334</ele><time>2026-04-06T13:38:12Z</time></trkpt><trkpt lat="43.51232448498468" lon="10.327177872047805"><ele>10.0</ele><time>2026-04-06T13:38:13Z</time></trkpt><trkpt lat="43.51238090897558" lon="10.32723991468534"><ele>10.0</ele><time>2026-04-06T13:38:14Z</time></trkpt><trkpt lat="43.51248277281864" lon="10.327289031912807"><ele>10.0</ele><time>2026-04-06T13:38:16Z</time></trkpt><trkpt lat="43.51259249600883" lon="10.327201315899332"><ele>10.0</ele><time>2026-04-06T13:38:18Z</time></trkpt><trkpt lat="43.51265481100785" lon="10.327128656701634"><ele>10.0</ele><time>2026-04-06T13:38:19Z</time></trkpt><trkpt lat="43.5127545059211" lon="10.327031037140419"><ele>10.0</ele><time>2026-04-06T13:38:20Z</time></trkpt><trkpt lat="43.51285486844571" lon="10.32691387472255"><ele>9.25</ele><time>2026-04-06T13:38:21Z</time></trkpt><trkpt lat="43.512961137774305" lon="10.326804067199932"><ele>8.5</ele><time>2026-04-06T13:38:22Z</time></trkpt><trkpt lat="43.51307396283801" lon="10.326705747442531"><ele>7.75</ele><time>2026-04-06T13:38:23Z</time></trkpt><trkpt lat="43.513180006332355" lon="10.326618165682307"><ele>7.0</ele><time>2026-04-06T13:38:24Z</time></trkpt><trkpt lat="43.5132834935226" lon="10.326536698104466"><ele>7.0</ele><time>2026-04-06T13:38:25Z</time></trkpt><trkpt lat="43.513381540301474" lon="10.32645905120195"><ele>6.999999999999999</ele><time>2026-04-06T13:38:26Z</time></trkpt><trkpt lat="43.51347652851911" lon="10.326393861866935"><ele>6.999999999999999</ele><time>2026-04-06T13:38:27Z</time></trkpt><trkpt lat="43.51356349229195" lon="10.326329889413657"><ele>7.0</ele><time>2026-04-06T13:38:28Z</time></trkpt><trkpt lat="43.51365502759128" lon="10.326265561915578"><ele>7.0</ele><time>2026-04-06T13:38:29Z</time></trkpt><trkpt lat="43.51375131455418" lon="10.32620879868546"><ele>6.75</ele><time>2026-04-06T13:38:30Z</time></trkpt><trkpt lat="43.51384699135916" lon="10.326123836848899"><ele>6.5</ele><time>2026-04-06T13:38:31Z</time></trkpt><trkpt lat="43.513946033247876" lon="10.326079564805674"><ele>6.25</ele><time>2026-04-06T13:38:32Z</time></trkpt><trkpt lat="43.51406130321259" lon="10.326010219823917"><ele>6.0</ele><time>2026-04-06T13:38:33Z</time></trkpt><trkpt lat="43.514173972084116" lon="10.325929357509843"><ele>6.0</ele><time>2026-04-06T13:38:34Z</time></trkpt><trkpt lat="43.51429505309181" lon="10.325862215662678"><ele>6.0</ele><time>2026-04-06T13:38:35Z</time></trkpt><trkpt lat="43.51441604201914" lon="10.325793923429519"><ele>6.0</ele><time>2026-04-06T13:38:36Z</time></trkpt><trkpt lat="43.51454080333909" lon="10.325722588616864"><ele>6.0</ele><time>2026-04-06T13:38:37Z</time></trkpt><trkpt lat="43.51466304051541" lon="10.325652759142574"><ele>6.5</ele><time>2026-04-06T13:38:38Z</time></trkpt><trkpt lat="43.51478110467169" lon="10.325578225918473"><ele>7.0</ele><time>2026-04-06T13:38:39Z</time></trkpt><trkpt lat="43.51489294008833" lon="10.325514036831127"><ele>7.5</ele><time>2026-04-06T13:38:40Z</time></trkpt><trkpt lat="43.51499949130082" lon="10.325455156539523"><ele>8.0</ele><time>2026-04-06T13:38:41Z</time></trkpt><trkpt lat="43.515107841771815" lon="10.325396048731264"><ele>8.0</ele><time>2026-04-06T13:38:42Z</time></trkpt><trkpt lat="43.51521646947981" lon="10.32533950760551"><ele>8.0</ele><time>2026-04-06T13:38:43Z</time></trkpt><trkpt lat="43.51533276895135" lon="10.325274637490686"><ele>8.0</ele><time>2026-04-06T13:38:44Z</time></trkpt><trkpt lat="43.515446699096806" lon="10.325208948755373"><ele>8.0</ele><time>2026-04-06T13:38:45Z</time></trkpt><trkpt lat="43.51555230029531" lon="10.325149425833688"><ele>9.0</ele><time>2026-04-06T13:38:46Z</time></trkpt><trkpt lat="43.51565584745521" lon="10.325102190078727"><ele>10.0</ele><time>2026-04-06T13:38:47Z</time></trkpt><trkpt lat="43.51575829424354" lon="10.325078333981837"><ele>11.0</ele><time>2026-04-06T13:38:48Z</time></trkpt><trkpt lat="43.515872395552925" lon="10.325066746569952"><ele>12.0</ele><time>2026-04-06T13:38:49Z</time></trkpt><trkpt lat="43.515985808516376" lon="10.325064483638448"><ele>13.0</ele><time>2026-04-06T13:38:50Z</time></trkpt><trkpt lat="43.516105232005856" lon="10.32505271506073"><ele>13.0</ele><time>2026-04-06T13:38:51Z</time></trkpt><trkpt lat="43.51622251603013" lon="10.32503641027121"><ele>13.0</ele><time>2026-04-06T13:38:52Z</time></trkpt><trkpt lat="43.51632707122565" lon="10.325033440164542"><ele>13.0</ele><time>2026-04-06T13:38:53Z</time></trkpt><trkpt lat="43.51642111197804" lon="10.325020509786091"><ele>13.0</ele><time>2026-04-06T13:38:54Z</time></trkpt><trkpt lat="43.516512187695746" lon="10.325016029856279"><ele>13.0</ele><time>2026-04-06T13:38:55Z</time></trkpt><trkpt lat="43.51660016034768" lon="10.325010568803204"><ele>13.0</ele><time>2026-04-06T13:38:56Z</time></trkpt><trkpt lat="43.51668518104347" lon="10.324995809371476"><ele>13.0</ele><time>2026-04-06T13:38:57Z</time></trkpt><trkpt lat="43.516778460213715" lon="10.32496879329794"><ele>13.0</ele><time>2026-04-06T13:38:58Z</time></trkpt><trkpt lat="43.51688962752838" lon="10.324961300109488"><ele>13.0</ele><time>2026-04-06T13:38:59Z</time></trkpt><trkpt lat="43.517023270258115" lon="10.324942470083366"><ele>13.0</ele><time>2026-04-06T13:39:00Z</time></trkpt><trkpt lat="43.51715795757733" lon="10.324918822648362"><ele>13.4</ele><time>2026-04-06T13:39:01Z</time></trkpt><trkpt lat="43.517272827758354" lon="10.324898878892744"><ele>13.8</ele><time>2026-04-06T13:39:02Z</time></trkpt><trkpt lat="43.51737568720561" lon="10.324881799074863"><ele>14.2</ele><time>2026-04-06T13:39:03Z</time></trkpt><trkpt lat="43.5174587464152" lon="10.324849829720957"><ele>14.6</ele><time>2026-04-06T13:39:04Z</time></trkpt><trkpt lat="43.517555817575456" lon="10.32479343628549"><ele>15.0</ele><time>2026-04-06T13:39:05Z</time></trkpt><trkpt lat="43.51766523057971" lon="10.324738549337082"><ele>14.5</ele><time>2026-04-06T13:39:06Z</time></trkpt><trkpt lat="43.51777547680832" lon="10.324682915894499"><ele>14.0</ele><time>2026-04-06T13:39:07Z</time></trkpt><trkpt lat="43.51789022815126" lon="10.324630449585413"><ele>13.5</ele><time>2026-04-06T13:39:08Z</time></trkpt><trkpt lat="43.51799484169155" lon="10.32458117556178"><ele>13.0</ele><time>2026-04-06T13:39:09Z</time></trkpt><trkpt lat="43.51809552301454" lon="10.324532000956431"><ele>12.5</ele><time>2026-04-06T13:39:10Z</time></trkpt><trkpt lat="43.518202704366914" lon="10.324484327564942"><ele>12.0</ele><time>2026-04-06T13:39:11Z</time></trkpt><trkpt lat="43.5183141805573" lon="10.324436296599309"><ele>11.5</ele><time>2026-04-06T13:39:12Z</time></trkpt><trkpt lat="43.51842459414663" lon="10.324392956414753"><ele>11.0</ele><time>2026-04-06T13:39:13Z</time></trkpt><trkpt lat="43.51853475076969" lon="10.324348926214986"><ele>11.0</ele><time>2026-04-06T13:39:14Z</time></trkpt><trkpt lat="43.51866309610533" lon="10.324300206083187"><ele>11.0</ele><time>2026-04-06T13:39:15Z</time></trkpt><trkpt lat="43.518785105917836" lon="10.324253776842879"><ele>11.0</ele><time>2026-04-06T13:39:16Z</time></trkpt><trkpt lat="43.51889116433154" lon="10.324214688945094"><ele>11.0</ele><time>2026-04-06T13:39:17Z</time></trkpt><trkpt lat="43.519000476581695" lon="10.324173421454853"><ele>11.0</ele><time>2026-04-06T13:39:18Z</time></trkpt><trkpt lat="43.51910660309247" lon="10.324134619750586"><ele>11.0</ele><time>2026-04-06T13:39:19Z</time></trkpt><trkpt lat="43.5192121374417" lon="10.324101483461751"><ele>11.0</ele><time>2026-04-06T13:39:20Z</time></trkpt><trkpt lat="43.51932502593898" lon="10.324095729844913"><ele>11.0</ele><time>2026-04-06T13:39:21Z</time></trkpt><trkpt lat="43.51943704684809" lon="10.324110674534762"><ele>11.0</ele><time>2026-04-06T13:39:22Z</time></trkpt><trkpt lat="43.5195520487411" lon="10.324144976898827"><ele>11.0</ele><time>2026-04-06T13:39:23Z</time></trkpt><trkpt lat="43.51967493859542" lon="10.32420065216454"><ele>11.0</ele><time>2026-04-06T13:39:24Z</time></trkpt><trkpt lat="43.51979247528805" lon="10.324254564646816"><ele>11.0</ele><time>2026-04-06T13:39:25Z</time></trkpt><trkpt lat="43.51991533871024" lon="10.324300397620812"><ele>11.0</ele><time>2026-04-06T13:39:26Z</time></trkpt><trkpt lat="43.52003980527523" lon="10.324341852811672"><ele>11.0</ele><time>2026-04-06T13:39:27Z</time></trkpt><trkpt lat="43.52016976721647" lon="10.324385020500662"><ele>11.0</ele><time>2026-04-06T13:39:28Z</time></trkpt><trkpt lat="43.52029907391547" lon="10.32441881173411"><ele>11.0</ele><time>2026-04-06T13:39:29Z</time></trkpt><trkpt lat="43.52042112622975" lon="10.32442376993239"><ele>11.0</ele><time>2026-04-06T13:39:30Z</time></trkpt><trkpt lat="43.52054895341122" lon="10.324408117002353"><ele>11.75</ele><time>2026-04-06T13:39:31Z</time></trkpt><trkpt lat="43.52067100533233" lon="10.32437404940662"><ele>12.5</ele><time>2026-04-06T13:39:32Z</time></trkpt><trkpt lat="43.52078990668065" lon="10.324335993019844"><ele>13.25</ele><time>2026-04-06T13:39:33Z</time></trkpt><trkpt lat="43.52090110309204" lon="10.324295799340623"><ele>14.0</ele><time>2026-04-06T13:39:34Z</time></trkpt><trkpt lat="43.52100967173038" lon="10.32425696940647"><ele>14.0</ele><time>2026-04-06T13:39:35Z</time></trkpt><trkpt lat="43.52112717245069" lon="10.324217640667564"><ele>14.0</ele><time>2026-04-06T13:39:36Z</time></trkpt><trkpt lat="43.52124025161309" lon="10.324172612952326"><ele>14.0</ele><time>2026-04-06T13:39:37Z</time></trkpt><trkpt lat="43.52135742038402" lon="10.324115994412006"><ele>14.0</ele><time>2026-04-06T13:39:38Z</time></trkpt><trkpt lat="43.5214744851308" lon="10.32405417098539"><ele>13.5</ele><time>2026-04-06T13:39:39Z</time></trkpt><trkpt lat="43.52159415060429" lon="10.323985927117436"><ele>13.0</ele><time>2026-04-06T13:39:40Z</time></trkpt><trkpt lat="43.52171704265667" lon="10.323914122065224"><ele>12.5</ele><time>2026-04-06T13:39:41Z</time></trkpt><trkpt lat="43.52184374575142" lon="10.323840241414947"><ele>12.0</ele><time>2026-04-06T13:39:42Z</time></trkpt><trkpt lat="43.52196521165676" lon="10.323770923967475"><ele>12.5</ele><time>2026-04-06T13:39:43Z</time></trkpt><trkpt lat="43.522087244855534" lon="10.323700777493093"><ele>13.0</ele><time>2026-04-06T13:39:44Z</time></trkpt><trkpt lat="43.52220828320232" lon="10.323627766685428"><ele>13.5</ele><time>2026-04-06T13:39:45Z</time></trkpt><trkpt lat="43.522331588754064" lon="10.323556954349794"><ele>14.0</ele><time>2026-04-06T13:39:46Z</time></trkpt><trkpt lat="43.52245756539419" lon="10.323477002116945"><ele>14.0</ele><time>2026-04-06T13:39:47Z</time></trkpt><trkpt lat="43.52258171583566" lon="10.323402791310727"><ele>14.0</ele><time>2026-04-06T13:39:48Z</time></trkpt><trkpt lat="43.522713061384295" lon="10.323327943451924"><ele>14.0</ele><time>2026-04-06T13:39:49Z</time></trkpt><trkpt lat="43.522850347941166" lon="10.32325587951792"><ele>14.0</ele><time>2026-04-06T13:39:50Z</time></trkpt><trkpt lat="43.522982146315066" lon="10.323196455858714"><ele>13.75</ele><time>2026-04-06T13:39:51Z</time></trkpt><trkpt lat="43.523101068729495" lon="10.32314414629822"><ele>13.5</ele><time>2026-04-06T13:39:52Z</time></trkpt><trkpt lat="43.52320848033392" lon="10.323095578246418"><ele>13.25</ele><time>2026-04-06T13:39:53Z</time></trkpt><trkpt lat="43.523312722334445" lon="10.323057809028068"><ele>13.0</ele><time>2026-04-06T13:39:54Z</time></trkpt><trkpt lat="43.52341845346557" lon="10.323030392349207"><ele>13.0</ele><time>2026-04-06T13:39:55Z</time></trkpt><trkpt lat="43.52352975836533" lon="10.32301000754723"><ele>13.0</ele><time>2026-04-06T13:39:56Z</time></trkpt><trkpt lat="43.52363431688814" lon="10.322998650158093"><ele>13.0</ele><time>2026-04-06T13:39:57Z</time></trkpt><trkpt lat="43.523729514428474" lon="10.32299085549906"><ele>13.0</ele><time>2026-04-06T13:39:58Z</time></trkpt><trkpt lat="43.52381181321458" lon="10.322967620561608"><ele>13.0</ele><time>2026-04-06T13:39:59Z</time></trkpt><trkpt lat="43.52388705445603" lon="10.322965811418753"><ele>13.4</ele><time>2026-04-06T13:40:00Z</time></trkpt><trkpt lat="43.524002542648546" lon="10.3229867096164"><ele>13.8</ele><time>2026-04-06T13:40:02Z</time></trkpt><trkpt lat="43.52409703472419" lon="10.322994903943055"><ele>14.2</ele><time>2026-04-06T13:40:04Z</time></trkpt><trkpt lat="43.524174250405764" lon="10.32301034485197"><ele>14.6</ele><time>2026-04-06T13:40:06Z</time></trkpt><trkpt lat="43.52426516488002" lon="10.323023915170001"><ele>15.0</ele><time>2026-04-06T13:40:08Z</time></trkpt><trkpt lat="43.524342704706626" lon="10.323030468462546"><ele>15.0</ele><time>2026-04-06T13:40:09Z</time></trkpt><trkpt lat="43.52443112625825" lon="10.32302684307239"><ele>15.0</ele><time>2026-04-06T13:40:10Z</time></trkpt><trkpt lat="43.524543571652316" lon="10.323030250785138"><ele>15.0</ele><time>2026-04-06T13:40:11Z</time></trkpt><trkpt lat="43.52465067828163" lon="10.323019512094438"><ele>15.0</ele><time>2026-04-06T13:40:12Z</time></trkpt><trkpt lat="43.52476635981657" lon="10.322998246486904"><ele>15.0</ele><time>2026-04-06T13:40:13Z</time></trkpt><trkpt lat="43.52488565791163" lon="10.322969799743705"><ele>15.5</ele><time>2026-04-06T13:40:14Z</time></trkpt><trkpt lat="43.52501469873439" lon="10.322939643774388"><ele>16.0</ele><time>2026-04-06T13:40:15Z</time></trkpt><trkpt lat="43.52514201309529" lon="10.322907202566574"><ele>16.5</ele><time>2026-04-06T13:40:16Z</time></trkpt><trkpt lat="43.52525418968989" lon="10.32287302402787"><ele>17.0</ele><time>2026-04-06T13:40:17Z</time></trkpt><trkpt lat="43.525359408557264" lon="10.322847734525093"><ele>16.75</ele><time>2026-04-06T13:40:18Z</time></trkpt><trkpt lat="43.525472721052665" lon="10.322813276312134"><ele>16.5</ele><time>2026-04-06T13:40:19Z</time></trkpt><trkpt lat="43.525584286664404" lon="10.322767376071415"><ele>16.25</ele><time>2026-04-06T13:40:20Z</time></trkpt><trkpt lat="43.525691295265226" lon="10.322730774335167"><ele>16.0</ele><time>2026-04-06T13:40:21Z</time></trkpt><trkpt lat="43.52580017832508" lon="10.322688441172435"><ele>16.0</ele><time>2026-04-06T13:40:22Z</time></trkpt><trkpt lat="43.5259252858738" lon="10.322642659791972"><ele>16.0</ele><time>2026-04-06T13:40:23Z</time></trkpt><trkpt lat="43.526046146194645" lon="10.322591396497625"><ele>16.0</ele><time>2026-04-06T13:40:24Z</time></trkpt><trkpt lat="43.526148801480375" lon="10.322531470423502"><ele>16.0</ele><time>2026-04-06T13:40:25Z</time></trkpt><trkpt lat="43.526266616218166" lon="10.32247005526605"><ele>15.5</ele><time>2026-04-06T13:40:26Z</time></trkpt><trkpt lat="43.52637647069116" lon="10.322405192506947"><ele>15.0</ele><time>2026-04-06T13:40:27Z</time></trkpt><trkpt lat="43.52648490800355" lon="10.322348221196904"><ele>14.5</ele><time>2026-04-06T13:40:28Z</time></trkpt><trkpt lat="43.52658281799232" lon="10.322285834882841"><ele>14.0</ele><time>2026-04-06T13:40:29Z</time></trkpt><trkpt lat="43.526690598606976" lon="10.322229769301721"><ele>14.0</ele><time>2026-04-06T13:40:30Z</time></trkpt><trkpt lat="43.526793440474236" lon="10.322163032448804"><ele>14.0</ele><time>2026-04-06T13:40:31Z</time></trkpt><trkpt lat="43.52689330413569" lon="10.322097290243986"><ele>14.0</ele><time>2026-04-06T13:40:32Z</time></trkpt><trkpt lat="43.52700388599606" lon="10.322030488703254"><ele>14.0</ele><time>2026-04-06T13:40:33Z</time></trkpt><trkpt lat="43.52712740610163" lon="10.321965692261793"><ele>13.25</ele><time>2026-04-06T13:40:34Z</time></trkpt><trkpt lat="43.52725135257027" lon="10.321905100940755"><ele>12.5</ele><time>2026-04-06T13:40:35Z</time></trkpt><trkpt lat="43.527383888409865" lon="10.321849529138124"><ele>11.75</ele><time>2026-04-06T13:40:36Z</time></trkpt><trkpt lat="43.52752141908563" lon="10.321799614930494"><ele>11.0</ele><time>2026-04-06T13:40:37Z</time></trkpt><trkpt lat="43.527662393427036" lon="10.321754595028226"><ele>11.0</ele><time>2026-04-06T13:40:38Z</time></trkpt><trkpt lat="43.52779954508373" lon="10.321707530652276"><ele>11.0</ele><time>2026-04-06T13:40:39Z</time></trkpt><trkpt lat="43.52794187903008" lon="10.321658339090295"><ele>11.0</ele><time>2026-04-06T13:40:40Z</time></trkpt><trkpt lat="43.52808465085985" lon="10.321609853684052"><ele>11.0</ele><time>2026-04-06T13:40:41Z</time></trkpt><trkpt lat="43.52823627772875" lon="10.321561763482672"><ele>11.0</ele><time>2026-04-06T13:40:42Z</time></trkpt><trkpt lat="43.52838848358224" lon="10.321512888463534"><ele>11.0</ele><time>2026-04-06T13:40:43Z</time></trkpt><trkpt lat="43.52853338522547" lon="10.3214546928056"><ele>11.0</ele><time>2026-04-06T13:40:44Z</time></trkpt><trkpt lat="43.528677824217525" lon="10.321395855511938"><ele>10.5</ele><time>2026-04-06T13:40:45Z</time></trkpt><trkpt lat="43.52881483200248" lon="10.321346321207027"><ele>10.0</ele><time>2026-04-06T13:40:46Z</time></trkpt><trkpt lat="43.52895754724144" lon="10.321294565531367"><ele>9.5</ele><time>2026-04-06T13:40:47Z</time></trkpt><trkpt lat="43.529104417596606" lon="10.32123970266812"><ele>9.0</ele><time>2026-04-06T13:40:48Z</time></trkpt><trkpt lat="43.52924989186906" lon="10.321184932565696"><ele>9.0</ele><time>2026-04-06T13:40:49Z</time></trkpt><trkpt lat="43.52939542934197" lon="10.32113309707953"><ele>9.0</ele><time>2026-04-06T13:40:50Z</time></trkpt><trkpt lat="43.52954218774125" lon="10.321080067431023"><ele>9.0</ele><time>2026-04-06T13:40:51Z</time></trkpt><trkpt lat="43.52968723236806" lon="10.321019828372465"><ele>9.25</ele><time>2026-04-06T13:40:52Z</time></trkpt><trkpt lat="43.529824312968124" lon="10.320964256486283"><ele>9.5</ele><time>2026-04-06T13:40:53Z</time></trkpt><trkpt lat="43.52994199506253" lon="10.32086933575653"><ele>9.75</ele><time>2026-04-06T13:40:54Z</time></trkpt><trkpt lat="43.53006100807906" lon="10.320796652945027"><ele>10.0</ele><time>2026-04-06T13:40:55Z</time></trkpt><trkpt lat="43.530165969793615" lon="10.32071649908138"><ele>10.0</ele><time>2026-04-06T13:40:56Z</time></trkpt><trkpt lat="43.53027113066964" lon="10.320641962248125"><ele>10.0</ele><time>2026-04-06T13:40:57Z</time></trkpt><trkpt lat="43.530372381233605" lon="10.320567567096909"><ele>10.0</ele><time>2026-04-06T13:40:58Z</time></trkpt><trkpt lat="43.5304651148325" lon="10.320493543499285"><ele>10.0</ele><time>2026-04-06T13:40:59Z</time></trkpt><trkpt lat="43.53055115974573" lon="10.320425517224155"><ele>10.0</ele><time>2026-04-06T13:41:00Z</time></trkpt><trkpt lat="43.5306285916146" lon="10.320362931743897"><ele>10.333333333333334</ele><time>2026-04-06T13:41:01Z</time></trkpt><trkpt lat="43.53070821426008" lon="10.320301575337815"><ele>10.666666666666668</ele><time>2026-04-06T13:41:02Z</time></trkpt><trkpt lat="43.53077911929387" lon="10.320240497642835"><ele>11.0</ele><time>2026-04-06T13:41:03Z</time></trkpt><trkpt lat="43.5308474550929" lon="10.320184652517133"><ele>11.333333333333334</ele><time>2026-04-06T13:41:04Z</time></trkpt><trkpt lat="43.530916683857406" lon="10.320125208159252"><ele>11.666666666666666</ele><time>2026-04-06T13:41:05Z</time></trkpt><trkpt lat="43.530993849349954" lon="10.320059391298328"><ele>12.0</ele><time>2026-04-06T13:41:06Z</time></trkpt><trkpt lat="43.531078779621204" lon="10.319998903335154"><ele>12.0</ele><time>2026-04-06T13:41:07Z</time></trkpt><trkpt lat="43.53115767675142" lon="10.319951079228161"><ele>12.0</ele><time>2026-04-06T13:41:08Z</time></trkpt><trkpt lat="43.53122701863232" lon="10.319909609135204"><ele>12.0</ele><time>2026-04-06T13:41:09Z</time></trkpt><trkpt lat="43.53128856572529" lon="10.319868991236834"><ele>12.0</ele><time>2026-04-06T13:41:10Z</time></trkpt><trkpt lat="43.53137563903388" lon="10.31980056640735"><ele>12.0</ele><time>2026-04-06T13:41:12Z</time></trkpt><trkpt lat="43.53143346923626" lon="10.319758344130564"><ele>12.0</ele><time>2026-04-06T13:41:15Z</time></trkpt><trkpt lat="43.53150575946905" lon="10.319704028278778"><ele>12.0</ele><time>2026-04-06T13:41:24Z</time></trkpt><trkpt lat="43.531599710720066" lon="10.319630780152403"><ele>12.0</ele><time>2026-04-06T13:41:26Z</time></trkpt><trkpt lat="43.53169794236586" lon="10.31956538025901"><ele>12.0</ele><time>2026-04-06T13:41:28Z</time></trkpt><trkpt lat="43.53180794034999" lon="10.31955751893544"><ele>12.0</ele><time>2026-04-06T13:41:30Z</time></trkpt><trkpt lat="43.53187473628242" lon="10.319578971861487"><ele>12.0</ele><time>2026-04-06T13:41:31Z</time></trkpt><trkpt lat="43.531952742579186" lon="10.319616227297805"><ele>12.0</ele><time>2026-04-06T13:41:32Z</time></trkpt><trkpt lat="43.532031760227525" lon="10.319666687585773"><ele>12.0</ele><time>2026-04-06T13:41:33Z</time></trkpt><trkpt lat="43.53210428510855" lon="10.319739467711505"><ele>12.0</ele><time>2026-04-06T13:41:34Z</time></trkpt><trkpt lat="43.53217128793694" lon="10.319824628450766"><ele>12.0</ele><time>2026-04-06T13:41:35Z</time></trkpt><trkpt lat="43.53223708486049" lon="10.319930441462004"><ele>12.0</ele><time>2026-04-06T13:41:36Z</time></trkpt><trkpt lat="43.53229505231837" lon="10.32005733769633"><ele>11.75</ele><time>2026-04-06T13:41:37Z</time></trkpt><trkpt lat="43.53235225665264" lon="10.3202086380412"><ele>11.5</ele><time>2026-04-06T13:41:38Z</time></trkpt><trkpt lat="43.53241153609606" lon="10.320373166794601"><ele>11.25</ele><time>2026-04-06T13:41:39Z</time></trkpt><trkpt lat="43.53247283516095" lon="10.320536851183684"><ele>11.0</ele><time>2026-04-06T13:41:40Z</time></trkpt><trkpt lat="43.532533232344484" lon="10.320693883244994"><ele>11.5</ele><time>2026-04-06T13:41:41Z</time></trkpt><trkpt lat="43.53258838650612" lon="10.320840686549179"><ele>12.0</ele><time>2026-04-06T13:41:42Z</time></trkpt><trkpt lat="43.532637459441844" lon="10.320979503245175"><ele>12.5</ele><time>2026-04-06T13:41:43Z</time></trkpt><trkpt lat="43.53269047505307" lon="10.321119357679772"><ele>13.0</ele><time>2026-04-06T13:41:44Z</time></trkpt><trkpt lat="43.53274872576952" lon="10.321269297795205"><ele>13.0</ele><time>2026-04-06T13:41:45Z</time></trkpt><trkpt lat="43.532806130392245" lon="10.321419662136522"><ele>13.0</ele><time>2026-04-06T13:41:46Z</time></trkpt><trkpt lat="43.53285639309057" lon="10.321558337032549"><ele>13.0</ele><time>2026-04-06T13:41:47Z</time></trkpt><trkpt lat="43.53290565523397" lon="10.321688650669401"><ele>13.0</ele><time>2026-04-06T13:41:48Z</time></trkpt><trkpt lat="43.532955427902365" lon="10.321810774394933"><ele>13.0</ele><time>2026-04-06T13:41:49Z</time></trkpt><trkpt lat="43.533004139433224" lon="10.321926942406972"><ele>13.0</ele><time>2026-04-06T13:41:50Z</time></trkpt><trkpt lat="43.53305257859905" lon="10.322051388631511"><ele>13.0</ele><time>2026-04-06T13:41:51Z</time></trkpt><trkpt lat="43.533096655650816" lon="10.322178298303053"><ele>13.0</ele><time>2026-04-06T13:41:52Z</time></trkpt><trkpt lat="43.53313192830164" lon="10.322308929970507"><ele>13.0</ele><time>2026-04-06T13:41:53Z</time></trkpt><trkpt lat="43.53316375335156" lon="10.322445972779317"><ele>13.0</ele><time>2026-04-06T13:41:54Z</time></trkpt><trkpt lat="43.53319481696878" lon="10.322576791018204"><ele>13.0</ele><time>2026-04-06T13:41:55Z</time></trkpt><trkpt lat="43.53322066013374" lon="10.322706773653424"><ele>13.0</ele><time>2026-04-06T13:41:56Z</time></trkpt><trkpt lat="43.53324429485261" lon="10.32284487636324"><ele>13.0</ele><time>2026-04-06T13:41:57Z</time></trkpt><trkpt lat="43.533261761353955" lon="10.322985747676928"><ele>13.0</ele><time>2026-04-06T13:41:58Z</time></trkpt><trkpt lat="43.533272854005524" lon="10.323128198200656"><ele>13.0</ele><time>2026-04-06T13:41:59Z</time></trkpt><trkpt lat="43.53328154888301" lon="10.323275844113205"><ele>12.8</ele><time>2026-04-06T13:42:00Z</time></trkpt><trkpt lat="43.53330644368776" lon="10.323425305949113"><ele>12.600000000000001</ele><time>2026-04-06T13:42:01Z</time></trkpt><trkpt lat="43.5333038061617" lon="10.323577486602803"><ele>12.399999999999999</ele><time>2026-04-06T13:42:02Z</time></trkpt><trkpt lat="43.5332804624099" lon="10.323730667939193"><ele>12.2</ele><time>2026-04-06T13:42:03Z</time></trkpt><trkpt lat="43.53326601607899" lon="10.3238837120174"><ele>12.0</ele><time>2026-04-06T13:42:04Z</time></trkpt><trkpt lat="43.53324422117931" lon="10.324037733777892"><ele>12.75</ele><time>2026-04-06T13:42:05Z</time></trkpt><trkpt lat="43.53321926747446" lon="10.324188595360798"><ele>13.5</ele><time>2026-04-06T13:42:06Z</time></trkpt><trkpt lat="43.533184595038286" lon="10.324338020074466"><ele>14.25</ele><time>2026-04-06T13:42:07Z</time></trkpt><trkpt lat="43.533148370066364" lon="10.324494581467636"><ele>15.0</ele><time>2026-04-06T13:42:08Z</time></trkpt><trkpt lat="43.53311010391238" lon="10.324661154389663"><ele>15.25</ele><time>2026-04-06T13:42:09Z</time></trkpt><trkpt lat="43.533075189143105" lon="10.32481858353591"><ele>15.5</ele><time>2026-04-06T13:42:10Z</time></trkpt><trkpt lat="43.533041759101025" lon="10.324965951604314"><ele>15.75</ele><time>2026-04-06T13:42:11Z</time></trkpt><trkpt lat="43.53300622520286" lon="10.32511672744946"><ele>16.0</ele><time>2026-04-06T13:42:12Z</time></trkpt><trkpt lat="43.53296558068497" lon="10.325257880879855"><ele>16.0</ele><time>2026-04-06T13:42:13Z</time></trkpt><trkpt lat="43.53290568560006" lon="10.325406249508207"><ele>16.0</ele><time>2026-04-06T13:42:14Z</time></trkpt><trkpt lat="43.53284435696214" lon="10.325568792480691"><ele>16.0</ele><time>2026-04-06T13:42:15Z</time></trkpt><trkpt lat="43.532786600386736" lon="10.325745203812323"><ele>16.0</ele><time>2026-04-06T13:42:16Z</time></trkpt><trkpt lat="43.53272939093582" lon="10.325935161179832"><ele>16.0</ele><time>2026-04-06T13:42:17Z</time></trkpt><trkpt lat="43.53267711186063" lon="10.326136535066896"><ele>16.0</ele><time>2026-04-06T13:42:18Z</time></trkpt><trkpt lat="43.53262772943529" lon="10.32634067151899"><ele>16.0</ele><time>2026-04-06T13:42:19Z</time></trkpt><trkpt lat="43.532582486319356" lon="10.326531961587316"><ele>15.75</ele><time>2026-04-06T13:42:20Z</time></trkpt><trkpt lat="43.53253741918263" lon="10.326706673793623"><ele>15.5</ele><time>2026-04-06T13:42:21Z</time></trkpt><trkpt lat="43.532494952051756" lon="10.326869097540495"><ele>15.25</ele><time>2026-04-06T13:42:22Z</time></trkpt><trkpt lat="43.532456287611154" lon="10.3270307545032"><ele>15.0</ele><time>2026-04-06T13:42:23Z</time></trkpt><trkpt lat="43.53241624703098" lon="10.327194471806456"><ele>14.8</ele><time>2026-04-06T13:42:24Z</time></trkpt><trkpt lat="43.532375325947505" lon="10.327365187219206"><ele>14.6</ele><time>2026-04-06T13:42:25Z</time></trkpt><trkpt lat="43.532336707940395" lon="10.32751712204141"><ele>14.399999999999999</ele><time>2026-04-06T13:42:26Z</time></trkpt><trkpt lat="43.53229995258445" lon="10.327647867617177"><ele>14.2</ele><time>2026-04-06T13:42:27Z</time></trkpt><trkpt lat="43.53226165194614" lon="10.327765285820586"><ele>14.0</ele><time>2026-04-06T13:42:28Z</time></trkpt><trkpt lat="43.53221151093389" lon="10.327850972818432"><ele>14.0</ele><time>2026-04-06T13:42:29Z</time></trkpt><trkpt lat="43.532157738016146" lon="10.327910961198926"><ele>14.0</ele><time>2026-04-06T13:42:30Z</time></trkpt><trkpt lat="43.53209644640329" lon="10.32794575121488"><ele>14.0</ele><time>2026-04-06T13:42:31Z</time></trkpt><trkpt lat="43.532028430007955" lon="10.32795221405009"><ele>14.0</ele><time>2026-04-06T13:42:32Z</time></trkpt><trkpt lat="43.53195873526047" lon="10.327922182316929"><ele>14.0</ele><time>2026-04-06T13:42:33Z</time></trkpt><trkpt lat="43.531889042923105" lon="10.32787998549282"><ele>14.0</ele><time>2026-04-06T13:42:34Z</time></trkpt><trkpt lat="43.53182289416666" lon="10.327875135594633"><ele>14.0</ele><time>2026-04-06T13:42:35Z</time></trkpt><trkpt lat="43.53172220503168" lon="10.327969200962615"><ele>14.2</ele><time>2026-04-06T13:42:37Z</time></trkpt><trkpt lat="43.531650263717864" lon="10.328001935211635"><ele>14.399999999999999</ele><time>2026-04-06T13:42:38Z</time></trkpt><trkpt lat="43.531666442174554" lon="10.328161119916286"><ele>14.6</ele><time>2026-04-06T13:42:39Z</time></trkpt><trkpt lat="43.531725175409356" lon="10.32826412101806"><ele>14.8</ele><time>2026-04-06T13:42:40Z</time></trkpt><trkpt lat="43.531765974719356" lon="10.328383305687602"><ele>15.0</ele><time>2026-04-06T13:42:41Z</time></trkpt><trkpt lat="43.53177904436831" lon="10.328522499065928"><ele>15.0</ele><time>2026-04-06T13:42:42Z</time></trkpt><trkpt lat="43.531762261496475" lon="10.328680581841727"><ele>15.0</ele><time>2026-04-06T13:42:43Z</time></trkpt><trkpt lat="43.531742895260784" lon="10.328863286791034"><ele>15.0</ele><time>2026-04-06T13:42:44Z</time></trkpt><trkpt lat="43.53172110369915" lon="10.329069312138603"><ele>15.0</ele><time>2026-04-06T13:42:45Z</time></trkpt><trkpt lat="43.531700152302896" lon="10.329294533456805"><ele>15.0</ele><time>2026-04-06T13:42:46Z</time></trkpt><trkpt lat="43.53167231241737" lon="10.329529810856586"><ele>15.0</ele><time>2026-04-06T13:42:47Z</time></trkpt><trkpt lat="43.53164802761747" lon="10.329755212176812"><ele>15.0</ele><time>2026-04-06T13:42:48Z</time></trkpt><trkpt lat="43.531625748568956" lon="10.32995971034853"><ele>15.75</ele><time>2026-04-06T13:42:49Z</time></trkpt><trkpt lat="43.53160505951387" lon="10.330149439642387"><ele>16.5</ele><time>2026-04-06T13:42:50Z</time></trkpt><trkpt lat="43.5315867382125" lon="10.330334659280012"><ele>17.25</ele><time>2026-04-06T13:42:51Z</time></trkpt><trkpt lat="43.531568982539945" lon="10.330525680878745"><ele>18.0</ele><time>2026-04-06T13:42:52Z</time></trkpt><trkpt lat="43.53155006227383" lon="10.330711557586287"><ele>18.6</ele><time>2026-04-06T13:42:53Z</time></trkpt><trkpt lat="43.53153269916922" lon="10.330880240614034"><ele>19.200000000000003</ele><time>2026-04-06T13:42:54Z</time></trkpt><trkpt lat="43.531515852903865" lon="10.331025535249431"><ele>19.8</ele><time>2026-04-06T13:42:55Z</time></trkpt><trkpt lat="43.531501329591826" lon="10.331156175236858"><ele>20.400000000000002</ele><time>2026-04-06T13:42:56Z</time></trkpt><trkpt lat="43.5314806581213" lon="10.331283035084782"><ele>21.0</ele><time>2026-04-06T13:42:57Z</time></trkpt><trkpt lat="43.53141586683886" lon="10.331390464178215"><ele>20.666666666666668</ele><time>2026-04-06T13:42:58Z</time></trkpt><trkpt lat="43.53138625280935" lon="10.331503189911139"><ele>20.333333333333332</ele><time>2026-04-06T13:42:59Z</time></trkpt><trkpt lat="43.53138103860394" lon="10.331610600963112"><ele>20.0</ele><time>2026-04-06T13:43:00Z</time></trkpt><trkpt lat="43.531418241391" lon="10.331709043688297"><ele>19.666666666666664</ele><time>2026-04-06T13:43:01Z</time></trkpt><trkpt lat="43.5314459433706" lon="10.331796225682192"><ele>19.333333333333332</ele><time>2026-04-06T13:43:02Z</time></trkpt><trkpt lat="43.531564797257005" lon="10.33181111937433"><ele>19.0</ele><time>2026-04-06T13:43:03Z</time></trkpt><trkpt lat="43.5316554351579" lon="10.331838962153768"><ele>19.0</ele><time>2026-04-06T13:43:04Z</time></trkpt><trkpt lat="43.53176166265293" lon="10.331856715340807"><ele>19.0</ele><time>2026-04-06T13:43:05Z</time></trkpt><trkpt lat="43.53188405401815" lon="10.331870722761558"><ele>19.0</ele><time>2026-04-06T13:43:06Z</time></trkpt><trkpt lat="43.53199833766309" lon="10.33188931330021"><ele>19.0</ele><time>2026-04-06T13:43:07Z</time></trkpt><trkpt lat="43.53207842131788" lon="10.331901861403022"><ele>19.0</ele><time>2026-04-06T13:43:08Z</time></trkpt><trkpt lat="43.53214532658045" lon="10.331887607849922"><ele>19.0</ele><time>2026-04-06T13:43:09Z</time></trkpt><trkpt lat="43.53219878895371" lon="10.331834608385018"><ele>19.0</ele><time>2026-04-06T13:43:10Z</time></trkpt><trkpt lat="43.532238075757654" lon="10.33175190188575"><ele>19.0</ele><time>2026-04-06T13:43:11Z</time></trkpt><trkpt lat="43.53226022812651" lon="10.331650983894257"><ele>19.0</ele><time>2026-04-06T13:43:12Z</time></trkpt><trkpt lat="43.53225301254228" lon="10.331529317088249"><ele>19.0</ele><time>2026-04-06T13:43:13Z</time></trkpt><trkpt lat="43.53221144826369" lon="10.331415740979136"><ele>19.0</ele><time>2026-04-06T13:43:14Z</time></trkpt><trkpt lat="43.532241260531244" lon="10.331246286811835"><ele>19.0</ele><time>2026-04-06T13:43:15Z</time></trkpt><trkpt lat="43.532261580674536" lon="10.3310701506593"><ele>19.0</ele><time>2026-04-06T13:43:16Z</time></trkpt><trkpt lat="43.53228508144194" lon="10.330864376499292"><ele>19.0</ele><time>2026-04-06T13:43:17Z</time></trkpt><trkpt lat="43.532308036572836" lon="10.330633140370567"><ele>19.0</ele><time>2026-04-06T13:43:18Z</time></trkpt><trkpt lat="43.53233419378001" lon="10.330397440570776"><ele>19.0</ele><time>2026-04-06T13:43:19Z</time></trkpt><trkpt lat="43.532355804031354" lon="10.33017722964203"><ele>19.0</ele><time>2026-04-06T13:43:20Z</time></trkpt><trkpt lat="43.532376542837284" lon="10.329973658698046"><ele>19.0</ele><time>2026-04-06T13:43:21Z</time></trkpt><trkpt lat="43.53240224617212" lon="10.329781419127707"><ele>19.0</ele><time>2026-04-06T13:43:22Z</time></trkpt><trkpt lat="43.53242683383093" lon="10.329615797916107"><ele>19.0</ele><time>2026-04-06T13:43:23Z</time></trkpt><trkpt lat="43.53245643587423" lon="10.32946897427381"><ele>19.0</ele><time>2026-04-06T13:43:24Z</time></trkpt><trkpt lat="43.53249914077581" lon="10.3293422192556"><ele>18.2</ele><time>2026-04-06T13:43:25Z</time></trkpt><trkpt lat="43.53255013498585" lon="10.329229484692805"><ele>17.4</ele><time>2026-04-06T13:43:26Z</time></trkpt><trkpt lat="43.53260194520259" lon="10.329123181887484"><ele>16.6</ele><time>2026-04-06T13:43:27Z</time></trkpt><trkpt lat="43.53271354562569" lon="10.32910525638967"><ele>15.8</ele><time>2026-04-06T13:43:28Z</time></trkpt><trkpt lat="43.53278271177174" lon="10.32904292372661"><ele>15.0</ele><time>2026-04-06T13:43:29Z</time></trkpt><trkpt lat="43.53281755927704" lon="10.328952200380039"><ele>15.333333333333334</ele><time>2026-04-06T13:43:30Z</time></trkpt><trkpt lat="43.532840669925065" lon="10.328866775476408"><ele>15.666666666666668</ele><time>2026-04-06T13:43:31Z</time></trkpt><trkpt lat="43.53283125241487" lon="10.328776269990206"><ele>16.0</ele><time>2026-04-06T13:43:32Z</time></trkpt><trkpt lat="43.53280214076999" lon="10.328680557661096"><ele>16.333333333333336</ele><time>2026-04-06T13:43:33Z</time></trkpt><trkpt lat="43.532759906313274" lon="10.328585641887999"><ele>16.666666666666668</ele><time>2026-04-06T13:43:34Z</time></trkpt><trkpt lat="43.53269591625349" lon="10.328557453677556"><ele>17.0</ele><time>2026-04-06T13:43:35Z</time></trkpt><trkpt lat="43.532730755346016" lon="10.328384202244298"><ele>17.0</ele><time>2026-04-06T13:43:36Z</time></trkpt><trkpt lat="43.53274908755227" lon="10.328253734243285"><ele>17.0</ele><time>2026-04-06T13:43:37Z</time></trkpt><trkpt lat="43.532794193554004" lon="10.328110832462531"><ele>17.0</ele><time>2026-04-06T13:43:38Z</time></trkpt><trkpt lat="43.53284043027883" lon="10.327943819495815"><ele>17.0</ele><time>2026-04-06T13:43:39Z</time></trkpt><trkpt lat="43.532880483145405" lon="10.32775245467409"><ele>16.75</ele><time>2026-04-06T13:43:40Z</time></trkpt><trkpt lat="43.53292985950859" lon="10.327570552556764"><ele>16.5</ele><time>2026-04-06T13:43:41Z</time></trkpt><trkpt lat="43.53297395653781" lon="10.32740468758782"><ele>16.25</ele><time>2026-04-06T13:43:42Z</time></trkpt><trkpt lat="43.53299977248753" lon="10.327244531845949"><ele>16.0</ele><time>2026-04-06T13:43:43Z</time></trkpt><trkpt lat="43.53303107989708" lon="10.327091471630348"><ele>16.0</ele><time>2026-04-06T13:43:44Z</time></trkpt><trkpt lat="43.53303783606389" lon="10.326949731684627"><ele>16.0</ele><time>2026-04-06T13:43:45Z</time></trkpt><trkpt lat="43.53302480586427" lon="10.326812076720852"><ele>16.0</ele><time>2026-04-06T13:43:46Z</time></trkpt><trkpt lat="43.532992121735354" lon="10.326647524807237"><ele>16.0</ele><time>2026-04-06T13:43:47Z</time></trkpt><trkpt lat="43.53295921997568" lon="10.326455054548106"><ele>15.600000000000001</ele><time>2026-04-06T13:43:48Z</time></trkpt><trkpt lat="43.53292641621273" lon="10.326285036123755"><ele>15.200000000000001</ele><time>2026-04-06T13:43:49Z</time></trkpt><trkpt lat="43.53291930259585" lon="10.32614260803542"><ele>14.799999999999999</ele><time>2026-04-06T13:43:50Z</time></trkpt><trkpt lat="43.5329309194581" lon="10.326016140088326"><ele>14.399999999999999</ele><time>2026-04-06T13:43:51Z</time></trkpt><trkpt lat="43.53294426879337" lon="10.325860229957554"><ele>14.0</ele><time>2026-04-06T13:43:52Z</time></trkpt><trkpt lat="43.53299862779387" lon="10.325701978084702"><ele>14.666666666666668</ele><time>2026-04-06T13:43:53Z</time></trkpt><trkpt lat="43.533022275129746" lon="10.325496273588497"><ele>15.333333333333332</ele><time>2026-04-06T13:43:54Z</time></trkpt><trkpt lat="43.53307578332064" lon="10.325289476362283"><ele>16.0</ele><time>2026-04-06T13:43:55Z</time></trkpt><trkpt lat="43.53312327881065" lon="10.325098631356944"><ele>16.0</ele><time>2026-04-06T13:43:56Z</time></trkpt><trkpt lat="43.53316046641027" lon="10.324935787557305"><ele>16.0</ele><time>2026-04-06T13:43:57Z</time></trkpt><trkpt lat="43.53319576840411" lon="10.324780727718673"><ele>16.0</ele><time>2026-04-06T13:43:58Z</time></trkpt><trkpt lat="43.53323468622529" lon="10.324635441111774"><ele>16.0</ele><time>2026-04-06T13:43:59Z</time></trkpt><trkpt lat="43.5332837379158" lon="10.32450100098855"><ele>15.75</ele><time>2026-04-06T13:44:00Z</time></trkpt><trkpt lat="43.533345744249154" lon="10.324389596464304"><ele>15.5</ele><time>2026-04-06T13:44:01Z</time></trkpt><trkpt lat="43.53343285032355" lon="10.324295342062156"><ele>15.25</ele><time>2026-04-06T13:44:02Z</time></trkpt><trkpt lat="43.53353402591323" lon="10.324205690353631"><ele>15.0</ele><time>2026-04-06T13:44:03Z</time></trkpt><trkpt lat="43.53364587974892" lon="10.324136832112691"><ele>15.2</ele><time>2026-04-06T13:44:04Z</time></trkpt><trkpt lat="43.53374732377968" lon="10.324096930939225"><ele>15.4</ele><time>2026-04-06T13:44:05Z</time></trkpt><trkpt lat="43.53384524420983" lon="10.32407079871804"><ele>15.600000000000001</ele><time>2026-04-06T13:44:06Z</time></trkpt><trkpt lat="43.53394843895021" lon="10.324028500547735"><ele>15.8</ele><time>2026-04-06T13:44:07Z</time></trkpt><trkpt lat="43.53403385037456" lon="10.323968789242326"><ele>16.0</ele><time>2026-04-06T13:44:08Z</time></trkpt><trkpt lat="43.53410425794966" lon="10.32390691052236"><ele>15.833333333333332</ele><time>2026-04-06T13:44:09Z</time></trkpt><trkpt lat="43.53417223954879" lon="10.32385208266931"><ele>15.666666666666666</ele><time>2026-04-06T13:44:10Z</time></trkpt><trkpt lat="43.53423907383675" lon="10.323784369509006"><ele>15.5</ele><time>2026-04-06T13:44:11Z</time></trkpt><trkpt lat="43.53430421192914" lon="10.323713911440684"><ele>15.333333333333332</ele><time>2026-04-06T13:44:12Z</time></trkpt><trkpt lat="43.53437378646941" lon="10.323646366815538"><ele>15.166666666666666</ele><time>2026-04-06T13:44:13Z</time></trkpt><trkpt lat="43.53444226015668" lon="10.32358987691136"><ele>15.0</ele><time>2026-04-06T13:44:14Z</time></trkpt><trkpt lat="43.534517681837684" lon="10.323548331626426"><ele>15.2</ele><time>2026-04-06T13:44:15Z</time></trkpt><trkpt lat="43.53460218574536" lon="10.32352877114433"><ele>15.4</ele><time>2026-04-06T13:44:16Z</time></trkpt><trkpt lat="43.534690527701166" lon="10.3235243182416"><ele>15.600000000000001</ele><time>2026-04-06T13:44:17Z</time></trkpt><trkpt lat="43.53478304723287" lon="10.323535843580542"><ele>15.8</ele><time>2026-04-06T13:44:18Z</time></trkpt><trkpt lat="43.534877827810604" lon="10.323550500641517"><ele>16.0</ele><time>2026-04-06T13:44:19Z</time></trkpt><trkpt lat="43.534974165164215" lon="10.32356073155969"><ele>16.0</ele><time>2026-04-06T13:44:20Z</time></trkpt><trkpt lat="43.53507196795323" lon="10.323561158794982"><ele>16.0</ele><time>2026-04-06T13:44:21Z</time></trkpt><trkpt lat="43.53517534719379" lon="10.323554045477222"><ele>16.0</ele><time>2026-04-06T13:44:22Z</time></trkpt><trkpt lat="43.5352733195773" lon="10.323544756160075"><ele>16.0</ele><time>2026-04-06T13:44:23Z</time></trkpt><trkpt lat="43.5353505406242" lon="10.32354624612464"><ele>16.0</ele><time>2026-04-06T13:44:24Z</time></trkpt><trkpt lat="43.535419770989115" lon="10.323509535138111"><ele>15.833333333333332</ele><time>2026-04-06T13:44:25Z</time></trkpt><trkpt lat="43.53548823800742" lon="10.32349006642028"><ele>15.666666666666666</ele><time>2026-04-06T13:44:26Z</time></trkpt><trkpt lat="43.53558780349499" lon="10.323509653483915"><ele>15.5</ele><time>2026-04-06T13:44:28Z</time></trkpt><trkpt lat="43.53566141656217" lon="10.323506343515014"><ele>15.333333333333332</ele><time>2026-04-06T13:44:30Z</time></trkpt><trkpt lat="43.53569218575644" lon="10.323423576822295"><ele>15.166666666666666</ele><time>2026-04-06T13:44:31Z</time></trkpt><trkpt lat="43.53577251864011" lon="10.323473463363793"><ele>15.0</ele><time>2026-04-06T13:44:33Z</time></trkpt><trkpt lat="43.53585291535664" lon="10.323424769025333"><ele>15.0</ele><time>2026-04-06T13:44:35Z</time></trkpt><trkpt lat="43.53597302109894" lon="10.323355940653407"><ele>15.0</ele><time>2026-04-06T13:44:37Z</time></trkpt><trkpt lat="43.53605580889627" lon="10.323285406637767"><ele>15.0</ele><time>2026-04-06T13:44:39Z</time></trkpt><trkpt lat="43.5361235762476" lon="10.323187447024047"><ele>15.0</ele><time>2026-04-06T13:44:42Z</time></trkpt><trkpt lat="43.5362112949082" lon="10.323137202161218"><ele>15.0</ele><time>2026-04-06T13:44:44Z</time></trkpt><trkpt lat="43.536327792587045" lon="10.32308122733019"><ele>15.0</ele><time>2026-04-06T13:44:46Z</time></trkpt><trkpt lat="43.53638892603043" lon="10.323048600374749"><ele>15.0</ele><time>2026-04-06T13:44:47Z</time></trkpt><trkpt lat="43.536450882951826" lon="10.323019051303772"><ele>15.0</ele><time>2026-04-06T13:44:48Z</time></trkpt><trkpt lat="43.536520861719865" lon="10.322992724025388"><ele>15.0</ele><time>2026-04-06T13:44:49Z</time></trkpt><trkpt lat="43.536595142478085" lon="10.322957094824313"><ele>15.0</ele><time>2026-04-06T13:44:50Z</time></trkpt><trkpt lat="43.536667070607464" lon="10.322918747431286"><ele>15.0</ele><time>2026-04-06T13:44:51Z</time></trkpt><trkpt lat="43.53674256441107" lon="10.322891579063663"><ele>15.0</ele><time>2026-04-06T13:44:52Z</time></trkpt><trkpt lat="43.53681204041131" lon="10.322852469894524"><ele>15.0</ele><time>2026-04-06T13:44:53Z</time></trkpt><trkpt lat="43.53688579059053" lon="10.32281937437899"><ele>15.0</ele><time>2026-04-06T13:44:54Z</time></trkpt><trkpt lat="43.53696026741076" lon="10.322790888952015"><ele>15.0</ele><time>2026-04-06T13:44:55Z</time></trkpt><trkpt lat="43.53703829747518" lon="10.322762041087282"><ele>15.0</ele><time>2026-04-06T13:44:56Z</time></trkpt><trkpt lat="43.53712738704483" lon="10.32272629401829"><ele>15.0</ele><time>2026-04-06T13:44:57Z</time></trkpt><trkpt lat="43.537248365508354" lon="10.322678828899914"><ele>15.5</ele><time>2026-04-06T13:44:58Z</time></trkpt><trkpt lat="43.537380672165725" lon="10.322645027426818"><ele>16.0</ele><time>2026-04-06T13:44:59Z</time></trkpt><trkpt lat="43.53750219751399" lon="10.322626159112039"><ele>16.5</ele><time>2026-04-06T13:45:00Z</time></trkpt><trkpt lat="43.537625949033185" lon="10.322613874571445"><ele>17.0</ele><time>2026-04-06T13:45:01Z</time></trkpt><trkpt lat="43.53774665240289" lon="10.322615023303825"><ele>17.0</ele><time>2026-04-06T13:45:02Z</time></trkpt><trkpt lat="43.53786471136171" lon="10.32262899182789"><ele>17.0</ele><time>2026-04-06T13:45:03Z</time></trkpt><trkpt lat="43.53798411209776" lon="10.322642339083062"><ele>17.0</ele><time>2026-04-06T13:45:04Z</time></trkpt><trkpt lat="43.53809711850708" lon="10.322664741483607"><ele>17.0</ele><time>2026-04-06T13:45:05Z</time></trkpt><trkpt lat="43.53821360469001" lon="10.322697655693839"><ele>16.75</ele><time>2026-04-06T13:45:06Z</time></trkpt><trkpt lat="43.53833492423723" lon="10.322742190106762"><ele>16.5</ele><time>2026-04-06T13:45:07Z</time></trkpt><trkpt lat="43.53845260184134" lon="10.322795800014115"><ele>16.25</ele><time>2026-04-06T13:45:08Z</time></trkpt><trkpt lat="43.53856537882929" lon="10.322847311465976"><ele>16.0</ele><time>2026-04-06T13:45:09Z</time></trkpt><trkpt lat="43.538671504283535" lon="10.32290970431725"><ele>15.75</ele><time>2026-04-06T13:45:10Z</time></trkpt><trkpt lat="43.53877782672907" lon="10.322984658804488"><ele>15.5</ele><time>2026-04-06T13:45:11Z</time></trkpt><trkpt lat="43.53887991615989" lon="10.323059058737847"><ele>15.25</ele><time>2026-04-06T13:45:12Z</time></trkpt><trkpt lat="43.53899392708967" lon="10.323163643523458"><ele>15.0</ele><time>2026-04-06T13:45:13Z</time></trkpt><trkpt lat="43.539100531873004" lon="10.32324236189418"><ele>14.75</ele><time>2026-04-06T13:45:14Z</time></trkpt><trkpt lat="43.539192875057374" lon="10.323316599929234"><ele>14.5</ele><time>2026-04-06T13:45:15Z</time></trkpt><trkpt lat="43.53930356042229" lon="10.323392074985888"><ele>14.25</ele><time>2026-04-06T13:45:16Z</time></trkpt><trkpt lat="43.539425519470846" lon="10.323469867957384"><ele>14.0</ele><time>2026-04-06T13:45:17Z</time></trkpt><trkpt lat="43.53953421807134" lon="10.323539371602093"><ele>14.0</ele><time>2026-04-06T13:45:18Z</time></trkpt><trkpt lat="43.539639905468434" lon="10.323613823345218"><ele>14.0</ele><time>2026-04-06T13:45:19Z</time></trkpt><trkpt lat="43.53974657783689" lon="10.32369509446543"><ele>14.0</ele><time>2026-04-06T13:45:20Z</time></trkpt><trkpt lat="43.539862508060246" lon="10.323781359960131"><ele>14.0</ele><time>2026-04-06T13:45:21Z</time></trkpt><trkpt lat="43.53998165106763" lon="10.32386995522781"><ele>14.25</ele><time>2026-04-06T13:45:22Z</time></trkpt><trkpt lat="43.54010409730031" lon="10.323961706062796"><ele>14.5</ele><time>2026-04-06T13:45:23Z</time></trkpt><trkpt lat="43.540199249220144" lon="10.324044150624111"><ele>14.75</ele><time>2026-04-06T13:45:24Z</time></trkpt><trkpt lat="43.540289569091804" lon="10.324118110026397"><ele>15.0</ele><time>2026-04-06T13:45:25Z</time></trkpt><trkpt lat="43.54037331291629" lon="10.324188662244117"><ele>14.833333333333334</ele><time>2026-04-06T13:45:26Z</time></trkpt><trkpt lat="43.540453820768015" lon="10.324241821313349"><ele>14.666666666666668</ele><time>2026-04-06T13:45:27Z</time></trkpt><trkpt lat="43.54052039051997" lon="10.324296090803596"><ele>14.5</ele><time>2026-04-06T13:45:28Z</time></trkpt><trkpt lat="43.54060603793179" lon="10.324378538422167"><ele>14.333333333333334</ele><time>2026-04-06T13:45:30Z</time></trkpt><trkpt lat="43.540671079544246" lon="10.324430834130201"><ele>14.166666666666668</ele><time>2026-04-06T13:45:33Z</time></trkpt><trkpt lat="43.540734392731906" lon="10.324455790266676"><ele>14.0</ele><time>2026-04-06T13:46:35Z</time></trkpt><trkpt lat="43.540860560439796" lon="10.324543582151467"><ele>14.0</ele><time>2026-04-06T13:46:37Z</time></trkpt><trkpt lat="43.540933150342354" lon="10.324604087040512"><ele>13.999999999999998</ele><time>2026-04-06T13:46:38Z</time></trkpt><trkpt lat="43.54101440364407" lon="10.324662271310382"><ele>13.999999999999998</ele><time>2026-04-06T13:46:39Z</time></trkpt><trkpt lat="43.54110475700828" lon="10.32472496656225"><ele>14.0</ele><time>2026-04-06T13:46:40Z</time></trkpt><trkpt lat="43.541200096891124" lon="10.324798601637147"><ele>14.0</ele><time>2026-04-06T13:46:41Z</time></trkpt><trkpt lat="43.54130553879711" lon="10.324879324605844"><ele>14.75</ele><time>2026-04-06T13:46:42Z</time></trkpt><trkpt lat="43.541412863309986" lon="10.324964573092755"><ele>15.5</ele><time>2026-04-06T13:46:43Z</time></trkpt><trkpt lat="43.5415276476041" lon="10.325054541746809"><ele>16.25</ele><time>2026-04-06T13:46:44Z</time></trkpt><trkpt lat="43.54165225089891" lon="10.325137555985787"><ele>17.0</ele><time>2026-04-06T13:46:45Z</time></trkpt><trkpt lat="43.54176453401227" lon="10.325224542173508"><ele>17.0</ele><time>2026-04-06T13:46:46Z</time></trkpt><trkpt lat="43.541882099270076" lon="10.325309932061717"><ele>17.0</ele><time>2026-04-06T13:46:47Z</time></trkpt><trkpt lat="43.54199976919971" lon="10.325396210506042"><ele>17.0</ele><time>2026-04-06T13:46:48Z</time></trkpt><trkpt lat="43.54212524063196" lon="10.325484822314532"><ele>17.0</ele><time>2026-04-06T13:46:49Z</time></trkpt><trkpt lat="43.54224582013959" lon="10.325581607747921"><ele>17.0</ele><time>2026-04-06T13:46:50Z</time></trkpt><trkpt lat="43.54236887650336" lon="10.32567237740506"><ele>17.0</ele><time>2026-04-06T13:46:51Z</time></trkpt><trkpt lat="43.54249541025516" lon="10.325761254061396"><ele>17.0</ele><time>2026-04-06T13:46:52Z</time></trkpt><trkpt lat="43.54262294699268" lon="10.325856661338403"><ele>17.0</ele><time>2026-04-06T13:46:53Z</time></trkpt><trkpt lat="43.542746310885164" lon="10.325959612494982"><ele>17.0</ele><time>2026-04-06T13:46:54Z</time></trkpt><trkpt lat="43.542879039302285" lon="10.326058886663596"><ele>17.0</ele><time>2026-04-06T13:46:55Z</time></trkpt><trkpt lat="43.54301478082248" lon="10.326160602207066"><ele>17.0</ele><time>2026-04-06T13:46:56Z</time></trkpt><trkpt lat="43.543150716906446" lon="10.326265953100908"><ele>17.0</ele><time>2026-04-06T13:46:57Z</time></trkpt><trkpt lat="43.54328640525692" lon="10.326368798575727"><ele>17.0</ele><time>2026-04-06T13:46:58Z</time></trkpt><trkpt lat="43.543417023973824" lon="10.326461258622402"><ele>17.0</ele><time>2026-04-06T13:46:59Z</time></trkpt><trkpt lat="43.543542347072" lon="10.326550866198533"><ele>17.0</ele><time>2026-04-06T13:47:00Z</time></trkpt><trkpt lat="43.54366857369539" lon="10.326645442629525"><ele>16.75</ele><time>2026-04-06T13:47:01Z</time></trkpt><trkpt lat="43.54379736145009" lon="10.326741425159161"><ele>16.5</ele><time>2026-04-06T13:47:02Z</time></trkpt><trkpt lat="43.54392751186035" lon="10.326836809341255"><ele>16.25</ele><time>2026-04-06T13:47:03Z</time></trkpt><trkpt lat="43.54404989242278" lon="10.326931482162806"><ele>16.0</ele><time>2026-04-06T13:47:04Z</time></trkpt><trkpt lat="43.54417266801968" lon="10.327024998326145"><ele>16.0</ele><time>2026-04-06T13:47:05Z</time></trkpt><trkpt lat="43.54428728003111" lon="10.327121848413617"><ele>16.0</ele><time>2026-04-06T13:47:06Z</time></trkpt><trkpt lat="43.54440372964856" lon="10.327214159817192"><ele>16.0</ele><time>2026-04-06T13:47:07Z</time></trkpt><trkpt lat="43.54451884087304" lon="10.327299798491056"><ele>16.0</ele><time>2026-04-06T13:47:08Z</time></trkpt><trkpt lat="43.54463501133176" lon="10.327376049166071"><ele>16.0</ele><time>2026-04-06T13:47:09Z</time></trkpt><trkpt lat="43.544742261129144" lon="10.327447530058034"><ele>16.0</ele><time>2026-04-06T13:47:10Z</time></trkpt><trkpt lat="43.544847807846736" lon="10.327512602898425"><ele>16.0</ele><time>2026-04-06T13:47:11Z</time></trkpt><trkpt lat="43.54495274777632" lon="10.327572623757495"><ele>16.0</ele><time>2026-04-06T13:47:12Z</time></trkpt><trkpt lat="43.545053933638165" lon="10.327635658562516"><ele>16.0</ele><time>2026-04-06T13:47:13Z</time></trkpt><trkpt lat="43.545164091470625" lon="10.327692693976955"><ele>16.0</ele><time>2026-04-06T13:47:14Z</time></trkpt><trkpt lat="43.54528202708782" lon="10.327743589987497"><ele>16.0</ele><time>2026-04-06T13:47:15Z</time></trkpt><trkpt lat="43.545389327840184" lon="10.327790325966301"><ele>16.0</ele><time>2026-04-06T13:47:16Z</time></trkpt><trkpt lat="43.54550732231458" lon="10.327830885121942"><ele>16.25</ele><time>2026-04-06T13:47:17Z</time></trkpt><trkpt lat="43.545625939033926" lon="10.32783708987085"><ele>16.5</ele><time>2026-04-06T13:47:18Z</time></trkpt><trkpt lat="43.54575449387032" lon="10.327857732433433"><ele>16.75</ele><time>2026-04-06T13:47:19Z</time></trkpt><trkpt lat="43.54589397153171" lon="10.327880128912092"><ele>17.0</ele><time>2026-04-06T13:47:20Z</time></trkpt><trkpt lat="43.54604054997254" lon="10.327898782800053"><ele>17.0</ele><time>2026-04-06T13:47:21Z</time></trkpt><trkpt lat="43.54619565844944" lon="10.327909284934128"><ele>17.0</ele><time>2026-04-06T13:47:22Z</time></trkpt><trkpt lat="43.54634145352603" lon="10.327911354229176"><ele>17.0</ele><time>2026-04-06T13:47:23Z</time></trkpt><trkpt lat="43.546473469452586" lon="10.327925691485467"><ele>17.0</ele><time>2026-04-06T13:47:24Z</time></trkpt><trkpt lat="43.546616946643816" lon="10.32790618255724"><ele>16.5</ele><time>2026-04-06T13:47:25Z</time></trkpt><trkpt lat="43.54676844885043" lon="10.327891264092049"><ele>16.0</ele><time>2026-04-06T13:47:26Z</time></trkpt><trkpt lat="43.54690982570226" lon="10.3278864495664"><ele>15.5</ele><time>2026-04-06T13:47:27Z</time></trkpt><trkpt lat="43.547044409615566" lon="10.32788164164373"><ele>15.0</ele><time>2026-04-06T13:47:28Z</time></trkpt><trkpt lat="43.54717692771706" lon="10.327876676656599"><ele>15.0</ele><time>2026-04-06T13:47:29Z</time></trkpt><trkpt lat="43.5472934849862" lon="10.32784524526385"><ele>15.0</ele><time>2026-04-06T13:47:30Z</time></trkpt><trkpt lat="43.54739966188847" lon="10.32783626736964"><ele>15.0</ele><time>2026-04-06T13:47:32Z</time></trkpt><trkpt lat="43.54746885741548" lon="10.327849235930657"><ele>15.0</ele><time>2026-04-06T13:47:33Z</time></trkpt><trkpt lat="43.547539957389624" lon="10.327837424048933"><ele>15.0</ele><time>2026-04-06T13:47:34Z</time></trkpt><trkpt lat="43.547607855597654" lon="10.327797752622356"><ele>15.0</ele><time>2026-04-06T13:47:37Z</time></trkpt><trkpt lat="43.547705586106936" lon="10.327773235972407"><ele>15.0</ele><time>2026-04-06T13:47:39Z</time></trkpt><trkpt lat="43.54780185223399" lon="10.327765578070352"><ele>15.0</ele><time>2026-04-06T13:47:41Z</time></trkpt><trkpt lat="43.54790574491518" lon="10.327759605593535"><ele>15.0</ele><time>2026-04-06T13:47:43Z</time></trkpt><trkpt lat="43.54800014217" lon="10.327729136534709"><ele>15.0</ele><time>2026-04-06T13:47:45Z</time></trkpt><trkpt lat="43.548100546684275" lon="10.327717983827041"><ele>15.0</ele><time>2026-04-06T13:47:47Z</time></trkpt><trkpt lat="43.54817036490007" lon="10.32771280443699"><ele>15.0</ele><time>2026-04-06T13:47:48Z</time></trkpt><trkpt lat="43.548253210762454" lon="10.32769983963177"><ele>15.0</ele><time>2026-04-06T13:47:49Z</time></trkpt><trkpt lat="43.5483329603786" lon="10.327718037466502"><ele>15.0</ele><time>2026-04-06T13:47:50Z</time></trkpt><trkpt lat="43.54841860108664" lon="10.32771163959272"><ele>15.0</ele><time>2026-04-06T13:47:51Z</time></trkpt><trkpt lat="43.548509655812175" lon="10.327704569410212"><ele>15.0</ele><time>2026-04-06T13:47:52Z</time></trkpt><trkpt lat="43.548606979461326" lon="10.3276974715357"><ele>15.0</ele><time>2026-04-06T13:47:53Z</time></trkpt><trkpt lat="43.54871210490061" lon="10.327690828336525"><ele>15.25</ele><time>2026-04-06T13:47:54Z</time></trkpt><trkpt lat="43.54881361865474" lon="10.327677316073204"><ele>15.5</ele><time>2026-04-06T13:47:55Z</time></trkpt><trkpt lat="43.54892085618537" lon="10.32766488421881"><ele>15.75</ele><time>2026-04-06T13:47:56Z</time></trkpt><trkpt lat="43.5490420114284" lon="10.327659363687872"><ele>16.0</ele><time>2026-04-06T13:47:57Z</time></trkpt><trkpt lat="43.54916257921497" lon="10.32765470122325"><ele>16.0</ele><time>2026-04-06T13:47:58Z</time></trkpt><trkpt lat="43.549288020510495" lon="10.3276490974357"><ele>16.0</ele><time>2026-04-06T13:47:59Z</time></trkpt><trkpt lat="43.54940660732797" lon="10.327637104506143"><ele>16.0</ele><time>2026-04-06T13:48:00Z</time></trkpt><trkpt lat="43.54953201772525" lon="10.327621299957741"><ele>16.0</ele><time>2026-04-06T13:48:01Z</time></trkpt><trkpt lat="43.54965626351736" lon="10.327611329190576"><ele>15.25</ele><time>2026-04-06T13:48:02Z</time></trkpt><trkpt lat="43.549771367397156" lon="10.32760293435559"><ele>14.5</ele><time>2026-04-06T13:48:03Z</time></trkpt><trkpt lat="43.54989221021463" lon="10.327594531750899"><ele>13.75</ele><time>2026-04-06T13:48:04Z</time></trkpt><trkpt lat="43.55001176335073" lon="10.327587556658843"><ele>13.0</ele><time>2026-04-06T13:48:05Z</time></trkpt><trkpt lat="43.550140515088486" lon="10.327573163110758"><ele>13.0</ele><time>2026-04-06T13:48:06Z</time></trkpt><trkpt lat="43.55027578157118" lon="10.327558619886876"><ele>13.0</ele><time>2026-04-06T13:48:07Z</time></trkpt><trkpt lat="43.55040270371138" lon="10.327547947929641"><ele>13.0</ele><time>2026-04-06T13:48:08Z</time></trkpt><trkpt lat="43.550520309321364" lon="10.327534792282528"><ele>13.0</ele><time>2026-04-06T13:48:09Z</time></trkpt><trkpt lat="43.55063224774165" lon="10.327523819337774"><ele>14.0</ele><time>2026-04-06T13:48:10Z</time></trkpt><trkpt lat="43.550743979960366" lon="10.327510808658433"><ele>15.0</ele><time>2026-04-06T13:48:11Z</time></trkpt><trkpt lat="43.55086224573696" lon="10.327505593803785"><ele>16.0</ele><time>2026-04-06T13:48:12Z</time></trkpt><trkpt lat="43.55098156414806" lon="10.32749513100924"><ele>17.0</ele><time>2026-04-06T13:48:13Z</time></trkpt><trkpt lat="43.55109736568237" lon="10.327487911739992"><ele>17.0</ele><time>2026-04-06T13:48:14Z</time></trkpt><trkpt lat="43.551207944207235" lon="10.327480223940595"><ele>17.0</ele><time>2026-04-06T13:48:15Z</time></trkpt><trkpt lat="43.551318265569115" lon="10.32746783914137"><ele>17.0</ele><time>2026-04-06T13:48:16Z</time></trkpt><trkpt lat="43.55143207598778" lon="10.327458722567144"><ele>17.0</ele><time>2026-04-06T13:48:17Z</time></trkpt><trkpt lat="43.55154953349281" lon="10.32744513498051"><ele>17.0</ele><time>2026-04-06T13:48:18Z</time></trkpt><trkpt lat="43.55167053766001" lon="10.327436458295523"><ele>17.0</ele><time>2026-04-06T13:48:19Z</time></trkpt><trkpt lat="43.55178571641366" lon="10.327420759847527"><ele>17.0</ele><time>2026-04-06T13:48:20Z</time></trkpt><trkpt lat="43.551900210462925" lon="10.327404943549388"><ele>17.0</ele><time>2026-04-06T13:48:21Z</time></trkpt><trkpt lat="43.552012019548165" lon="10.327393224933198"><ele>16.4</ele><time>2026-04-06T13:48:22Z</time></trkpt><trkpt lat="43.55212280941049" lon="10.327383674217929"><ele>15.799999999999999</ele><time>2026-04-06T13:48:23Z</time></trkpt><trkpt lat="43.55223315603886" lon="10.327375137972188"><ele>15.2</ele><time>2026-04-06T13:48:24Z</time></trkpt><trkpt lat="43.55234616228933" lon="10.327366611447317"><ele>14.6</ele><time>2026-04-06T13:48:25Z</time></trkpt><trkpt lat="43.55245597822672" lon="10.327359894265227"><ele>14.0</ele><time>2026-04-06T13:48:26Z</time></trkpt><trkpt lat="43.552559997789835" lon="10.32735696688322"><ele>14.000000000000002</ele><time>2026-04-06T13:48:27Z</time></trkpt><trkpt lat="43.552646040807076" lon="10.327352898180022"><ele>14.0</ele><time>2026-04-06T13:48:28Z</time></trkpt><trkpt lat="43.552722981936896" lon="10.327346034739158"><ele>14.0</ele><time>2026-04-06T13:48:29Z</time></trkpt><trkpt lat="43.552789480960314" lon="10.32733658204138"><ele>14.0</ele><time>2026-04-06T13:48:30Z</time></trkpt><trkpt lat="43.55289297583629" lon="10.327325666367484"><ele>14.000000000000002</ele><time>2026-04-06T13:48:32Z</time></trkpt><trkpt lat="43.55297281255063" lon="10.327314677571076"><ele>14.0</ele><time>2026-04-06T13:48:34Z</time></trkpt><trkpt lat="43.55304509981659" lon="10.32729858796662"><ele>13.833333333333334</ele><time>2026-04-06T13:48:36Z</time></trkpt><trkpt lat="43.5531242257824" lon="10.327303322402901"><ele>13.666666666666668</ele><time>2026-04-06T13:48:39Z</time></trkpt><trkpt lat="43.5531901841189" lon="10.327296546091516"><ele>13.5</ele><time>2026-04-06T13:48:43Z</time></trkpt><trkpt lat="43.553281621552976" lon="10.327273272204248"><ele>13.333333333333332</ele><time>2026-04-06T13:48:45Z</time></trkpt><trkpt lat="43.55335575599489" lon="10.327257839988347"><ele>13.166666666666666</ele><time>2026-04-06T13:48:46Z</time></trkpt><trkpt lat="43.553455741638565" lon="10.327249318337458"><ele>13.0</ele><time>2026-04-06T13:48:47Z</time></trkpt><trkpt lat="43.553585463896034" lon="10.327258312744737"><ele>13.333333333333332</ele><time>2026-04-06T13:48:48Z</time></trkpt><trkpt lat="43.5537415480296" lon="10.327246992953059"><ele>13.666666666666668</ele><time>2026-04-06T13:48:49Z</time></trkpt><trkpt lat="43.553901894099496" lon="10.327211206938163"><ele>14.0</ele><time>2026-04-06T13:48:50Z</time></trkpt><trkpt lat="43.55404835046819" lon="10.327202867594288"><ele>13.5</ele><time>2026-04-06T13:48:51Z</time></trkpt><trkpt lat="43.55418523319754" lon="10.32719097783775"><ele>13.0</ele><time>2026-04-06T13:48:52Z</time></trkpt><trkpt lat="43.55432008025804" lon="10.327191735228197"><ele>12.5</ele><time>2026-04-06T13:48:53Z</time></trkpt><trkpt lat="43.55444825913833" lon="10.327189779730809"><ele>12.0</ele><time>2026-04-06T13:48:54Z</time></trkpt><trkpt lat="43.55457743787575" lon="10.327187803190998"><ele>12.0</ele><time>2026-04-06T13:48:55Z</time></trkpt><trkpt lat="43.554718451506204" lon="10.327171978690664"><ele>12.0</ele><time>2026-04-06T13:48:56Z</time></trkpt><trkpt lat="43.554840630591094" lon="10.327155160377089"><ele>12.0</ele><time>2026-04-06T13:48:57Z</time></trkpt><trkpt lat="43.55493955901721" lon="10.327145706359861"><ele>12.0</ele><time>2026-04-06T13:48:58Z</time></trkpt><trkpt lat="43.555037223954045" lon="10.327140867816794"><ele>12.0</ele><time>2026-04-06T13:48:59Z</time></trkpt><trkpt lat="43.55513645968861" lon="10.327134789573272"><ele>12.0</ele><time>2026-04-06T13:49:00Z</time></trkpt><trkpt lat="43.555242856191626" lon="10.327123182987052"><ele>12.0</ele><time>2026-04-06T13:49:01Z</time></trkpt><trkpt lat="43.555366207040485" lon="10.327105885953657"><ele>12.0</ele><time>2026-04-06T13:49:02Z</time></trkpt><trkpt lat="43.555472937178024" lon="10.327101567761336"><ele>12.0</ele><time>2026-04-06T13:49:03Z</time></trkpt><trkpt lat="43.55557151643499" lon="10.327089670147688"><ele>12.0</ele><time>2026-04-06T13:49:04Z</time></trkpt><trkpt lat="43.55566517677305" lon="10.327083295403327"><ele>12.0</ele><time>2026-04-06T13:49:05Z</time></trkpt><trkpt lat="43.555764827452585" lon="10.327075653766887"><ele>12.0</ele><time>2026-04-06T13:49:06Z</time></trkpt><trkpt lat="43.5558694754797" lon="10.327069948693433"><ele>12.0</ele><time>2026-04-06T13:49:07Z</time></trkpt><trkpt lat="43.5559743050776" lon="10.327062583007267"><ele>12.0</ele><time>2026-04-06T13:49:08Z</time></trkpt><trkpt lat="43.556087212293434" lon="10.327053571009747"><ele>12.75</ele><time>2026-04-06T13:49:09Z</time></trkpt><trkpt lat="43.556216123966735" lon="10.327040469881366"><ele>13.5</ele><time>2026-04-06T13:49:10Z</time></trkpt><trkpt lat="43.55633988774118" lon="10.327020550145475"><ele>14.25</ele><time>2026-04-06T13:49:11Z</time></trkpt><trkpt lat="43.55646795735683" lon="10.327008619424104"><ele>15.0</ele><time>2026-04-06T13:49:12Z</time></trkpt><trkpt lat="43.55660363181017" lon="10.326981384476408"><ele>15.0</ele><time>2026-04-06T13:49:13Z</time></trkpt><trkpt lat="43.55674192394325" lon="10.326967983078083"><ele>15.0</ele><time>2026-04-06T13:49:14Z</time></trkpt><trkpt lat="43.55688102612986" lon="10.326954741348205"><ele>15.0</ele><time>2026-04-06T13:49:15Z</time></trkpt><trkpt lat="43.55701891603471" lon="10.326941232187183"><ele>15.0</ele><time>2026-04-06T13:49:16Z</time></trkpt><trkpt lat="43.557155453568136" lon="10.326920855487684"><ele>15.0</ele><time>2026-04-06T13:49:17Z</time></trkpt><trkpt lat="43.55729423457307" lon="10.326903002731573"><ele>15.0</ele><time>2026-04-06T13:49:18Z</time></trkpt><trkpt lat="43.557438751924046" lon="10.326897526094202"><ele>15.0</ele><time>2026-04-06T13:49:19Z</time></trkpt><trkpt lat="43.55758493446212" lon="10.326880854474135"><ele>15.0</ele><time>2026-04-06T13:49:20Z</time></trkpt><trkpt lat="43.55771535943675" lon="10.326871268856083"><ele>15.0</ele><time>2026-04-06T13:49:21Z</time></trkpt><trkpt lat="43.55784180393465" lon="10.326854700257456"><ele>15.0</ele><time>2026-04-06T13:49:22Z</time></trkpt><trkpt lat="43.557963319531986" lon="10.326842716967642"><ele>15.0</ele><time>2026-04-06T13:49:23Z</time></trkpt><trkpt lat="43.55808316166135" lon="10.326838899373113"><ele>15.0</ele><time>2026-04-06T13:49:24Z</time></trkpt><trkpt lat="43.558203668701054" lon="10.326831030612801"><ele>16.25</ele><time>2026-04-06T13:49:25Z</time></trkpt><trkpt lat="43.558324773811464" lon="10.326817756865921"><ele>17.5</ele><time>2026-04-06T13:49:26Z</time></trkpt><trkpt lat="43.55845315027165" lon="10.326802776078353"><ele>18.75</ele><time>2026-04-06T13:49:27Z</time></trkpt><trkpt lat="43.55857981573701" lon="10.326786086827191"><ele>20.0</ele><time>2026-04-06T13:49:28Z</time></trkpt><trkpt lat="43.558698632864974" lon="10.326768929979718"><ele>19.2</ele><time>2026-04-06T13:49:29Z</time></trkpt><trkpt lat="43.55881109891167" lon="10.326757519672658"><ele>18.4</ele><time>2026-04-06T13:49:30Z</time></trkpt><trkpt lat="43.558915341450785" lon="10.326749763164045"><ele>17.6</ele><time>2026-04-06T13:49:31Z</time></trkpt><trkpt lat="43.559012897855645" lon="10.326734282621311"><ele>16.8</ele><time>2026-04-06T13:49:32Z</time></trkpt><trkpt lat="43.5591053798188" lon="10.326716927543503"><ele>16.0</ele><time>2026-04-06T13:49:33Z</time></trkpt><trkpt lat="43.55918583663574" lon="10.326699123680129"><ele>15.999999999999998</ele><time>2026-04-06T13:49:34Z</time></trkpt><trkpt lat="43.55925998798541" lon="10.326677343373571"><ele>16.0</ele><time>2026-04-06T13:49:35Z</time></trkpt><trkpt lat="43.559326116305236" lon="10.326655831158318"><ele>16.0</ele><time>2026-04-06T13:49:36Z</time></trkpt><trkpt lat="43.55942329372501" lon="10.326625966409727"><ele>16.0</ele><time>2026-04-06T13:49:38Z</time></trkpt><trkpt lat="43.55948614358707" lon="10.326601346571895"><ele>15.999999999999998</ele><time>2026-04-06T13:49:40Z</time></trkpt><trkpt lat="43.55955694850607" lon="10.326550512021996"><ele>16.0</ele><time>2026-04-06T13:49:43Z</time></trkpt><trkpt lat="43.559623612683126" lon="10.32651548131138"><ele>15.8</ele><time>2026-04-06T13:49:45Z</time></trkpt><trkpt lat="43.5596897933686" lon="10.32650477173189"><ele>15.600000000000001</ele><time>2026-04-06T13:49:46Z</time></trkpt><trkpt lat="43.559773602590234" lon="10.326466686292786"><ele>15.4</ele><time>2026-04-06T13:49:47Z</time></trkpt><trkpt lat="43.55988714886837" lon="10.326423468949258"><ele>15.2</ele><time>2026-04-06T13:49:48Z</time></trkpt><trkpt lat="43.56000532589506" lon="10.326395943458401"><ele>15.0</ele><time>2026-04-06T13:49:49Z</time></trkpt><trkpt lat="43.560138804927334" lon="10.326363476846819"><ele>14.0</ele><time>2026-04-06T13:49:50Z</time></trkpt><trkpt lat="43.560284866674685" lon="10.326315885209484"><ele>13.0</ele><time>2026-04-06T13:49:51Z</time></trkpt><trkpt lat="43.560437167178" lon="10.326270543197742"><ele>12.0</ele><time>2026-04-06T13:49:52Z</time></trkpt><trkpt lat="43.56059520384566" lon="10.326229584410374"><ele>12.0</ele><time>2026-04-06T13:49:53Z</time></trkpt><trkpt lat="43.5607498943874" lon="10.326180751722868"><ele>12.0</ele><time>2026-04-06T13:49:54Z</time></trkpt><trkpt lat="43.56090569852912" lon="10.326133535918538"><ele>12.0</ele><time>2026-04-06T13:49:55Z</time></trkpt><trkpt lat="43.56105073899807" lon="10.326083575824457"><ele>12.0</ele><time>2026-04-06T13:49:56Z</time></trkpt><trkpt lat="43.56118667831061" lon="10.326040991766103"><ele>12.0</ele><time>2026-04-06T13:49:57Z</time></trkpt><trkpt lat="43.56131155043564" lon="10.326001865190408"><ele>12.0</ele><time>2026-04-06T13:49:58Z</time></trkpt><trkpt lat="43.56142885015713" lon="10.325967441390464"><ele>12.0</ele><time>2026-04-06T13:49:59Z</time></trkpt><trkpt lat="43.5615352100775" lon="10.32593254889687"><ele>11.5</ele><time>2026-04-06T13:50:00Z</time></trkpt><trkpt lat="43.56162918153031" lon="10.325904578746842"><ele>11.0</ele><time>2026-04-06T13:50:01Z</time></trkpt><trkpt lat="43.56171544918725" lon="10.325877862684393"><ele>10.5</ele><time>2026-04-06T13:50:02Z</time></trkpt><trkpt lat="43.56178670184407" lon="10.32585166582795"><ele>10.0</ele><time>2026-04-06T13:50:03Z</time></trkpt><trkpt lat="43.56185242347064" lon="10.325835102722785"><ele>9.5</ele><time>2026-04-06T13:50:04Z</time></trkpt><trkpt lat="43.561917305225535" lon="10.32582223348539"><ele>9.0</ele><time>2026-04-06T13:50:05Z</time></trkpt><trkpt lat="43.56202234684647" lon="10.32576528081687"><ele>9.2</ele><time>2026-04-06T13:50:07Z</time></trkpt><trkpt lat="43.562105660439194" lon="10.325736215881301"><ele>9.4</ele><time>2026-04-06T13:50:09Z</time></trkpt><trkpt lat="43.5621690560403" lon="10.325717531311033"><ele>9.6</ele><time>2026-04-06T13:50:11Z</time></trkpt><trkpt lat="43.56226156179502" lon="10.325703360511687"><ele>9.8</ele><time>2026-04-06T13:50:23Z</time></trkpt><trkpt lat="43.5623843399372" lon="10.325654326012542"><ele>10.0</ele><time>2026-04-06T13:50:25Z</time></trkpt><trkpt lat="43.562460322972214" lon="10.3256244433549"><ele>10.0</ele><time>2026-04-06T13:50:26Z</time></trkpt><trkpt lat="43.562542791447946" lon="10.325593894949215"><ele>10.0</ele><time>2026-04-06T13:50:27Z</time></trkpt><trkpt lat="43.56263131740689" lon="10.325564914573615"><ele>10.0</ele><time>2026-04-06T13:50:28Z</time></trkpt><trkpt lat="43.56272499158144" lon="10.32553096323315"><ele>10.0</ele><time>2026-04-06T13:50:29Z</time></trkpt><trkpt lat="43.5628298555103" lon="10.32549402822453"><ele>10.0</ele><time>2026-04-06T13:50:30Z</time></trkpt><trkpt lat="43.56294688249434" lon="10.32545351106621"><ele>9.75</ele><time>2026-04-06T13:50:31Z</time></trkpt><trkpt lat="43.563075021199836" lon="10.32541170449782"><ele>9.5</ele><time>2026-04-06T13:50:32Z</time></trkpt><trkpt lat="43.56321111126981" lon="10.325365210896894"><ele>9.25</ele><time>2026-04-06T13:50:33Z</time></trkpt><trkpt lat="43.56335233567418" lon="10.325320908447448"><ele>9.0</ele><time>2026-04-06T13:50:34Z</time></trkpt><trkpt lat="43.563497436493286" lon="10.32527632005427"><ele>9.0</ele><time>2026-04-06T13:50:35Z</time></trkpt><trkpt lat="43.56364417863094" lon="10.325229134582843"><ele>9.0</ele><time>2026-04-06T13:50:36Z</time></trkpt><trkpt lat="43.56379058491638" lon="10.325182603298316"><ele>9.0</ele><time>2026-04-06T13:50:37Z</time></trkpt><trkpt lat="43.56393186935297" lon="10.325136091195647"><ele>9.0</ele><time>2026-04-06T13:50:38Z</time></trkpt><trkpt lat="43.56407115124107" lon="10.325097377747628"><ele>8.75</ele><time>2026-04-06T13:50:39Z</time></trkpt><trkpt lat="43.56419662007507" lon="10.325048978030267"><ele>8.5</ele><time>2026-04-06T13:50:40Z</time></trkpt><trkpt lat="43.56431932685844" lon="10.325006676496251"><ele>8.25</ele><time>2026-04-06T13:50:41Z</time></trkpt><trkpt lat="43.564450143434414" lon="10.324961240879475"><ele>8.0</ele><time>2026-04-06T13:50:42Z</time></trkpt><trkpt lat="43.56457977282627" lon="10.324917393137687"><ele>7.75</ele><time>2026-04-06T13:50:43Z</time></trkpt><trkpt lat="43.56470068674427" lon="10.324870874350966"><ele>7.5</ele><time>2026-04-06T13:50:44Z</time></trkpt><trkpt lat="43.56482725255898" lon="10.324823402190441"><ele>7.25</ele><time>2026-04-06T13:50:45Z</time></trkpt><trkpt lat="43.5649673070024" lon="10.324771138846675"><ele>7.0</ele><time>2026-04-06T13:50:46Z</time></trkpt><trkpt lat="43.5651006483411" lon="10.324718620225013"><ele>7.0</ele><time>2026-04-06T13:50:47Z</time></trkpt><trkpt lat="43.56523801228707" lon="10.324666876551646"><ele>7.0</ele><time>2026-04-06T13:50:48Z</time></trkpt><trkpt lat="43.56537672875471" lon="10.324611687832999"><ele>7.0</ele><time>2026-04-06T13:50:49Z</time></trkpt><trkpt lat="43.565510978549256" lon="10.324556931513055"><ele>7.0</ele><time>2026-04-06T13:50:50Z</time></trkpt><trkpt lat="43.56564267537155" lon="10.324507444171056"><ele>7.5</ele><time>2026-04-06T13:50:51Z</time></trkpt><trkpt lat="43.56577620909671" lon="10.324460020519293"><ele>8.0</ele><time>2026-04-06T13:50:52Z</time></trkpt><trkpt lat="43.56591283887612" lon="10.324409674208248"><ele>8.5</ele><time>2026-04-06T13:50:53Z</time></trkpt><trkpt lat="43.566052666146085" lon="10.324359311660766"><ele>9.0</ele><time>2026-04-06T13:50:54Z</time></trkpt><trkpt lat="43.566193397509366" lon="10.32431542932878"><ele>8.5</ele><time>2026-04-06T13:50:55Z</time></trkpt><trkpt lat="43.56632752131097" lon="10.32427411415912"><ele>8.0</ele><time>2026-04-06T13:50:56Z</time></trkpt><trkpt lat="43.56645533792763" lon="10.324233858076594"><ele>7.5</ele><time>2026-04-06T13:50:57Z</time></trkpt><trkpt lat="43.56656880413137" lon="10.324195856239305"><ele>7.0</ele><time>2026-04-06T13:50:58Z</time></trkpt><trkpt lat="43.56667767627215" lon="10.32415941581322"><ele>7.0</ele><time>2026-04-06T13:50:59Z</time></trkpt><trkpt lat="43.56677631673667" lon="10.3241281599863"><ele>6.999999999999999</ele><time>2026-04-06T13:51:00Z</time></trkpt><trkpt lat="43.5668728744166" lon="10.324095897815114"><ele>6.999999999999999</ele><time>2026-04-06T13:51:01Z</time></trkpt><trkpt lat="43.56696414401362" lon="10.324066051108561"><ele>7.0</ele><time>2026-04-06T13:51:02Z</time></trkpt><trkpt lat="43.567053966030585" lon="10.324037447611994"><ele>7.0</ele><time>2026-04-06T13:51:03Z</time></trkpt><trkpt lat="43.56714131911734" lon="10.32401150559796"><ele>7.000000000000001</ele><time>2026-04-06T13:51:04Z</time></trkpt><trkpt lat="43.567223839087596" lon="10.323984761942649"><ele>7.0</ele><time>2026-04-06T13:51:05Z</time></trkpt><trkpt lat="43.56729756399748" lon="10.323961803151912"><ele>7.0</ele><time>2026-04-06T13:51:06Z</time></trkpt><trkpt lat="43.56739994518206" lon="10.32393270482314"><ele>7.0</ele><time>2026-04-06T13:51:08Z</time></trkpt><trkpt lat="43.567467836042944" lon="10.323911605904273"><ele>7.000000000000001</ele><time>2026-04-06T13:51:12Z</time></trkpt><trkpt lat="43.567539693334545" lon="10.323896584014383"><ele>7.0</ele><time>2026-04-06T13:51:33Z</time></trkpt><trkpt lat="43.567661636524974" lon="10.323856976581604"><ele>7.0</ele><time>2026-04-06T13:51:35Z</time></trkpt><trkpt lat="43.567738238601045" lon="10.323825239635056"><ele>6.999999999999999</ele><time>2026-04-06T13:51:36Z</time></trkpt><trkpt lat="43.56783685919677" lon="10.323789998215394"><ele>6.999999999999999</ele><time>2026-04-06T13:51:37Z</time></trkpt><trkpt lat="43.56795517214849" lon="10.323749441389282"><ele>7.0</ele><time>2026-04-06T13:51:38Z</time></trkpt><trkpt lat="43.568085860283496" lon="10.323700450219205"><ele>7.0</ele><time>2026-04-06T13:51:39Z</time></trkpt><trkpt lat="43.56822699091389" lon="10.323647436916772"><ele>7.0</ele><time>2026-04-06T13:51:40Z</time></trkpt><trkpt lat="43.56837406038426" lon="10.323594935513535"><ele>7.0</ele><time>2026-04-06T13:51:41Z</time></trkpt><trkpt lat="43.568507466235985" lon="10.323547286432866"><ele>7.0</ele><time>2026-04-06T13:51:42Z</time></trkpt><trkpt lat="43.56862747764089" lon="10.323508044074513"><ele>7.0</ele><time>2026-04-06T13:51:43Z</time></trkpt><trkpt lat="43.568734774309014" lon="10.323475479255746"><ele>7.000000000000001</ele><time>2026-04-06T13:51:44Z</time></trkpt><trkpt lat="43.56883192166905" lon="10.323445852540221"><ele>7.0</ele><time>2026-04-06T13:51:45Z</time></trkpt><trkpt lat="43.568917635102956" lon="10.323418290929387"><ele>7.0</ele><time>2026-04-06T13:51:46Z</time></trkpt><trkpt lat="43.568995321635875" lon="10.323387928767081"><ele>7.0</ele><time>2026-04-06T13:51:47Z</time></trkpt><trkpt lat="43.56907255811068" lon="10.323384389761415"><ele>7.000000000000001</ele><time>2026-04-06T13:51:48Z</time></trkpt><trkpt lat="43.56915004771056" lon="10.323353890034246"><ele>7.0</ele><time>2026-04-06T13:51:49Z</time></trkpt><trkpt lat="43.569221901860054" lon="10.32333390352377"><ele>7.000000000000001</ele><time>2026-04-06T13:51:50Z</time></trkpt><trkpt lat="43.56929189427665" lon="10.323319344136817"><ele>7.0</ele><time>2026-04-06T13:51:51Z</time></trkpt><trkpt lat="43.56937071868522" lon="10.323313885794006"><ele>7.0</ele><time>2026-04-06T13:51:52Z</time></trkpt><trkpt lat="43.56945870695293" lon="10.323311038256632"><ele>7.0</ele><time>2026-04-06T13:51:53Z</time></trkpt><trkpt lat="43.56953290895431" lon="10.323311294528668"><ele>7.000000000000001</ele><time>2026-04-06T13:51:54Z</time></trkpt><trkpt lat="43.56960559335909" lon="10.323305163003054"><ele>7.0</ele><time>2026-04-06T13:51:55Z</time></trkpt><trkpt lat="43.56971382837034" lon="10.323338709823915"><ele>6.3999999999999995</ele><time>2026-04-06T13:51:57Z</time></trkpt><trkpt lat="43.56975886925537" lon="10.323170280619653"><ele>5.799999999999999</ele><time>2026-04-06T13:51:58Z</time></trkpt><trkpt lat="43.56977359323162" lon="10.323005530774257"><ele>5.2</ele><time>2026-04-06T13:52:00Z</time></trkpt><trkpt lat="43.56976476083025" lon="10.32291819248558"><ele>4.6</ele><time>2026-04-06T13:52:01Z</time></trkpt><trkpt lat="43.569774922095704" lon="10.322812954062051"><ele>4.0</ele><time>2026-04-06T13:52:02Z</time></trkpt><trkpt lat="43.56976893236224" lon="10.322681574211156"><ele>4.0</ele><time>2026-04-06T13:52:03Z</time></trkpt><trkpt lat="43.56984473132313" lon="10.322548102544044"><ele>4.0</ele><time>2026-04-06T13:52:04Z</time></trkpt><trkpt lat="43.569876062437835" lon="10.322427480567137"><ele>4.0</ele><time>2026-04-06T13:52:05Z</time></trkpt><trkpt lat="43.569901439694135" lon="10.32232044478203"><ele>4.0</ele><time>2026-04-06T13:52:06Z</time></trkpt><trkpt lat="43.5699359491272" lon="10.322217345013351"><ele>4.0</ele><time>2026-04-06T13:52:07Z</time></trkpt><trkpt lat="43.56997683492793" lon="10.32210959133159"><ele>4.2</ele><time>2026-04-06T13:52:08Z</time></trkpt><trkpt lat="43.570013845302995" lon="10.321988402322782"><ele>4.4</ele><time>2026-04-06T13:52:09Z</time></trkpt><trkpt lat="43.570046042760765" lon="10.321854793865187"><ele>4.6</ele><time>2026-04-06T13:52:10Z</time></trkpt><trkpt lat="43.57008275170261" lon="10.32171436881106"><ele>4.8</ele><time>2026-04-06T13:52:11Z</time></trkpt><trkpt lat="43.57012062922958" lon="10.32157480730716"><ele>5.0</ele><time>2026-04-06T13:52:12Z</time></trkpt><trkpt lat="43.570161707175785" lon="10.321434548138578"><ele>5.0</ele><time>2026-04-06T13:52:13Z</time></trkpt><trkpt lat="43.57020193189286" lon="10.321281257209447"><ele>5.0</ele><time>2026-04-06T13:52:14Z</time></trkpt><trkpt lat="43.57024382005422" lon="10.321123659721966"><ele>5.0</ele><time>2026-04-06T13:52:15Z</time></trkpt><trkpt lat="43.57028326389799" lon="10.320962119269254"><ele>5.0</ele><time>2026-04-06T13:52:16Z</time></trkpt><trkpt lat="43.5703296427562" lon="10.320798194869196"><ele>4.5</ele><time>2026-04-06T13:52:17Z</time></trkpt><trkpt lat="43.5703787064753" lon="10.3206308129241"><ele>4.0</ele><time>2026-04-06T13:52:18Z</time></trkpt><trkpt lat="43.570426973232976" lon="10.320460592608333"><ele>3.5</ele><time>2026-04-06T13:52:19Z</time></trkpt><trkpt lat="43.570476422934" lon="10.320281079830336"><ele>3.0</ele><time>2026-04-06T13:52:20Z</time></trkpt><trkpt lat="43.57053233010781" lon="10.320095076016989"><ele>3.333333333333333</ele><time>2026-04-06T13:52:21Z</time></trkpt><trkpt lat="43.57058261840415" lon="10.31990293492665"><ele>3.6666666666666665</ele><time>2026-04-06T13:52:22Z</time></trkpt><trkpt lat="43.570636210065665" lon="10.319708496368806"><ele>4.0</ele><time>2026-04-06T13:52:23Z</time></trkpt><trkpt lat="43.570689309772526" lon="10.319513318687743"><ele>4.0</ele><time>2026-04-06T13:52:24Z</time></trkpt><trkpt lat="43.57074340690087" lon="10.31932277590049"><ele>4.0</ele><time>2026-04-06T13:52:25Z</time></trkpt><trkpt lat="43.570797518397725" lon="10.319144448842698"><ele>4.0</ele><time>2026-04-06T13:52:26Z</time></trkpt><trkpt lat="43.57084309944548" lon="10.318979729256"><ele>4.0</ele><time>2026-04-06T13:52:27Z</time></trkpt><trkpt lat="43.57088643192495" lon="10.3188232120909"><ele>3.8000000000000003</ele><time>2026-04-06T13:52:28Z</time></trkpt><trkpt lat="43.570927827034396" lon="10.318671856057469"><ele>3.6000000000000005</ele><time>2026-04-06T13:52:29Z</time></trkpt><trkpt lat="43.57096646110849" lon="10.318524042133625"><ele>3.4</ele><time>2026-04-06T13:52:30Z</time></trkpt><trkpt lat="43.57100330847714" lon="10.31837813272432"><ele>3.2</ele><time>2026-04-06T13:52:31Z</time></trkpt><trkpt lat="43.5710400773258" lon="10.318242347634701"><ele>3.0</ele><time>2026-04-06T13:52:32Z</time></trkpt><trkpt lat="43.571078743948846" lon="10.318108555737581"><ele>3.0</ele><time>2026-04-06T13:52:33Z</time></trkpt><trkpt lat="43.57111629109642" lon="10.317992702248239"><ele>3.0</ele><time>2026-04-06T13:52:34Z</time></trkpt><trkpt lat="43.57115477771185" lon="10.317875194874249"><ele>3.0</ele><time>2026-04-06T13:52:35Z</time></trkpt><trkpt lat="43.571184835984596" lon="10.317769543252835"><ele>3.0</ele><time>2026-04-06T13:52:36Z</time></trkpt><trkpt lat="43.57121653265392" lon="10.317658563010314"><ele>3.0</ele><time>2026-04-06T13:52:37Z</time></trkpt><trkpt lat="43.57124639534774" lon="10.317550927458656"><ele>3.0</ele><time>2026-04-06T13:52:38Z</time></trkpt><trkpt lat="43.57127574830466" lon="10.317442762659054"><ele>2.9999999999999996</ele><time>2026-04-06T13:52:39Z</time></trkpt><trkpt lat="43.57130419960938" lon="10.31733807874894"><ele>3.0</ele><time>2026-04-06T13:52:40Z</time></trkpt><trkpt lat="43.571333661863704" lon="10.317237256003416"><ele>3.0</ele><time>2026-04-06T13:52:41Z</time></trkpt><trkpt lat="43.571371284345624" lon="10.317153063853969"><ele>3.0</ele><time>2026-04-06T13:52:42Z</time></trkpt><trkpt lat="43.571406744954025" lon="10.317060539622135"><ele>3.0</ele><time>2026-04-06T13:52:43Z</time></trkpt><trkpt lat="43.57146445897602" lon="10.31700938502467"><ele>2.9999999999999996</ele><time>2026-04-06T13:52:44Z</time></trkpt><trkpt lat="43.57152890459015" lon="10.316979590986826"><ele>3.0</ele><time>2026-04-06T13:52:45Z</time></trkpt><trkpt lat="43.57161279297277" lon="10.316917781155967"><ele>3.0</ele><time>2026-04-06T13:52:47Z</time></trkpt><trkpt lat="43.57171770412659" lon="10.317092806387969"><ele>3.0</ele><time>2026-04-06T13:52:48Z</time></trkpt><trkpt lat="43.571771288283074" lon="10.317170749682834"><ele>3.0</ele><time>2026-04-06T13:52:49Z</time></trkpt><trkpt lat="43.57181344990362" lon="10.317269079364493"><ele>3.0</ele><time>2026-04-06T13:52:50Z</time></trkpt><trkpt lat="43.57184014640327" lon="10.317386720612033"><ele>3.0</ele><time>2026-04-06T13:52:51Z</time></trkpt><trkpt lat="43.57185205758235" lon="10.317510366289763"><ele>3.0</ele><time>2026-04-06T13:52:52Z</time></trkpt><trkpt lat="43.571851861949064" lon="10.317639163419837"><ele>3.0</ele><time>2026-04-06T13:52:53Z</time></trkpt><trkpt lat="43.571842476570595" lon="10.317784634789156"><ele>3.0</ele><time>2026-04-06T13:52:54Z</time></trkpt><trkpt lat="43.57183506080429" lon="10.317946804564336"><ele>3.0</ele><time>2026-04-06T13:52:55Z</time></trkpt><trkpt lat="43.57183733430403" lon="10.318113570449933"><ele>3.0</ele><time>2026-04-06T13:52:56Z</time></trkpt><trkpt lat="43.571848351379174" lon="10.31828306486349"><ele>3.4</ele><time>2026-04-06T13:52:57Z</time></trkpt><trkpt lat="43.57186643255685" lon="10.318444746395299"><ele>3.8</ele><time>2026-04-06T13:52:58Z</time></trkpt><trkpt lat="43.571899957934626" lon="10.318585555742017"><ele>4.2</ele><time>2026-04-06T13:52:59Z</time></trkpt><trkpt lat="43.5719512935011" lon="10.318711927078438"><ele>4.6</ele><time>2026-04-06T13:53:00Z</time></trkpt><trkpt lat="43.57201989749135" lon="10.318799279052438"><ele>5.0</ele><time>2026-04-06T13:53:01Z</time></trkpt><trkpt lat="43.572099793161925" lon="10.318872017892671"><ele>5.25</ele><time>2026-04-06T13:53:02Z</time></trkpt><trkpt lat="43.5721966993623" lon="10.318936427292503"><ele>5.5</ele><time>2026-04-06T13:53:03Z</time></trkpt><trkpt lat="43.57230804350018" lon="10.3189938186838"><ele>5.75</ele><time>2026-04-06T13:53:04Z</time></trkpt><trkpt lat="43.57242091849556" lon="10.31905668576624"><ele>6.0</ele><time>2026-04-06T13:53:05Z</time></trkpt><trkpt lat="43.572535326528" lon="10.319122893597454"><ele>6.0</ele><time>2026-04-06T13:53:06Z</time></trkpt><trkpt lat="43.57265382612815" lon="10.31918348092963"><ele>6.0</ele><time>2026-04-06T13:53:07Z</time></trkpt><trkpt lat="43.57276318571316" lon="10.319241578902156"><ele>6.0</ele><time>2026-04-06T13:53:08Z</time></trkpt><trkpt lat="43.572867337594076" lon="10.319300978012937"><ele>6.0</ele><time>2026-04-06T13:53:09Z</time></trkpt><trkpt lat="43.57296439340323" lon="10.319355231152468"><ele>5.2</ele><time>2026-04-06T13:53:10Z</time></trkpt><trkpt lat="43.57305737619523" lon="10.319406657682396"><ele>4.3999999999999995</ele><time>2026-04-06T13:53:11Z</time></trkpt><trkpt lat="43.5731552381337" lon="10.319458702230477"><ele>3.6</ele><time>2026-04-06T13:53:12Z</time></trkpt><trkpt lat="43.57325689083577" lon="10.319515946124872"><ele>2.8</ele><time>2026-04-06T13:53:13Z</time></trkpt><trkpt lat="43.5733643204245" lon="10.319574975611093"><ele>2.0</ele><time>2026-04-06T13:53:14Z</time></trkpt><trkpt lat="43.57347757202213" lon="10.319639005424342"><ele>2.0</ele><time>2026-04-06T13:53:15Z</time></trkpt><trkpt lat="43.57360287737753" lon="10.319703492139201"><ele>2.0</ele><time>2026-04-06T13:53:16Z</time></trkpt><trkpt lat="43.57373030436176" lon="10.319771011357771"><ele>2.0</ele><time>2026-04-06T13:53:17Z</time></trkpt><trkpt lat="43.57385498608198" lon="10.319841066142743"><ele>2.0</ele><time>2026-04-06T13:53:18Z</time></trkpt><trkpt lat="43.573980935626146" lon="10.319911131462964"><ele>1.5</ele><time>2026-04-06T13:53:19Z</time></trkpt><trkpt lat="43.57411040382527" lon="10.31997699157899"><ele>1.0</ele><time>2026-04-06T13:53:20Z</time></trkpt><trkpt lat="43.574238995175335" lon="10.32004991350861"><ele>0.5</ele><time>2026-04-06T13:53:21Z</time></trkpt><trkpt lat="43.57436799898405" lon="10.320119355931238"><ele>0.0</ele><time>2026-04-06T13:53:22Z</time></trkpt><trkpt lat="43.5744941543137" lon="10.32018956427271"><ele>1.25</ele><time>2026-04-06T13:53:23Z</time></trkpt><trkpt lat="43.57462401595187" lon="10.320267235435479"><ele>2.5</ele><time>2026-04-06T13:53:24Z</time></trkpt><trkpt lat="43.574759906031105" lon="10.320339366628527"><ele>3.75</ele><time>2026-04-06T13:53:25Z</time></trkpt><trkpt lat="43.574896376725576" lon="10.320414946797037"><ele>5.0</ele><time>2026-04-06T13:53:26Z</time></trkpt><trkpt lat="43.575028771438944" lon="10.320488259938163"><ele>5.0</ele><time>2026-04-06T13:53:27Z</time></trkpt><trkpt lat="43.575159986545465" lon="10.320558823218596"><ele>5.0</ele><time>2026-04-06T13:53:28Z</time></trkpt><trkpt lat="43.57528512423979" lon="10.32062844188865"><ele>5.0</ele><time>2026-04-06T13:53:29Z</time></trkpt><trkpt lat="43.57541525105543" lon="10.320702831614264"><ele>5.0</ele><time>2026-04-06T13:53:30Z</time></trkpt><trkpt lat="43.575553478768605" lon="10.320774177964104"><ele>3.666666666666667</ele><time>2026-04-06T13:53:31Z</time></trkpt><trkpt lat="43.57569419189795" lon="10.320847522151164"><ele>2.3333333333333335</ele><time>2026-04-06T13:53:32Z</time></trkpt><trkpt lat="43.57584201156662" lon="10.320926628918713"><ele>1.0</ele><time>2026-04-06T13:53:33Z</time></trkpt><trkpt lat="43.575991788929116" lon="10.3210084008154"><ele>1.0</ele><time>2026-04-06T13:53:34Z</time></trkpt><trkpt lat="43.57614570785142" lon="10.321086493893088"><ele>1.0</ele><time>2026-04-06T13:53:35Z</time></trkpt><trkpt lat="43.5762979122468" lon="10.321157168405547"><ele>1.0</ele><time>2026-04-06T13:53:36Z</time></trkpt><trkpt lat="43.576455525135444" lon="10.321218314503849"><ele>0.6666666666666666</ele><time>2026-04-06T13:53:37Z</time></trkpt><trkpt lat="43.57661120294888" lon="10.32127184790875"><ele>0.3333333333333333</ele><time>2026-04-06T13:53:38Z</time></trkpt><trkpt lat="43.57677541066931" lon="10.321322092465513"><ele>0.0</ele><time>2026-04-06T13:53:39Z</time></trkpt><trkpt lat="43.57693502364474" lon="10.321372692745319"><ele>0.0</ele><time>2026-04-06T13:53:40Z</time></trkpt><trkpt lat="43.577095112060555" lon="10.32142452730546"><ele>0.0</ele><time>2026-04-06T13:53:41Z</time></trkpt><trkpt lat="43.57725880441335" lon="10.321482663742836"><ele>0.0</ele><time>2026-04-06T13:53:42Z</time></trkpt><trkpt lat="43.57742466999838" lon="10.321545808974323"><ele>0.0</ele><time>2026-04-06T13:53:43Z</time></trkpt><trkpt lat="43.57758661737618" lon="10.321622534978065"><ele>0.0</ele><time>2026-04-06T13:53:44Z</time></trkpt><trkpt lat="43.577743054636834" lon="10.321706117316847"><ele>0.0</ele><time>2026-04-06T13:53:45Z</time></trkpt><trkpt lat="43.57789339251056" lon="10.321786250451856"><ele>1.0</ele><time>2026-04-06T13:53:46Z</time></trkpt><trkpt lat="43.578037347221525" lon="10.32186700558541"><ele>2.0</ele><time>2026-04-06T13:53:47Z</time></trkpt><trkpt lat="43.578182503458166" lon="10.321946065370657"><ele>3.0</ele><time>2026-04-06T13:53:48Z</time></trkpt><trkpt lat="43.57832673442552" lon="10.322024063773341"><ele>3.0</ele><time>2026-04-06T13:53:49Z</time></trkpt><trkpt lat="43.57846902219245" lon="10.322102225752646"><ele>3.0</ele><time>2026-04-06T13:53:50Z</time></trkpt><trkpt lat="43.57860781645127" lon="10.32217835198548"><ele>3.0</ele><time>2026-04-06T13:53:51Z</time></trkpt><trkpt lat="43.578750115650756" lon="10.322249959708154"><ele>2.75</ele><time>2026-04-06T13:53:52Z</time></trkpt><trkpt lat="43.57888705574777" lon="10.322328070999227"><ele>2.5</ele><time>2026-04-06T13:53:53Z</time></trkpt><trkpt lat="43.57902322968108" lon="10.322406349475871"><ele>2.25</ele><time>2026-04-06T13:53:54Z</time></trkpt><trkpt lat="43.579159683441" lon="10.322480117987302"><ele>2.0</ele><time>2026-04-06T13:53:55Z</time></trkpt><trkpt lat="43.57929475733689" lon="10.322553387018372"><ele>2.0</ele><time>2026-04-06T13:53:56Z</time></trkpt><trkpt lat="43.57942614457012" lon="10.3226283576611"><ele>2.0</ele><time>2026-04-06T13:53:57Z</time></trkpt><trkpt lat="43.579560796498754" lon="10.322699272806524"><ele>2.0</ele><time>2026-04-06T13:53:58Z</time></trkpt><trkpt lat="43.57969473387012" lon="10.322771996902576"><ele>2.0</ele><time>2026-04-06T13:53:59Z</time></trkpt><trkpt lat="43.57982695960256" lon="10.322842398351874"><ele>2.0</ele><time>2026-04-06T13:54:00Z</time></trkpt><trkpt lat="43.57995864765138" lon="10.32291169846608"><ele>2.0</ele><time>2026-04-06T13:54:01Z</time></trkpt><trkpt lat="43.58008744141926" lon="10.322987782064567"><ele>2.0</ele><time>2026-04-06T13:54:02Z</time></trkpt><trkpt lat="43.58022023584029" lon="10.323063710712095"><ele>2.0</ele><time>2026-04-06T13:54:03Z</time></trkpt><trkpt lat="43.58035162733521" lon="10.323137239969808"><ele>2.25</ele><time>2026-04-06T13:54:04Z</time></trkpt><trkpt lat="43.58048119752793" lon="10.323208537436399"><ele>2.5</ele><time>2026-04-06T13:54:05Z</time></trkpt><trkpt lat="43.58061143255958" lon="10.323279337190176"><ele>2.75</ele><time>2026-04-06T13:54:06Z</time></trkpt><trkpt lat="43.580744137951584" lon="10.323349277682677"><ele>3.0</ele><time>2026-04-06T13:54:07Z</time></trkpt><trkpt lat="43.580888232182915" lon="10.323423248725513"><ele>3.0</ele><time>2026-04-06T13:54:08Z</time></trkpt><trkpt lat="43.581034485356646" lon="10.32350461854621"><ele>3.0</ele><time>2026-04-06T13:54:09Z</time></trkpt><trkpt lat="43.581178342953955" lon="10.323584077440723"><ele>3.0</ele><time>2026-04-06T13:54:10Z</time></trkpt><trkpt lat="43.58131901218965" lon="10.323662514255425"><ele>2.5</ele><time>2026-04-06T13:54:11Z</time></trkpt><trkpt lat="43.58145629334858" lon="10.323736862402601"><ele>2.0</ele><time>2026-04-06T13:54:12Z</time></trkpt><trkpt lat="43.581595822301814" lon="10.323809050510711"><ele>1.5</ele><time>2026-04-06T13:54:13Z</time></trkpt><trkpt lat="43.58172995848784" lon="10.323885217758058"><ele>1.0</ele><time>2026-04-06T13:54:14Z</time></trkpt><trkpt lat="43.58186481098333" lon="10.32396314782343"><ele>1.25</ele><time>2026-04-06T13:54:15Z</time></trkpt><trkpt lat="43.58199708097591" lon="10.32403930992524"><ele>1.5</ele><time>2026-04-06T13:54:16Z</time></trkpt><trkpt lat="43.582133717202474" lon="10.32411615490989"><ele>1.75</ele><time>2026-04-06T13:54:17Z</time></trkpt><trkpt lat="43.5822735438918" lon="10.324187584086731"><ele>2.0</ele><time>2026-04-06T13:54:18Z</time></trkpt><trkpt lat="43.58241201006513" lon="10.324261076135521"><ele>2.0</ele><time>2026-04-06T13:54:19Z</time></trkpt><trkpt lat="43.582550328456286" lon="10.324337065164544"><ele>2.0</ele><time>2026-04-06T13:54:20Z</time></trkpt><trkpt lat="43.58268102509904" lon="10.324410134076077"><ele>2.0</ele><time>2026-04-06T13:54:21Z</time></trkpt><trkpt lat="43.582804569230426" lon="10.32448090660918"><ele>2.0</ele><time>2026-04-06T13:54:22Z</time></trkpt><trkpt lat="43.582928571722654" lon="10.324549447906696"><ele>1.75</ele><time>2026-04-06T13:54:23Z</time></trkpt><trkpt lat="43.58305630227145" lon="10.32461527641138"><ele>1.5</ele><time>2026-04-06T13:54:24Z</time></trkpt><trkpt lat="43.58318223894572" lon="10.324684775351233"><ele>1.25</ele><time>2026-04-06T13:54:25Z</time></trkpt><trkpt lat="43.58331292766329" lon="10.3247530708305"><ele>1.0</ele><time>2026-04-06T13:54:26Z</time></trkpt><trkpt lat="43.58344423078958" lon="10.324820373410452"><ele>0.75</ele><time>2026-04-06T13:54:27Z</time></trkpt><trkpt lat="43.58357360012099" lon="10.324895456397952"><ele>0.5</ele><time>2026-04-06T13:54:28Z</time></trkpt><trkpt lat="43.58370688959547" lon="10.324972759102813"><ele>0.25</ele><time>2026-04-06T13:54:29Z</time></trkpt><trkpt lat="43.583840553270356" lon="10.325050737860687"><ele>0.0</ele><time>2026-04-06T13:54:30Z</time></trkpt><trkpt lat="43.5839687400073" lon="10.325127175055803"><ele>0.5</ele><time>2026-04-06T13:54:31Z</time></trkpt><trkpt lat="43.58409761265261" lon="10.325201228111387"><ele>1.0</ele><time>2026-04-06T13:54:32Z</time></trkpt><trkpt lat="43.58422608078013" lon="10.32526946126849"><ele>1.5</ele><time>2026-04-06T13:54:33Z</time></trkpt><trkpt lat="43.5843563625588" lon="10.325334732266013"><ele>2.0</ele><time>2026-04-06T13:54:34Z</time></trkpt><trkpt lat="43.58449181181113" lon="10.32538791168413"><ele>0.75</ele><time>2026-04-06T13:54:35Z</time></trkpt><trkpt lat="43.5846246344751" lon="10.325418993497161"><ele>-0.5</ele><time>2026-04-06T13:54:36Z</time></trkpt><trkpt lat="43.58475853988375" lon="10.325439827443127"><ele>-1.75</ele><time>2026-04-06T13:54:37Z</time></trkpt><trkpt lat="43.584893070954465" lon="10.325449244522831"><ele>-3.0</ele><time>2026-04-06T13:54:38Z</time></trkpt><trkpt lat="43.585025899988715" lon="10.325435542776786"><ele>-3.0</ele><time>2026-04-06T13:54:39Z</time></trkpt><trkpt lat="43.58515891739037" lon="10.325400364298815"><ele>-3.0</ele><time>2026-04-06T13:54:40Z</time></trkpt><trkpt lat="43.58528457309013" lon="10.325346922631239"><ele>-3.0</ele><time>2026-04-06T13:54:41Z</time></trkpt><trkpt lat="43.585398056467355" lon="10.325283270068615"><ele>-3.0</ele><time>2026-04-06T13:54:42Z</time></trkpt><trkpt lat="43.585500686281726" lon="10.325216487112051"><ele>-2.6</ele><time>2026-04-06T13:54:43Z</time></trkpt><trkpt lat="43.58560558962501" lon="10.325145150254917"><ele>-2.1999999999999997</ele><time>2026-04-06T13:54:44Z</time></trkpt><trkpt lat="43.585708208514134" lon="10.325070402420131"><ele>-1.8</ele><time>2026-04-06T13:54:45Z</time></trkpt><trkpt lat="43.58579741912311" lon="10.325001976406952"><ele>-1.4</ele><time>2026-04-06T13:54:46Z</time></trkpt><trkpt lat="43.58588115418033" lon="10.324926041653443"><ele>-1.0</ele><time>2026-04-06T13:54:47Z</time></trkpt><trkpt lat="43.58594807293366" lon="10.324824134520181"><ele>-1.0</ele><time>2026-04-06T13:54:48Z</time></trkpt><trkpt lat="43.58600501230983" lon="10.324708275772146"><ele>-1.0</ele><time>2026-04-06T13:54:49Z</time></trkpt><trkpt lat="43.58604642319011" lon="10.324582676977258"><ele>-1.0</ele><time>2026-04-06T13:54:50Z</time></trkpt><trkpt lat="43.58606530162743" lon="10.324443729334053"><ele>-1.0</ele><time>2026-04-06T13:54:51Z</time></trkpt><trkpt lat="43.586071229804915" lon="10.3242824151682"><ele>-1.0</ele><time>2026-04-06T13:54:52Z</time></trkpt><trkpt lat="43.58606402517069" lon="10.324103453158411"><ele>-1.0</ele><time>2026-04-06T13:54:53Z</time></trkpt><trkpt lat="43.586051770256766" lon="10.323907426725006"><ele>-1.0</ele><time>2026-04-06T13:54:54Z</time></trkpt><trkpt lat="43.586028300024765" lon="10.323696799486687"><ele>-1.0</ele><time>2026-04-06T13:54:55Z</time></trkpt><trkpt lat="43.58601108439563" lon="10.323501597423975"><ele>-1.0</ele><time>2026-04-06T13:54:56Z</time></trkpt><trkpt lat="43.58600008873483" lon="10.32332301642251"><ele>-0.5</ele><time>2026-04-06T13:54:57Z</time></trkpt><trkpt lat="43.58599344905073" lon="10.323139925795573"><ele>0.0</ele><time>2026-04-06T13:54:58Z</time></trkpt><trkpt lat="43.58599513801886" lon="10.322955509315522"><ele>0.5</ele><time>2026-04-06T13:54:59Z</time></trkpt><trkpt lat="43.585999523847676" lon="10.3227671855038"><ele>1.0</ele><time>2026-04-06T13:55:00Z</time></trkpt><trkpt lat="43.586019890148265" lon="10.322577348495498"><ele>1.0</ele><time>2026-04-06T13:55:01Z</time></trkpt><trkpt lat="43.58604392908388" lon="10.322383695545012"><ele>1.0</ele><time>2026-04-06T13:55:02Z</time></trkpt><trkpt lat="43.5860704175743" lon="10.32218638549132"><ele>1.0</ele><time>2026-04-06T13:55:03Z</time></trkpt><trkpt lat="43.58609424030026" lon="10.321986036638945"><ele>1.0</ele><time>2026-04-06T13:55:04Z</time></trkpt><trkpt lat="43.58610494660643" lon="10.321780122093186"><ele>1.0</ele><time>2026-04-06T13:55:05Z</time></trkpt><trkpt lat="43.5861092760746" lon="10.321572220408871"><ele>1.0</ele><time>2026-04-06T13:55:06Z</time></trkpt><trkpt lat="43.58610239904564" lon="10.321362435622936"><ele>1.0</ele><time>2026-04-06T13:55:07Z</time></trkpt><trkpt lat="43.58609171972199" lon="10.32115162401829"><ele>1.0</ele><time>2026-04-06T13:55:08Z</time></trkpt><trkpt lat="43.5860758041325" lon="10.320938694695537"><ele>1.0</ele><time>2026-04-06T13:55:09Z</time></trkpt><trkpt lat="43.586053824314554" lon="10.320734495149459"><ele>1.0</ele><time>2026-04-06T13:55:10Z</time></trkpt><trkpt lat="43.58603141694483" lon="10.320526830941287"><ele>0.6666666666666666</ele><time>2026-04-06T13:55:11Z</time></trkpt><trkpt lat="43.586007229280646" lon="10.320316902067132"><ele>0.3333333333333333</ele><time>2026-04-06T13:55:12Z</time></trkpt><trkpt lat="43.58598400197655" lon="10.320108583680662"><ele>0.0</ele><time>2026-04-06T13:55:13Z</time></trkpt><trkpt lat="43.585956800610106" lon="10.31990466443843"><ele>0.0</ele><time>2026-04-06T13:55:14Z</time></trkpt><trkpt lat="43.58593147283256" lon="10.319701868429208"><ele>0.0</ele><time>2026-04-06T13:55:15Z</time></trkpt><trkpt lat="43.585908597826915" lon="10.319503088309451"><ele>0.0</ele><time>2026-04-06T13:55:16Z</time></trkpt><trkpt lat="43.58588893150916" lon="10.319304779410812"><ele>0.0</ele><time>2026-04-06T13:55:17Z</time></trkpt><trkpt lat="43.585865361983586" lon="10.319117417377388"><ele>0.0</ele><time>2026-04-06T13:55:18Z</time></trkpt><trkpt lat="43.58584683645818" lon="10.318933182969396"><ele>0.0</ele><time>2026-04-06T13:55:19Z</time></trkpt><trkpt lat="43.585830421180916" lon="10.318750060466673"><ele>0.0</ele><time>2026-04-06T13:55:20Z</time></trkpt><trkpt lat="43.585810585190096" lon="10.318560719499972"><ele>0.0</ele><time>2026-04-06T13:55:21Z</time></trkpt><trkpt lat="43.58579249160812" lon="10.31836742487382"><ele>0.0</ele><time>2026-04-06T13:55:22Z</time></trkpt><trkpt lat="43.58576957171013" lon="10.318159218486553"><ele>0.0</ele><time>2026-04-06T13:55:23Z</time></trkpt><trkpt lat="43.58574370972861" lon="10.317947248160117"><ele>0.0</ele><time>2026-04-06T13:55:24Z</time></trkpt><trkpt lat="43.585722296649905" lon="10.317744993523167"><ele>0.0</ele><time>2026-04-06T13:55:25Z</time></trkpt><trkpt lat="43.585702560790125" lon="10.317550861160877"><ele>0.0</ele><time>2026-04-06T13:55:26Z</time></trkpt><trkpt lat="43.58568263444954" lon="10.317356106553014"><ele>0.0</ele><time>2026-04-06T13:55:27Z</time></trkpt><trkpt lat="43.5856607936824" lon="10.317168205353042"><ele>0.0</ele><time>2026-04-06T13:55:28Z</time></trkpt><trkpt lat="43.58564075009907" lon="10.316996110459904"><ele>-0.2</ele><time>2026-04-06T13:55:29Z</time></trkpt><trkpt lat="43.585621875837205" lon="10.316832802520546"><ele>-0.4</ele><time>2026-04-06T13:55:30Z</time></trkpt><trkpt lat="43.58559531624231" lon="10.316675485777132"><ele>-0.6000000000000001</ele><time>2026-04-06T13:55:31Z</time></trkpt><trkpt lat="43.585575794167525" lon="10.316533862630626"><ele>-0.8</ele><time>2026-04-06T13:55:32Z</time></trkpt><trkpt lat="43.585545484994995" lon="10.316392109808367"><ele>-1.0</ele><time>2026-04-06T13:55:33Z</time></trkpt><trkpt lat="43.585520264721225" lon="10.316254140393077"><ele>-1.0</ele><time>2026-04-06T13:55:34Z</time></trkpt><trkpt lat="43.58547633886892" lon="10.316118170884264"><ele>-1.0</ele><time>2026-04-06T13:55:35Z</time></trkpt><trkpt lat="43.58542956886634" lon="10.315988334797206"><ele>-1.0</ele><time>2026-04-06T13:55:36Z</time></trkpt><trkpt lat="43.585380831397515" lon="10.31585970959829"><ele>-1.0</ele><time>2026-04-06T13:55:37Z</time></trkpt><trkpt lat="43.585329771217516" lon="10.315734936416474"><ele>-1.0</ele><time>2026-04-06T13:55:38Z</time></trkpt><trkpt lat="43.58527325624108" lon="10.315609329934368"><ele>-0.9999999999999999</ele><time>2026-04-06T13:55:39Z</time></trkpt><trkpt lat="43.58522112488286" lon="10.31549372411123"><ele>-1.0</ele><time>2026-04-06T13:55:40Z</time></trkpt><trkpt lat="43.585172250641975" lon="10.315387274287064"><ele>-1.0</ele><time>2026-04-06T13:55:41Z</time></trkpt><trkpt lat="43.58513138037249" lon="10.315281257849477"><ele>-1.0</ele><time>2026-04-06T13:55:42Z</time></trkpt><trkpt lat="43.58509682350181" lon="10.315183806990756"><ele>-0.9999999999999999</ele><time>2026-04-06T13:55:43Z</time></trkpt><trkpt lat="43.58507563119722" lon="10.315098720978003"><ele>-1.0</ele><time>2026-04-06T13:55:44Z</time></trkpt><trkpt lat="43.58508632762487" lon="10.314948273510256"><ele>-1.0</ele><time>2026-04-06T13:55:46Z</time></trkpt><trkpt lat="43.58515095217889" lon="10.314851010607045"><ele>-1.0</ele><time>2026-04-06T13:55:48Z</time></trkpt><trkpt lat="43.58524437925482" lon="10.314798642077506"><ele>-1.0</ele><time>2026-04-06T13:55:50Z</time></trkpt><trkpt lat="43.585334024111326" lon="10.314811648899108"><ele>-1.0</ele><time>2026-04-06T13:55:52Z</time></trkpt><trkpt lat="43.58539777465517" lon="10.314916067239201"><ele>-1.0</ele><time>2026-04-06T13:55:54Z</time></trkpt><trkpt lat="43.585454465556715" lon="10.31503972121068"><ele>-0.9999999999999999</ele><time>2026-04-06T13:55:56Z</time></trkpt><trkpt lat="43.585494886008895" lon="10.315126398980897"><ele>-1.0</ele><time>2026-04-06T13:55:57Z</time></trkpt><trkpt lat="43.58553948962501" lon="10.315235780451376"><ele>-1.0</ele><time>2026-04-06T13:55:58Z</time></trkpt><trkpt lat="43.585583855997484" lon="10.315351781926735"><ele>-1.0</ele><time>2026-04-06T13:55:59Z</time></trkpt><trkpt lat="43.58563105794207" lon="10.315439798131337"><ele>-0.9999999999999999</ele><time>2026-04-06T13:56:00Z</time></trkpt><trkpt lat="43.58568402236958" lon="10.315502479306911"><ele>-1.0</ele><time>2026-04-06T13:56:01Z</time></trkpt><trkpt lat="43.58573967031678" lon="10.315546825741416"><ele>-1.0</ele><time>2026-04-06T13:56:02Z</time></trkpt><trkpt lat="43.58580585874154" lon="10.31556446956305"><ele>-0.9999999999999999</ele><time>2026-04-06T13:56:03Z</time></trkpt><trkpt lat="43.58587340708028" lon="10.315552981256877"><ele>-1.0</ele><time>2026-04-06T13:56:04Z</time></trkpt><trkpt lat="43.58593586642819" lon="10.315509757110458"><ele>-1.0</ele><time>2026-04-06T13:56:05Z</time></trkpt><trkpt lat="43.58598726972868" lon="10.315452866795855"><ele>-0.9999999999999999</ele><time>2026-04-06T13:56:06Z</time></trkpt><trkpt lat="43.58603058206433" lon="10.315373258864124"><ele>-1.0</ele><time>2026-04-06T13:56:07Z</time></trkpt><trkpt lat="43.58605771383878" lon="10.31528139813424"><ele>-1.0</ele><time>2026-04-06T13:56:08Z</time></trkpt><trkpt lat="43.58606972319905" lon="10.315167465272395"><ele>-1.0</ele><time>2026-04-06T13:56:09Z</time></trkpt><trkpt lat="43.586062835615756" lon="10.315041563698204"><ele>-1.0</ele><time>2026-04-06T13:56:10Z</time></trkpt><trkpt lat="43.58603666164922" lon="10.314912861499495"><ele>-1.0</ele><time>2026-04-06T13:56:11Z</time></trkpt><trkpt lat="43.58599907657376" lon="10.314780285548489"><ele>-1.0</ele><time>2026-04-06T13:56:12Z</time></trkpt><trkpt lat="43.58594148014123" lon="10.314645858290026"><ele>-1.0</ele><time>2026-04-06T13:56:13Z</time></trkpt><trkpt lat="43.585881259923895" lon="10.31450284212592"><ele>-0.75</ele><time>2026-04-06T13:56:14Z</time></trkpt><trkpt lat="43.58581490129465" lon="10.314360666967174"><ele>-0.5</ele><time>2026-04-06T13:56:15Z</time></trkpt><trkpt lat="43.58574858882718" lon="10.314224236229041"><ele>-0.25</ele><time>2026-04-06T13:56:16Z</time></trkpt><trkpt lat="43.58569548806482" lon="10.314081805749272"><ele>0.0</ele><time>2026-04-06T13:56:17Z</time></trkpt><trkpt lat="43.58565258314888" lon="10.31392075813116"><ele>-0.25</ele><time>2026-04-06T13:56:18Z</time></trkpt><trkpt lat="43.585615572124134" lon="10.313751096658425"><ele>-0.5</ele><time>2026-04-06T13:56:19Z</time></trkpt><trkpt lat="43.58557951406016" lon="10.313572543965929"><ele>-0.75</ele><time>2026-04-06T13:56:20Z</time></trkpt><trkpt lat="43.585546969129595" lon="10.313391041500287"><ele>-1.0</ele><time>2026-04-06T13:56:21Z</time></trkpt><trkpt lat="43.58551096414076" lon="10.313206189323141"><ele>-0.75</ele><time>2026-04-06T13:56:22Z</time></trkpt><trkpt lat="43.58547237338533" lon="10.313020356066524"><ele>-0.5</ele><time>2026-04-06T13:56:23Z</time></trkpt><trkpt lat="43.58543735835019" lon="10.312826958536403"><ele>-0.25</ele><time>2026-04-06T13:56:24Z</time></trkpt><trkpt lat="43.58540104945317" lon="10.31263514689641"><ele>0.0</ele><time>2026-04-06T13:56:25Z</time></trkpt><trkpt lat="43.58535216690124" lon="10.312463478149587"><ele>0.0</ele><time>2026-04-06T13:56:26Z</time></trkpt><trkpt lat="43.58530730510634" lon="10.31225852167378"><ele>0.0</ele><time>2026-04-06T13:56:27Z</time></trkpt><trkpt lat="43.58527092879414" lon="10.312067064345609"><ele>0.0</ele><time>2026-04-06T13:56:28Z</time></trkpt><trkpt lat="43.585244698145075" lon="10.311900236587634"><ele>0.0</ele><time>2026-04-06T13:56:29Z</time></trkpt><trkpt lat="43.585214647527515" lon="10.311734719072504"><ele>0.0</ele><time>2026-04-06T13:56:30Z</time></trkpt><trkpt lat="43.585181854374646" lon="10.311566141551083"><ele>0.0</ele><time>2026-04-06T13:56:31Z</time></trkpt><trkpt lat="43.58514645224266" lon="10.311390475139941"><ele>0.0</ele><time>2026-04-06T13:56:32Z</time></trkpt><trkpt lat="43.58509467204668" lon="10.311201217723177"><ele>0.0</ele><time>2026-04-06T13:56:33Z</time></trkpt><trkpt lat="43.585054970032914" lon="10.311016413524097"><ele>0.0</ele><time>2026-04-06T13:56:34Z</time></trkpt><trkpt lat="43.585016786034736" lon="10.31083317745163"><ele>0.0</ele><time>2026-04-06T13:56:35Z</time></trkpt><trkpt lat="43.58497799392595" lon="10.310641600043564"><ele>0.0</ele><time>2026-04-06T13:56:36Z</time></trkpt><trkpt lat="43.58494093883273" lon="10.310455845854671"><ele>0.0</ele><time>2026-04-06T13:56:37Z</time></trkpt><trkpt lat="43.58489876950709" lon="10.310268606157363"><ele>0.0</ele><time>2026-04-06T13:56:38Z</time></trkpt><trkpt lat="43.584860283181115" lon="10.310083157673121"><ele>0.0</ele><time>2026-04-06T13:56:39Z</time></trkpt><trkpt lat="43.58482011742669" lon="10.309897067831805"><ele>0.0</ele><time>2026-04-06T13:56:40Z</time></trkpt><trkpt lat="43.58478463958929" lon="10.309730680112274"><ele>0.0</ele><time>2026-04-06T13:56:41Z</time></trkpt><trkpt lat="43.58475923410903" lon="10.309573288175697"><ele>0.0</ele><time>2026-04-06T13:56:42Z</time></trkpt><trkpt lat="43.58473349956427" lon="10.309412041700517"><ele>0.0</ele><time>2026-04-06T13:56:43Z</time></trkpt><trkpt lat="43.584689745040976" lon="10.309242782062343"><ele>0.0</ele><time>2026-04-06T13:56:44Z</time></trkpt><trkpt lat="43.584651053917" lon="10.309076449922568"><ele>0.0</ele><time>2026-04-06T13:56:45Z</time></trkpt><trkpt lat="43.5846134555301" lon="10.308903642690494"><ele>0.0</ele><time>2026-04-06T13:56:46Z</time></trkpt><trkpt lat="43.58457390692045" lon="10.30872644156547"><ele>0.0</ele><time>2026-04-06T13:56:47Z</time></trkpt><trkpt lat="43.58453473945482" lon="10.308553155633554"><ele>0.0</ele><time>2026-04-06T13:56:48Z</time></trkpt><trkpt lat="43.58449333228741" lon="10.30838559415712"><ele>0.0</ele><time>2026-04-06T13:56:49Z</time></trkpt><trkpt lat="43.58445664366555" lon="10.308230626538757"><ele>0.25</ele><time>2026-04-06T13:56:50Z</time></trkpt><trkpt lat="43.58442197165799" lon="10.30807442698857"><ele>0.5</ele><time>2026-04-06T13:56:51Z</time></trkpt><trkpt lat="43.58438869083173" lon="10.307921730766408"><ele>0.75</ele><time>2026-04-06T13:56:52Z</time></trkpt><trkpt lat="43.5843447257495" lon="10.30775857723968"><ele>1.0</ele><time>2026-04-06T13:56:53Z</time></trkpt><trkpt lat="43.58431794089878" lon="10.307596086436297"><ele>1.0</ele><time>2026-04-06T13:56:54Z</time></trkpt><trkpt lat="43.58427833134796" lon="10.307432136610403"><ele>1.0</ele><time>2026-04-06T13:56:55Z</time></trkpt><trkpt lat="43.58426308206485" lon="10.307251132651476"><ele>1.0</ele><time>2026-04-06T13:56:56Z</time></trkpt><trkpt lat="43.58423678438332" lon="10.30707381360201"><ele>1.0</ele><time>2026-04-06T13:56:57Z</time></trkpt><trkpt lat="43.58421043366343" lon="10.306892448781909"><ele>0.8</ele><time>2026-04-06T13:56:58Z</time></trkpt><trkpt lat="43.58418423301456" lon="10.30670798687668"><ele>0.6000000000000001</ele><time>2026-04-06T13:56:59Z</time></trkpt><trkpt lat="43.58415982254829" lon="10.306550375545457"><ele>0.4</ele><time>2026-04-06T13:57:00Z</time></trkpt><trkpt lat="43.58413614144541" lon="10.306423093493487"><ele>0.2</ele><time>2026-04-06T13:57:01Z</time></trkpt><trkpt lat="43.58412501762535" lon="10.30631080400711"><ele>0.0</ele><time>2026-04-06T13:57:02Z</time></trkpt><trkpt lat="43.58409993606072" lon="10.30619968988796"><ele>-0.2</ele><time>2026-04-06T13:57:03Z</time></trkpt><trkpt lat="43.58405412899384" lon="10.306089778158727"><ele>-0.4</ele><time>2026-04-06T13:57:04Z</time></trkpt><trkpt lat="43.583997701892066" lon="10.305979541016091"><ele>-0.6000000000000001</ele><time>2026-04-06T13:57:05Z</time></trkpt><trkpt lat="43.58394518473702" lon="10.305861287059669"><ele>-0.8</ele><time>2026-04-06T13:57:06Z</time></trkpt><trkpt lat="43.58388076138411" lon="10.305769657809122"><ele>-1.0</ele><time>2026-04-06T13:57:07Z</time></trkpt><trkpt lat="43.583867506171494" lon="10.30562410321816"><ele>-0.8</ele><time>2026-04-06T13:57:08Z</time></trkpt><trkpt lat="43.58384604971511" lon="10.305499095715838"><ele>-0.6000000000000001</ele><time>2026-04-06T13:57:09Z</time></trkpt><trkpt lat="43.583834945585075" lon="10.305372902688491"><ele>-0.4</ele><time>2026-04-06T13:57:10Z</time></trkpt><trkpt lat="43.58382442592328" lon="10.305243334511529"><ele>-0.2</ele><time>2026-04-06T13:57:11Z</time></trkpt><trkpt lat="43.58381108498613" lon="10.305106742737925"><ele>0.0</ele><time>2026-04-06T13:57:12Z</time></trkpt><trkpt lat="43.583802268940346" lon="10.304967179786583"><ele>0.0</ele><time>2026-04-06T13:57:13Z</time></trkpt><trkpt lat="43.58378748751326" lon="10.304814272465398"><ele>0.0</ele><time>2026-04-06T13:57:14Z</time></trkpt><trkpt lat="43.583765882074694" lon="10.304647146943559"><ele>0.0</ele><time>2026-04-06T13:57:15Z</time></trkpt><trkpt lat="43.58375690068844" lon="10.30448027137214"><ele>0.0</ele><time>2026-04-06T13:57:16Z</time></trkpt><trkpt lat="43.583723503690656" lon="10.304306083357195"><ele>0.0</ele><time>2026-04-06T13:57:17Z</time></trkpt><trkpt lat="43.58369186498191" lon="10.30413685867484"><ele>0.0</ele><time>2026-04-06T13:57:18Z</time></trkpt><trkpt lat="43.583663726950036" lon="10.303972643904974"><ele>0.0</ele><time>2026-04-06T13:57:19Z</time></trkpt><trkpt lat="43.58364285346822" lon="10.303820382468562"><ele>0.0</ele><time>2026-04-06T13:57:20Z</time></trkpt><trkpt lat="43.58363064194511" lon="10.303684328460214"><ele>0.0</ele><time>2026-04-06T13:57:21Z</time></trkpt><trkpt lat="43.58363442611553" lon="10.30355633336357"><ele>0.0</ele><time>2026-04-06T13:57:22Z</time></trkpt><trkpt lat="43.583651574890006" lon="10.303430367358546"><ele>0.0</ele><time>2026-04-06T13:57:23Z</time></trkpt><trkpt lat="43.583683347975466" lon="10.303300095764278"><ele>0.0</ele><time>2026-04-06T13:57:24Z</time></trkpt><trkpt lat="43.5837265558197" lon="10.303171078908738"><ele>0.0</ele><time>2026-04-06T13:57:25Z</time></trkpt><trkpt lat="43.583779199144395" lon="10.303040051333518"><ele>0.0</ele><time>2026-04-06T13:57:26Z</time></trkpt><trkpt lat="43.58384072626973" lon="10.302902442049728"><ele>0.0</ele><time>2026-04-06T13:57:27Z</time></trkpt><trkpt lat="43.5839023619941" lon="10.302756907884573"><ele>0.0</ele><time>2026-04-06T13:57:28Z</time></trkpt><trkpt lat="43.58396561713598" lon="10.302613469040677"><ele>0.0</ele><time>2026-04-06T13:57:29Z</time></trkpt><trkpt lat="43.58402519886489" lon="10.302487105371421"><ele>0.0</ele><time>2026-04-06T13:57:30Z</time></trkpt><trkpt lat="43.58408185357811" lon="10.302360722571514"><ele>0.0</ele><time>2026-04-06T13:57:31Z</time></trkpt><trkpt lat="43.58414325476171" lon="10.302227671268975"><ele>0.0</ele><time>2026-04-06T13:57:32Z</time></trkpt><trkpt lat="43.584205307380834" lon="10.302092313740646"><ele>0.0</ele><time>2026-04-06T13:57:33Z</time></trkpt><trkpt lat="43.584269176847734" lon="10.30195674864054"><ele>0.0</ele><time>2026-04-06T13:57:34Z</time></trkpt><trkpt lat="43.58433223382353" lon="10.301824674113115"><ele>0.0</ele><time>2026-04-06T13:57:35Z</time></trkpt><trkpt lat="43.584399042750405" lon="10.301690903289481"><ele>0.0</ele><time>2026-04-06T13:57:36Z</time></trkpt><trkpt lat="43.58447545433026" lon="10.301568523962674"><ele>0.0</ele><time>2026-04-06T13:57:37Z</time></trkpt><trkpt lat="43.58455589353921" lon="10.301460635126858"><ele>-0.25</ele><time>2026-04-06T13:57:38Z</time></trkpt><trkpt lat="43.58464586503369" lon="10.30135810746185"><ele>-0.5</ele><time>2026-04-06T13:57:39Z</time></trkpt><trkpt lat="43.58474322840766" lon="10.301267034377393"><ele>-0.75</ele><time>2026-04-06T13:57:40Z</time></trkpt><trkpt lat="43.584841324433135" lon="10.301180491405374"><ele>-1.0</ele><time>2026-04-06T13:57:41Z</time></trkpt><trkpt lat="43.58493807587134" lon="10.301111623255666"><ele>-1.0</ele><time>2026-04-06T13:57:42Z</time></trkpt><trkpt lat="43.585046295686396" lon="10.301048519007669"><ele>-1.0</ele><time>2026-04-06T13:57:43Z</time></trkpt><trkpt lat="43.58515925125845" lon="10.300987948444071"><ele>-1.0</ele><time>2026-04-06T13:57:44Z</time></trkpt><trkpt lat="43.58527831470305" lon="10.300925814505998"><ele>-1.0</ele><time>2026-04-06T13:57:45Z</time></trkpt><trkpt lat="43.585398210608375" lon="10.300862213563061"><ele>-1.0</ele><time>2026-04-06T13:57:46Z</time></trkpt><trkpt lat="43.58551997486257" lon="10.300799260301623"><ele>-1.0</ele><time>2026-04-06T13:57:47Z</time></trkpt><trkpt lat="43.58563739884851" lon="10.300737574114768"><ele>-1.0</ele><time>2026-04-06T13:57:48Z</time></trkpt><trkpt lat="43.58574710891474" lon="10.300680965632527"><ele>-1.0</ele><time>2026-04-06T13:57:49Z</time></trkpt><trkpt lat="43.585856649808605" lon="10.30062036192151"><ele>-1.0</ele><time>2026-04-06T13:57:50Z</time></trkpt><trkpt lat="43.58597123396926" lon="10.300561452662127"><ele>-1.0</ele><time>2026-04-06T13:57:51Z</time></trkpt><trkpt lat="43.58608534811444" lon="10.3005028282722"><ele>-1.0</ele><time>2026-04-06T13:57:52Z</time></trkpt><trkpt lat="43.58620243444061" lon="10.300438408631274"><ele>-1.0</ele><time>2026-04-06T13:57:53Z</time></trkpt><trkpt lat="43.586318382309074" lon="10.300375351955934"><ele>-1.0</ele><time>2026-04-06T13:57:54Z</time></trkpt><trkpt lat="43.58643615749875" lon="10.300310758986543"><ele>-1.0</ele><time>2026-04-06T13:57:55Z</time></trkpt><trkpt lat="43.58656013544889" lon="10.300246302844807"><ele>-1.0</ele><time>2026-04-06T13:57:56Z</time></trkpt><trkpt lat="43.58668102833132" lon="10.300182032140679"><ele>-1.0</ele><time>2026-04-06T13:57:57Z</time></trkpt><trkpt lat="43.5867970350037" lon="10.300121245457516"><ele>-1.0</ele><time>2026-04-06T13:57:58Z</time></trkpt><trkpt lat="43.586906753010965" lon="10.300061906685977"><ele>-1.0</ele><time>2026-04-06T13:57:59Z</time></trkpt><trkpt lat="43.58702190306357" lon="10.300004031335025"><ele>-1.0</ele><time>2026-04-06T13:58:00Z</time></trkpt><trkpt lat="43.58713961109609" lon="10.299943302303534"><ele>-1.0</ele><time>2026-04-06T13:58:01Z</time></trkpt><trkpt lat="43.58725725155063" lon="10.299879292898614"><ele>-0.75</ele><time>2026-04-06T13:58:02Z</time></trkpt><trkpt lat="43.587374724485535" lon="10.29981112491619"><ele>-0.5</ele><time>2026-04-06T13:58:03Z</time></trkpt><trkpt lat="43.58749818822724" lon="10.299742782118958"><ele>-0.25</ele><time>2026-04-06T13:58:04Z</time></trkpt><trkpt lat="43.58762190062009" lon="10.299675918009497"><ele>0.0</ele><time>2026-04-06T13:58:05Z</time></trkpt><trkpt lat="43.58774464266591" lon="10.299607199203061"><ele>0.25</ele><time>2026-04-06T13:58:06Z</time></trkpt><trkpt lat="43.58787003903827" lon="10.299538205871311"><ele>0.5</ele><time>2026-04-06T13:58:07Z</time></trkpt><trkpt lat="43.587997970412715" lon="10.299472303621666"><ele>0.75</ele><time>2026-04-06T13:58:08Z</time></trkpt><trkpt lat="43.5881237771802" lon="10.299405746322106"><ele>1.0</ele><time>2026-04-06T13:58:09Z</time></trkpt><trkpt lat="43.58824803026858" lon="10.299339715422313"><ele>1.0</ele><time>2026-04-06T13:58:10Z</time></trkpt><trkpt lat="43.588365581700366" lon="10.299275796911418"><ele>1.0</ele><time>2026-04-06T13:58:11Z</time></trkpt><trkpt lat="43.58847615646907" lon="10.299211570993013"><ele>1.0</ele><time>2026-04-06T13:58:12Z</time></trkpt><trkpt lat="43.5885809035295" lon="10.299152765573925"><ele>1.0</ele><time>2026-04-06T13:58:13Z</time></trkpt><trkpt lat="43.58869515104212" lon="10.29909202800704"><ele>1.0</ele><time>2026-04-06T13:58:14Z</time></trkpt><trkpt lat="43.588815340592525" lon="10.299031632480139"><ele>1.0</ele><time>2026-04-06T13:58:15Z</time></trkpt><trkpt lat="43.58893481724335" lon="10.298965276521695"><ele>1.0</ele><time>2026-04-06T13:58:16Z</time></trkpt><trkpt lat="43.58905996727319" lon="10.298897535366997"><ele>1.0</ele><time>2026-04-06T13:58:17Z</time></trkpt><trkpt lat="43.58918880061865" lon="10.298828509253694"><ele>1.0</ele><time>2026-04-06T13:58:18Z</time></trkpt><trkpt lat="43.58931777283239" lon="10.298758718373849"><ele>1.0</ele><time>2026-04-06T13:58:19Z</time></trkpt><trkpt lat="43.58944600617453" lon="10.298688445588585"><ele>1.0</ele><time>2026-04-06T13:58:20Z</time></trkpt><trkpt lat="43.589570313362536" lon="10.298627028300585"><ele>1.0</ele><time>2026-04-06T13:58:21Z</time></trkpt><trkpt lat="43.58968903458732" lon="10.298565370635833"><ele>1.0</ele><time>2026-04-06T13:58:22Z</time></trkpt><trkpt lat="43.589807951867755" lon="10.298501444077374"><ele>1.0</ele><time>2026-04-06T13:58:23Z</time></trkpt><trkpt lat="43.58992508696802" lon="10.298440499158763"><ele>1.0</ele><time>2026-04-06T13:58:24Z</time></trkpt><trkpt lat="43.59003491599039" lon="10.298380899716495"><ele>1.0</ele><time>2026-04-06T13:58:25Z</time></trkpt><trkpt lat="43.59014132894434" lon="10.298319651056707"><ele>1.0</ele><time>2026-04-06T13:58:26Z</time></trkpt><trkpt lat="43.59023503212671" lon="10.298264905082448"><ele>1.0</ele><time>2026-04-06T13:58:27Z</time></trkpt><trkpt lat="43.590325224880566" lon="10.29822063187657"><ele>1.0</ele><time>2026-04-06T13:58:28Z</time></trkpt><trkpt lat="43.59040733126684" lon="10.298177378143926"><ele>1.0</ele><time>2026-04-06T13:58:29Z</time></trkpt><trkpt lat="43.59048919757108" lon="10.298139017539967"><ele>1.0</ele><time>2026-04-06T13:58:30Z</time></trkpt><trkpt lat="43.59057611315227" lon="10.298095681338511"><ele>1.2000000000000002</ele><time>2026-04-06T13:58:31Z</time></trkpt><trkpt lat="43.590665154993715" lon="10.298044253838734"><ele>1.4000000000000001</ele><time>2026-04-06T13:58:32Z</time></trkpt><trkpt lat="43.59075831861046" lon="10.297991958923177"><ele>1.6</ele><time>2026-04-06T13:58:33Z</time></trkpt><trkpt lat="43.5908555032996" lon="10.297944286418597"><ele>1.8</ele><time>2026-04-06T13:58:34Z</time></trkpt><trkpt lat="43.590947854691805" lon="10.2978999757744"><ele>2.0</ele><time>2026-04-06T13:58:35Z</time></trkpt><trkpt lat="43.591035851883134" lon="10.297850135985088"><ele>2.0</ele><time>2026-04-06T13:58:36Z</time></trkpt><trkpt lat="43.59111799027372" lon="10.297804956035844"><ele>2.0</ele><time>2026-04-06T13:58:37Z</time></trkpt><trkpt lat="43.591200377860105" lon="10.297761197340314"><ele>2.0</ele><time>2026-04-06T13:58:38Z</time></trkpt><trkpt lat="43.59128475397058" lon="10.297715890779664"><ele>2.0</ele><time>2026-04-06T13:58:39Z</time></trkpt><trkpt lat="43.59137091791636" lon="10.297666462148799"><ele>2.0</ele><time>2026-04-06T13:58:40Z</time></trkpt><trkpt lat="43.59146365382816" lon="10.297620043291229"><ele>2.2</ele><time>2026-04-06T13:58:41Z</time></trkpt><trkpt lat="43.59155747351061" lon="10.297567300229005"><ele>2.4000000000000004</ele><time>2026-04-06T13:58:42Z</time></trkpt><trkpt lat="43.59165573722441" lon="10.297509785887927"><ele>2.5999999999999996</ele><time>2026-04-06T13:58:43Z</time></trkpt><trkpt lat="43.59175321309061" lon="10.297457948440956"><ele>2.8</ele><time>2026-04-06T13:58:44Z</time></trkpt><trkpt lat="43.59185353727363" lon="10.297403473144582"><ele>3.0</ele><time>2026-04-06T13:58:45Z</time></trkpt><trkpt lat="43.59195855080198" lon="10.297345734393028"><ele>2.75</ele><time>2026-04-06T13:58:46Z</time></trkpt><trkpt lat="43.592070110785116" lon="10.297284974765521"><ele>2.5</ele><time>2026-04-06T13:58:47Z</time></trkpt><trkpt lat="43.59217698734876" lon="10.297231712672405"><ele>2.25</ele><time>2026-04-06T13:58:48Z</time></trkpt><trkpt lat="43.59228118417919" lon="10.297179749000257"><ele>2.0</ele><time>2026-04-06T13:58:49Z</time></trkpt><trkpt lat="43.59238737452109" lon="10.297128373342488"><ele>1.75</ele><time>2026-04-06T13:58:50Z</time></trkpt><trkpt lat="43.592496604537736" lon="10.29706770220665"><ele>1.5</ele><time>2026-04-06T13:58:51Z</time></trkpt><trkpt lat="43.59260741038326" lon="10.297005511472769"><ele>1.25</ele><time>2026-04-06T13:58:52Z</time></trkpt><trkpt lat="43.592718352434936" lon="10.296945178497596"><ele>1.0</ele><time>2026-04-06T13:58:53Z</time></trkpt><trkpt lat="43.592832800035126" lon="10.296885233336562"><ele>0.75</ele><time>2026-04-06T13:58:54Z</time></trkpt><trkpt lat="43.59295002938395" lon="10.296826607497163"><ele>0.5</ele><time>2026-04-06T13:58:55Z</time></trkpt><trkpt lat="43.59306652036487" lon="10.296767533836098"><ele>0.25</ele><time>2026-04-06T13:58:56Z</time></trkpt><trkpt lat="43.59317960605895" lon="10.296710263432626"><ele>0.0</ele><time>2026-04-06T13:58:57Z</time></trkpt><trkpt lat="43.59328577574004" lon="10.296657475982732"><ele>0.0</ele><time>2026-04-06T13:58:58Z</time></trkpt><trkpt lat="43.593385277209904" lon="10.296607241903116"><ele>0.0</ele><time>2026-04-06T13:58:59Z</time></trkpt><trkpt lat="43.593482228494885" lon="10.296554627389844"><ele>0.0</ele><time>2026-04-06T13:59:00Z</time></trkpt><trkpt lat="43.5935788989541" lon="10.296501932835131"><ele>0.0</ele><time>2026-04-06T13:59:01Z</time></trkpt><trkpt lat="43.593675864513976" lon="10.296447121683903"><ele>0.0</ele><time>2026-04-06T13:59:02Z</time></trkpt><trkpt lat="43.593772422516224" lon="10.296389797968743"><ele>0.8</ele><time>2026-04-06T13:59:03Z</time></trkpt><trkpt lat="43.593871346817345" lon="10.296337434147501"><ele>1.6</ele><time>2026-04-06T13:59:04Z</time></trkpt><trkpt lat="43.593973327223395" lon="10.296282324682988"><ele>2.4000000000000004</ele><time>2026-04-06T13:59:05Z</time></trkpt><trkpt lat="43.594079464657604" lon="10.29623043874942"><ele>3.2</ele><time>2026-04-06T13:59:06Z</time></trkpt><trkpt lat="43.594184646785564" lon="10.296171467071286"><ele>4.0</ele><time>2026-04-06T13:59:07Z</time></trkpt><trkpt lat="43.594294463241575" lon="10.296113638898817"><ele>4.0</ele><time>2026-04-06T13:59:08Z</time></trkpt><trkpt lat="43.5944122415552" lon="10.296054155990655"><ele>4.0</ele><time>2026-04-06T13:59:09Z</time></trkpt><trkpt lat="43.594526035305904" lon="10.295994869036612"><ele>4.0</ele><time>2026-04-06T13:59:10Z</time></trkpt><trkpt lat="43.59463360087152" lon="10.295938823023418"><ele>4.0</ele><time>2026-04-06T13:59:11Z</time></trkpt><trkpt lat="43.59474457692987" lon="10.295877017524525"><ele>4.25</ele><time>2026-04-06T13:59:12Z</time></trkpt><trkpt lat="43.594846311769956" lon="10.295823849021172"><ele>4.5</ele><time>2026-04-06T13:59:13Z</time></trkpt><trkpt lat="43.59495122419143" lon="10.295757738200194"><ele>4.75</ele><time>2026-04-06T13:59:14Z</time></trkpt><trkpt lat="43.595063658602605" lon="10.295696702043777"><ele>5.0</ele><time>2026-04-06T13:59:15Z</time></trkpt><trkpt lat="43.595173799567036" lon="10.295644209556915"><ele>5.0</ele><time>2026-04-06T13:59:16Z</time></trkpt><trkpt lat="43.59527959643973" lon="10.29558706431072"><ele>5.0</ele><time>2026-04-06T13:59:17Z</time></trkpt><trkpt lat="43.59539198906984" lon="10.295528998134623"><ele>5.0</ele><time>2026-04-06T13:59:18Z</time></trkpt><trkpt lat="43.59550247163264" lon="10.295471305805096"><ele>5.0</ele><time>2026-04-06T13:59:19Z</time></trkpt><trkpt lat="43.59561290336378" lon="10.295408914665352"><ele>5.0</ele><time>2026-04-06T13:59:20Z</time></trkpt><trkpt lat="43.59571561355502" lon="10.295354844621249"><ele>5.0</ele><time>2026-04-06T13:59:21Z</time></trkpt><trkpt lat="43.59580118347988" lon="10.295299760230307"><ele>5.0</ele><time>2026-04-06T13:59:22Z</time></trkpt><trkpt lat="43.59588168350565" lon="10.29525247190486"><ele>5.0</ele><time>2026-04-06T13:59:23Z</time></trkpt><trkpt lat="43.595965298824225" lon="10.295210116920229"><ele>5.0</ele><time>2026-04-06T13:59:24Z</time></trkpt><trkpt lat="43.59603532781316" lon="10.295171822077576"><ele>5.0</ele><time>2026-04-06T13:59:25Z</time></trkpt><trkpt lat="43.59611087056086" lon="10.295132940419156"><ele>5.0</ele><time>2026-04-06T13:59:26Z</time></trkpt><trkpt lat="43.59619666652554" lon="10.295086775497516"><ele>5.0</ele><time>2026-04-06T13:59:27Z</time></trkpt><trkpt lat="43.59631430216723" lon="10.295038524133956"><ele>5.0</ele><time>2026-04-06T13:59:28Z</time></trkpt><trkpt lat="43.596421079824104" lon="10.294980868846714"><ele>5.0</ele><time>2026-04-06T13:59:29Z</time></trkpt><trkpt lat="43.59652348420524" lon="10.294924002168223"><ele>4.6</ele><time>2026-04-06T13:59:30Z</time></trkpt><trkpt lat="43.59661764696243" lon="10.294868114996873"><ele>4.2</ele><time>2026-04-06T13:59:31Z</time></trkpt><trkpt lat="43.59672025281475" lon="10.294816351095703"><ele>3.8</ele><time>2026-04-06T13:59:32Z</time></trkpt><trkpt lat="43.59682555073563" lon="10.294772328951526"><ele>3.4</ele><time>2026-04-06T13:59:33Z</time></trkpt><trkpt lat="43.59691683544261" lon="10.294722340717247"><ele>3.0</ele><time>2026-04-06T13:59:34Z</time></trkpt><trkpt lat="43.59700255471322" lon="10.294679061364853"><ele>3.0</ele><time>2026-04-06T13:59:35Z</time></trkpt><trkpt lat="43.59708109118428" lon="10.29464036383645"><ele>3.0</ele><time>2026-04-06T13:59:36Z</time></trkpt><trkpt lat="43.597154237437366" lon="10.294600199527908"><ele>3.0</ele><time>2026-04-06T13:59:37Z</time></trkpt><trkpt lat="43.59721989577253" lon="10.294562498385408"><ele>3.0</ele><time>2026-04-06T13:59:38Z</time></trkpt><trkpt lat="43.59728382816155" lon="10.294526534041596"><ele>3.0</ele><time>2026-04-06T13:59:39Z</time></trkpt><trkpt lat="43.59735315407334" lon="10.29448468971542"><ele>3.0</ele><time>2026-04-06T13:59:40Z</time></trkpt><trkpt lat="43.597426547901144" lon="10.294449799197338"><ele>2.9999999999999996</ele><time>2026-04-06T13:59:41Z</time></trkpt><trkpt lat="43.597499015867825" lon="10.294431391760074"><ele>3.0</ele><time>2026-04-06T13:59:42Z</time></trkpt><trkpt lat="43.597568362877944" lon="10.294416567511634"><ele>3.0</ele><time>2026-04-06T13:59:43Z</time></trkpt><trkpt lat="43.59763663928523" lon="10.294395613387891"><ele>3.0</ele><time>2026-04-06T13:59:44Z</time></trkpt><trkpt lat="43.59770830021732" lon="10.29436240133609"><ele>3.0</ele><time>2026-04-06T13:59:45Z</time></trkpt><trkpt lat="43.59778032039238" lon="10.294332383000533"><ele>2.9999999999999996</ele><time>2026-04-06T13:59:46Z</time></trkpt><trkpt lat="43.59784936464865" lon="10.294312349418005"><ele>3.0</ele><time>2026-04-06T13:59:47Z</time></trkpt><trkpt lat="43.597915910028" lon="10.294289294421349"><ele>2.9999999999999996</ele><time>2026-04-06T13:59:48Z</time></trkpt><trkpt lat="43.59798232603283" lon="10.294268914517811"><ele>3.0</ele><time>2026-04-06T13:59:49Z</time></trkpt><trkpt lat="43.59805220631991" lon="10.294241284614237"><ele>3.0</ele><time>2026-04-06T13:59:50Z</time></trkpt><trkpt lat="43.598127165860404" lon="10.294216304048328"><ele>3.0</ele><time>2026-04-06T13:59:51Z</time></trkpt><trkpt lat="43.59820101289079" lon="10.294190523245563"><ele>3.0</ele><time>2026-04-06T13:59:52Z</time></trkpt><trkpt lat="43.598268258922516" lon="10.294171758385106"><ele>2.9999999999999996</ele><time>2026-04-06T13:59:53Z</time></trkpt><trkpt lat="43.598337910407906" lon="10.294157074138482"><ele>3.0</ele><time>2026-04-06T13:59:54Z</time></trkpt><trkpt lat="43.598407746509345" lon="10.294136629284106"><ele>3.0</ele><time>2026-04-06T13:59:55Z</time></trkpt><trkpt lat="43.598478563427754" lon="10.294104261180628"><ele>3.0</ele><time>2026-04-06T13:59:56Z</time></trkpt><trkpt lat="43.59855234095225" lon="10.294080848224509"><ele>3.0</ele><time>2026-04-06T13:59:57Z</time></trkpt><trkpt lat="43.598623362572276" lon="10.294058712757101"><ele>3.0</ele><time>2026-04-06T13:59:58Z</time></trkpt><trkpt lat="43.59870157525833" lon="10.294039195008029"><ele>3.0</ele><time>2026-04-06T13:59:59Z</time></trkpt><trkpt lat="43.5987801996824" lon="10.294011930495476"><ele>3.0</ele><time>2026-04-06T14:00:00Z</time></trkpt><trkpt lat="43.59886240980251" lon="10.293982881310244"><ele>2.714285714285714</ele><time>2026-04-06T14:00:01Z</time></trkpt><trkpt lat="43.59894879654339" lon="10.293958425263728"><ele>2.4285714285714284</ele><time>2026-04-06T14:00:02Z</time></trkpt><trkpt lat="43.599030017506074" lon="10.293939015570285"><ele>2.142857142857143</ele><time>2026-04-06T14:00:03Z</time></trkpt><trkpt lat="43.59910710361605" lon="10.293922188621083"><ele>1.857142857142857</ele><time>2026-04-06T14:00:04Z</time></trkpt><trkpt lat="43.599177371009446" lon="10.293908877955563"><ele>1.5714285714285712</ele><time>2026-04-06T14:00:05Z</time></trkpt><trkpt lat="43.59924246123373" lon="10.293894945132843"><ele>1.2857142857142856</ele><time>2026-04-06T14:00:06Z</time></trkpt><trkpt lat="43.59930391762967" lon="10.29387257677357"><ele>1.0</ele><time>2026-04-06T14:00:07Z</time></trkpt><trkpt lat="43.59937486063704" lon="10.293847369751747"><ele>0.8333333333333333</ele><time>2026-04-06T14:00:08Z</time></trkpt><trkpt lat="43.59945284934833" lon="10.293830896823124"><ele>0.6666666666666666</ele><time>2026-04-06T14:00:09Z</time></trkpt><trkpt lat="43.59953450665917" lon="10.293816698174757"><ele>0.5</ele><time>2026-04-06T14:00:10Z</time></trkpt><trkpt lat="43.5996184270453" lon="10.293796200812052"><ele>0.3333333333333333</ele><time>2026-04-06T14:00:11Z</time></trkpt><trkpt lat="43.59970460826638" lon="10.293777373264739"><ele>0.16666666666666666</ele><time>2026-04-06T14:00:12Z</time></trkpt><trkpt lat="43.5997836400168" lon="10.293764159040885"><ele>0.0</ele><time>2026-04-06T14:00:13Z</time></trkpt><trkpt lat="43.59985147606845" lon="10.293747741798695"><ele>0.4</ele><time>2026-04-06T14:00:14Z</time></trkpt><trkpt lat="43.599971498150445" lon="10.293725376227716"><ele>0.8</ele><time>2026-04-06T14:00:16Z</time></trkpt><trkpt lat="43.6000762910156" lon="10.293704338267977"><ele>1.2000000000000002</ele><time>2026-04-06T14:00:18Z</time></trkpt><trkpt lat="43.60017767679168" lon="10.293677043637825"><ele>1.6</ele><time>2026-04-06T14:00:20Z</time></trkpt><trkpt lat="43.60027978759943" lon="10.293647566621138"><ele>2.0</ele><time>2026-04-06T14:00:22Z</time></trkpt><trkpt lat="43.600373307401405" lon="10.293628772899"><ele>1.9999999999999998</ele><time>2026-04-06T14:00:24Z</time></trkpt><trkpt lat="43.6004572379323" lon="10.293610519662687"><ele>2.0</ele><time>2026-04-06T14:00:26Z</time></trkpt><trkpt lat="43.60057854433848" lon="10.293592868212917"><ele>2.0</ele><time>2026-04-06T14:00:28Z</time></trkpt><trkpt lat="43.60065531257894" lon="10.29357576119953"><ele>2.0</ele><time>2026-04-06T14:00:29Z</time></trkpt><trkpt lat="43.60073021649225" lon="10.293557504114826"><ele>1.9999999999999998</ele><time>2026-04-06T14:00:30Z</time></trkpt><trkpt lat="43.600802942834804" lon="10.293539151118864"><ele>2.0</ele><time>2026-04-06T14:00:31Z</time></trkpt><trkpt lat="43.600870770528594" lon="10.29353522279136"><ele>1.9999999999999998</ele><time>2026-04-06T14:00:32Z</time></trkpt><trkpt lat="43.600952109508135" lon="10.293520499073866"><ele>2.0</ele><time>2026-04-06T14:00:34Z</time></trkpt><trkpt lat="43.60101372995757" lon="10.293501107721545"><ele>2.0</ele><time>2026-04-06T14:00:37Z</time></trkpt><trkpt lat="43.60110468700923" lon="10.293465545522512"><ele>2.0</ele><time>2026-04-06T14:00:40Z</time></trkpt><trkpt lat="43.60119028010264" lon="10.293439449779644"><ele>1.9999999999999998</ele><time>2026-04-06T14:00:43Z</time></trkpt><trkpt lat="43.60126564915084" lon="10.293431947147877"><ele>2.0</ele><time>2026-04-06T14:00:46Z</time></trkpt><trkpt lat="43.60134632207751" lon="10.293407667906166"><ele>1.9999999999999998</ele><time>2026-04-06T14:00:49Z</time></trkpt><trkpt lat="43.601416078146485" lon="10.293386059484712"><ele>2.0</ele><time>2026-04-06T14:00:51Z</time></trkpt><trkpt lat="43.60148286940519" lon="10.293367849981452"><ele>2.0</ele><time>2026-04-06T14:00:53Z</time></trkpt><trkpt lat="43.60157303164103" lon="10.293361519896404"><ele>2.0</ele><time>2026-04-06T14:00:55Z</time></trkpt><trkpt lat="43.60167400525732" lon="10.293345879586942"><ele>1.9999999999999998</ele><time>2026-04-06T14:00:57Z</time></trkpt><trkpt lat="43.601780685573196" lon="10.293318832854586"><ele>2.0</ele><time>2026-04-06T14:00:59Z</time></trkpt><trkpt lat="43.60187815545395" lon="10.293311276077151"><ele>1.9999999999999998</ele><time>2026-04-06T14:01:01Z</time></trkpt><trkpt lat="43.60194505812637" lon="10.293287773528132"><ele>2.0</ele><time>2026-04-06T14:01:03Z</time></trkpt><trkpt lat="43.60201410367015" lon="10.293283856017682"><ele>2.0</ele><time>2026-04-06T14:01:09Z</time></trkpt><trkpt lat="43.602095790269566" lon="10.293267206919975"><ele>2.0</ele><time>2026-04-06T14:01:11Z</time></trkpt><trkpt lat="43.60219974144751" lon="10.293235260176665"><ele>1.9999999999999998</ele><time>2026-04-06T14:01:13Z</time></trkpt><trkpt lat="43.602316612524916" lon="10.293216865557696"><ele>2.0</ele><time>2026-04-06T14:01:15Z</time></trkpt><trkpt lat="43.602379490755744" lon="10.293205805915145"><ele>2.2</ele><time>2026-04-06T14:01:16Z</time></trkpt><trkpt lat="43.60244635199719" lon="10.293186124303615"><ele>2.4000000000000004</ele><time>2026-04-06T14:01:17Z</time></trkpt><trkpt lat="43.60256639236407" lon="10.29315927527457"><ele>2.5999999999999996</ele><time>2026-04-06T14:01:19Z</time></trkpt><trkpt lat="43.602691374008245" lon="10.293134989628756"><ele>2.8</ele><time>2026-04-06T14:01:21Z</time></trkpt><trkpt lat="43.6027610196019" lon="10.293116696858139"><ele>3.0</ele><time>2026-04-06T14:01:22Z</time></trkpt><trkpt lat="43.60283620648653" lon="10.29310008773547"><ele>3.0</ele><time>2026-04-06T14:01:23Z</time></trkpt><trkpt lat="43.60291835984915" lon="10.293079449474035"><ele>3.0</ele><time>2026-04-06T14:01:24Z</time></trkpt><trkpt lat="43.60300095119385" lon="10.293059377089957"><ele>3.0</ele><time>2026-04-06T14:01:25Z</time></trkpt><trkpt lat="43.603086371078945" lon="10.293038006918918"><ele>3.0</ele><time>2026-04-06T14:01:26Z</time></trkpt><trkpt lat="43.60317392521951" lon="10.293017283954287"><ele>3.0</ele><time>2026-04-06T14:01:27Z</time></trkpt><trkpt lat="43.603257627332475" lon="10.29299831478427"><ele>3.0</ele><time>2026-04-06T14:01:28Z</time></trkpt><trkpt lat="43.603340459007924" lon="10.292986210762944"><ele>3.0</ele><time>2026-04-06T14:01:29Z</time></trkpt><trkpt lat="43.6034153524408" lon="10.292970815827466"><ele>3.0</ele><time>2026-04-06T14:01:30Z</time></trkpt><trkpt lat="43.60348671618508" lon="10.292951732447985"><ele>3.0</ele><time>2026-04-06T14:01:31Z</time></trkpt><trkpt lat="43.60355860542442" lon="10.292937842958427"><ele>3.0</ele><time>2026-04-06T14:01:32Z</time></trkpt><trkpt lat="43.60364273290244" lon="10.292919178272234"><ele>3.0</ele><time>2026-04-06T14:01:33Z</time></trkpt><trkpt lat="43.60372411282425" lon="10.292901336865636"><ele>3.0</ele><time>2026-04-06T14:01:34Z</time></trkpt><trkpt lat="43.60380454474616" lon="10.292879216117555"><ele>3.1666666666666665</ele><time>2026-04-06T14:01:35Z</time></trkpt><trkpt lat="43.60388806771152" lon="10.292871118169518"><ele>3.333333333333333</ele><time>2026-04-06T14:01:36Z</time></trkpt><trkpt lat="43.6039710788505" lon="10.29285352401705"><ele>3.5</ele><time>2026-04-06T14:01:37Z</time></trkpt><trkpt lat="43.60405218956151" lon="10.292834641401992"><ele>3.6666666666666665</ele><time>2026-04-06T14:01:38Z</time></trkpt><trkpt lat="43.604130788890515" lon="10.292816219891774"><ele>3.833333333333333</ele><time>2026-04-06T14:01:39Z</time></trkpt><trkpt lat="43.60421050745596" lon="10.2927980299905"><ele>4.0</ele><time>2026-04-06T14:01:40Z</time></trkpt><trkpt lat="43.604285783684645" lon="10.292779512528845"><ele>3.9999999999999996</ele><time>2026-04-06T14:01:41Z</time></trkpt><trkpt lat="43.60436200613844" lon="10.292762556027581"><ele>4.0</ele><time>2026-04-06T14:01:42Z</time></trkpt><trkpt lat="43.604437424812176" lon="10.292747935660943"><ele>4.0</ele><time>2026-04-06T14:01:43Z</time></trkpt><trkpt lat="43.604509490161085" lon="10.29273023970205"><ele>4.0</ele><time>2026-04-06T14:01:44Z</time></trkpt><trkpt lat="43.6045881729553" lon="10.292717499441812"><ele>3.9999999999999996</ele><time>2026-04-06T14:01:45Z</time></trkpt><trkpt lat="43.60466558299538" lon="10.292705479375183"><ele>4.0</ele><time>2026-04-06T14:01:46Z</time></trkpt><trkpt lat="43.60474013017332" lon="10.292682436221412"><ele>4.166666666666666</ele><time>2026-04-06T14:01:47Z</time></trkpt><trkpt lat="43.60482293945899" lon="10.292662005675421"><ele>4.333333333333333</ele><time>2026-04-06T14:01:48Z</time></trkpt><trkpt lat="43.60490751809609" lon="10.292644038860308"><ele>4.5</ele><time>2026-04-06T14:01:49Z</time></trkpt><trkpt lat="43.6049859015643" lon="10.292627341106689"><ele>4.666666666666667</ele><time>2026-04-06T14:01:50Z</time></trkpt><trkpt lat="43.60505340851523" lon="10.292612414176974"><ele>4.833333333333334</ele><time>2026-04-06T14:01:51Z</time></trkpt><trkpt lat="43.605157604266964" lon="10.292592647539214"><ele>5.0</ele><time>2026-04-06T14:01:53Z</time></trkpt><trkpt lat="43.605258342345444" lon="10.292571373940543"><ele>4.666666666666667</ele><time>2026-04-06T14:01:55Z</time></trkpt><trkpt lat="43.60538292272595" lon="10.292538832797344"><ele>4.333333333333334</ele><time>2026-04-06T14:01:57Z</time></trkpt><trkpt lat="43.605455674042894" lon="10.292527251348151"><ele>4.0</ele><time>2026-04-06T14:01:58Z</time></trkpt><trkpt lat="43.60552229300067" lon="10.292510896080282"><ele>3.666666666666667</ele><time>2026-04-06T14:01:59Z</time></trkpt><trkpt lat="43.60558616610339" lon="10.292497571158613"><ele>3.3333333333333335</ele><time>2026-04-06T14:02:00Z</time></trkpt><trkpt lat="43.605689196066216" lon="10.292478312579895"><ele>3.0</ele><time>2026-04-06T14:02:02Z</time></trkpt><trkpt lat="43.605798428320924" lon="10.292441886087472"><ele>3.0</ele><time>2026-04-06T14:02:04Z</time></trkpt><trkpt lat="43.605913199953875" lon="10.29241403225004"><ele>3.0</ele><time>2026-04-06T14:02:06Z</time></trkpt><trkpt lat="43.60597961191535" lon="10.292395387600092"><ele>3.0</ele><time>2026-04-06T14:02:07Z</time></trkpt><trkpt lat="43.606049612862826" lon="10.292378163710978"><ele>3.0</ele><time>2026-04-06T14:02:08Z</time></trkpt><trkpt lat="43.60612901843398" lon="10.292356460238667"><ele>3.0</ele><time>2026-04-06T14:02:09Z</time></trkpt><trkpt lat="43.60621197761316" lon="10.292340508729056"><ele>3.0</ele><time>2026-04-06T14:02:10Z</time></trkpt><trkpt lat="43.60628985272686" lon="10.292320342297854"><ele>2.9999999999999996</ele><time>2026-04-06T14:02:11Z</time></trkpt><trkpt lat="43.60636224165446" lon="10.292303979398678"><ele>3.0</ele><time>2026-04-06T14:02:12Z</time></trkpt><trkpt lat="43.606431441861474" lon="10.29229192611776"><ele>3.0</ele><time>2026-04-06T14:02:13Z</time></trkpt><trkpt lat="43.60649778511005" lon="10.292272641443073"><ele>3.0</ele><time>2026-04-06T14:02:14Z</time></trkpt><trkpt lat="43.60656948574304" lon="10.292270087560409"><ele>3.0</ele><time>2026-04-06T14:02:15Z</time></trkpt><trkpt lat="43.60664120505779" lon="10.29225110058119"><ele>2.9999999999999996</ele><time>2026-04-06T14:02:16Z</time></trkpt><trkpt lat="43.606715313125164" lon="10.2922397581545"><ele>3.0</ele><time>2026-04-06T14:02:17Z</time></trkpt><trkpt lat="43.60679630784609" lon="10.292220644158308"><ele>3.0</ele><time>2026-04-06T14:02:18Z</time></trkpt><trkpt lat="43.60687484982025" lon="10.292203339619109"><ele>3.0</ele><time>2026-04-06T14:02:19Z</time></trkpt><trkpt lat="43.60694457436345" lon="10.292180777940969"><ele>3.0</ele><time>2026-04-06T14:02:20Z</time></trkpt><trkpt lat="43.6070088412314" lon="10.292161953930675"><ele>3.0</ele><time>2026-04-06T14:02:21Z</time></trkpt><trkpt lat="43.60712443225097" lon="10.292145714480375"><ele>3.0</ele><time>2026-04-06T14:02:23Z</time></trkpt><trkpt lat="43.607195311347255" lon="10.2921329584432"><ele>3.0</ele><time>2026-04-06T14:02:24Z</time></trkpt><trkpt lat="43.607276737869704" lon="10.29211787660638"><ele>3.2</ele><time>2026-04-06T14:02:25Z</time></trkpt><trkpt lat="43.60735998332454" lon="10.292099780343218"><ele>3.4</ele><time>2026-04-06T14:02:26Z</time></trkpt><trkpt lat="43.607451019952904" lon="10.292076595854226"><ele>3.6000000000000005</ele><time>2026-04-06T14:02:27Z</time></trkpt><trkpt lat="43.607549749194455" lon="10.292056105180613"><ele>3.8000000000000003</ele><time>2026-04-06T14:02:28Z</time></trkpt><trkpt lat="43.60764503088959" lon="10.292039969017564"><ele>4.0</ele><time>2026-04-06T14:02:29Z</time></trkpt><trkpt lat="43.607739524778495" lon="10.292020765513206"><ele>3.8000000000000003</ele><time>2026-04-06T14:02:30Z</time></trkpt><trkpt lat="43.60783568903108" lon="10.292001855807452"><ele>3.6000000000000005</ele><time>2026-04-06T14:02:31Z</time></trkpt><trkpt lat="43.60792999503752" lon="10.291976592365414"><ele>3.4</ele><time>2026-04-06T14:02:32Z</time></trkpt><trkpt lat="43.608023053996796" lon="10.291955987652862"><ele>3.2</ele><time>2026-04-06T14:02:33Z</time></trkpt><trkpt lat="43.60811791536691" lon="10.29193357990081"><ele>3.0</ele><time>2026-04-06T14:02:34Z</time></trkpt><trkpt lat="43.60821347041523" lon="10.291913138632282"><ele>3.0</ele><time>2026-04-06T14:02:35Z</time></trkpt><trkpt lat="43.6083068065009" lon="10.291901511478258"><ele>3.0</ele><time>2026-04-06T14:02:36Z</time></trkpt><trkpt lat="43.60839816219762" lon="10.291880318705532"><ele>3.0</ele><time>2026-04-06T14:02:37Z</time></trkpt><trkpt lat="43.608489264663156" lon="10.291858943134224"><ele>3.0</ele><time>2026-04-06T14:02:38Z</time></trkpt><trkpt lat="43.60858481527785" lon="10.291837829136265"><ele>3.0</ele><time>2026-04-06T14:02:39Z</time></trkpt><trkpt lat="43.608680450435074" lon="10.291813714299447"><ele>3.0</ele><time>2026-04-06T14:02:40Z</time></trkpt><trkpt lat="43.60877118836362" lon="10.291794495862865"><ele>3.0</ele><time>2026-04-06T14:02:41Z</time></trkpt><trkpt lat="43.60885698444665" lon="10.291778161611063"><ele>3.0</ele><time>2026-04-06T14:02:42Z</time></trkpt><trkpt lat="43.60893698634447" lon="10.291763256651565"><ele>3.0</ele><time>2026-04-06T14:02:43Z</time></trkpt><trkpt lat="43.60901620688494" lon="10.291743566161811"><ele>3.0</ele><time>2026-04-06T14:02:44Z</time></trkpt><trkpt lat="43.60910043722156" lon="10.291723103670446"><ele>3.0</ele><time>2026-04-06T14:02:45Z</time></trkpt><trkpt lat="43.60918585092387" lon="10.29170482363413"><ele>3.0</ele><time>2026-04-06T14:02:46Z</time></trkpt><trkpt lat="43.609273422628846" lon="10.291685181917563"><ele>3.0</ele><time>2026-04-06T14:02:47Z</time></trkpt><trkpt lat="43.60936616994092" lon="10.291661474498941"><ele>3.0</ele><time>2026-04-06T14:02:48Z</time></trkpt><trkpt lat="43.609459989860326" lon="10.291640074018387"><ele>3.0</ele><time>2026-04-06T14:02:49Z</time></trkpt><trkpt lat="43.609554976450895" lon="10.29162321564537"><ele>3.0</ele><time>2026-04-06T14:02:50Z</time></trkpt><trkpt lat="43.609649266125" lon="10.291598858500834"><ele>3.2</ele><time>2026-04-06T14:02:51Z</time></trkpt><trkpt lat="43.60974375842686" lon="10.291579857628566"><ele>3.4</ele><time>2026-04-06T14:02:52Z</time></trkpt><trkpt lat="43.60983620821634" lon="10.291557660296291"><ele>3.6000000000000005</ele><time>2026-04-06T14:02:53Z</time></trkpt><trkpt lat="43.60992539852716" lon="10.291542301423753"><ele>3.8000000000000003</ele><time>2026-04-06T14:02:54Z</time></trkpt><trkpt lat="43.610013114262316" lon="10.291525425121225"><ele>4.0</ele><time>2026-04-06T14:02:55Z</time></trkpt><trkpt lat="43.61009990007329" lon="10.291506217198563"><ele>4.0</ele><time>2026-04-06T14:02:56Z</time></trkpt><trkpt lat="43.61018728086505" lon="10.291491142799043"><ele>4.0</ele><time>2026-04-06T14:02:57Z</time></trkpt><trkpt lat="43.61027535254194" lon="10.291477972196658"><ele>4.0</ele><time>2026-04-06T14:02:58Z</time></trkpt><trkpt lat="43.610368073390774" lon="10.291461676959734"><ele>4.0</ele><time>2026-04-06T14:02:59Z</time></trkpt><trkpt lat="43.610459277996505" lon="10.29144413083035"><ele>4.0</ele><time>2026-04-06T14:03:00Z</time></trkpt><trkpt lat="43.61055228931284" lon="10.291423561350587"><ele>4.2</ele><time>2026-04-06T14:03:01Z</time></trkpt><trkpt lat="43.61064842056093" lon="10.29140538302487"><ele>4.4</ele><time>2026-04-06T14:03:02Z</time></trkpt><trkpt lat="43.610748384755574" lon="10.291392074880962"><ele>4.6</ele><time>2026-04-06T14:03:03Z</time></trkpt><trkpt lat="43.61084876138719" lon="10.291378355136365"><ele>4.8</ele><time>2026-04-06T14:03:04Z</time></trkpt><trkpt lat="43.61094410727561" lon="10.291366853319326"><ele>5.0</ele><time>2026-04-06T14:03:05Z</time></trkpt><trkpt lat="43.61104486083576" lon="10.291353816788563"><ele>5.0</ele><time>2026-04-06T14:03:06Z</time></trkpt><trkpt lat="43.61114366382251" lon="10.29134038779006"><ele>5.0</ele><time>2026-04-06T14:03:07Z</time></trkpt><trkpt lat="43.61124156794626" lon="10.291316659736985"><ele>5.0</ele><time>2026-04-06T14:03:08Z</time></trkpt><trkpt lat="43.61133319608976" lon="10.291304994283268"><ele>5.0</ele><time>2026-04-06T14:03:09Z</time></trkpt><trkpt lat="43.61142443352362" lon="10.291287755658846"><ele>5.0</ele><time>2026-04-06T14:03:10Z</time></trkpt><trkpt lat="43.61151748770756" lon="10.291277047604893"><ele>4.8</ele><time>2026-04-06T14:03:11Z</time></trkpt><trkpt lat="43.61159337711436" lon="10.291273734687703"><ele>4.6</ele><time>2026-04-06T14:03:12Z</time></trkpt><trkpt lat="43.61167732316076" lon="10.29127218854311"><ele>4.4</ele><time>2026-04-06T14:03:13Z</time></trkpt><trkpt lat="43.611747424104415" lon="10.29126141016866"><ele>4.2</ele><time>2026-04-06T14:03:14Z</time></trkpt><trkpt lat="43.61186728434571" lon="10.291251849631866"><ele>4.0</ele><time>2026-04-06T14:03:16Z</time></trkpt><trkpt lat="43.61197064097681" lon="10.291247619896374"><ele>3.9999999999999996</ele><time>2026-04-06T14:03:18Z</time></trkpt><trkpt lat="43.61204379747098" lon="10.291243108061085"><ele>4.0</ele><time>2026-04-06T14:03:20Z</time></trkpt><trkpt lat="43.61211712185864" lon="10.291248250088852"><ele>4.0</ele><time>2026-04-06T14:03:23Z</time></trkpt><trkpt lat="43.612198611896055" lon="10.291303426951721"><ele>4.0</ele><time>2026-04-06T14:03:33Z</time></trkpt><trkpt lat="43.6122625761783" lon="10.291276013356809"><ele>3.9999999999999996</ele><time>2026-04-06T14:03:34Z</time></trkpt><trkpt lat="43.612363323153645" lon="10.291243911672712"><ele>4.0</ele><time>2026-04-06T14:03:36Z</time></trkpt><trkpt lat="43.612487923238675" lon="10.291202923312035"><ele>4.0</ele><time>2026-04-06T14:03:38Z</time></trkpt><trkpt lat="43.612554139134424" lon="10.291192593620782"><ele>4.0</ele><time>2026-04-06T14:03:39Z</time></trkpt><trkpt lat="43.61267369881384" lon="10.291188834665725"><ele>4.0</ele><time>2026-04-06T14:03:41Z</time></trkpt><trkpt lat="43.61281497155844" lon="10.291182788036744"><ele>4.0</ele><time>2026-04-06T14:03:43Z</time></trkpt><trkpt lat="43.612895026418336" lon="10.291177058433561"><ele>4.0</ele><time>2026-04-06T14:03:44Z</time></trkpt><trkpt lat="43.61297162550997" lon="10.291172901876482"><ele>4.166666666666666</ele><time>2026-04-06T14:03:45Z</time></trkpt><trkpt lat="43.613052120373766" lon="10.291172507251227"><ele>4.333333333333333</ele><time>2026-04-06T14:03:46Z</time></trkpt><trkpt lat="43.6131344882503" lon="10.291171985017414"><ele>4.5</ele><time>2026-04-06T14:03:47Z</time></trkpt><trkpt lat="43.61321550867563" lon="10.291169755755693"><ele>4.666666666666667</ele><time>2026-04-06T14:03:48Z</time></trkpt><trkpt lat="43.61329021607188" lon="10.291163549513437"><ele>4.833333333333334</ele><time>2026-04-06T14:03:49Z</time></trkpt><trkpt lat="43.61336757056577" lon="10.291162862972538"><ele>5.0</ele><time>2026-04-06T14:03:50Z</time></trkpt><trkpt lat="43.613441669182855" lon="10.291157616979989"><ele>5.0</ele><time>2026-04-06T14:03:51Z</time></trkpt><trkpt lat="43.613513687503726" lon="10.29115257693505"><ele>5.0</ele><time>2026-04-06T14:03:52Z</time></trkpt><trkpt lat="43.61358495270817" lon="10.29115070779571"><ele>5.0</ele><time>2026-04-06T14:03:53Z</time></trkpt><trkpt lat="43.61365501330031" lon="10.29115056276479"><ele>5.0</ele><time>2026-04-06T14:03:54Z</time></trkpt><trkpt lat="43.61372307825528" lon="10.291150650129746"><ele>5.0</ele><time>2026-04-06T14:03:55Z</time></trkpt><trkpt lat="43.61379530260837" lon="10.2911472384062"><ele>5.0</ele><time>2026-04-06T14:03:56Z</time></trkpt><trkpt lat="43.61386943061598" lon="10.29114335249997"><ele>5.0</ele><time>2026-04-06T14:03:57Z</time></trkpt><trkpt lat="43.61394600972674" lon="10.291145857204127"><ele>5.0</ele><time>2026-04-06T14:03:58Z</time></trkpt><trkpt lat="43.61402604894351" lon="10.291146764510342"><ele>5.0</ele><time>2026-04-06T14:03:59Z</time></trkpt><trkpt lat="43.61410812071197" lon="10.291144185748076"><ele>5.0</ele><time>2026-04-06T14:04:00Z</time></trkpt><trkpt lat="43.61418925521645" lon="10.2911442273548"><ele>5.0</ele><time>2026-04-06T14:04:01Z</time></trkpt><trkpt lat="43.61426518610188" lon="10.291154879572712"><ele>5.0</ele><time>2026-04-06T14:04:02Z</time></trkpt><trkpt lat="43.61433328804095" lon="10.291161361006372"><ele>5.0</ele><time>2026-04-06T14:04:03Z</time></trkpt><trkpt lat="43.61440105684395" lon="10.291162629761649"><ele>5.0</ele><time>2026-04-06T14:04:04Z</time></trkpt><trkpt lat="43.61447231108814" lon="10.291160261322599"><ele>5.0</ele><time>2026-04-06T14:04:05Z</time></trkpt><trkpt lat="43.6145537464324" lon="10.291160024684784"><ele>5.0</ele><time>2026-04-06T14:04:06Z</time></trkpt><trkpt lat="43.61463680982799" lon="10.291164757385458"><ele>5.0</ele><time>2026-04-06T14:04:07Z</time></trkpt><trkpt lat="43.61472230197549" lon="10.291166258114746"><ele>5.0</ele><time>2026-04-06T14:04:08Z</time></trkpt><trkpt lat="43.614814437571425" lon="10.291175141506953"><ele>5.0</ele><time>2026-04-06T14:04:09Z</time></trkpt><trkpt lat="43.61490177200173" lon="10.291185671669222"><ele>5.0</ele><time>2026-04-06T14:04:10Z</time></trkpt><trkpt lat="43.61498735791278" lon="10.291194950157523"><ele>5.0</ele><time>2026-04-06T14:04:11Z</time></trkpt><trkpt lat="43.61507291937306" lon="10.291188722324197"><ele>5.0</ele><time>2026-04-06T14:04:12Z</time></trkpt><trkpt lat="43.61514660947804" lon="10.291189847871218"><ele>5.0</ele><time>2026-04-06T14:04:13Z</time></trkpt><trkpt lat="43.615224720186426" lon="10.291193114872772"><ele>5.0</ele><time>2026-04-06T14:04:14Z</time></trkpt><trkpt lat="43.61530544441851" lon="10.291196766842852"><ele>5.0</ele><time>2026-04-06T14:04:15Z</time></trkpt><trkpt lat="43.61538507110145" lon="10.291199590365594"><ele>5.0</ele><time>2026-04-06T14:04:16Z</time></trkpt><trkpt lat="43.615464065524435" lon="10.291200631984111"><ele>5.0</ele><time>2026-04-06T14:04:17Z</time></trkpt><trkpt lat="43.61554697700143" lon="10.291204809900666"><ele>5.0</ele><time>2026-04-06T14:04:18Z</time></trkpt><trkpt lat="43.61562836767872" lon="10.29121007399109"><ele>5.0</ele><time>2026-04-06T14:04:19Z</time></trkpt><trkpt lat="43.61570916911232" lon="10.29121219078211"><ele>5.0</ele><time>2026-04-06T14:04:20Z</time></trkpt><trkpt lat="43.615789809848465" lon="10.291213225018907"><ele>5.0</ele><time>2026-04-06T14:04:21Z</time></trkpt><trkpt lat="43.61586944285721" lon="10.291218054137893"><ele>5.0</ele><time>2026-04-06T14:04:22Z</time></trkpt><trkpt lat="43.6159464787653" lon="10.291223286519097"><ele>5.0</ele><time>2026-04-06T14:04:23Z</time></trkpt><trkpt lat="43.6160244180227" lon="10.291227396513465"><ele>5.0</ele><time>2026-04-06T14:04:24Z</time></trkpt><trkpt lat="43.61610379046607" lon="10.291226256268555"><ele>5.0</ele><time>2026-04-06T14:04:25Z</time></trkpt><trkpt lat="43.6161853832019" lon="10.291225653938602"><ele>5.0</ele><time>2026-04-06T14:04:26Z</time></trkpt><trkpt lat="43.61626760530826" lon="10.29122422841467"><ele>5.0</ele><time>2026-04-06T14:04:27Z</time></trkpt><trkpt lat="43.61635752232537" lon="10.291228092803864"><ele>5.0</ele><time>2026-04-06T14:04:28Z</time></trkpt><trkpt lat="43.61644924759989" lon="10.291229308468282"><ele>5.0</ele><time>2026-04-06T14:04:29Z</time></trkpt><trkpt lat="43.61653697389864" lon="10.291225071832914"><ele>5.0</ele><time>2026-04-06T14:04:30Z</time></trkpt><trkpt lat="43.61662193925651" lon="10.291226409939089"><ele>5.0</ele><time>2026-04-06T14:04:31Z</time></trkpt><trkpt lat="43.6166947277945" lon="10.291228725969749"><ele>5.0</ele><time>2026-04-06T14:04:32Z</time></trkpt><trkpt lat="43.61682104660877" lon="10.29123551597918"><ele>5.0</ele><time>2026-04-06T14:04:34Z</time></trkpt><trkpt lat="43.616891130610725" lon="10.291237427065523"><ele>5.0</ele><time>2026-04-06T14:04:35Z</time></trkpt><trkpt lat="43.61696981129697" lon="10.29123775323635"><ele>5.0</ele><time>2026-04-06T14:04:36Z</time></trkpt><trkpt lat="43.61705056452265" lon="10.291234711514841"><ele>5.0</ele><time>2026-04-06T14:04:37Z</time></trkpt><trkpt lat="43.6171255499478" lon="10.291246055959423"><ele>5.0</ele><time>2026-04-06T14:04:38Z</time></trkpt><trkpt lat="43.61720126442131" lon="10.291252018816516"><ele>5.0</ele><time>2026-04-06T14:04:39Z</time></trkpt><trkpt lat="43.61727122297671" lon="10.291264322475266"><ele>5.0</ele><time>2026-04-06T14:04:40Z</time></trkpt><trkpt lat="43.61739581328967" lon="10.291273734966689"><ele>5.0</ele><time>2026-04-06T14:04:42Z</time></trkpt><trkpt lat="43.61746261194561" lon="10.291277432227133"><ele>5.0</ele><time>2026-04-06T14:04:43Z</time></trkpt><trkpt lat="43.61752842645948" lon="10.29127780512061"><ele>5.0</ele><time>2026-04-06T14:04:44Z</time></trkpt><trkpt lat="43.61759212895672" lon="10.291275396156317"><ele>5.0</ele><time>2026-04-06T14:04:45Z</time></trkpt><trkpt lat="43.61765659801765" lon="10.291279854047088"><ele>5.0</ele><time>2026-04-06T14:04:46Z</time></trkpt><trkpt lat="43.61772338290458" lon="10.29128145759821"><ele>5.0</ele><time>2026-04-06T14:04:47Z</time></trkpt><trkpt lat="43.61779665033017" lon="10.291278987362917"><ele>5.0</ele><time>2026-04-06T14:04:48Z</time></trkpt><trkpt lat="43.61787175677006" lon="10.291281026460302"><ele>5.0</ele><time>2026-04-06T14:04:49Z</time></trkpt><trkpt lat="43.61794864450116" lon="10.291285453842248"><ele>5.0</ele><time>2026-04-06T14:04:50Z</time></trkpt><trkpt lat="43.61802495198807" lon="10.291288166795395"><ele>5.0</ele><time>2026-04-06T14:04:51Z</time></trkpt><trkpt lat="43.61809038592789" lon="10.291291975406226"><ele>5.0</ele><time>2026-04-06T14:04:52Z</time></trkpt><trkpt lat="43.61815335736943" lon="10.2912964660002"><ele>5.0</ele><time>2026-04-06T14:04:53Z</time></trkpt><trkpt lat="43.618259440781166" lon="10.29130853370338"><ele>5.0</ele><time>2026-04-06T14:04:55Z</time></trkpt><trkpt lat="43.61838583681048" lon="10.291307133143683"><ele>5.0</ele><time>2026-04-06T14:04:57Z</time></trkpt><trkpt lat="43.61845442341218" lon="10.29131263847405"><ele>5.0</ele><time>2026-04-06T14:04:58Z</time></trkpt><trkpt lat="43.618534336500076" lon="10.291319584715028"><ele>5.0</ele><time>2026-04-06T14:04:59Z</time></trkpt><trkpt lat="43.61861035411726" lon="10.291325301661757"><ele>5.0</ele><time>2026-04-06T14:05:00Z</time></trkpt><trkpt lat="43.6186775049123" lon="10.291331139219164"><ele>5.0</ele><time>2026-04-06T14:05:01Z</time></trkpt><trkpt lat="43.618799477289485" lon="10.291338730609553"><ele>5.333333333333334</ele><time>2026-04-06T14:05:03Z</time></trkpt><trkpt lat="43.61891150193383" lon="10.291333484054826"><ele>5.666666666666667</ele><time>2026-04-06T14:05:05Z</time></trkpt><trkpt lat="43.619031586861226" lon="10.29133723567164"><ele>6.0</ele><time>2026-04-06T14:05:07Z</time></trkpt><trkpt lat="43.619098312597856" lon="10.291338126059848"><ele>6.333333333333334</ele><time>2026-04-06T14:05:08Z</time></trkpt><trkpt lat="43.619167721666855" lon="10.291336652807365"><ele>6.666666666666667</ele><time>2026-04-06T14:05:09Z</time></trkpt><trkpt lat="43.619239766802146" lon="10.291335129911044"><ele>7.0</ele><time>2026-04-06T14:05:10Z</time></trkpt><trkpt lat="43.619311600274166" lon="10.291335585557247"><ele>7.000000000000001</ele><time>2026-04-06T14:05:11Z</time></trkpt><trkpt lat="43.61938691847533" lon="10.291338190158049"><ele>7.0</ele><time>2026-04-06T14:05:12Z</time></trkpt><trkpt lat="43.61946813568988" lon="10.291340688054339"><ele>7.0</ele><time>2026-04-06T14:05:13Z</time></trkpt><trkpt lat="43.61954136699837" lon="10.291343325980097"><ele>7.0</ele><time>2026-04-06T14:05:14Z</time></trkpt><trkpt lat="43.619620746212476" lon="10.29134556269872"><ele>7.000000000000001</ele><time>2026-04-06T14:05:15Z</time></trkpt><trkpt lat="43.6197112543488" lon="10.29134263349749"><ele>7.0</ele><time>2026-04-06T14:05:16Z</time></trkpt><trkpt lat="43.61981473852428" lon="10.291334780874656"><ele>6.75</ele><time>2026-04-06T14:05:17Z</time></trkpt><trkpt lat="43.61993041497861" lon="10.291329087333478"><ele>6.5</ele><time>2026-04-06T14:05:18Z</time></trkpt><trkpt lat="43.620060327730314" lon="10.291333214031658"><ele>6.25</ele><time>2026-04-06T14:05:19Z</time></trkpt><trkpt lat="43.62019379074272" lon="10.291346971763684"><ele>6.0</ele><time>2026-04-06T14:05:20Z</time></trkpt><trkpt lat="43.62032439867704" lon="10.291358611925032"><ele>6.0</ele><time>2026-04-06T14:05:21Z</time></trkpt><trkpt lat="43.62044232156115" lon="10.29136742197818"><ele>6.0</ele><time>2026-04-06T14:05:22Z</time></trkpt><trkpt lat="43.62054273283872" lon="10.291372981675652"><ele>6.0</ele><time>2026-04-06T14:05:23Z</time></trkpt><trkpt lat="43.62063576151061" lon="10.291375675753693"><ele>6.0</ele><time>2026-04-06T14:05:24Z</time></trkpt><trkpt lat="43.62072146059326" lon="10.291377557679768"><ele>6.0</ele><time>2026-04-06T14:05:25Z</time></trkpt><trkpt lat="43.620805021330455" lon="10.291381067999087"><ele>6.0</ele><time>2026-04-06T14:05:26Z</time></trkpt><trkpt lat="43.62089315145795" lon="10.29138642971888"><ele>6.0</ele><time>2026-04-06T14:05:27Z</time></trkpt><trkpt lat="43.62099337798444" lon="10.291384753435256"><ele>6.0</ele><time>2026-04-06T14:05:28Z</time></trkpt><trkpt lat="43.62109066867569" lon="10.291387028587177"><ele>6.0</ele><time>2026-04-06T14:05:29Z</time></trkpt><trkpt lat="43.62118075538485" lon="10.291392208600252"><ele>6.0</ele><time>2026-04-06T14:05:30Z</time></trkpt><trkpt lat="43.62128787265023" lon="10.291398105745595"><ele>6.4</ele><time>2026-04-06T14:05:31Z</time></trkpt><trkpt lat="43.621381968332805" lon="10.291403314101922"><ele>6.8</ele><time>2026-04-06T14:05:32Z</time></trkpt><trkpt lat="43.621482367803836" lon="10.291407424887794"><ele>7.200000000000001</ele><time>2026-04-06T14:05:33Z</time></trkpt><trkpt lat="43.62157991945364" lon="10.291407342189634"><ele>7.6000000000000005</ele><time>2026-04-06T14:05:34Z</time></trkpt><trkpt lat="43.62167754041122" lon="10.291411430342636"><ele>8.0</ele><time>2026-04-06T14:05:35Z</time></trkpt><trkpt lat="43.62176782432268" lon="10.29141614649101"><ele>7.999999999999999</ele><time>2026-04-06T14:05:36Z</time></trkpt><trkpt lat="43.621856862519316" lon="10.29142284163574"><ele>8.0</ele><time>2026-04-06T14:05:37Z</time></trkpt><trkpt lat="43.62194318683138" lon="10.291424148226792"><ele>8.0</ele><time>2026-04-06T14:05:38Z</time></trkpt><trkpt lat="43.62202733296941" lon="10.291427364386704"><ele>8.0</ele><time>2026-04-06T14:05:39Z</time></trkpt><trkpt lat="43.62211716174285" lon="10.291433416769257"><ele>7.999999999999999</ele><time>2026-04-06T14:05:40Z</time></trkpt><trkpt lat="43.62220912047205" lon="10.291437101457609"><ele>8.0</ele><time>2026-04-06T14:05:41Z</time></trkpt><trkpt lat="43.622300809972415" lon="10.291438995371605"><ele>7.4</ele><time>2026-04-06T14:05:42Z</time></trkpt><trkpt lat="43.622396808547926" lon="10.291440016588439"><ele>6.800000000000001</ele><time>2026-04-06T14:05:43Z</time></trkpt><trkpt lat="43.62249260281001" lon="10.291445645249675"><ele>6.2</ele><time>2026-04-06T14:05:44Z</time></trkpt><trkpt lat="43.622600131718634" lon="10.291452460257027"><ele>5.6</ele><time>2026-04-06T14:05:45Z</time></trkpt><trkpt lat="43.62269912817635" lon="10.291457000385737"><ele>5.0</ele><time>2026-04-06T14:05:46Z</time></trkpt><trkpt lat="43.62279337079355" lon="10.291460120843798"><ele>5.0</ele><time>2026-04-06T14:05:47Z</time></trkpt><trkpt lat="43.62288403316492" lon="10.29146310157163"><ele>5.0</ele><time>2026-04-06T14:05:48Z</time></trkpt><trkpt lat="43.62297337015881" lon="10.29146249087669"><ele>5.0</ele><time>2026-04-06T14:05:49Z</time></trkpt><trkpt lat="43.62306138625844" lon="10.291463883454561"><ele>5.0</ele><time>2026-04-06T14:05:50Z</time></trkpt><trkpt lat="43.623144547937336" lon="10.291465226641732"><ele>5.0</ele><time>2026-04-06T14:05:51Z</time></trkpt><trkpt lat="43.623230851481544" lon="10.291468225634762"><ele>5.0</ele><time>2026-04-06T14:05:52Z</time></trkpt><trkpt lat="43.623317521352405" lon="10.291474476370764"><ele>5.0</ele><time>2026-04-06T14:05:53Z</time></trkpt><trkpt lat="43.623413833242815" lon="10.291480237939936"><ele>5.0</ele><time>2026-04-06T14:05:54Z</time></trkpt><trkpt lat="43.623507947959965" lon="10.29148839613387"><ele>5.0</ele><time>2026-04-06T14:05:55Z</time></trkpt><trkpt lat="43.62359288841283" lon="10.291487911456576"><ele>5.0</ele><time>2026-04-06T14:05:56Z</time></trkpt><trkpt lat="43.6236762409069" lon="10.291487290806806"><ele>5.0</ele><time>2026-04-06T14:05:57Z</time></trkpt><trkpt lat="43.623753094606336" lon="10.291488032771467"><ele>5.0</ele><time>2026-04-06T14:05:58Z</time></trkpt><trkpt lat="43.62382802057376" lon="10.29149797004306"><ele>5.333333333333334</ele><time>2026-04-06T14:05:59Z</time></trkpt><trkpt lat="43.62390480231454" lon="10.291502668064071"><ele>5.666666666666667</ele><time>2026-04-06T14:06:00Z</time></trkpt><trkpt lat="43.62398461729046" lon="10.291506515134197"><ele>6.0</ele><time>2026-04-06T14:06:01Z</time></trkpt><trkpt lat="43.62407177133494" lon="10.291512708234979"><ele>6.333333333333334</ele><time>2026-04-06T14:06:02Z</time></trkpt><trkpt lat="43.6241593010072" lon="10.291519401015929"><ele>6.666666666666667</ele><time>2026-04-06T14:06:03Z</time></trkpt><trkpt lat="43.624245426589894" lon="10.29152391728905"><ele>7.0</ele><time>2026-04-06T14:06:04Z</time></trkpt><trkpt lat="43.62432638141851" lon="10.29152034805928"><ele>7.000000000000001</ele><time>2026-04-06T14:06:05Z</time></trkpt><trkpt lat="43.62440777354749" lon="10.291523836818328"><ele>7.0</ele><time>2026-04-06T14:06:06Z</time></trkpt><trkpt lat="43.62448032689458" lon="10.29152728823037"><ele>7.0</ele><time>2026-04-06T14:06:07Z</time></trkpt><trkpt lat="43.62455438357862" lon="10.291530327978181"><ele>7.0</ele><time>2026-04-06T14:06:08Z</time></trkpt><trkpt lat="43.62463476682474" lon="10.291535499448973"><ele>7.000000000000001</ele><time>2026-04-06T14:06:09Z</time></trkpt><trkpt lat="43.62472284556527" lon="10.291537861193792"><ele>7.0</ele><time>2026-04-06T14:06:10Z</time></trkpt><trkpt lat="43.62481273236275" lon="10.291544550673471"><ele>7.166666666666667</ele><time>2026-04-06T14:06:11Z</time></trkpt><trkpt lat="43.624906724133915" lon="10.291546892310881"><ele>7.333333333333334</ele><time>2026-04-06T14:06:12Z</time></trkpt><trkpt lat="43.6249938934383" lon="10.291545802595628"><ele>7.5</ele><time>2026-04-06T14:06:13Z</time></trkpt><trkpt lat="43.625080696144344" lon="10.29155200222398"><ele>7.666666666666666</ele><time>2026-04-06T14:06:14Z</time></trkpt><trkpt lat="43.62515760332448" lon="10.291554935571018"><ele>7.833333333333333</ele><time>2026-04-06T14:06:15Z</time></trkpt><trkpt lat="43.62523270978447" lon="10.291552899802905"><ele>8.0</ele><time>2026-04-06T14:06:16Z</time></trkpt><trkpt lat="43.62534159907466" lon="10.291549997901642"><ele>7.666666666666666</ele><time>2026-04-06T14:06:18Z</time></trkpt><trkpt lat="43.62544602075631" lon="10.291554775265027"><ele>7.333333333333333</ele><time>2026-04-06T14:06:20Z</time></trkpt><trkpt lat="43.625511548560006" lon="10.29155091731184"><ele>7.0</ele><time>2026-04-06T14:06:22Z</time></trkpt><trkpt lat="43.625583072821826" lon="10.291566544763105"><ele>6.666666666666666</ele><time>2026-04-06T14:06:35Z</time></trkpt><trkpt lat="43.625673354044444" lon="10.291571088428922"><ele>6.333333333333333</ele><time>2026-04-06T14:06:38Z</time></trkpt><trkpt lat="43.6257371489387" lon="10.291570343714678"><ele>6.0</ele><time>2026-04-06T14:06:41Z</time></trkpt><trkpt lat="43.62582687740934" lon="10.291581576199217"><ele>6.0</ele><time>2026-04-06T14:06:44Z</time></trkpt><trkpt lat="43.625907465322165" lon="10.291561771820419"><ele>6.0</ele><time>2026-04-06T14:06:46Z</time></trkpt><trkpt lat="43.625984379349816" lon="10.291580702251826"><ele>6.0</ele><time>2026-04-06T14:06:48Z</time></trkpt><trkpt lat="43.62607205450475" lon="10.291584017330344"><ele>6.0</ele><time>2026-04-06T14:06:50Z</time></trkpt><trkpt lat="43.62616330363764" lon="10.291573312402216"><ele>6.0</ele><time>2026-04-06T14:06:52Z</time></trkpt><trkpt lat="43.62623810482686" lon="10.291574672108815"><ele>6.0</ele><time>2026-04-06T14:06:54Z</time></trkpt><trkpt lat="43.62630591563738" lon="10.291582687772902"><ele>5.6</ele><time>2026-04-06T14:06:57Z</time></trkpt><trkpt lat="43.626398542545694" lon="10.291583626695642"><ele>5.199999999999999</ele><time>2026-04-06T14:07:02Z</time></trkpt><trkpt lat="43.626507819693565" lon="10.291579063219062"><ele>4.800000000000001</ele><time>2026-04-06T14:07:04Z</time></trkpt><trkpt lat="43.62662268277678" lon="10.291582791616605"><ele>4.4</ele><time>2026-04-06T14:07:06Z</time></trkpt><trkpt lat="43.62671843811873" lon="10.291610944310905"><ele>4.0</ele><time>2026-04-06T14:07:08Z</time></trkpt><trkpt lat="43.62678989520999" lon="10.291614540692319"><ele>3.9999999999999996</ele><time>2026-04-06T14:07:10Z</time></trkpt><trkpt lat="43.6268797797777" lon="10.291619439745647"><ele>4.0</ele><time>2026-04-06T14:07:14Z</time></trkpt><trkpt lat="43.62695359570969" lon="10.291623632767642"><ele>4.0</ele><time>2026-04-06T14:07:17Z</time></trkpt><trkpt lat="43.627019800631224" lon="10.291627393448348"><ele>4.0</ele><time>2026-04-06T14:07:26Z</time></trkpt><trkpt lat="43.627108293398614" lon="10.291621939230039"><ele>3.9999999999999996</ele><time>2026-04-06T14:07:28Z</time></trkpt><trkpt lat="43.62719775442372" lon="10.291644447363533"><ele>4.0</ele><time>2026-04-06T14:07:30Z</time></trkpt><trkpt lat="43.62729546284172" lon="10.291671358022745"><ele>3.6</ele><time>2026-04-06T14:07:32Z</time></trkpt><trkpt lat="43.62735887856912" lon="10.291666230562042"><ele>3.2</ele><time>2026-04-06T14:07:33Z</time></trkpt><trkpt lat="43.627464445120005" lon="10.291672067391623"><ele>2.8000000000000003</ele><time>2026-04-06T14:07:35Z</time></trkpt><trkpt lat="43.6275730120899" lon="10.291673377783797"><ele>2.4000000000000004</ele><time>2026-04-06T14:07:37Z</time></trkpt><trkpt lat="43.627683626227494" lon="10.291670272725382"><ele>2.0</ele><time>2026-04-06T14:07:39Z</time></trkpt><trkpt lat="43.627782342330256" lon="10.291669572951957"><ele>1.9999999999999998</ele><time>2026-04-06T14:07:41Z</time></trkpt><trkpt lat="43.627873664307145" lon="10.291664516274897"><ele>2.0</ele><time>2026-04-06T14:07:43Z</time></trkpt><trkpt lat="43.62798470219233" lon="10.291671182469058"><ele>2.0</ele><time>2026-04-06T14:07:45Z</time></trkpt><trkpt lat="43.628065560204206" lon="10.291677583100356"><ele>2.0</ele><time>2026-04-06T14:07:47Z</time></trkpt><trkpt lat="43.6281455356356" lon="10.291676962776435"><ele>1.9999999999999998</ele><time>2026-04-06T14:07:49Z</time></trkpt><trkpt lat="43.62822096377376" lon="10.291680708656804"><ele>2.0</ele><time>2026-04-06T14:07:51Z</time></trkpt><trkpt lat="43.62830128086169" lon="10.291679951647447"><ele>1.9999999999999998</ele><time>2026-04-06T14:07:54Z</time></trkpt><trkpt lat="43.62836836637217" lon="10.291678564168219"><ele>2.0</ele><time>2026-04-06T14:07:56Z</time></trkpt><trkpt lat="43.628441810811495" lon="10.291674600521228"><ele>2.0</ele><time>2026-04-06T14:07:59Z</time></trkpt><trkpt lat="43.628512109846326" lon="10.291702728253721"><ele>2.0</ele><time>2026-04-06T14:08:01Z</time></trkpt><trkpt lat="43.62860485709832" lon="10.291778460949512"><ele>1.9999999999999998</ele><time>2026-04-06T14:08:03Z</time></trkpt><trkpt lat="43.6286880085292" lon="10.291859268867755"><ele>2.0</ele><time>2026-04-06T14:08:05Z</time></trkpt><trkpt lat="43.62877723131672" lon="10.29189660661877"><ele>2.4000000000000004</ele><time>2026-04-06T14:08:07Z</time></trkpt><trkpt lat="43.62884801287868" lon="10.291790206153019"><ele>2.8000000000000003</ele><time>2026-04-06T14:08:09Z</time></trkpt><trkpt lat="43.628966968052055" lon="10.29174181704988"><ele>3.2</ele><time>2026-04-06T14:08:11Z</time></trkpt><trkpt lat="43.62908992533353" lon="10.291717721881371"><ele>3.6</ele><time>2026-04-06T14:08:13Z</time></trkpt><trkpt lat="43.62915676781703" lon="10.291720206785813"><ele>4.0</ele><time>2026-04-06T14:08:14Z</time></trkpt><trkpt lat="43.629251334044525" lon="10.29172854340236"><ele>3.9999999999999996</ele><time>2026-04-06T14:08:16Z</time></trkpt><trkpt lat="43.62937460110874" lon="10.291726978868068"><ele>4.0</ele><time>2026-04-06T14:08:18Z</time></trkpt><trkpt lat="43.62945008775388" lon="10.291725447454963"><ele>4.0</ele><time>2026-04-06T14:08:19Z</time></trkpt><trkpt lat="43.62953052897278" lon="10.291727184967584"><ele>4.0</ele><time>2026-04-06T14:08:20Z</time></trkpt><trkpt lat="43.62960680132167" lon="10.291731700124089"><ele>3.9999999999999996</ele><time>2026-04-06T14:08:21Z</time></trkpt><trkpt lat="43.62968808237112" lon="10.291734243430735"><ele>4.0</ele><time>2026-04-06T14:08:22Z</time></trkpt><trkpt lat="43.629770820491" lon="10.29173468100411"><ele>4.2</ele><time>2026-04-06T14:08:23Z</time></trkpt><trkpt lat="43.62984493073858" lon="10.29173376261875"><ele>4.4</ele><time>2026-04-06T14:08:24Z</time></trkpt><trkpt lat="43.62991320797068" lon="10.291734504806861"><ele>4.6</ele><time>2026-04-06T14:08:25Z</time></trkpt><trkpt lat="43.63003505643832" lon="10.291741542308605"><ele>4.8</ele><time>2026-04-06T14:08:27Z</time></trkpt><trkpt lat="43.630150946036196" lon="10.291744104757237"><ele>5.0</ele><time>2026-04-06T14:08:29Z</time></trkpt><trkpt lat="43.63027240347369" lon="10.291740792667671"><ele>4.666666666666667</ele><time>2026-04-06T14:08:31Z</time></trkpt><trkpt lat="43.630369381530194" lon="10.291741673602392"><ele>4.333333333333334</ele><time>2026-04-06T14:08:33Z</time></trkpt><trkpt lat="43.6304418687965" lon="10.291744635579066"><ele>4.0</ele><time>2026-04-06T14:08:36Z</time></trkpt><trkpt lat="43.63052055527483" lon="10.291741880485706"><ele>3.666666666666667</ele><time>2026-04-06T14:08:48Z</time></trkpt><trkpt lat="43.63061530553271" lon="10.29174867751915"><ele>3.3333333333333335</ele><time>2026-04-06T14:08:51Z</time></trkpt><trkpt lat="43.63068496102089" lon="10.291756183835137"><ele>3.0</ele><time>2026-04-06T14:08:53Z</time></trkpt><trkpt lat="43.63077315868959" lon="10.291749675674525"><ele>3.0</ele><time>2026-04-06T14:08:55Z</time></trkpt><trkpt lat="43.63086816746727" lon="10.291757142880542"><ele>3.0</ele><time>2026-04-06T14:08:57Z</time></trkpt><trkpt lat="43.63096792887118" lon="10.291765680619582"><ele>3.0</ele><time>2026-04-06T14:08:59Z</time></trkpt><trkpt lat="43.63108462773191" lon="10.291765998280543"><ele>3.0</ele><time>2026-04-06T14:09:01Z</time></trkpt><trkpt lat="43.63115663269222" lon="10.291767755992048"><ele>3.0</ele><time>2026-04-06T14:09:02Z</time></trkpt><trkpt lat="43.63123561013159" lon="10.291772046940647"><ele>3.0</ele><time>2026-04-06T14:09:03Z</time></trkpt><trkpt lat="43.63131511055619" lon="10.291774153940091"><ele>3.0</ele><time>2026-04-06T14:09:04Z</time></trkpt><trkpt lat="43.631391783269336" lon="10.291777842972568"><ele>3.0</ele><time>2026-04-06T14:09:05Z</time></trkpt><trkpt lat="43.63146528225159" lon="10.291782518824244"><ele>3.0</ele><time>2026-04-06T14:09:06Z</time></trkpt><trkpt lat="43.63154350294933" lon="10.291787307318321"><ele>3.0</ele><time>2026-04-06T14:09:07Z</time></trkpt><trkpt lat="43.63162297526666" lon="10.291789527870675"><ele>3.0</ele><time>2026-04-06T14:09:08Z</time></trkpt><trkpt lat="43.63170723230206" lon="10.291792674531619"><ele>3.0</ele><time>2026-04-06T14:09:09Z</time></trkpt><trkpt lat="43.631791271149815" lon="10.291797694313148"><ele>3.0</ele><time>2026-04-06T14:09:10Z</time></trkpt><trkpt lat="43.63187490569762" lon="10.291802547708032"><ele>3.0</ele><time>2026-04-06T14:09:11Z</time></trkpt><trkpt lat="43.63195549299839" lon="10.291804154399966"><ele>3.0</ele><time>2026-04-06T14:09:12Z</time></trkpt><trkpt lat="43.63203706555132" lon="10.291808604662364"><ele>3.0</ele><time>2026-04-06T14:09:13Z</time></trkpt><trkpt lat="43.63211728980423" lon="10.291811994652974"><ele>3.0</ele><time>2026-04-06T14:09:14Z</time></trkpt><trkpt lat="43.63219789628744" lon="10.291814418800033"><ele>2.8333333333333335</ele><time>2026-04-06T14:09:15Z</time></trkpt><trkpt lat="43.63228283665037" lon="10.291815345786784"><ele>2.6666666666666665</ele><time>2026-04-06T14:09:16Z</time></trkpt><trkpt lat="43.63237420567203" lon="10.291817770198964"><ele>2.5</ele><time>2026-04-06T14:09:17Z</time></trkpt><trkpt lat="43.63246216643652" lon="10.291820844459233"><ele>2.333333333333333</ele><time>2026-04-06T14:09:18Z</time></trkpt><trkpt lat="43.632551635857205" lon="10.291821478405971"><ele>2.1666666666666665</ele><time>2026-04-06T14:09:19Z</time></trkpt><trkpt lat="43.63263887523704" lon="10.291825272016744"><ele>2.0</ele><time>2026-04-06T14:09:20Z</time></trkpt><trkpt lat="43.63272525085272" lon="10.291831619393566"><ele>2.333333333333333</ele><time>2026-04-06T14:09:21Z</time></trkpt><trkpt lat="43.63281207493754" lon="10.291834275325792"><ele>2.6666666666666665</ele><time>2026-04-06T14:09:22Z</time></trkpt><trkpt lat="43.63289542738451" lon="10.291836796976424"><ele>3.0</ele><time>2026-04-06T14:09:23Z</time></trkpt><trkpt lat="43.63298293434443" lon="10.291840754737613"><ele>3.333333333333333</ele><time>2026-04-06T14:09:24Z</time></trkpt><trkpt lat="43.633069535653036" lon="10.291846645821561"><ele>3.6666666666666665</ele><time>2026-04-06T14:09:25Z</time></trkpt><trkpt lat="43.63315720860362" lon="10.291850015354651"><ele>4.0</ele><time>2026-04-06T14:09:26Z</time></trkpt><trkpt lat="43.63325233397683" lon="10.291854748898848"><ele>4.0</ele><time>2026-04-06T14:09:27Z</time></trkpt><trkpt lat="43.63334583171312" lon="10.291858594106198"><ele>4.0</ele><time>2026-04-06T14:09:28Z</time></trkpt><trkpt lat="43.63344426023818" lon="10.291859332448203"><ele>4.0</ele><time>2026-04-06T14:09:29Z</time></trkpt><trkpt lat="43.63354073278672" lon="10.291861991994178"><ele>4.0</ele><time>2026-04-06T14:09:30Z</time></trkpt><trkpt lat="43.633630671889954" lon="10.291863554388097"><ele>4.0</ele><time>2026-04-06T14:09:31Z</time></trkpt><trkpt lat="43.633719148047575" lon="10.291864248285245"><ele>3.9999999999999996</ele><time>2026-04-06T14:09:32Z</time></trkpt><trkpt lat="43.63380244408706" lon="10.291861093464767"><ele>4.0</ele><time>2026-04-06T14:09:33Z</time></trkpt><trkpt lat="43.63388630193606" lon="10.291860492637811"><ele>4.0</ele><time>2026-04-06T14:09:34Z</time></trkpt><trkpt lat="43.63396827920884" lon="10.2918586911051"><ele>4.0</ele><time>2026-04-06T14:09:35Z</time></trkpt><trkpt lat="43.634050278709566" lon="10.291858307564523"><ele>3.9999999999999996</ele><time>2026-04-06T14:09:36Z</time></trkpt><trkpt lat="43.634135540150034" lon="10.291857776667003"><ele>4.0</ele><time>2026-04-06T14:09:37Z</time></trkpt><trkpt lat="43.63423113964086" lon="10.291854343534634"><ele>4.0</ele><time>2026-04-06T14:09:38Z</time></trkpt><trkpt lat="43.63432892454017" lon="10.291851366786977"><ele>4.0</ele><time>2026-04-06T14:09:39Z</time></trkpt><trkpt lat="43.634435701654795" lon="10.291845732144191"><ele>4.0</ele><time>2026-04-06T14:09:40Z</time></trkpt><trkpt lat="43.63452720967197" lon="10.291843688394982"><ele>4.0</ele><time>2026-04-06T14:09:41Z</time></trkpt><trkpt lat="43.63463761456482" lon="10.291832430961433"><ele>4.0</ele><time>2026-04-06T14:09:42Z</time></trkpt><trkpt lat="43.63475987099828" lon="10.291824438915373"><ele>3.25</ele><time>2026-04-06T14:09:43Z</time></trkpt><trkpt lat="43.63488490132765" lon="10.29182280335039"><ele>2.5</ele><time>2026-04-06T14:09:44Z</time></trkpt><trkpt lat="43.634997075263094" lon="10.291824887748694"><ele>1.75</ele><time>2026-04-06T14:09:45Z</time></trkpt><trkpt lat="43.63510613012159" lon="10.291818797968089"><ele>1.0</ele><time>2026-04-06T14:09:46Z</time></trkpt><trkpt lat="43.63522796077372" lon="10.291809319819148"><ele>1.6</ele><time>2026-04-06T14:09:47Z</time></trkpt><trkpt lat="43.63533858481741" lon="10.291797897856966"><ele>2.2</ele><time>2026-04-06T14:09:48Z</time></trkpt><trkpt lat="43.635446856202016" lon="10.291781231271358"><ele>2.8000000000000003</ele><time>2026-04-06T14:09:49Z</time></trkpt><trkpt lat="43.63556253576966" lon="10.291761952243922"><ele>3.4000000000000004</ele><time>2026-04-06T14:09:50Z</time></trkpt><trkpt lat="43.63567229948612" lon="10.291748301650196"><ele>4.0</ele><time>2026-04-06T14:09:51Z</time></trkpt><trkpt lat="43.63577874254228" lon="10.291736548441378"><ele>4.0</ele><time>2026-04-06T14:09:52Z</time></trkpt><trkpt lat="43.63588245198604" lon="10.291724139072574"><ele>4.0</ele><time>2026-04-06T14:09:53Z</time></trkpt><trkpt lat="43.63598740285923" lon="10.291711072857213"><ele>4.0</ele><time>2026-04-06T14:09:54Z</time></trkpt><trkpt lat="43.63608927742977" lon="10.291699474598273"><ele>4.0</ele><time>2026-04-06T14:09:55Z</time></trkpt><trkpt lat="43.6361818494705" lon="10.291691770312127"><ele>4.0</ele><time>2026-04-06T14:09:56Z</time></trkpt><trkpt lat="43.63627282877702" lon="10.291682058207272"><ele>3.9999999999999996</ele><time>2026-04-06T14:09:57Z</time></trkpt><trkpt lat="43.63635819064622" lon="10.291670790487032"><ele>4.0</ele><time>2026-04-06T14:09:58Z</time></trkpt><trkpt lat="43.6364413324979" lon="10.291662210990216"><ele>4.0</ele><time>2026-04-06T14:09:59Z</time></trkpt><trkpt lat="43.63653214452906" lon="10.291652981779068"><ele>4.0</ele><time>2026-04-06T14:10:00Z</time></trkpt><trkpt lat="43.63661906264171" lon="10.291640060578755"><ele>3.9999999999999996</ele><time>2026-04-06T14:10:01Z</time></trkpt><trkpt lat="43.636709079554805" lon="10.291626599603006"><ele>4.0</ele><time>2026-04-06T14:10:02Z</time></trkpt><trkpt lat="43.636804347772134" lon="10.291607139069699"><ele>3.9999999999999996</ele><time>2026-04-06T14:10:03Z</time></trkpt><trkpt lat="43.636897205482015" lon="10.291590417336376"><ele>4.0</ele><time>2026-04-06T14:10:04Z</time></trkpt><trkpt lat="43.63698398638858" lon="10.291576555969456"><ele>4.0</ele><time>2026-04-06T14:10:05Z</time></trkpt><trkpt lat="43.637063188096434" lon="10.291561480461683"><ele>4.0</ele><time>2026-04-06T14:10:06Z</time></trkpt><trkpt lat="43.637144505448" lon="10.291541288421646"><ele>3.9999999999999996</ele><time>2026-04-06T14:10:07Z</time></trkpt><trkpt lat="43.637236021305576" lon="10.291518512773916"><ele>4.0</ele><time>2026-04-06T14:10:08Z</time></trkpt><trkpt lat="43.637337019683926" lon="10.291501775670806"><ele>4.0</ele><time>2026-04-06T14:10:09Z</time></trkpt><trkpt lat="43.63744846261277" lon="10.291481537594802"><ele>4.0</ele><time>2026-04-06T14:10:10Z</time></trkpt><trkpt lat="43.63756123796774" lon="10.29145967114726"><ele>4.0</ele><time>2026-04-06T14:10:11Z</time></trkpt><trkpt lat="43.637674558238544" lon="10.291437816967537"><ele>4.0</ele><time>2026-04-06T14:10:12Z</time></trkpt><trkpt lat="43.63779093914101" lon="10.29141517418897"><ele>3.5</ele><time>2026-04-06T14:10:13Z</time></trkpt><trkpt lat="43.63790679308619" lon="10.291390799266349"><ele>3.0</ele><time>2026-04-06T14:10:14Z</time></trkpt><trkpt lat="43.63801758927352" lon="10.291363673710062"><ele>2.5</ele><time>2026-04-06T14:10:15Z</time></trkpt><trkpt lat="43.638132805954385" lon="10.29133408120339"><ele>2.0</ele><time>2026-04-06T14:10:16Z</time></trkpt><trkpt lat="43.63824337408725" lon="10.291307152910576"><ele>2.0</ele><time>2026-04-06T14:10:17Z</time></trkpt><trkpt lat="43.63834927700926" lon="10.291272298709192"><ele>2.0</ele><time>2026-04-06T14:10:18Z</time></trkpt><trkpt lat="43.638456247834874" lon="10.291237279818908"><ele>2.0</ele><time>2026-04-06T14:10:19Z</time></trkpt><trkpt lat="43.63856513029845" lon="10.291210625616722"><ele>2.0</ele><time>2026-04-06T14:10:20Z</time></trkpt><trkpt lat="43.63866579777185" lon="10.291184134884265"><ele>2.0</ele><time>2026-04-06T14:10:21Z</time></trkpt><trkpt lat="43.63876331341181" lon="10.291157653049263"><ele>1.8</ele><time>2026-04-06T14:10:22Z</time></trkpt><trkpt lat="43.638858327539886" lon="10.291129673240013"><ele>1.6</ele><time>2026-04-06T14:10:23Z</time></trkpt><trkpt lat="43.63895602258625" lon="10.2911039586636"><ele>1.4000000000000001</ele><time>2026-04-06T14:10:24Z</time></trkpt><trkpt lat="43.63905396894113" lon="10.291077510330352"><ele>1.2000000000000002</ele><time>2026-04-06T14:10:25Z</time></trkpt><trkpt lat="43.63915942071106" lon="10.291045698519596"><ele>1.0</ele><time>2026-04-06T14:10:26Z</time></trkpt><trkpt lat="43.639277595626055" lon="10.291010262211074"><ele>1.0</ele><time>2026-04-06T14:10:27Z</time></trkpt><trkpt lat="43.63939458192443" lon="10.290974044270813"><ele>1.0</ele><time>2026-04-06T14:10:28Z</time></trkpt><trkpt lat="43.63951598065613" lon="10.290933215778445"><ele>1.0</ele><time>2026-04-06T14:10:29Z</time></trkpt><trkpt lat="43.639659803423214" lon="10.290913765324468"><ele>1.0</ele><time>2026-04-06T14:10:30Z</time></trkpt><trkpt lat="43.639783834210434" lon="10.29087687158822"><ele>1.5</ele><time>2026-04-06T14:10:31Z</time></trkpt><trkpt lat="43.63990098596335" lon="10.290839268035292"><ele>2.0</ele><time>2026-04-06T14:10:32Z</time></trkpt><trkpt lat="43.64001479966468" lon="10.290798931645858"><ele>2.5</ele><time>2026-04-06T14:10:33Z</time></trkpt><trkpt lat="43.640133675296894" lon="10.290762653197406"><ele>3.0</ele><time>2026-04-06T14:10:34Z</time></trkpt><trkpt lat="43.640244852367736" lon="10.290725529029599"><ele>3.25</ele><time>2026-04-06T14:10:35Z</time></trkpt><trkpt lat="43.64035765664501" lon="10.290688412579847"><ele>3.5</ele><time>2026-04-06T14:10:36Z</time></trkpt><trkpt lat="43.64047390362153" lon="10.290652302834383"><ele>3.75</ele><time>2026-04-06T14:10:37Z</time></trkpt><trkpt lat="43.64058247875267" lon="10.290612837834754"><ele>4.0</ele><time>2026-04-06T14:10:38Z</time></trkpt><trkpt lat="43.640682893938006" lon="10.290571550179294"><ele>4.2</ele><time>2026-04-06T14:10:39Z</time></trkpt><trkpt lat="43.64078951509067" lon="10.290532023211991"><ele>4.4</ele><time>2026-04-06T14:10:40Z</time></trkpt><trkpt lat="43.64088881726218" lon="10.290496263826148"><ele>4.6</ele><time>2026-04-06T14:10:41Z</time></trkpt><trkpt lat="43.640985263507744" lon="10.29044040000964"><ele>4.8</ele><time>2026-04-06T14:10:42Z</time></trkpt><trkpt lat="43.64109514960824" lon="10.290398579647608"><ele>5.0</ele><time>2026-04-06T14:10:43Z</time></trkpt><trkpt lat="43.641197119216024" lon="10.290361922259109"><ele>5.2</ele><time>2026-04-06T14:10:44Z</time></trkpt><trkpt lat="43.64129791230917" lon="10.290322422188199"><ele>5.4</ele><time>2026-04-06T14:10:45Z</time></trkpt><trkpt lat="43.641398930137385" lon="10.290278450150291"><ele>5.6</ele><time>2026-04-06T14:10:46Z</time></trkpt><trkpt lat="43.64150093364509" lon="10.290237678728287"><ele>5.8</ele><time>2026-04-06T14:10:47Z</time></trkpt><trkpt lat="43.64160237734499" lon="10.290188122367153"><ele>6.0</ele><time>2026-04-06T14:10:48Z</time></trkpt><trkpt lat="43.64169993678063" lon="10.290134702521911"><ele>6.0</ele><time>2026-04-06T14:10:49Z</time></trkpt><trkpt lat="43.641797287905156" lon="10.290086655576157"><ele>6.0</ele><time>2026-04-06T14:10:50Z</time></trkpt><trkpt lat="43.64189448196161" lon="10.290034618385048"><ele>6.0</ele><time>2026-04-06T14:10:51Z</time></trkpt><trkpt lat="43.641995259102934" lon="10.289986094803812"><ele>6.0</ele><time>2026-04-06T14:10:52Z</time></trkpt><trkpt lat="43.642097440547296" lon="10.289938693215943"><ele>6.0</ele><time>2026-04-06T14:10:53Z</time></trkpt><trkpt lat="43.64219740806222" lon="10.289886308082325"><ele>6.0</ele><time>2026-04-06T14:10:54Z</time></trkpt><trkpt lat="43.64230469211677" lon="10.289834326182836"><ele>6.0</ele><time>2026-04-06T14:10:55Z</time></trkpt><trkpt lat="43.64240637931887" lon="10.289778221122795"><ele>6.0</ele><time>2026-04-06T14:10:56Z</time></trkpt><trkpt lat="43.64250496773481" lon="10.289724333017443"><ele>6.0</ele><time>2026-04-06T14:10:57Z</time></trkpt><trkpt lat="43.64260366470156" lon="10.289668961268156"><ele>6.0</ele><time>2026-04-06T14:10:58Z</time></trkpt><trkpt lat="43.642702094056936" lon="10.28960798780196"><ele>6.0</ele><time>2026-04-06T14:10:59Z</time></trkpt><trkpt lat="43.6427980778864" lon="10.289551464469223"><ele>6.0</ele><time>2026-04-06T14:11:00Z</time></trkpt><trkpt lat="43.642900257253146" lon="10.289501154930644"><ele>6.0</ele><time>2026-04-06T14:11:01Z</time></trkpt><trkpt lat="43.64299617803" lon="10.289446783258557"><ele>6.0</ele><time>2026-04-06T14:11:02Z</time></trkpt><trkpt lat="43.64309094474705" lon="10.289390242028109"><ele>6.0</ele><time>2026-04-06T14:11:03Z</time></trkpt><trkpt lat="43.64318475799206" lon="10.289331550683883"><ele>6.0</ele><time>2026-04-06T14:11:04Z</time></trkpt><trkpt lat="43.64327033348977" lon="10.289277366884129"><ele>6.0</ele><time>2026-04-06T14:11:05Z</time></trkpt><trkpt lat="43.64334742997773" lon="10.289227449856662"><ele>6.0</ele><time>2026-04-06T14:11:06Z</time></trkpt><trkpt lat="43.64342607070284" lon="10.289181842760662"><ele>6.0</ele><time>2026-04-06T14:11:07Z</time></trkpt><trkpt lat="43.64349754009158" lon="10.289139427823457"><ele>6.0</ele><time>2026-04-06T14:11:08Z</time></trkpt><trkpt lat="43.643565878319855" lon="10.289101051382389"><ele>6.0</ele><time>2026-04-06T14:11:09Z</time></trkpt><trkpt lat="43.64363026693349" lon="10.289063800376246"><ele>6.199999999999999</ele><time>2026-04-06T14:11:10Z</time></trkpt><trkpt lat="43.643740435244325" lon="10.288996535463678"><ele>6.3999999999999995</ele><time>2026-04-06T14:11:12Z</time></trkpt><trkpt lat="43.64383132677018" lon="10.288955485706264"><ele>6.6</ele><time>2026-04-06T14:11:14Z</time></trkpt><trkpt lat="43.64391782267856" lon="10.288975393954626"><ele>6.8</ele><time>2026-04-06T14:11:23Z</time></trkpt><trkpt lat="43.64398775272969" lon="10.288986781109262"><ele>7.0</ele><time>2026-04-06T14:11:24Z</time></trkpt><trkpt lat="43.64404814106655" lon="10.288906593934403"><ele>7.0</ele><time>2026-04-06T14:11:25Z</time></trkpt><trkpt lat="43.64411601244492" lon="10.28883159172734"><ele>6.999999999999999</ele><time>2026-04-06T14:11:26Z</time></trkpt><trkpt lat="43.64419062192319" lon="10.288756163573751"><ele>6.999999999999999</ele><time>2026-04-06T14:11:27Z</time></trkpt><trkpt lat="43.64427852617277" lon="10.28869344158766"><ele>7.0</ele><time>2026-04-06T14:11:28Z</time></trkpt><trkpt lat="43.644377269035466" lon="10.288636183655417"><ele>7.0</ele><time>2026-04-06T14:11:29Z</time></trkpt><trkpt lat="43.644478080783735" lon="10.28857863229221"><ele>7.199999999999999</ele><time>2026-04-06T14:11:30Z</time></trkpt><trkpt lat="43.64458081723277" lon="10.288517973378957"><ele>7.3999999999999995</ele><time>2026-04-06T14:11:31Z</time></trkpt><trkpt lat="43.644681248937374" lon="10.288455539381145"><ele>7.6000000000000005</ele><time>2026-04-06T14:11:32Z</time></trkpt><trkpt lat="43.64478003885871" lon="10.288396256245456"><ele>7.800000000000001</ele><time>2026-04-06T14:11:33Z</time></trkpt><trkpt lat="43.64488292831344" lon="10.288339724634133"><ele>8.0</ele><time>2026-04-06T14:11:34Z</time></trkpt><trkpt lat="43.64498873533712" lon="10.288276600414457"><ele>8.0</ele><time>2026-04-06T14:11:35Z</time></trkpt><trkpt lat="43.64509340351839" lon="10.288214305416606"><ele>8.0</ele><time>2026-04-06T14:11:36Z</time></trkpt><trkpt lat="43.6451960060522" lon="10.288150925079742"><ele>8.0</ele><time>2026-04-06T14:11:37Z</time></trkpt><trkpt lat="43.64530173396523" lon="10.288089770953164"><ele>8.0</ele><time>2026-04-06T14:11:38Z</time></trkpt><trkpt lat="43.64541183181234" lon="10.288026466583155"><ele>7.25</ele><time>2026-04-06T14:11:39Z</time></trkpt><trkpt lat="43.6455161011102" lon="10.287966682615513"><ele>6.5</ele><time>2026-04-06T14:11:40Z</time></trkpt><trkpt lat="43.64562242768276" lon="10.287905971126525"><ele>5.75</ele><time>2026-04-06T14:11:41Z</time></trkpt><trkpt lat="43.645728681051686" lon="10.28784475188571"><ele>5.0</ele><time>2026-04-06T14:11:42Z</time></trkpt><trkpt lat="43.64583485980021" lon="10.287785361119749"><ele>5.0</ele><time>2026-04-06T14:11:43Z</time></trkpt><trkpt lat="43.64593951485096" lon="10.287728751150896"><ele>5.0</ele><time>2026-04-06T14:11:44Z</time></trkpt><trkpt lat="43.646038797338285" lon="10.28767053088643"><ele>5.0</ele><time>2026-04-06T14:11:45Z</time></trkpt><trkpt lat="43.64613817016552" lon="10.28761259051794"><ele>5.0</ele><time>2026-04-06T14:11:46Z</time></trkpt><trkpt lat="43.64623525640797" lon="10.287553821474681"><ele>5.0</ele><time>2026-04-06T14:11:47Z</time></trkpt><trkpt lat="43.646335304605934" lon="10.287496188122542"><ele>5.4</ele><time>2026-04-06T14:11:48Z</time></trkpt><trkpt lat="43.64643113263335" lon="10.287438938900534"><ele>5.8</ele><time>2026-04-06T14:11:49Z</time></trkpt><trkpt lat="43.64652430852402" lon="10.287383695597399"><ele>6.199999999999999</ele><time>2026-04-06T14:11:50Z</time></trkpt><trkpt lat="43.64661918803567" lon="10.287330088645659"><ele>6.6</ele><time>2026-04-06T14:11:51Z</time></trkpt><trkpt lat="43.6467099091591" lon="10.287277973240238"><ele>7.0</ele><time>2026-04-06T14:11:52Z</time></trkpt><trkpt lat="43.64680061960109" lon="10.28722128489625"><ele>6.6</ele><time>2026-04-06T14:11:53Z</time></trkpt><trkpt lat="43.64689379902435" lon="10.287166803191843"><ele>6.199999999999999</ele><time>2026-04-06T14:11:54Z</time></trkpt><trkpt lat="43.646983721079444" lon="10.287111153481522"><ele>5.8</ele><time>2026-04-06T14:11:55Z</time></trkpt><trkpt lat="43.64706862127444" lon="10.28706349733655"><ele>5.4</ele><time>2026-04-06T14:11:56Z</time></trkpt><trkpt lat="43.647161122177685" lon="10.287010076352361"><ele>5.0</ele><time>2026-04-06T14:11:57Z</time></trkpt><trkpt lat="43.64725966082813" lon="10.286956654000113"><ele>5.0</ele><time>2026-04-06T14:11:58Z</time></trkpt><trkpt lat="43.647353874260894" lon="10.286901390393629"><ele>5.0</ele><time>2026-04-06T14:11:59Z</time></trkpt><trkpt lat="43.64744895573981" lon="10.286841873173437"><ele>5.0</ele><time>2026-04-06T14:12:00Z</time></trkpt><trkpt lat="43.647542370699156" lon="10.286783625166759"><ele>5.0</ele><time>2026-04-06T14:12:01Z</time></trkpt><trkpt lat="43.647637471792315" lon="10.286732692227394"><ele>5.0</ele><time>2026-04-06T14:12:02Z</time></trkpt><trkpt lat="43.6477271135121" lon="10.28668185581659"><ele>5.0</ele><time>2026-04-06T14:12:03Z</time></trkpt><trkpt lat="43.647818552877425" lon="10.286630250733833"><ele>5.0</ele><time>2026-04-06T14:12:04Z</time></trkpt><trkpt lat="43.6479083710534" lon="10.286574782321008"><ele>5.0</ele><time>2026-04-06T14:12:05Z</time></trkpt><trkpt lat="43.647998924930455" lon="10.286522312527719"><ele>5.0</ele><time>2026-04-06T14:12:06Z</time></trkpt><trkpt lat="43.64807980757211" lon="10.28647413362097"><ele>5.0</ele><time>2026-04-06T14:12:07Z</time></trkpt><trkpt lat="43.64815692706629" lon="10.28643438122557"><ele>4.333333333333334</ele><time>2026-04-06T14:12:08Z</time></trkpt><trkpt lat="43.64825358837116" lon="10.286375787812988"><ele>3.666666666666667</ele><time>2026-04-06T14:12:10Z</time></trkpt><trkpt lat="43.64832325223995" lon="10.286338694040039"><ele>3.0</ele><time>2026-04-06T14:12:14Z</time></trkpt><trkpt lat="43.64839055434273" lon="10.28629690420962"><ele>2.3333333333333335</ele><time>2026-04-06T14:12:17Z</time></trkpt><trkpt lat="43.64846548482058" lon="10.286268190940243"><ele>1.6666666666666665</ele><time>2026-04-06T14:12:22Z</time></trkpt><trkpt lat="43.64853382987718" lon="10.286240340444168"><ele>1.0</ele><time>2026-04-06T14:12:25Z</time></trkpt><trkpt lat="43.648593410341434" lon="10.28619962442752"><ele>1.3333333333333333</ele><time>2026-04-06T14:12:28Z</time></trkpt><trkpt lat="43.64868170746846" lon="10.28615950024732"><ele>1.6666666666666665</ele><time>2026-04-06T14:12:31Z</time></trkpt><trkpt lat="43.64874719982269" lon="10.286110037672824"><ele>2.0</ele><time>2026-04-06T14:12:34Z</time></trkpt><trkpt lat="43.64881514747828" lon="10.286063585625254"><ele>2.3333333333333335</ele><time>2026-04-06T14:12:38Z</time></trkpt><trkpt lat="43.64888941670584" lon="10.28602902492689"><ele>2.6666666666666665</ele><time>2026-04-06T14:12:42Z</time></trkpt><trkpt lat="43.648953597699425" lon="10.285987697418667"><ele>3.0</ele><time>2026-04-06T14:12:44Z</time></trkpt><trkpt lat="43.64903073510815" lon="10.2859444686545"><ele>3.0</ele><time>2026-04-06T14:12:46Z</time></trkpt><trkpt lat="43.64910275752176" lon="10.285906455540452"><ele>3.0</ele><time>2026-04-06T14:12:48Z</time></trkpt><trkpt lat="43.64918383059625" lon="10.28586408136787"><ele>3.0</ele><time>2026-04-06T14:12:50Z</time></trkpt><trkpt lat="43.64925394461651" lon="10.285821500003003"><ele>3.0</ele><time>2026-04-06T14:12:52Z</time></trkpt><trkpt lat="43.64931820105035" lon="10.285777889646418"><ele>3.0</ele><time>2026-04-06T14:12:54Z</time></trkpt><trkpt lat="43.64939833831432" lon="10.28572125567845"><ele>3.0</ele><time>2026-04-06T14:12:57Z</time></trkpt><trkpt lat="43.64946201831176" lon="10.285684187518292"><ele>2.8</ele><time>2026-04-06T14:12:59Z</time></trkpt><trkpt lat="43.64955333024469" lon="10.285644104490816"><ele>2.5999999999999996</ele><time>2026-04-06T14:13:01Z</time></trkpt><trkpt lat="43.6496597827542" lon="10.285589010009373"><ele>2.4000000000000004</ele><time>2026-04-06T14:13:03Z</time></trkpt><trkpt lat="43.64977172309117" lon="10.285519142245667"><ele>2.2</ele><time>2026-04-06T14:13:05Z</time></trkpt><trkpt lat="43.64983118488238" lon="10.285481393402124"><ele>2.0</ele><time>2026-04-06T14:13:06Z</time></trkpt><trkpt lat="43.64994505115946" lon="10.285406711743397"><ele>1.0</ele><time>2026-04-06T14:13:08Z</time></trkpt><trkpt lat="43.64853382987718" lon="10.286240340444168"><ele>0.9999999999999999</ele><time>2026-04-06T14:12:25Z</time></trkpt><trkpt lat="43.648593410341434" lon="10.28619962442752"><ele>1.0</ele><time>2026-04-06T14:12:28Z</time></trkpt><trkpt lat="43.64868170746846" lon="10.28615950024732"><ele>1.0</ele><time>2026-04-06T14:12:31Z</time></trkpt><trkpt lat="43.64874719982269" lon="10.286110037672824"><ele>1.0</ele><time>2026-04-06T14:12:34Z</time></trkpt><trkpt lat="43.64881514747828" lon="10.286063585625254"><ele>0.9999999999999999</ele><time>2026-04-06T14:12:38Z</time></trkpt><trkpt lat="43.64888941670584" lon="10.28602902492689"><ele>1.0</ele><time>2026-04-06T14:12:42Z</time></trkpt><trkpt lat="43.648953597699425" lon="10.285987697418667"><ele>1.3333333333333333</ele><time>2026-04-06T14:12:44Z</time></trkpt><trkpt lat="43.64903073510815" lon="10.2859444686545"><ele>1.6666666666666665</ele><time>2026-04-06T14:12:46Z</time></trkpt><trkpt lat="43.64910275752176" lon="10.285906455540452"><ele>2.0</ele><time>2026-04-06T14:12:48Z</time></trkpt><trkpt lat="43.64918383059625" lon="10.28586408136787"><ele>2.3333333333333335</ele><time>2026-04-06T14:12:50Z</time></trkpt><trkpt lat="43.64925394461651" lon="10.285821500003003"><ele>2.6666666666666665</ele><time>2026-04-06T14:12:52Z</time></trkpt><trkpt lat="43.64931820105035" lon="10.285777889646418"><ele>3.0</ele><time>2026-04-06T14:12:54Z</time></trkpt><trkpt lat="43.64939833831432" lon="10.28572125567845"><ele>2.8</ele><time>2026-04-06T14:12:57Z</time></trkpt><trkpt lat="43.64946201831176" lon="10.285684187518292"><ele>2.5999999999999996</ele><time>2026-04-06T14:12:59Z</time></trkpt><trkpt lat="43.64955333024469" lon="10.285644104490816"><ele>2.4000000000000004</ele><time>2026-04-06T14:13:01Z</time></trkpt><trkpt lat="43.6496597827542" lon="10.285589010009373"><ele>2.2</ele><time>2026-04-06T14:13:03Z</time></trkpt><trkpt lat="43.64977172309117" lon="10.285519142245667"><ele>2.0</ele><time>2026-04-06T14:13:05Z</time></trkpt><trkpt lat="43.64983118488238" lon="10.285481393402124"><ele>2.0</ele><time>2026-04-06T14:13:06Z</time></trkpt><trkpt lat="43.64994505115946" lon="10.285406711743397"><ele>2.0</ele><time>2026-04-06T14:13:08Z</time></trkpt><trkpt lat="43.65000316866116" lon="10.285370996938214"><ele>2.0</ele><time>2026-04-06T14:13:09Z</time></trkpt><trkpt lat="43.65011732864978" lon="10.285304940817538"><ele>2.0</ele><time>2026-04-06T14:13:11Z</time></trkpt><trkpt lat="43.65018500192709" lon="10.285261084820599"><ele>2.0</ele><time>2026-04-06T14:13:12Z</time></trkpt><trkpt lat="43.650255001822174" lon="10.285217890493561"><ele>2.0</ele><time>2026-04-06T14:13:13Z</time></trkpt><trkpt lat="43.65032159824032" lon="10.285178385096538"><ele>1.9999999999999998</ele><time>2026-04-06T14:13:14Z</time></trkpt><trkpt lat="43.65038652585772" lon="10.285139157646395"><ele>2.0</ele><time>2026-04-06T14:13:15Z</time></trkpt><trkpt lat="43.65045299294058" lon="10.285101226547654"><ele>2.0</ele><time>2026-04-06T14:13:16Z</time></trkpt><trkpt lat="43.6505146525004" lon="10.285057908404221"><ele>1.9999999999999998</ele><time>2026-04-06T14:13:17Z</time></trkpt><trkpt lat="43.65057897937614" lon="10.28501958262321"><ele>2.0</ele><time>2026-04-06T14:13:18Z</time></trkpt><trkpt lat="43.650642169073514" lon="10.28498353018261"><ele>2.0</ele><time>2026-04-06T14:13:19Z</time></trkpt><trkpt lat="43.650708648097755" lon="10.284949801907338"><ele>2.0</ele><time>2026-04-06T14:13:20Z</time></trkpt><trkpt lat="43.65077354467575" lon="10.284913389193681"><ele>1.9999999999999998</ele><time>2026-04-06T14:13:21Z</time></trkpt><trkpt lat="43.65083917547435" lon="10.284877110725468"><ele>2.0</ele><time>2026-04-06T14:13:22Z</time></trkpt><trkpt lat="43.65090768411774" lon="10.284837552065285"><ele>2.0</ele><time>2026-04-06T14:13:23Z</time></trkpt><trkpt lat="43.65097736417207" lon="10.2847950135842"><ele>1.9999999999999998</ele><time>2026-04-06T14:13:24Z</time></trkpt><trkpt lat="43.651048476554266" lon="10.284755342284175"><ele>2.0</ele><time>2026-04-06T14:13:25Z</time></trkpt><trkpt lat="43.65112232925867" lon="10.284711857288782"><ele>2.0</ele><time>2026-04-06T14:13:26Z</time></trkpt><trkpt lat="43.65119282060223" lon="10.28466678362666"><ele>2.1666666666666665</ele><time>2026-04-06T14:13:27Z</time></trkpt><trkpt lat="43.651264071138215" lon="10.284627173486165"><ele>2.333333333333333</ele><time>2026-04-06T14:13:28Z</time></trkpt><trkpt lat="43.6513291124177" lon="10.284586575276265"><ele>2.5</ele><time>2026-04-06T14:13:29Z</time></trkpt><trkpt lat="43.651390356397656" lon="10.284550630466235"><ele>2.6666666666666665</ele><time>2026-04-06T14:13:30Z</time></trkpt><trkpt lat="43.651504800684805" lon="10.284489922173961"><ele>2.8333333333333335</ele><time>2026-04-06T14:13:32Z</time></trkpt><trkpt lat="43.6516061883608" lon="10.284430247817646"><ele>3.0</ele><time>2026-04-06T14:13:34Z</time></trkpt><trkpt lat="43.65169497755172" lon="10.284371396247826"><ele>3.0</ele><time>2026-04-06T14:13:36Z</time></trkpt><trkpt lat="43.651787801486435" lon="10.284318492899475"><ele>3.0</ele><time>2026-04-06T14:13:38Z</time></trkpt><trkpt lat="43.65190959184663" lon="10.284251156913006"><ele>3.0</ele><time>2026-04-06T14:13:40Z</time></trkpt><trkpt lat="43.65197950362024" lon="10.28421003059837"><ele>3.0</ele><time>2026-04-06T14:13:41Z</time></trkpt><trkpt lat="43.65204748921079" lon="10.284169136151833"><ele>3.0</ele><time>2026-04-06T14:13:42Z</time></trkpt><trkpt lat="43.65211385503683" lon="10.284129334767748"><ele>3.0</ele><time>2026-04-06T14:13:43Z</time></trkpt><trkpt lat="43.6521826870524" lon="10.284092274886515"><ele>3.0</ele><time>2026-04-06T14:13:44Z</time></trkpt><trkpt lat="43.65224868514344" lon="10.2840555528771"><ele>3.0</ele><time>2026-04-06T14:13:45Z</time></trkpt><trkpt lat="43.65231119711107" lon="10.28402813058615"><ele>3.0</ele><time>2026-04-06T14:13:46Z</time></trkpt><trkpt lat="43.65241712750547" lon="10.283965486444107"><ele>3.0</ele><time>2026-04-06T14:13:48Z</time></trkpt><trkpt lat="43.65252206893016" lon="10.283908705559364"><ele>3.0</ele><time>2026-04-06T14:13:50Z</time></trkpt><trkpt lat="43.652639432743555" lon="10.283842878396257"><ele>3.0</ele><time>2026-04-06T14:13:52Z</time></trkpt><trkpt lat="43.65270217196786" lon="10.283801013719287"><ele>3.0</ele><time>2026-04-06T14:13:53Z</time></trkpt><trkpt lat="43.652772387005626" lon="10.283762758335957"><ele>3.0</ele><time>2026-04-06T14:13:54Z</time></trkpt><trkpt lat="43.65284669437839" lon="10.283718414000845"><ele>3.0</ele><time>2026-04-06T14:13:55Z</time></trkpt><trkpt lat="43.65292527402851" lon="10.28367412985282"><ele>3.0</ele><time>2026-04-06T14:13:56Z</time></trkpt><trkpt lat="43.65300235819037" lon="10.283628112506657"><ele>3.0</ele><time>2026-04-06T14:13:57Z</time></trkpt><trkpt lat="43.653084078045005" lon="10.283578447357277"><ele>3.0</ele><time>2026-04-06T14:13:58Z</time></trkpt><trkpt lat="43.65317336200977" lon="10.28352802687067"><ele>3.0</ele><time>2026-04-06T14:13:59Z</time></trkpt><trkpt lat="43.65326300095819" lon="10.283474554987176"><ele>3.0</ele><time>2026-04-06T14:14:00Z</time></trkpt><trkpt lat="43.653357632966355" lon="10.283420633073419"><ele>3.0</ele><time>2026-04-06T14:14:01Z</time></trkpt><trkpt lat="43.65344722093745" lon="10.283370652160327"><ele>3.0</ele><time>2026-04-06T14:14:02Z</time></trkpt><trkpt lat="43.65353715158814" lon="10.283321568934529"><ele>3.0</ele><time>2026-04-06T14:14:03Z</time></trkpt><trkpt lat="43.65362138265042" lon="10.283275178997979"><ele>3.0</ele><time>2026-04-06T14:14:04Z</time></trkpt><trkpt lat="43.653698728466175" lon="10.283229892530574"><ele>3.0</ele><time>2026-04-06T14:14:05Z</time></trkpt><trkpt lat="43.65377028842156" lon="10.283187611650426"><ele>3.0</ele><time>2026-04-06T14:14:06Z</time></trkpt><trkpt lat="43.65384134171397" lon="10.283146274085606"><ele>3.0</ele><time>2026-04-06T14:14:07Z</time></trkpt><trkpt lat="43.653913507615904" lon="10.283104671113504"><ele>3.0</ele><time>2026-04-06T14:14:08Z</time></trkpt><trkpt lat="43.65398555527878" lon="10.28305855418738"><ele>2.6</ele><time>2026-04-06T14:14:09Z</time></trkpt><trkpt lat="43.65406226207638" lon="10.283013614273361"><ele>2.1999999999999997</ele><time>2026-04-06T14:14:10Z</time></trkpt><trkpt lat="43.65414369986829" lon="10.282968689595709"><ele>1.8</ele><time>2026-04-06T14:14:11Z</time></trkpt><trkpt lat="43.65422947574027" lon="10.282921210750905"><ele>1.4</ele><time>2026-04-06T14:14:12Z</time></trkpt><trkpt lat="43.65431917157685" lon="10.282867578445284"><ele>1.0</ele><time>2026-04-06T14:14:13Z</time></trkpt><trkpt lat="43.65441050519681" lon="10.282817329639308"><ele>1.0</ele><time>2026-04-06T14:14:14Z</time></trkpt><trkpt lat="43.65450258268668" lon="10.282766547770205"><ele>1.0</ele><time>2026-04-06T14:14:15Z</time></trkpt><trkpt lat="43.654590288716854" lon="10.282712258862155"><ele>1.0</ele><time>2026-04-06T14:14:16Z</time></trkpt><trkpt lat="43.654674499597604" lon="10.282662203029197"><ele>1.0</ele><time>2026-04-06T14:14:17Z</time></trkpt><trkpt lat="43.65475716503305" lon="10.282614846768462"><ele>1.0</ele><time>2026-04-06T14:14:18Z</time></trkpt><trkpt lat="43.65483951984046" lon="10.28256457685568"><ele>1.0</ele><time>2026-04-06T14:14:19Z</time></trkpt><trkpt lat="43.65492458310314" lon="10.282515555947553"><ele>1.0</ele><time>2026-04-06T14:14:20Z</time></trkpt><trkpt lat="43.65501142223508" lon="10.282464000537985"><ele>1.0</ele><time>2026-04-06T14:14:21Z</time></trkpt><trkpt lat="43.65509482635023" lon="10.282411134613223"><ele>1.0</ele><time>2026-04-06T14:14:22Z</time></trkpt><trkpt lat="43.65518929956377" lon="10.28237006574586"><ele>1.0</ele><time>2026-04-06T14:14:23Z</time></trkpt><trkpt lat="43.655282944405336" lon="10.282314517562865"><ele>0.8</ele><time>2026-04-06T14:14:24Z</time></trkpt><trkpt lat="43.655374131422775" lon="10.282257212439102"><ele>0.6000000000000001</ele><time>2026-04-06T14:14:25Z</time></trkpt><trkpt lat="43.65546014968085" lon="10.282201488621668"><ele>0.4</ele><time>2026-04-06T14:14:26Z</time></trkpt><trkpt lat="43.655545279878666" lon="10.28215245719232"><ele>0.2</ele><time>2026-04-06T14:14:27Z</time></trkpt><trkpt lat="43.65562801415658" lon="10.282105040171974"><ele>0.0</ele><time>2026-04-06T14:14:28Z</time></trkpt><trkpt lat="43.655709824403324" lon="10.282059449338725"><ele>0.0</ele><time>2026-04-06T14:14:29Z</time></trkpt><trkpt lat="43.655783716506875" lon="10.28201837439308"><ele>0.0</ele><time>2026-04-06T14:14:30Z</time></trkpt><trkpt lat="43.655847073816695" lon="10.281983887632803"><ele>0.0</ele><time>2026-04-06T14:14:31Z</time></trkpt><trkpt lat="43.6559497193797" lon="10.281927729292738"><ele>0.0</ele><time>2026-04-06T14:14:33Z</time></trkpt><trkpt lat="43.656039623640325" lon="10.281869361961943"><ele>0.0</ele><time>2026-04-06T14:14:35Z</time></trkpt><trkpt lat="43.65610924013458" lon="10.281844237846144"><ele>0.0</ele><time>2026-04-06T14:14:37Z</time></trkpt><trkpt lat="43.65620503752789" lon="10.281778656251056"><ele>0.3333333333333333</ele><time>2026-04-06T14:14:39Z</time></trkpt><trkpt lat="43.65629236629425" lon="10.281732524594375"><ele>0.6666666666666666</ele><time>2026-04-06T14:14:41Z</time></trkpt><trkpt lat="43.65636814508017" lon="10.28168701563434"><ele>1.0</ele><time>2026-04-06T14:14:44Z</time></trkpt><trkpt lat="43.65643899857338" lon="10.2816408329643"><ele>1.3333333333333333</ele><time>2026-04-06T14:14:46Z</time></trkpt><trkpt lat="43.656501802835834" lon="10.281611274961401"><ele>1.6666666666666665</ele><time>2026-04-06T14:14:48Z</time></trkpt><trkpt lat="43.656582300734854" lon="10.281569926002568"><ele>2.0</ele><time>2026-04-06T14:14:50Z</time></trkpt><trkpt lat="43.65667447917066" lon="10.281517551990113"><ele>1.9999999999999998</ele><time>2026-04-06T14:14:52Z</time></trkpt><trkpt lat="43.65676462388115" lon="10.28146284870651"><ele>2.0</ele><time>2026-04-06T14:14:54Z</time></trkpt><trkpt lat="43.656843185929695" lon="10.281421366577417"><ele>2.0</ele><time>2026-04-06T14:14:56Z</time></trkpt><trkpt lat="43.656905841287916" lon="10.281380885813064"><ele>2.0</ele><time>2026-04-06T14:14:58Z</time></trkpt><trkpt lat="43.65698007750766" lon="10.28132891891717"><ele>1.9999999999999998</ele><time>2026-04-06T14:15:00Z</time></trkpt><trkpt lat="43.6570704205489" lon="10.28127445200105"><ele>2.0</ele><time>2026-04-06T14:15:02Z</time></trkpt><trkpt lat="43.65718055433608" lon="10.281206716680279"><ele>1.7142857142857142</ele><time>2026-04-06T14:15:04Z</time></trkpt><trkpt lat="43.657245513889436" lon="10.281169234187548"><ele>1.4285714285714284</ele><time>2026-04-06T14:15:05Z</time></trkpt><trkpt lat="43.65731513385149" lon="10.281133216393387"><ele>1.1428571428571428</ele><time>2026-04-06T14:15:06Z</time></trkpt><trkpt lat="43.657381737162325" lon="10.281092325789254"><ele>0.8571428571428571</ele><time>2026-04-06T14:15:07Z</time></trkpt><trkpt lat="43.65744631426266" lon="10.281055016994014"><ele>0.5714285714285714</ele><time>2026-04-06T14:15:08Z</time></trkpt><trkpt lat="43.6575160076638" lon="10.281019715120745"><ele>0.2857142857142857</ele><time>2026-04-06T14:15:09Z</time></trkpt><trkpt lat="43.65758445636685" lon="10.280978907976944"><ele>0.0</ele><time>2026-04-06T14:15:10Z</time></trkpt><trkpt lat="43.65765520135672" lon="10.280939358848034"><ele>0.0</ele><time>2026-04-06T14:15:11Z</time></trkpt><trkpt lat="43.65772940328839" lon="10.280898941740634"><ele>0.0</ele><time>2026-04-06T14:15:12Z</time></trkpt><trkpt lat="43.657804891812326" lon="10.280857501568573"><ele>0.0</ele><time>2026-04-06T14:15:13Z</time></trkpt><trkpt lat="43.657876793339845" lon="10.280813644046095"><ele>0.0</ele><time>2026-04-06T14:15:14Z</time></trkpt><trkpt lat="43.657949312129084" lon="10.280770231466597"><ele>0.0</ele><time>2026-04-06T14:15:15Z</time></trkpt><trkpt lat="43.65801516154335" lon="10.280729358782708"><ele>0.0</ele><time>2026-04-06T14:15:16Z</time></trkpt><trkpt lat="43.65807556792843" lon="10.2806981146187"><ele>0.0</ele><time>2026-04-06T14:15:17Z</time></trkpt><trkpt lat="43.658173755501146" lon="10.28064773425667"><ele>0.0</ele><time>2026-04-06T14:15:19Z</time></trkpt><trkpt lat="43.65824534917818" lon="10.280611193048363"><ele>0.0</ele><time>2026-04-06T14:15:21Z</time></trkpt><trkpt lat="43.658322454930406" lon="10.280559959444442"><ele>0.0</ele><time>2026-04-06T14:15:23Z</time></trkpt><trkpt lat="43.65842142044802" lon="10.280501028509518"><ele>0.0</ele><time>2026-04-06T14:15:25Z</time></trkpt><trkpt lat="43.65853165028714" lon="10.280447134344188"><ele>0.0</ele><time>2026-04-06T14:15:27Z</time></trkpt><trkpt lat="43.65862806342541" lon="10.280393119382481"><ele>0.0</ele><time>2026-04-06T14:15:29Z</time></trkpt><trkpt lat="43.65871084304751" lon="10.280338229143945"><ele>0.0</ele><time>2026-04-06T14:15:31Z</time></trkpt><trkpt lat="43.658786411267066" lon="10.28029031354431"><ele>0.0</ele><time>2026-04-06T14:15:33Z</time></trkpt><trkpt lat="43.65885515527302" lon="10.28024631886858"><ele>0.0</ele><time>2026-04-06T14:15:35Z</time></trkpt><trkpt lat="43.65893714933631" lon="10.280206839147162"><ele>0.0</ele><time>2026-04-06T14:15:38Z</time></trkpt><trkpt lat="43.65902360069685" lon="10.280258760317393"><ele>0.0</ele><time>2026-04-06T14:15:41Z</time></trkpt><trkpt lat="43.659063328271245" lon="10.280350134835151"><ele>0.0</ele><time>2026-04-06T14:15:43Z</time></trkpt><trkpt lat="43.65910738634478" lon="10.280462280428786"><ele>0.0</ele><time>2026-04-06T14:15:45Z</time></trkpt><trkpt lat="43.65914419675432" lon="10.280555138848667"><ele>0.0</ele><time>2026-04-06T14:15:47Z</time></trkpt><trkpt lat="43.65919188555454" lon="10.280670821693258"><ele>0.0</ele><time>2026-04-06T14:15:50Z</time></trkpt><trkpt lat="43.659236454560286" lon="10.28078081107405"><ele>0.0</ele><time>2026-04-06T14:15:52Z</time></trkpt><trkpt lat="43.659270468690835" lon="10.280883599194762"><ele>0.2857142857142857</ele><time>2026-04-06T14:15:54Z</time></trkpt><trkpt lat="43.65929106219437" lon="10.280972647266521"><ele>0.5714285714285714</ele><time>2026-04-06T14:15:57Z</time></trkpt><trkpt lat="43.65931736996074" lon="10.281064202699882"><ele>0.8571428571428571</ele><time>2026-04-06T14:16:32Z</time></trkpt><trkpt lat="43.65934688379353" lon="10.281147586345545"><ele>1.1428571428571428</ele><time>2026-04-06T14:16:42Z</time></trkpt><trkpt lat="43.65937865577931" lon="10.281235973148435"><ele>1.4285714285714284</ele><time>2026-04-06T14:16:45Z</time></trkpt><trkpt lat="43.659412053315826" lon="10.281311195189287"><ele>1.7142857142857142</ele><time>2026-04-06T14:16:47Z</time></trkpt><trkpt lat="43.659453703697025" lon="10.28141071362476"><ele>2.0</ele><time>2026-04-06T14:16:49Z</time></trkpt><trkpt lat="43.65948477791778" lon="10.281499291815948"><ele>2.0</ele><time>2026-04-06T14:16:51Z</time></trkpt><trkpt lat="43.65953193559043" lon="10.281624298429863"><ele>2.0</ele><time>2026-04-06T14:16:54Z</time></trkpt><trkpt lat="43.659556894833926" lon="10.281724174086309"><ele>2.0</ele><time>2026-04-06T14:16:56Z</time></trkpt><trkpt lat="43.65960193467202" lon="10.281825805876734"><ele>2.0</ele><time>2026-04-06T14:16:58Z</time></trkpt><trkpt lat="43.6596214232512" lon="10.281935483190471"><ele>2.0</ele><time>2026-04-06T14:17:00Z</time></trkpt><trkpt lat="43.659802483541164" lon="10.281911571355332"><ele>1.9999999999999998</ele><time>2026-04-06T14:17:03Z</time></trkpt><trkpt lat="43.659866540342136" lon="10.281873522720188"><ele>2.0</ele><time>2026-04-06T14:17:04Z</time></trkpt><trkpt lat="43.65992678650565" lon="10.281834647712934"><ele>2.0</ele><time>2026-04-06T14:17:05Z</time></trkpt><trkpt lat="43.660009121756346" lon="10.281771832056151"><ele>2.0</ele><time>2026-04-06T14:17:07Z</time></trkpt><trkpt lat="43.66009397204428" lon="10.281720230582254"><ele>1.9999999999999998</ele><time>2026-04-06T14:17:09Z</time></trkpt><trkpt lat="43.660170886997726" lon="10.281678672928301"><ele>2.0</ele><time>2026-04-06T14:17:11Z</time></trkpt><trkpt lat="43.66024025592169" lon="10.281649330465259"><ele>2.0</ele><time>2026-04-06T14:17:13Z</time></trkpt><trkpt lat="43.66032098784086" lon="10.281582737387073"><ele>2.0</ele><time>2026-04-06T14:17:15Z</time></trkpt><trkpt lat="43.66041513180347" lon="10.281526935577519"><ele>2.0</ele><time>2026-04-06T14:17:17Z</time></trkpt><trkpt lat="43.66050585711936" lon="10.281473160098649"><ele>2.0</ele><time>2026-04-06T14:17:19Z</time></trkpt><trkpt lat="43.660621707744895" lon="10.281423894493498"><ele>2.0</ele><time>2026-04-06T14:17:21Z</time></trkpt><trkpt lat="43.66072701604724" lon="10.281357063968692"><ele>2.0</ele><time>2026-04-06T14:17:23Z</time></trkpt><trkpt lat="43.660835183433434" lon="10.281284647679058"><ele>2.0</ele><time>2026-04-06T14:17:25Z</time></trkpt><trkpt lat="43.660942395703046" lon="10.281212454239803"><ele>2.0</ele><time>2026-04-06T14:17:27Z</time></trkpt><trkpt lat="43.661035975900035" lon="10.28115167394692"><ele>2.0</ele><time>2026-04-06T14:17:29Z</time></trkpt><trkpt lat="43.66113303142929" lon="10.281118160612253"><ele>2.0</ele><time>2026-04-06T14:17:31Z</time></trkpt><trkpt lat="43.661230398588536" lon="10.28106113651687"><ele>2.2</ele><time>2026-04-06T14:17:33Z</time></trkpt><trkpt lat="43.66132571507795" lon="10.28100531342006"><ele>2.4000000000000004</ele><time>2026-04-06T14:17:35Z</time></trkpt><trkpt lat="43.66141685612654" lon="10.280927043650683"><ele>2.5999999999999996</ele><time>2026-04-06T14:17:37Z</time></trkpt><trkpt lat="43.66151852297192" lon="10.280892841037527"><ele>2.8</ele><time>2026-04-06T14:17:39Z</time></trkpt><trkpt lat="43.66162077411138" lon="10.280811865450225"><ele>3.0</ele><time>2026-04-06T14:17:41Z</time></trkpt><trkpt lat="43.66168895251484" lon="10.280774810850978"><ele>3.0</ele><time>2026-04-06T14:17:42Z</time></trkpt><trkpt lat="43.661752669992914" lon="10.280742521685966"><ele>3.0</ele><time>2026-04-06T14:17:43Z</time></trkpt><trkpt lat="43.66186898234886" lon="10.280665916408697"><ele>3.0</ele><time>2026-04-06T14:17:45Z</time></trkpt><trkpt lat="43.66193233198903" lon="10.28063301148718"><ele>3.0</ele><time>2026-04-06T14:17:46Z</time></trkpt><trkpt lat="43.66199387915387" lon="10.280594706777372"><ele>3.0</ele><time>2026-04-06T14:17:47Z</time></trkpt><trkpt lat="43.66206227753433" lon="10.2805772176288"><ele>3.0</ele><time>2026-04-06T14:17:48Z</time></trkpt><trkpt lat="43.662174697200314" lon="10.280511963411312"><ele>2.8333333333333335</ele><time>2026-04-06T14:17:50Z</time></trkpt><trkpt lat="43.662287483646175" lon="10.280434000658811"><ele>2.6666666666666665</ele><time>2026-04-06T14:17:52Z</time></trkpt><trkpt lat="43.662350577355895" lon="10.280396171069588"><ele>2.5</ele><time>2026-04-06T14:17:53Z</time></trkpt><trkpt lat="43.66241467863103" lon="10.280358064895236"><ele>2.333333333333333</ele><time>2026-04-06T14:17:54Z</time></trkpt><trkpt lat="43.66248274493675" lon="10.280318280963584"><ele>2.1666666666666665</ele><time>2026-04-06T14:17:55Z</time></trkpt><trkpt lat="43.66255320242439" lon="10.28027068398756"><ele>2.0</ele><time>2026-04-06T14:17:56Z</time></trkpt><trkpt lat="43.66263223982412" lon="10.280246929296029"><ele>1.9999999999999998</ele><time>2026-04-06T14:17:57Z</time></trkpt><trkpt lat="43.66269706014604" lon="10.28020941696972"><ele>2.0</ele><time>2026-04-06T14:17:58Z</time></trkpt><trkpt lat="43.66276376126112" lon="10.280170816204445"><ele>2.0</ele><time>2026-04-06T14:17:59Z</time></trkpt><trkpt lat="43.662833043554166" lon="10.280130721681225"><ele>2.0</ele><time>2026-04-06T14:18:00Z</time></trkpt><trkpt lat="43.66291022554824" lon="10.28008605550173"><ele>1.9999999999999998</ele><time>2026-04-06T14:18:01Z</time></trkpt><trkpt lat="43.66299202807246" lon="10.280038715364142"><ele>2.0</ele><time>2026-04-06T14:18:02Z</time></trkpt><trkpt lat="43.66308044093075" lon="10.279987549744435"><ele>1.9999999999999998</ele><time>2026-04-06T14:18:03Z</time></trkpt><trkpt lat="43.66316320528039" lon="10.279939652987546"><ele>2.0</ele><time>2026-04-06T14:18:04Z</time></trkpt><trkpt lat="43.663237763815616" lon="10.279896505034872"><ele>2.0</ele><time>2026-04-06T14:18:05Z</time></trkpt><trkpt lat="43.66330422682475" lon="10.279858042062868"><ele>2.0</ele><time>2026-04-06T14:18:06Z</time></trkpt><trkpt lat="43.66336562192745" lon="10.279797928360706"><ele>1.9999999999999998</ele><time>2026-04-06T14:18:07Z</time></trkpt><trkpt lat="43.66343944511603" lon="10.279780311437076"><ele>2.0</ele><time>2026-04-06T14:18:08Z</time></trkpt><trkpt lat="43.66354755271147" lon="10.279718243923197"><ele>2.4000000000000004</ele><time>2026-04-06T14:18:10Z</time></trkpt><trkpt lat="43.66362186645741" lon="10.27967557837827"><ele>2.8000000000000003</ele><time>2026-04-06T14:18:13Z</time></trkpt><trkpt lat="43.66372277089665" lon="10.279617646390653"><ele>3.2</ele><time>2026-04-06T14:18:16Z</time></trkpt><trkpt lat="43.66384623732115" lon="10.279547106612947"><ele>3.6</ele><time>2026-04-06T14:18:18Z</time></trkpt><trkpt lat="43.6639236216272" lon="10.27950293926847"><ele>4.0</ele><time>2026-04-06T14:18:19Z</time></trkpt><trkpt lat="43.66401549616682" lon="10.279450501580412"><ele>4.0</ele><time>2026-04-06T14:18:20Z</time></trkpt><trkpt lat="43.664121502473094" lon="10.279389041268598"><ele>4.0</ele><time>2026-04-06T14:18:21Z</time></trkpt><trkpt lat="43.66422728640448" lon="10.27932698455148"><ele>4.0</ele><time>2026-04-06T14:18:22Z</time></trkpt><trkpt lat="43.66432734468096" lon="10.279268286757492"><ele>4.0</ele><time>2026-04-06T14:18:23Z</time></trkpt><trkpt lat="43.66441884893478" lon="10.279214607064011"><ele>4.0</ele><time>2026-04-06T14:18:24Z</time></trkpt><trkpt lat="43.664510132750415" lon="10.27916105668682"><ele>3.9999999999999996</ele><time>2026-04-06T14:18:25Z</time></trkpt><trkpt lat="43.66459455024846" lon="10.279111534338211"><ele>4.0</ele><time>2026-04-06T14:18:26Z</time></trkpt><trkpt lat="43.66467479788397" lon="10.279064458182681"><ele>4.0</ele><time>2026-04-06T14:18:27Z</time></trkpt><trkpt lat="43.66475356133863" lon="10.279005391672838"><ele>4.0</ele><time>2026-04-06T14:18:28Z</time></trkpt><trkpt lat="43.664826893041365" lon="10.278955821378092"><ele>3.9999999999999996</ele><time>2026-04-06T14:18:29Z</time></trkpt><trkpt lat="43.66490321896368" lon="10.278918553897036"><ele>4.0</ele><time>2026-04-06T14:18:30Z</time></trkpt><trkpt lat="43.66497451614194" lon="10.278871053924483"><ele>4.2</ele><time>2026-04-06T14:18:31Z</time></trkpt><trkpt lat="43.665057800545256" lon="10.278840235070842"><ele>4.4</ele><time>2026-04-06T14:18:32Z</time></trkpt><trkpt lat="43.66513879395065" lon="10.278792941916585"><ele>4.6</ele><time>2026-04-06T14:18:33Z</time></trkpt><trkpt lat="43.6652258567891" lon="10.278742104744424"><ele>4.8</ele><time>2026-04-06T14:18:34Z</time></trkpt><trkpt lat="43.66532052769721" lon="10.278686919739883"><ele>5.0</ele><time>2026-04-06T14:18:35Z</time></trkpt><trkpt lat="43.66542125742579" lon="10.27862816823221"><ele>4.5</ele><time>2026-04-06T14:18:36Z</time></trkpt><trkpt lat="43.66552610593081" lon="10.278567011545011"><ele>4.0</ele><time>2026-04-06T14:18:37Z</time></trkpt><trkpt lat="43.66563954872528" lon="10.278504479938123"><ele>3.5</ele><time>2026-04-06T14:18:38Z</time></trkpt><trkpt lat="43.665754629339595" lon="10.278434128697437"><ele>3.0</ele><time>2026-04-06T14:18:39Z</time></trkpt><trkpt lat="43.665873820244386" lon="10.278362876184955"><ele>3.0</ele><time>2026-04-06T14:18:40Z</time></trkpt><trkpt lat="43.66599626196126" lon="10.278291306311809"><ele>3.0</ele><time>2026-04-06T14:18:41Z</time></trkpt><trkpt lat="43.66610864820392" lon="10.278223113009693"><ele>3.0</ele><time>2026-04-06T14:18:42Z</time></trkpt><trkpt lat="43.66620865366663" lon="10.278167282459172"><ele>3.0</ele><time>2026-04-06T14:18:43Z</time></trkpt><trkpt lat="43.66629982576658" lon="10.27811699008479"><ele>2.8333333333333335</ele><time>2026-04-06T14:18:44Z</time></trkpt><trkpt lat="43.66638111555313" lon="10.278071598742168"><ele>2.6666666666666665</ele><time>2026-04-06T14:18:45Z</time></trkpt><trkpt lat="43.66645541547073" lon="10.278028367984355"><ele>2.5</ele><time>2026-04-06T14:18:46Z</time></trkpt><trkpt lat="43.66652332434558" lon="10.27798520614641"><ele>2.333333333333333</ele><time>2026-04-06T14:18:47Z</time></trkpt><trkpt lat="43.666583470962685" lon="10.277947604750937"><ele>2.1666666666666665</ele><time>2026-04-06T14:18:48Z</time></trkpt><trkpt lat="43.66669399543303" lon="10.277880154365413"><ele>2.0</ele><time>2026-04-06T14:18:50Z</time></trkpt><trkpt lat="43.66680316824748" lon="10.277809604787578"><ele>1.9999999999999998</ele><time>2026-04-06T14:18:52Z</time></trkpt><trkpt lat="43.666861563929146" lon="10.277771503403711"><ele>2.0</ele><time>2026-04-06T14:18:53Z</time></trkpt><trkpt lat="43.6669270673391" lon="10.277732674002454"><ele>2.0</ele><time>2026-04-06T14:18:54Z</time></trkpt><trkpt lat="43.667002329678766" lon="10.277708633037665"><ele>2.0</ele><time>2026-04-06T14:18:55Z</time></trkpt><trkpt lat="43.66707846322464" lon="10.277664686983453"><ele>1.9999999999999998</ele><time>2026-04-06T14:18:56Z</time></trkpt><trkpt lat="43.66715906338481" lon="10.277618057254374"><ele>2.0</ele><time>2026-04-06T14:18:57Z</time></trkpt><trkpt lat="43.667241367405744" lon="10.277570441790601"><ele>2.2</ele><time>2026-04-06T14:18:58Z</time></trkpt><trkpt lat="43.667322556553664" lon="10.27752347131727"><ele>2.4000000000000004</ele><time>2026-04-06T14:18:59Z</time></trkpt><trkpt lat="43.66740720843998" lon="10.277474497539503"><ele>2.5999999999999996</ele><time>2026-04-06T14:19:00Z</time></trkpt><trkpt lat="43.66748681612414" lon="10.277405061507503"><ele>2.8</ele><time>2026-04-06T14:19:01Z</time></trkpt><trkpt lat="43.667573579124856" lon="10.277363688572429"><ele>3.0</ele><time>2026-04-06T14:19:02Z</time></trkpt><trkpt lat="43.667655677109344" lon="10.27732242969534"><ele>2.9999999999999996</ele><time>2026-04-06T14:19:03Z</time></trkpt><trkpt lat="43.66772853671153" lon="10.277272471257174"><ele>3.0</ele><time>2026-04-06T14:19:04Z</time></trkpt><trkpt lat="43.66779565096162" lon="10.277232149890867"><ele>3.0</ele><time>2026-04-06T14:19:05Z</time></trkpt><trkpt lat="43.667859425109995" lon="10.277198421679751"><ele>3.0</ele><time>2026-04-06T14:19:06Z</time></trkpt><trkpt lat="43.66792393670866" lon="10.27716060794838"><ele>3.0</ele><time>2026-04-06T14:19:07Z</time></trkpt><trkpt lat="43.667991398756755" lon="10.277119533021699"><ele>2.9999999999999996</ele><time>2026-04-06T14:19:08Z</time></trkpt><trkpt lat="43.66806176054125" lon="10.27707385743053"><ele>3.0</ele><time>2026-04-06T14:19:09Z</time></trkpt><trkpt lat="43.668136815205855" lon="10.27702819957853"><ele>3.0</ele><time>2026-04-06T14:19:10Z</time></trkpt><trkpt lat="43.66821432036411" lon="10.276984036622908"><ele>3.0</ele><time>2026-04-06T14:19:11Z</time></trkpt><trkpt lat="43.66829255657389" lon="10.276938758713152"><ele>3.0</ele><time>2026-04-06T14:19:12Z</time></trkpt><trkpt lat="43.66837392055904" lon="10.276895289472531"><ele>3.0</ele><time>2026-04-06T14:19:13Z</time></trkpt><trkpt lat="43.6684570212385" lon="10.276837480800403"><ele>3.0</ele><time>2026-04-06T14:19:14Z</time></trkpt><trkpt lat="43.66854724508556" lon="10.276784605948054"><ele>3.0</ele><time>2026-04-06T14:19:15Z</time></trkpt><trkpt lat="43.6686382240576" lon="10.27673168179502"><ele>3.1666666666666665</ele><time>2026-04-06T14:19:16Z</time></trkpt><trkpt lat="43.668730625387674" lon="10.276697023514014"><ele>3.333333333333333</ele><time>2026-04-06T14:19:17Z</time></trkpt><trkpt lat="43.66881730864521" lon="10.276646164202083"><ele>3.5</ele><time>2026-04-06T14:19:18Z</time></trkpt><trkpt lat="43.6689015672482" lon="10.276596725941205"><ele>3.6666666666666665</ele><time>2026-04-06T14:19:19Z</time></trkpt><trkpt lat="43.668980539966675" lon="10.276550389144171"><ele>3.833333333333333</ele><time>2026-04-06T14:19:20Z</time></trkpt><trkpt lat="43.669050271092374" lon="10.276497804112429"><ele>4.0</ele><time>2026-04-06T14:19:21Z</time></trkpt><trkpt lat="43.66911065950858" lon="10.276453966962734"><ele>3.9999999999999996</ele><time>2026-04-06T14:19:22Z</time></trkpt><trkpt lat="43.66921653784711" lon="10.276395263358731"><ele>4.0</ele><time>2026-04-06T14:19:24Z</time></trkpt><trkpt lat="43.66931741353714" lon="10.276333915588369"><ele>4.0</ele><time>2026-04-06T14:19:26Z</time></trkpt><trkpt lat="43.669378063684995" lon="10.276298055426588"><ele>4.0</ele><time>2026-04-06T14:19:27Z</time></trkpt><trkpt lat="43.66944371587296" lon="10.276259097356839"><ele>3.9999999999999996</ele><time>2026-04-06T14:19:28Z</time></trkpt><trkpt lat="43.669507231139875" lon="10.276226788720988"><ele>4.0</ele><time>2026-04-06T14:19:29Z</time></trkpt><trkpt lat="43.66962817879586" lon="10.2761650756633"><ele>4.0</ele><time>2026-04-06T14:19:31Z</time></trkpt><trkpt lat="43.66968755156592" lon="10.276126205273668"><ele>3.9999999999999996</ele><time>2026-04-06T14:19:32Z</time></trkpt><trkpt lat="43.669751507310686" lon="10.276090267295178"><ele>4.0</ele><time>2026-04-06T14:19:33Z</time></trkpt><trkpt lat="43.669815755515955" lon="10.276052017852207"><ele>4.0</ele><time>2026-04-06T14:19:34Z</time></trkpt><trkpt lat="43.66987702161118" lon="10.27601692292901"><ele>3.9999999999999996</ele><time>2026-04-06T14:19:35Z</time></trkpt><trkpt lat="43.669934143552624" lon="10.275979389900423"><ele>4.0</ele><time>2026-04-06T14:19:36Z</time></trkpt><trkpt lat="43.6700330749354" lon="10.275919304933192"><ele>4.0</ele><time>2026-04-06T14:19:38Z</time></trkpt><trkpt lat="43.67011436645256" lon="10.275864562918422"><ele>4.0</ele><time>2026-04-06T14:19:40Z</time></trkpt><trkpt lat="43.67023657572522" lon="10.275814279089783"><ele>4.0</ele><time>2026-04-06T14:19:42Z</time></trkpt><trkpt lat="43.67029697807825" lon="10.275781323261482"><ele>4.0</ele><time>2026-04-06T14:19:43Z</time></trkpt><trkpt lat="43.67039886404145" lon="10.275719635807482"><ele>4.0</ele><time>2026-04-06T14:19:45Z</time></trkpt><trkpt lat="43.67048129583101" lon="10.275661848559574"><ele>4.0</ele><time>2026-04-06T14:19:47Z</time></trkpt><trkpt lat="43.6705777302306" lon="10.275594703756775"><ele>3.833333333333333</ele><time>2026-04-06T14:19:49Z</time></trkpt><trkpt lat="43.67067577575744" lon="10.275560361758693"><ele>3.6666666666666665</ele><time>2026-04-06T14:19:51Z</time></trkpt><trkpt lat="43.670773766542965" lon="10.275500365945808"><ele>3.5</ele><time>2026-04-06T14:19:53Z</time></trkpt><trkpt lat="43.670833575398255" lon="10.275463030045694"><ele>3.333333333333333</ele><time>2026-04-06T14:19:54Z</time></trkpt><trkpt lat="43.67089722801356" lon="10.275421665947396"><ele>3.1666666666666665</ele><time>2026-04-06T14:19:55Z</time></trkpt><trkpt lat="43.67095982316681" lon="10.275385414324129"><ele>3.0</ele><time>2026-04-06T14:19:56Z</time></trkpt><trkpt lat="43.67101735195349" lon="10.275345892634315"><ele>3.4</ele><time>2026-04-06T14:19:57Z</time></trkpt><trkpt lat="43.67112003260961" lon="10.275292266753304"><ele>3.8</ele><time>2026-04-06T14:19:59Z</time></trkpt><trkpt lat="43.67122219290743" lon="10.275229755133996"><ele>4.2</ele><time>2026-04-06T14:20:01Z</time></trkpt><trkpt lat="43.67129082122526" lon="10.275184088053084"><ele>4.6</ele><time>2026-04-06T14:20:03Z</time></trkpt><trkpt lat="43.67135292193235" lon="10.275142157713601"><ele>5.0</ele><time>2026-04-06T14:20:05Z</time></trkpt><trkpt lat="43.67144061415012" lon="10.275110834533255"><ele>5.0</ele><time>2026-04-06T14:20:07Z</time></trkpt><trkpt lat="43.67151581923288" lon="10.27505958791122"><ele>5.0</ele><time>2026-04-06T14:20:09Z</time></trkpt><trkpt lat="43.671574828512654" lon="10.275023416479975"><ele>5.0</ele><time>2026-04-06T14:20:10Z</time></trkpt><trkpt lat="43.67163586268309" lon="10.274992766294032"><ele>5.0</ele><time>2026-04-06T14:20:11Z</time></trkpt><trkpt lat="43.671709174370875" lon="10.274953594254562"><ele>5.0</ele><time>2026-04-06T14:20:12Z</time></trkpt><trkpt lat="43.67178770312788" lon="10.274913262802793"><ele>5.0</ele><time>2026-04-06T14:20:13Z</time></trkpt><trkpt lat="43.67186372273505" lon="10.274866371660227"><ele>5.0</ele><time>2026-04-06T14:20:14Z</time></trkpt><trkpt lat="43.67193618223028" lon="10.27481841313788"><ele>5.0</ele><time>2026-04-06T14:20:15Z</time></trkpt><trkpt lat="43.67200810431035" lon="10.274770719946197"><ele>5.0</ele><time>2026-04-06T14:20:16Z</time></trkpt><trkpt lat="43.67207537243793" lon="10.274732625222569"><ele>5.0</ele><time>2026-04-06T14:20:17Z</time></trkpt><trkpt lat="43.67214873764083" lon="10.274687667772533"><ele>5.0</ele><time>2026-04-06T14:20:18Z</time></trkpt><trkpt lat="43.67222097587626" lon="10.274649290312635"><ele>5.0</ele><time>2026-04-06T14:20:19Z</time></trkpt><trkpt lat="43.672292048649034" lon="10.274604717649458"><ele>4.833333333333334</ele><time>2026-04-06T14:20:20Z</time></trkpt><trkpt lat="43.67236279726191" lon="10.274564995872796"><ele>4.666666666666667</ele><time>2026-04-06T14:20:21Z</time></trkpt><trkpt lat="43.6724324667581" lon="10.274534251458965"><ele>4.5</ele><time>2026-04-06T14:20:22Z</time></trkpt><trkpt lat="43.672490849773894" lon="10.274495460484248"><ele>4.333333333333333</ele><time>2026-04-06T14:20:23Z</time></trkpt><trkpt lat="43.67260106315864" lon="10.274421893665235"><ele>4.166666666666666</ele><time>2026-04-06T14:20:25Z</time></trkpt><trkpt lat="43.67269157879135" lon="10.274389486820922"><ele>4.0</ele><time>2026-04-06T14:20:27Z</time></trkpt><trkpt lat="43.672759913386464" lon="10.274356693080826"><ele>4.2</ele><time>2026-04-06T14:20:29Z</time></trkpt><trkpt lat="43.67284349847423" lon="10.274305853765956"><ele>4.4</ele><time>2026-04-06T14:20:32Z</time></trkpt><trkpt lat="43.67290953846788" lon="10.274262818772817"><ele>4.6</ele><time>2026-04-06T14:20:34Z</time></trkpt><trkpt lat="43.672997459817076" lon="10.274213308907557"><ele>4.8</ele><time>2026-04-06T14:20:36Z</time></trkpt><trkpt lat="43.6731079514779" lon="10.2741525907122"><ele>5.0</ele><time>2026-04-06T14:20:38Z</time></trkpt><trkpt lat="43.67322785387136" lon="10.274087012318175"><ele>5.0</ele><time>2026-04-06T14:20:40Z</time></trkpt><trkpt lat="43.67329621385977" lon="10.274039087762997"><ele>5.0</ele><time>2026-04-06T14:20:41Z</time></trkpt><trkpt lat="43.67337216892253" lon="10.273997436877057"><ele>5.0</ele><time>2026-04-06T14:20:42Z</time></trkpt><trkpt lat="43.67344445205049" lon="10.273954536218465"><ele>5.0</ele><time>2026-04-06T14:20:43Z</time></trkpt><trkpt lat="43.67351900656718" lon="10.27391359832535"><ele>5.0</ele><time>2026-04-06T14:20:44Z</time></trkpt><trkpt lat="43.673590794265884" lon="10.273870981686628"><ele>5.0</ele><time>2026-04-06T14:20:45Z</time></trkpt><trkpt lat="43.67365487912564" lon="10.273835652961582"><ele>4.571428571428571</ele><time>2026-04-06T14:20:46Z</time></trkpt><trkpt lat="43.67371268346148" lon="10.27380077893981"><ele>4.142857142857143</ele><time>2026-04-06T14:20:47Z</time></trkpt><trkpt lat="43.673811620975776" lon="10.273784867618064"><ele>3.7142857142857144</ele><time>2026-04-06T14:20:49Z</time></trkpt><trkpt lat="43.67389067566045" lon="10.273811584576709"><ele>3.2857142857142856</ele><time>2026-04-06T14:20:51Z</time></trkpt><trkpt lat="43.673952384518735" lon="10.273833950661196"><ele>2.8571428571428568</ele><time>2026-04-06T14:20:53Z</time></trkpt><trkpt lat="43.674020061100876" lon="10.273860325327382"><ele>2.4285714285714284</ele><time>2026-04-06T14:20:56Z</time></trkpt><trkpt lat="43.674084410499844" lon="10.273887408610909"><ele>2.0</ele><time>2026-04-06T14:20:59Z</time></trkpt><trkpt lat="43.674153586371936" lon="10.27391889471267"><ele>2.142857142857143</ele><time>2026-04-06T14:21:02Z</time></trkpt><trkpt lat="43.674217584276526" lon="10.27394403141002"><ele>2.2857142857142856</ele><time>2026-04-06T14:21:04Z</time></trkpt><trkpt lat="43.67429691810628" lon="10.273971359988675"><ele>2.4285714285714284</ele><time>2026-04-06T14:21:07Z</time></trkpt><trkpt lat="43.67438123215835" lon="10.27400063998507"><ele>2.571428571428571</ele><time>2026-04-06T14:21:10Z</time></trkpt><trkpt lat="43.67444332529213" lon="10.274016053315746"><ele>2.7142857142857144</ele><time>2026-04-06T14:21:12Z</time></trkpt><trkpt lat="43.67451577940055" lon="10.274040487646213"><ele>2.8571428571428568</ele><time>2026-04-06T14:21:15Z</time></trkpt><trkpt lat="43.67458977960512" lon="10.274066139350822"><ele>3.0</ele><time>2026-04-06T14:21:19Z</time></trkpt><trkpt lat="43.67465753213098" lon="10.274093494025726"><ele>2.6</ele><time>2026-04-06T14:21:23Z</time></trkpt><trkpt lat="43.67473128794914" lon="10.27410948589062"><ele>2.1999999999999997</ele><time>2026-04-06T14:22:10Z</time></trkpt><trkpt lat="43.67479444810751" lon="10.274130867761146"><ele>1.8</ele><time>2026-04-06T14:22:24Z</time></trkpt><trkpt lat="43.674902439877954" lon="10.274157025739658"><ele>1.4</ele><time>2026-04-06T14:22:36Z</time></trkpt><trkpt lat="43.67500936571509" lon="10.27418594738424"><ele>1.0</ele><time>2026-04-06T14:22:38Z</time></trkpt><trkpt lat="43.675104072433875" lon="10.274220302348004"><ele>1.0</ele><time>2026-04-06T14:22:40Z</time></trkpt><trkpt lat="43.67521810256639" lon="10.274253936277606"><ele>1.0</ele><time>2026-04-06T14:22:42Z</time></trkpt><trkpt lat="43.675341162702914" lon="10.274290554855181"><ele>1.0</ele><time>2026-04-06T14:22:44Z</time></trkpt><trkpt lat="43.67540433569015" lon="10.274313283851331"><ele>1.0</ele><time>2026-04-06T14:22:45Z</time></trkpt><trkpt lat="43.675501598461864" lon="10.274348952320661"><ele>1.0</ele><time>2026-04-06T14:22:47Z</time></trkpt><trkpt lat="43.67558400405766" lon="10.274387077706889"><ele>1.0</ele><time>2026-04-06T14:22:49Z</time></trkpt><trkpt lat="43.6756636808884" lon="10.274421488949871"><ele>1.0</ele><time>2026-04-06T14:22:51Z</time></trkpt><trkpt lat="43.675732824862436" lon="10.274452918333022"><ele>1.0</ele><time>2026-04-06T14:22:53Z</time></trkpt><trkpt lat="43.675799457375945" lon="10.27447230666019"><ele>1.0</ele><time>2026-04-06T14:22:55Z</time></trkpt><trkpt lat="43.67590470160411" lon="10.274486625470102"><ele>1.0</ele><time>2026-04-06T14:22:58Z</time></trkpt><trkpt lat="43.67602288666238" lon="10.274527313322874"><ele>1.0</ele><time>2026-04-06T14:23:00Z</time></trkpt><trkpt lat="43.67608694972872" lon="10.274548103219066"><ele>1.0</ele><time>2026-04-06T14:23:01Z</time></trkpt><trkpt lat="43.67618024851048" lon="10.274580827540488"><ele>1.0</ele><time>2026-04-06T14:23:03Z</time></trkpt><trkpt lat="43.67623584991389" lon="10.274645479759291"><ele>1.0</ele><time>2026-04-06T14:23:05Z</time></trkpt><trkpt lat="43.67620889221667" lon="10.274803773262255"><ele>1.0</ele><time>2026-04-06T14:23:08Z</time></trkpt><trkpt lat="43.6761830103077" lon="10.274944726191281"><ele>1.0</ele><time>2026-04-06T14:23:10Z</time></trkpt><trkpt lat="43.6761542794052" lon="10.275101194769793"><ele>1.0</ele><time>2026-04-06T14:23:12Z</time></trkpt><trkpt lat="43.67612432656854" lon="10.275264318012127"><ele>1.0</ele><time>2026-04-06T14:23:14Z</time></trkpt><trkpt lat="43.67610046099845" lon="10.275394297837162"><ele>1.0</ele><time>2026-04-06T14:23:16Z</time></trkpt><trkpt lat="43.67608026951099" lon="10.27550480032418"><ele>1.0</ele><time>2026-04-06T14:23:18Z</time></trkpt><trkpt lat="43.676069968771415" lon="10.275650699228558"><ele>0.9999999999999999</ele><time>2026-04-06T14:23:21Z</time></trkpt><trkpt lat="43.67599752571869" lon="10.275669420302082"><ele>1.0</ele><time>2026-04-06T14:23:22Z</time></trkpt><trkpt lat="43.67592479168899" lon="10.275785927460847"><ele>1.0</ele><time>2026-04-06T14:23:24Z</time></trkpt><trkpt lat="43.67592531871296" lon="10.275874898103474"><ele>1.0</ele><time>2026-04-06T14:23:25Z</time></trkpt><trkpt lat="43.6759568318567" lon="10.275954725513424"><ele>0.9999999999999999</ele><time>2026-04-06T14:23:26Z</time></trkpt><trkpt lat="43.67602137634917" lon="10.275998200661071"><ele>1.0</ele><time>2026-04-06T14:23:27Z</time></trkpt><trkpt lat="43.67608878411672" lon="10.276023569494274"><ele>1.0</ele><time>2026-04-06T14:23:28Z</time></trkpt><trkpt lat="43.676167142237475" lon="10.275992906685468"><ele>1.0</ele><time>2026-04-06T14:23:29Z</time></trkpt><trkpt lat="43.6762509778839" lon="10.276085863749271"><ele>1.0</ele><time>2026-04-06T14:23:30Z</time></trkpt><trkpt lat="43.67634195935519" lon="10.276163762583248"><ele>1.0</ele><time>2026-04-06T14:23:31Z</time></trkpt><trkpt lat="43.676433065260014" lon="10.276254496505924"><ele>1.0</ele><time>2026-04-06T14:23:32Z</time></trkpt><trkpt lat="43.676525603993724" lon="10.276348899921405"><ele>0.8</ele><time>2026-04-06T14:23:33Z</time></trkpt><trkpt lat="43.67662074816978" lon="10.276444827261638"><ele>0.6000000000000001</ele><time>2026-04-06T14:23:34Z</time></trkpt><trkpt lat="43.676713015697196" lon="10.276544464529163"><ele>0.4</ele><time>2026-04-06T14:23:35Z</time></trkpt><trkpt lat="43.67679584303639" lon="10.276643477285251"><ele>0.2</ele><time>2026-04-06T14:23:36Z</time></trkpt><trkpt lat="43.67686956161503" lon="10.276736580476516"><ele>0.0</ele><time>2026-04-06T14:23:37Z</time></trkpt><trkpt lat="43.67693303424745" lon="10.276827453611599"><ele>0.0</ele><time>2026-04-06T14:23:38Z</time></trkpt><trkpt lat="43.676989548852006" lon="10.27691316990343"><ele>0.0</ele><time>2026-04-06T14:23:39Z</time></trkpt><trkpt lat="43.67703917191405" lon="10.276992548897775"><ele>0.0</ele><time>2026-04-06T14:23:40Z</time></trkpt><trkpt lat="43.67708203931021" lon="10.277073254380085"><ele>0.0</ele><time>2026-04-06T14:23:41Z</time></trkpt><trkpt lat="43.67711526688112" lon="10.277149586778789"><ele>0.0</ele><time>2026-04-06T14:23:42Z</time></trkpt><trkpt lat="43.6771626883811" lon="10.27730247485891"><ele>0.0</ele><time>2026-04-06T14:23:44Z</time></trkpt><trkpt lat="43.677203690162365" lon="10.277372243415575"><ele>0.0</ele><time>2026-04-06T14:23:45Z</time></trkpt><trkpt lat="43.677262485675044" lon="10.277415438922747"><ele>0.0</ele><time>2026-04-06T14:23:46Z</time></trkpt><trkpt lat="43.67732915288176" lon="10.277426507155505"><ele>0.0</ele><time>2026-04-06T14:23:47Z</time></trkpt><trkpt lat="43.67740312184437" lon="10.277410855889245"><ele>0.0</ele><time>2026-04-06T14:23:48Z</time></trkpt><trkpt lat="43.677477651548564" lon="10.277404601223022"><ele>0.0</ele><time>2026-04-06T14:23:49Z</time></trkpt><trkpt lat="43.67755360141434" lon="10.277417710705214"><ele>0.0</ele><time>2026-04-06T14:23:50Z</time></trkpt><trkpt lat="43.67762775727835" lon="10.277429013526321"><ele>0.0</ele><time>2026-04-06T14:23:51Z</time></trkpt><trkpt lat="43.67769687518444" lon="10.277441030838398"><ele>0.25</ele><time>2026-04-06T14:23:52Z</time></trkpt><trkpt lat="43.677815375708526" lon="10.277472697762589"><ele>0.5</ele><time>2026-04-06T14:23:54Z</time></trkpt><trkpt lat="43.677925009688174" lon="10.277500477559652"><ele>0.75</ele><time>2026-04-06T14:23:56Z</time></trkpt><trkpt lat="43.67802724133163" lon="10.277521539589056"><ele>1.0</ele><time>2026-04-06T14:23:58Z</time></trkpt><trkpt lat="43.67814389324406" lon="10.277544272059075"><ele>1.0</ele><time>2026-04-06T14:24:00Z</time></trkpt><trkpt lat="43.67824938432157" lon="10.277569400634388"><ele>1.0</ele><time>2026-04-06T14:24:02Z</time></trkpt><trkpt lat="43.67834055978063" lon="10.277590285377544"><ele>1.0</ele><time>2026-04-06T14:24:04Z</time></trkpt><trkpt lat="43.678442390361" lon="10.27761340575297"><ele>1.0</ele><time>2026-04-06T14:24:06Z</time></trkpt><trkpt lat="43.67854086000907" lon="10.2776324955087"><ele>1.0</ele><time>2026-04-06T14:24:08Z</time></trkpt><trkpt lat="43.67863319342427" lon="10.27763904305138"><ele>0.8333333333333333</ele><time>2026-04-06T14:24:10Z</time></trkpt><trkpt lat="43.678734346578445" lon="10.277637421289413"><ele>0.6666666666666666</ele><time>2026-04-06T14:24:12Z</time></trkpt><trkpt lat="43.678826001651835" lon="10.27764870498686"><ele>0.5</ele><time>2026-04-06T14:24:14Z</time></trkpt><trkpt lat="43.67892347141293" lon="10.27771901414375"><ele>0.3333333333333333</ele><time>2026-04-06T14:24:16Z</time></trkpt><trkpt lat="43.67897816848467" lon="10.27778409647888"><ele>0.16666666666666666</ele><time>2026-04-06T14:24:17Z</time></trkpt><trkpt lat="43.67902057904808" lon="10.27785937525802"><ele>0.0</ele><time>2026-04-06T14:24:18Z</time></trkpt><trkpt lat="43.679065997329275" lon="10.278022651476695"><ele>-0.16666666666666666</ele><time>2026-04-06T14:24:20Z</time></trkpt><trkpt lat="43.6790538454358" lon="10.27811767528842"><ele>-0.3333333333333333</ele><time>2026-04-06T14:24:21Z</time></trkpt><trkpt lat="43.67905839340665" lon="10.2782179275632"><ele>-0.5</ele><time>2026-04-06T14:24:22Z</time></trkpt><trkpt lat="43.67907769030785" lon="10.2783249034795"><ele>-0.6666666666666666</ele><time>2026-04-06T14:24:23Z</time></trkpt><trkpt lat="43.6790801668962" lon="10.2784344008807"><ele>-0.8333333333333333</ele><time>2026-04-06T14:24:24Z</time></trkpt><trkpt lat="43.67908419404573" lon="10.278542963348135"><ele>-1.0</ele><time>2026-04-06T14:24:25Z</time></trkpt><trkpt lat="43.67908843243157" lon="10.278655179042719"><ele>-0.9999999999999999</ele><time>2026-04-06T14:24:26Z</time></trkpt><trkpt lat="43.6790927612564" lon="10.278770228994613"><ele>-1.0</ele><time>2026-04-06T14:24:27Z</time></trkpt><trkpt lat="43.679098184191005" lon="10.278890464408965"><ele>-1.0</ele><time>2026-04-06T14:24:28Z</time></trkpt><trkpt lat="43.67910381754971" lon="10.279012924702524"><ele>-1.0</ele><time>2026-04-06T14:24:29Z</time></trkpt><trkpt lat="43.679111507752204" lon="10.279141394662485"><ele>-0.9999999999999999</ele><time>2026-04-06T14:24:30Z</time></trkpt><trkpt lat="43.67911185214467" lon="10.279275023042482"><ele>-1.0</ele><time>2026-04-06T14:24:31Z</time></trkpt><trkpt lat="43.67912033741384" lon="10.279407488549117"><ele>-1.0</ele><time>2026-04-06T14:24:32Z</time></trkpt><trkpt lat="43.67912836780655" lon="10.279540126349463"><ele>-1.0</ele><time>2026-04-06T14:24:33Z</time></trkpt><trkpt lat="43.67913584601007" lon="10.27967376946453"><ele>-1.0</ele><time>2026-04-06T14:24:34Z</time></trkpt><trkpt lat="43.679141865648326" lon="10.279805406683366"><ele>-1.0</ele><time>2026-04-06T14:24:35Z</time></trkpt><trkpt lat="43.6791466514263" lon="10.279929737691253"><ele>-1.0</ele><time>2026-04-06T14:24:36Z</time></trkpt><trkpt lat="43.67915056708594" lon="10.28004795216476"><ele>-0.8333333333333333</ele><time>2026-04-06T14:24:37Z</time></trkpt><trkpt lat="43.679156218183685" lon="10.280159078444338"><ele>-0.6666666666666666</ele><time>2026-04-06T14:24:38Z</time></trkpt><trkpt lat="43.67916572079813" lon="10.280273907448477"><ele>-0.5</ele><time>2026-04-06T14:24:39Z</time></trkpt><trkpt lat="43.67916643538296" lon="10.280390829274879"><ele>-0.3333333333333333</ele><time>2026-04-06T14:24:40Z</time></trkpt><trkpt lat="43.679173105306525" lon="10.280500917463781"><ele>-0.16666666666666666</ele><time>2026-04-06T14:24:41Z</time></trkpt><trkpt lat="43.67917805740957" lon="10.280607572140875"><ele>0.0</ele><time>2026-04-06T14:24:42Z</time></trkpt><trkpt lat="43.67918492905106" lon="10.280716030721672"><ele>0.16666666666666666</ele><time>2026-04-06T14:24:43Z</time></trkpt><trkpt lat="43.67918898182223" lon="10.28083097157939"><ele>0.3333333333333333</ele><time>2026-04-06T14:24:44Z</time></trkpt><trkpt lat="43.679193163293505" lon="10.280952325843984"><ele>0.5</ele><time>2026-04-06T14:24:45Z</time></trkpt><trkpt lat="43.679198766215634" lon="10.281066969383177"><ele>0.6666666666666666</ele><time>2026-04-06T14:24:46Z</time></trkpt><trkpt lat="43.679206863915724" lon="10.281183472726058"><ele>0.8333333333333333</ele><time>2026-04-06T14:24:47Z</time></trkpt><trkpt lat="43.679212590448415" lon="10.281301463739196"><ele>1.0</ele><time>2026-04-06T14:24:48Z</time></trkpt><trkpt lat="43.67921918174774" lon="10.281422202991164"><ele>0.6000000000000001</ele><time>2026-04-06T14:24:49Z</time></trkpt><trkpt lat="43.679226061855985" lon="10.281551200922022"><ele>0.20000000000000007</ele><time>2026-04-06T14:24:50Z</time></trkpt><trkpt lat="43.679233387063576" lon="10.2816841987939"><ele>-0.20000000000000007</ele><time>2026-04-06T14:24:51Z</time></trkpt><trkpt lat="43.67923275073865" lon="10.281815575214502"><ele>-0.6000000000000001</ele><time>2026-04-06T14:24:52Z</time></trkpt><trkpt lat="43.67923986672812" lon="10.281945614479138"><ele>-1.0</ele><time>2026-04-06T14:24:53Z</time></trkpt><trkpt lat="43.67924614041249" lon="10.282070788711069"><ele>-0.9999999999999999</ele><time>2026-04-06T14:24:54Z</time></trkpt><trkpt lat="43.67925061913935" lon="10.282185561087747"><ele>-1.0</ele><time>2026-04-06T14:24:55Z</time></trkpt><trkpt lat="43.67925689395938" lon="10.28229026592561"><ele>-1.0</ele><time>2026-04-06T14:24:56Z</time></trkpt><trkpt lat="43.67926187806516" lon="10.282386160305926"><ele>-1.0</ele><time>2026-04-06T14:24:57Z</time></trkpt><trkpt lat="43.67925754933663" lon="10.282478167090357"><ele>-0.9999999999999999</ele><time>2026-04-06T14:24:58Z</time></trkpt><trkpt lat="43.67926116765568" lon="10.282567948309374"><ele>-1.0</ele><time>2026-04-06T14:24:59Z</time></trkpt><trkpt lat="43.67925399821223" lon="10.2826975242164"><ele>-0.9999999999999999</ele><time>2026-04-06T14:25:01Z</time></trkpt><trkpt lat="43.67925596016245" lon="10.282866816380693"><ele>-1.0</ele><time>2026-04-06T14:25:03Z</time></trkpt><trkpt lat="43.6792562705468" lon="10.282999109197508"><ele>-1.0</ele><time>2026-04-06T14:25:05Z</time></trkpt><trkpt lat="43.679260068180724" lon="10.283101243773963"><ele>-1.0</ele><time>2026-04-06T14:25:08Z</time></trkpt><trkpt lat="43.679262219610564" lon="10.28319173154756"><ele>-0.9999999999999999</ele><time>2026-04-06T14:25:13Z</time></trkpt><trkpt lat="43.67925831740803" lon="10.283317669695608"><ele>-1.0</ele><time>2026-04-06T14:25:17Z</time></trkpt><trkpt lat="43.679265339207014" lon="10.283438475155736"><ele>-0.8333333333333333</ele><time>2026-04-06T14:25:19Z</time></trkpt><trkpt lat="43.67926403669972" lon="10.28353804112155"><ele>-0.6666666666666666</ele><time>2026-04-06T14:25:21Z</time></trkpt><trkpt lat="43.67925790825841" lon="10.283650110665926"><ele>-0.5</ele><time>2026-04-06T14:25:23Z</time></trkpt><trkpt lat="43.679260177840284" lon="10.283771006657295"><ele>-0.3333333333333333</ele><time>2026-04-06T14:25:25Z</time></trkpt><trkpt lat="43.67926248480601" lon="10.283918585513826"><ele>-0.16666666666666666</ele><time>2026-04-06T14:25:27Z</time></trkpt><trkpt lat="43.67926273249587" lon="10.284011920149046"><ele>0.0</ele><time>2026-04-06T14:25:28Z</time></trkpt><trkpt lat="43.67926316320917" lon="10.28411642543895"><ele>0.0</ele><time>2026-04-06T14:25:29Z</time></trkpt><trkpt lat="43.67926320385959" lon="10.284230630873562"><ele>0.0</ele><time>2026-04-06T14:25:30Z</time></trkpt><trkpt lat="43.67926329232189" lon="10.284336993318295"><ele>0.0</ele><time>2026-04-06T14:25:31Z</time></trkpt><trkpt lat="43.67926536422549" lon="10.284443617463202"><ele>0.0</ele><time>2026-04-06T14:25:32Z</time></trkpt><trkpt lat="43.67926505826654" lon="10.28455514328923"><ele>0.0</ele><time>2026-04-06T14:25:33Z</time></trkpt><trkpt lat="43.67926621119849" lon="10.284671516299111"><ele>0.0</ele><time>2026-04-06T14:25:34Z</time></trkpt><trkpt lat="43.67926787541962" lon="10.284787269886872"><ele>0.0</ele><time>2026-04-06T14:25:35Z</time></trkpt><trkpt lat="43.67926980760495" lon="10.284888344247934"><ele>0.0</ele><time>2026-04-06T14:25:36Z</time></trkpt><trkpt lat="43.67926720562405" lon="10.284977941224957"><ele>0.0</ele><time>2026-04-06T14:25:37Z</time></trkpt><trkpt lat="43.679272128258745" lon="10.28506660322005"><ele>0.0</ele><time>2026-04-06T14:25:38Z</time></trkpt><trkpt lat="43.67927182965135" lon="10.285155436370617"><ele>0.0</ele><time>2026-04-06T14:25:39Z</time></trkpt><trkpt lat="43.67926535927136" lon="10.285253653830983"><ele>0.0</ele><time>2026-04-06T14:25:40Z</time></trkpt><trkpt lat="43.679267489141665" lon="10.285355277502427"><ele>0.0</ele><time>2026-04-06T14:25:41Z</time></trkpt><trkpt lat="43.679266784837054" lon="10.285460294501144"><ele>0.0</ele><time>2026-04-06T14:25:42Z</time></trkpt><trkpt lat="43.67926817282011" lon="10.28556889893589"><ele>0.0</ele><time>2026-04-06T14:25:43Z</time></trkpt><trkpt lat="43.6792695684232" lon="10.285685756777125"><ele>0.0</ele><time>2026-04-06T14:25:44Z</time></trkpt><trkpt lat="43.67927032295367" lon="10.285807633693784"><ele>0.0</ele><time>2026-04-06T14:25:45Z</time></trkpt><trkpt lat="43.67926861397749" lon="10.285929307834204"><ele>0.0</ele><time>2026-04-06T14:25:46Z</time></trkpt><trkpt lat="43.67926853792643" lon="10.286043244825459"><ele>0.0</ele><time>2026-04-06T14:25:47Z</time></trkpt><trkpt lat="43.679268441073546" lon="10.286141061035764"><ele>-0.16666666666666666</ele><time>2026-04-06T14:25:48Z</time></trkpt><trkpt lat="43.679272263937946" lon="10.286290322697672"><ele>-0.3333333333333333</ele><time>2026-04-06T14:25:50Z</time></trkpt><trkpt lat="43.67927331236849" lon="10.286398551559913"><ele>-0.5</ele><time>2026-04-06T14:25:52Z</time></trkpt><trkpt lat="43.67927393673478" lon="10.286506255217686"><ele>-0.6666666666666666</ele><time>2026-04-06T14:25:57Z</time></trkpt><trkpt lat="43.67926892493375" lon="10.286626650488248"><ele>-0.8333333333333333</ele><time>2026-04-06T14:26:00Z</time></trkpt><trkpt lat="43.679276830279115" lon="10.286743245902912"><ele>-1.0</ele><time>2026-04-06T14:26:02Z</time></trkpt><trkpt lat="43.67927927219646" lon="10.286856599257888"><ele>-0.9999999999999999</ele><time>2026-04-06T14:26:04Z</time></trkpt><trkpt lat="43.679280897511994" lon="10.286993239890759"><ele>-1.0</ele><time>2026-04-06T14:26:06Z</time></trkpt><trkpt lat="43.67927898690298" lon="10.28716038985325"><ele>-1.0</ele><time>2026-04-06T14:26:08Z</time></trkpt><trkpt lat="43.67927914598996" lon="10.28726318250944"><ele>-1.0</ele><time>2026-04-06T14:26:09Z</time></trkpt><trkpt lat="43.67928248672465" lon="10.287363334709777"><ele>-0.9999999999999999</ele><time>2026-04-06T14:26:10Z</time></trkpt><trkpt lat="43.67927887413997" lon="10.287455776231045"><ele>-1.0</ele><time>2026-04-06T14:26:11Z</time></trkpt><trkpt lat="43.679279668158074" lon="10.287549710901564"><ele>-0.6666666666666666</ele><time>2026-04-06T14:26:12Z</time></trkpt><trkpt lat="43.6792793583382" lon="10.287658021924836"><ele>-0.3333333333333333</ele><time>2026-04-06T14:26:13Z</time></trkpt><trkpt lat="43.67928183174363" lon="10.287765311413132"><ele>0.0</ele><time>2026-04-06T14:26:14Z</time></trkpt><trkpt lat="43.67927809242567" lon="10.287859592681656"><ele>0.3333333333333333</ele><time>2026-04-06T14:26:15Z</time></trkpt><trkpt lat="43.67927933454304" lon="10.287967815969617"><ele>0.6666666666666666</ele><time>2026-04-06T14:26:16Z</time></trkpt><trkpt lat="43.679278626496554" lon="10.288086689176433"><ele>1.0</ele><time>2026-04-06T14:26:17Z</time></trkpt><trkpt lat="43.67927988382733" lon="10.288211689748527"><ele>1.0</ele><time>2026-04-06T14:26:18Z</time></trkpt><trkpt lat="43.679281044845844" lon="10.288342702527732"><ele>1.0</ele><time>2026-04-06T14:26:19Z</time></trkpt><trkpt lat="43.67928190168356" lon="10.288484130835055"><ele>1.0</ele><time>2026-04-06T14:26:20Z</time></trkpt><trkpt lat="43.679281189573864" lon="10.28862820838086"><ele>1.0</ele><time>2026-04-06T14:26:21Z</time></trkpt><trkpt lat="43.67928256173348" lon="10.2887647591795"><ele>1.0</ele><time>2026-04-06T14:26:22Z</time></trkpt><trkpt lat="43.679283332246264" lon="10.28890372778662"><ele>1.0</ele><time>2026-04-06T14:26:23Z</time></trkpt><trkpt lat="43.67928408730458" lon="10.289043371226613"><ele>1.0</ele><time>2026-04-06T14:26:24Z</time></trkpt><trkpt lat="43.67928333256234" lon="10.289185202204449"><ele>1.0</ele><time>2026-04-06T14:26:25Z</time></trkpt><trkpt lat="43.67928196221388" lon="10.28932711545646"><ele>1.0</ele><time>2026-04-06T14:26:26Z</time></trkpt><trkpt lat="43.679280053265806" lon="10.28947411747778"><ele>1.0</ele><time>2026-04-06T14:26:27Z</time></trkpt><trkpt lat="43.67927995381526" lon="10.289627069816394"><ele>0.75</ele><time>2026-04-06T14:26:28Z</time></trkpt><trkpt lat="43.6792761530266" lon="10.28978673405729"><ele>0.5</ele><time>2026-04-06T14:26:29Z</time></trkpt><trkpt lat="43.67927078139023" lon="10.289953289338902"><ele>0.25</ele><time>2026-04-06T14:26:30Z</time></trkpt><trkpt lat="43.67926481615627" lon="10.290119993016617"><ele>0.0</ele><time>2026-04-06T14:26:31Z</time></trkpt><trkpt lat="43.67925692959489" lon="10.290283257452028"><ele>0.0</ele><time>2026-04-06T14:26:32Z</time></trkpt><trkpt lat="43.67924619301381" lon="10.290451240588459"><ele>0.0</ele><time>2026-04-06T14:26:33Z</time></trkpt><trkpt lat="43.67923466265648" lon="10.290625138776333"><ele>0.0</ele><time>2026-04-06T14:26:34Z</time></trkpt><trkpt lat="43.6792217042226" lon="10.290794692362162"><ele>0.0</ele><time>2026-04-06T14:26:35Z</time></trkpt><trkpt lat="43.679208360831204" lon="10.290959794776077"><ele>0.25</ele><time>2026-04-06T14:26:36Z</time></trkpt><trkpt lat="43.67919921303823" lon="10.291120402684918"><ele>0.5</ele><time>2026-04-06T14:26:37Z</time></trkpt><trkpt lat="43.67918748014355" lon="10.291276184772777"><ele>0.75</ele><time>2026-04-06T14:26:38Z</time></trkpt><trkpt lat="43.679176114120615" lon="10.291435018044693"><ele>1.0</ele><time>2026-04-06T14:26:39Z</time></trkpt><trkpt lat="43.679163722091225" lon="10.291600319704497"><ele>1.0</ele><time>2026-04-06T14:26:40Z</time></trkpt><trkpt lat="43.67915032203402" lon="10.291779550542614"><ele>1.0</ele><time>2026-04-06T14:26:41Z</time></trkpt><trkpt lat="43.679137246124796" lon="10.29196780479906"><ele>1.0</ele><time>2026-04-06T14:26:42Z</time></trkpt><trkpt lat="43.67912021397382" lon="10.292163507788489"><ele>1.0</ele><time>2026-04-06T14:26:43Z</time></trkpt><trkpt lat="43.679102200854736" lon="10.292370522700711"><ele>1.3333333333333333</ele><time>2026-04-06T14:26:44Z</time></trkpt><trkpt lat="43.6790868442825" lon="10.292581717249574"><ele>1.6666666666666665</ele><time>2026-04-06T14:26:45Z</time></trkpt><trkpt lat="43.67907189391869" lon="10.292792753369076"><ele>2.0</ele><time>2026-04-06T14:26:46Z</time></trkpt><trkpt lat="43.67905717092353" lon="10.293009113239192"><ele>1.6666666666666665</ele><time>2026-04-06T14:26:47Z</time></trkpt><trkpt lat="43.67903890120539" lon="10.293226299055721"><ele>1.3333333333333333</ele><time>2026-04-06T14:26:48Z</time></trkpt><trkpt lat="43.679021654240834" lon="10.293442718411281"><ele>1.0</ele><time>2026-04-06T14:26:49Z</time></trkpt><trkpt lat="43.67900412875823" lon="10.293650629064121"><ele>1.0</ele><time>2026-04-06T14:26:50Z</time></trkpt><trkpt lat="43.67898910197982" lon="10.293852843581272"><ele>1.0</ele><time>2026-04-06T14:26:51Z</time></trkpt><trkpt lat="43.67897231182452" lon="10.29405281047615"><ele>1.0</ele><time>2026-04-06T14:26:52Z</time></trkpt><trkpt lat="43.67895632881965" lon="10.2942529879869"><ele>1.0</ele><time>2026-04-06T14:26:53Z</time></trkpt><trkpt lat="43.67894382934794" lon="10.294454939579895"><ele>1.0</ele><time>2026-04-06T14:26:54Z</time></trkpt><trkpt lat="43.67893047421438" lon="10.294657982186504"><ele>1.0</ele><time>2026-04-06T14:26:55Z</time></trkpt><trkpt lat="43.67891153647241" lon="10.294856544361558"><ele>1.0</ele><time>2026-04-06T14:26:56Z</time></trkpt><trkpt lat="43.67889660751065" lon="10.295052102080728"><ele>1.0</ele><time>2026-04-06T14:26:57Z</time></trkpt><trkpt lat="43.678884013115976" lon="10.295240207123767"><ele>1.0</ele><time>2026-04-06T14:26:58Z</time></trkpt><trkpt lat="43.67886933053402" lon="10.295415313458165"><ele>1.0</ele><time>2026-04-06T14:26:59Z</time></trkpt><trkpt lat="43.67885356018965" lon="10.295583030943863"><ele>1.0</ele><time>2026-04-06T14:27:00Z</time></trkpt><trkpt lat="43.6788402569312" lon="10.295742278569403"><ele>1.0</ele><time>2026-04-06T14:27:01Z</time></trkpt><trkpt lat="43.6788258343729" lon="10.29590320581658"><ele>0.5</ele><time>2026-04-06T14:27:02Z</time></trkpt><trkpt lat="43.6788110336005" lon="10.296065125502519"><ele>0.0</ele><time>2026-04-06T14:27:03Z</time></trkpt><trkpt lat="43.67879813121619" lon="10.296235297131924"><ele>-0.5</ele><time>2026-04-06T14:27:04Z</time></trkpt><trkpt lat="43.678784375614846" lon="10.296410676041239"><ele>-1.0</ele><time>2026-04-06T14:27:05Z</time></trkpt><trkpt lat="43.67876998027477" lon="10.29658341727824"><ele>-1.0</ele><time>2026-04-06T14:27:06Z</time></trkpt><trkpt lat="43.678749673623145" lon="10.296757514986023"><ele>-1.0</ele><time>2026-04-06T14:27:07Z</time></trkpt><trkpt lat="43.678727162566915" lon="10.296920356853377"><ele>-1.0</ele><time>2026-04-06T14:27:08Z</time></trkpt><trkpt lat="43.678706996666" lon="10.29708128933528"><ele>-1.0</ele><time>2026-04-06T14:27:09Z</time></trkpt><trkpt lat="43.67868360448299" lon="10.297242366754407"><ele>-1.0</ele><time>2026-04-06T14:27:10Z</time></trkpt><trkpt lat="43.67865684175828" lon="10.297406855968292"><ele>-1.0</ele><time>2026-04-06T14:27:11Z</time></trkpt><trkpt lat="43.67862970506281" lon="10.29757434249195"><ele>-1.0</ele><time>2026-04-06T14:27:12Z</time></trkpt><trkpt lat="43.67859632358401" lon="10.297739285415439"><ele>-1.0</ele><time>2026-04-06T14:27:13Z</time></trkpt><trkpt lat="43.67855956471547" lon="10.297892336320533"><ele>-1.0</ele><time>2026-04-06T14:27:14Z</time></trkpt><trkpt lat="43.67852768018307" lon="10.298048030558704"><ele>-1.0</ele><time>2026-04-06T14:27:15Z</time></trkpt><trkpt lat="43.6785018422596" lon="10.298207054031124"><ele>-1.0</ele><time>2026-04-06T14:27:16Z</time></trkpt><trkpt lat="43.67845798505372" lon="10.298353124283485"><ele>-1.0</ele><time>2026-04-06T14:27:17Z</time></trkpt><trkpt lat="43.678426840035" lon="10.298505925480782"><ele>-0.8</ele><time>2026-04-06T14:27:18Z</time></trkpt><trkpt lat="43.67839614544241" lon="10.298663009507488"><ele>-0.6000000000000001</ele><time>2026-04-06T14:27:19Z</time></trkpt><trkpt lat="43.6783644151341" lon="10.29880773256313"><ele>-0.4</ele><time>2026-04-06T14:27:20Z</time></trkpt><trkpt lat="43.67833514402984" lon="10.298952619700842"><ele>-0.2</ele><time>2026-04-06T14:27:21Z</time></trkpt><trkpt lat="43.67830543603626" lon="10.299098993164856"><ele>0.0</ele><time>2026-04-06T14:27:22Z</time></trkpt><trkpt lat="43.67827289103904" lon="10.299244853427327"><ele>0.0</ele><time>2026-04-06T14:27:23Z</time></trkpt><trkpt lat="43.67823882050353" lon="10.299392811651664"><ele>0.0</ele><time>2026-04-06T14:27:24Z</time></trkpt><trkpt lat="43.678203721465195" lon="10.299548681963035"><ele>0.0</ele><time>2026-04-06T14:27:25Z</time></trkpt><trkpt lat="43.67816992958232" lon="10.299712359448874"><ele>0.0</ele><time>2026-04-06T14:27:26Z</time></trkpt><trkpt lat="43.678136007353956" lon="10.299882516418434"><ele>-0.5</ele><time>2026-04-06T14:27:27Z</time></trkpt><trkpt lat="43.67810460284682" lon="10.300045715300307"><ele>-1.0</ele><time>2026-04-06T14:27:28Z</time></trkpt><trkpt lat="43.678062433957635" lon="10.30020103193614"><ele>-1.5</ele><time>2026-04-06T14:27:29Z</time></trkpt><trkpt lat="43.678027053900124" lon="10.300361259892517"><ele>-2.0</ele><time>2026-04-06T14:27:30Z</time></trkpt><trkpt lat="43.67799187633801" lon="10.300522276238402"><ele>-2.0</ele><time>2026-04-06T14:27:31Z</time></trkpt><trkpt lat="43.67795935098414" lon="10.300674698123512"><ele>-2.0</ele><time>2026-04-06T14:27:32Z</time></trkpt><trkpt lat="43.67792607388506" lon="10.300830642814239"><ele>-2.0</ele><time>2026-04-06T14:27:33Z</time></trkpt><trkpt lat="43.6778915925851" lon="10.300992230660079"><ele>-2.0</ele><time>2026-04-06T14:27:34Z</time></trkpt><trkpt lat="43.677856460261246" lon="10.301156869401927"><ele>-2.0</ele><time>2026-04-06T14:27:35Z</time></trkpt><trkpt lat="43.67782082796005" lon="10.301323851167513"><ele>-2.0</ele><time>2026-04-06T14:27:36Z</time></trkpt><trkpt lat="43.677784125776824" lon="10.301495846632198"><ele>-2.0</ele><time>2026-04-06T14:27:37Z</time></trkpt><trkpt lat="43.67774724475895" lon="10.301668680199647"><ele>-2.0</ele><time>2026-04-06T14:27:38Z</time></trkpt><trkpt lat="43.677710255912835" lon="10.301842019076425"><ele>-2.0</ele><time>2026-04-06T14:27:39Z</time></trkpt><trkpt lat="43.677674925553944" lon="10.302007585894355"><ele>-2.0</ele><time>2026-04-06T14:27:40Z</time></trkpt><trkpt lat="43.677639134918955" lon="10.302175309602067"><ele>-2.0</ele><time>2026-04-06T14:27:41Z</time></trkpt><trkpt lat="43.677625021283966" lon="10.302349928401497"><ele>-2.0</ele><time>2026-04-06T14:27:42Z</time></trkpt><trkpt lat="43.67759390624718" lon="10.302501239895854"><ele>-2.0</ele><time>2026-04-06T14:27:43Z</time></trkpt><trkpt lat="43.67756148064345" lon="10.302642022745836"><ele>-2.0</ele><time>2026-04-06T14:27:44Z</time></trkpt><trkpt lat="43.67753169098724" lon="10.30277769395081"><ele>-2.0</ele><time>2026-04-06T14:27:45Z</time></trkpt><trkpt lat="43.67748551217502" lon="10.302902888928344"><ele>-2.0</ele><time>2026-04-06T14:27:46Z</time></trkpt><trkpt lat="43.67745668705264" lon="10.30303946237553"><ele>-2.0</ele><time>2026-04-06T14:27:47Z</time></trkpt><trkpt lat="43.67742831963425" lon="10.303173867273536"><ele>-1.4000000000000001</ele><time>2026-04-06T14:27:48Z</time></trkpt><trkpt lat="43.67740075044919" lon="10.303304490127191"><ele>-0.8000000000000002</ele><time>2026-04-06T14:27:49Z</time></trkpt><trkpt lat="43.67737345723445" lon="10.303434440805573"><ele>-0.19999999999999996</ele><time>2026-04-06T14:27:50Z</time></trkpt><trkpt lat="43.67734828158331" lon="10.30355641582042"><ele>0.4</ele><time>2026-04-06T14:27:51Z</time></trkpt><trkpt lat="43.677320966202934" lon="10.303688757771232"><ele>1.0</ele><time>2026-04-06T14:27:52Z</time></trkpt><trkpt lat="43.67729164627808" lon="10.30383081168025"><ele>1.5</ele><time>2026-04-06T14:27:53Z</time></trkpt><trkpt lat="43.677260216037915" lon="10.303983089960916"><ele>2.0</ele><time>2026-04-06T14:27:54Z</time></trkpt><trkpt lat="43.67722773986669" lon="10.304139717963803"><ele>2.5</ele><time>2026-04-06T14:27:55Z</time></trkpt><trkpt lat="43.67719595503676" lon="10.304302456229403"><ele>3.0</ele><time>2026-04-06T14:27:56Z</time></trkpt><trkpt lat="43.67716774120782" lon="10.304458396379546"><ele>3.0</ele><time>2026-04-06T14:27:57Z</time></trkpt><trkpt lat="43.67714083847887" lon="10.304607089839436"><ele>3.0</ele><time>2026-04-06T14:27:58Z</time></trkpt><trkpt lat="43.677116629779505" lon="10.30474610165264"><ele>3.0</ele><time>2026-04-06T14:27:59Z</time></trkpt><trkpt lat="43.67709376882424" lon="10.30488111992085"><ele>3.0</ele><time>2026-04-06T14:28:00Z</time></trkpt><trkpt lat="43.677072164831785" lon="10.305016230610457"><ele>3.0</ele><time>2026-04-06T14:28:01Z</time></trkpt><trkpt lat="43.67704956472465" lon="10.30515757092585"><ele>2.8</ele><time>2026-04-06T14:28:02Z</time></trkpt><trkpt lat="43.677027366516036" lon="10.305309994379815"><ele>2.5999999999999996</ele><time>2026-04-06T14:28:03Z</time></trkpt><trkpt lat="43.677006177300235" lon="10.305456890369712"><ele>2.4000000000000004</ele><time>2026-04-06T14:28:04Z</time></trkpt><trkpt lat="43.676984869171186" lon="10.305604609732958"><ele>2.2</ele><time>2026-04-06T14:28:05Z</time></trkpt><trkpt lat="43.67696499338929" lon="10.305747147155301"><ele>2.0</ele><time>2026-04-06T14:28:06Z</time></trkpt><trkpt lat="43.67696195002624" lon="10.30588801003019"><ele>2.4000000000000004</ele><time>2026-04-06T14:28:07Z</time></trkpt><trkpt lat="43.6769279079083" lon="10.30601616621836"><ele>2.8000000000000003</ele><time>2026-04-06T14:28:08Z</time></trkpt><trkpt lat="43.67691010009047" lon="10.306147393785746"><ele>3.2</ele><time>2026-04-06T14:28:09Z</time></trkpt><trkpt lat="43.67689206653929" lon="10.306280283510393"><ele>3.6</ele><time>2026-04-06T14:28:10Z</time></trkpt><trkpt lat="43.6768744918359" lon="10.30641514986625"><ele>4.0</ele><time>2026-04-06T14:28:11Z</time></trkpt><trkpt lat="43.67685679283016" lon="10.306548932700604"><ele>4.0</ele><time>2026-04-06T14:28:12Z</time></trkpt><trkpt lat="43.676839269245306" lon="10.306682327847062"><ele>4.0</ele><time>2026-04-06T14:28:13Z</time></trkpt><trkpt lat="43.676822921075804" lon="10.30681745661923"><ele>4.0</ele><time>2026-04-06T14:28:14Z</time></trkpt><trkpt lat="43.676805388599156" lon="10.306967944506642"><ele>4.0</ele><time>2026-04-06T14:28:15Z</time></trkpt><trkpt lat="43.67678730617594" lon="10.307129888497732"><ele>4.0</ele><time>2026-04-06T14:28:16Z</time></trkpt><trkpt lat="43.67676864930408" lon="10.307306068242188"><ele>3.5</ele><time>2026-04-06T14:28:17Z</time></trkpt><trkpt lat="43.6767499687024" lon="10.307489127524558"><ele>3.0</ele><time>2026-04-06T14:28:18Z</time></trkpt><trkpt lat="43.67673225461053" lon="10.30767877352861"><ele>2.5</ele><time>2026-04-06T14:28:19Z</time></trkpt><trkpt lat="43.676715256539936" lon="10.307875414775339"><ele>2.0</ele><time>2026-04-06T14:28:20Z</time></trkpt><trkpt lat="43.67670033673358" lon="10.30807974262663"><ele>2.0</ele><time>2026-04-06T14:28:21Z</time></trkpt><trkpt lat="43.676687474136386" lon="10.308289100248006"><ele>2.0</ele><time>2026-04-06T14:28:22Z</time></trkpt><trkpt lat="43.67667537239186" lon="10.308505131973492"><ele>2.0</ele><time>2026-04-06T14:28:23Z</time></trkpt><trkpt lat="43.676663711609955" lon="10.30872830068204"><ele>2.0</ele><time>2026-04-06T14:28:24Z</time></trkpt><trkpt lat="43.67665290729906" lon="10.30895707961768"><ele>2.0</ele><time>2026-04-06T14:28:25Z</time></trkpt><trkpt lat="43.67664187268274" lon="10.309190735240534"><ele>2.0</ele><time>2026-04-06T14:28:26Z</time></trkpt><trkpt lat="43.6766306819932" lon="10.309427440381372"><ele>2.0</ele><time>2026-04-06T14:28:27Z</time></trkpt><trkpt lat="43.67663485038041" lon="10.309660682861173"><ele>2.0</ele><time>2026-04-06T14:28:28Z</time></trkpt><trkpt lat="43.676622491458005" lon="10.309880225343147"><ele>2.0</ele><time>2026-04-06T14:28:29Z</time></trkpt><trkpt lat="43.67660486262343" lon="10.310087679910042"><ele>1.3333333333333333</ele><time>2026-04-06T14:28:30Z</time></trkpt><trkpt lat="43.676585686129926" lon="10.310303978261585"><ele>0.6666666666666666</ele><time>2026-04-06T14:28:31Z</time></trkpt><trkpt lat="43.676562611547055" lon="10.31052454302321"><ele>0.0</ele><time>2026-04-06T14:28:32Z</time></trkpt><trkpt lat="43.67653860977141" lon="10.310736221439878"><ele>0.0</ele><time>2026-04-06T14:28:33Z</time></trkpt><trkpt lat="43.67651508945801" lon="10.310934816428919"><ele>0.0</ele><time>2026-04-06T14:28:34Z</time></trkpt><trkpt lat="43.67648949022463" lon="10.311122741459334"><ele>0.0</ele><time>2026-04-06T14:28:35Z</time></trkpt><trkpt lat="43.6764647232484" lon="10.31130013111136"><ele>0.0</ele><time>2026-04-06T14:28:36Z</time></trkpt><trkpt lat="43.676440679998954" lon="10.311469441765983"><ele>0.4</ele><time>2026-04-06T14:28:37Z</time></trkpt><trkpt lat="43.67641939748355" lon="10.311622540040462"><ele>0.8</ele><time>2026-04-06T14:28:38Z</time></trkpt><trkpt lat="43.676397319667664" lon="10.31176640694027"><ele>1.2000000000000002</ele><time>2026-04-06T14:28:39Z</time></trkpt><trkpt lat="43.67637754952788" lon="10.31190500541352"><ele>1.6</ele><time>2026-04-06T14:28:40Z</time></trkpt><trkpt lat="43.67635772440763" lon="10.312043640430277"><ele>2.0</ele><time>2026-04-06T14:28:41Z</time></trkpt><trkpt lat="43.67633914200128" lon="10.312192708115528"><ele>1.5</ele><time>2026-04-06T14:28:42Z</time></trkpt><trkpt lat="43.67631943237331" lon="10.312359292030644"><ele>1.0</ele><time>2026-04-06T14:28:43Z</time></trkpt><trkpt lat="43.67629068174363" lon="10.31254193531987"><ele>0.5</ele><time>2026-04-06T14:28:44Z</time></trkpt><trkpt lat="43.67626319487706" lon="10.312740607279466"><ele>0.0</ele><time>2026-04-06T14:28:45Z</time></trkpt><trkpt lat="43.67623250606961" lon="10.312959342456608"><ele>-0.6666666666666666</ele><time>2026-04-06T14:28:46Z</time></trkpt><trkpt lat="43.676184267161474" lon="10.313181799592671"><ele>-1.3333333333333333</ele><time>2026-04-06T14:28:47Z</time></trkpt><trkpt lat="43.67615054231959" lon="10.313416838959975"><ele>-2.0</ele><time>2026-04-06T14:28:48Z</time></trkpt><trkpt lat="43.67611607794015" lon="10.3136570324171"><ele>-1.0</ele><time>2026-04-06T14:28:49Z</time></trkpt><trkpt lat="43.67608091962205" lon="10.313902062154387"><ele>0.0</ele><time>2026-04-06T14:28:50Z</time></trkpt><trkpt lat="43.676044981065914" lon="10.314152529645876"><ele>1.0</ele><time>2026-04-06T14:28:51Z</time></trkpt><trkpt lat="43.67600884388921" lon="10.314402880777589"><ele>1.0</ele><time>2026-04-06T14:28:52Z</time></trkpt><trkpt lat="43.675974579799835" lon="10.314639754432427"><ele>1.0</ele><time>2026-04-06T14:28:53Z</time></trkpt><trkpt lat="43.675941761199425" lon="10.31486663509449"><ele>1.0</ele><time>2026-04-06T14:28:54Z</time></trkpt><trkpt lat="43.6759252186383" lon="10.315095875120155"><ele>1.0</ele><time>2026-04-06T14:28:55Z</time></trkpt><trkpt lat="43.675890174623596" lon="10.315317157742355"><ele>1.0</ele><time>2026-04-06T14:28:56Z</time></trkpt><trkpt lat="43.67585827150618" lon="10.315525166104868"><ele>1.0</ele><time>2026-04-06T14:28:57Z</time></trkpt><trkpt lat="43.675831641290024" lon="10.31571797439627"><ele>1.0</ele><time>2026-04-06T14:28:58Z</time></trkpt><trkpt lat="43.67580600374122" lon="10.31589672565167"><ele>1.0</ele><time>2026-04-06T14:28:59Z</time></trkpt><trkpt lat="43.67577454896401" lon="10.316064684519395"><ele>1.0</ele><time>2026-04-06T14:29:00Z</time></trkpt><trkpt lat="43.67574422979426" lon="10.316238863082726"><ele>1.0</ele><time>2026-04-06T14:29:01Z</time></trkpt><trkpt lat="43.675714564751374" lon="10.316414363448148"><ele>1.25</ele><time>2026-04-06T14:29:02Z</time></trkpt><trkpt lat="43.67568688277871" lon="10.316587914864174"><ele>1.5</ele><time>2026-04-06T14:29:03Z</time></trkpt><trkpt lat="43.67565662334356" lon="10.316760186335554"><ele>1.75</ele><time>2026-04-06T14:29:04Z</time></trkpt><trkpt lat="43.67562393042109" lon="10.316928836425479"><ele>2.0</ele><time>2026-04-06T14:29:05Z</time></trkpt><trkpt lat="43.675590392714504" lon="10.317093383286108"><ele>2.0</ele><time>2026-04-06T14:29:06Z</time></trkpt><trkpt lat="43.675556989774584" lon="10.317258309870535"><ele>2.0</ele><time>2026-04-06T14:29:07Z</time></trkpt><trkpt lat="43.67551978806327" lon="10.317421033565658"><ele>2.0</ele><time>2026-04-06T14:29:08Z</time></trkpt><trkpt lat="43.675489601015265" lon="10.317591518117839"><ele>2.0</ele><time>2026-04-06T14:29:09Z</time></trkpt><trkpt lat="43.67545905434839" lon="10.31776110165803"><ele>2.0</ele><time>2026-04-06T14:29:10Z</time></trkpt><trkpt lat="43.675423503589435" lon="10.317922736627446"><ele>2.0</ele><time>2026-04-06T14:29:11Z</time></trkpt><trkpt lat="43.675395252093104" lon="10.318087697903001"><ele>2.0</ele><time>2026-04-06T14:29:12Z</time></trkpt><trkpt lat="43.675368693219724" lon="10.318251773058291"><ele>2.0</ele><time>2026-04-06T14:29:13Z</time></trkpt><trkpt lat="43.67535851652042" lon="10.318418191521436"><ele>1.75</ele><time>2026-04-06T14:29:14Z</time></trkpt><trkpt lat="43.67536111782044" lon="10.31858843588641"><ele>1.5</ele><time>2026-04-06T14:29:15Z</time></trkpt><trkpt lat="43.675378918814786" lon="10.31875879767409"><ele>1.25</ele><time>2026-04-06T14:29:16Z</time></trkpt><trkpt lat="43.675408905244666" lon="10.318932140190798"><ele>1.0</ele><time>2026-04-06T14:29:17Z</time></trkpt><trkpt lat="43.675449944955865" lon="10.319104363043827"><ele>1.5</ele><time>2026-04-06T14:29:18Z</time></trkpt><trkpt lat="43.67549554789384" lon="10.31927957770297"><ele>2.0</ele><time>2026-04-06T14:29:19Z</time></trkpt><trkpt lat="43.67553946577867" lon="10.319460531778928"><ele>2.5</ele><time>2026-04-06T14:29:20Z</time></trkpt><trkpt lat="43.67558599244651" lon="10.319640874122804"><ele>3.0</ele><time>2026-04-06T14:29:21Z</time></trkpt><trkpt lat="43.67563244201195" lon="10.319822718362646"><ele>3.0</ele><time>2026-04-06T14:29:22Z</time></trkpt><trkpt lat="43.67567559564628" lon="10.320002132602484"><ele>3.0</ele><time>2026-04-06T14:29:23Z</time></trkpt><trkpt lat="43.675717739465846" lon="10.320172101575743"><ele>3.0</ele><time>2026-04-06T14:29:24Z</time></trkpt><trkpt lat="43.67574923469402" lon="10.32034028367743"><ele>3.0</ele><time>2026-04-06T14:29:25Z</time></trkpt><trkpt lat="43.67578890469525" lon="10.320508935221893"><ele>2.8</ele><time>2026-04-06T14:29:26Z</time></trkpt><trkpt lat="43.67583215841712" lon="10.320674395557818"><ele>2.5999999999999996</ele><time>2026-04-06T14:29:27Z</time></trkpt><trkpt lat="43.67587113261801" lon="10.320828253395081"><ele>2.4000000000000004</ele><time>2026-04-06T14:29:28Z</time></trkpt><trkpt lat="43.67590979221728" lon="10.320974746538633"><ele>2.2</ele><time>2026-04-06T14:29:29Z</time></trkpt><trkpt lat="43.675935237879976" lon="10.321093735507223"><ele>2.0</ele><time>2026-04-06T14:29:30Z</time></trkpt><trkpt lat="43.67596427204327" lon="10.321210335658046"><ele>2.0</ele><time>2026-04-06T14:29:31Z</time></trkpt><trkpt lat="43.67599355497194" lon="10.32133445178732"><ele>2.0</ele><time>2026-04-06T14:29:32Z</time></trkpt><trkpt lat="43.6760293230505" lon="10.321465761315842"><ele>2.0</ele><time>2026-04-06T14:29:33Z</time></trkpt><trkpt lat="43.67606531154913" lon="10.321592479434315"><ele>2.0</ele><time>2026-04-06T14:29:34Z</time></trkpt><trkpt lat="43.67610019540214" lon="10.321722277048941"><ele>2.0</ele><time>2026-04-06T14:29:35Z</time></trkpt><trkpt lat="43.67612377588546" lon="10.321854535725246"><ele>1.6</ele><time>2026-04-06T14:29:36Z</time></trkpt><trkpt lat="43.67615846045594" lon="10.321993425390344"><ele>1.2000000000000002</ele><time>2026-04-06T14:29:37Z</time></trkpt><trkpt lat="43.67619606622578" lon="10.32213473621547"><ele>0.8</ele><time>2026-04-06T14:29:38Z</time></trkpt><trkpt lat="43.676233652209405" lon="10.322279596655315"><ele>0.4</ele><time>2026-04-06T14:29:39Z</time></trkpt><trkpt lat="43.67627017651677" lon="10.322427922634985"><ele>0.0</ele><time>2026-04-06T14:29:40Z</time></trkpt><trkpt lat="43.67630725242155" lon="10.322581053097755"><ele>0.0</ele><time>2026-04-06T14:29:41Z</time></trkpt><trkpt lat="43.67634018330576" lon="10.32273502409875"><ele>0.0</ele><time>2026-04-06T14:29:42Z</time></trkpt><trkpt lat="43.67638431676698" lon="10.322894076828145"><ele>0.0</ele><time>2026-04-06T14:29:43Z</time></trkpt><trkpt lat="43.67642174871095" lon="10.323068633278346"><ele>0.0</ele><time>2026-04-06T14:29:44Z</time></trkpt><trkpt lat="43.676467291099485" lon="10.323234754163654"><ele>0.25</ele><time>2026-04-06T14:29:45Z</time></trkpt><trkpt lat="43.67650977791145" lon="10.323403739058858"><ele>0.5</ele><time>2026-04-06T14:29:46Z</time></trkpt><trkpt lat="43.67655755666503" lon="10.323576315571305"><ele>0.75</ele><time>2026-04-06T14:29:47Z</time></trkpt><trkpt lat="43.67660873537567" lon="10.323742802215435"><ele>1.0</ele><time>2026-04-06T14:29:48Z</time></trkpt><trkpt lat="43.676663139347454" lon="10.323910805399287"><ele>1.5</ele><time>2026-04-06T14:29:49Z</time></trkpt><trkpt lat="43.676723149234675" lon="10.324077539949947"><ele>2.0</ele><time>2026-04-06T14:29:50Z</time></trkpt><trkpt lat="43.676779589158635" lon="10.324240866256217"><ele>2.5</ele><time>2026-04-06T14:29:51Z</time></trkpt><trkpt lat="43.67683451207608" lon="10.324395690771853"><ele>3.0</ele><time>2026-04-06T14:29:52Z</time></trkpt><trkpt lat="43.67688082712557" lon="10.324536175601441"><ele>3.0</ele><time>2026-04-06T14:29:53Z</time></trkpt><trkpt lat="43.67693194655187" lon="10.324662535244794"><ele>3.0</ele><time>2026-04-06T14:29:54Z</time></trkpt><trkpt lat="43.67698168786724" lon="10.324781556305815"><ele>3.0</ele><time>2026-04-06T14:29:55Z</time></trkpt><trkpt lat="43.67702924623583" lon="10.324892725009944"><ele>3.0</ele><time>2026-04-06T14:29:56Z</time></trkpt><trkpt lat="43.6770761381668" lon="10.324999746023964"><ele>3.0</ele><time>2026-04-06T14:29:57Z</time></trkpt><trkpt lat="43.677131271339086" lon="10.325111935770993"><ele>3.2</ele><time>2026-04-06T14:29:58Z</time></trkpt><trkpt lat="43.677188116874625" lon="10.325228124594885"><ele>3.4</ele><time>2026-04-06T14:29:59Z</time></trkpt><trkpt lat="43.677241607542314" lon="10.325337113525217"><ele>3.6000000000000005</ele><time>2026-04-06T14:30:00Z</time></trkpt><trkpt lat="43.67729322834598" lon="10.325448652344813"><ele>3.8000000000000003</ele><time>2026-04-06T14:30:01Z</time></trkpt><trkpt lat="43.677344527677555" lon="10.325561233038842"><ele>4.0</ele><time>2026-04-06T14:30:02Z</time></trkpt><trkpt lat="43.67739852099647" lon="10.325675204942051"><ele>4.2</ele><time>2026-04-06T14:30:03Z</time></trkpt><trkpt lat="43.677447040538354" lon="10.325782692170879"><ele>4.4</ele><time>2026-04-06T14:30:04Z</time></trkpt><trkpt lat="43.677494399995325" lon="10.32588599720359"><ele>4.6</ele><time>2026-04-06T14:30:05Z</time></trkpt><trkpt lat="43.67754395880852" lon="10.325994133912088"><ele>4.8</ele><time>2026-04-06T14:30:06Z</time></trkpt><trkpt lat="43.677592266209" lon="10.326106920310853"><ele>5.0</ele><time>2026-04-06T14:30:07Z</time></trkpt><trkpt lat="43.67765143108711" lon="10.326217549367245"><ele>5.0</ele><time>2026-04-06T14:30:08Z</time></trkpt><trkpt lat="43.67768593154316" lon="10.326326217481858"><ele>5.0</ele><time>2026-04-06T14:30:09Z</time></trkpt><trkpt lat="43.67774079987804" lon="10.326431130662343"><ele>5.0</ele><time>2026-04-06T14:30:10Z</time></trkpt><trkpt lat="43.67780396832515" lon="10.326556660407762"><ele>5.0</ele><time>2026-04-06T14:30:11Z</time></trkpt><trkpt lat="43.67786454606147" lon="10.326700450769556"><ele>5.0</ele><time>2026-04-06T14:30:12Z</time></trkpt><trkpt lat="43.67794539030456" lon="10.32686259608788"><ele>4.333333333333334</ele><time>2026-04-06T14:30:13Z</time></trkpt><trkpt lat="43.67801618532037" lon="10.327060215895967"><ele>3.666666666666667</ele><time>2026-04-06T14:30:14Z</time></trkpt><trkpt lat="43.678122520747245" lon="10.327247318005323"><ele>3.0</ele><time>2026-04-06T14:30:15Z</time></trkpt><trkpt lat="43.678206525954295" lon="10.327437013433256"><ele>2.75</ele><time>2026-04-06T14:30:16Z</time></trkpt><trkpt lat="43.67828516736883" lon="10.327616387447993"><ele>2.5</ele><time>2026-04-06T14:30:17Z</time></trkpt><trkpt lat="43.678357636910974" lon="10.32778345875865"><ele>2.25</ele><time>2026-04-06T14:30:18Z</time></trkpt><trkpt lat="43.67842534412937" lon="10.327933258743064"><ele>2.0</ele><time>2026-04-06T14:30:19Z</time></trkpt><trkpt lat="43.678488383097495" lon="10.328077283832101"><ele>2.0</ele><time>2026-04-06T14:30:20Z</time></trkpt><trkpt lat="43.67854736230916" lon="10.328212507454026"><ele>2.0</ele><time>2026-04-06T14:30:21Z</time></trkpt><trkpt lat="43.67860967273981" lon="10.328347549348607"><ele>2.0</ele><time>2026-04-06T14:30:22Z</time></trkpt><trkpt lat="43.678674158325144" lon="10.328486796543517"><ele>2.0</ele><time>2026-04-06T14:30:23Z</time></trkpt><trkpt lat="43.678737374333274" lon="10.328621363044622"><ele>2.0</ele><time>2026-04-06T14:30:24Z</time></trkpt><trkpt lat="43.67879736571873" lon="10.328747968472161"><ele>2.0</ele><time>2026-04-06T14:30:25Z</time></trkpt><trkpt lat="43.67886213173185" lon="10.328883021969657"><ele>2.0</ele><time>2026-04-06T14:30:26Z</time></trkpt><trkpt lat="43.67893831251752" lon="10.329039532776548"><ele>2.0</ele><time>2026-04-06T14:30:27Z</time></trkpt><trkpt lat="43.679008567203034" lon="10.32922128489799"><ele>2.25</ele><time>2026-04-06T14:30:28Z</time></trkpt><trkpt lat="43.67909413858748" lon="10.329407538823231"><ele>2.5</ele><time>2026-04-06T14:30:29Z</time></trkpt><trkpt lat="43.679186629900435" lon="10.329569819049558"><ele>2.75</ele><time>2026-04-06T14:30:30Z</time></trkpt><trkpt lat="43.67924988534437" lon="10.329730488315796"><ele>3.0</ele><time>2026-04-06T14:30:31Z</time></trkpt><trkpt lat="43.679316353659885" lon="10.329870513171638"><ele>3.0</ele><time>2026-04-06T14:30:32Z</time></trkpt><trkpt lat="43.67936820485296" lon="10.329992511151394"><ele>3.0</ele><time>2026-04-06T14:30:33Z</time></trkpt><trkpt lat="43.67942007530079" lon="10.330116356442904"><ele>3.0</ele><time>2026-04-06T14:30:34Z</time></trkpt><trkpt lat="43.67948181103602" lon="10.33024899652481"><ele>3.0</ele><time>2026-04-06T14:30:35Z</time></trkpt><trkpt lat="43.679551927547706" lon="10.330393326028059"><ele>3.0</ele><time>2026-04-06T14:30:36Z</time></trkpt><trkpt lat="43.679627105765555" lon="10.330553338898689"><ele>3.25</ele><time>2026-04-06T14:30:37Z</time></trkpt><trkpt lat="43.67970207744451" lon="10.330715288033446"><ele>3.5</ele><time>2026-04-06T14:30:38Z</time></trkpt><trkpt lat="43.67978420122132" lon="10.330889113067112"><ele>3.75</ele><time>2026-04-06T14:30:39Z</time></trkpt><trkpt lat="43.6798693755112" lon="10.33107150537368"><ele>4.0</ele><time>2026-04-06T14:30:40Z</time></trkpt><trkpt lat="43.67995893975842" lon="10.331261780137915"><ele>3.6666666666666665</ele><time>2026-04-06T14:30:41Z</time></trkpt><trkpt lat="43.68005129645681" lon="10.331458055666106"><ele>3.333333333333333</ele><time>2026-04-06T14:30:42Z</time></trkpt><trkpt lat="43.680124901985245" lon="10.331657396439564"><ele>3.0</ele><time>2026-04-06T14:30:43Z</time></trkpt><trkpt lat="43.68021540422851" lon="10.331813819103997"><ele>3.0</ele><time>2026-04-06T14:30:44Z</time></trkpt><trkpt lat="43.68027300526344" lon="10.331982167227666"><ele>3.0</ele><time>2026-04-06T14:30:45Z</time></trkpt><trkpt lat="43.6803390889" lon="10.332127079826723"><ele>3.0</ele><time>2026-04-06T14:30:46Z</time></trkpt><trkpt lat="43.68040681098458" lon="10.33225538487418"><ele>3.0</ele><time>2026-04-06T14:30:47Z</time></trkpt><trkpt lat="43.68047064527948" lon="10.332400446912171"><ele>3.0</ele><time>2026-04-06T14:30:48Z</time></trkpt><trkpt lat="43.68053748487025" lon="10.3325428834226"><ele>3.0</ele><time>2026-04-06T14:30:49Z</time></trkpt><trkpt lat="43.68060913252815" lon="10.332692413715538"><ele>3.0</ele><time>2026-04-06T14:30:50Z</time></trkpt><trkpt lat="43.680682106937915" lon="10.332846556067679"><ele>3.0</ele><time>2026-04-06T14:30:51Z</time></trkpt><trkpt lat="43.6807542834549" lon="10.3329978363588"><ele>3.0</ele><time>2026-04-06T14:30:52Z</time></trkpt><trkpt lat="43.68082579284044" lon="10.333140840492208"><ele>3.0</ele><time>2026-04-06T14:30:53Z</time></trkpt><trkpt lat="43.680894747863796" lon="10.33328284383462"><ele>3.0</ele><time>2026-04-06T14:30:54Z</time></trkpt><trkpt lat="43.68096445805538" lon="10.333422791436982"><ele>3.0</ele><time>2026-04-06T14:30:55Z</time></trkpt><trkpt lat="43.68102732756979" lon="10.333563040117483"><ele>3.0</ele><time>2026-04-06T14:30:56Z</time></trkpt><trkpt lat="43.68109861396723" lon="10.333702915649432"><ele>3.0</ele><time>2026-04-06T14:30:57Z</time></trkpt><trkpt lat="43.681169508889916" lon="10.333834362198585"><ele>3.0</ele><time>2026-04-06T14:30:58Z</time></trkpt><trkpt lat="43.68124161955997" lon="10.333966652304879"><ele>3.0</ele><time>2026-04-06T14:30:59Z</time></trkpt><trkpt lat="43.68131713227249" lon="10.334102464088692"><ele>3.0</ele><time>2026-04-06T14:31:00Z</time></trkpt><trkpt lat="43.68139045525409" lon="10.33423222642561"><ele>3.0</ele><time>2026-04-06T14:31:01Z</time></trkpt><trkpt lat="43.681466465261586" lon="10.334365230558559"><ele>3.0</ele><time>2026-04-06T14:31:02Z</time></trkpt><trkpt lat="43.68154510621246" lon="10.334498292322778"><ele>3.0</ele><time>2026-04-06T14:31:03Z</time></trkpt><trkpt lat="43.68162576572813" lon="10.334634203136858"><ele>3.0</ele><time>2026-04-06T14:31:04Z</time></trkpt><trkpt lat="43.68171367265166" lon="10.334792227599864"><ele>3.0</ele><time>2026-04-06T14:31:05Z</time></trkpt><trkpt lat="43.68181684356269" lon="10.334963022447335"><ele>3.0</ele><time>2026-04-06T14:31:06Z</time></trkpt><trkpt lat="43.6819123484292" lon="10.335142865860416"><ele>3.0</ele><time>2026-04-06T14:31:07Z</time></trkpt><trkpt lat="43.682013586938425" lon="10.335323298678263"><ele>3.0</ele><time>2026-04-06T14:31:08Z</time></trkpt><trkpt lat="43.68211501879503" lon="10.335502769941263"><ele>3.0</ele><time>2026-04-06T14:31:09Z</time></trkpt><trkpt lat="43.68221681082475" lon="10.335679046311968"><ele>3.0</ele><time>2026-04-06T14:31:10Z</time></trkpt><trkpt lat="43.68233116834138" lon="10.335869507006167"><ele>3.0</ele><time>2026-04-06T14:31:11Z</time></trkpt><trkpt lat="43.682458596408416" lon="10.336074898072726"><ele>3.0</ele><time>2026-04-06T14:31:12Z</time></trkpt><trkpt lat="43.682588169053766" lon="10.336291346487068"><ele>3.333333333333333</ele><time>2026-04-06T14:31:13Z</time></trkpt><trkpt lat="43.682716435512546" lon="10.33651015159499"><ele>3.6666666666666665</ele><time>2026-04-06T14:31:14Z</time></trkpt><trkpt lat="43.68282924107581" lon="10.336709793048596"><ele>4.0</ele><time>2026-04-06T14:31:15Z</time></trkpt><trkpt lat="43.682935896215994" lon="10.336901869123677"><ele>4.0</ele><time>2026-04-06T14:31:16Z</time></trkpt><trkpt lat="43.683037130228314" lon="10.337082032247432"><ele>4.0</ele><time>2026-04-06T14:31:17Z</time></trkpt><trkpt lat="43.68313657040073" lon="10.3372472192254"><ele>4.0</ele><time>2026-04-06T14:31:18Z</time></trkpt><trkpt lat="43.683228537462924" lon="10.337411085174331"><ele>3.5</ele><time>2026-04-06T14:31:19Z</time></trkpt><trkpt lat="43.68331925216759" lon="10.337566015388436"><ele>3.0</ele><time>2026-04-06T14:31:20Z</time></trkpt><trkpt lat="43.683408688566125" lon="10.337718277940462"><ele>2.5</ele><time>2026-04-06T14:31:21Z</time></trkpt><trkpt lat="43.68349500151862" lon="10.337867407832173"><ele>2.0</ele><time>2026-04-06T14:31:22Z</time></trkpt><trkpt lat="43.683572019976495" lon="10.338005191841113"><ele>2.0</ele><time>2026-04-06T14:31:23Z</time></trkpt><trkpt lat="43.68364888026639" lon="10.338138792619887"><ele>2.0</ele><time>2026-04-06T14:31:24Z</time></trkpt><trkpt lat="43.68373218868731" lon="10.338280700567172"><ele>2.0</ele><time>2026-04-06T14:31:25Z</time></trkpt><trkpt lat="43.68381672103826" lon="10.338426445160136"><ele>2.0</ele><time>2026-04-06T14:31:26Z</time></trkpt><trkpt lat="43.68390186872983" lon="10.338570058035105"><ele>2.0</ele><time>2026-04-06T14:31:27Z</time></trkpt><trkpt lat="43.68398209696706" lon="10.338705387974986"><ele>2.0</ele><time>2026-04-06T14:31:28Z</time></trkpt><trkpt lat="43.684057453710054" lon="10.338834585036176"><ele>2.0</ele><time>2026-04-06T14:31:29Z</time></trkpt><trkpt lat="43.68413908880302" lon="10.338975454627729"><ele>2.0</ele><time>2026-04-06T14:31:30Z</time></trkpt><trkpt lat="43.684224992847305" lon="10.339119677674724"><ele>2.0</ele><time>2026-04-06T14:31:31Z</time></trkpt><trkpt lat="43.684301648179854" lon="10.339264431114948"><ele>2.0</ele><time>2026-04-06T14:31:32Z</time></trkpt><trkpt lat="43.68438249561377" lon="10.33940173967048"><ele>2.0</ele><time>2026-04-06T14:31:33Z</time></trkpt><trkpt lat="43.68447859317348" lon="10.339558958441307"><ele>2.0</ele><time>2026-04-06T14:31:34Z</time></trkpt><trkpt lat="43.684572868836355" lon="10.339750196475638"><ele>2.6666666666666665</ele><time>2026-04-06T14:31:35Z</time></trkpt><trkpt lat="43.68468454353821" lon="10.339943562203876"><ele>3.333333333333333</ele><time>2026-04-06T14:31:36Z</time></trkpt><trkpt lat="43.68479508116604" lon="10.340126154807306"><ele>4.0</ele><time>2026-04-06T14:31:37Z</time></trkpt><trkpt lat="43.68490274594506" lon="10.340316369934822"><ele>4.0</ele><time>2026-04-06T14:31:38Z</time></trkpt><trkpt lat="43.68501062396385" lon="10.340500708164617"><ele>4.0</ele><time>2026-04-06T14:31:39Z</time></trkpt><trkpt lat="43.685108912943804" lon="10.340673536053234"><ele>4.0</ele><time>2026-04-06T14:31:40Z</time></trkpt><trkpt lat="43.68520423045868" lon="10.34083556724847"><ele>4.0</ele><time>2026-04-06T14:31:41Z</time></trkpt><trkpt lat="43.68529972830182" lon="10.34099771128439"><ele>4.0</ele><time>2026-04-06T14:31:42Z</time></trkpt><trkpt lat="43.685392344563304" lon="10.341155639456247"><ele>4.0</ele><time>2026-04-06T14:31:43Z</time></trkpt><trkpt lat="43.68547372935203" lon="10.341299326158527"><ele>4.0</ele><time>2026-04-06T14:31:44Z</time></trkpt><trkpt lat="43.685550341103934" lon="10.341435233892785"><ele>4.0</ele><time>2026-04-06T14:31:45Z</time></trkpt><trkpt lat="43.68562416342337" lon="10.341563894976124"><ele>4.0</ele><time>2026-04-06T14:31:46Z</time></trkpt><trkpt lat="43.68569476432552" lon="10.341686260285032"><ele>4.0</ele><time>2026-04-06T14:31:47Z</time></trkpt><trkpt lat="43.68576118857174" lon="10.34179779061453"><ele>4.0</ele><time>2026-04-06T14:31:48Z</time></trkpt><trkpt lat="43.68583139750275" lon="10.341914495731048"><ele>4.0</ele><time>2026-04-06T14:31:49Z</time></trkpt><trkpt lat="43.6859004060564" lon="10.34203807904354"><ele>4.0</ele><time>2026-04-06T14:31:50Z</time></trkpt><trkpt lat="43.6859682989239" lon="10.34215857037135"><ele>4.0</ele><time>2026-04-06T14:31:51Z</time></trkpt><trkpt lat="43.6860349308776" lon="10.342284165548165"><ele>4.0</ele><time>2026-04-06T14:31:52Z</time></trkpt><trkpt lat="43.686093462411115" lon="10.342409848692729"><ele>4.0</ele><time>2026-04-06T14:31:53Z</time></trkpt><trkpt lat="43.68614634968597" lon="10.342543505843972"><ele>4.0</ele><time>2026-04-06T14:31:54Z</time></trkpt><trkpt lat="43.68619264901963" lon="10.342666708727696"><ele>4.333333333333333</ele><time>2026-04-06T14:31:55Z</time></trkpt><trkpt lat="43.68622823439922" lon="10.34277496303142"><ele>4.666666666666666</ele><time>2026-04-06T14:31:56Z</time></trkpt><trkpt lat="43.68625702062067" lon="10.342876970254533"><ele>5.0</ele><time>2026-04-06T14:31:57Z</time></trkpt><trkpt lat="43.686265769717316" lon="10.342986610775661"><ele>5.333333333333333</ele><time>2026-04-06T14:31:58Z</time></trkpt><trkpt lat="43.68628629654386" lon="10.34309166141418"><ele>5.666666666666667</ele><time>2026-04-06T14:31:59Z</time></trkpt><trkpt lat="43.6863021303256" lon="10.343189099387379"><ele>6.0</ele><time>2026-04-06T14:32:00Z</time></trkpt><trkpt lat="43.68632660827538" lon="10.34327747064725"><ele>6.0</ele><time>2026-04-06T14:32:01Z</time></trkpt><trkpt lat="43.68631138370531" lon="10.343376537392539"><ele>6.0</ele><time>2026-04-06T14:32:02Z</time></trkpt><trkpt lat="43.686262087058665" lon="10.343469167480418"><ele>6.0</ele><time>2026-04-06T14:32:03Z</time></trkpt><trkpt lat="43.686211818884374" lon="10.343572350548813"><ele>6.0</ele><time>2026-04-06T14:32:04Z</time></trkpt><trkpt lat="43.68618534142739" lon="10.343668608722533"><ele>6.0</ele><time>2026-04-06T14:32:05Z</time></trkpt><trkpt lat="43.68618256041272" lon="10.34377414984039"><ele>6.0</ele><time>2026-04-06T14:32:06Z</time></trkpt><trkpt lat="43.686207270010215" lon="10.343873263231263"><ele>5.999999999999999</ele><time>2026-04-06T14:32:07Z</time></trkpt><trkpt lat="43.68627020672286" lon="10.343939082920798"><ele>6.0</ele><time>2026-04-06T14:32:08Z</time></trkpt><trkpt lat="43.68632524973953" lon="10.343994916683355"><ele>6.0</ele><time>2026-04-06T14:32:09Z</time></trkpt><trkpt lat="43.68639456185887" lon="10.34402562675954"><ele>6.0</ele><time>2026-04-06T14:32:10Z</time></trkpt><trkpt lat="43.68646607212658" lon="10.344023643259447"><ele>6.0</ele><time>2026-04-06T14:32:11Z</time></trkpt><trkpt lat="43.68653458309909" lon="10.343991872408125"><ele>5.999999999999999</ele><time>2026-04-06T14:32:12Z</time></trkpt><trkpt lat="43.68658857593578" lon="10.34391099515375"><ele>6.0</ele><time>2026-04-06T14:32:13Z</time></trkpt><trkpt lat="43.68664223413077" lon="10.343837785819137"><ele>5.25</ele><time>2026-04-06T14:32:14Z</time></trkpt><trkpt lat="43.6867898670587" lon="10.343920619002878"><ele>4.5</ele><time>2026-04-06T14:32:15Z</time></trkpt><trkpt lat="43.686885067703216" lon="10.343956443490292"><ele>3.75</ele><time>2026-04-06T14:32:16Z</time></trkpt><trkpt lat="43.68698421331963" lon="10.344015572056383"><ele>3.0</ele><time>2026-04-06T14:32:17Z</time></trkpt><trkpt lat="43.6870961360835" lon="10.34408800558989"><ele>3.0</ele><time>2026-04-06T14:32:18Z</time></trkpt><trkpt lat="43.6872078482926" lon="10.34418133811184"><ele>3.0</ele><time>2026-04-06T14:32:19Z</time></trkpt><trkpt lat="43.68731892289594" lon="10.344294335800562"><ele>3.0</ele><time>2026-04-06T14:32:20Z</time></trkpt><trkpt lat="43.68742320302776" lon="10.344417044494927"><ele>3.0</ele><time>2026-04-06T14:32:21Z</time></trkpt><trkpt lat="43.68752646012172" lon="10.344553177383137"><ele>3.0</ele><time>2026-04-06T14:32:22Z</time></trkpt><trkpt lat="43.687629876154105" lon="10.344698490153862"><ele>3.0</ele><time>2026-04-06T14:32:23Z</time></trkpt><trkpt lat="43.68774044439896" lon="10.344846583766588"><ele>3.0</ele><time>2026-04-06T14:32:24Z</time></trkpt><trkpt lat="43.687853533665205" lon="10.345000767325628"><ele>3.333333333333333</ele><time>2026-04-06T14:32:25Z</time></trkpt><trkpt lat="43.68797072886584" lon="10.345159018749456"><ele>3.6666666666666665</ele><time>2026-04-06T14:32:26Z</time></trkpt><trkpt lat="43.68809226028875" lon="10.3453230375985"><ele>4.0</ele><time>2026-04-06T14:32:27Z</time></trkpt><trkpt lat="43.6882160484945" lon="10.34548828860325"><ele>3.333333333333333</ele><time>2026-04-06T14:32:28Z</time></trkpt><trkpt lat="43.68833739242635" lon="10.345656683082893"><ele>2.6666666666666665</ele><time>2026-04-06T14:32:29Z</time></trkpt><trkpt lat="43.68845646400815" lon="10.345816169336366"><ele>2.0</ele><time>2026-04-06T14:32:30Z</time></trkpt><trkpt lat="43.688565084705665" lon="10.34597091074259"><ele>2.25</ele><time>2026-04-06T14:32:31Z</time></trkpt><trkpt lat="43.68867191471851" lon="10.346117064399687"><ele>2.5</ele><time>2026-04-06T14:32:32Z</time></trkpt><trkpt lat="43.688775838832306" lon="10.346253102308761"><ele>2.75</ele><time>2026-04-06T14:32:33Z</time></trkpt><trkpt lat="43.688877084286815" lon="10.346387255210233"><ele>3.0</ele><time>2026-04-06T14:32:34Z</time></trkpt><trkpt lat="43.68897852602713" lon="10.346524396395827"><ele>2.5</ele><time>2026-04-06T14:32:35Z</time></trkpt><trkpt lat="43.68907898875653" lon="10.346662881718686"><ele>2.0</ele><time>2026-04-06T14:32:36Z</time></trkpt><trkpt lat="43.689184167473876" lon="10.346809443181138"><ele>1.5</ele><time>2026-04-06T14:32:37Z</time></trkpt><trkpt lat="43.689291710723175" lon="10.346953209361027"><ele>1.0</ele><time>2026-04-06T14:32:38Z</time></trkpt><trkpt lat="43.689393718906956" lon="10.347099196138794"><ele>1.25</ele><time>2026-04-06T14:32:39Z</time></trkpt><trkpt lat="43.68949606387491" lon="10.347245656897451"><ele>1.5</ele><time>2026-04-06T14:32:40Z</time></trkpt><trkpt lat="43.68960538902769" lon="10.347386553523652"><ele>1.75</ele><time>2026-04-06T14:32:41Z</time></trkpt><trkpt lat="43.68971509333693" lon="10.347529423578118"><ele>2.0</ele><time>2026-04-06T14:32:42Z</time></trkpt><trkpt lat="43.68982314108344" lon="10.347675070499848"><ele>2.0</ele><time>2026-04-06T14:32:43Z</time></trkpt><trkpt lat="43.68992026191007" lon="10.347838906436843"><ele>2.0</ele><time>2026-04-06T14:32:44Z</time></trkpt><trkpt lat="43.6900272431875" lon="10.347986865613295"><ele>2.0</ele><time>2026-04-06T14:32:45Z</time></trkpt><trkpt lat="43.69013533518409" lon="10.34813636089485"><ele>2.333333333333333</ele><time>2026-04-06T14:32:46Z</time></trkpt><trkpt lat="43.690244686579106" lon="10.348286761149462"><ele>2.6666666666666665</ele><time>2026-04-06T14:32:47Z</time></trkpt><trkpt lat="43.69035581717253" lon="10.348439135261492"><ele>3.0</ele><time>2026-04-06T14:32:48Z</time></trkpt><trkpt lat="43.69046624256601" lon="10.34859054244603"><ele>3.333333333333333</ele><time>2026-04-06T14:32:49Z</time></trkpt><trkpt lat="43.69057408307233" lon="10.348738405467216"><ele>3.6666666666666665</ele><time>2026-04-06T14:32:50Z</time></trkpt><trkpt lat="43.69068482952293" lon="10.348890252797144"><ele>4.0</ele><time>2026-04-06T14:32:51Z</time></trkpt><trkpt lat="43.69078985923358" lon="10.349034261873966"><ele>4.0</ele><time>2026-04-06T14:32:52Z</time></trkpt><trkpt lat="43.69089475447108" lon="10.349178024408928"><ele>4.0</ele><time>2026-04-06T14:32:53Z</time></trkpt><trkpt lat="43.69100065952032" lon="10.349323012105136"><ele>4.0</ele><time>2026-04-06T14:32:54Z</time></trkpt><trkpt lat="43.6911070055512" lon="10.349468603550495"><ele>4.0</ele><time>2026-04-06T14:32:55Z</time></trkpt><trkpt lat="43.69121411810998" lon="10.34961524439203"><ele>4.0</ele><time>2026-04-06T14:32:56Z</time></trkpt><trkpt lat="43.69132381280237" lon="10.349764210673108"><ele>4.0</ele><time>2026-04-06T14:32:57Z</time></trkpt><trkpt lat="43.691434818283405" lon="10.349916031286318"><ele>4.0</ele><time>2026-04-06T14:32:58Z</time></trkpt><trkpt lat="43.69154809194966" lon="10.350072690946105"><ele>4.0</ele><time>2026-04-06T14:32:59Z</time></trkpt><trkpt lat="43.691660558276055" lon="10.35022823410214"><ele>4.0</ele><time>2026-04-06T14:33:00Z</time></trkpt><trkpt lat="43.69177396810687" lon="10.350384275419456"><ele>4.0</ele><time>2026-04-06T14:33:01Z</time></trkpt><trkpt lat="43.6918858094832" lon="10.350539992204334"><ele>3.6666666666666665</ele><time>2026-04-06T14:33:02Z</time></trkpt><trkpt lat="43.691996197765285" lon="10.350697847258305"><ele>3.333333333333333</ele><time>2026-04-06T14:33:03Z</time></trkpt><trkpt lat="43.69210133800856" lon="10.350852713723699"><ele>3.0</ele><time>2026-04-06T14:33:04Z</time></trkpt><trkpt lat="43.69220062400379" lon="10.351006612877846"><ele>3.0</ele><time>2026-04-06T14:33:05Z</time></trkpt><trkpt lat="43.69229512625509" lon="10.351155562510403"><ele>3.0</ele><time>2026-04-06T14:33:06Z</time></trkpt><trkpt lat="43.69238503680115" lon="10.351301980495721"><ele>3.0</ele><time>2026-04-06T14:33:07Z</time></trkpt><trkpt lat="43.6924790010644" lon="10.351462049462912"><ele>3.0</ele><time>2026-04-06T14:33:08Z</time></trkpt><trkpt lat="43.69257712222578" lon="10.35163014927909"><ele>3.0</ele><time>2026-04-06T14:33:09Z</time></trkpt><trkpt lat="43.692667576103545" lon="10.351790071240593"><ele>3.0</ele><time>2026-04-06T14:33:10Z</time></trkpt><trkpt lat="43.69275570358793" lon="10.351951362431134"><ele>3.0</ele><time>2026-04-06T14:33:11Z</time></trkpt><trkpt lat="43.69284589701975" lon="10.352121357200776"><ele>3.0</ele><time>2026-04-06T14:33:12Z</time></trkpt><trkpt lat="43.692931590586326" lon="10.35228262159384"><ele>2.25</ele><time>2026-04-06T14:33:13Z</time></trkpt><trkpt lat="43.6930123466336" lon="10.352434593968097"><ele>1.5</ele><time>2026-04-06T14:33:14Z</time></trkpt><trkpt lat="43.69308846769901" lon="10.352580211754486"><ele>0.75</ele><time>2026-04-06T14:33:15Z</time></trkpt><trkpt lat="43.693164172437086" lon="10.352726657099005"><ele>0.0</ele><time>2026-04-06T14:33:16Z</time></trkpt><trkpt lat="43.693239864041956" lon="10.352873075993005"><ele>0.0</ele><time>2026-04-06T14:33:17Z</time></trkpt><trkpt lat="43.69332305901981" lon="10.353006353906796"><ele>0.0</ele><time>2026-04-06T14:33:18Z</time></trkpt><trkpt lat="43.693401335210154" lon="10.353157536884048"><ele>0.0</ele><time>2026-04-06T14:33:19Z</time></trkpt><trkpt lat="43.693473616300835" lon="10.353309777187821"><ele>0.0</ele><time>2026-04-06T14:33:20Z</time></trkpt><trkpt lat="43.69354790909886" lon="10.353450048938667"><ele>0.75</ele><time>2026-04-06T14:33:21Z</time></trkpt><trkpt lat="43.693622958599306" lon="10.353602414665307"><ele>1.5</ele><time>2026-04-06T14:33:22Z</time></trkpt><trkpt lat="43.69370135698052" lon="10.353764754519288"><ele>2.25</ele><time>2026-04-06T14:33:23Z</time></trkpt><trkpt lat="43.69378153557356" lon="10.353931403126532"><ele>3.0</ele><time>2026-04-06T14:33:24Z</time></trkpt><trkpt lat="43.693863284082866" lon="10.354066543322977"><ele>3.333333333333333</ele><time>2026-04-06T14:33:25Z</time></trkpt><trkpt lat="43.69394939687316" lon="10.354230623400436"><ele>3.6666666666666665</ele><time>2026-04-06T14:33:26Z</time></trkpt><trkpt lat="43.69405059352725" lon="10.354407228823364"><ele>4.0</ele><time>2026-04-06T14:33:27Z</time></trkpt><trkpt lat="43.694144974403876" lon="10.35460139721252"><ele>4.666666666666666</ele><time>2026-04-06T14:33:28Z</time></trkpt><trkpt lat="43.69425587000569" lon="10.354807189698048"><ele>5.333333333333333</ele><time>2026-04-06T14:33:29Z</time></trkpt><trkpt lat="43.69436945277523" lon="10.35502318457538"><ele>6.0</ele><time>2026-04-06T14:33:30Z</time></trkpt><trkpt lat="43.69448613794145" lon="10.35525416278663"><ele>6.333333333333334</ele><time>2026-04-06T14:33:31Z</time></trkpt><trkpt lat="43.694602655382866" lon="10.355470203278324"><ele>6.666666666666667</ele><time>2026-04-06T14:33:32Z</time></trkpt><trkpt lat="43.69471380956022" lon="10.355673717160645"><ele>7.0</ele><time>2026-04-06T14:33:33Z</time></trkpt><trkpt lat="43.69481795234726" lon="10.355876301445614"><ele>7.333333333333334</ele><time>2026-04-06T14:33:34Z</time></trkpt><trkpt lat="43.69492279145761" lon="10.35607737281498"><ele>7.666666666666666</ele><time>2026-04-06T14:33:35Z</time></trkpt><trkpt lat="43.69502443678206" lon="10.356273742233734"><ele>8.0</ele><time>2026-04-06T14:33:36Z</time></trkpt><trkpt lat="43.69511865824628" lon="10.356464345779962"><ele>6.666666666666666</ele><time>2026-04-06T14:33:37Z</time></trkpt><trkpt lat="43.695211367455194" lon="10.356649232826758"><ele>5.333333333333333</ele><time>2026-04-06T14:33:38Z</time></trkpt><trkpt lat="43.69530845536478" lon="10.356828203735164"><ele>4.0</ele><time>2026-04-06T14:33:39Z</time></trkpt><trkpt lat="43.69540748134537" lon="10.357009665796713"><ele>4.0</ele><time>2026-04-06T14:33:40Z</time></trkpt><trkpt lat="43.69550161113122" lon="10.357184707750655"><ele>4.0</ele><time>2026-04-06T14:33:41Z</time></trkpt><trkpt lat="43.69558245595027" lon="10.357371308738154"><ele>4.0</ele><time>2026-04-06T14:33:42Z</time></trkpt><trkpt lat="43.695675532002895" lon="10.357550272682094"><ele>4.0</ele><time>2026-04-06T14:33:43Z</time></trkpt><trkpt lat="43.69576738351093" lon="10.357724825465887"><ele>4.0</ele><time>2026-04-06T14:33:44Z</time></trkpt><trkpt lat="43.69586286938623" lon="10.357887197362421"><ele>4.0</ele><time>2026-04-06T14:33:45Z</time></trkpt><trkpt lat="43.69595216282061" lon="10.358054981976531"><ele>4.0</ele><time>2026-04-06T14:33:46Z</time></trkpt><trkpt lat="43.69604188011957" lon="10.35822069700544"><ele>4.0</ele><time>2026-04-06T14:33:47Z</time></trkpt><trkpt lat="43.69613404596449" lon="10.35838578873579"><ele>4.0</ele><time>2026-04-06T14:33:48Z</time></trkpt><trkpt lat="43.696230824074014" lon="10.358548663299866"><ele>4.0</ele><time>2026-04-06T14:33:49Z</time></trkpt><trkpt lat="43.69633616583843" lon="10.358711593850815"><ele>4.0</ele><time>2026-04-06T14:33:50Z</time></trkpt><trkpt lat="43.6964423625724" lon="10.358867819511515"><ele>4.0</ele><time>2026-04-06T14:33:51Z</time></trkpt><trkpt lat="43.69654766388631" lon="10.359019877466642"><ele>4.333333333333333</ele><time>2026-04-06T14:33:52Z</time></trkpt><trkpt lat="43.69665645735586" lon="10.35917001186669"><ele>4.666666666666667</ele><time>2026-04-06T14:33:53Z</time></trkpt><trkpt lat="43.69676660791071" lon="10.359316736182954"><ele>5.0</ele><time>2026-04-06T14:33:54Z</time></trkpt><trkpt lat="43.696880736799756" lon="10.359459344215738"><ele>5.0</ele><time>2026-04-06T14:33:55Z</time></trkpt><trkpt lat="43.69699783513724" lon="10.35959216248305"><ele>5.0</ele><time>2026-04-06T14:33:56Z</time></trkpt><trkpt lat="43.69711261602211" lon="10.359729716719384"><ele>5.0</ele><time>2026-04-06T14:33:57Z</time></trkpt><trkpt lat="43.697238038101894" lon="10.359859027854512"><ele>5.0</ele><time>2026-04-06T14:33:58Z</time></trkpt><trkpt lat="43.697361253693884" lon="10.359979328971031"><ele>5.0</ele><time>2026-04-06T14:33:59Z</time></trkpt><trkpt lat="43.69748719311642" lon="10.360099251151752"><ele>5.0</ele><time>2026-04-06T14:34:00Z</time></trkpt><trkpt lat="43.697613632757545" lon="10.360218714559391"><ele>5.0</ele><time>2026-04-06T14:34:01Z</time></trkpt><trkpt lat="43.69773994032814" lon="10.360338306720243"><ele>5.0</ele><time>2026-04-06T14:34:02Z</time></trkpt><trkpt lat="43.697870264995494" lon="10.360452801251181"><ele>5.0</ele><time>2026-04-06T14:34:03Z</time></trkpt><trkpt lat="43.69799942125487" lon="10.360572115722242"><ele>5.333333333333334</ele><time>2026-04-06T14:34:04Z</time></trkpt><trkpt lat="43.69813640258558" lon="10.360696165816444"><ele>5.666666666666667</ele><time>2026-04-06T14:34:05Z</time></trkpt><trkpt lat="43.698277544541455" lon="10.360842978243308"><ele>6.0</ele><time>2026-04-06T14:34:06Z</time></trkpt><trkpt lat="43.69842752822315" lon="10.360983049160009"><ele>6.333333333333334</ele><time>2026-04-06T14:34:07Z</time></trkpt><trkpt lat="43.69859617542321" lon="10.361121352993393"><ele>6.666666666666667</ele><time>2026-04-06T14:34:08Z</time></trkpt><trkpt lat="43.69876397773744" lon="10.361290486069398"><ele>7.0</ele><time>2026-04-06T14:34:09Z</time></trkpt><trkpt lat="43.6989412808781" lon="10.361460117811365"><ele>6.333333333333334</ele><time>2026-04-06T14:34:10Z</time></trkpt><trkpt lat="43.699124295254826" lon="10.361642347551772"><ele>5.666666666666667</ele><time>2026-04-06T14:34:11Z</time></trkpt><trkpt lat="43.699304482183976" lon="10.361819470967609"><ele>5.0</ele><time>2026-04-06T14:34:12Z</time></trkpt><trkpt lat="43.69948372793828" lon="10.361987591060412"><ele>5.0</ele><time>2026-04-06T14:34:13Z</time></trkpt><trkpt lat="43.69965799263151" lon="10.362155754581405"><ele>5.0</ele><time>2026-04-06T14:34:14Z</time></trkpt><trkpt lat="43.69982849548796" lon="10.362314905914527"><ele>5.0</ele><time>2026-04-06T14:34:15Z</time></trkpt><trkpt lat="43.69999979387437" lon="10.362470927901516"><ele>4.666666666666667</ele><time>2026-04-06T14:34:16Z</time></trkpt><trkpt lat="43.700174861779665" lon="10.362632732020256"><ele>4.333333333333333</ele><time>2026-04-06T14:34:17Z</time></trkpt><trkpt lat="43.70035601274256" lon="10.36280120553129"><ele>4.0</ele><time>2026-04-06T14:34:18Z</time></trkpt><trkpt lat="43.70052877249296" lon="10.36296424881171"><ele>3.6666666666666665</ele><time>2026-04-06T14:34:19Z</time></trkpt><trkpt lat="43.70069350812286" lon="10.36312084267925"><ele>3.333333333333333</ele><time>2026-04-06T14:34:20Z</time></trkpt><trkpt lat="43.70085932408488" lon="10.363271936121672"><ele>3.0</ele><time>2026-04-06T14:34:21Z</time></trkpt><trkpt lat="43.70102357444194" lon="10.363417315808295"><ele>3.333333333333333</ele><time>2026-04-06T14:34:22Z</time></trkpt><trkpt lat="43.70118390827329" lon="10.363569540770456"><ele>3.6666666666666665</ele><time>2026-04-06T14:34:23Z</time></trkpt><trkpt lat="43.701336409264506" lon="10.363733032847879"><ele>4.0</ele><time>2026-04-06T14:34:24Z</time></trkpt><trkpt lat="43.70148166327865" lon="10.363904154296188"><ele>4.0</ele><time>2026-04-06T14:34:25Z</time></trkpt><trkpt lat="43.701627201501445" lon="10.364088190440645"><ele>4.0</ele><time>2026-04-06T14:34:26Z</time></trkpt><trkpt lat="43.70176924603057" lon="10.364287928758278"><ele>4.0</ele><time>2026-04-06T14:34:27Z</time></trkpt><trkpt lat="43.701903321560025" lon="10.364501226317488"><ele>4.0</ele><time>2026-04-06T14:34:28Z</time></trkpt><trkpt lat="43.70203656050999" lon="10.364722347388371"><ele>4.0</ele><time>2026-04-06T14:34:29Z</time></trkpt><trkpt lat="43.702165386380116" lon="10.364952197196276"><ele>4.0</ele><time>2026-04-06T14:34:30Z</time></trkpt><trkpt lat="43.70228719186082" lon="10.36519474410751"><ele>4.0</ele><time>2026-04-06T14:34:31Z</time></trkpt><trkpt lat="43.70240707473199" lon="10.365442786187224"><ele>4.0</ele><time>2026-04-06T14:34:32Z</time></trkpt><trkpt lat="43.70252600464156" lon="10.365690980437112"><ele>4.0</ele><time>2026-04-06T14:34:33Z</time></trkpt><trkpt lat="43.702643579096886" lon="10.365937111960497"><ele>4.0</ele><time>2026-04-06T14:34:34Z</time></trkpt><trkpt lat="43.702759383353246" lon="10.366181744466552"><ele>4.0</ele><time>2026-04-06T14:34:35Z</time></trkpt><trkpt lat="43.70287047782282" lon="10.36641218625689"><ele>4.0</ele><time>2026-04-06T14:34:36Z</time></trkpt><trkpt lat="43.702971643709205" lon="10.36662672221381"><ele>4.666666666666666</ele><time>2026-04-06T14:34:37Z</time></trkpt><trkpt lat="43.70305978928453" lon="10.366851560534156"><ele>5.333333333333333</ele><time>2026-04-06T14:34:38Z</time></trkpt><trkpt lat="43.70315892945315" lon="10.367063899981828"><ele>6.0</ele><time>2026-04-06T14:34:39Z</time></trkpt><trkpt lat="43.70325815885952" lon="10.367276430608625"><ele>6.0</ele><time>2026-04-06T14:34:40Z</time></trkpt><trkpt lat="43.70337128882865" lon="10.367476349293078"><ele>6.0</ele><time>2026-04-06T14:34:41Z</time></trkpt><trkpt lat="43.70346861068347" lon="10.367684169645209"><ele>6.0</ele><time>2026-04-06T14:34:42Z</time></trkpt><trkpt lat="43.703563797194164" lon="10.367885986480985"><ele>6.0</ele><time>2026-04-06T14:34:43Z</time></trkpt><trkpt lat="43.703655015716386" lon="10.368087643455375"><ele>6.0</ele><time>2026-04-06T14:34:44Z</time></trkpt><trkpt lat="43.7037496897436" lon="10.36828553784679"><ele>6.0</ele><time>2026-04-06T14:34:45Z</time></trkpt><trkpt lat="43.70384037346309" lon="10.36847278261381"><ele>6.0</ele><time>2026-04-06T14:34:46Z</time></trkpt><trkpt lat="43.703912478411645" lon="10.368666783059748"><ele>6.0</ele><time>2026-04-06T14:34:47Z</time></trkpt><trkpt lat="43.70399797577032" lon="10.368846241323235"><ele>6.0</ele><time>2026-04-06T14:34:48Z</time></trkpt><trkpt lat="43.70408413063656" lon="10.369030175544074"><ele>5.666666666666667</ele><time>2026-04-06T14:34:49Z</time></trkpt><trkpt lat="43.70416697754081" lon="10.369209158577007"><ele>5.333333333333334</ele><time>2026-04-06T14:34:50Z</time></trkpt><trkpt lat="43.70425094605923" lon="10.369386981108926"><ele>5.0</ele><time>2026-04-06T14:34:51Z</time></trkpt><trkpt lat="43.704334128429046" lon="10.369561731030236"><ele>5.0</ele><time>2026-04-06T14:34:52Z</time></trkpt><trkpt lat="43.704417610328264" lon="10.36973757699186"><ele>5.0</ele><time>2026-04-06T14:34:53Z</time></trkpt><trkpt lat="43.70450155105535" lon="10.369916454403132"><ele>5.0</ele><time>2026-04-06T14:34:54Z</time></trkpt><trkpt lat="43.70458959304079" lon="10.370104071542935"><ele>5.0</ele><time>2026-04-06T14:34:55Z</time></trkpt><trkpt lat="43.70468207384494" lon="10.370301147847107"><ele>5.0</ele><time>2026-04-06T14:34:56Z</time></trkpt><trkpt lat="43.70477426360834" lon="10.370497603820413"><ele>5.0</ele><time>2026-04-06T14:34:57Z</time></trkpt><trkpt lat="43.704866838544284" lon="10.370694880653959"><ele>5.333333333333334</ele><time>2026-04-06T14:34:58Z</time></trkpt><trkpt lat="43.70495668860859" lon="10.370887419984445"><ele>5.666666666666667</ele><time>2026-04-06T14:34:59Z</time></trkpt><trkpt lat="43.705045030951084" lon="10.371077091689742"><ele>6.0</ele><time>2026-04-06T14:35:00Z</time></trkpt><trkpt lat="43.70513509453022" lon="10.371269379661305"><ele>5.333333333333333</ele><time>2026-04-06T14:35:01Z</time></trkpt><trkpt lat="43.705224989864064" lon="10.371460678106208"><ele>4.666666666666666</ele><time>2026-04-06T14:35:02Z</time></trkpt><trkpt lat="43.70531139095909" lon="10.371643639204988"><ele>4.0</ele><time>2026-04-06T14:35:03Z</time></trkpt><trkpt lat="43.70539559914344" lon="10.371821956439737"><ele>4.0</ele><time>2026-04-06T14:35:04Z</time></trkpt><trkpt lat="43.70547873704152" lon="10.371998007649744"><ele>4.0</ele><time>2026-04-06T14:35:05Z</time></trkpt><trkpt lat="43.70556536696772" lon="10.37218145331731"><ele>4.0</ele><time>2026-04-06T14:35:06Z</time></trkpt><trkpt lat="43.7056548359403" lon="10.372370910871338"><ele>4.0</ele><time>2026-04-06T14:35:07Z</time></trkpt><trkpt lat="43.705744630504014" lon="10.372561057999494"><ele>4.0</ele><time>2026-04-06T14:35:08Z</time></trkpt><trkpt lat="43.705827314139185" lon="10.372736639328497"><ele>4.0</ele><time>2026-04-06T14:35:09Z</time></trkpt><trkpt lat="43.70590677259126" lon="10.37290613205784"><ele>4.25</ele><time>2026-04-06T14:35:10Z</time></trkpt><trkpt lat="43.70598357895721" lon="10.373069500422531"><ele>4.5</ele><time>2026-04-06T14:35:11Z</time></trkpt><trkpt lat="43.70605495326706" lon="10.373221022606932"><ele>4.75</ele><time>2026-04-06T14:35:12Z</time></trkpt><trkpt lat="43.706124407894954" lon="10.373360100754395"><ele>5.0</ele><time>2026-04-06T14:35:13Z</time></trkpt><trkpt lat="43.706194963115955" lon="10.373502606817457"><ele>5.0</ele><time>2026-04-06T14:35:14Z</time></trkpt><trkpt lat="43.7062665134067" lon="10.373650039350593"><ele>5.0</ele><time>2026-04-06T14:35:15Z</time></trkpt><trkpt lat="43.706346102043426" lon="10.37381296888266"><ele>5.0</ele><time>2026-04-06T14:35:16Z</time></trkpt><trkpt lat="43.70642958489982" lon="10.373988836991932"><ele>5.0</ele><time>2026-04-06T14:35:17Z</time></trkpt><trkpt lat="43.706513507307434" lon="10.374162973029453"><ele>5.0</ele><time>2026-04-06T14:35:18Z</time></trkpt><trkpt lat="43.70658920418523" lon="10.374344455311052"><ele>5.0</ele><time>2026-04-06T14:35:19Z</time></trkpt><trkpt lat="43.70667500977211" lon="10.37452212124763"><ele>5.0</ele><time>2026-04-06T14:35:20Z</time></trkpt><trkpt lat="43.70675459714563" lon="10.374692770484533"><ele>5.0</ele><time>2026-04-06T14:35:21Z</time></trkpt><trkpt lat="43.706831081598054" lon="10.37484714028864"><ele>5.0</ele><time>2026-04-06T14:35:22Z</time></trkpt><trkpt lat="43.70690247226489" lon="10.375001616316478"><ele>5.0</ele><time>2026-04-06T14:35:23Z</time></trkpt><trkpt lat="43.706971224137355" lon="10.37514003116141"><ele>5.0</ele><time>2026-04-06T14:35:24Z</time></trkpt><trkpt lat="43.70703034992357" lon="10.375265329615837"><ele>5.0</ele><time>2026-04-06T14:35:25Z</time></trkpt><trkpt lat="43.70708243784823" lon="10.375381907187577"><ele>5.0</ele><time>2026-04-06T14:35:26Z</time></trkpt><trkpt lat="43.707125360743426" lon="10.375477751710894"><ele>5.0</ele><time>2026-04-06T14:35:27Z</time></trkpt><trkpt lat="43.70716730202596" lon="10.375557456966218"><ele>5.0</ele><time>2026-04-06T14:35:28Z</time></trkpt><trkpt lat="43.70719427068576" lon="10.375640207169678"><ele>5.0</ele><time>2026-04-06T14:35:29Z</time></trkpt><trkpt lat="43.70725827659321" lon="10.375760806260178"><ele>5.0</ele><time>2026-04-06T14:35:31Z</time></trkpt><trkpt lat="43.70731847912655" lon="10.375889478073777"><ele>5.0</ele><time>2026-04-06T14:35:33Z</time></trkpt><trkpt lat="43.70739035052728" lon="10.375951309773638"><ele>5.0</ele><time>2026-04-06T14:35:35Z</time></trkpt><trkpt lat="43.70750068135622" lon="10.375799549413367"><ele>5.0</ele><time>2026-04-06T14:35:37Z</time></trkpt><trkpt lat="43.70755563303964" lon="10.37572042859767"><ele>5.0</ele><time>2026-04-06T14:35:38Z</time></trkpt><trkpt lat="43.70763180481463" lon="10.375642142483654"><ele>5.0</ele><time>2026-04-06T14:35:39Z</time></trkpt><trkpt lat="43.70772816686778" lon="10.375562848471134"><ele>3.75</ele><time>2026-04-06T14:35:40Z</time></trkpt><trkpt lat="43.70782809539023" lon="10.375469852662881"><ele>2.5</ele><time>2026-04-06T14:35:41Z</time></trkpt><trkpt lat="43.70793245288039" lon="10.375370934161715"><ele>1.25</ele><time>2026-04-06T14:35:42Z</time></trkpt><trkpt lat="43.70804244704757" lon="10.375263016567734"><ele>0.0</ele><time>2026-04-06T14:35:43Z</time></trkpt><trkpt lat="43.70815715049216" lon="10.375144684212605"><ele>0.0</ele><time>2026-04-06T14:35:44Z</time></trkpt><trkpt lat="43.7082733838925" lon="10.375035490106779"><ele>0.0</ele><time>2026-04-06T14:35:45Z</time></trkpt><trkpt lat="43.708383956425834" lon="10.374933376777383"><ele>0.0</ele><time>2026-04-06T14:35:46Z</time></trkpt><trkpt lat="43.70848721969927" lon="10.374833365589703"><ele>0.0</ele><time>2026-04-06T14:35:47Z</time></trkpt><trkpt lat="43.70858683304615" lon="10.37474404917697"><ele>0.4</ele><time>2026-04-06T14:35:48Z</time></trkpt><trkpt lat="43.70868207936892" lon="10.374664591125905"><ele>0.8</ele><time>2026-04-06T14:35:49Z</time></trkpt><trkpt lat="43.70877088076167" lon="10.374585941947421"><ele>1.2000000000000002</ele><time>2026-04-06T14:35:50Z</time></trkpt><trkpt lat="43.708850972736904" lon="10.37451197334127"><ele>1.6</ele><time>2026-04-06T14:35:51Z</time></trkpt><trkpt lat="43.70892711944911" lon="10.374450629373596"><ele>2.0</ele><time>2026-04-06T14:35:52Z</time></trkpt><trkpt lat="43.709006230138705" lon="10.374407780992195"><ele>2.0</ele><time>2026-04-06T14:35:53Z</time></trkpt><trkpt lat="43.7090841481635" lon="10.374381112268267"><ele>1.9999999999999998</ele><time>2026-04-06T14:35:54Z</time></trkpt><trkpt lat="43.7091599663477" lon="10.374367704570709"><ele>2.0</ele><time>2026-04-06T14:35:55Z</time></trkpt><trkpt lat="43.70923142755662" lon="10.374360900449865"><ele>2.0</ele><time>2026-04-06T14:35:56Z</time></trkpt><trkpt lat="43.70930207691786" lon="10.374361196572767"><ele>1.9999999999999998</ele><time>2026-04-06T14:35:57Z</time></trkpt><trkpt lat="43.709370725852" lon="10.374365241027157"><ele>2.0</ele><time>2026-04-06T14:35:58Z</time></trkpt><trkpt lat="43.70944554163588" lon="10.374356528813983"><ele>2.0</ele><time>2026-04-06T14:35:59Z</time></trkpt><trkpt lat="43.709513645462" lon="10.374364126784913"><ele>3.4000000000000004</ele><time>2026-04-06T14:36:00Z</time></trkpt><trkpt lat="43.70956382524845" lon="10.374287835225944"><ele>4.800000000000001</ele><time>2026-04-06T14:36:01Z</time></trkpt><trkpt lat="43.70960067168275" lon="10.374214317621275"><ele>6.2</ele><time>2026-04-06T14:36:02Z</time></trkpt><trkpt lat="43.70957268199985" lon="10.37403447164643"><ele>7.6000000000000005</ele><time>2026-04-06T14:36:04Z</time></trkpt><trkpt lat="43.70964712099964" lon="10.373919868960831"><ele>9.0</ele><time>2026-04-06T14:36:05Z</time></trkpt><trkpt lat="43.70969335276962" lon="10.373831580035223"><ele>9.166666666666666</ele><time>2026-04-06T14:36:06Z</time></trkpt><trkpt lat="43.709757253470336" lon="10.373762247056783"><ele>9.333333333333334</ele><time>2026-04-06T14:36:07Z</time></trkpt><trkpt lat="43.70982446898596" lon="10.373696088782674"><ele>9.5</ele><time>2026-04-06T14:36:08Z</time></trkpt><trkpt lat="43.709892543045406" lon="10.373632902808941"><ele>9.666666666666668</ele><time>2026-04-06T14:36:09Z</time></trkpt><trkpt lat="43.70995761700636" lon="10.373575663167912"><ele>9.833333333333334</ele><time>2026-04-06T14:36:10Z</time></trkpt><trkpt lat="43.709999362042325" lon="10.373488116642244"><ele>10.0</ele><time>2026-04-06T14:36:11Z</time></trkpt><trkpt lat="43.71005258619236" lon="10.3734401891038"><ele>10.0</ele><time>2026-04-06T14:36:12Z</time></trkpt><trkpt lat="43.71015133013797" lon="10.373355528277822"><ele>10.0</ele><time>2026-04-06T14:36:14Z</time></trkpt><trkpt lat="43.71024127525426" lon="10.373272103170923"><ele>10.0</ele><time>2026-04-06T14:36:16Z</time></trkpt><trkpt lat="43.710319191860094" lon="10.373203280995444"><ele>10.0</ele><time>2026-04-06T14:36:18Z</time></trkpt><trkpt lat="43.71039305971275" lon="10.373135077414458"><ele>10.0</ele><time>2026-04-06T14:36:20Z</time></trkpt><trkpt lat="43.710474255200175" lon="10.373063468288013"><ele>9.666666666666668</ele><time>2026-04-06T14:36:22Z</time></trkpt><trkpt lat="43.7105420682356" lon="10.373003542126263"><ele>9.333333333333334</ele><time>2026-04-06T14:36:24Z</time></trkpt><trkpt lat="43.71059901135162" lon="10.372938634864155"><ele>9.0</ele><time>2026-04-06T14:36:26Z</time></trkpt><trkpt lat="43.710702284170395" lon="10.372856527457786"><ele>8.666666666666666</ele><time>2026-04-06T14:36:28Z</time></trkpt><trkpt lat="43.71076639192075" lon="10.37279150726639"><ele>8.333333333333332</ele><time>2026-04-06T14:36:29Z</time></trkpt><trkpt lat="43.71083242382676" lon="10.372713882627577"><ele>8.0</ele><time>2026-04-06T14:36:30Z</time></trkpt><trkpt lat="43.71090692045799" lon="10.372635143628516"><ele>7.999999999999999</ele><time>2026-04-06T14:36:31Z</time></trkpt><trkpt lat="43.71098578366525" lon="10.372566028453498"><ele>8.0</ele><time>2026-04-06T14:36:32Z</time></trkpt><trkpt lat="43.71106787670631" lon="10.372496376492013"><ele>8.0</ele><time>2026-04-06T14:36:33Z</time></trkpt><trkpt lat="43.7111447701859" lon="10.372434958659637"><ele>8.0</ele><time>2026-04-06T14:36:34Z</time></trkpt><trkpt lat="43.71121562591359" lon="10.372385603397941"><ele>7.999999999999999</ele><time>2026-04-06T14:36:35Z</time></trkpt><trkpt lat="43.71128683741853" lon="10.372344054437661"><ele>8.0</ele><time>2026-04-06T14:36:36Z</time></trkpt><trkpt lat="43.711348168106724" lon="10.372300095668665"><ele>7.833333333333333</ele><time>2026-04-06T14:36:37Z</time></trkpt><trkpt lat="43.711403004482776" lon="10.37224571759824"><ele>7.666666666666666</ele><time>2026-04-06T14:36:38Z</time></trkpt><trkpt lat="43.71149947734451" lon="10.372155376512064"><ele>7.5</ele><time>2026-04-06T14:36:40Z</time></trkpt><trkpt lat="43.711590302059776" lon="10.372140160578502"><ele>7.333333333333334</ele><time>2026-04-06T14:36:42Z</time></trkpt><trkpt lat="43.71164491365342" lon="10.372184990447563"><ele>7.166666666666667</ele><time>2026-04-06T14:36:43Z</time></trkpt><trkpt lat="43.711684976282726" lon="10.372253762567416"><ele>7.0</ele><time>2026-04-06T14:36:44Z</time></trkpt><trkpt lat="43.71170651997531" lon="10.372359038917395"><ele>7.0</ele><time>2026-04-06T14:36:45Z</time></trkpt><trkpt lat="43.711745135383346" lon="10.372466469829057"><ele>6.999999999999999</ele><time>2026-04-06T14:36:46Z</time></trkpt><trkpt lat="43.71178843842033" lon="10.372585906019271"><ele>6.999999999999999</ele><time>2026-04-06T14:36:47Z</time></trkpt><trkpt lat="43.71184515298874" lon="10.372701128481559"><ele>7.0</ele><time>2026-04-06T14:36:48Z</time></trkpt><trkpt lat="43.71189564047067" lon="10.372835695865458"><ele>7.0</ele><time>2026-04-06T14:36:49Z</time></trkpt><trkpt lat="43.711952032870066" lon="10.372974664066078"><ele>6.5</ele><time>2026-04-06T14:36:50Z</time></trkpt><trkpt lat="43.71201401558292" lon="10.373114080382045"><ele>6.0</ele><time>2026-04-06T14:36:51Z</time></trkpt><trkpt lat="43.71207893756367" lon="10.373263263908957"><ele>5.5</ele><time>2026-04-06T14:36:52Z</time></trkpt><trkpt lat="43.71214321954288" lon="10.373413850952282"><ele>5.0</ele><time>2026-04-06T14:36:53Z</time></trkpt><trkpt lat="43.71219584215562" lon="10.37354587474643"><ele>5.0</ele><time>2026-04-06T14:36:54Z</time></trkpt><trkpt lat="43.71224141734152" lon="10.373670132423003"><ele>5.0</ele><time>2026-04-06T14:36:55Z</time></trkpt><trkpt lat="43.7122837721652" lon="10.373788272076851"><ele>5.0</ele><time>2026-04-06T14:36:56Z</time></trkpt><trkpt lat="43.71233646109331" lon="10.373917309881184"><ele>5.0</ele><time>2026-04-06T14:36:57Z</time></trkpt><trkpt lat="43.71238260819594" lon="10.374060819233547"><ele>5.0</ele><time>2026-04-06T14:36:58Z</time></trkpt><trkpt lat="43.71242881353465" lon="10.37419351031238"><ele>5.0</ele><time>2026-04-06T14:36:59Z</time></trkpt><trkpt lat="43.712474347819594" lon="10.374306110369503"><ele>5.0</ele><time>2026-04-06T14:37:00Z</time></trkpt><trkpt lat="43.71250798289434" lon="10.374404348594199"><ele>5.0</ele><time>2026-04-06T14:37:01Z</time></trkpt><trkpt lat="43.71253285286185" lon="10.374496919823999"><ele>5.0</ele><time>2026-04-06T14:37:02Z</time></trkpt><trkpt lat="43.712561975130484" lon="10.374584238361951"><ele>5.0</ele><time>2026-04-06T14:37:03Z</time></trkpt><trkpt lat="43.71254068907409" lon="10.37472209022191"><ele>5.0</ele><time>2026-04-06T14:37:04Z</time></trkpt><trkpt lat="43.712626609614446" lon="10.374810855868386"><ele>5.0</ele><time>2026-04-06T14:37:05Z</time></trkpt><trkpt lat="43.71268274036747" lon="10.374938372482529"><ele>5.0</ele><time>2026-04-06T14:37:06Z</time></trkpt><trkpt lat="43.71275848241944" lon="10.375059934993521"><ele>5.0</ele><time>2026-04-06T14:37:07Z</time></trkpt><trkpt lat="43.71283808159883" lon="10.375193058226603"><ele>5.0</ele><time>2026-04-06T14:37:08Z</time></trkpt><trkpt lat="43.712926270086065" lon="10.37534327601703"><ele>4.5</ele><time>2026-04-06T14:37:09Z</time></trkpt><trkpt lat="43.71301674979615" lon="10.375497684614755"><ele>4.0</ele><time>2026-04-06T14:37:10Z</time></trkpt><trkpt lat="43.713106387196" lon="10.375650672732952"><ele>3.5</ele><time>2026-04-06T14:37:11Z</time></trkpt><trkpt lat="43.71319730769897" lon="10.375805850760502"><ele>3.0</ele><time>2026-04-06T14:37:12Z</time></trkpt><trkpt lat="43.71328771778409" lon="10.375942557370623"><ele>3.0</ele><time>2026-04-06T14:37:13Z</time></trkpt><trkpt lat="43.713375702102134" lon="10.376095779799808"><ele>3.0</ele><time>2026-04-06T14:37:14Z</time></trkpt><trkpt lat="43.71346196354072" lon="10.376247933325043"><ele>3.0</ele><time>2026-04-06T14:37:15Z</time></trkpt><trkpt lat="43.71354906304283" lon="10.3763941346022"><ele>3.0</ele><time>2026-04-06T14:37:16Z</time></trkpt><trkpt lat="43.713630703086096" lon="10.376539515344108"><ele>3.0</ele><time>2026-04-06T14:37:17Z</time></trkpt><trkpt lat="43.71371544252082" lon="10.376686422953169"><ele>3.0</ele><time>2026-04-06T14:37:18Z</time></trkpt><trkpt lat="43.71379689749158" lon="10.376820266206284"><ele>3.0</ele><time>2026-04-06T14:37:19Z</time></trkpt><trkpt lat="43.713874051823346" lon="10.376946749325"><ele>3.0</ele><time>2026-04-06T14:37:20Z</time></trkpt><trkpt lat="43.713943651546735" lon="10.377068444529595"><ele>3.0</ele><time>2026-04-06T14:37:21Z</time></trkpt><trkpt lat="43.714014101888026" lon="10.377184458109959"><ele>3.0</ele><time>2026-04-06T14:37:22Z</time></trkpt><trkpt lat="43.71407472519494" lon="10.377285046080035"><ele>3.0</ele><time>2026-04-06T14:37:23Z</time></trkpt><trkpt lat="43.71412411119387" lon="10.377357347596902"><ele>3.0</ele><time>2026-04-06T14:37:24Z</time></trkpt><trkpt lat="43.71419097273835" lon="10.37747331188827"><ele>3.0</ele><time>2026-04-06T14:37:26Z</time></trkpt><trkpt lat="43.71423231575614" lon="10.377552064528563"><ele>2.8333333333333335</ele><time>2026-04-06T14:37:28Z</time></trkpt><trkpt lat="43.71427070360102" lon="10.377621256918879"><ele>2.6666666666666665</ele><time>2026-04-06T14:37:30Z</time></trkpt><trkpt lat="43.71432884242942" lon="10.377732591259658"><ele>2.5</ele><time>2026-04-06T14:37:32Z</time></trkpt><trkpt lat="43.714370293192054" lon="10.377802468851337"><ele>2.333333333333333</ele><time>2026-04-06T14:37:33Z</time></trkpt><trkpt lat="43.71442151857934" lon="10.377887342271885"><ele>2.1666666666666665</ele><time>2026-04-06T14:37:34Z</time></trkpt><trkpt lat="43.714480437496675" lon="10.377982905171672"><ele>2.0</ele><time>2026-04-06T14:37:35Z</time></trkpt><trkpt lat="43.71454320261566" lon="10.37807101155442"><ele>1.8</ele><time>2026-04-06T14:37:36Z</time></trkpt><trkpt lat="43.71460794732471" lon="10.378175877817833"><ele>1.6</ele><time>2026-04-06T14:37:37Z</time></trkpt><trkpt lat="43.71467939049457" lon="10.378288219338438"><ele>1.4000000000000001</ele><time>2026-04-06T14:37:38Z</time></trkpt><trkpt lat="43.71474913780101" lon="10.378394964769036"><ele>1.2000000000000002</ele><time>2026-04-06T14:37:39Z</time></trkpt><trkpt lat="43.714820721583536" lon="10.378513666670484"><ele>1.0</ele><time>2026-04-06T14:37:40Z</time></trkpt><trkpt lat="43.71489245521611" lon="10.37863021610352"><ele>1.0</ele><time>2026-04-06T14:37:41Z</time></trkpt><trkpt lat="43.714965118008905" lon="10.378751285155863"><ele>1.0</ele><time>2026-04-06T14:37:42Z</time></trkpt><trkpt lat="43.71504048949914" lon="10.378875400509296"><ele>1.0</ele><time>2026-04-06T14:37:43Z</time></trkpt><trkpt lat="43.71511122101744" lon="10.379000332164106"><ele>1.0</ele><time>2026-04-06T14:37:44Z</time></trkpt><trkpt lat="43.715178358545515" lon="10.379117745891392"><ele>1.1666666666666665</ele><time>2026-04-06T14:37:45Z</time></trkpt><trkpt lat="43.71524306824103" lon="10.379229341472497"><ele>1.3333333333333333</ele><time>2026-04-06T14:37:46Z</time></trkpt><trkpt lat="43.715307222550365" lon="10.379336093906488"><ele>1.5</ele><time>2026-04-06T14:37:47Z</time></trkpt><trkpt lat="43.71536689845721" lon="10.379431513266386"><ele>1.6666666666666665</ele><time>2026-04-06T14:37:48Z</time></trkpt><trkpt lat="43.71541548523906" lon="10.379516887892176"><ele>1.8333333333333333</ele><time>2026-04-06T14:37:49Z</time></trkpt><trkpt lat="43.71545874394287" lon="10.379591093032246"><ele>2.0</ele><time>2026-04-06T14:37:50Z</time></trkpt><trkpt lat="43.715535246631234" lon="10.379725312845276"><ele>2.2</ele><time>2026-04-06T14:37:52Z</time></trkpt><trkpt lat="43.71557836508359" lon="10.379802992683345"><ele>2.4000000000000004</ele><time>2026-04-06T14:37:54Z</time></trkpt><trkpt lat="43.71561969797933" lon="10.37989428488606"><ele>2.5999999999999996</ele><time>2026-04-06T14:38:30Z</time></trkpt><trkpt lat="43.715680112899356" lon="10.380009617729504"><ele>2.8</ele><time>2026-04-06T14:38:32Z</time></trkpt><trkpt lat="43.715752702309906" lon="10.380151914129158"><ele>3.0</ele><time>2026-04-06T14:38:34Z</time></trkpt><trkpt lat="43.71579577541956" lon="10.380232163234462"><ele>3.0</ele><time>2026-04-06T14:38:35Z</time></trkpt><trkpt lat="43.715846415064796" lon="10.380321034640566"><ele>3.0</ele><time>2026-04-06T14:38:36Z</time></trkpt><trkpt lat="43.71590179098972" lon="10.380413569450601"><ele>3.0</ele><time>2026-04-06T14:38:37Z</time></trkpt><trkpt lat="43.715946834908756" lon="10.380496284395894"><ele>3.0</ele><time>2026-04-06T14:38:38Z</time></trkpt><trkpt lat="43.7159948337099" lon="10.380586999692836"><ele>3.0</ele><time>2026-04-06T14:38:39Z</time></trkpt><trkpt lat="43.71605752452746" lon="10.38067713036881"><ele>3.0</ele><time>2026-04-06T14:38:40Z</time></trkpt><trkpt lat="43.716121527514865" lon="10.38077029873664"><ele>3.0</ele><time>2026-04-06T14:38:41Z</time></trkpt><trkpt lat="43.71618451546653" lon="10.380867586803564"><ele>3.0</ele><time>2026-04-06T14:38:42Z</time></trkpt><trkpt lat="43.716240114972436" lon="10.38097300552671"><ele>3.0</ele><time>2026-04-06T14:38:43Z</time></trkpt><trkpt lat="43.71629775756072" lon="10.381075071780858"><ele>3.0</ele><time>2026-04-06T14:38:44Z</time></trkpt><trkpt lat="43.71635173233384" lon="10.381172801924212"><ele>3.0</ele><time>2026-04-06T14:38:45Z</time></trkpt><trkpt lat="43.71640434462187" lon="10.381264095432671"><ele>3.0</ele><time>2026-04-06T14:38:46Z</time></trkpt><trkpt lat="43.716460778577684" lon="10.381352362812924"><ele>3.0</ele><time>2026-04-06T14:38:47Z</time></trkpt><trkpt lat="43.71651479481836" lon="10.381440272034816"><ele>3.0</ele><time>2026-04-06T14:38:48Z</time></trkpt><trkpt lat="43.716570292987605" lon="10.381522400773832"><ele>3.0</ele><time>2026-04-06T14:38:49Z</time></trkpt><trkpt lat="43.71662778907984" lon="10.381601404200458"><ele>3.0</ele><time>2026-04-06T14:38:50Z</time></trkpt><trkpt lat="43.716679581025126" lon="10.381674213864246"><ele>3.0</ele><time>2026-04-06T14:38:51Z</time></trkpt><trkpt lat="43.71673023394517" lon="10.381742878734132"><ele>3.0</ele><time>2026-04-06T14:38:52Z</time></trkpt><trkpt lat="43.716816395173346" lon="10.381827922123788"><ele>3.0</ele><time>2026-04-06T14:38:54Z</time></trkpt><trkpt lat="43.7168825202571" lon="10.38187867085678"><ele>3.0</ele><time>2026-04-06T14:39:00Z</time></trkpt><trkpt lat="43.71691850275586" lon="10.381950683119435"><ele>3.0</ele><time>2026-04-06T14:39:03Z</time></trkpt><trkpt lat="43.71698608413515" lon="10.382068372126021"><ele>3.0</ele><time>2026-04-06T14:39:05Z</time></trkpt><trkpt lat="43.717090527307775" lon="10.382118297096675"><ele>3.3333333333333335</ele><time>2026-04-06T14:39:07Z</time></trkpt><trkpt lat="43.71720722467488" lon="10.382092094434949"><ele>3.666666666666667</ele><time>2026-04-06T14:39:09Z</time></trkpt><trkpt lat="43.71724647358137" lon="10.381998147591403"><ele>4.0</ele><time>2026-04-06T14:39:10Z</time></trkpt><trkpt lat="43.7173413858205" lon="10.381996027421343"><ele>4.333333333333334</ele><time>2026-04-06T14:39:11Z</time></trkpt><trkpt lat="43.71741745843008" lon="10.381987048693663"><ele>4.666666666666667</ele><time>2026-04-06T14:39:12Z</time></trkpt><trkpt lat="43.717484040841654" lon="10.381977864547446"><ele>5.0</ele><time>2026-04-06T14:39:13Z</time></trkpt><trkpt lat="43.717563882278306" lon="10.381965971088677"><ele>5.0</ele><time>2026-04-06T14:39:15Z</time></trkpt><trkpt lat="43.71756316254451" lon="10.382058428437716"><ele>5.0</ele><time>2026-04-06T14:39:19Z</time></trkpt><trkpt lat="43.717480382622504" lon="10.38201880334608"><ele>5.0</ele><time>2026-04-06T14:39:23Z</time></trkpt><trkpt lat="43.717485058931096" lon="10.382113917126846"><ele>5.0</ele><time>2026-04-06T14:39:24Z</time></trkpt><trkpt lat="43.71751600934076" lon="10.381980033389654"><ele>5.0</ele><time>2026-04-06T14:42:44Z</time></trkpt><trkpt lat="43.71758180681925" lon="10.381966215063265"><ele>5.0</ele><time>2026-04-06T14:42:47Z</time></trkpt><trkpt lat="43.717686666984484" lon="10.381933673411774"><ele>4.8</ele><time>2026-04-06T14:42:49Z</time></trkpt><trkpt lat="43.717838678973386" lon="10.381913346965378"><ele>4.6</ele><time>2026-04-06T14:42:52Z</time></trkpt><trkpt lat="43.717922208214596" lon="10.381879925987002"><ele>4.4</ele><time>2026-04-06T14:42:54Z</time></trkpt><trkpt lat="43.71798623915847" lon="10.381853693783476"><ele>4.2</ele><time>2026-04-06T14:42:56Z</time></trkpt><trkpt lat="43.71804554964783" lon="10.381798647055016"><ele>4.0</ele><time>2026-04-06T14:42:58Z</time></trkpt><trkpt lat="43.71816148116227" lon="10.381692837650187"><ele>3.9999999999999996</ele><time>2026-04-06T14:43:11Z</time></trkpt><trkpt lat="43.71822370791902" lon="10.38166679263622"><ele>4.0</ele><time>2026-04-06T14:43:12Z</time></trkpt><trkpt lat="43.71829598237315" lon="10.381614715282451"><ele>4.0</ele><time>2026-04-06T14:43:13Z</time></trkpt><trkpt lat="43.718382512132166" lon="10.381576750156153"><ele>4.0</ele><time>2026-04-06T14:43:14Z</time></trkpt><trkpt lat="43.718476114099715" lon="10.38153819046855"><ele>3.9999999999999996</ele><time>2026-04-06T14:43:15Z</time></trkpt><trkpt lat="43.71857485342539" lon="10.381498301413133"><ele>4.0</ele><time>2026-04-06T14:43:16Z</time></trkpt><trkpt lat="43.71867956870716" lon="10.381477415680024"><ele>4.0</ele><time>2026-04-06T14:43:17Z</time></trkpt><trkpt lat="43.71877208940132" lon="10.381439140921374"><ele>4.0</ele><time>2026-04-06T14:43:18Z</time></trkpt><trkpt lat="43.71886732121369" lon="10.381380491477572"><ele>4.0</ele><time>2026-04-06T14:43:19Z</time></trkpt><trkpt lat="43.71897180456213" lon="10.381342027354448"><ele>4.0</ele><time>2026-04-06T14:43:20Z</time></trkpt><trkpt lat="43.719072324608035" lon="10.381310060660534"><ele>4.0</ele><time>2026-04-06T14:43:21Z</time></trkpt><trkpt lat="43.71915983097204" lon="10.381286348247778"><ele>3.9999999999999996</ele><time>2026-04-06T14:43:22Z</time></trkpt><trkpt lat="43.719229834500325" lon="10.381259144451795"><ele>4.0</ele><time>2026-04-06T14:43:23Z</time></trkpt><trkpt lat="43.71932727575934" lon="10.381199859963473"><ele>4.0</ele><time>2026-04-06T14:43:25Z</time></trkpt><trkpt lat="43.71939315748752" lon="10.381173749411268"><ele>4.0</ele><time>2026-04-06T14:43:27Z</time></trkpt><trkpt lat="43.71945591295624" lon="10.381157423230766"><ele>3.9999999999999996</ele><time>2026-04-06T14:43:31Z</time></trkpt><trkpt lat="43.71953165301627" lon="10.381141698069738"><ele>4.0</ele><time>2026-04-06T14:43:44Z</time></trkpt><trkpt lat="43.71960306968939" lon="10.381110539319783"><ele>3.8000000000000003</ele><time>2026-04-06T14:43:46Z</time></trkpt><trkpt lat="43.71968126531992" lon="10.381067660158816"><ele>3.6000000000000005</ele><time>2026-04-06T14:43:48Z</time></trkpt><trkpt lat="43.71978301017761" lon="10.381015306845761"><ele>3.4</ele><time>2026-04-06T14:43:50Z</time></trkpt><trkpt lat="43.71984653266946" lon="10.380991292457319"><ele>3.2</ele><time>2026-04-06T14:43:51Z</time></trkpt><trkpt lat="43.71996603739226" lon="10.380945990053721"><ele>3.0</ele><time>2026-04-06T14:43:53Z</time></trkpt><trkpt lat="43.72003696103962" lon="10.380919070305412"><ele>3.0</ele><time>2026-04-06T14:43:55Z</time></trkpt><trkpt lat="43.72010896509884" lon="10.380915270390394"><ele>3.0</ele><time>2026-04-06T14:44:10Z</time></trkpt><trkpt lat="43.72020015248802" lon="10.380879280243652"><ele>3.0</ele><time>2026-04-06T14:44:13Z</time></trkpt><trkpt lat="43.72026157065278" lon="10.380846975131277"><ele>3.0</ele><time>2026-04-06T14:44:15Z</time></trkpt><trkpt lat="43.720363269490974" lon="10.380797057459958"><ele>3.0</ele><time>2026-04-06T14:44:17Z</time></trkpt><trkpt lat="43.720452353987916" lon="10.380742870181802"><ele>3.0</ele><time>2026-04-06T14:44:19Z</time></trkpt><trkpt lat="43.720515748100425" lon="10.3807162796519"><ele>2.714285714285714</ele><time>2026-04-06T14:44:20Z</time></trkpt><trkpt lat="43.72058011354718" lon="10.380689637492821"><ele>2.4285714285714284</ele><time>2026-04-06T14:44:21Z</time></trkpt><trkpt lat="43.72064830615814" lon="10.380661854581392"><ele>2.142857142857143</ele><time>2026-04-06T14:44:22Z</time></trkpt><trkpt lat="43.72071706244079" lon="10.380627217825648"><ele>1.857142857142857</ele><time>2026-04-06T14:44:23Z</time></trkpt><trkpt lat="43.720788112508274" lon="10.380596746802532"><ele>1.5714285714285712</ele><time>2026-04-06T14:44:24Z</time></trkpt><trkpt lat="43.720859980286754" lon="10.38056849306335"><ele>1.2857142857142856</ele><time>2026-04-06T14:44:25Z</time></trkpt><trkpt lat="43.72093584907572" lon="10.380539728586724"><ele>1.0</ele><time>2026-04-06T14:44:26Z</time></trkpt><trkpt lat="43.72101777585901" lon="10.38050823086787"><ele>0.6666666666666666</ele><time>2026-04-06T14:44:27Z</time></trkpt><trkpt lat="43.72110059245948" lon="10.380469938622909"><ele>0.3333333333333333</ele><time>2026-04-06T14:44:28Z</time></trkpt><trkpt lat="43.72117563282031" lon="10.38043655630474"><ele>0.0</ele><time>2026-04-06T14:44:29Z</time></trkpt><trkpt lat="43.721249478651046" lon="10.380406534926106"><ele>-0.3333333333333333</ele><time>2026-04-06T14:44:30Z</time></trkpt><trkpt lat="43.72131897281111" lon="10.380378435300175"><ele>-0.6666666666666666</ele><time>2026-04-06T14:44:31Z</time></trkpt><trkpt lat="43.72142074556951" lon="10.380339601213022"><ele>-1.0</ele><time>2026-04-06T14:44:33Z</time></trkpt><trkpt lat="43.72148651160227" lon="10.380318414294864"><ele>-0.9999999999999999</ele><time>2026-04-06T14:44:42Z</time></trkpt><trkpt lat="43.72155915536677" lon="10.380287568265006"><ele>-1.0</ele><time>2026-04-06T14:44:45Z</time></trkpt><trkpt lat="43.721644091358726" lon="10.380247260694247"><ele>-1.0</ele><time>2026-04-06T14:44:47Z</time></trkpt><trkpt lat="43.72173228794962" lon="10.380208339583957"><ele>-1.0</ele><time>2026-04-06T14:44:49Z</time></trkpt><trkpt lat="43.721809108762955" lon="10.380180904199674"><ele>-0.9999999999999999</ele><time>2026-04-06T14:44:52Z</time></trkpt><trkpt lat="43.72187772173429" lon="10.38013912393663"><ele>-1.0</ele><time>2026-04-06T14:45:03Z</time></trkpt><trkpt lat="43.72196905710732" lon="10.38011515356156"><ele>-0.8333333333333333</ele><time>2026-04-06T14:45:05Z</time></trkpt><trkpt lat="43.722056042590744" lon="10.380089495763562"><ele>-0.6666666666666666</ele><time>2026-04-06T14:45:08Z</time></trkpt><trkpt lat="43.72212567267568" lon="10.380055079088033"><ele>-0.5</ele><time>2026-04-06T14:45:10Z</time></trkpt><trkpt lat="43.722232185427686" lon="10.380005569598923"><ele>-0.3333333333333333</ele><time>2026-04-06T14:45:12Z</time></trkpt><trkpt lat="43.72230231296394" lon="10.379980635408295"><ele>-0.16666666666666666</ele><time>2026-04-06T14:45:13Z</time></trkpt><trkpt lat="43.72237253841556" lon="10.379948934903902"><ele>0.0</ele><time>2026-04-06T14:45:14Z</time></trkpt><trkpt lat="43.72244521976483" lon="10.379919516351626"><ele>0.0</ele><time>2026-04-06T14:45:15Z</time></trkpt><trkpt lat="43.72251712519381" lon="10.379890473027674"><ele>0.0</ele><time>2026-04-06T14:45:16Z</time></trkpt><trkpt lat="43.722634836207895" lon="10.379835302321476"><ele>0.0</ele><time>2026-04-06T14:45:18Z</time></trkpt><trkpt lat="43.722696011288186" lon="10.37981002188833"><ele>0.0</ele><time>2026-04-06T14:45:19Z</time></trkpt><trkpt lat="43.72275953706531" lon="10.379789552332007"><ele>0.0</ele><time>2026-04-06T14:45:20Z</time></trkpt><trkpt lat="43.722826970638295" lon="10.379763935207007"><ele>0.0</ele><time>2026-04-06T14:45:21Z</time></trkpt><trkpt lat="43.722897468078166" lon="10.379737078503213"><ele>0.0</ele><time>2026-04-06T14:45:22Z</time></trkpt><trkpt lat="43.72296134425688" lon="10.379716263432371"><ele>0.0</ele><time>2026-04-06T14:45:23Z</time></trkpt><trkpt lat="43.72307251491839" lon="10.379668671469277"><ele>0.0</ele><time>2026-04-06T14:45:25Z</time></trkpt><trkpt lat="43.72317215045288" lon="10.37963137690693"><ele>0.0</ele><time>2026-04-06T14:45:27Z</time></trkpt><trkpt lat="43.72326770040724" lon="10.37957075711889"><ele>0.0</ele><time>2026-04-06T14:45:29Z</time></trkpt><trkpt lat="43.72335258538524" lon="10.379549256490607"><ele>0.0</ele><time>2026-04-06T14:45:31Z</time></trkpt><trkpt lat="43.7234519940625" lon="10.37958630409031"><ele>0.0</ele><time>2026-04-06T14:45:33Z</time></trkpt><trkpt lat="43.723495390042245" lon="10.37973581146568"><ele>0.0</ele><time>2026-04-06T14:45:35Z</time></trkpt><trkpt lat="43.72351086232721" lon="10.379824564409189"><ele>0.0</ele><time>2026-04-06T14:45:36Z</time></trkpt><trkpt lat="43.72354087276893" lon="10.379918570452276"><ele>0.0</ele><time>2026-04-06T14:45:37Z</time></trkpt><trkpt lat="43.72355145394244" lon="10.380031009412816"><ele>0.0</ele><time>2026-04-06T14:45:38Z</time></trkpt><trkpt lat="43.72356812734391" lon="10.380149950672228"><ele>0.4</ele><time>2026-04-06T14:45:39Z</time></trkpt><trkpt lat="43.72354725760689" lon="10.380288672079512"><ele>0.8</ele><time>2026-04-06T14:45:40Z</time></trkpt><trkpt lat="43.723565526887064" lon="10.380432015247303"><ele>1.2000000000000002</ele><time>2026-04-06T14:45:41Z</time></trkpt><trkpt lat="43.72358401333781" lon="10.380584099658172"><ele>1.6</ele><time>2026-04-06T14:45:42Z</time></trkpt><trkpt lat="43.72360427258288" lon="10.380750665373464"><ele>2.0</ele><time>2026-04-06T14:45:43Z</time></trkpt><trkpt lat="43.723626137279396" lon="10.38093093861953"><ele>2.0</ele><time>2026-04-06T14:45:44Z</time></trkpt><trkpt lat="43.723650115620494" lon="10.38112824547385"><ele>2.0</ele><time>2026-04-06T14:45:45Z</time></trkpt><trkpt lat="43.72367666351905" lon="10.3813459094383"><ele>2.0</ele><time>2026-04-06T14:45:46Z</time></trkpt><trkpt lat="43.72370270684245" lon="10.381563593662005"><ele>1.3333333333333333</ele><time>2026-04-06T14:45:47Z</time></trkpt><trkpt lat="43.723729534781654" lon="10.381780563974786"><ele>0.6666666666666666</ele><time>2026-04-06T14:45:48Z</time></trkpt><trkpt lat="43.72375638360764" lon="10.38199899182315"><ele>0.0</ele><time>2026-04-06T14:45:49Z</time></trkpt><trkpt lat="43.72378438219095" lon="10.38222427982116"><ele>0.0</ele><time>2026-04-06T14:45:50Z</time></trkpt><trkpt lat="43.72381209137016" lon="10.382451008515611"><ele>0.0</ele><time>2026-04-06T14:45:51Z</time></trkpt><trkpt lat="43.723840053046985" lon="10.382677576132059"><ele>0.0</ele><time>2026-04-06T14:45:52Z</time></trkpt><trkpt lat="43.72386834090565" lon="10.382909117504848"><ele>0.3333333333333333</ele><time>2026-04-06T14:45:53Z</time></trkpt><trkpt lat="43.72389571056954" lon="10.383132492933422"><ele>0.6666666666666666</ele><time>2026-04-06T14:45:54Z</time></trkpt><trkpt lat="43.723920718298665" lon="10.3833418652051"><ele>1.0</ele><time>2026-04-06T14:45:55Z</time></trkpt><trkpt lat="43.723945010892784" lon="10.3835432149451"><ele>1.0</ele><time>2026-04-06T14:45:56Z</time></trkpt><trkpt lat="43.72397051078194" lon="10.38375456984441"><ele>1.0</ele><time>2026-04-06T14:45:57Z</time></trkpt><trkpt lat="43.72399643212397" lon="10.383969414466648"><ele>1.0</ele><time>2026-04-06T14:45:58Z</time></trkpt><trkpt lat="43.724022053459144" lon="10.384181881313893"><ele>1.0</ele><time>2026-04-06T14:45:59Z</time></trkpt><trkpt lat="43.72404722976324" lon="10.384385310566886"><ele>1.0</ele><time>2026-04-06T14:46:00Z</time></trkpt><trkpt lat="43.72412103344358" lon="10.384570166415555"><ele>1.0</ele><time>2026-04-06T14:46:01Z</time></trkpt><trkpt lat="43.724142402938696" lon="10.384770826089897"><ele>1.0</ele><time>2026-04-06T14:46:02Z</time></trkpt><trkpt lat="43.72417017577526" lon="10.384977499835996"><ele>1.3333333333333333</ele><time>2026-04-06T14:46:03Z</time></trkpt><trkpt lat="43.72419306108272" lon="10.385188856612038"><ele>1.6666666666666665</ele><time>2026-04-06T14:46:04Z</time></trkpt><trkpt lat="43.724215700939205" lon="10.385400538067639"><ele>2.0</ele><time>2026-04-06T14:46:05Z</time></trkpt><trkpt lat="43.724243832066215" lon="10.385607390187035"><ele>2.0</ele><time>2026-04-06T14:46:06Z</time></trkpt><trkpt lat="43.72427413550916" lon="10.38579866407778"><ele>2.0</ele><time>2026-04-06T14:46:07Z</time></trkpt><trkpt lat="43.724299623053206" lon="10.385984349065396"><ele>2.0</ele><time>2026-04-06T14:46:08Z</time></trkpt><trkpt lat="43.72432321990092" lon="10.386166247194902"><ele>2.0</ele><time>2026-04-06T14:46:09Z</time></trkpt><trkpt lat="43.72434402448828" lon="10.386345754380597"><ele>2.0</ele><time>2026-04-06T14:46:10Z</time></trkpt><trkpt lat="43.72436487816481" lon="10.386524934267333"><ele>2.0</ele><time>2026-04-06T14:46:11Z</time></trkpt><trkpt lat="43.724388713033235" lon="10.386701768954785"><ele>2.0</ele><time>2026-04-06T14:46:12Z</time></trkpt><trkpt lat="43.72440969479949" lon="10.386871606321298"><ele>2.0</ele><time>2026-04-06T14:46:13Z</time></trkpt><trkpt lat="43.724429822672555" lon="10.387045512410818"><ele>2.5</ele><time>2026-04-06T14:46:14Z</time></trkpt><trkpt lat="43.724450041352725" lon="10.387215509801605"><ele>3.0</ele><time>2026-04-06T14:46:15.011Z</time></trkpt><trkpt lat="43.72447137538106" lon="10.38738690235659"><ele>3.5</ele><time>2026-04-06T14:46:16.018Z</time></trkpt><trkpt lat="43.724452859240714" lon="10.387564609659712"><ele>4.0</ele><time>2026-04-06T14:46:17Z</time></trkpt><trkpt lat="43.724473280435035" lon="10.387734246775345"><ele>4.0</ele><time>2026-04-06T14:46:18Z</time></trkpt><trkpt lat="43.72444103172102" lon="10.387909549555392"><ele>4.0</ele><time>2026-04-06T14:46:19Z</time></trkpt><trkpt lat="43.72444922670412" lon="10.388090958256365"><ele>4.0</ele><time>2026-04-06T14:46:20Z</time></trkpt><trkpt lat="43.724458375459" lon="10.388259565684532"><ele>4.0</ele><time>2026-04-06T14:46:21Z</time></trkpt><trkpt lat="43.724468842164" lon="10.388426975163624"><ele>3.6</ele><time>2026-04-06T14:46:22Z</time></trkpt><trkpt lat="43.72450004341663" lon="10.388590261011718"><ele>3.2</ele><time>2026-04-06T14:46:23Z</time></trkpt><trkpt lat="43.72455480773395" lon="10.38871514873109"><ele>2.8000000000000003</ele><time>2026-04-06T14:46:24Z</time></trkpt><trkpt lat="43.724603593885085" lon="10.388821271881836"><ele>2.4000000000000004</ele><time>2026-04-06T14:46:25Z</time></trkpt><trkpt lat="43.7246224293618" lon="10.388978857084508"><ele>2.0</ele><time>2026-04-06T14:46:26Z</time></trkpt><trkpt lat="43.72464140185278" lon="10.389138399825397"><ele>2.0</ele><time>2026-04-06T14:46:27.016Z</time></trkpt><trkpt lat="43.724798164371144" lon="10.389791177595397"><ele>2.0</ele><time>2026-04-06T14:46:35Z</time></trkpt><trkpt lat="43.724814460595546" lon="10.389936515741901"><ele>2.0</ele><time>2026-04-06T14:46:36Z</time></trkpt><trkpt lat="43.72479935535711" lon="10.390147336895726"><ele>2.0</ele><time>2026-04-06T14:46:37Z</time></trkpt><trkpt lat="43.72480372657435" lon="10.390326141158381"><ele>2.0</ele><time>2026-04-06T14:46:38Z</time></trkpt><trkpt lat="43.72482644805271" lon="10.390476604770178"><ele>1.9999999999999998</ele><time>2026-04-06T14:46:39Z</time></trkpt><trkpt lat="43.72484674925813" lon="10.390570981108764"><ele>2.0</ele><time>2026-04-06T14:46:40Z</time></trkpt><trkpt lat="43.72484998678837" lon="10.390663890364069"><ele>2.0</ele><time>2026-04-06T14:46:41Z</time></trkpt><trkpt lat="43.72487128934515" lon="10.390806220405807"><ele>2.0</ele><time>2026-04-06T14:46:43Z</time></trkpt><trkpt lat="43.724883059720824" lon="10.390908949294055"><ele>1.9999999999999998</ele><time>2026-04-06T14:46:45Z</time></trkpt><trkpt lat="43.72490173426193" lon="10.39102247726621"><ele>2.0</ele><time>2026-04-06T14:46:47Z</time></trkpt><trkpt lat="43.72487676523197" lon="10.391121786506647"><ele>2.0</ele><time>2026-04-06T14:46:49Z</time></trkpt><trkpt lat="43.72489149614882" lon="10.391209744336978"><ele>1.9999999999999998</ele><time>2026-04-06T14:46:53Z</time></trkpt><trkpt lat="43.724908017530815" lon="10.391308392717857"><ele>2.0</ele><time>2026-04-06T14:46:55Z</time></trkpt><trkpt lat="43.724923364749465" lon="10.391400029711518"><ele>2.0</ele><time>2026-04-06T14:46:58Z</time></trkpt><trkpt lat="43.72492796302152" lon="10.391495088544172"><ele>1.9999999999999998</ele><time>2026-04-06T14:47:01Z</time></trkpt><trkpt lat="43.724935437983106" lon="10.391606971792172"><ele>2.0</ele><time>2026-04-06T14:47:04Z</time></trkpt><trkpt lat="43.72494278432265" lon="10.391717257444215"><ele>2.0</ele><time>2026-04-06T14:47:07Z</time></trkpt><trkpt lat="43.724949437908684" lon="10.391828893374132"><ele>2.2</ele><time>2026-04-06T14:47:10Z</time></trkpt><trkpt lat="43.72495148667742" lon="10.391923755873076"><ele>2.4000000000000004</ele><time>2026-04-06T14:47:12Z</time></trkpt><trkpt lat="43.72494595207655" lon="10.392059292696068"><ele>2.5999999999999996</ele><time>2026-04-06T14:47:14Z</time></trkpt><trkpt lat="43.724927154667206" lon="10.392232768319806"><ele>2.8</ele><time>2026-04-06T14:47:16Z</time></trkpt><trkpt lat="43.724921261390186" lon="10.392349153831034"><ele>3.0</ele><time>2026-04-06T14:47:17Z</time></trkpt><trkpt lat="43.72490409489198" lon="10.392470063105884"><ele>2.9999999999999996</ele><time>2026-04-06T14:47:18Z</time></trkpt><trkpt lat="43.72488771326752" lon="10.392572920122385"><ele>3.0</ele><time>2026-04-06T14:47:19Z</time></trkpt><trkpt lat="43.724870900645215" lon="10.392671279137401"><ele>3.0</ele><time>2026-04-06T14:47:20Z</time></trkpt><trkpt lat="43.72485608919596" lon="10.392768343129823"><ele>3.0</ele><time>2026-04-06T14:47:21Z</time></trkpt><trkpt lat="43.72484137535711" lon="10.392868960165478"><ele>3.0</ele><time>2026-04-06T14:47:22Z</time></trkpt><trkpt lat="43.724817915077374" lon="10.39297025258928"><ele>2.9999999999999996</ele><time>2026-04-06T14:47:23Z</time></trkpt><trkpt lat="43.724802058823265" lon="10.393072686947685"><ele>3.0</ele><time>2026-04-06T14:47:24Z</time></trkpt><trkpt lat="43.72477807617562" lon="10.393213221445462"><ele>3.0</ele><time>2026-04-06T14:47:26Z</time></trkpt><trkpt lat="43.72476155191145" lon="10.393330386773805"><ele>3.0</ele><time>2026-04-06T14:47:28Z</time></trkpt><trkpt lat="43.724750491423805" lon="10.3934451821804"><ele>3.0</ele><time>2026-04-06T14:47:30Z</time></trkpt><trkpt lat="43.72469922303687" lon="10.393504160225573"><ele>3.0</ele><time>2026-04-06T14:47:31Z</time></trkpt><trkpt lat="43.72468297138266" lon="10.393589245508936"><ele>3.0</ele><time>2026-04-06T14:47:32Z</time></trkpt><trkpt lat="43.724665062828144" lon="10.393688611799991"><ele>3.0</ele><time>2026-04-06T14:47:33Z</time></trkpt><trkpt lat="43.72464407062186" lon="10.39379772366548"><ele>3.1666666666666665</ele><time>2026-04-06T14:47:34Z</time></trkpt><trkpt lat="43.724622373711675" lon="10.393911366521287"><ele>3.333333333333333</ele><time>2026-04-06T14:47:35Z</time></trkpt><trkpt lat="43.72459929452472" lon="10.394032249336068"><ele>3.5</ele><time>2026-04-06T14:47:36Z</time></trkpt><trkpt lat="43.72457618266275" lon="10.394153303336285"><ele>3.6666666666666665</ele><time>2026-04-06T14:47:37Z</time></trkpt><trkpt lat="43.72455657279556" lon="10.394256014753097"><ele>3.833333333333333</ele><time>2026-04-06T14:47:38Z</time></trkpt><trkpt lat="43.72454804439441" lon="10.394351483947423"><ele>4.0</ele><time>2026-04-06T14:47:39Z</time></trkpt><trkpt lat="43.724523866278986" lon="10.394465060554078"><ele>4.0</ele><time>2026-04-06T14:47:40Z</time></trkpt><trkpt lat="43.72450486362389" lon="10.39459080617653"><ele>4.0</ele><time>2026-04-06T14:47:41Z</time></trkpt><trkpt lat="43.72447934979055" lon="10.394731388984624"><ele>4.0</ele><time>2026-04-06T14:47:42Z</time></trkpt><trkpt lat="43.72445343369744" lon="10.394885249398694"><ele>4.0</ele><time>2026-04-06T14:47:43Z</time></trkpt><trkpt lat="43.72440662744756" lon="10.395041702135664"><ele>4.0</ele><time>2026-04-06T14:47:44Z</time></trkpt><trkpt lat="43.72437366068489" lon="10.395214310892122"><ele>4.2</ele><time>2026-04-06T14:47:45Z</time></trkpt><trkpt lat="43.72434520548496" lon="10.395381641293271"><ele>4.4</ele><time>2026-04-06T14:47:46Z</time></trkpt><trkpt lat="43.724313938696206" lon="10.395530892422794"><ele>4.6</ele><time>2026-04-06T14:47:47Z</time></trkpt><trkpt lat="43.72429194350926" lon="10.39566802588222"><ele>4.8</ele><time>2026-04-06T14:47:48Z</time></trkpt><trkpt lat="43.72426783966256" lon="10.395783580895168"><ele>5.0</ele><time>2026-04-06T14:47:49Z</time></trkpt><trkpt lat="43.72424634730329" lon="10.395886583661845"><ele>5.0</ele><time>2026-04-06T14:47:50Z</time></trkpt><trkpt lat="43.724229315582356" lon="10.395980877433038"><ele>5.0</ele><time>2026-04-06T14:47:51Z</time></trkpt><trkpt lat="43.72421407331573" lon="10.396076415478458"><ele>5.0</ele><time>2026-04-06T14:47:52Z</time></trkpt><trkpt lat="43.72419605375242" lon="10.396176485016193"><ele>5.0</ele><time>2026-04-06T14:47:53Z</time></trkpt><trkpt lat="43.72418050796186" lon="10.396282400042722"><ele>5.0</ele><time>2026-04-06T14:47:54Z</time></trkpt><trkpt lat="43.72415920811087" lon="10.396394151109753"><ele>5.0</ele><time>2026-04-06T14:47:55Z</time></trkpt><trkpt lat="43.72413300691293" lon="10.396509839696142"><ele>4.6</ele><time>2026-04-06T14:47:56Z</time></trkpt><trkpt lat="43.72411220676769" lon="10.396636176844101"><ele>4.2</ele><time>2026-04-06T14:47:57Z</time></trkpt><trkpt lat="43.72409603316575" lon="10.39675385816594"><ele>3.8</ele><time>2026-04-06T14:47:58Z</time></trkpt><trkpt lat="43.724057553811456" lon="10.396858177389015"><ele>3.4</ele><time>2026-04-06T14:47:59Z</time></trkpt><trkpt lat="43.72403784249617" lon="10.396984302219497"><ele>3.0</ele><time>2026-04-06T14:48:00Z</time></trkpt><trkpt lat="43.72400277722237" lon="10.397126476542706"><ele>3.25</ele><time>2026-04-06T14:48:01Z</time></trkpt><trkpt lat="43.72396294316476" lon="10.397275582723834"><ele>3.5</ele><time>2026-04-06T14:48:02Z</time></trkpt><trkpt lat="43.72391582349468" lon="10.39742023973455"><ele>3.75</ele><time>2026-04-06T14:48:03Z</time></trkpt><trkpt lat="43.723868199756254" lon="10.39756936210867"><ele>4.0</ele><time>2026-04-06T14:48:04Z</time></trkpt><trkpt lat="43.723821220312395" lon="10.397715500119704"><ele>4.0</ele><time>2026-04-06T14:48:05Z</time></trkpt><trkpt lat="43.72377553532426" lon="10.39785441455976"><ele>4.0</ele><time>2026-04-06T14:48:06Z</time></trkpt><trkpt lat="43.72373414109387" lon="10.397980282005154"><ele>4.0</ele><time>2026-04-06T14:48:07Z</time></trkpt><trkpt lat="43.72369480997767" lon="10.398099243603477"><ele>4.0</ele><time>2026-04-06T14:48:08Z</time></trkpt><trkpt lat="43.72365485804895" lon="10.398225387904724"><ele>4.0</ele><time>2026-04-06T14:48:09Z</time></trkpt><trkpt lat="43.723623608724196" lon="10.398324054813774"><ele>4.0</ele><time>2026-04-06T14:48:10Z</time></trkpt><trkpt lat="43.72358006351177" lon="10.398461601480857"><ele>4.0</ele><time>2026-04-06T14:48:12Z</time></trkpt><trkpt lat="43.72355443912684" lon="10.398551454473072"><ele>4.0</ele><time>2026-04-06T14:48:13Z</time></trkpt><trkpt lat="43.723509809380985" lon="10.398699217892538"><ele>4.0</ele><time>2026-04-06T14:48:15Z</time></trkpt><trkpt lat="43.723454907896375" lon="10.398855844506393"><ele>4.0</ele><time>2026-04-06T14:48:17Z</time></trkpt><trkpt lat="43.72343673343139" lon="10.398942413952602"><ele>4.333333333333333</ele><time>2026-04-06T14:48:18Z</time></trkpt><trkpt lat="43.723400875421476" lon="10.399092657721306"><ele>4.666666666666666</ele><time>2026-04-06T14:48:20Z</time></trkpt><trkpt lat="43.723365520324094" lon="10.39925077427817"><ele>5.0</ele><time>2026-04-06T14:48:22Z</time></trkpt><trkpt lat="43.72335205623576" lon="10.399340048456759"><ele>5.333333333333333</ele><time>2026-04-06T14:48:23Z</time></trkpt><trkpt lat="43.72333311093274" lon="10.399429335619681"><ele>5.666666666666667</ele><time>2026-04-06T14:48:24Z</time></trkpt><trkpt lat="43.72330489543538" lon="10.39950749268045"><ele>6.0</ele><time>2026-04-06T14:48:25Z</time></trkpt><trkpt lat="43.72327659387213" lon="10.399651290607265"><ele>6.0</ele><time>2026-04-06T14:48:27Z</time></trkpt><trkpt lat="43.723247542641246" lon="10.399797546466576"><ele>6.0</ele><time>2026-04-06T14:48:29Z</time></trkpt><trkpt lat="43.72322338924748" lon="10.39993182415169"><ele>6.0</ele><time>2026-04-06T14:48:31Z</time></trkpt><trkpt lat="43.72318628914161" lon="10.40005144875614"><ele>6.0</ele><time>2026-04-06T14:48:33Z</time></trkpt><trkpt lat="43.72316840618702" lon="10.400147669837702"><ele>6.0</ele><time>2026-04-06T14:48:36Z</time></trkpt><trkpt lat="43.723141198754746" lon="10.400249372839989"><ele>6.0</ele><time>2026-04-06T14:48:39Z</time></trkpt><trkpt lat="43.72311615707991" lon="10.400402609994558"><ele>6.0</ele><time>2026-04-06T14:48:41Z</time></trkpt><trkpt lat="43.72308918015432" lon="10.400507625775155"><ele>6.0</ele><time>2026-04-06T14:48:42Z</time></trkpt><trkpt lat="43.72305250506168" lon="10.400618240395202"><ele>6.0</ele><time>2026-04-06T14:48:43Z</time></trkpt><trkpt lat="43.72303191744846" lon="10.400729980785043"><ele>6.0</ele><time>2026-04-06T14:48:44Z</time></trkpt><trkpt lat="43.723011292652856" lon="10.400838961157719"><ele>6.0</ele><time>2026-04-06T14:48:45Z</time></trkpt><trkpt lat="43.722989859464406" lon="10.400936008762788"><ele>5.833333333333333</ele><time>2026-04-06T14:48:46Z</time></trkpt><trkpt lat="43.72297035394506" lon="10.401031974270186"><ele>5.666666666666667</ele><time>2026-04-06T14:48:47Z</time></trkpt><trkpt lat="43.72295300274425" lon="10.401136148064277"><ele>5.5</ele><time>2026-04-06T14:48:48Z</time></trkpt><trkpt lat="43.72293193695149" lon="10.401257027088409"><ele>5.333333333333334</ele><time>2026-04-06T14:48:49Z</time></trkpt><trkpt lat="43.72289938932757" lon="10.401380979777137"><ele>5.166666666666667</ele><time>2026-04-06T14:48:50Z</time></trkpt><trkpt lat="43.72286787172972" lon="10.401493170668676"><ele>5.0</ele><time>2026-04-06T14:48:51Z</time></trkpt><trkpt lat="43.72283359053806" lon="10.401588577486404"><ele>5.0</ele><time>2026-04-06T14:48:52Z</time></trkpt><trkpt lat="43.72281953450773" lon="10.40167972907674"><ele>5.0</ele><time>2026-04-06T14:48:53Z</time></trkpt><trkpt lat="43.722836509313716" lon="10.40177355676618"><ele>5.0</ele><time>2026-04-06T14:48:54Z</time></trkpt><trkpt lat="43.722823582991694" lon="10.40187610870241"><ele>5.0</ele><time>2026-04-06T14:48:55Z</time></trkpt><trkpt lat="43.72286880751723" lon="10.402002859770844"><ele>5.0</ele><time>2026-04-06T14:48:56Z</time></trkpt><trkpt lat="43.72289430081027" lon="10.40211169211412"><ele>5.0</ele><time>2026-04-06T14:48:57Z</time></trkpt><trkpt lat="43.722931721992886" lon="10.402218184728905"><ele>4.8</ele><time>2026-04-06T14:48:58Z</time></trkpt><trkpt lat="43.7229601578773" lon="10.402352023054178"><ele>4.6</ele><time>2026-04-06T14:48:59Z</time></trkpt><trkpt lat="43.72298811323128" lon="10.402485788290853"><ele>4.4</ele><time>2026-04-06T14:49:00Z</time></trkpt><trkpt lat="43.72301824267769" lon="10.402616883274948"><ele>4.2</ele><time>2026-04-06T14:49:01Z</time></trkpt><trkpt lat="43.72304914637661" lon="10.40275237661975"><ele>4.0</ele><time>2026-04-06T14:49:02Z</time></trkpt><trkpt lat="43.72307514750295" lon="10.402901729525238"><ele>4.0</ele><time>2026-04-06T14:49:03Z</time></trkpt><trkpt lat="43.723119978973095" lon="10.403077893885293"><ele>4.0</ele><time>2026-04-06T14:49:04Z</time></trkpt><trkpt lat="43.72317054746574" lon="10.403284948631919"><ele>4.0</ele><time>2026-04-06T14:49:05Z</time></trkpt><trkpt lat="43.723225871586784" lon="10.403511869132128"><ele>4.0</ele><time>2026-04-06T14:49:06Z</time></trkpt><trkpt lat="43.72328235176043" lon="10.403750030733136"><ele>4.0</ele><time>2026-04-06T14:49:07Z</time></trkpt><trkpt lat="43.72333579885025" lon="10.403973856932218"><ele>4.0</ele><time>2026-04-06T14:49:08Z</time></trkpt><trkpt lat="43.723379131126606" lon="10.404178403809876"><ele>4.5</ele><time>2026-04-06T14:49:09Z</time></trkpt><trkpt lat="43.723418984857005" lon="10.40436463585024"><ele>5.0</ele><time>2026-04-06T14:49:10Z</time></trkpt><trkpt lat="43.723462156485915" lon="10.404537774574427"><ele>5.5</ele><time>2026-04-06T14:49:11Z</time></trkpt><trkpt lat="43.723503321125484" lon="10.404700676869421"><ele>6.0</ele><time>2026-04-06T14:49:12Z</time></trkpt><trkpt lat="43.72351454437665" lon="10.404856907356754"><ele>6.25</ele><time>2026-04-06T14:49:13Z</time></trkpt><trkpt lat="43.723549609074816" lon="10.405027014812807"><ele>6.5</ele><time>2026-04-06T14:49:14Z</time></trkpt><trkpt lat="43.72358357356947" lon="10.405187917768558"><ele>6.75</ele><time>2026-04-06T14:49:15Z</time></trkpt><trkpt lat="43.723617486393145" lon="10.405342852724834"><ele>7.0</ele><time>2026-04-06T14:49:16Z</time></trkpt><trkpt lat="43.723658444605526" lon="10.405499129588621"><ele>6.3999999999999995</ele><time>2026-04-06T14:49:17Z</time></trkpt><trkpt lat="43.723702395582634" lon="10.405657362661193"><ele>5.799999999999999</ele><time>2026-04-06T14:49:18Z</time></trkpt><trkpt lat="43.72374185295188" lon="10.405804170347196"><ele>5.2</ele><time>2026-04-06T14:49:19Z</time></trkpt><trkpt lat="43.72377413880268" lon="10.405933853067404"><ele>4.6</ele><time>2026-04-06T14:49:20Z</time></trkpt><trkpt lat="43.72380924889035" lon="10.406064421579792"><ele>4.0</ele><time>2026-04-06T14:49:21Z</time></trkpt><trkpt lat="43.723843906724326" lon="10.406204107264164"><ele>3.8000000000000003</ele><time>2026-04-06T14:49:22Z</time></trkpt><trkpt lat="43.72387958569405" lon="10.40633081514053"><ele>3.6000000000000005</ele><time>2026-04-06T14:49:23Z</time></trkpt><trkpt lat="43.72389939140751" lon="10.406474756568064"><ele>3.4</ele><time>2026-04-06T14:49:24Z</time></trkpt><trkpt lat="43.72391268002248" lon="10.406615299974504"><ele>3.2</ele><time>2026-04-06T14:49:25Z</time></trkpt><trkpt lat="43.723954396479726" lon="10.406754533052798"><ele>3.0</ele><time>2026-04-06T14:49:26Z</time></trkpt><trkpt lat="43.72398493016012" lon="10.406888168306605"><ele>3.0</ele><time>2026-04-06T14:49:27Z</time></trkpt><trkpt lat="43.72402899575634" lon="10.407025328265664"><ele>3.0</ele><time>2026-04-06T14:49:28Z</time></trkpt><trkpt lat="43.72407119921821" lon="10.407165019436402"><ele>3.0</ele><time>2026-04-06T14:49:29Z</time></trkpt><trkpt lat="43.72410455977038" lon="10.407294875328002"><ele>3.0</ele><time>2026-04-06T14:49:30Z</time></trkpt><trkpt lat="43.7241348935582" lon="10.407432747243448"><ele>3.0</ele><time>2026-04-06T14:49:31Z</time></trkpt><trkpt lat="43.72416642599564" lon="10.40756867362514"><ele>3.2</ele><time>2026-04-06T14:49:32Z</time></trkpt><trkpt lat="43.72420158943114" lon="10.4077083709189"><ele>3.4</ele><time>2026-04-06T14:49:33Z</time></trkpt><trkpt lat="43.72423864099394" lon="10.407845243138167"><ele>3.6000000000000005</ele><time>2026-04-06T14:49:34Z</time></trkpt><trkpt lat="43.72427093927339" lon="10.40798182171013"><ele>3.8000000000000003</ele><time>2026-04-06T14:49:35Z</time></trkpt><trkpt lat="43.72428672297712" lon="10.408111831072247"><ele>4.0</ele><time>2026-04-06T14:49:36Z</time></trkpt><trkpt lat="43.72432213281049" lon="10.408231332693965"><ele>3.9999999999999996</ele><time>2026-04-06T14:49:37Z</time></trkpt><trkpt lat="43.724339368495016" lon="10.408333689578031"><ele>4.0</ele><time>2026-04-06T14:49:38Z</time></trkpt><trkpt lat="43.72437192429599" lon="10.408423066643206"><ele>4.0</ele><time>2026-04-06T14:49:39Z</time></trkpt><trkpt lat="43.724407697810165" lon="10.408497288397605"><ele>4.0</ele><time>2026-04-06T14:49:40Z</time></trkpt><trkpt lat="43.72443258089446" lon="10.40862415670079"><ele>3.9999999999999996</ele><time>2026-04-06T14:49:42Z</time></trkpt><trkpt lat="43.724487174659096" lon="10.408780615693658"><ele>4.0</ele><time>2026-04-06T14:49:44Z</time></trkpt><trkpt lat="43.72448890179279" lon="10.408881213801806"><ele>3.714285714285714</ele><time>2026-04-06T14:49:45Z</time></trkpt><trkpt lat="43.724473841010145" lon="10.408971877283804"><ele>3.428571428571428</ele><time>2026-04-06T14:49:46Z</time></trkpt><trkpt lat="43.72450933871218" lon="10.409072371599127"><ele>3.142857142857143</ele><time>2026-04-06T14:49:47Z</time></trkpt><trkpt lat="43.72457021781778" lon="10.40915005464754"><ele>2.8571428571428568</ele><time>2026-04-06T14:49:48Z</time></trkpt><trkpt lat="43.724611374265294" lon="10.409231149529099"><ele>2.571428571428571</ele><time>2026-04-06T14:49:49Z</time></trkpt><trkpt lat="43.72463546801088" lon="10.409320308994078"><ele>2.2857142857142856</ele><time>2026-04-06T14:49:50Z</time></trkpt><trkpt lat="43.72464253006357" lon="10.40941018614697"><ele>2.0</ele><time>2026-04-06T14:49:51Z</time></trkpt><trkpt lat="43.72461803963294" lon="10.40950376647611"><ele>2.0</ele><time>2026-04-06T14:49:52Z</time></trkpt><trkpt lat="43.724618964514036" lon="10.40966332696057"><ele>2.0</ele><time>2026-04-06T14:49:54Z</time></trkpt><trkpt lat="43.72468661988404" lon="10.409700867345702"><ele>2.0</ele><time>2026-04-06T14:49:55Z</time></trkpt><trkpt lat="43.724805523487696" lon="10.409799076136546"><ele>2.0</ele><time>2026-04-06T14:49:57Z</time></trkpt><trkpt lat="43.72480369819367" lon="10.409916658233278"><ele>2.0</ele><time>2026-04-06T14:49:58Z</time></trkpt><trkpt lat="43.72482955803912" lon="10.410028357759177"><ele>2.0</ele><time>2026-04-06T14:49:59Z</time></trkpt><trkpt lat="43.724869492770665" lon="10.410147218309671"><ele>2.0</ele><time>2026-04-06T14:50:00Z</time></trkpt><trkpt lat="43.724895017136426" lon="10.410310670506975"><ele>2.0</ele><time>2026-04-06T14:50:01Z</time></trkpt><trkpt lat="43.724941677620514" lon="10.410497570511899"><ele>2.0</ele><time>2026-04-06T14:50:02Z</time></trkpt><trkpt lat="43.724980079249214" lon="10.410678928501627"><ele>2.0</ele><time>2026-04-06T14:50:03Z</time></trkpt><trkpt lat="43.72501810626353" lon="10.410865471283964"><ele>2.0</ele><time>2026-04-06T14:50:04Z</time></trkpt><trkpt lat="43.7250648057493" lon="10.411044387297908"><ele>2.0</ele><time>2026-04-06T14:50:05Z</time></trkpt><trkpt lat="43.72510970359815" lon="10.411228542622043"><ele>2.0</ele><time>2026-04-06T14:50:06Z</time></trkpt><trkpt lat="43.72516772059896" lon="10.411412822707065"><ele>1.6666666666666665</ele><time>2026-04-06T14:50:07Z</time></trkpt><trkpt lat="43.72523587389969" lon="10.41160753281413"><ele>1.3333333333333333</ele><time>2026-04-06T14:50:08Z</time></trkpt><trkpt lat="43.72529368069538" lon="10.41181218791463"><ele>1.0</ele><time>2026-04-06T14:50:09Z</time></trkpt><trkpt lat="43.72536885379481" lon="10.411999752961064"><ele>1.75</ele><time>2026-04-06T14:50:10Z</time></trkpt><trkpt lat="43.72543847390899" lon="10.412189272333041"><ele>2.5</ele><time>2026-04-06T14:50:11Z</time></trkpt><trkpt lat="43.72550492820139" lon="10.412368246302668"><ele>3.25</ele><time>2026-04-06T14:50:12Z</time></trkpt><trkpt lat="43.72557378820585" lon="10.412542487768066"><ele>4.0</ele><time>2026-04-06T14:50:13Z</time></trkpt><trkpt lat="43.7256415608367" lon="10.412711537567654"><ele>4.0</ele><time>2026-04-06T14:50:14Z</time></trkpt><trkpt lat="43.7257128977071" lon="10.412880055055918"><ele>4.0</ele><time>2026-04-06T14:50:15Z</time></trkpt><trkpt lat="43.72578061124081" lon="10.41307137337606"><ele>4.0</ele><time>2026-04-06T14:50:16Z</time></trkpt><trkpt lat="43.72586910950401" lon="10.413237359759695"><ele>4.0</ele><time>2026-04-06T14:50:17Z</time></trkpt><trkpt lat="43.72595167733397" lon="10.413411508870077"><ele>4.0</ele><time>2026-04-06T14:50:18Z</time></trkpt><trkpt lat="43.72604681024492" lon="10.413588760836848"><ele>4.0</ele><time>2026-04-06T14:50:19Z</time></trkpt><trkpt lat="43.726143416379635" lon="10.413760301474944"><ele>4.0</ele><time>2026-04-06T14:50:20Z</time></trkpt><trkpt lat="43.72622410335159" lon="10.413942421965123"><ele>4.0</ele><time>2026-04-06T14:50:21Z</time></trkpt><trkpt lat="43.726316872612976" lon="10.414116469253067"><ele>4.0</ele><time>2026-04-06T14:50:22Z</time></trkpt><trkpt lat="43.72644762146437" lon="10.414269935943677"><ele>4.0</ele><time>2026-04-06T14:50:23Z</time></trkpt><trkpt lat="43.72656868918479" lon="10.414448300304425"><ele>4.0</ele><time>2026-04-06T14:50:24Z</time></trkpt><trkpt lat="43.726697787729016" lon="10.414626446396332"><ele>4.0</ele><time>2026-04-06T14:50:25Z</time></trkpt><trkpt lat="43.72683691100263" lon="10.41481786408206"><ele>4.0</ele><time>2026-04-06T14:50:26Z</time></trkpt><trkpt lat="43.726972440988675" lon="10.41499474394337"><ele>3.0</ele><time>2026-04-06T14:50:27Z</time></trkpt><trkpt lat="43.72712180497789" lon="10.415182502644726"><ele>2.0</ele><time>2026-04-06T14:50:28Z</time></trkpt><trkpt lat="43.72726787680101" lon="10.415381292083623"><ele>1.0</ele><time>2026-04-06T14:50:29Z</time></trkpt><trkpt lat="43.727408884432734" lon="10.415581849781967"><ele>1.0</ele><time>2026-04-06T14:50:30Z</time></trkpt><trkpt lat="43.72753282232642" lon="10.415765547462074"><ele>1.0</ele><time>2026-04-06T14:50:31Z</time></trkpt><trkpt lat="43.72766933394088" lon="10.41596188387354"><ele>1.0</ele><time>2026-04-06T14:50:32Z</time></trkpt><trkpt lat="43.727795276369456" lon="10.416150772614616"><ele>1.0</ele><time>2026-04-06T14:50:33Z</time></trkpt><trkpt lat="43.72790323379089" lon="10.416349142123247"><ele>1.0</ele><time>2026-04-06T14:50:34Z</time></trkpt><trkpt lat="43.72799069089581" lon="10.416502381275421"><ele>1.0</ele><time>2026-04-06T14:50:35Z</time></trkpt><trkpt lat="43.72809631048489" lon="10.416695179547522"><ele>1.0</ele><time>2026-04-06T14:50:36Z</time></trkpt><trkpt lat="43.728206333012615" lon="10.416903475076042"><ele>1.0</ele><time>2026-04-06T14:50:37Z</time></trkpt><trkpt lat="43.72830278279256" lon="10.417139319354925"><ele>1.0</ele><time>2026-04-06T14:50:38Z</time></trkpt><trkpt lat="43.728430351090815" lon="10.417347012520521"><ele>1.0</ele><time>2026-04-06T14:50:39Z</time></trkpt><trkpt lat="43.728558910249944" lon="10.417556318980232"><ele>1.0</ele><time>2026-04-06T14:50:40Z</time></trkpt><trkpt lat="43.72868756202522" lon="10.417765264605194"><ele>1.0</ele><time>2026-04-06T14:50:41Z</time></trkpt><trkpt lat="43.728817590116414" lon="10.417973425916497"><ele>1.0</ele><time>2026-04-06T14:50:42Z</time></trkpt><trkpt lat="43.72895287718994" lon="10.418177545746723"><ele>1.0</ele><time>2026-04-06T14:50:43Z</time></trkpt><trkpt lat="43.72909013097441" lon="10.418373510470708"><ele>1.0</ele><time>2026-04-06T14:50:44Z</time></trkpt><trkpt lat="43.729233309468654" lon="10.418561240107321"><ele>1.0</ele><time>2026-04-06T14:50:45Z</time></trkpt><trkpt lat="43.72938812579522" lon="10.418719966554443"><ele>1.0</ele><time>2026-04-06T14:50:46Z</time></trkpt><trkpt lat="43.72953099189749" lon="10.418896909130043"><ele>1.0</ele><time>2026-04-06T14:50:47Z</time></trkpt><trkpt lat="43.72967416155992" lon="10.419066110318184"><ele>0.6666666666666666</ele><time>2026-04-06T14:50:48Z</time></trkpt><trkpt lat="43.72980790396151" lon="10.41923376377032"><ele>0.3333333333333333</ele><time>2026-04-06T14:50:49Z</time></trkpt><trkpt lat="43.72993663602984" lon="10.41941244300614"><ele>0.0</ele><time>2026-04-06T14:50:50Z</time></trkpt><trkpt lat="43.73007266100258" lon="10.419612600400296"><ele>0.3333333333333333</ele><time>2026-04-06T14:50:51Z</time></trkpt><trkpt lat="43.730200289163044" lon="10.419802006179358"><ele>0.6666666666666666</ele><time>2026-04-06T14:50:52Z</time></trkpt><trkpt lat="43.73033867225313" lon="10.419981912639129"><ele>1.0</ele><time>2026-04-06T14:50:53Z</time></trkpt><trkpt lat="43.730472149855125" lon="10.420162679195984"><ele>1.0</ele><time>2026-04-06T14:50:54Z</time></trkpt><trkpt lat="43.73061274151894" lon="10.420332174211929"><ele>1.0</ele><time>2026-04-06T14:50:55Z</time></trkpt><trkpt lat="43.730757724013166" lon="10.420498133152728"><ele>1.0</ele><time>2026-04-06T14:50:56Z</time></trkpt><trkpt lat="43.730895609287124" lon="10.420660511188593"><ele>1.3333333333333333</ele><time>2026-04-06T14:50:57Z</time></trkpt><trkpt lat="43.73102382477145" lon="10.420842385758728"><ele>1.6666666666666665</ele><time>2026-04-06T14:50:58Z</time></trkpt><trkpt lat="43.731162935236775" lon="10.420996099542895"><ele>2.0</ele><time>2026-04-06T14:50:59Z</time></trkpt><trkpt lat="43.73131257765662" lon="10.421122944528204"><ele>2.0</ele><time>2026-04-06T14:51:00Z</time></trkpt><trkpt lat="43.73147305128521" lon="10.421216965004948"><ele>2.0</ele><time>2026-04-06T14:51:01Z</time></trkpt><trkpt lat="43.73164294323512" lon="10.421336243522822"><ele>2.0</ele><time>2026-04-06T14:51:02Z</time></trkpt><trkpt lat="43.731814553017166" lon="10.421420774462307"><ele>3.0</ele><time>2026-04-06T14:51:03Z</time></trkpt><trkpt lat="43.73199092569686" lon="10.421500299444658"><ele>4.0</ele><time>2026-04-06T14:51:04Z</time></trkpt><trkpt lat="43.732166557547565" lon="10.421576995037432"><ele>5.0</ele><time>2026-04-06T14:51:05Z</time></trkpt><trkpt lat="43.73234165188856" lon="10.421644934632676"><ele>5.0</ele><time>2026-04-06T14:51:06Z</time></trkpt><trkpt lat="43.73251656483562" lon="10.421712002399456"><ele>5.0</ele><time>2026-04-06T14:51:07Z</time></trkpt><trkpt lat="43.732695849743294" lon="10.421789833858073"><ele>5.0</ele><time>2026-04-06T14:51:08Z</time></trkpt><trkpt lat="43.7328701009641" lon="10.421876794069957"><ele>4.666666666666667</ele><time>2026-04-06T14:51:09Z</time></trkpt><trkpt lat="43.73303789848383" lon="10.421970078861364"><ele>4.333333333333333</ele><time>2026-04-06T14:51:10Z</time></trkpt><trkpt lat="43.733209346069174" lon="10.42206122832708"><ele>4.0</ele><time>2026-04-06T14:51:11Z</time></trkpt><trkpt lat="43.73337832545728" lon="10.422152491339952"><ele>4.333333333333333</ele><time>2026-04-06T14:51:12Z</time></trkpt><trkpt lat="43.7335508012549" lon="10.422238332344792"><ele>4.666666666666667</ele><time>2026-04-06T14:51:13Z</time></trkpt><trkpt lat="43.7337237952514" lon="10.422324030037892"><ele>5.0</ele><time>2026-04-06T14:51:14Z</time></trkpt><trkpt lat="43.733894762113906" lon="10.422406028656905"><ele>5.0</ele><time>2026-04-06T14:51:15Z</time></trkpt><trkpt lat="43.73406613780765" lon="10.422492899359058"><ele>5.0</ele><time>2026-04-06T14:51:16Z</time></trkpt><trkpt lat="43.734236091647595" lon="10.42257635525475"><ele>5.0</ele><time>2026-04-06T14:51:17Z</time></trkpt><trkpt lat="43.734413548323424" lon="10.422656117772185"><ele>4.666666666666667</ele><time>2026-04-06T14:51:18Z</time></trkpt><trkpt lat="43.73458894883864" lon="10.422730712087594"><ele>4.333333333333333</ele><time>2026-04-06T14:51:19Z</time></trkpt><trkpt lat="43.73475920188468" lon="10.422807469367376"><ele>4.0</ele><time>2026-04-06T14:51:20Z</time></trkpt><trkpt lat="43.7349353806926" lon="10.422887065373423"><ele>4.0</ele><time>2026-04-06T14:51:21Z</time></trkpt><trkpt lat="43.73510854090318" lon="10.422971772598423"><ele>4.0</ele><time>2026-04-06T14:51:22Z</time></trkpt><trkpt lat="43.73528047814246" lon="10.423066762715667"><ele>4.0</ele><time>2026-04-06T14:51:23Z</time></trkpt><trkpt lat="43.735449211653886" lon="10.423163439092937"><ele>3.333333333333333</ele><time>2026-04-06T14:51:24Z</time></trkpt><trkpt lat="43.735618607308545" lon="10.423256390672227"><ele>2.6666666666666665</ele><time>2026-04-06T14:51:25Z</time></trkpt><trkpt lat="43.73579278506114" lon="10.423351038201755"><ele>2.0</ele><time>2026-04-06T14:51:26Z</time></trkpt><trkpt lat="43.73596324415988" lon="10.423447191348442"><ele>1.6666666666666665</ele><time>2026-04-06T14:51:27Z</time></trkpt><trkpt lat="43.73613114193033" lon="10.423542844059384"><ele>1.3333333333333333</ele><time>2026-04-06T14:51:28Z</time></trkpt><trkpt lat="43.73629451151358" lon="10.423633416610231"><ele>1.0</ele><time>2026-04-06T14:51:29Z</time></trkpt><trkpt lat="43.736449464598856" lon="10.423715028751564"><ele>1.0</ele><time>2026-04-06T14:51:30Z</time></trkpt><trkpt lat="43.73659570714731" lon="10.423791789265405"><ele>1.0</ele><time>2026-04-06T14:51:31Z</time></trkpt><trkpt lat="43.73674194941549" lon="10.423876647161919"><ele>1.0</ele><time>2026-04-06T14:51:32Z</time></trkpt><trkpt lat="43.73688541511158" lon="10.423956005789652"><ele>1.3333333333333333</ele><time>2026-04-06T14:51:33Z</time></trkpt><trkpt lat="43.737029823324015" lon="10.424039836439391"><ele>1.6666666666666665</ele><time>2026-04-06T14:51:34Z</time></trkpt><trkpt lat="43.737186994200584" lon="10.424133014162221"><ele>2.0</ele><time>2026-04-06T14:51:35Z</time></trkpt><trkpt lat="43.737345285674245" lon="10.424220378087423"><ele>2.0</ele><time>2026-04-06T14:51:36Z</time></trkpt><trkpt lat="43.737507947665065" lon="10.424308222801496"><ele>2.0</ele><time>2026-04-06T14:51:37Z</time></trkpt><trkpt lat="43.73767103104172" lon="10.42439674473427"><ele>2.0</ele><time>2026-04-06T14:51:38Z</time></trkpt><trkpt lat="43.737842499114684" lon="10.424480227127075"><ele>1.3333333333333333</ele><time>2026-04-06T14:51:39Z</time></trkpt><trkpt lat="43.73801285092275" lon="10.42456100852263"><ele>0.6666666666666666</ele><time>2026-04-06T14:51:40Z</time></trkpt><trkpt lat="43.738183580311244" lon="10.424636768214906"><ele>0.0</ele><time>2026-04-06T14:51:41Z</time></trkpt><trkpt lat="43.73835633478822" lon="10.42471669256985"><ele>0.0</ele><time>2026-04-06T14:51:42Z</time></trkpt><trkpt lat="43.738528447025395" lon="10.42479929157241"><ele>0.0</ele><time>2026-04-06T14:51:43Z</time></trkpt><trkpt lat="43.738698986515566" lon="10.424878476653307"><ele>0.0</ele><time>2026-04-06T14:51:44Z</time></trkpt><trkpt lat="43.73886902920134" lon="10.42495795724274"><ele>0.0</ele><time>2026-04-06T14:51:45Z</time></trkpt><trkpt lat="43.73903772643434" lon="10.425035570850426"><ele>0.0</ele><time>2026-04-06T14:51:46Z</time></trkpt><trkpt lat="43.739205980174255" lon="10.425114758123604"><ele>0.0</ele><time>2026-04-06T14:51:47Z</time></trkpt><trkpt lat="43.73937214163125" lon="10.42519232181302"><ele>-0.3333333333333333</ele><time>2026-04-06T14:51:48Z</time></trkpt><trkpt lat="43.73954112927709" lon="10.42526571113372"><ele>-0.6666666666666666</ele><time>2026-04-06T14:51:49Z</time></trkpt><trkpt lat="43.73970373636418" lon="10.42534415160993"><ele>-1.0</ele><time>2026-04-06T14:51:50Z</time></trkpt><trkpt lat="43.73985776707357" lon="10.42543600851952"><ele>0.0</ele><time>2026-04-06T14:51:51Z</time></trkpt><trkpt lat="43.740007642545635" lon="10.425542957100816"><ele>1.0</ele><time>2026-04-06T14:51:52Z</time></trkpt><trkpt lat="43.74015763244816" lon="10.425660943219974"><ele>2.0</ele><time>2026-04-06T14:51:53Z</time></trkpt><trkpt lat="43.740305983867415" lon="10.425778866853395"><ele>2.0</ele><time>2026-04-06T14:51:54Z</time></trkpt><trkpt lat="43.740451698420706" lon="10.425901764264564"><ele>2.0</ele><time>2026-04-06T14:51:55Z</time></trkpt><trkpt lat="43.74060231308084" lon="10.4260241854159"><ele>2.0</ele><time>2026-04-06T14:51:56Z</time></trkpt><trkpt lat="43.74075479947967" lon="10.426149359476527"><ele>2.0</ele><time>2026-04-06T14:51:57Z</time></trkpt><trkpt lat="43.74090247356479" lon="10.426274862194525"><ele>2.0</ele><time>2026-04-06T14:51:58Z</time></trkpt><trkpt lat="43.74104867336465" lon="10.426405996309507"><ele>2.0</ele><time>2026-04-06T14:51:59Z</time></trkpt><trkpt lat="43.74119178985298" lon="10.426541022126917"><ele>2.0</ele><time>2026-04-06T14:52:00Z</time></trkpt><trkpt lat="43.741325677296665" lon="10.426696245616885"><ele>2.0</ele><time>2026-04-06T14:52:01Z</time></trkpt><trkpt lat="43.741466119389116" lon="10.426830507940238"><ele>2.0</ele><time>2026-04-06T14:52:02Z</time></trkpt><trkpt lat="43.741617318850686" lon="10.426946002020122"><ele>2.0</ele><time>2026-04-06T14:52:03Z</time></trkpt><trkpt lat="43.74174872827449" lon="10.427101936525492"><ele>2.0</ele><time>2026-04-06T14:52:04Z</time></trkpt><trkpt lat="43.741885415106836" lon="10.427234978682197"><ele>2.0</ele><time>2026-04-06T14:52:05Z</time></trkpt><trkpt lat="43.74203306495275" lon="10.427348086942937"><ele>2.333333333333333</ele><time>2026-04-06T14:52:06Z</time></trkpt><trkpt lat="43.742168977548815" lon="10.427481437199736"><ele>2.6666666666666665</ele><time>2026-04-06T14:52:07Z</time></trkpt><trkpt lat="43.742306730190926" lon="10.427615040989824"><ele>3.0</ele><time>2026-04-06T14:52:08Z</time></trkpt><trkpt lat="43.74244383203443" lon="10.427748190970052"><ele>3.0</ele><time>2026-04-06T14:52:09Z</time></trkpt><trkpt lat="43.74257697578718" lon="10.427876328641524"><ele>3.0</ele><time>2026-04-06T14:52:10Z</time></trkpt><trkpt lat="43.74270214735677" lon="10.42799701575177"><ele>3.0</ele><time>2026-04-06T14:52:11Z</time></trkpt><trkpt lat="43.742823448805325" lon="10.428130821619435"><ele>2.6666666666666665</ele><time>2026-04-06T14:52:12Z</time></trkpt><trkpt lat="43.742957898840054" lon="10.428262970273707"><ele>2.333333333333333</ele><time>2026-04-06T14:52:13Z</time></trkpt><trkpt lat="43.74309422572892" lon="10.428393521809596"><ele>2.0</ele><time>2026-04-06T14:52:14Z</time></trkpt><trkpt lat="43.743231339307904" lon="10.428522253284166"><ele>2.0</ele><time>2026-04-06T14:52:15Z</time></trkpt><trkpt lat="43.74336738799446" lon="10.428657097597757"><ele>2.0</ele><time>2026-04-06T14:52:16Z</time></trkpt><trkpt lat="43.743506668296064" lon="10.428789829569027"><ele>2.0</ele><time>2026-04-06T14:52:17Z</time></trkpt><trkpt lat="43.74364912057837" lon="10.428914859847518"><ele>2.333333333333333</ele><time>2026-04-06T14:52:18Z</time></trkpt><trkpt lat="43.743787936715755" lon="10.42903554835821"><ele>2.6666666666666665</ele><time>2026-04-06T14:52:19Z</time></trkpt><trkpt lat="43.7439287376705" lon="10.429154496315945"><ele>3.0</ele><time>2026-04-06T14:52:20Z</time></trkpt><trkpt lat="43.74406969050926" lon="10.429275300848557"><ele>3.0</ele><time>2026-04-06T14:52:21Z</time></trkpt><trkpt lat="43.74420931474421" lon="10.429392710858432"><ele>3.0</ele><time>2026-04-06T14:52:22Z</time></trkpt><trkpt lat="43.744349982242305" lon="10.429511289601413"><ele>3.0</ele><time>2026-04-06T14:52:23Z</time></trkpt><trkpt lat="43.74448865247384" lon="10.42962895875789"><ele>3.333333333333333</ele><time>2026-04-06T14:52:24Z</time></trkpt><trkpt lat="43.74462771400045" lon="10.429748020617934"><ele>3.6666666666666665</ele><time>2026-04-06T14:52:25Z</time></trkpt><trkpt lat="43.74475576880106" lon="10.4298557260907"><ele>4.0</ele><time>2026-04-06T14:52:26Z</time></trkpt><trkpt lat="43.744879700913934" lon="10.42996237208776"><ele>4.0</ele><time>2026-04-06T14:52:27Z</time></trkpt><trkpt lat="43.74500332196963" lon="10.430070403143985"><ele>4.0</ele><time>2026-04-06T14:52:28Z</time></trkpt><trkpt lat="43.74512877026318" lon="10.430177309776425"><ele>4.0</ele><time>2026-04-06T14:52:29Z</time></trkpt><trkpt lat="43.745247770190915" lon="10.430273918963023"><ele>4.0</ele><time>2026-04-06T14:52:30Z</time></trkpt><trkpt lat="43.745366791235455" lon="10.430370645349479"><ele>3.75</ele><time>2026-04-06T14:52:31Z</time></trkpt><trkpt lat="43.74548951068881" lon="10.430468628482338"><ele>3.5</ele><time>2026-04-06T14:52:32Z</time></trkpt><trkpt lat="43.74561556696898" lon="10.43057309171212"><ele>3.25</ele><time>2026-04-06T14:52:33Z</time></trkpt><trkpt lat="43.745744550087565" lon="10.430683363624192"><ele>3.0</ele><time>2026-04-06T14:52:34Z</time></trkpt><trkpt lat="43.745871879812604" lon="10.430791545880108"><ele>3.0</ele><time>2026-04-06T14:52:35Z</time></trkpt><trkpt lat="43.74600476750203" lon="10.430899033881389"><ele>3.0</ele><time>2026-04-06T14:52:36Z</time></trkpt><trkpt lat="43.746131502836896" lon="10.430999010998748"><ele>3.0</ele><time>2026-04-06T14:52:37Z</time></trkpt><trkpt lat="43.74626094093933" lon="10.431101410253136"><ele>3.0</ele><time>2026-04-06T14:52:38Z</time></trkpt><trkpt lat="43.74638595324878" lon="10.431212948647223"><ele>2.3333333333333335</ele><time>2026-04-06T14:52:39Z</time></trkpt><trkpt lat="43.746516687754216" lon="10.431318294076222"><ele>1.6666666666666665</ele><time>2026-04-06T14:52:40Z</time></trkpt><trkpt lat="43.74664630452803" lon="10.431426643049047"><ele>1.0</ele><time>2026-04-06T14:52:41Z</time></trkpt><trkpt lat="43.746776396971974" lon="10.431538376723278"><ele>1.0</ele><time>2026-04-06T14:52:42Z</time></trkpt><trkpt lat="43.74690270944782" lon="10.431655019509117"><ele>1.0</ele><time>2026-04-06T14:52:43Z</time></trkpt><trkpt lat="43.74703098963456" lon="10.431774929943993"><ele>1.0</ele><time>2026-04-06T14:52:44Z</time></trkpt><trkpt lat="43.74715916149795" lon="10.43189145027579"><ele>1.0</ele><time>2026-04-06T14:52:45Z</time></trkpt><trkpt lat="43.74729036262361" lon="10.432009503174042"><ele>1.0</ele><time>2026-04-06T14:52:46Z</time></trkpt><trkpt lat="43.747425083886924" lon="10.432126219622939"><ele>1.0</ele><time>2026-04-06T14:52:47Z</time></trkpt><trkpt lat="43.74755683439117" lon="10.432242007774443"><ele>1.0</ele><time>2026-04-06T14:52:48Z</time></trkpt><trkpt lat="43.74768921865168" lon="10.432361043467381"><ele>1.0</ele><time>2026-04-06T14:52:49Z</time></trkpt><trkpt lat="43.74782190087601" lon="10.432481208204377"><ele>1.0</ele><time>2026-04-06T14:52:50Z</time></trkpt><trkpt lat="43.74795968838458" lon="10.432595946904268"><ele>1.3333333333333333</ele><time>2026-04-06T14:52:51Z</time></trkpt><trkpt lat="43.748097107945064" lon="10.432711094642668"><ele>1.6666666666666665</ele><time>2026-04-06T14:52:52Z</time></trkpt><trkpt lat="43.7482190403805" lon="10.432827573574473"><ele>2.0</ele><time>2026-04-06T14:52:53Z</time></trkpt><trkpt lat="43.748351991545334" lon="10.432942567902776"><ele>2.0</ele><time>2026-04-06T14:52:54Z</time></trkpt><trkpt lat="43.74848252907555" lon="10.433057326748314"><ele>2.0</ele><time>2026-04-06T14:52:55Z</time></trkpt><trkpt lat="43.74860872699064" lon="10.433170450550984"><ele>2.0</ele><time>2026-04-06T14:52:56Z</time></trkpt><trkpt lat="43.74873873464062" lon="10.433276698384487"><ele>2.0</ele><time>2026-04-06T14:52:57Z</time></trkpt><trkpt lat="43.7488661285207" lon="10.433377532092182"><ele>2.0</ele><time>2026-04-06T14:52:58Z</time></trkpt><trkpt lat="43.748996749659895" lon="10.43348045315311"><ele>2.0</ele><time>2026-04-06T14:52:59Z</time></trkpt><trkpt lat="43.74912403647998" lon="10.433577762244711"><ele>2.0</ele><time>2026-04-06T14:53:00Z</time></trkpt><trkpt lat="43.749253078448675" lon="10.433675136880764"><ele>2.0</ele><time>2026-04-06T14:53:01Z</time></trkpt><trkpt lat="43.74938405614355" lon="10.433774626975248"><ele>2.0</ele><time>2026-04-06T14:53:02Z</time></trkpt><trkpt lat="43.74951059597831" lon="10.433875238384045"><ele>2.0</ele><time>2026-04-06T14:53:03Z</time></trkpt><trkpt lat="43.74963494516404" lon="10.433976900788181"><ele>2.0</ele><time>2026-04-06T14:53:04Z</time></trkpt><trkpt lat="43.74975849660396" lon="10.434072228072756"><ele>2.0</ele><time>2026-04-06T14:53:05Z</time></trkpt><trkpt lat="43.74988180967351" lon="10.434168067794156"><ele>2.0</ele><time>2026-04-06T14:53:06Z</time></trkpt><trkpt lat="43.75000381794" lon="10.43426320969062"><ele>2.0</ele><time>2026-04-06T14:53:07Z</time></trkpt><trkpt lat="43.75012737908382" lon="10.434361129492087"><ele>2.0</ele><time>2026-04-06T14:53:08Z</time></trkpt><trkpt lat="43.750252167879346" lon="10.434456207212344"><ele>2.0</ele><time>2026-04-06T14:53:09Z</time></trkpt><trkpt lat="43.750377584296594" lon="10.43454976334175"><ele>2.0</ele><time>2026-04-06T14:53:10Z</time></trkpt><trkpt lat="43.750502845528885" lon="10.434645535143341"><ele>2.0</ele><time>2026-04-06T14:53:11Z</time></trkpt><trkpt lat="43.75063064985283" lon="10.43474829557856"><ele>2.0</ele><time>2026-04-06T14:53:12Z</time></trkpt><trkpt lat="43.750755222817126" lon="10.434853528305636"><ele>2.0</ele><time>2026-04-06T14:53:13Z</time></trkpt><trkpt lat="43.75087761017031" lon="10.434964176615123"><ele>2.0</ele><time>2026-04-06T14:53:14Z</time></trkpt><trkpt lat="43.750993019390265" lon="10.43507602701597"><ele>2.0</ele><time>2026-04-06T14:53:15Z</time></trkpt><trkpt lat="43.75111271151023" lon="10.435184329225974"><ele>2.0</ele><time>2026-04-06T14:53:16Z</time></trkpt><trkpt lat="43.75123255571592" lon="10.43529308261039"><ele>1.6666666666666665</ele><time>2026-04-06T14:53:17Z</time></trkpt><trkpt lat="43.751355182396054" lon="10.435406924835695"><ele>1.3333333333333333</ele><time>2026-04-06T14:53:18Z</time></trkpt><trkpt lat="43.75148385898725" lon="10.435524966971267"><ele>1.0</ele><time>2026-04-06T14:53:19Z</time></trkpt><trkpt lat="43.751612916234954" lon="10.435651573974228"><ele>1.3333333333333333</ele><time>2026-04-06T14:53:20Z</time></trkpt><trkpt lat="43.7517397138545" lon="10.435781738436697"><ele>1.6666666666666665</ele><time>2026-04-06T14:53:21Z</time></trkpt><trkpt lat="43.75186759187745" lon="10.435911292353788"><ele>2.0</ele><time>2026-04-06T14:53:22Z</time></trkpt><trkpt lat="43.75200131753573" lon="10.436028521578793"><ele>2.0</ele><time>2026-04-06T14:53:23Z</time></trkpt><trkpt lat="43.752138111073414" lon="10.436128476675462"><ele>2.0</ele><time>2026-04-06T14:53:24Z</time></trkpt><trkpt lat="43.752287832229655" lon="10.436209801573915"><ele>2.0</ele><time>2026-04-06T14:53:25Z</time></trkpt><trkpt lat="43.75243869610884" lon="10.436275817408482"><ele>2.0</ele><time>2026-04-06T14:53:26Z</time></trkpt><trkpt lat="43.752580620279396" lon="10.436336476535386"><ele>2.0</ele><time>2026-04-06T14:53:27Z</time></trkpt><trkpt lat="43.75272270464611" lon="10.436393558791897"><ele>2.0</ele><time>2026-04-06T14:53:28Z</time></trkpt><trkpt lat="43.75286649176174" lon="10.43646173053703"><ele>2.0</ele><time>2026-04-06T14:53:29Z</time></trkpt><trkpt lat="43.75300328939223" lon="10.436535975744647"><ele>2.25</ele><time>2026-04-06T14:53:30Z</time></trkpt><trkpt lat="43.75314001645587" lon="10.436616794442243"><ele>2.5</ele><time>2026-04-06T14:53:31Z</time></trkpt><trkpt lat="43.7532727634928" lon="10.436702388730275"><ele>2.75</ele><time>2026-04-06T14:53:32Z</time></trkpt><trkpt lat="43.75340370110278" lon="10.436795262687713"><ele>3.0</ele><time>2026-04-06T14:53:33Z</time></trkpt><trkpt lat="43.75352233236971" lon="10.436891982332568"><ele>3.0</ele><time>2026-04-06T14:53:34Z</time></trkpt><trkpt lat="43.75363946110021" lon="10.43698908284802"><ele>3.0</ele><time>2026-04-06T14:53:35Z</time></trkpt><trkpt lat="43.753762324638835" lon="10.437081423798283"><ele>3.0</ele><time>2026-04-06T14:53:36Z</time></trkpt><trkpt lat="43.753872118571124" lon="10.437193492142551"><ele>3.0</ele><time>2026-04-06T14:53:37Z</time></trkpt><trkpt lat="43.753983426408006" lon="10.437293304135945"><ele>3.0</ele><time>2026-04-06T14:53:38Z</time></trkpt><trkpt lat="43.754084364538265" lon="10.437408981308094"><ele>3.0</ele><time>2026-04-06T14:53:39Z</time></trkpt><trkpt lat="43.75417885754533" lon="10.437536858791457"><ele>3.0</ele><time>2026-04-06T14:53:40Z</time></trkpt><trkpt lat="43.754271190950796" lon="10.43766415886716"><ele>3.0</ele><time>2026-04-06T14:53:41Z</time></trkpt><trkpt lat="43.754373753493546" lon="10.437788138740853"><ele>3.0</ele><time>2026-04-06T14:53:42Z</time></trkpt><trkpt lat="43.75449239387321" lon="10.437904815819685"><ele>3.0</ele><time>2026-04-06T14:53:43Z</time></trkpt><trkpt lat="43.75462838974704" lon="10.437965710634368"><ele>3.0</ele><time>2026-04-06T14:53:44Z</time></trkpt><trkpt lat="43.75475709956714" lon="10.438039900594218"><ele>3.0</ele><time>2026-04-06T14:53:45Z</time></trkpt><trkpt lat="43.75488778948671" lon="10.438086783752054"><ele>3.0</ele><time>2026-04-06T14:53:46Z</time></trkpt><trkpt lat="43.7550051374036" lon="10.438111020591371"><ele>3.0</ele><time>2026-04-06T14:53:47Z</time></trkpt><trkpt lat="43.75512729913363" lon="10.438124421116063"><ele>3.0</ele><time>2026-04-06T14:53:48Z</time></trkpt><trkpt lat="43.75523761845029" lon="10.43813532429806"><ele>3.0</ele><time>2026-04-06T14:53:49Z</time></trkpt><trkpt lat="43.75533913394504" lon="10.438143880831007"><ele>2.6</ele><time>2026-04-06T14:53:50Z</time></trkpt><trkpt lat="43.755439659876025" lon="10.438157576632392"><ele>2.1999999999999997</ele><time>2026-04-06T14:53:51Z</time></trkpt><trkpt lat="43.75552902796666" lon="10.438161570971646"><ele>1.8</ele><time>2026-04-06T14:53:52Z</time></trkpt><trkpt lat="43.75560325203579" lon="10.438154417537787"><ele>1.4</ele><time>2026-04-06T14:53:53Z</time></trkpt><trkpt lat="43.755706825926964" lon="10.438121358372673"><ele>1.0</ele><time>2026-04-06T14:53:55Z</time></trkpt><trkpt lat="43.75582799973216" lon="10.438121532539894"><ele>1.0</ele><time>2026-04-06T14:53:57Z</time></trkpt><trkpt lat="43.755904491206024" lon="10.438126777753727"><ele>0.9999999999999999</ele><time>2026-04-06T14:53:58Z</time></trkpt><trkpt lat="43.75598371739494" lon="10.438155891560381"><ele>1.0</ele><time>2026-04-06T14:53:59Z</time></trkpt><trkpt lat="43.75606046271868" lon="10.438183759704811"><ele>1.0</ele><time>2026-04-06T14:54:00Z</time></trkpt><trkpt lat="43.75613083035441" lon="10.438180652688406"><ele>0.9999999999999999</ele><time>2026-04-06T14:54:01Z</time></trkpt><trkpt lat="43.756191950558986" lon="10.438140512235064"><ele>1.0</ele><time>2026-04-06T14:54:02Z</time></trkpt><trkpt lat="43.75624384060291" lon="10.438070848523001"><ele>1.0</ele><time>2026-04-06T14:54:03Z</time></trkpt><trkpt lat="43.756281695343404" lon="10.43797458016044"><ele>0.75</ele><time>2026-04-06T14:54:04Z</time></trkpt><trkpt lat="43.75630239621084" lon="10.43785769007951"><ele>0.5</ele><time>2026-04-06T14:54:05Z</time></trkpt><trkpt lat="43.75633020249882" lon="10.437727501512828"><ele>0.25</ele><time>2026-04-06T14:54:06Z</time></trkpt><trkpt lat="43.756392449815145" lon="10.437581611306939"><ele>0.0</ele><time>2026-04-06T14:54:07Z</time></trkpt><trkpt lat="43.75647470322762" lon="10.437416342448888"><ele>0.0</ele><time>2026-04-06T14:54:08Z</time></trkpt><trkpt lat="43.756582189894566" lon="10.437243248416635"><ele>0.0</ele><time>2026-04-06T14:54:09Z</time></trkpt><trkpt lat="43.756688481252255" lon="10.437046930673613"><ele>0.0</ele><time>2026-04-06T14:54:10Z</time></trkpt><trkpt lat="43.75680893720494" lon="10.436859285235744"><ele>0.6666666666666666</ele><time>2026-04-06T14:54:11Z</time></trkpt><trkpt lat="43.75692904158209" lon="10.43667221150146"><ele>1.3333333333333333</ele><time>2026-04-06T14:54:12Z</time></trkpt><trkpt lat="43.75704429717276" lon="10.436493116922886"><ele>2.0</ele><time>2026-04-06T14:54:13Z</time></trkpt><trkpt lat="43.757158120319644" lon="10.436316185332455"><ele>2.0</ele><time>2026-04-06T14:54:14Z</time></trkpt><trkpt lat="43.75726721512622" lon="10.436145025470049"><ele>2.0</ele><time>2026-04-06T14:54:15Z</time></trkpt><trkpt lat="43.75736954240065" lon="10.435983236475929"><ele>2.0</ele><time>2026-04-06T14:54:16Z</time></trkpt><trkpt lat="43.75747352468558" lon="10.435818830519418"><ele>2.0</ele><time>2026-04-06T14:54:17Z</time></trkpt><trkpt lat="43.757577503145136" lon="10.435653915983938"><ele>2.0</ele><time>2026-04-06T14:54:18Z</time></trkpt><trkpt lat="43.7576815290214" lon="10.435488793522504"><ele>2.0</ele><time>2026-04-06T14:54:19Z</time></trkpt><trkpt lat="43.75778500988044" lon="10.435324536455314"><ele>1.75</ele><time>2026-04-06T14:54:20Z</time></trkpt><trkpt lat="43.75788214003307" lon="10.435170359771735"><ele>1.5</ele><time>2026-04-06T14:54:21Z</time></trkpt><trkpt lat="43.75797750250414" lon="10.4350217251115"><ele>1.25</ele><time>2026-04-06T14:54:22Z</time></trkpt><trkpt lat="43.75807122852401" lon="10.434878529802495"><ele>1.0</ele><time>2026-04-06T14:54:23Z</time></trkpt><trkpt lat="43.75816099751175" lon="10.434744627247913"><ele>0.75</ele><time>2026-04-06T14:54:24Z</time></trkpt><trkpt lat="43.7582514578403" lon="10.434621549706725"><ele>0.5</ele><time>2026-04-06T14:54:25Z</time></trkpt><trkpt lat="43.75834010928254" lon="10.434513920316508"><ele>0.25</ele><time>2026-04-06T14:54:26Z</time></trkpt><trkpt lat="43.75843433787496" lon="10.43443490927724"><ele>0.0</ele><time>2026-04-06T14:54:27Z</time></trkpt><trkpt lat="43.758513247922515" lon="10.434348100567526"><ele>0.2</ele><time>2026-04-06T14:54:28Z</time></trkpt><trkpt lat="43.75858761940135" lon="10.434263619871071"><ele>0.4</ele><time>2026-04-06T14:54:29Z</time></trkpt><trkpt lat="43.758660755982014" lon="10.434197381673618"><ele>0.6000000000000001</ele><time>2026-04-06T14:54:30Z</time></trkpt><trkpt lat="43.75871939524153" lon="10.43412472869447"><ele>0.8</ele><time>2026-04-06T14:54:31Z</time></trkpt><trkpt lat="43.758834243805374" lon="10.434199753535049"><ele>1.0</ele><time>2026-04-06T14:54:32Z</time></trkpt><trkpt lat="43.7589343933699" lon="10.434172824890254"><ele>1.0</ele><time>2026-04-06T14:54:33Z</time></trkpt><trkpt lat="43.75903844638582" lon="10.434175027501485"><ele>1.0</ele><time>2026-04-06T14:54:34Z</time></trkpt><trkpt lat="43.759114592775454" lon="10.434108912567375"><ele>1.0</ele><time>2026-04-06T14:54:35Z</time></trkpt><trkpt lat="43.759218622806785" lon="10.4342677184194"><ele>1.0</ele><time>2026-04-06T14:54:36Z</time></trkpt><trkpt lat="43.759302196949626" lon="10.434343017476179"><ele>1.0</ele><time>2026-04-06T14:54:37Z</time></trkpt><trkpt lat="43.759392876114006" lon="10.43442132029925"><ele>1.5</ele><time>2026-04-06T14:54:38Z</time></trkpt><trkpt lat="43.759486372025926" lon="10.434532522336115"><ele>2.0</ele><time>2026-04-06T14:54:39Z</time></trkpt><trkpt lat="43.759598552800824" lon="10.43464502300675"><ele>2.5</ele><time>2026-04-06T14:54:40Z</time></trkpt><trkpt lat="43.75972236807679" lon="10.434777083414607"><ele>3.0</ele><time>2026-04-06T14:54:41Z</time></trkpt><trkpt lat="43.7598572289158" lon="10.434927101434774"><ele>3.0</ele><time>2026-04-06T14:54:42Z</time></trkpt><trkpt lat="43.76000153832064" lon="10.435088192532968"><ele>3.0</ele><time>2026-04-06T14:54:43Z</time></trkpt><trkpt lat="43.76016653913747" lon="10.435223847071153"><ele>3.0</ele><time>2026-04-06T14:54:44Z</time></trkpt><trkpt lat="43.76036481921615" lon="10.435341346298312"><ele>3.333333333333333</ele><time>2026-04-06T14:54:45Z</time></trkpt><trkpt lat="43.76054209233794" lon="10.435481803360561"><ele>3.6666666666666665</ele><time>2026-04-06T14:54:46Z</time></trkpt><trkpt lat="43.76069989959933" lon="10.435623998591662"><ele>4.0</ele><time>2026-04-06T14:54:47Z</time></trkpt><trkpt lat="43.76084531190098" lon="10.435765745005929"><ele>4.0</ele><time>2026-04-06T14:54:48Z</time></trkpt><trkpt lat="43.760983915258954" lon="10.435894741684708"><ele>4.0</ele><time>2026-04-06T14:54:49Z</time></trkpt><trkpt lat="43.76112028309915" lon="10.43600568321285"><ele>4.0</ele><time>2026-04-06T14:54:50Z</time></trkpt><trkpt lat="43.761245767722706" lon="10.436113700957984"><ele>3.75</ele><time>2026-04-06T14:54:51Z</time></trkpt><trkpt lat="43.761370058843085" lon="10.436222709261367"><ele>3.5</ele><time>2026-04-06T14:54:52Z</time></trkpt><trkpt lat="43.761485100757696" lon="10.436334297286757"><ele>3.25</ele><time>2026-04-06T14:54:53Z</time></trkpt><trkpt lat="43.76160152064932" lon="10.436444452725686"><ele>3.0</ele><time>2026-04-06T14:54:54Z</time></trkpt><trkpt lat="43.76172618642" lon="10.436559752415146"><ele>2.3333333333333335</ele><time>2026-04-06T14:54:55Z</time></trkpt><trkpt lat="43.76186964121765" lon="10.43668651968105"><ele>1.6666666666666665</ele><time>2026-04-06T14:54:56Z</time></trkpt><trkpt lat="43.762021697234154" lon="10.436818339771063"><ele>1.0</ele><time>2026-04-06T14:54:57Z</time></trkpt><trkpt lat="43.762165134700666" lon="10.436954614941198"><ele>1.0</ele><time>2026-04-06T14:54:58Z</time></trkpt><trkpt lat="43.76230244510156" lon="10.43708006663251"><ele>1.0</ele><time>2026-04-06T14:54:59Z</time></trkpt><trkpt lat="43.76241900574014" lon="10.437212368447677"><ele>1.0</ele><time>2026-04-06T14:55:00Z</time></trkpt><trkpt lat="43.762535927317714" lon="10.437320029306091"><ele>1.25</ele><time>2026-04-06T14:55:01Z</time></trkpt><trkpt lat="43.76265051282264" lon="10.437424486496726"><ele>1.5</ele><time>2026-04-06T14:55:02Z</time></trkpt><trkpt lat="43.762764848720636" lon="10.437521177810114"><ele>1.75</ele><time>2026-04-06T14:55:03Z</time></trkpt><trkpt lat="43.76288333830022" lon="10.437621179564188"><ele>2.0</ele><time>2026-04-06T14:55:04Z</time></trkpt><trkpt lat="43.763004262441356" lon="10.43772815264283"><ele>2.0</ele><time>2026-04-06T14:55:05Z</time></trkpt><trkpt lat="43.76313269491943" lon="10.437816413440688"><ele>2.0</ele><time>2026-04-06T14:55:06Z</time></trkpt><trkpt lat="43.76323473707006" lon="10.437927724533736"><ele>2.0</ele><time>2026-04-06T14:55:07Z</time></trkpt><trkpt lat="43.763344355686016" lon="10.438021061103194"><ele>2.0</ele><time>2026-04-06T14:55:08Z</time></trkpt><trkpt lat="43.763452934597495" lon="10.438110013755887"><ele>2.5</ele><time>2026-04-06T14:55:09Z</time></trkpt><trkpt lat="43.7635463577543" lon="10.438220865101469"><ele>3.0</ele><time>2026-04-06T14:55:10Z</time></trkpt><trkpt lat="43.76364623180088" lon="10.438312707552033"><ele>3.5</ele><time>2026-04-06T14:55:11Z</time></trkpt><trkpt lat="43.76374831839665" lon="10.43838441233253"><ele>4.0</ele><time>2026-04-06T14:55:12Z</time></trkpt><trkpt lat="43.76384471751782" lon="10.43847875801487"><ele>3.9999999999999996</ele><time>2026-04-06T14:55:13Z</time></trkpt><trkpt lat="43.76393642165521" lon="10.438572721579234"><ele>4.0</ele><time>2026-04-06T14:55:14Z</time></trkpt><trkpt lat="43.764016393094785" lon="10.438650872648722"><ele>4.0</ele><time>2026-04-06T14:55:15Z</time></trkpt><trkpt lat="43.76408547360706" lon="10.43871622540567"><ele>4.0</ele><time>2026-04-06T14:55:16Z</time></trkpt><trkpt lat="43.76413876020904" lon="10.438773912925196"><ele>3.9999999999999996</ele><time>2026-04-06T14:55:17Z</time></trkpt><trkpt lat="43.76419319728783" lon="10.43885863022185"><ele>4.0</ele><time>2026-04-06T14:55:19Z</time></trkpt><trkpt lat="43.76422816047435" lon="10.438977178302446"><ele>4.2</ele><time>2026-04-06T14:55:22Z</time></trkpt><trkpt lat="43.76426991901993" lon="10.439058118407402"><ele>4.4</ele><time>2026-04-06T14:55:24Z</time></trkpt><trkpt lat="43.76441020965986" lon="10.43897984462463"><ele>4.6</ele><time>2026-04-06T14:55:26Z</time></trkpt><trkpt lat="43.76446186668286" lon="10.438893243454485"><ele>4.8</ele><time>2026-04-06T14:55:27Z</time></trkpt><trkpt lat="43.76451380267608" lon="10.438803763864762"><ele>5.0</ele><time>2026-04-06T14:55:28Z</time></trkpt><trkpt lat="43.76456581265341" lon="10.438709035311804"><ele>5.6</ele><time>2026-04-06T14:55:29Z</time></trkpt><trkpt lat="43.764619028553014" lon="10.43859259271377"><ele>6.2</ele><time>2026-04-06T14:55:30Z</time></trkpt><trkpt lat="43.76468304905615" lon="10.438469013858251"><ele>6.800000000000001</ele><time>2026-04-06T14:55:31Z</time></trkpt><trkpt lat="43.76474718442477" lon="10.43834227268757"><ele>7.4</ele><time>2026-04-06T14:55:32Z</time></trkpt><trkpt lat="43.764808756017956" lon="10.438224262019116"><ele>8.0</ele><time>2026-04-06T14:55:33Z</time></trkpt><trkpt lat="43.76486696923726" lon="10.438122323738769"><ele>8.0</ele><time>2026-04-06T14:55:34Z</time></trkpt><trkpt lat="43.764909665858355" lon="10.438028079792728"><ele>8.0</ele><time>2026-04-06T14:55:35Z</time></trkpt><trkpt lat="43.76495263570871" lon="10.437953438956718"><ele>8.0</ele><time>2026-04-06T14:55:36Z</time></trkpt><trkpt lat="43.76503936980197" lon="10.43785560534483"><ele>8.0</ele><time>2026-04-06T14:55:38Z</time></trkpt><trkpt lat="43.76515015767666" lon="10.437893337320109"><ele>8.0</ele><time>2026-04-06T14:55:40Z</time></trkpt><trkpt lat="43.76523300171571" lon="10.437959886097472"><ele>7.25</ele><time>2026-04-06T14:55:41Z</time></trkpt><trkpt lat="43.76532783259034" lon="10.438036064229959"><ele>6.5</ele><time>2026-04-06T14:55:42Z</time></trkpt><trkpt lat="43.76543067233218" lon="10.43811867587635"><ele>5.75</ele><time>2026-04-06T14:55:43Z</time></trkpt><trkpt lat="43.76554474807515" lon="10.438209076385846"><ele>5.0</ele><time>2026-04-06T14:55:44Z</time></trkpt><trkpt lat="43.76567206059204" lon="10.438284886292614"><ele>5.0</ele><time>2026-04-06T14:55:45Z</time></trkpt><trkpt lat="43.765793196242115" lon="10.438383317271857"><ele>5.0</ele><time>2026-04-06T14:55:46Z</time></trkpt><trkpt lat="43.76591915607248" lon="10.438483204318516"><ele>5.0</ele><time>2026-04-06T14:55:47Z</time></trkpt><trkpt lat="43.76604776967811" lon="10.438591876320226"><ele>5.0</ele><time>2026-04-06T14:55:48Z</time></trkpt><trkpt lat="43.766180150045926" lon="10.438697686260774"><ele>4.25</ele><time>2026-04-06T14:55:49Z</time></trkpt><trkpt lat="43.76631042052597" lon="10.438795118044608"><ele>3.5</ele><time>2026-04-06T14:55:50Z</time></trkpt><trkpt lat="43.766432521459635" lon="10.438896886826006"><ele>2.75</ele><time>2026-04-06T14:55:51Z</time></trkpt><trkpt lat="43.76654171747443" lon="10.438990764120122"><ele>2.0</ele><time>2026-04-06T14:55:52Z</time></trkpt><trkpt lat="43.76664030664796" lon="10.439076189645276"><ele>3.6</ele><time>2026-04-06T14:55:53Z</time></trkpt><trkpt lat="43.7667351941722" lon="10.439147299804256"><ele>5.2</ele><time>2026-04-06T14:55:54Z</time></trkpt><trkpt lat="43.766820728299805" lon="10.439203365725273"><ele>6.8</ele><time>2026-04-06T14:55:55Z</time></trkpt><trkpt lat="43.766906924130865" lon="10.43921839755452"><ele>8.4</ele><time>2026-04-06T14:55:56Z</time></trkpt><trkpt lat="43.76698665549065" lon="10.439188097144672"><ele>10.0</ele><time>2026-04-06T14:55:57Z</time></trkpt><trkpt lat="43.76707087960469" lon="10.439123206096749"><ele>9.75</ele><time>2026-04-06T14:55:58Z</time></trkpt><trkpt lat="43.767167631188045" lon="10.439031995570476"><ele>9.5</ele><time>2026-04-06T14:55:59Z</time></trkpt><trkpt lat="43.767282018195566" lon="10.438928236406383"><ele>9.25</ele><time>2026-04-06T14:56:00Z</time></trkpt><trkpt lat="43.76741599763307" lon="10.438826518306378"><ele>9.0</ele><time>2026-04-06T14:56:01Z</time></trkpt><trkpt lat="43.76755734565128" lon="10.43871313477957"><ele>11.666666666666668</ele><time>2026-04-06T14:56:02Z</time></trkpt><trkpt lat="43.767712685972285" lon="10.438592720649838"><ele>14.333333333333334</ele><time>2026-04-06T14:56:03Z</time></trkpt><trkpt lat="43.76786976916512" lon="10.438475605683744"><ele>17.0</ele><time>2026-04-06T14:56:04Z</time></trkpt><trkpt lat="43.76803443661364" lon="10.438354772954371"><ele>17.0</ele><time>2026-04-06T14:56:05Z</time></trkpt><trkpt lat="43.76820097012221" lon="10.438236687279785"><ele>17.0</ele><time>2026-04-06T14:56:06Z</time></trkpt><trkpt lat="43.768356439831656" lon="10.438123187033773"><ele>17.0</ele><time>2026-04-06T14:56:07Z</time></trkpt><trkpt lat="43.76851470494524" lon="10.438015264407145"><ele>14.333333333333334</ele><time>2026-04-06T14:56:08Z</time></trkpt><trkpt lat="43.768672626525394" lon="10.437908697292755"><ele>11.666666666666668</ele><time>2026-04-06T14:56:09Z</time></trkpt><trkpt lat="43.768827391279565" lon="10.437808339021723"><ele>9.0</ele><time>2026-04-06T14:56:10Z</time></trkpt><trkpt lat="43.76897143524335" lon="10.437708671466508"><ele>9.0</ele><time>2026-04-06T14:56:11Z</time></trkpt><trkpt lat="43.76911144760456" lon="10.437601502571432"><ele>9.0</ele><time>2026-04-06T14:56:12Z</time></trkpt><trkpt lat="43.76924972953167" lon="10.437468256468165"><ele>9.0</ele><time>2026-04-06T14:56:13Z</time></trkpt><trkpt lat="43.769378486974475" lon="10.437316832191957"><ele>9.666666666666666</ele><time>2026-04-06T14:56:14Z</time></trkpt><trkpt lat="43.769498000914744" lon="10.437144960616738"><ele>10.333333333333332</ele><time>2026-04-06T14:56:15Z</time></trkpt><trkpt lat="43.7696151338331" lon="10.43697131462839"><ele>11.0</ele><time>2026-04-06T14:56:16Z</time></trkpt><trkpt lat="43.76972956414493" lon="10.436798008425574"><ele>11.0</ele><time>2026-04-06T14:56:17Z</time></trkpt><trkpt lat="43.76984602684632" lon="10.436624919106295"><ele>11.0</ele><time>2026-04-06T14:56:18Z</time></trkpt><trkpt lat="43.769957114626344" lon="10.436455692307373"><ele>11.0</ele><time>2026-04-06T14:56:19Z</time></trkpt><trkpt lat="43.77005972417273" lon="10.436296452614698"><ele>10.25</ele><time>2026-04-06T14:56:20Z</time></trkpt><trkpt lat="43.770148536098986" lon="10.436142354952171"><ele>9.5</ele><time>2026-04-06T14:56:21Z</time></trkpt><trkpt lat="43.77023000519886" lon="10.435988733643995"><ele>8.75</ele><time>2026-04-06T14:56:22Z</time></trkpt><trkpt lat="43.770306511857775" lon="10.435834988636547"><ele>8.0</ele><time>2026-04-06T14:56:23Z</time></trkpt><trkpt lat="43.77038063014319" lon="10.435679159448007"><ele>9.5</ele><time>2026-04-06T14:56:24Z</time></trkpt><trkpt lat="43.770463404283255" lon="10.435523536937591"><ele>11.0</ele><time>2026-04-06T14:56:25Z</time></trkpt><trkpt lat="43.770547769237815" lon="10.435364472675444"><ele>12.5</ele><time>2026-04-06T14:56:26Z</time></trkpt><trkpt lat="43.77063284450972" lon="10.435213662487614"><ele>14.0</ele><time>2026-04-06T14:56:27Z</time></trkpt><trkpt lat="43.77073025653358" lon="10.435070768472205"><ele>14.0</ele><time>2026-04-06T14:56:28Z</time></trkpt><trkpt lat="43.77084251244004" lon="10.43494262981635"><ele>14.0</ele><time>2026-04-06T14:56:29Z</time></trkpt><trkpt lat="43.770960399124746" lon="10.434814495002083"><ele>14.0</ele><time>2026-04-06T14:56:30Z</time></trkpt><trkpt lat="43.77107943132521" lon="10.434690721938935"><ele>14.0</ele><time>2026-04-06T14:56:31Z</time></trkpt><trkpt lat="43.77118645922284" lon="10.434572257524122"><ele>13.75</ele><time>2026-04-06T14:56:32Z</time></trkpt><trkpt lat="43.77129414778358" lon="10.434461150923036"><ele>13.5</ele><time>2026-04-06T14:56:33Z</time></trkpt><trkpt lat="43.771398031203105" lon="10.434362909845833"><ele>13.25</ele><time>2026-04-06T14:56:34Z</time></trkpt><trkpt lat="43.77150749975029" lon="10.434273124353808"><ele>13.0</ele><time>2026-04-06T14:56:35Z</time></trkpt><trkpt lat="43.771619515704565" lon="10.43418607356029"><ele>13.0</ele><time>2026-04-06T14:56:36Z</time></trkpt><trkpt lat="43.77174537300168" lon="10.434101897846746"><ele>13.0</ele><time>2026-04-06T14:56:37Z</time></trkpt><trkpt lat="43.77188579018553" lon="10.434023179886289"><ele>13.0</ele><time>2026-04-06T14:56:38Z</time></trkpt><trkpt lat="43.7720264917416" lon="10.43396067866248"><ele>13.0</ele><time>2026-04-06T14:56:39Z</time></trkpt><trkpt lat="43.77216070228028" lon="10.433914770365359"><ele>11.5</ele><time>2026-04-06T14:56:40Z</time></trkpt><trkpt lat="43.772284925280545" lon="10.433868461331883"><ele>10.0</ele><time>2026-04-06T14:56:41Z</time></trkpt><trkpt lat="43.772405526174474" lon="10.433827206114383"><ele>8.5</ele><time>2026-04-06T14:56:42Z</time></trkpt><trkpt lat="43.77252447773325" lon="10.433789739652703"><ele>7.0</ele><time>2026-04-06T14:56:43Z</time></trkpt><trkpt lat="43.77264061185641" lon="10.433763711873809"><ele>7.3999999999999995</ele><time>2026-04-06T14:56:44Z</time></trkpt><trkpt lat="43.772747923587126" lon="10.433728254636973"><ele>7.799999999999999</ele><time>2026-04-06T14:56:45Z</time></trkpt><trkpt lat="43.772846565673035" lon="10.433699996649102"><ele>8.2</ele><time>2026-04-06T14:56:46Z</time></trkpt><trkpt lat="43.77292766805737" lon="10.433649382679572"><ele>8.6</ele><time>2026-04-06T14:56:47Z</time></trkpt><trkpt lat="43.77300147759151" lon="10.433600450981983"><ele>9.0</ele><time>2026-04-06T14:56:48Z</time></trkpt><trkpt lat="43.77307201780149" lon="10.433562714174451"><ele>9.0</ele><time>2026-04-06T14:56:49Z</time></trkpt><trkpt lat="43.77313317184201" lon="10.433532358434807"><ele>9.0</ele><time>2026-04-06T14:56:50Z</time></trkpt><trkpt lat="43.77320313507331" lon="10.43352415862467"><ele>9.0</ele><time>2026-04-06T14:56:53Z</time></trkpt><trkpt lat="43.773262346180346" lon="10.433558166159123"><ele>9.0</ele><time>2026-04-06T14:56:58Z</time></trkpt><trkpt lat="43.7731184838574" lon="10.43414026781831"><ele>9.0</ele><time>2026-04-06T14:57:01Z</time></trkpt><trkpt lat="43.773350111793285" lon="10.433956586172082"><ele>9.0</ele><time>2026-04-06T14:58:35Z</time></trkpt><trkpt lat="43.773340723686616" lon="10.433866220737483"><ele>9.0</ele><time>2026-04-06T15:32:19Z</time></trkpt><trkpt lat="43.77328995497954" lon="10.43376706447295"><ele>9.0</ele><time>2026-04-06T15:32:42Z</time></trkpt><trkpt lat="43.77326891412922" lon="10.433676130748305"><ele>9.0</ele><time>2026-04-06T15:32:44Z</time></trkpt><trkpt lat="43.773215799648746" lon="10.433615054721301"><ele>9.0</ele><time>2026-04-06T15:32:47Z</time></trkpt><trkpt lat="43.7731708643684" lon="10.43354104800603"><ele>9.0</ele><time>2026-04-06T15:32:49Z</time></trkpt><trkpt lat="43.77338759778311" lon="10.433339316280314"><ele>9.0</ele><time>2026-04-06T15:33:00Z</time></trkpt><trkpt lat="43.77343494479862" lon="10.43327864914081"><ele>9.4</ele><time>2026-04-06T15:33:01Z</time></trkpt><trkpt lat="43.77357102184235" lon="10.43320237671811"><ele>9.8</ele><time>2026-04-06T15:33:03Z</time></trkpt><trkpt lat="43.7736497510746" lon="10.433159749568057"><ele>10.200000000000001</ele><time>2026-04-06T15:33:04Z</time></trkpt><trkpt lat="43.773733292537095" lon="10.433128065441023"><ele>10.600000000000001</ele><time>2026-04-06T15:33:05Z</time></trkpt><trkpt lat="43.773825402149335" lon="10.433094574630205"><ele>11.0</ele><time>2026-04-06T15:33:06Z</time></trkpt><trkpt lat="43.77393025575143" lon="10.433067894223202"><ele>11.0</ele><time>2026-04-06T15:33:07Z</time></trkpt><trkpt lat="43.77405429716325" lon="10.433038619114223"><ele>11.0</ele><time>2026-04-06T15:33:08Z</time></trkpt><trkpt lat="43.77414606117388" lon="10.433008915351268"><ele>11.0</ele><time>2026-04-06T15:33:09Z</time></trkpt><trkpt lat="43.77423741880603" lon="10.432967392259798"><ele>11.0</ele><time>2026-04-06T15:33:10Z</time></trkpt><trkpt lat="43.7743437604643" lon="10.432927619525556"><ele>11.0</ele><time>2026-04-06T15:33:11Z</time></trkpt><trkpt lat="43.77445020293569" lon="10.432880018181354"><ele>11.600000000000001</ele><time>2026-04-06T15:33:12Z</time></trkpt><trkpt lat="43.77455173369738" lon="10.432817970667328"><ele>12.2</ele><time>2026-04-06T15:33:13Z</time></trkpt><trkpt lat="43.7746341191462" lon="10.432732927946706"><ele>12.799999999999999</ele><time>2026-04-06T15:33:14Z</time></trkpt><trkpt lat="43.774702336113094" lon="10.432622443680199"><ele>13.399999999999999</ele><time>2026-04-06T15:33:15Z</time></trkpt><trkpt lat="43.77476435540377" lon="10.432504023311246"><ele>14.0</ele><time>2026-04-06T15:33:16Z</time></trkpt><trkpt lat="43.774822755217414" lon="10.432380902956421"><ele>14.0</ele><time>2026-04-06T15:33:17Z</time></trkpt><trkpt lat="43.77488558241708" lon="10.432265437445176"><ele>14.0</ele><time>2026-04-06T15:33:18Z</time></trkpt><trkpt lat="43.77496123313569" lon="10.432138935903621"><ele>14.0</ele><time>2026-04-06T15:33:19Z</time></trkpt><trkpt lat="43.77503903818947" lon="10.432014372155155"><ele>14.0</ele><time>2026-04-06T15:33:20Z</time></trkpt><trkpt lat="43.775088401367086" lon="10.431861393463466"><ele>13.500000000000002</ele><time>2026-04-06T15:33:21Z</time></trkpt><trkpt lat="43.77511142107571" lon="10.431734331485963"><ele>13.0</ele><time>2026-04-06T15:33:22Z</time></trkpt><trkpt lat="43.77514919940548" lon="10.431636858739205"><ele>12.5</ele><time>2026-04-06T15:33:23Z</time></trkpt><trkpt lat="43.77517591057668" lon="10.43154358838365"><ele>12.0</ele><time>2026-04-06T15:33:24Z</time></trkpt><trkpt lat="43.775216027467344" lon="10.431440260887177"><ele>11.5</ele><time>2026-04-06T15:33:25Z</time></trkpt><trkpt lat="43.77524049337674" lon="10.43135739381985"><ele>11.0</ele><time>2026-04-06T15:33:26Z</time></trkpt><trkpt lat="43.7752737738358" lon="10.431282329005638"><ele>10.0</ele><time>2026-04-06T15:33:27Z</time></trkpt><trkpt lat="43.775307511426" lon="10.431115573209071"><ele>9.0</ele><time>2026-04-06T15:33:29Z</time></trkpt><trkpt lat="43.77517321273932" lon="10.430953131880452"><ele>8.0</ele><time>2026-04-06T15:33:32Z</time></trkpt><trkpt lat="43.77510741659291" lon="10.430939978365606"><ele>7.0</ele><time>2026-04-06T15:33:33Z</time></trkpt><trkpt lat="43.775036524444154" lon="10.430927647804806"><ele>6.0</ele><time>2026-04-06T15:33:34Z</time></trkpt><trkpt lat="43.77496012026362" lon="10.430913943284633"><ele>6.0</ele><time>2026-04-06T15:33:35Z</time></trkpt><trkpt lat="43.77487080257059" lon="10.43088592177637"><ele>6.0</ele><time>2026-04-06T15:33:36Z</time></trkpt><trkpt lat="43.77476901818701" lon="10.430891129468835"><ele>6.0</ele><time>2026-04-06T15:33:37Z</time></trkpt><trkpt lat="43.774657228944484" lon="10.430922029962407"><ele>6.0</ele><time>2026-04-06T15:33:38Z</time></trkpt><trkpt lat="43.77452920639736" lon="10.430974865388738"><ele>6.0</ele><time>2026-04-06T15:33:39Z</time></trkpt><trkpt lat="43.77440499161911" lon="10.43105724447718"><ele>6.25</ele><time>2026-04-06T15:33:40Z</time></trkpt><trkpt lat="43.774289458237384" lon="10.431163582480561"><ele>6.5</ele><time>2026-04-06T15:33:41Z</time></trkpt><trkpt lat="43.77417482025568" lon="10.431301236601227"><ele>6.75</ele><time>2026-04-06T15:33:42Z</time></trkpt><trkpt lat="43.77404170538107" lon="10.43141090383879"><ele>7.0</ele><time>2026-04-06T15:33:43Z</time></trkpt><trkpt lat="43.773914409056445" lon="10.431532354780494"><ele>7.0</ele><time>2026-04-06T15:33:44Z</time></trkpt><trkpt lat="43.773793376169664" lon="10.431656025043447"><ele>7.0</ele><time>2026-04-06T15:33:45Z</time></trkpt><trkpt lat="43.77368490872465" lon="10.431764785690204"><ele>7.0</ele><time>2026-04-06T15:33:46Z</time></trkpt><trkpt lat="43.773581206943305" lon="10.431870525980077"><ele>7.0</ele><time>2026-04-06T15:33:47Z</time></trkpt><trkpt lat="43.773484940984844" lon="10.431973779428889"><ele>7.0</ele><time>2026-04-06T15:33:48Z</time></trkpt><trkpt lat="43.773398995071496" lon="10.432067460159502"><ele>6.999999999999999</ele><time>2026-04-06T15:33:49Z</time></trkpt><trkpt lat="43.773308888575706" lon="10.432152417392247"><ele>6.999999999999999</ele><time>2026-04-06T15:33:50Z</time></trkpt><trkpt lat="43.773221546055844" lon="10.432218767485903"><ele>7.0</ele><time>2026-04-06T15:33:51Z</time></trkpt><trkpt lat="43.773119235258626" lon="10.432252803717"><ele>7.0</ele><time>2026-04-06T15:33:52Z</time></trkpt><trkpt lat="43.77302165580539" lon="10.43225240997928"><ele>7.0</ele><time>2026-04-06T15:33:53Z</time></trkpt><trkpt lat="43.77292801454201" lon="10.432255137788767"><ele>6.999999999999999</ele><time>2026-04-06T15:33:54Z</time></trkpt><trkpt lat="43.77283610397641" lon="10.432208063876056"><ele>6.999999999999999</ele><time>2026-04-06T15:33:55Z</time></trkpt><trkpt lat="43.77275215055794" lon="10.432139846599847"><ele>7.0</ele><time>2026-04-06T15:33:56Z</time></trkpt><trkpt lat="43.772682045616676" lon="10.43205058435922"><ele>7.0</ele><time>2026-04-06T15:33:57Z</time></trkpt><trkpt lat="43.772630436705484" lon="10.431935680143017"><ele>6.0</ele><time>2026-04-06T15:33:58Z</time></trkpt><trkpt lat="43.772547220645045" lon="10.431826365155258"><ele>5.0</ele><time>2026-04-06T15:33:59Z</time></trkpt><trkpt lat="43.77248667226882" lon="10.431692707501849"><ele>4.0</ele><time>2026-04-06T15:34:00Z</time></trkpt><trkpt lat="43.77239110485635" lon="10.431572007898069"><ele>3.0</ele><time>2026-04-06T15:34:01Z</time></trkpt><trkpt lat="43.77231289281142" lon="10.43144442688047"><ele>3.25</ele><time>2026-04-06T15:34:02Z</time></trkpt><trkpt lat="43.77223307387521" lon="10.431303994181707"><ele>3.5</ele><time>2026-04-06T15:34:03Z</time></trkpt><trkpt lat="43.77214245322875" lon="10.431151986854923"><ele>3.75</ele><time>2026-04-06T15:34:04Z</time></trkpt><trkpt lat="43.772058210481156" lon="10.431000869172902"><ele>4.0</ele><time>2026-04-06T15:34:05Z</time></trkpt><trkpt lat="43.771974593480415" lon="10.430863994481673"><ele>4.0</ele><time>2026-04-06T15:34:06Z</time></trkpt><trkpt lat="43.77187487052494" lon="10.430696923467158"><ele>4.0</ele><time>2026-04-06T15:34:07Z</time></trkpt><trkpt lat="43.77177144749068" lon="10.430529119869476"><ele>4.0</ele><time>2026-04-06T15:34:08Z</time></trkpt><trkpt lat="43.77167444561389" lon="10.430360266474768"><ele>3.75</ele><time>2026-04-06T15:34:09Z</time></trkpt><trkpt lat="43.77158896789593" lon="10.430214015204466"><ele>3.5</ele><time>2026-04-06T15:34:10Z</time></trkpt><trkpt lat="43.77150136815938" lon="10.430069392439313"><ele>3.25</ele><time>2026-04-06T15:34:11Z</time></trkpt><trkpt lat="43.77140202014047" lon="10.429958760217142"><ele>3.0</ele><time>2026-04-06T15:34:12Z</time></trkpt><trkpt lat="43.77135086350344" lon="10.429875467270143"><ele>3.0</ele><time>2026-04-06T15:34:13Z</time></trkpt><trkpt lat="43.77129361712153" lon="10.429778147469367"><ele>3.0</ele><time>2026-04-06T15:34:14Z</time></trkpt><trkpt lat="43.77124816324557" lon="10.429698442469563"><ele>3.0</ele><time>2026-04-06T15:34:15Z</time></trkpt><trkpt lat="43.77117814010434" lon="10.429580922690691"><ele>3.0</ele><time>2026-04-06T15:34:17Z</time></trkpt><trkpt lat="43.771185551533115" lon="10.429470651420804"><ele>3.0</ele><time>2026-04-06T15:34:18Z</time></trkpt><trkpt lat="43.77120133671025" lon="10.429280568289919"><ele>2.8</ele><time>2026-04-06T15:34:20Z</time></trkpt><trkpt lat="43.77119806945906" lon="10.429168281331563"><ele>2.5999999999999996</ele><time>2026-04-06T15:34:21Z</time></trkpt><trkpt lat="43.77119731513311" lon="10.429052331784016"><ele>2.4000000000000004</ele><time>2026-04-06T15:34:22Z</time></trkpt><trkpt lat="43.77119446359947" lon="10.428926803888908"><ele>2.2</ele><time>2026-04-06T15:34:23Z</time></trkpt><trkpt lat="43.771270261250756" lon="10.428797300701712"><ele>2.0</ele><time>2026-04-06T15:34:24Z</time></trkpt><trkpt lat="43.77132971074467" lon="10.428696479169938"><ele>2.0</ele><time>2026-04-06T15:34:25Z</time></trkpt><trkpt lat="43.77140953188097" lon="10.428604534446212"><ele>2.0</ele><time>2026-04-06T15:34:26Z</time></trkpt><trkpt lat="43.771497301707086" lon="10.428511182798221"><ele>2.0</ele><time>2026-04-06T15:34:27Z</time></trkpt><trkpt lat="43.77158172335051" lon="10.428411231744441"><ele>2.0</ele><time>2026-04-06T15:34:28Z</time></trkpt><trkpt lat="43.771663854504546" lon="10.428296851171828"><ele>2.0</ele><time>2026-04-06T15:34:29Z</time></trkpt><trkpt lat="43.7717656360254" lon="10.428167548124891"><ele>2.0</ele><time>2026-04-06T15:34:30Z</time></trkpt><trkpt lat="43.77185103540503" lon="10.42803718859564"><ele>2.0</ele><time>2026-04-06T15:34:31Z</time></trkpt><trkpt lat="43.771927488092516" lon="10.427888144707575"><ele>2.0</ele><time>2026-04-06T15:34:32Z</time></trkpt><trkpt lat="43.77201010140948" lon="10.427736716471594"><ele>2.0</ele><time>2026-04-06T15:34:33Z</time></trkpt><trkpt lat="43.77208299800639" lon="10.427564658056092"><ele>2.333333333333333</ele><time>2026-04-06T15:34:34Z</time></trkpt><trkpt lat="43.77215441578988" lon="10.427396092026017"><ele>2.6666666666666665</ele><time>2026-04-06T15:34:35Z</time></trkpt><trkpt lat="43.77221398835228" lon="10.427206435874773"><ele>3.0</ele><time>2026-04-06T15:34:36Z</time></trkpt><trkpt lat="43.77229349865367" lon="10.427015343536198"><ele>3.0</ele><time>2026-04-06T15:34:37Z</time></trkpt><trkpt lat="43.77237170572852" lon="10.426827763274744"><ele>3.0</ele><time>2026-04-06T15:34:38Z</time></trkpt><trkpt lat="43.772444427639584" lon="10.426645688118011"><ele>3.0</ele><time>2026-04-06T15:34:39Z</time></trkpt><trkpt lat="43.77251938281519" lon="10.426469901127911"><ele>3.0</ele><time>2026-04-06T15:34:40Z</time></trkpt><trkpt lat="43.7725967747708" lon="10.426306238115544"><ele>3.0</ele><time>2026-04-06T15:34:41Z</time></trkpt><trkpt lat="43.77265535357057" lon="10.426155211860904"><ele>3.0</ele><time>2026-04-06T15:34:42Z</time></trkpt><trkpt lat="43.772705701714806" lon="10.426012720013526"><ele>3.0</ele><time>2026-04-06T15:34:43Z</time></trkpt><trkpt lat="43.772764377913994" lon="10.425879137644177"><ele>3.0</ele><time>2026-04-06T15:34:44Z</time></trkpt><trkpt lat="43.772819503026255" lon="10.425762558039423"><ele>3.0</ele><time>2026-04-06T15:34:45Z</time></trkpt><trkpt lat="43.77285051236471" lon="10.425642018555164"><ele>3.0</ele><time>2026-04-06T15:34:46Z</time></trkpt><trkpt lat="43.77290305804105" lon="10.42554078312374"><ele>3.0</ele><time>2026-04-06T15:34:47Z</time></trkpt><trkpt lat="43.7729470436446" lon="10.425442286397564"><ele>3.0</ele><time>2026-04-06T15:34:48Z</time></trkpt><trkpt lat="43.77298618283094" lon="10.425326411476934"><ele>3.2</ele><time>2026-04-06T15:34:49Z</time></trkpt><trkpt lat="43.77304073013563" lon="10.425196861818542"><ele>3.4</ele><time>2026-04-06T15:34:50Z</time></trkpt><trkpt lat="43.77310976543448" lon="10.42505929830349"><ele>3.6000000000000005</ele><time>2026-04-06T15:34:51Z</time></trkpt><trkpt lat="43.773166002297465" lon="10.424922508354866"><ele>3.8000000000000003</ele><time>2026-04-06T15:34:52Z</time></trkpt><trkpt lat="43.77322135689831" lon="10.424809495330754"><ele>4.0</ele><time>2026-04-06T15:34:53Z</time></trkpt><trkpt lat="43.77326431150485" lon="10.424718901992652"><ele>3.9999999999999996</ele><time>2026-04-06T15:34:54Z</time></trkpt><trkpt lat="43.773301157848934" lon="10.424639666790807"><ele>4.0</ele><time>2026-04-06T15:34:55Z</time></trkpt><trkpt lat="43.77333927699542" lon="10.424566306352595"><ele>4.0</ele><time>2026-04-06T15:34:56Z</time></trkpt><trkpt lat="43.77339411008802" lon="10.424506320994931"><ele>4.0</ele><time>2026-04-06T15:34:57Z</time></trkpt><trkpt lat="43.77342400355937" lon="10.424417784037509"><ele>3.9999999999999996</ele><time>2026-04-06T15:34:58Z</time></trkpt><trkpt lat="43.77348680468726" lon="10.424323294422019"><ele>4.0</ele><time>2026-04-06T15:34:59Z</time></trkpt><trkpt lat="43.77356533126798" lon="10.42420238919469"><ele>4.0</ele><time>2026-04-06T15:35:00Z</time></trkpt><trkpt lat="43.77363700126468" lon="10.424045551819926"><ele>4.0</ele><time>2026-04-06T15:35:01Z</time></trkpt><trkpt lat="43.77372490057571" lon="10.423873258810119"><ele>4.0</ele><time>2026-04-06T15:35:02Z</time></trkpt><trkpt lat="43.773809505615176" lon="10.423681901786223"><ele>4.0</ele><time>2026-04-06T15:35:03Z</time></trkpt><trkpt lat="43.7739063262103" lon="10.423469303329622"><ele>4.0</ele><time>2026-04-06T15:35:04Z</time></trkpt><trkpt lat="43.77400729154059" lon="10.423269321459284"><ele>4.0</ele><time>2026-04-06T15:35:05Z</time></trkpt><trkpt lat="43.77412446828655" lon="10.423061808996936"><ele>4.0</ele><time>2026-04-06T15:35:06Z</time></trkpt><trkpt lat="43.77423473331679" lon="10.42285106599581"><ele>4.333333333333333</ele><time>2026-04-06T15:35:07Z</time></trkpt><trkpt lat="43.77433432908909" lon="10.422637324977273"><ele>4.666666666666667</ele><time>2026-04-06T15:35:08Z</time></trkpt><trkpt lat="43.77443267435527" lon="10.422408834385255"><ele>5.0</ele><time>2026-04-06T15:35:09Z</time></trkpt><trkpt lat="43.77451090619293" lon="10.422197051150734"><ele>4.333333333333334</ele><time>2026-04-06T15:35:10Z</time></trkpt><trkpt lat="43.77456698106457" lon="10.421984244072558"><ele>3.666666666666667</ele><time>2026-04-06T15:35:11Z</time></trkpt><trkpt lat="43.774629980982716" lon="10.421761280623024"><ele>3.0</ele><time>2026-04-06T15:35:12Z</time></trkpt><trkpt lat="43.77468205779689" lon="10.4215439671547"><ele>3.0</ele><time>2026-04-06T15:35:13Z</time></trkpt><trkpt lat="43.77472861292267" lon="10.421350445161472"><ele>3.0</ele><time>2026-04-06T15:35:14Z</time></trkpt><trkpt lat="43.77477459120451" lon="10.421155228593378"><ele>3.0</ele><time>2026-04-06T15:35:15Z</time></trkpt><trkpt lat="43.774819657348196" lon="10.42096655059579"><ele>3.0</ele><time>2026-04-06T15:35:16Z</time></trkpt><trkpt lat="43.77487168229763" lon="10.42076866166464"><ele>3.0</ele><time>2026-04-06T15:35:17Z</time></trkpt><trkpt lat="43.77491117986847" lon="10.420577314008732"><ele>3.0</ele><time>2026-04-06T15:35:18Z</time></trkpt><trkpt lat="43.774961210866955" lon="10.42039074647662"><ele>3.0</ele><time>2026-04-06T15:35:19Z</time></trkpt><trkpt lat="43.77500231476543" lon="10.420205438230612"><ele>3.0</ele><time>2026-04-06T15:35:20Z</time></trkpt><trkpt lat="43.775049722605566" lon="10.420029071393332"><ele>3.0</ele><time>2026-04-06T15:35:21Z</time></trkpt><trkpt lat="43.77508719862078" lon="10.419847907382067"><ele>3.0</ele><time>2026-04-06T15:35:22Z</time></trkpt><trkpt lat="43.775136247969" lon="10.419654547543036"><ele>3.0</ele><time>2026-04-06T15:35:23Z</time></trkpt><trkpt lat="43.77518670878905" lon="10.419457986396736"><ele>3.0</ele><time>2026-04-06T15:35:24Z</time></trkpt><trkpt lat="43.77524172896325" lon="10.419256422803166"><ele>3.0</ele><time>2026-04-06T15:35:25Z</time></trkpt><trkpt lat="43.77529608812418" lon="10.41906504058713"><ele>3.0</ele><time>2026-04-06T15:35:26Z</time></trkpt><trkpt lat="43.77534428499778" lon="10.418865134208314"><ele>3.0</ele><time>2026-04-06T15:35:27Z</time></trkpt><trkpt lat="43.77539630622544" lon="10.418669810855857"><ele>2.6666666666666665</ele><time>2026-04-06T15:35:28Z</time></trkpt><trkpt lat="43.775454348942745" lon="10.418458296023552"><ele>2.333333333333333</ele><time>2026-04-06T15:35:29Z</time></trkpt><trkpt lat="43.77550082726107" lon="10.418254158066071"><ele>2.0</ele><time>2026-04-06T15:35:30Z</time></trkpt><trkpt lat="43.77555197779528" lon="10.418049526496954"><ele>1.6666666666666665</ele><time>2026-04-06T15:35:31Z</time></trkpt><trkpt lat="43.77560624977688" lon="10.417839651716129"><ele>1.3333333333333333</ele><time>2026-04-06T15:35:32Z</time></trkpt><trkpt lat="43.775666621591824" lon="10.417634131617719"><ele>1.0</ele><time>2026-04-06T15:35:33Z</time></trkpt><trkpt lat="43.775723812404316" lon="10.417439485529728"><ele>1.0</ele><time>2026-04-06T15:35:34Z</time></trkpt><trkpt lat="43.77577147056745" lon="10.417260236103294"><ele>1.0</ele><time>2026-04-06T15:35:35Z</time></trkpt><trkpt lat="43.77582264509357" lon="10.417070568420705"><ele>1.0</ele><time>2026-04-06T15:35:36Z</time></trkpt><trkpt lat="43.77586986578842" lon="10.416888191945272"><ele>1.0</ele><time>2026-04-06T15:35:37Z</time></trkpt><trkpt lat="43.77591573224239" lon="10.416694113401942"><ele>1.5</ele><time>2026-04-06T15:35:38Z</time></trkpt><trkpt lat="43.77596040546931" lon="10.416497663097584"><ele>2.0</ele><time>2026-04-06T15:35:39Z</time></trkpt><trkpt lat="43.77599635300986" lon="10.416310305460758"><ele>2.5</ele><time>2026-04-06T15:35:40Z</time></trkpt><trkpt lat="43.776046902000445" lon="10.416114840077029"><ele>3.0</ele><time>2026-04-06T15:35:41Z</time></trkpt><trkpt lat="43.77609929927861" lon="10.415917303398734"><ele>3.333333333333333</ele><time>2026-04-06T15:35:42Z</time></trkpt><trkpt lat="43.776150040866725" lon="10.41571817183092"><ele>3.6666666666666665</ele><time>2026-04-06T15:35:43Z</time></trkpt><trkpt lat="43.77620434093226" lon="10.415525225925194"><ele>4.0</ele><time>2026-04-06T15:35:44Z</time></trkpt><trkpt lat="43.77626662550794" lon="10.415322946744894"><ele>4.0</ele><time>2026-04-06T15:35:45Z</time></trkpt><trkpt lat="43.776329353174226" lon="10.415128574434771"><ele>4.0</ele><time>2026-04-06T15:35:46Z</time></trkpt><trkpt lat="43.77638270410097" lon="10.41492880975826"><ele>4.0</ele><time>2026-04-06T15:35:47Z</time></trkpt><trkpt lat="43.77642830847296" lon="10.414744200503527"><ele>4.0</ele><time>2026-04-06T15:35:48Z</time></trkpt><trkpt lat="43.77647396566072" lon="10.41455302518423"><ele>4.0</ele><time>2026-04-06T15:35:49Z</time></trkpt><trkpt lat="43.776513007800936" lon="10.414358993833115"><ele>4.0</ele><time>2026-04-06T15:35:50Z</time></trkpt><trkpt lat="43.77656706061232" lon="10.414168384409521"><ele>4.0</ele><time>2026-04-06T15:35:51Z</time></trkpt><trkpt lat="43.77660888850094" lon="10.413981234710254"><ele>4.0</ele><time>2026-04-06T15:35:52Z</time></trkpt><trkpt lat="43.77666587899247" lon="10.4137906940632"><ele>4.0</ele><time>2026-04-06T15:35:53Z</time></trkpt><trkpt lat="43.776715656692936" lon="10.413600583587682"><ele>4.0</ele><time>2026-04-06T15:35:54Z</time></trkpt><trkpt lat="43.77676785213007" lon="10.413407353928095"><ele>4.0</ele><time>2026-04-06T15:35:55Z</time></trkpt><trkpt lat="43.776828843368165" lon="10.41320024782569"><ele>4.0</ele><time>2026-04-06T15:35:56Z</time></trkpt><trkpt lat="43.77688678587889" lon="10.412994987357449"><ele>4.0</ele><time>2026-04-06T15:35:57Z</time></trkpt><trkpt lat="43.7769243525616" lon="10.412797091223844"><ele>4.0</ele><time>2026-04-06T15:35:58Z</time></trkpt><trkpt lat="43.77696898562657" lon="10.412587471193497"><ele>4.0</ele><time>2026-04-06T15:35:59Z</time></trkpt><trkpt lat="43.77702764592796" lon="10.412365913940963"><ele>4.0</ele><time>2026-04-06T15:36:00Z</time></trkpt><trkpt lat="43.77708377001291" lon="10.41214573219923"><ele>4.0</ele><time>2026-04-06T15:36:01Z</time></trkpt><trkpt lat="43.77712995870423" lon="10.41192799832526"><ele>4.333333333333333</ele><time>2026-04-06T15:36:02Z</time></trkpt><trkpt lat="43.77718580886061" lon="10.411715042480079"><ele>4.666666666666667</ele><time>2026-04-06T15:36:03Z</time></trkpt><trkpt lat="43.77724044211454" lon="10.41149700306417"><ele>5.0</ele><time>2026-04-06T15:36:04Z</time></trkpt><trkpt lat="43.77729083598276" lon="10.411297391356563"><ele>5.333333333333334</ele><time>2026-04-06T15:36:05Z</time></trkpt><trkpt lat="43.777351113155724" lon="10.411089899891762"><ele>5.666666666666667</ele><time>2026-04-06T15:36:06Z</time></trkpt><trkpt lat="43.777409712664515" lon="10.410884943065145"><ele>6.0</ele><time>2026-04-06T15:36:07Z</time></trkpt><trkpt lat="43.77746237262544" lon="10.410680269227324"><ele>5.666666666666667</ele><time>2026-04-06T15:36:08Z</time></trkpt><trkpt lat="43.77751538240175" lon="10.410469048550407"><ele>5.333333333333334</ele><time>2026-04-06T15:36:09Z</time></trkpt><trkpt lat="43.777563956700746" lon="10.4102673849036"><ele>5.0</ele><time>2026-04-06T15:36:10Z</time></trkpt><trkpt lat="43.777622582880774" lon="10.410049788682205"><ele>5.0</ele><time>2026-04-06T15:36:11Z</time></trkpt><trkpt lat="43.77766199491297" lon="10.409849859944583"><ele>5.0</ele><time>2026-04-06T15:36:12Z</time></trkpt><trkpt lat="43.77768090565679" lon="10.409642433891781"><ele>5.0</ele><time>2026-04-06T15:36:13Z</time></trkpt><trkpt lat="43.77770703428367" lon="10.40941848461802"><ele>4.333333333333334</ele><time>2026-04-06T15:36:14Z</time></trkpt><trkpt lat="43.77772386698941" lon="10.409200563274455"><ele>3.666666666666667</ele><time>2026-04-06T15:36:15Z</time></trkpt><trkpt lat="43.77773399511523" lon="10.408991608145914"><ele>3.0</ele><time>2026-04-06T15:36:16Z</time></trkpt><trkpt lat="43.77774468441847" lon="10.40877881839341"><ele>3.0</ele><time>2026-04-06T15:36:17Z</time></trkpt><trkpt lat="43.7777546253212" lon="10.408562125423213"><ele>3.0</ele><time>2026-04-06T15:36:18Z</time></trkpt><trkpt lat="43.7777611946299" lon="10.408354688833889"><ele>3.0</ele><time>2026-04-06T15:36:19Z</time></trkpt><trkpt lat="43.777775789105284" lon="10.40813012680163"><ele>3.333333333333333</ele><time>2026-04-06T15:36:20Z</time></trkpt><trkpt lat="43.777778786269714" lon="10.407907264530278"><ele>3.6666666666666665</ele><time>2026-04-06T15:36:21Z</time></trkpt><trkpt lat="43.77777927976819" lon="10.40768706675071"><ele>4.0</ele><time>2026-04-06T15:36:22Z</time></trkpt><trkpt lat="43.77777812307939" lon="10.407472604548293"><ele>4.0</ele><time>2026-04-06T15:36:23Z</time></trkpt><trkpt lat="43.777789514105194" lon="10.40725310070461"><ele>4.0</ele><time>2026-04-06T15:36:24Z</time></trkpt><trkpt lat="43.77780552486833" lon="10.407041716277664"><ele>4.0</ele><time>2026-04-06T15:36:25Z</time></trkpt><trkpt lat="43.777810301501766" lon="10.406814921233725"><ele>4.0</ele><time>2026-04-06T15:36:26Z</time></trkpt><trkpt lat="43.77782756585029" lon="10.406588399551293"><ele>4.0</ele><time>2026-04-06T15:36:27Z</time></trkpt><trkpt lat="43.77782976036598" lon="10.406380591409338"><ele>4.0</ele><time>2026-04-06T15:36:28Z</time></trkpt><trkpt lat="43.77783481243321" lon="10.40615732049861"><ele>4.333333333333333</ele><time>2026-04-06T15:36:29Z</time></trkpt><trkpt lat="43.77783434402171" lon="10.405936396134726"><ele>4.666666666666667</ele><time>2026-04-06T15:36:30Z</time></trkpt><trkpt lat="43.77783547034391" lon="10.405717422661084"><ele>5.0</ele><time>2026-04-06T15:36:31Z</time></trkpt><trkpt lat="43.77783336781142" lon="10.40550036974141"><ele>4.666666666666667</ele><time>2026-04-06T15:36:32Z</time></trkpt><trkpt lat="43.777855253086386" lon="10.405285479496987"><ele>4.333333333333333</ele><time>2026-04-06T15:36:33Z</time></trkpt><trkpt lat="43.7778584727469" lon="10.405076051212811"><ele>4.0</ele><time>2026-04-06T15:36:34Z</time></trkpt><trkpt lat="43.77785996361453" lon="10.404857892986639"><ele>4.0</ele><time>2026-04-06T15:36:35Z</time></trkpt><trkpt lat="43.777878759560444" lon="10.404648078926432"><ele>4.0</ele><time>2026-04-06T15:36:36Z</time></trkpt><trkpt lat="43.7778855280974" lon="10.404447983972336"><ele>4.0</ele><time>2026-04-06T15:36:37Z</time></trkpt><trkpt lat="43.77789679389642" lon="10.40425309199891"><ele>4.0</ele><time>2026-04-06T15:36:38Z</time></trkpt><trkpt lat="43.777907317396874" lon="10.40407006034948"><ele>4.0</ele><time>2026-04-06T15:36:39Z</time></trkpt><trkpt lat="43.777951883768964" lon="10.403888698053414"><ele>4.0</ele><time>2026-04-06T15:36:40Z</time></trkpt><trkpt lat="43.77799815492924" lon="10.403709340143534"><ele>4.0</ele><time>2026-04-06T15:36:41Z</time></trkpt><trkpt lat="43.77804136486953" lon="10.40355240620178"><ele>4.0</ele><time>2026-04-06T15:36:42Z</time></trkpt><trkpt lat="43.77810843326298" lon="10.40339765301902"><ele>4.4</ele><time>2026-04-06T15:36:43Z</time></trkpt><trkpt lat="43.77817914219914" lon="10.403249726939636"><ele>4.800000000000001</ele><time>2026-04-06T15:36:44Z</time></trkpt><trkpt lat="43.77823295173837" lon="10.403118849333822"><ele>5.199999999999999</ele><time>2026-04-06T15:36:45Z</time></trkpt><trkpt lat="43.77828877504728" lon="10.402985835699768"><ele>5.6</ele><time>2026-04-06T15:36:46Z</time></trkpt><trkpt lat="43.778335023892055" lon="10.402872429141906"><ele>6.0</ele><time>2026-04-06T15:36:47Z</time></trkpt><trkpt lat="43.77839087769977" lon="10.402773908161032"><ele>6.199999999999999</ele><time>2026-04-06T15:36:48Z</time></trkpt><trkpt lat="43.7784675886473" lon="10.40263784470498"><ele>6.3999999999999995</ele><time>2026-04-06T15:36:50Z</time></trkpt><trkpt lat="43.77851709534659" lon="10.402566908712773"><ele>6.6</ele><time>2026-04-06T15:36:51Z</time></trkpt><trkpt lat="43.778577227682355" lon="10.402474810155349"><ele>6.8</ele><time>2026-04-06T15:36:53Z</time></trkpt><trkpt lat="43.77852685284448" lon="10.402363930613296"><ele>7.0</ele><time>2026-04-06T15:36:54Z</time></trkpt><trkpt lat="43.77841899300689" lon="10.402291387921718"><ele>7.000000000000001</ele><time>2026-04-06T15:36:56Z</time></trkpt><trkpt lat="43.7783509547117" lon="10.4022758360439"><ele>7.0</ele><time>2026-04-06T15:36:57Z</time></trkpt><trkpt lat="43.778271309643074" lon="10.402183083328511"><ele>7.0</ele><time>2026-04-06T15:36:58Z</time></trkpt><trkpt lat="43.77818855580003" lon="10.402135523389452"><ele>7.0</ele><time>2026-04-06T15:36:59Z</time></trkpt><trkpt lat="43.77810476510818" lon="10.402087745481051"><ele>7.000000000000001</ele><time>2026-04-06T15:37:00Z</time></trkpt><trkpt lat="43.77801355020407" lon="10.402045256571668"><ele>7.0</ele><time>2026-04-06T15:37:01Z</time></trkpt><trkpt lat="43.77791499752182" lon="10.401989624543702"><ele>6.8</ele><time>2026-04-06T15:37:02Z</time></trkpt><trkpt lat="43.77783706931351" lon="10.401923275999494"><ele>6.6</ele><time>2026-04-06T15:37:03Z</time></trkpt><trkpt lat="43.77775713098106" lon="10.401869605521188"><ele>6.3999999999999995</ele><time>2026-04-06T15:37:04Z</time></trkpt><trkpt lat="43.77765756779495" lon="10.401802759013748"><ele>6.199999999999999</ele><time>2026-04-06T15:37:05Z</time></trkpt><trkpt lat="43.77755879249283" lon="10.401736441324491"><ele>6.0</ele><time>2026-04-06T15:37:06Z</time></trkpt><trkpt lat="43.777455316962225" lon="10.401665941962673"><ele>5.8</ele><time>2026-04-06T15:37:07Z</time></trkpt><trkpt lat="43.77737845748958" lon="10.401619775865333"><ele>5.6</ele><time>2026-04-06T15:37:08Z</time></trkpt><trkpt lat="43.77730447004184" lon="10.401563701906595"><ele>5.4</ele><time>2026-04-06T15:37:09Z</time></trkpt><trkpt lat="43.777211578261564" lon="10.401501500184555"><ele>5.2</ele><time>2026-04-06T15:37:10Z</time></trkpt><trkpt lat="43.77710736553336" lon="10.401440485758723"><ele>5.0</ele><time>2026-04-06T15:37:11Z</time></trkpt><trkpt lat="43.777033965224106" lon="10.401386498321964"><ele>5.0</ele><time>2026-04-06T15:37:12Z</time></trkpt><trkpt lat="43.77695474321862" lon="10.401323840078051"><ele>5.0</ele><time>2026-04-06T15:37:13Z</time></trkpt><trkpt lat="43.776869013967364" lon="10.401267198011354"><ele>5.0</ele><time>2026-04-06T15:37:14Z</time></trkpt><trkpt lat="43.77678250887575" lon="10.401216256028624"><ele>5.0</ele><time>2026-04-06T15:37:15Z</time></trkpt><trkpt lat="43.776715442786" lon="10.401154510027554"><ele>5.0</ele><time>2026-04-06T15:37:16Z</time></trkpt><trkpt lat="43.77663093361103" lon="10.40110007867659"><ele>5.0</ele><time>2026-04-06T15:37:17Z</time></trkpt><trkpt lat="43.77656565766042" lon="10.401041182760045"><ele>5.0</ele><time>2026-04-06T15:37:18Z</time></trkpt><trkpt lat="43.776500089973126" lon="10.401001844242835"><ele>5.0</ele><time>2026-04-06T15:37:19Z</time></trkpt><trkpt lat="43.77642854662209" lon="10.400955349952099"><ele>5.0</ele><time>2026-04-06T15:37:20Z</time></trkpt><trkpt lat="43.776360424518145" lon="10.400911517783031"><ele>5.0</ele><time>2026-04-06T15:37:21Z</time></trkpt><trkpt lat="43.77627601797862" lon="10.400864499691888"><ele>5.0</ele><time>2026-04-06T15:37:22Z</time></trkpt><trkpt lat="43.77619063931581" lon="10.400819155698766"><ele>5.0</ele><time>2026-04-06T15:37:23Z</time></trkpt><trkpt lat="43.776113649473665" lon="10.400765297723574"><ele>5.0</ele><time>2026-04-06T15:37:24Z</time></trkpt><trkpt lat="43.7760267528302" lon="10.400700776620448"><ele>5.0</ele><time>2026-04-06T15:37:25Z</time></trkpt><trkpt lat="43.77593763753288" lon="10.400642686347553"><ele>5.0</ele><time>2026-04-06T15:37:26Z</time></trkpt><trkpt lat="43.77583646833477" lon="10.40058147115545"><ele>5.0</ele><time>2026-04-06T15:37:27Z</time></trkpt><trkpt lat="43.77573463877231" lon="10.400522889201433"><ele>5.2</ele><time>2026-04-06T15:37:28Z</time></trkpt><trkpt lat="43.77563772944017" lon="10.400459944936252"><ele>5.4</ele><time>2026-04-06T15:37:29Z</time></trkpt><trkpt lat="43.77555152447216" lon="10.400408868046984"><ele>5.6</ele><time>2026-04-06T15:37:30Z</time></trkpt><trkpt lat="43.77546341764571" lon="10.40035886149617"><ele>5.8</ele><time>2026-04-06T15:37:31Z</time></trkpt><trkpt lat="43.77538138672892" lon="10.400299547413967"><ele>6.0</ele><time>2026-04-06T15:37:32Z</time></trkpt><trkpt lat="43.775292481861584" lon="10.40024755439132"><ele>6.0</ele><time>2026-04-06T15:37:33Z</time></trkpt><trkpt lat="43.77520684614077" lon="10.400181636424911"><ele>6.0</ele><time>2026-04-06T15:37:34Z</time></trkpt><trkpt lat="43.77511427845779" lon="10.400118313315948"><ele>6.0</ele><time>2026-04-06T15:37:35Z</time></trkpt><trkpt lat="43.77501615369927" lon="10.400054076614799"><ele>6.0</ele><time>2026-04-06T15:37:36Z</time></trkpt><trkpt lat="43.77491456670803" lon="10.399986342320158"><ele>6.0</ele><time>2026-04-06T15:37:37Z</time></trkpt><trkpt lat="43.77480952205815" lon="10.399925773609834"><ele>6.0</ele><time>2026-04-06T15:37:38Z</time></trkpt><trkpt lat="43.77470708285263" lon="10.399858929275714"><ele>6.0</ele><time>2026-04-06T15:37:39Z</time></trkpt><trkpt lat="43.774592367210325" lon="10.39980150318309"><ele>6.0</ele><time>2026-04-06T15:37:40Z</time></trkpt><trkpt lat="43.77449229236391" lon="10.399744484874658"><ele>6.0</ele><time>2026-04-06T15:37:41Z</time></trkpt><trkpt lat="43.77437553249752" lon="10.399657111394744"><ele>5.25</ele><time>2026-04-06T15:37:42Z</time></trkpt><trkpt lat="43.774267845438885" lon="10.399577932544537"><ele>4.5</ele><time>2026-04-06T15:37:43Z</time></trkpt><trkpt lat="43.77415505401383" lon="10.39948982456371"><ele>3.75</ele><time>2026-04-06T15:37:44Z</time></trkpt><trkpt lat="43.77404062802439" lon="10.39940264324628"><ele>3.0</ele><time>2026-04-06T15:37:45Z</time></trkpt><trkpt lat="43.773912545429106" lon="10.399306481474342"><ele>3.0</ele><time>2026-04-06T15:37:46Z</time></trkpt><trkpt lat="43.77378714837349" lon="10.39922462471412"><ele>3.0</ele><time>2026-04-06T15:37:47Z</time></trkpt><trkpt lat="43.77366863639059" lon="10.399128100319714"><ele>3.0</ele><time>2026-04-06T15:37:48Z</time></trkpt><trkpt lat="43.77356484826358" lon="10.399037322770818"><ele>3.0</ele><time>2026-04-06T15:37:49Z</time></trkpt><trkpt lat="43.77343910471568" lon="10.39894811755039"><ele>3.0</ele><time>2026-04-06T15:37:50Z</time></trkpt><trkpt lat="43.77331678222816" lon="10.39885877796222"><ele>3.0</ele><time>2026-04-06T15:37:51Z</time></trkpt><trkpt lat="43.77320856684531" lon="10.398777860655299"><ele>3.0</ele><time>2026-04-06T15:37:52Z</time></trkpt><trkpt lat="43.77310023229196" lon="10.398702363766459"><ele>3.0</ele><time>2026-04-06T15:37:53Z</time></trkpt><trkpt lat="43.772983566842655" lon="10.398613362411567"><ele>2.75</ele><time>2026-04-06T15:37:54Z</time></trkpt><trkpt lat="43.772863306042986" lon="10.398524084854396"><ele>2.5</ele><time>2026-04-06T15:37:55Z</time></trkpt><trkpt lat="43.772741209337454" lon="10.39844376959616"><ele>2.25</ele><time>2026-04-06T15:37:56Z</time></trkpt><trkpt lat="43.772609419811644" lon="10.398355024714364"><ele>2.0</ele><time>2026-04-06T15:37:57Z</time></trkpt><trkpt lat="43.77246867738017" lon="10.398268937811364"><ele>1.6666666666666665</ele><time>2026-04-06T15:37:58Z</time></trkpt><trkpt lat="43.77230532861881" lon="10.398172563443767"><ele>1.3333333333333333</ele><time>2026-04-06T15:37:59Z</time></trkpt><trkpt lat="43.77214472948837" lon="10.398040441505934"><ele>1.0</ele><time>2026-04-06T15:38:00Z</time></trkpt><trkpt lat="43.77196696896481" lon="10.397915148046284"><ele>1.0</ele><time>2026-04-06T15:38:01Z</time></trkpt><trkpt lat="43.77177824190679" lon="10.397801362882662"><ele>1.0</ele><time>2026-04-06T15:38:02Z</time></trkpt><trkpt lat="43.771607067252354" lon="10.397668740114792"><ele>1.0</ele><time>2026-04-06T15:38:03Z</time></trkpt><trkpt lat="43.7714154176893" lon="10.397529322955103"><ele>1.0</ele><time>2026-04-06T15:38:04Z</time></trkpt><trkpt lat="43.77122999909308" lon="10.397395006022956"><ele>1.0</ele><time>2026-04-06T15:38:05Z</time></trkpt><trkpt lat="43.77104757300687" lon="10.39725769574351"><ele>1.0</ele><time>2026-04-06T15:38:06Z</time></trkpt><trkpt lat="43.77087117834749" lon="10.397132951476669"><ele>1.6666666666666665</ele><time>2026-04-06T15:38:07Z</time></trkpt><trkpt lat="43.77070209915698" lon="10.397012100818976"><ele>2.3333333333333335</ele><time>2026-04-06T15:38:08Z</time></trkpt><trkpt lat="43.770529257503576" lon="10.39688776434333"><ele>3.0</ele><time>2026-04-06T15:38:09Z</time></trkpt><trkpt lat="43.77037153428571" lon="10.396780818439417"><ele>3.0</ele><time>2026-04-06T15:38:10Z</time></trkpt><trkpt lat="43.77020928088755" lon="10.396663513199458"><ele>3.0</ele><time>2026-04-06T15:38:11Z</time></trkpt><trkpt lat="43.770047042364055" lon="10.396540004269847"><ele>3.0</ele><time>2026-04-06T15:38:12Z</time></trkpt><trkpt lat="43.7698824792732" lon="10.396426055353832"><ele>3.0</ele><time>2026-04-06T15:38:13Z</time></trkpt><trkpt lat="43.769734753301904" lon="10.396326915112633"><ele>3.0</ele><time>2026-04-06T15:38:14Z</time></trkpt><trkpt lat="43.76957696388739" lon="10.396216438636444"><ele>3.0</ele><time>2026-04-06T15:38:15Z</time></trkpt><trkpt lat="43.76941360192755" lon="10.396095935242126"><ele>2.0</ele><time>2026-04-06T15:38:16Z</time></trkpt><trkpt lat="43.76925612451031" lon="10.395970131505035"><ele>1.0</ele><time>2026-04-06T15:38:17Z</time></trkpt><trkpt lat="43.769098997466116" lon="10.395829038128449"><ele>0.0</ele><time>2026-04-06T15:38:18Z</time></trkpt><trkpt lat="43.76892338550645" lon="10.395685975025328"><ele>0.0</ele><time>2026-04-06T15:38:19Z</time></trkpt><trkpt lat="43.76874105829679" lon="10.39554159279106"><ele>0.0</ele><time>2026-04-06T15:38:20Z</time></trkpt><trkpt lat="43.76854299118042" lon="10.395384466630228"><ele>0.0</ele><time>2026-04-06T15:38:21Z</time></trkpt><trkpt lat="43.76834014630115" lon="10.395244300779149"><ele>1.0</ele><time>2026-04-06T15:38:22Z</time></trkpt><trkpt lat="43.76812684172295" lon="10.395119779460254"><ele>2.0</ele><time>2026-04-06T15:38:23Z</time></trkpt><trkpt lat="43.76789618115718" lon="10.395011009658411"><ele>1.0</ele><time>2026-04-06T15:38:24Z</time></trkpt><trkpt lat="43.76767211717541" lon="10.394904935382558"><ele>0.0</ele><time>2026-04-06T15:38:25Z</time></trkpt><trkpt lat="43.7674410629476" lon="10.394773697266054"><ele>0.0</ele><time>2026-04-06T15:38:26Z</time></trkpt><trkpt lat="43.76721413556337" lon="10.394642471551482"><ele>0.0</ele><time>2026-04-06T15:38:27Z</time></trkpt><trkpt lat="43.76699366235701" lon="10.394512484043956"><ele>0.0</ele><time>2026-04-06T15:38:28Z</time></trkpt><trkpt lat="43.766786890151444" lon="10.394371433684666"><ele>0.0</ele><time>2026-04-06T15:38:29Z</time></trkpt><trkpt lat="43.76658654797396" lon="10.394235751211587"><ele>0.0</ele><time>2026-04-06T15:38:30Z</time></trkpt><trkpt lat="43.7663775937316" lon="10.394102319373875"><ele>0.0</ele><time>2026-04-06T15:38:31Z</time></trkpt><trkpt lat="43.766152527942516" lon="10.393968727808794"><ele>0.5</ele><time>2026-04-06T15:38:32Z</time></trkpt><trkpt lat="43.765935005747366" lon="10.39383379633474"><ele>1.0</ele><time>2026-04-06T15:38:33Z</time></trkpt><trkpt lat="43.7657144624962" lon="10.393687125322218"><ele>1.0</ele><time>2026-04-06T15:38:34Z</time></trkpt><trkpt lat="43.7654979434112" lon="10.393545478744068"><ele>1.0</ele><time>2026-04-06T15:38:35Z</time></trkpt><trkpt lat="43.76527911989486" lon="10.393395306780059"><ele>1.5</ele><time>2026-04-06T15:38:36Z</time></trkpt><trkpt lat="43.765067447276465" lon="10.393241005031562"><ele>2.0</ele><time>2026-04-06T15:38:37Z</time></trkpt><trkpt lat="43.76485700715523" lon="10.39309074679243"><ele>1.5</ele><time>2026-04-06T15:38:38Z</time></trkpt><trkpt lat="43.764651096438485" lon="10.392946358915898"><ele>1.0</ele><time>2026-04-06T15:38:39Z</time></trkpt><trkpt lat="43.76444791658978" lon="10.392799483437335"><ele>1.0</ele><time>2026-04-06T15:38:40Z</time></trkpt><trkpt lat="43.7642460726293" lon="10.392661798313702"><ele>1.0</ele><time>2026-04-06T15:38:41Z</time></trkpt><trkpt lat="43.76405477649234" lon="10.39251471428727"><ele>1.0</ele><time>2026-04-06T15:38:42Z</time></trkpt><trkpt lat="43.763872671841874" lon="10.392387134008036"><ele>1.0</ele><time>2026-04-06T15:38:43Z</time></trkpt><trkpt lat="43.76370495707932" lon="10.392273431783673"><ele>1.0</ele><time>2026-04-06T15:38:44Z</time></trkpt><trkpt lat="43.76353107612956" lon="10.392145874467943"><ele>1.0</ele><time>2026-04-06T15:38:45Z</time></trkpt><trkpt lat="43.76336060574026" lon="10.392030227459191"><ele>1.0</ele><time>2026-04-06T15:38:46Z</time></trkpt><trkpt lat="43.763199231336415" lon="10.391902643288795"><ele>1.0</ele><time>2026-04-06T15:38:47Z</time></trkpt><trkpt lat="43.76303371772917" lon="10.391786823606093"><ele>1.0</ele><time>2026-04-06T15:38:48Z</time></trkpt><trkpt lat="43.76287412445031" lon="10.39167801271118"><ele>1.0</ele><time>2026-04-06T15:38:49Z</time></trkpt><trkpt lat="43.76270964426687" lon="10.391574543104282"><ele>1.0</ele><time>2026-04-06T15:38:50Z</time></trkpt><trkpt lat="43.76253163342006" lon="10.391460813414108"><ele>1.0</ele><time>2026-04-06T15:38:51Z</time></trkpt><trkpt lat="43.762360471542536" lon="10.39136312034397"><ele>1.0</ele><time>2026-04-06T15:38:52Z</time></trkpt><trkpt lat="43.76218717697977" lon="10.39127273154086"><ele>1.0</ele><time>2026-04-06T15:38:53Z</time></trkpt><trkpt lat="43.762017187310356" lon="10.391169836484858"><ele>1.0</ele><time>2026-04-06T15:38:54Z</time></trkpt><trkpt lat="43.76184934990261" lon="10.391075315594232"><ele>1.3333333333333333</ele><time>2026-04-06T15:38:55Z</time></trkpt><trkpt lat="43.761681528122935" lon="10.390982207056961"><ele>1.6666666666666665</ele><time>2026-04-06T15:38:56Z</time></trkpt><trkpt lat="43.76152140487915" lon="10.390882267136575"><ele>2.0</ele><time>2026-04-06T15:38:57Z</time></trkpt><trkpt lat="43.76136967111202" lon="10.390782625974529"><ele>2.0</ele><time>2026-04-06T15:38:58Z</time></trkpt><trkpt lat="43.76121637399344" lon="10.390670067632383"><ele>2.0</ele><time>2026-04-06T15:38:59Z</time></trkpt><trkpt lat="43.761068504485976" lon="10.390559425594024"><ele>2.0</ele><time>2026-04-06T15:39:00Z</time></trkpt><trkpt lat="43.76093401790648" lon="10.390455703072126"><ele>2.0</ele><time>2026-04-06T15:39:01Z</time></trkpt><trkpt lat="43.760806126380466" lon="10.390340956833509"><ele>2.0</ele><time>2026-04-06T15:39:02Z</time></trkpt><trkpt lat="43.76067764300636" lon="10.390252839159373"><ele>2.0</ele><time>2026-04-06T15:39:03Z</time></trkpt><trkpt lat="43.76053371159658" lon="10.390169537502747"><ele>2.0</ele><time>2026-04-06T15:39:04Z</time></trkpt><trkpt lat="43.760380312479995" lon="10.39007962211382"><ele>2.0</ele><time>2026-04-06T15:39:05Z</time></trkpt><trkpt lat="43.76021074840828" lon="10.389975063204892"><ele>2.0</ele><time>2026-04-06T15:39:06Z</time></trkpt><trkpt lat="43.760035913875086" lon="10.389873881455305"><ele>2.0</ele><time>2026-04-06T15:39:07Z</time></trkpt><trkpt lat="43.759857383701046" lon="10.389753018721823"><ele>2.0</ele><time>2026-04-06T15:39:08Z</time></trkpt><trkpt lat="43.759670543797675" lon="10.38962133838284"><ele>2.0</ele><time>2026-04-06T15:39:09Z</time></trkpt><trkpt lat="43.75948630161791" lon="10.389471008047034"><ele>1.0</ele><time>2026-04-06T15:39:10Z</time></trkpt><trkpt lat="43.759288084292216" lon="10.389311619512135"><ele>0.0</ele><time>2026-04-06T15:39:11Z</time></trkpt><trkpt lat="43.75909603489746" lon="10.389162142734172"><ele>0.0</ele><time>2026-04-06T15:39:12Z</time></trkpt><trkpt lat="43.75891943357187" lon="10.389024185624384"><ele>0.0</ele><time>2026-04-06T15:39:13Z</time></trkpt><trkpt lat="43.758755725832884" lon="10.388890531478312"><ele>0.0</ele><time>2026-04-06T15:39:14Z</time></trkpt><trkpt lat="43.7585971609352" lon="10.388765061934276"><ele>0.6666666666666666</ele><time>2026-04-06T15:39:15Z</time></trkpt><trkpt lat="43.75844868519078" lon="10.388663225889918"><ele>1.3333333333333333</ele><time>2026-04-06T15:39:16Z</time></trkpt><trkpt lat="43.758304634661066" lon="10.388549160895147"><ele>2.0</ele><time>2026-04-06T15:39:17Z</time></trkpt><trkpt lat="43.75816768382894" lon="10.388447347409068"><ele>2.0</ele><time>2026-04-06T15:39:18Z</time></trkpt><trkpt lat="43.75804171666138" lon="10.388366954761011"><ele>2.0</ele><time>2026-04-06T15:39:19Z</time></trkpt><trkpt lat="43.75793053352435" lon="10.388328265892298"><ele>2.0</ele><time>2026-04-06T15:39:20Z</time></trkpt><trkpt lat="43.75782211773552" lon="10.388300139105079"><ele>2.0</ele><time>2026-04-06T15:39:21Z</time></trkpt><trkpt lat="43.75775028158978" lon="10.388261007451748"><ele>2.0</ele><time>2026-04-06T15:39:22Z</time></trkpt><trkpt lat="43.75769107822127" lon="10.388173763882618"><ele>1.9999999999999998</ele><time>2026-04-06T15:39:23Z</time></trkpt><trkpt lat="43.75766893932967" lon="10.388078805446497"><ele>2.0</ele><time>2026-04-06T15:39:24Z</time></trkpt><trkpt lat="43.75768124318713" lon="10.387990357585387"><ele>2.0</ele><time>2026-04-06T15:39:25Z</time></trkpt><trkpt lat="43.757715892344564" lon="10.387909764177675"><ele>2.0</ele><time>2026-04-06T15:39:26Z</time></trkpt><trkpt lat="43.757780674054764" lon="10.387863520437776"><ele>1.9999999999999998</ele><time>2026-04-06T15:39:27Z</time></trkpt><trkpt lat="43.75786637992212" lon="10.387824781153428"><ele>2.0</ele><time>2026-04-06T15:39:28Z</time></trkpt><trkpt lat="43.75798164776959" lon="10.387817529110748"><ele>2.0</ele><time>2026-04-06T15:39:29Z</time></trkpt><trkpt lat="43.7580931528612" lon="10.387821354306643"><ele>2.0</ele><time>2026-04-06T15:39:30Z</time></trkpt><trkpt lat="43.75822972139674" lon="10.387822703637076"><ele>2.0</ele><time>2026-04-06T15:39:31Z</time></trkpt><trkpt lat="43.75839915153618" lon="10.387815824315574"><ele>2.0</ele><time>2026-04-06T15:39:32Z</time></trkpt><trkpt lat="43.75855098921687" lon="10.387803011066215"><ele>2.0</ele><time>2026-04-06T15:39:33Z</time></trkpt><trkpt lat="43.758715610566234" lon="10.38779615601573"><ele>2.0</ele><time>2026-04-06T15:39:34Z</time></trkpt><trkpt lat="43.758892974531975" lon="10.387795131993922"><ele>2.0</ele><time>2026-04-06T15:39:35Z</time></trkpt><trkpt lat="43.75907292359259" lon="10.387783813914218"><ele>2.0</ele><time>2026-04-06T15:39:36Z</time></trkpt><trkpt lat="43.75925900113943" lon="10.387802988400823"><ele>2.0</ele><time>2026-04-06T15:39:37Z</time></trkpt><trkpt lat="43.75943540822362" lon="10.38778651450985"><ele>2.0</ele><time>2026-04-06T15:39:38Z</time></trkpt><trkpt lat="43.759615545951455" lon="10.387763050019643"><ele>1.3333333333333333</ele><time>2026-04-06T15:39:39Z</time></trkpt><trkpt lat="43.75980196872314" lon="10.387731004708776"><ele>0.6666666666666666</ele><time>2026-04-06T15:39:40Z</time></trkpt><trkpt lat="43.75997642309824" lon="10.38772348108423"><ele>0.0</ele><time>2026-04-06T15:39:41Z</time></trkpt><trkpt lat="43.76015238320714" lon="10.387722371786221"><ele>0.3333333333333333</ele><time>2026-04-06T15:39:42Z</time></trkpt><trkpt lat="43.760323115448934" lon="10.387733730655652"><ele>0.6666666666666666</ele><time>2026-04-06T15:39:43Z</time></trkpt><trkpt lat="43.76048022667806" lon="10.387740419282133"><ele>1.0</ele><time>2026-04-06T15:39:44Z</time></trkpt><trkpt lat="43.7606423340032" lon="10.387738146437444"><ele>1.0</ele><time>2026-04-06T15:39:45Z</time></trkpt><trkpt lat="43.76079446327071" lon="10.38772229019837"><ele>1.0</ele><time>2026-04-06T15:39:46Z</time></trkpt><trkpt lat="43.760962219584705" lon="10.38770268601975"><ele>1.0</ele><time>2026-04-06T15:39:47Z</time></trkpt><trkpt lat="43.76110639568742" lon="10.387674908872379"><ele>1.0</ele><time>2026-04-06T15:39:48Z</time></trkpt><trkpt lat="43.761235307239296" lon="10.387651110579812"><ele>1.0</ele><time>2026-04-06T15:39:49Z</time></trkpt><trkpt lat="43.76136041566175" lon="10.38763659848375"><ele>1.0</ele><time>2026-04-06T15:39:50Z</time></trkpt><trkpt lat="43.761471513543334" lon="10.387624476910405"><ele>1.0</ele><time>2026-04-06T15:39:51Z</time></trkpt><trkpt lat="43.76158179154277" lon="10.387615529257632"><ele>0.9999999999999999</ele><time>2026-04-06T15:39:52Z</time></trkpt><trkpt lat="43.76167101572812" lon="10.387581104214147"><ele>1.0</ele><time>2026-04-06T15:39:53Z</time></trkpt><trkpt lat="43.7617462140044" lon="10.387513258449559"><ele>1.0</ele><time>2026-04-06T15:39:54Z</time></trkpt><trkpt lat="43.7617864803363" lon="10.387414077483122"><ele>1.0</ele><time>2026-04-06T15:39:55Z</time></trkpt><trkpt lat="43.76178994133501" lon="10.38730459760846"><ele>0.9999999999999999</ele><time>2026-04-06T15:39:56Z</time></trkpt><trkpt lat="43.7617883015251" lon="10.387173453318015"><ele>1.0</ele><time>2026-04-06T15:39:57Z</time></trkpt><trkpt lat="43.761774455420344" lon="10.387022485253805"><ele>1.0</ele><time>2026-04-06T15:39:58Z</time></trkpt><trkpt lat="43.761759512090585" lon="10.386845926639472"><ele>1.0</ele><time>2026-04-06T15:39:59Z</time></trkpt><trkpt lat="43.761750048120646" lon="10.386646623503735"><ele>1.0</ele><time>2026-04-06T15:40:00Z</time></trkpt><trkpt lat="43.76173922370228" lon="10.386433288919685"><ele>1.0</ele><time>2026-04-06T15:40:01Z</time></trkpt><trkpt lat="43.76174189907246" lon="10.386209558499026"><ele>1.0</ele><time>2026-04-06T15:40:02Z</time></trkpt><trkpt lat="43.76175035861656" lon="10.385994440903644"><ele>1.0</ele><time>2026-04-06T15:40:03Z</time></trkpt><trkpt lat="43.761781205730244" lon="10.385774853708352"><ele>1.0</ele><time>2026-04-06T15:40:04Z</time></trkpt><trkpt lat="43.76183514764387" lon="10.385566508602343"><ele>0.3333333333333333</ele><time>2026-04-06T15:40:05Z</time></trkpt><trkpt lat="43.76190275818692" lon="10.385365141873658"><ele>-0.3333333333333333</ele><time>2026-04-06T15:40:06Z</time></trkpt><trkpt lat="43.761985394321236" lon="10.385185870164838"><ele>-1.0</ele><time>2026-04-06T15:40:07Z</time></trkpt><trkpt lat="43.762088787652424" lon="10.38500380313266"><ele>-1.0</ele><time>2026-04-06T15:40:08Z</time></trkpt><trkpt lat="43.76220939217786" lon="10.384838487235069"><ele>-1.0</ele><time>2026-04-06T15:40:09Z</time></trkpt><trkpt lat="43.76233834652544" lon="10.384697232655775"><ele>-1.0</ele><time>2026-04-06T15:40:10Z</time></trkpt><trkpt lat="43.762466012847696" lon="10.384573798782817"><ele>-0.5</ele><time>2026-04-06T15:40:11Z</time></trkpt><trkpt lat="43.76257438828009" lon="10.38444927725943"><ele>0.0</ele><time>2026-04-06T15:40:12Z</time></trkpt><trkpt lat="43.762669199970965" lon="10.384336490045877"><ele>0.5</ele><time>2026-04-06T15:40:13Z</time></trkpt><trkpt lat="43.76274568630742" lon="10.384236391857208"><ele>1.0</ele><time>2026-04-06T15:40:14Z</time></trkpt><trkpt lat="43.762827522156535" lon="10.384147498647561"><ele>1.25</ele><time>2026-04-06T15:40:15Z</time></trkpt><trkpt lat="43.76291051163991" lon="10.384075628182407"><ele>1.5</ele><time>2026-04-06T15:40:16Z</time></trkpt><trkpt lat="43.7630114193803" lon="10.384027023995156"><ele>1.75</ele><time>2026-04-06T15:40:17Z</time></trkpt><trkpt lat="43.76312502143167" lon="10.38405873746673"><ele>2.0</ele><time>2026-04-06T15:40:18Z</time></trkpt><trkpt lat="43.76325617847703" lon="10.384072162345308"><ele>2.0</ele><time>2026-04-06T15:40:19Z</time></trkpt><trkpt lat="43.76340536003547" lon="10.384027873722866"><ele>2.0</ele><time>2026-04-06T15:40:20Z</time></trkpt><trkpt lat="43.76355681397374" lon="10.383985571115092"><ele>2.0</ele><time>2026-04-06T15:40:21Z</time></trkpt><trkpt lat="43.76371798845199" lon="10.38392814343461"><ele>2.0</ele><time>2026-04-06T15:40:22Z</time></trkpt><trkpt lat="43.76389589924518" lon="10.383866913052499"><ele>2.0</ele><time>2026-04-06T15:40:23Z</time></trkpt><trkpt lat="43.764068568608174" lon="10.383815639449125"><ele>2.0</ele><time>2026-04-06T15:40:24Z</time></trkpt><trkpt lat="43.76422856927125" lon="10.383766104244323"><ele>1.6666666666666665</ele><time>2026-04-06T15:40:25Z</time></trkpt><trkpt lat="43.76437334379087" lon="10.383711786673944"><ele>1.3333333333333333</ele><time>2026-04-06T15:40:26Z</time></trkpt><trkpt lat="43.7645130004579" lon="10.3836564857937"><ele>1.0</ele><time>2026-04-06T15:40:27Z</time></trkpt><trkpt lat="43.76466224206461" lon="10.38360153196396"><ele>1.0</ele><time>2026-04-06T15:40:28Z</time></trkpt><trkpt lat="43.764806981438475" lon="10.383544409271602"><ele>1.0</ele><time>2026-04-06T15:40:29Z</time></trkpt><trkpt lat="43.76495511515744" lon="10.383493073821574"><ele>1.0</ele><time>2026-04-06T15:40:30Z</time></trkpt><trkpt lat="43.76509768253875" lon="10.383443038793827"><ele>1.5</ele><time>2026-04-06T15:40:31Z</time></trkpt><trkpt lat="43.76523501615622" lon="10.38339949960794"><ele>2.0</ele><time>2026-04-06T15:40:32Z</time></trkpt><trkpt lat="43.76536505145729" lon="10.383366455690332"><ele>2.5</ele><time>2026-04-06T15:40:33Z</time></trkpt><trkpt lat="43.765484097156765" lon="10.383318265324295"><ele>3.0</ele><time>2026-04-06T15:40:34Z</time></trkpt><trkpt lat="43.76561386613912" lon="10.38326690513029"><ele>3.0</ele><time>2026-04-06T15:40:35Z</time></trkpt><trkpt lat="43.765714113597454" lon="10.383188108076585"><ele>3.0</ele><time>2026-04-06T15:40:36Z</time></trkpt><trkpt lat="43.76580439838804" lon="10.383094931656034"><ele>3.0</ele><time>2026-04-06T15:40:37Z</time></trkpt><trkpt lat="43.76587840624741" lon="10.382987077838298"><ele>3.0</ele><time>2026-04-06T15:40:38Z</time></trkpt><trkpt lat="43.76591083652606" lon="10.382837408341562"><ele>3.0</ele><time>2026-04-06T15:40:39Z</time></trkpt><trkpt lat="43.76597524715657" lon="10.38269548830514"><ele>2.75</ele><time>2026-04-06T15:40:40Z</time></trkpt><trkpt lat="43.76603934603193" lon="10.382557459946119"><ele>2.5</ele><time>2026-04-06T15:40:41Z</time></trkpt><trkpt lat="43.76612817270421" lon="10.382439675704765"><ele>2.25</ele><time>2026-04-06T15:40:42Z</time></trkpt><trkpt lat="43.76624369114995" lon="10.382323089274376"><ele>2.0</ele><time>2026-04-06T15:40:43Z</time></trkpt><trkpt lat="43.76637263982284" lon="10.382208903397492"><ele>1.6666666666666665</ele><time>2026-04-06T15:40:44Z</time></trkpt><trkpt lat="43.76651129233247" lon="10.382081035129227"><ele>1.3333333333333333</ele><time>2026-04-06T15:40:45Z</time></trkpt><trkpt lat="43.766654132902595" lon="10.381936134368742"><ele>1.0</ele><time>2026-04-06T15:40:46Z</time></trkpt><trkpt lat="43.766801880070666" lon="10.381788789698543"><ele>1.6666666666666665</ele><time>2026-04-06T15:40:47Z</time></trkpt><trkpt lat="43.76695851030074" lon="10.381626903633508"><ele>2.3333333333333335</ele><time>2026-04-06T15:40:48Z</time></trkpt><trkpt lat="43.767110455013714" lon="10.381455411055676"><ele>3.0</ele><time>2026-04-06T15:40:49Z</time></trkpt><trkpt lat="43.76726535226055" lon="10.381279130065915"><ele>3.0</ele><time>2026-04-06T15:40:50Z</time></trkpt><trkpt lat="43.76742253481262" lon="10.38109576952163"><ele>3.0</ele><time>2026-04-06T15:40:51Z</time></trkpt><trkpt lat="43.76757186952" lon="10.380900486214367"><ele>3.0</ele><time>2026-04-06T15:40:52Z</time></trkpt><trkpt lat="43.76769381619635" lon="10.380692337267694"><ele>2.3333333333333335</ele><time>2026-04-06T15:40:53Z</time></trkpt><trkpt lat="43.76784204364372" lon="10.380463807251395"><ele>1.6666666666666665</ele><time>2026-04-06T15:40:54Z</time></trkpt><trkpt lat="43.76799802374606" lon="10.380244142462358"><ele>1.0</ele><time>2026-04-06T15:40:55Z</time></trkpt><trkpt lat="43.768160425639884" lon="10.380001237232616"><ele>1.0</ele><time>2026-04-06T15:40:56Z</time></trkpt><trkpt lat="43.76831413714388" lon="10.379759235485524"><ele>1.0</ele><time>2026-04-06T15:40:57Z</time></trkpt><trkpt lat="43.76847940440164" lon="10.3795079325932"><ele>2.0</ele><time>2026-04-06T15:40:58Z</time></trkpt><trkpt lat="43.76863802068433" lon="10.379240102919962"><ele>3.0</ele><time>2026-04-06T15:40:59Z</time></trkpt><trkpt lat="43.76881905033928" lon="10.378956097455905"><ele>2.5</ele><time>2026-04-06T15:41:00Z</time></trkpt><trkpt lat="43.76897494387551" lon="10.378694772790386"><ele>2.0</ele><time>2026-04-06T15:41:01Z</time></trkpt><trkpt lat="43.7691324472498" lon="10.378428977620208"><ele>2.0</ele><time>2026-04-06T15:41:02Z</time></trkpt><trkpt lat="43.7692751774637" lon="10.378175091700392"><ele>2.0</ele><time>2026-04-06T15:41:03Z</time></trkpt><trkpt lat="43.769406197866644" lon="10.377913697897366"><ele>2.333333333333333</ele><time>2026-04-06T15:41:04Z</time></trkpt><trkpt lat="43.769545895592" lon="10.377690293745946"><ele>2.6666666666666665</ele><time>2026-04-06T15:41:05Z</time></trkpt><trkpt lat="43.76968468366361" lon="10.377453402949882"><ele>3.0</ele><time>2026-04-06T15:41:06Z</time></trkpt><trkpt lat="43.76980731615097" lon="10.377231883524216"><ele>3.0</ele><time>2026-04-06T15:41:07Z</time></trkpt><trkpt lat="43.76993282821108" lon="10.377013758163931"><ele>3.0</ele><time>2026-04-06T15:41:08Z</time></trkpt><trkpt lat="43.77006550931304" lon="10.37680123402558"><ele>3.0</ele><time>2026-04-06T15:41:09Z</time></trkpt><trkpt lat="43.770194634807496" lon="10.376586456158767"><ele>3.0</ele><time>2026-04-06T15:41:10Z</time></trkpt><trkpt lat="43.7703386391061" lon="10.376371606175676"><ele>3.0</ele><time>2026-04-06T15:41:11Z</time></trkpt><trkpt lat="43.77048189928474" lon="10.376167939753618"><ele>3.0</ele><time>2026-04-06T15:41:12Z</time></trkpt><trkpt lat="43.77061518964236" lon="10.375988692733621"><ele>2.3333333333333335</ele><time>2026-04-06T15:41:13Z</time></trkpt><trkpt lat="43.77073756581629" lon="10.375810067960881"><ele>1.6666666666666665</ele><time>2026-04-06T15:41:14Z</time></trkpt><trkpt lat="43.77085220097761" lon="10.375657149502436"><ele>1.0</ele><time>2026-04-06T15:41:15Z</time></trkpt><trkpt lat="43.770957597112606" lon="10.375522525483133"><ele>2.0</ele><time>2026-04-06T15:41:16Z</time></trkpt><trkpt lat="43.77102940077779" lon="10.375398580366333"><ele>3.0</ele><time>2026-04-06T15:41:17Z</time></trkpt><trkpt lat="43.77109832712104" lon="10.375290310379755"><ele>3.9999999999999996</ele><time>2026-04-06T15:41:18Z</time></trkpt><trkpt lat="43.771163813204325" lon="10.375194205514456"><ele>5.0</ele><time>2026-04-06T15:41:19Z</time></trkpt><trkpt lat="43.771236686221" lon="10.375100433120604"><ele>6.0</ele><time>2026-04-06T15:41:20Z</time></trkpt><trkpt lat="43.771305099882824" lon="10.375014566099718"><ele>6.0</ele><time>2026-04-06T15:41:21Z</time></trkpt><trkpt lat="43.771380937892445" lon="10.37493048030385"><ele>6.0</ele><time>2026-04-06T15:41:22Z</time></trkpt><trkpt lat="43.77146288662809" lon="10.374835391854601"><ele>6.0</ele><time>2026-04-06T15:41:24Z</time></trkpt><trkpt lat="43.771364960553456" lon="10.374692605453708"><ele>6.0</ele><time>2026-04-06T15:41:26Z</time></trkpt><trkpt lat="43.77131356178467" lon="10.374617725440658"><ele>6.0</ele><time>2026-04-06T15:41:27Z</time></trkpt><trkpt lat="43.771250224058925" lon="10.374525847275104"><ele>5.3999999999999995</ele><time>2026-04-06T15:41:28Z</time></trkpt><trkpt lat="43.77118869585431" lon="10.37441699774534"><ele>4.8</ele><time>2026-04-06T15:41:29Z</time></trkpt><trkpt lat="43.7711150239709" lon="10.374314720771805"><ele>4.199999999999999</ele><time>2026-04-06T15:41:30Z</time></trkpt><trkpt lat="43.77102473321092" lon="10.374206262583373"><ele>3.5999999999999996</ele><time>2026-04-06T15:41:31Z</time></trkpt><trkpt lat="43.770943692920625" lon="10.374083308204312"><ele>3.0</ele><time>2026-04-06T15:41:32Z</time></trkpt><trkpt lat="43.770852247558246" lon="10.37395542365461"><ele>3.25</ele><time>2026-04-06T15:41:33Z</time></trkpt><trkpt lat="43.77075728366357" lon="10.373828950680188"><ele>3.5</ele><time>2026-04-06T15:41:34Z</time></trkpt><trkpt lat="43.77067111045052" lon="10.373709229276637"><ele>3.75</ele><time>2026-04-06T15:41:35Z</time></trkpt><trkpt lat="43.770594811466594" lon="10.373599350295898"><ele>4.0</ele><time>2026-04-06T15:41:36Z</time></trkpt><trkpt lat="43.770520690460664" lon="10.373503689619586"><ele>3.9999999999999996</ele><time>2026-04-06T15:41:37Z</time></trkpt><trkpt lat="43.77045168889798" lon="10.373417794542851"><ele>4.0</ele><time>2026-04-06T15:41:38Z</time></trkpt><trkpt lat="43.77039607317697" lon="10.373340198921728"><ele>4.0</ele><time>2026-04-06T15:41:39Z</time></trkpt><trkpt lat="43.77034524285116" lon="10.373276218257327"><ele>4.0</ele><time>2026-04-06T15:41:40Z</time></trkpt><trkpt lat="43.77029670172013" lon="10.373220306848022"><ele>3.9999999999999996</ele><time>2026-04-06T15:41:42Z</time></trkpt><trkpt lat="43.77038188638719" lon="10.3730687054462"><ele>4.0</ele><time>2026-04-06T15:41:46Z</time></trkpt><trkpt lat="43.770441423833084" lon="10.37295005716975"><ele>3.75</ele><time>2026-04-06T15:41:48Z</time></trkpt><trkpt lat="43.770497117349855" lon="10.372844075117763"><ele>3.5</ele><time>2026-04-06T15:41:50Z</time></trkpt><trkpt lat="43.77054119093218" lon="10.372737099701906"><ele>3.25</ele><time>2026-04-06T15:41:52Z</time></trkpt><trkpt lat="43.77040450347577" lon="10.372649942859704"><ele>3.0</ele><time>2026-04-06T15:41:53Z</time></trkpt><trkpt lat="43.77027502678616" lon="10.372530376643933"><ele>3.0</ele><time>2026-04-06T15:41:55Z</time></trkpt><trkpt lat="43.770191693046606" lon="10.372456625518044"><ele>3.0</ele><time>2026-04-06T15:41:56Z</time></trkpt><trkpt lat="43.77011283054605" lon="10.372409764916172"><ele>3.0</ele><time>2026-04-06T15:41:57Z</time></trkpt><trkpt lat="43.77004825828171" lon="10.372339462962412"><ele>3.0</ele><time>2026-04-06T15:41:58Z</time></trkpt><trkpt lat="43.769997073483445" lon="10.37228444505253"><ele>3.0</ele><time>2026-04-06T15:41:59Z</time></trkpt><trkpt lat="43.769956629594546" lon="10.372188754710212"><ele>3.0</ele><time>2026-04-06T15:42:01Z</time></trkpt><trkpt lat="43.769995718291646" lon="10.372057002532745"><ele>2.8</ele><time>2026-04-06T15:42:03Z</time></trkpt><trkpt lat="43.770044891865545" lon="10.371979204467358"><ele>2.5999999999999996</ele><time>2026-04-06T15:42:04Z</time></trkpt><trkpt lat="43.77010121405416" lon="10.37188402055939"><ele>2.4000000000000004</ele><time>2026-04-06T15:42:05Z</time></trkpt><trkpt lat="43.77015571484298" lon="10.371767893350722"><ele>2.2</ele><time>2026-04-06T15:42:06Z</time></trkpt><trkpt lat="43.7702204575938" lon="10.371655497403207"><ele>2.0</ele><time>2026-04-06T15:42:07Z</time></trkpt><trkpt lat="43.770288781151585" lon="10.37152551366101"><ele>2.0</ele><time>2026-04-06T15:42:08Z</time></trkpt><trkpt lat="43.77035891137231" lon="10.371417399119018"><ele>2.0</ele><time>2026-04-06T15:42:09Z</time></trkpt><trkpt lat="43.77041955193099" lon="10.371287276945402"><ele>2.0</ele><time>2026-04-06T15:42:10Z</time></trkpt><trkpt lat="43.77051647637097" lon="10.371134609600544"><ele>2.0</ele><time>2026-04-06T15:42:11Z</time></trkpt><trkpt lat="43.770603379614876" lon="10.370999251011904"><ele>2.0</ele><time>2026-04-06T15:42:12Z</time></trkpt><trkpt lat="43.77067159097845" lon="10.370858982732297"><ele>2.0</ele><time>2026-04-06T15:42:13Z</time></trkpt><trkpt lat="43.77074007642569" lon="10.37070954836351"><ele>2.0</ele><time>2026-04-06T15:42:14Z</time></trkpt><trkpt lat="43.77082226533734" lon="10.370553811986035"><ele>2.0</ele><time>2026-04-06T15:42:15Z</time></trkpt><trkpt lat="43.77091062741798" lon="10.370405283852483"><ele>2.0</ele><time>2026-04-06T15:42:16Z</time></trkpt><trkpt lat="43.7709941282591" lon="10.370268564552417"><ele>2.0</ele><time>2026-04-06T15:42:17Z</time></trkpt><trkpt lat="43.77107799639538" lon="10.37013495812748"><ele>2.0</ele><time>2026-04-06T15:42:18Z</time></trkpt><trkpt lat="43.77113373864933" lon="10.370009075270877"><ele>2.0</ele><time>2026-04-06T15:42:19Z</time></trkpt><trkpt lat="43.77119114848157" lon="10.369889864696622"><ele>2.25</ele><time>2026-04-06T15:42:20Z</time></trkpt><trkpt lat="43.77126433843846" lon="10.369755457285637"><ele>2.5</ele><time>2026-04-06T15:42:21Z</time></trkpt><trkpt lat="43.771338166370384" lon="10.36962096091685"><ele>2.75</ele><time>2026-04-06T15:42:22Z</time></trkpt><trkpt lat="43.771403242643444" lon="10.36949335371593"><ele>3.0</ele><time>2026-04-06T15:42:23Z</time></trkpt><trkpt lat="43.77146863438487" lon="10.369387514816035"><ele>3.0</ele><time>2026-04-06T15:42:24Z</time></trkpt><trkpt lat="43.77152313573463" lon="10.36928731711467"><ele>3.0</ele><time>2026-04-06T15:42:25Z</time></trkpt><trkpt lat="43.77157107424393" lon="10.369191497847128"><ele>3.0</ele><time>2026-04-06T15:42:26Z</time></trkpt><trkpt lat="43.771632875650894" lon="10.369108627334104"><ele>3.0</ele><time>2026-04-06T15:42:27Z</time></trkpt><trkpt lat="43.771679684886976" lon="10.369019283554385"><ele>3.0</ele><time>2026-04-06T15:42:29Z</time></trkpt><trkpt lat="43.77153017098857" lon="10.368839086160099"><ele>3.1428571428571423</ele><time>2026-04-06T15:42:38Z</time></trkpt><trkpt lat="43.771478930777704" lon="10.368780417664187"><ele>3.2857142857142856</ele><time>2026-04-06T15:42:39Z</time></trkpt><trkpt lat="43.771427390827675" lon="10.368726058270518"><ele>3.4285714285714284</ele><time>2026-04-06T15:42:40Z</time></trkpt><trkpt lat="43.771370804119016" lon="10.368664952568821"><ele>3.571428571428571</ele><time>2026-04-06T15:42:41Z</time></trkpt><trkpt lat="43.77128585816202" lon="10.368594949875275"><ele>3.714285714285714</ele><time>2026-04-06T15:42:43Z</time></trkpt><trkpt lat="43.771231007584795" lon="10.36854986571469"><ele>3.8571428571428568</ele><time>2026-04-06T15:42:45Z</time></trkpt><trkpt lat="43.77120234444319" lon="10.368472140346357"><ele>4.0</ele><time>2026-04-06T15:42:58Z</time></trkpt><trkpt lat="43.77118624361653" lon="10.368363582434112"><ele>4.0</ele><time>2026-04-06T15:47:08Z</time></trkpt><trkpt lat="43.771192585159106" lon="10.368470801050186"><ele>4.0</ele><time>2026-04-06T15:47:38Z</time></trkpt><trkpt lat="43.77119389724339" lon="10.368358793053"><ele>4.0</ele><time>2026-04-06T15:48:59.415Z</time></trkpt><trkpt lat="43.771114174316644" lon="10.368504906714442"><ele>4.0</ele><time>2026-04-06T15:49:48Z</time></trkpt><trkpt lat="43.77120926883389" lon="10.368366018412015"><ele>4.0</ele><time>2026-04-06T15:49:54Z</time></trkpt><trkpt lat="43.77118626491705" lon="10.368457560233683"><ele>3.9999999999999996</ele><time>2026-04-06T15:50:25Z</time></trkpt><trkpt lat="43.77127149743849" lon="10.36837786028228"><ele>4.0</ele><time>2026-04-06T15:50:54Z</time></trkpt><trkpt lat="43.77118176136594" lon="10.368447884797504"><ele>4.0</ele><time>2026-04-06T15:57:02Z</time></trkpt><trkpt lat="43.771114187003086" lon="10.368374971806"><ele>4.0</ele><time>2026-04-06T15:57:20Z</time></trkpt><trkpt lat="43.77118499234146" lon="10.368443474606831"><ele>3.9999999999999996</ele><time>2026-04-06T15:57:29Z</time></trkpt><trkpt lat="43.77125096523849" lon="10.368409248223601"><ele>4.0</ele><time>2026-04-06T15:59:16Z</time></trkpt><trkpt lat="43.771180878838635" lon="10.368353430273185"><ele>4.0</ele><time>2026-04-06T16:12:49Z</time></trkpt><trkpt lat="43.77116011323798" lon="10.368445183637261"><ele>3.9999999999999996</ele><time>2026-04-06T16:13:13Z</time></trkpt><trkpt lat="43.7712004257438" lon="10.368518492852727"><ele>4.0</ele><time>2026-04-06T16:13:18Z</time></trkpt><trkpt lat="43.77127616429054" lon="10.368579577583818"><ele>4.0</ele><time>2026-04-06T16:13:27Z</time></trkpt><trkpt lat="43.771315764772375" lon="10.36868090126969"><ele>3.9999999999999996</ele><time>2026-04-06T16:13:34Z</time></trkpt><trkpt lat="43.771368690949366" lon="10.368737155270965"><ele>4.0</ele><time>2026-04-06T16:13:41Z</time></trkpt><trkpt lat="43.7714208100651" lon="10.368788365949895"><ele>4.0</ele><time>2026-04-06T16:13:45Z</time></trkpt><trkpt lat="43.77155341023877" lon="10.368872306946288"><ele>3.8571428571428568</ele><time>2026-04-06T16:13:56Z</time></trkpt><trkpt lat="43.77159359249504" lon="10.36894278734094"><ele>3.714285714285714</ele><time>2026-04-06T16:14:02Z</time></trkpt><trkpt lat="43.771658541483625" lon="10.368970300891817"><ele>3.571428571428571</ele><time>2026-04-06T16:14:06Z</time></trkpt><trkpt lat="43.77171876496616" lon="10.369018046249526"><ele>3.4285714285714284</ele><time>2026-04-06T16:14:14Z</time></trkpt><trkpt lat="43.771774639742716" lon="10.36906112404956"><ele>3.2857142857142856</ele><time>2026-04-06T16:14:17Z</time></trkpt><trkpt lat="43.771829474263825" lon="10.36911045745921"><ele>3.1428571428571423</ele><time>2026-04-06T16:14:25Z</time></trkpt><trkpt lat="43.77187897888918" lon="10.369174797373514"><ele>3.0</ele><time>2026-04-06T16:14:30Z</time></trkpt><trkpt lat="43.771945998362284" lon="10.36924118049309"><ele>2.9999999999999996</ele><time>2026-04-06T16:14:36Z</time></trkpt><trkpt lat="43.77201770960591" lon="10.369297406778802"><ele>3.0</ele><time>2026-04-06T16:14:42Z</time></trkpt><trkpt lat="43.77207635053744" lon="10.369360473187232"><ele>3.0</ele><time>2026-04-06T16:14:48Z</time></trkpt><trkpt lat="43.772155308727875" lon="10.369375028059073"><ele>3.0</ele><time>2026-04-06T16:14:54Z</time></trkpt><trkpt lat="43.772221132412554" lon="10.369408104703467"><ele>3.0</ele><time>2026-04-06T16:14:58Z</time></trkpt><trkpt lat="43.77225461284676" lon="10.369501416909257"><ele>2.9999999999999996</ele><time>2026-04-06T16:15:04Z</time></trkpt><trkpt lat="43.77230319932479" lon="10.369561574511346"><ele>3.0</ele><time>2026-04-06T16:15:09Z</time></trkpt><trkpt lat="43.77235688809064" lon="10.369617864835256"><ele>2.9999999999999996</ele><time>2026-04-06T16:15:14Z</time></trkpt><trkpt lat="43.77243318409778" lon="10.36965889320033"><ele>3.0</ele><time>2026-04-06T16:15:21Z</time></trkpt><trkpt lat="43.77249251753125" lon="10.369703785381601"><ele>3.0</ele><time>2026-04-06T16:15:26Z</time></trkpt><trkpt lat="43.772547691093514" lon="10.36976412282446"><ele>3.0</ele><time>2026-04-06T16:15:32Z</time></trkpt><trkpt lat="43.77262151959277" lon="10.369788478049898"><ele>3.0</ele><time>2026-04-06T16:15:42Z</time></trkpt><trkpt lat="43.77267900564886" lon="10.369735509628162"><ele>2.9999999999999996</ele><time>2026-04-06T16:15:46Z</time></trkpt><trkpt lat="43.77272029226927" lon="10.369657629901045"><ele>3.0</ele><time>2026-04-06T16:15:51Z</time></trkpt><trkpt lat="43.77272335623656" lon="10.369565704267657"><ele>2.9999999999999996</ele><time>2026-04-06T16:15:55Z</time></trkpt><trkpt lat="43.77278091318851" lon="10.369524316158921"><ele>3.0</ele><time>2026-04-06T16:16:02Z</time></trkpt><trkpt lat="43.77284462481493" lon="10.369543977612803"><ele>3.0</ele><time>2026-04-06T16:16:06Z</time></trkpt><trkpt lat="43.77288919266093" lon="10.369623500559504"><ele>3.0</ele><time>2026-04-06T16:16:10Z</time></trkpt><trkpt lat="43.7729509926088" lon="10.369672323746244"><ele>3.0</ele><time>2026-04-06T16:16:15Z</time></trkpt><trkpt lat="43.77300865731044" lon="10.369728235757348"><ele>2.9999999999999996</ele><time>2026-04-06T16:16:21Z</time></trkpt><trkpt lat="43.77305991755037" lon="10.369801205363807"><ele>3.0</ele><time>2026-04-06T16:16:29Z</time></trkpt><trkpt lat="43.773101097474324" lon="10.369880546526185"><ele>2.9999999999999996</ele><time>2026-04-06T16:16:34Z</time></trkpt><trkpt lat="43.77311849174974" lon="10.369965837056057"><ele>3.0</ele><time>2026-04-06T16:16:40Z</time></trkpt><trkpt lat="43.77314542136987" lon="10.37006069218793"><ele>3.0</ele><time>2026-04-06T16:16:47Z</time></trkpt><trkpt lat="43.773142495444176" lon="10.370159694863355"><ele>3.0</ele><time>2026-04-06T16:16:52Z</time></trkpt><trkpt lat="43.77315037334094" lon="10.370249721664269"><ele>3.0</ele><time>2026-04-06T16:16:57Z</time></trkpt><trkpt lat="43.77318334530087" lon="10.370332025742549"><ele>2.9999999999999996</ele><time>2026-04-06T16:17:02Z</time></trkpt><trkpt lat="43.77315006723501" lon="10.370431024528628"><ele>3.0</ele><time>2026-04-06T16:17:07Z</time></trkpt><trkpt lat="43.77317117114894" lon="10.370527540513777"><ele>3.1428571428571423</ele><time>2026-04-06T16:17:14Z</time></trkpt><trkpt lat="43.77316105637037" lon="10.370626566826882"><ele>3.2857142857142856</ele><time>2026-04-06T16:17:19Z</time></trkpt><trkpt lat="43.773190084835505" lon="10.370712752584032"><ele>3.4285714285714284</ele><time>2026-04-06T16:17:24Z</time></trkpt><trkpt lat="43.77320342441955" lon="10.370812575524175"><ele>3.571428571428571</ele><time>2026-04-06T16:17:30Z</time></trkpt><trkpt lat="43.77322800849728" lon="10.3708939093773"><ele>3.714285714285714</ele><time>2026-04-06T16:17:36Z</time></trkpt><trkpt lat="43.77325537320625" lon="10.370993317311607"><ele>3.8571428571428568</ele><time>2026-04-06T16:17:41Z</time></trkpt><trkpt lat="43.77328258848802" lon="10.3710862990159"><ele>4.0</ele><time>2026-04-06T16:17:46Z</time></trkpt><trkpt lat="43.77333780038968" lon="10.371132710244169"><ele>4.0</ele><time>2026-04-06T16:17:51Z</time></trkpt><trkpt lat="43.77335917751214" lon="10.37122215747326"><ele>3.9999999999999996</ele><time>2026-04-06T16:17:56Z</time></trkpt><trkpt lat="43.77341983386284" lon="10.371284990622133"><ele>4.0</ele><time>2026-04-06T16:18:03Z</time></trkpt><trkpt lat="43.773468579183515" lon="10.371344212879992"><ele>4.0</ele><time>2026-04-06T16:18:07Z</time></trkpt><trkpt lat="43.77350008678215" lon="10.371430056889542"><ele>3.9999999999999996</ele><time>2026-04-06T16:18:11Z</time></trkpt><trkpt lat="43.773547683785566" lon="10.371503777287813"><ele>4.0</ele><time>2026-04-06T16:18:19Z</time></trkpt><trkpt lat="43.77360381274114" lon="10.371556542064958"><ele>4.0</ele><time>2026-04-06T16:18:25Z</time></trkpt><trkpt lat="43.77362848351357" lon="10.371657056457092"><ele>4.0</ele><time>2026-04-06T16:18:31Z</time></trkpt><trkpt lat="43.77365799696539" lon="10.371749526653876"><ele>3.9999999999999996</ele><time>2026-04-06T16:18:36Z</time></trkpt><trkpt lat="43.77369670351865" lon="10.371832939229847"><ele>4.0</ele><time>2026-04-06T16:18:41Z</time></trkpt><trkpt lat="43.773737567257655" lon="10.371910049575792"><ele>4.0</ele><time>2026-04-06T16:18:47Z</time></trkpt><trkpt lat="43.77374675164319" lon="10.371997552735705"><ele>3.9999999999999996</ele><time>2026-04-06T16:18:51Z</time></trkpt><trkpt lat="43.77376073244968" lon="10.37209279125025"><ele>4.0</ele><time>2026-04-06T16:18:57Z</time></trkpt><trkpt lat="43.77379614645211" lon="10.3721888991308"><ele>4.0</ele><time>2026-04-06T16:19:04Z</time></trkpt><trkpt lat="43.773783152049" lon="10.37227981831726"><ele>3.9999999999999996</ele><time>2026-04-06T16:19:08Z</time></trkpt><trkpt lat="43.77380829591547" lon="10.372367557683646"><ele>4.0</ele><time>2026-04-06T16:19:15Z</time></trkpt><trkpt lat="43.773762949579215" lon="10.372467487203187"><ele>4.0</ele><time>2026-04-06T16:19:23Z</time></trkpt><trkpt lat="43.773700087284354" lon="10.372541320395653"><ele>4.0</ele><time>2026-04-06T16:19:28Z</time></trkpt><trkpt lat="43.773658776029926" lon="10.37261290279562"><ele>3.9999999999999996</ele><time>2026-04-06T16:19:37Z</time></trkpt><trkpt lat="43.773753088939955" lon="10.372527642185217"><ele>4.0</ele><time>2026-04-06T16:19:42Z</time></trkpt><trkpt lat="43.77370459266378" lon="10.372600992813169"><ele>4.0</ele><time>2026-04-06T16:19:46Z</time></trkpt><trkpt lat="43.77376166014306" lon="10.372690955922513"><ele>3.9999999999999996</ele><time>2026-04-06T16:19:51Z</time></trkpt><trkpt lat="43.77371205649931" lon="10.372630813375944"><ele>4.0</ele><time>2026-04-06T16:22:04Z</time></trkpt><trkpt lat="43.77372582241812" lon="10.372537841850914"><ele>4.0</ele><time>2026-04-06T16:34:07Z</time></trkpt><trkpt lat="43.77377683829858" lon="10.37245674125423"><ele>3.9999999999999996</ele><time>2026-04-06T16:34:14Z</time></trkpt><trkpt lat="43.77376628454709" lon="10.372356618803531"><ele>4.0</ele><time>2026-04-06T16:34:21Z</time></trkpt><trkpt lat="43.773786264938515" lon="10.372255813543243"><ele>4.0</ele><time>2026-04-06T16:34:22Z</time></trkpt><trkpt lat="43.773777254638574" lon="10.372149529507487"><ele>3.8000000000000003</ele><time>2026-04-06T16:34:28Z</time></trkpt><trkpt lat="43.773759667930136" lon="10.372048117219823"><ele>3.6000000000000005</ele><time>2026-04-06T16:34:34Z</time></trkpt><trkpt lat="43.773731695136426" lon="10.371889613640866"><ele>3.4</ele><time>2026-04-06T16:35:41Z</time></trkpt><trkpt lat="43.773626623688685" lon="10.37173134898425"><ele>3.2</ele><time>2026-04-06T16:35:42Z</time></trkpt><trkpt lat="43.77357893609552" lon="10.37166729055633"><ele>3.0</ele><time>2026-04-06T16:35:43Z</time></trkpt><trkpt lat="43.7735264600667" lon="10.371511674562564"><ele>3.0</ele><time>2026-04-06T16:35:44Z</time></trkpt><trkpt lat="43.77349041809966" lon="10.371389607502143"><ele>3.0</ele><time>2026-04-06T16:35:45Z</time></trkpt><trkpt lat="43.77344238128362" lon="10.371263504929525"><ele>3.0</ele><time>2026-04-06T16:35:46Z</time></trkpt><trkpt lat="43.77338300625354" lon="10.371135858135883"><ele>3.0</ele><time>2026-04-06T16:35:47Z</time></trkpt><trkpt lat="43.77330263060845" lon="10.370980691024782"><ele>3.0</ele><time>2026-04-06T16:35:48Z</time></trkpt><trkpt lat="43.77325148201987" lon="10.370829233530646"><ele>3.0</ele><time>2026-04-06T16:35:49Z</time></trkpt><trkpt lat="43.7732291941797" lon="10.370700253776143"><ele>3.0</ele><time>2026-04-06T16:35:50Z</time></trkpt><trkpt lat="43.773200324197425" lon="10.370577142572493"><ele>3.0</ele><time>2026-04-06T16:35:51Z</time></trkpt><trkpt lat="43.773160178203256" lon="10.37045605328793"><ele>3.0</ele><time>2026-04-06T16:35:52Z</time></trkpt><trkpt lat="43.773165114223325" lon="10.370326957881163"><ele>3.0</ele><time>2026-04-06T16:35:53Z</time></trkpt><trkpt lat="43.77315338654466" lon="10.370191659702302"><ele>3.0</ele><time>2026-04-06T16:35:54Z</time></trkpt><trkpt lat="43.77314420354915" lon="10.370083666986625"><ele>3.0</ele><time>2026-04-06T16:35:55Z</time></trkpt><trkpt lat="43.773124468098004" lon="10.369901929147078"><ele>3.0</ele><time>2026-04-06T16:35:56Z</time></trkpt><trkpt lat="43.77310810663485" lon="10.36979765707444"><ele>3.0</ele><time>2026-04-06T16:35:57Z</time></trkpt><trkpt lat="43.773045798954776" lon="10.36968363876468"><ele>3.0</ele><time>2026-04-06T16:36:00Z</time></trkpt><trkpt lat="43.77298129584804" lon="10.36960754014239"><ele>3.0</ele><time>2026-04-06T16:36:02Z</time></trkpt><trkpt lat="43.77289325948142" lon="10.369537075720823"><ele>3.0</ele><time>2026-04-06T16:36:04Z</time></trkpt><trkpt lat="43.77282492577329" lon="10.36951245643806"><ele>3.0</ele><time>2026-04-06T16:36:07Z</time></trkpt><trkpt lat="43.772756520216525" lon="10.369497448399484"><ele>3.0</ele><time>2026-04-06T16:36:10Z</time></trkpt><trkpt lat="43.77265791443251" lon="10.369658862153885"><ele>3.0</ele><time>2026-04-06T16:36:13Z</time></trkpt><trkpt lat="43.77259625580527" lon="10.369771625808111"><ele>3.0</ele><time>2026-04-06T16:36:15Z</time></trkpt><trkpt lat="43.77256278920488" lon="10.369871680734683"><ele>3.0</ele><time>2026-04-06T16:36:18Z</time></trkpt><trkpt lat="43.772433471104186" lon="10.369734034525882"><ele>3.0</ele><time>2026-04-06T16:36:21Z</time></trkpt><trkpt lat="43.77238050138309" lon="10.369612121060731"><ele>3.0</ele><time>2026-04-06T16:36:22Z</time></trkpt><trkpt lat="43.77226798528508" lon="10.369539726691503"><ele>3.0</ele><time>2026-04-06T16:36:24Z</time></trkpt><trkpt lat="43.77220095307175" lon="10.36949649489149"><ele>3.0</ele><time>2026-04-06T16:36:25Z</time></trkpt><trkpt lat="43.77209051382112" lon="10.369388347213826"><ele>3.0</ele><time>2026-04-06T16:36:27Z</time></trkpt><trkpt lat="43.772006847089905" lon="10.3692918529632"><ele>3.0</ele><time>2026-04-06T16:36:29Z</time></trkpt><trkpt lat="43.77192194949263" lon="10.36919696358739"><ele>3.0</ele><time>2026-04-06T16:36:31Z</time></trkpt><trkpt lat="43.771841681654884" lon="10.369148267198051"><ele>3.0</ele><time>2026-04-06T16:36:33Z</time></trkpt><trkpt lat="43.77176558458715" lon="10.36907785285486"><ele>3.0</ele><time>2026-04-06T16:36:35Z</time></trkpt><trkpt lat="43.77169946489215" lon="10.369019775384771"><ele>3.0</ele><time>2026-04-06T16:36:37Z</time></trkpt><trkpt lat="43.77160320343607" lon="10.368920474318575"><ele>3.0</ele><time>2026-04-06T16:36:39Z</time></trkpt><trkpt lat="43.77152860749678" lon="10.3688387522909"><ele>3.0</ele><time>2026-04-06T16:36:41Z</time></trkpt><trkpt lat="43.771469109261716" lon="10.368763454296129"><ele>3.1666666666666665</ele><time>2026-04-06T16:36:43Z</time></trkpt><trkpt lat="43.77139922748047" lon="10.368693415026447"><ele>3.333333333333333</ele><time>2026-04-06T16:36:45Z</time></trkpt><trkpt lat="43.77134521592601" lon="10.36863181308883"><ele>3.5</ele><time>2026-04-06T16:36:47Z</time></trkpt><trkpt lat="43.77128206537568" lon="10.368586866538042"><ele>3.6666666666666665</ele><time>2026-04-06T16:36:49Z</time></trkpt><trkpt lat="43.77121764559341" lon="10.368515379082416"><ele>3.833333333333333</ele><time>2026-04-06T16:36:52Z</time></trkpt><trkpt lat="43.77116174536266" lon="10.368460453442342"><ele>4.0</ele><time>2026-04-06T16:36:55Z</time></trkpt><trkpt lat="43.77110242859007" lon="10.368402700954766"><ele>4.0</ele><time>2026-04-06T16:37:19Z</time></trkpt><trkpt lat="43.77124966937639" lon="10.368383392271971"><ele>4.0</ele><time>2026-04-06T16:38:20Z</time></trkpt><trkpt lat="43.77118758759571" lon="10.36840442814494"><ele>4.0</ele><time>2026-04-06T16:38:28Z</time></trkpt><trkpt lat="43.77113808698912" lon="10.368518000311944"><ele>4.0</ele><time>2026-04-06T16:38:43Z</time></trkpt><trkpt lat="43.771196194918474" lon="10.368375176096672"><ele>4.0</ele><time>2026-04-06T16:39:09Z</time></trkpt><trkpt lat="43.77115673380567" lon="10.368468528544874"><ele>4.0</ele><time>2026-04-06T16:42:55Z</time></trkpt><trkpt lat="43.77115316112842" lon="10.368569257553968"><ele>4.0</ele><time>2026-04-06T16:43:02Z</time></trkpt><trkpt lat="43.77129305649151" lon="10.368595464540517"><ele>4.0</ele><time>2026-04-06T16:43:54Z</time></trkpt><trkpt lat="43.7713726602729" lon="10.36868805137147"><ele>4.0</ele><time>2026-04-06T16:43:56Z</time></trkpt><trkpt lat="43.77145125691615" lon="10.368741578578934"><ele>4.0</ele><time>2026-04-06T16:43:57Z</time></trkpt><trkpt lat="43.77156215237623" lon="10.368820603011615"><ele>3.8000000000000003</ele><time>2026-04-06T16:43:59Z</time></trkpt><trkpt lat="43.77163467377742" lon="10.368876278575133"><ele>3.6000000000000005</ele><time>2026-04-06T16:44:01Z</time></trkpt><trkpt lat="43.771642782465584" lon="10.368973374122039"><ele>3.4</ele><time>2026-04-06T16:44:03Z</time></trkpt><trkpt lat="43.771588584804384" lon="10.369035216448527"><ele>3.2</ele><time>2026-04-06T16:44:05Z</time></trkpt><trkpt lat="43.77153301190339" lon="10.369122051244346"><ele>3.0</ele><time>2026-04-06T16:44:06Z</time></trkpt><trkpt lat="43.77146460327711" lon="10.369302149932125"><ele>3.0</ele><time>2026-04-06T16:44:08Z</time></trkpt><trkpt lat="43.77143378902227" lon="10.36940451908899"><ele>3.0</ele><time>2026-04-06T16:44:10Z</time></trkpt><trkpt lat="43.771378076949105" lon="10.369454166008017"><ele>3.0</ele><time>2026-04-06T16:44:13Z</time></trkpt><trkpt lat="43.771474795506485" lon="10.369398471297412"><ele>3.0</ele><time>2026-04-06T16:45:14Z</time></trkpt><trkpt lat="43.77145614436957" lon="10.369294544326783"><ele>3.0</ele><time>2026-04-06T16:45:18Z</time></trkpt><trkpt lat="43.771482869908226" lon="10.369205263454244"><ele>3.0</ele><time>2026-04-06T16:45:22Z</time></trkpt><trkpt lat="43.77152850422176" lon="10.369114900232418"><ele>2.9999999999999996</ele><time>2026-04-06T16:45:28Z</time></trkpt><trkpt lat="43.77156583675349" lon="10.369032212384516"><ele>3.0</ele><time>2026-04-06T16:45:35Z</time></trkpt><trkpt lat="43.771555818979714" lon="10.368919822348431"><ele>3.0</ele><time>2026-04-06T16:45:43Z</time></trkpt><trkpt lat="43.77149739163392" lon="10.368855640153907"><ele>3.0</ele><time>2026-04-06T16:45:50Z</time></trkpt><trkpt lat="43.771444075133125" lon="10.368799877890917"><ele>3.0</ele><time>2026-04-06T16:45:55Z</time></trkpt><trkpt lat="43.7713920952419" lon="10.3687277911578"><ele>2.9999999999999996</ele><time>2026-04-06T16:46:00Z</time></trkpt><trkpt lat="43.771336427727526" lon="10.368673492267678"><ele>3.0</ele><time>2026-04-06T16:46:05Z</time></trkpt><trkpt lat="43.77128353638385" lon="10.368609999711008"><ele>3.1428571428571423</ele><time>2026-04-06T16:46:09Z</time></trkpt><trkpt lat="43.77121684938243" lon="10.368565169557353"><ele>3.2857142857142856</ele><time>2026-04-06T16:46:14Z</time></trkpt><trkpt lat="43.77117358354769" lon="10.368498530701945"><ele>3.4285714285714284</ele><time>2026-04-06T16:46:20Z</time></trkpt><trkpt lat="43.77112166040199" lon="10.368568473996511"><ele>3.571428571428571</ele><time>2026-04-06T16:47:00Z</time></trkpt><trkpt lat="43.771081788819366" lon="10.368640385773176"><ele>3.714285714285714</ele><time>2026-04-06T16:47:05Z</time></trkpt><trkpt lat="43.77111804058965" lon="10.368567098241941"><ele>3.8571428571428568</ele><time>2026-04-06T16:47:10Z</time></trkpt><trkpt lat="43.77116086442841" lon="10.368501377959749"><ele>4.0</ele><time>2026-04-06T16:47:15Z</time></trkpt><trkpt lat="43.77111879716809" lon="10.368430743710547"><ele>4.0</ele><time>2026-04-06T16:48:15Z</time></trkpt><trkpt lat="43.771203193970926" lon="10.36835241921862"><ele>4.0</ele><time>2026-04-06T16:48:35Z</time></trkpt></trkseg></trk></gpx>